<?xml version='1.0' encoding='UTF-8'?><gpx version="1.1" creator="JPX - https://github.com/jenetics/jpx" xmlns="http://www.topografix.com/GPX/1/1"><trk><trkseg><trkpt lat="41.5217267" lon="0.8722983"><ele>317.0</ele><time>2026-03-31T07:04:08.162Z</time></trkpt><trkpt lat="41.521775" lon="0.8721967"><ele>317.0</ele><time>2026-03-31T07:04:11.162Z</time></trkpt><trkpt lat="41.521825" lon="0.8720783"><ele>317.0</ele><time>2026-03-31T07:04:13.162Z</time></trkpt><trkpt lat="41.521855" lon="0.87196"><ele>317.0</ele><time>2026-03-31T07:04:15.161Z</time></trkpt><trkpt lat="41.5217717" lon="0.8718533"><ele>317.0</ele><time>2026-03-31T07:04:18.162Z</time></trkpt><trkpt lat="41.5216417" lon="0.8717767"><ele>317.1666666666667</ele><time>2026-03-31T07:04:20.161Z</time></trkpt><trkpt lat="41.521565" lon="0.8717433"><ele>317.33333333333337</ele><time>2026-03-31T07:04:21.162Z</time></trkpt><trkpt lat="41.5214917" lon="0.8717117"><ele>317.5</ele><time>2026-03-31T07:04:22.161Z</time></trkpt><trkpt lat="41.5214167" lon="0.87168"><ele>317.6666666666667</ele><time>2026-03-31T07:04:23.162Z</time></trkpt><trkpt lat="41.5213517" lon="0.8716433"><ele>317.8333333333333</ele><time>2026-03-31T07:04:24.161Z</time></trkpt><trkpt lat="41.52129" lon="0.8716117"><ele>318.0</ele><time>2026-03-31T07:04:25.161Z</time></trkpt><trkpt lat="41.5212167" lon="0.8715683"><ele>318.0</ele><time>2026-03-31T07:04:27.161Z</time></trkpt><trkpt lat="41.52119" lon="0.8714817"><ele>318.0</ele><time>2026-03-31T07:04:30.161Z</time></trkpt><trkpt lat="41.5212133" lon="0.8713283"><ele>318.0</ele><time>2026-03-31T07:04:32.161Z</time></trkpt><trkpt lat="41.5212283" lon="0.871245"><ele>318.0</ele><time>2026-03-31T07:04:33.161Z</time></trkpt><trkpt lat="41.52125" lon="0.871165"><ele>318.0</ele><time>2026-03-31T07:04:34.162Z</time></trkpt><trkpt lat="41.521265" lon="0.8710383"><ele>318.0</ele><time>2026-03-31T07:04:36.162Z</time></trkpt><trkpt lat="41.5212067" lon="0.8709617"><ele>316.6</ele><time>2026-03-31T07:04:38.161Z</time></trkpt><trkpt lat="41.521095" lon="0.8708883"><ele>315.20000000000005</ele><time>2026-03-31T07:04:40.161Z</time></trkpt><trkpt lat="41.5210267" lon="0.8708483"><ele>313.8</ele><time>2026-03-31T07:04:41.161Z</time></trkpt><trkpt lat="41.5209517" lon="0.8707983"><ele>312.40000000000003</ele><time>2026-03-31T07:04:42.162Z</time></trkpt><trkpt lat="41.52087" lon="0.8707667"><ele>311.0</ele><time>2026-03-31T07:04:43.162Z</time></trkpt><trkpt lat="41.5207783" lon="0.8707333"><ele>311.0</ele><time>2026-03-31T07:04:44.161Z</time></trkpt><trkpt lat="41.5206983" lon="0.8706917"><ele>311.0</ele><time>2026-03-31T07:04:45.161Z</time></trkpt><trkpt lat="41.5206217" lon="0.8706417"><ele>311.0</ele><time>2026-03-31T07:04:46.161Z</time></trkpt><trkpt lat="41.520555" lon="0.8706067"><ele>311.0</ele><time>2026-03-31T07:04:47.161Z</time></trkpt><trkpt lat="41.52049" lon="0.8705767"><ele>311.0</ele><time>2026-03-31T07:04:48.161Z</time></trkpt><trkpt lat="41.52043" lon="0.87055"><ele>311.0</ele><time>2026-03-31T07:04:49.162Z</time></trkpt><trkpt lat="41.520325" lon="0.8705017"><ele>310.1666666666667</ele><time>2026-03-31T07:04:51.161Z</time></trkpt><trkpt lat="41.5202617" lon="0.8704767"><ele>309.33333333333337</ele><time>2026-03-31T07:04:54.161Z</time></trkpt><trkpt lat="41.5201883" lon="0.8703967"><ele>308.5</ele><time>2026-03-31T07:04:58.162Z</time></trkpt><trkpt lat="41.5201217" lon="0.870335"><ele>307.6666666666667</ele><time>2026-03-31T07:04:59.162Z</time></trkpt><trkpt lat="41.520045" lon="0.870285"><ele>306.8333333333333</ele><time>2026-03-31T07:05:00.161Z</time></trkpt><trkpt lat="41.5199517" lon="0.870235"><ele>306.0</ele><time>2026-03-31T07:05:01.161Z</time></trkpt><trkpt lat="41.5198567" lon="0.8701867"><ele>306.0</ele><time>2026-03-31T07:05:02.162Z</time></trkpt><trkpt lat="41.5197717" lon="0.8701267"><ele>306.0</ele><time>2026-03-31T07:05:03.161Z</time></trkpt><trkpt lat="41.5196867" lon="0.8700683"><ele>306.0</ele><time>2026-03-31T07:05:04.161Z</time></trkpt><trkpt lat="41.5196067" lon="0.870015"><ele>306.0</ele><time>2026-03-31T07:05:05.161Z</time></trkpt><trkpt lat="41.5195217" lon="0.8699667"><ele>306.0</ele><time>2026-03-31T07:05:06.161Z</time></trkpt><trkpt lat="41.5194317" lon="0.869915"><ele>305.0</ele><time>2026-03-31T07:05:07.161Z</time></trkpt><trkpt lat="41.51934" lon="0.869865"><ele>304.0</ele><time>2026-03-31T07:05:08.161Z</time></trkpt><trkpt lat="41.5192517" lon="0.8698033"><ele>303.0</ele><time>2026-03-31T07:05:09.161Z</time></trkpt><trkpt lat="41.5191633" lon="0.86974"><ele>302.0</ele><time>2026-03-31T07:05:10.162Z</time></trkpt><trkpt lat="41.5190817" lon="0.8696717"><ele>301.0</ele><time>2026-03-31T07:05:11.162Z</time></trkpt><trkpt lat="41.5190017" lon="0.8696067"><ele>301.0</ele><time>2026-03-31T07:05:12.161Z</time></trkpt><trkpt lat="41.518925" lon="0.86955"><ele>301.0</ele><time>2026-03-31T07:05:13.161Z</time></trkpt><trkpt lat="41.5188667" lon="0.8695"><ele>301.0</ele><time>2026-03-31T07:05:14.162Z</time></trkpt><trkpt lat="41.5187683" lon="0.8694183"><ele>301.0</ele><time>2026-03-31T07:05:16.161Z</time></trkpt><trkpt lat="41.51865" lon="0.8693367"><ele>301.0</ele><time>2026-03-31T07:05:18.161Z</time></trkpt><trkpt lat="41.5185783" lon="0.8692867"><ele>300.5</ele><time>2026-03-31T07:05:19.161Z</time></trkpt><trkpt lat="41.5184983" lon="0.8692317"><ele>300.0</ele><time>2026-03-31T07:05:20.162Z</time></trkpt><trkpt lat="41.5184183" lon="0.8691833"><ele>299.5</ele><time>2026-03-31T07:05:21.162Z</time></trkpt><trkpt lat="41.51834" lon="0.869125"><ele>299.0</ele><time>2026-03-31T07:05:22.161Z</time></trkpt><trkpt lat="41.5182633" lon="0.8690667"><ele>298.5</ele><time>2026-03-31T07:05:23.161Z</time></trkpt><trkpt lat="41.518185" lon="0.8690083"><ele>298.0</ele><time>2026-03-31T07:05:24.161Z</time></trkpt><trkpt lat="41.5181117" lon="0.8689483"><ele>298.0</ele><time>2026-03-31T07:05:25.161Z</time></trkpt><trkpt lat="41.5180433" lon="0.8688933"><ele>298.0</ele><time>2026-03-31T07:05:26.162Z</time></trkpt><trkpt lat="41.5179783" lon="0.868845"><ele>298.0</ele><time>2026-03-31T07:05:27.161Z</time></trkpt><trkpt lat="41.51792" lon="0.8688033"><ele>298.0</ele><time>2026-03-31T07:05:28.162Z</time></trkpt><trkpt lat="41.5178417" lon="0.8687167"><ele>298.0</ele><time>2026-03-31T07:05:30.161Z</time></trkpt><trkpt lat="41.5178583" lon="0.8686167"><ele>298.0</ele><time>2026-03-31T07:05:33.162Z</time></trkpt><trkpt lat="41.5179433" lon="0.8684783"><ele>298.0</ele><time>2026-03-31T07:05:35.162Z</time></trkpt><trkpt lat="41.5180217" lon="0.868395"><ele>298.0</ele><time>2026-03-31T07:05:36.162Z</time></trkpt><trkpt lat="41.5181" lon="0.8683133"><ele>298.0</ele><time>2026-03-31T07:05:37.161Z</time></trkpt><trkpt lat="41.5181733" lon="0.868245"><ele>298.0</ele><time>2026-03-31T07:05:38.161Z</time></trkpt><trkpt lat="41.5182283" lon="0.8681783"><ele>298.0</ele><time>2026-03-31T07:05:39.161Z</time></trkpt><trkpt lat="41.518285" lon="0.8681183"><ele>298.0</ele><time>2026-03-31T07:05:40.161Z</time></trkpt><trkpt lat="41.5183317" lon="0.8680483"><ele>298.0</ele><time>2026-03-31T07:05:41.161Z</time></trkpt><trkpt lat="41.51837" lon="0.8679767"><ele>298.0</ele><time>2026-03-31T07:05:42.162Z</time></trkpt><trkpt lat="41.5184017" lon="0.8679033"><ele>298.0</ele><time>2026-03-31T07:05:43.161Z</time></trkpt><trkpt lat="41.5183967" lon="0.8677867"><ele>298.0</ele><time>2026-03-31T07:05:45.161Z</time></trkpt><trkpt lat="41.5183367" lon="0.8676683"><ele>298.0</ele><time>2026-03-31T07:05:47.161Z</time></trkpt><trkpt lat="41.518325" lon="0.86752"><ele>298.0</ele><time>2026-03-31T07:05:49.161Z</time></trkpt><trkpt lat="41.5183417" lon="0.86741"><ele>297.2</ele><time>2026-03-31T07:05:50.162Z</time></trkpt><trkpt lat="41.5183583" lon="0.8672867"><ele>296.4</ele><time>2026-03-31T07:05:51.161Z</time></trkpt><trkpt lat="41.5183883" lon="0.8671483"><ele>295.59999999999997</ele><time>2026-03-31T07:05:52.161Z</time></trkpt><trkpt lat="41.51841" lon="0.8670133"><ele>294.8</ele><time>2026-03-31T07:05:53.162Z</time></trkpt><trkpt lat="41.5184333" lon="0.8668883"><ele>294.0</ele><time>2026-03-31T07:05:54.161Z</time></trkpt><trkpt lat="41.51846" lon="0.866775"><ele>293.6666666666667</ele><time>2026-03-31T07:05:55.161Z</time></trkpt><trkpt lat="41.5184967" lon="0.8666717"><ele>293.3333333333333</ele><time>2026-03-31T07:05:56.161Z</time></trkpt><trkpt lat="41.51855" lon="0.8665717"><ele>293.0</ele><time>2026-03-31T07:05:57.161Z</time></trkpt><trkpt lat="41.5186067" lon="0.8664783"><ele>292.66666666666663</ele><time>2026-03-31T07:05:58.161Z</time></trkpt><trkpt lat="41.5186617" lon="0.8663933"><ele>292.3333333333333</ele><time>2026-03-31T07:05:59.162Z</time></trkpt><trkpt lat="41.5187117" lon="0.86632"><ele>292.0</ele><time>2026-03-31T07:06:00.161Z</time></trkpt><trkpt lat="41.518805" lon="0.8662067"><ele>292.0</ele><time>2026-03-31T07:06:02.161Z</time></trkpt><trkpt lat="41.5188717" lon="0.8660867"><ele>292.0</ele><time>2026-03-31T07:06:04.161Z</time></trkpt><trkpt lat="41.5189017" lon="0.866005"><ele>292.0</ele><time>2026-03-31T07:06:05.161Z</time></trkpt><trkpt lat="41.5189283" lon="0.8658983"><ele>292.0</ele><time>2026-03-31T07:06:06.161Z</time></trkpt><trkpt lat="41.51895" lon="0.8657717"><ele>292.0</ele><time>2026-03-31T07:06:07.162Z</time></trkpt><trkpt lat="41.5189717" lon="0.86564"><ele>291.2</ele><time>2026-03-31T07:06:08.161Z</time></trkpt><trkpt lat="41.5189967" lon="0.865505"><ele>290.4</ele><time>2026-03-31T07:06:09.162Z</time></trkpt><trkpt lat="41.5190183" lon="0.865365"><ele>289.6</ele><time>2026-03-31T07:06:10.162Z</time></trkpt><trkpt lat="41.5190433" lon="0.86522"><ele>288.8</ele><time>2026-03-31T07:06:11.161Z</time></trkpt><trkpt lat="41.5190667" lon="0.8650683"><ele>288.0</ele><time>2026-03-31T07:06:12.161Z</time></trkpt><trkpt lat="41.5190917" lon="0.8649167"><ele>287.75</ele><time>2026-03-31T07:06:13.161Z</time></trkpt><trkpt lat="41.5191167" lon="0.864765"><ele>287.5</ele><time>2026-03-31T07:06:14.161Z</time></trkpt><trkpt lat="41.5191417" lon="0.86461"><ele>287.25</ele><time>2026-03-31T07:06:15.161Z</time></trkpt><trkpt lat="41.5191667" lon="0.86446"><ele>287.0</ele><time>2026-03-31T07:06:16.162Z</time></trkpt><trkpt lat="41.51919" lon="0.8643083"><ele>287.0</ele><time>2026-03-31T07:06:17.161Z</time></trkpt><trkpt lat="41.519215" lon="0.8641583"><ele>287.0</ele><time>2026-03-31T07:06:18.161Z</time></trkpt><trkpt lat="41.5192383" lon="0.86401"><ele>287.0</ele><time>2026-03-31T07:06:19.162Z</time></trkpt><trkpt lat="41.5192617" lon="0.86386"><ele>287.0</ele><time>2026-03-31T07:06:20.161Z</time></trkpt><trkpt lat="41.519285" lon="0.863715"><ele>287.0</ele><time>2026-03-31T07:06:21.162Z</time></trkpt><trkpt lat="41.5193067" lon="0.8635733"><ele>287.0</ele><time>2026-03-31T07:06:22.162Z</time></trkpt><trkpt lat="41.5193267" lon="0.8634267"><ele>287.0</ele><time>2026-03-31T07:06:23.162Z</time></trkpt><trkpt lat="41.5193483" lon="0.8632733"><ele>287.0</ele><time>2026-03-31T07:06:24.161Z</time></trkpt><trkpt lat="41.51937" lon="0.8631183"><ele>287.2</ele><time>2026-03-31T07:06:25.162Z</time></trkpt><trkpt lat="41.519385" lon="0.8629567"><ele>287.4</ele><time>2026-03-31T07:06:26.161Z</time></trkpt><trkpt lat="41.519405" lon="0.8628133"><ele>287.6</ele><time>2026-03-31T07:06:27.161Z</time></trkpt><trkpt lat="41.5194267" lon="0.86269"><ele>287.8</ele><time>2026-03-31T07:06:28.162Z</time></trkpt><trkpt lat="41.5194417" lon="0.8625783"><ele>288.0</ele><time>2026-03-31T07:06:29.161Z</time></trkpt><trkpt lat="41.5194517" lon="0.8624833"><ele>287.6666666666667</ele><time>2026-03-31T07:06:30.162Z</time></trkpt><trkpt lat="41.5194683" lon="0.86239"><ele>287.3333333333333</ele><time>2026-03-31T07:06:31.161Z</time></trkpt><trkpt lat="41.5194883" lon="0.8622983"><ele>287.0</ele><time>2026-03-31T07:06:32.161Z</time></trkpt><trkpt lat="41.5195083" lon="0.8621817"><ele>286.66666666666663</ele><time>2026-03-31T07:06:33.161Z</time></trkpt><trkpt lat="41.5195283" lon="0.86205"><ele>286.3333333333333</ele><time>2026-03-31T07:06:34.162Z</time></trkpt><trkpt lat="41.519545" lon="0.8619133"><ele>286.0</ele><time>2026-03-31T07:06:35.162Z</time></trkpt><trkpt lat="41.5195633" lon="0.8617783"><ele>285.40000000000003</ele><time>2026-03-31T07:06:36.161Z</time></trkpt><trkpt lat="41.5195733" lon="0.8616367"><ele>284.8</ele><time>2026-03-31T07:06:37.161Z</time></trkpt><trkpt lat="41.5195817" lon="0.8615133"><ele>284.20000000000005</ele><time>2026-03-31T07:06:38.162Z</time></trkpt><trkpt lat="41.5195817" lon="0.861375"><ele>283.6</ele><time>2026-03-31T07:06:39.161Z</time></trkpt><trkpt lat="41.51958" lon="0.8612467"><ele>283.0</ele><time>2026-03-31T07:06:40.162Z</time></trkpt><trkpt lat="41.5195867" lon="0.8611283"><ele>283.0</ele><time>2026-03-31T07:06:41.161Z</time></trkpt><trkpt lat="41.5195933" lon="0.8610233"><ele>283.0</ele><time>2026-03-31T07:06:42.161Z</time></trkpt><trkpt lat="41.5196183" lon="0.860885"><ele>283.0</ele><time>2026-03-31T07:06:44.161Z</time></trkpt><trkpt lat="41.5196367" lon="0.8607983"><ele>283.0</ele><time>2026-03-31T07:06:46.162Z</time></trkpt><trkpt lat="41.5195933" lon="0.860645"><ele>283.0</ele><time>2026-03-31T07:06:48.162Z</time></trkpt><trkpt lat="41.51954" lon="0.8605383"><ele>283.0</ele><time>2026-03-31T07:06:49.161Z</time></trkpt><trkpt lat="41.519475" lon="0.8604167"><ele>283.0</ele><time>2026-03-31T07:06:50.161Z</time></trkpt><trkpt lat="41.51941" lon="0.8602867"><ele>283.0</ele><time>2026-03-31T07:06:51.161Z</time></trkpt><trkpt lat="41.5193517" lon="0.8601633"><ele>283.0</ele><time>2026-03-31T07:06:52.161Z</time></trkpt><trkpt lat="41.519305" lon="0.8600367"><ele>283.0</ele><time>2026-03-31T07:06:53.161Z</time></trkpt><trkpt lat="41.519265" lon="0.8599067"><ele>282.4</ele><time>2026-03-31T07:06:54.161Z</time></trkpt><trkpt lat="41.519235" lon="0.859775"><ele>281.8</ele><time>2026-03-31T07:06:55.161Z</time></trkpt><trkpt lat="41.5192367" lon="0.8596267"><ele>281.2</ele><time>2026-03-31T07:06:56.161Z</time></trkpt><trkpt lat="41.51924" lon="0.8594867"><ele>280.6</ele><time>2026-03-31T07:06:57.162Z</time></trkpt><trkpt lat="41.5192333" lon="0.8593367"><ele>280.0</ele><time>2026-03-31T07:06:58.161Z</time></trkpt><trkpt lat="41.5191983" lon="0.8591917"><ele>280.0</ele><time>2026-03-31T07:06:59.161Z</time></trkpt><trkpt lat="41.5191283" lon="0.8590567"><ele>280.0</ele><time>2026-03-31T07:07:00.162Z</time></trkpt><trkpt lat="41.5190567" lon="0.85891"><ele>280.0</ele><time>2026-03-31T07:07:01.162Z</time></trkpt><trkpt lat="41.5189983" lon="0.8587267"><ele>280.0</ele><time>2026-03-31T07:07:02.161Z</time></trkpt><trkpt lat="41.5189533" lon="0.8585417"><ele>279.5</ele><time>2026-03-31T07:07:03.162Z</time></trkpt><trkpt lat="41.5189183" lon="0.8583467"><ele>279.0</ele><time>2026-03-31T07:07:04.162Z</time></trkpt><trkpt lat="41.5188833" lon="0.85816"><ele>278.5</ele><time>2026-03-31T07:07:05.161Z</time></trkpt><trkpt lat="41.51885" lon="0.8579767"><ele>278.0</ele><time>2026-03-31T07:07:06.161Z</time></trkpt><trkpt lat="41.51881" lon="0.857785"><ele>278.0</ele><time>2026-03-31T07:07:07.161Z</time></trkpt><trkpt lat="41.5187717" lon="0.8576217"><ele>278.0</ele><time>2026-03-31T07:07:08.161Z</time></trkpt><trkpt lat="41.5187383" lon="0.8574533"><ele>278.0</ele><time>2026-03-31T07:07:09.161Z</time></trkpt><trkpt lat="41.5187083" lon="0.85729"><ele>278.0</ele><time>2026-03-31T07:07:10.162Z</time></trkpt><trkpt lat="41.5186983" lon="0.8571267"><ele>278.75</ele><time>2026-03-31T07:07:11.161Z</time></trkpt><trkpt lat="41.5186883" lon="0.856985"><ele>279.5</ele><time>2026-03-31T07:07:12.162Z</time></trkpt><trkpt lat="41.5186467" lon="0.85684"><ele>280.25</ele><time>2026-03-31T07:07:13.162Z</time></trkpt><trkpt lat="41.51858" lon="0.856705"><ele>281.0</ele><time>2026-03-31T07:07:14.161Z</time></trkpt><trkpt lat="41.5184933" lon="0.8565817"><ele>281.0</ele><time>2026-03-31T07:07:15.162Z</time></trkpt><trkpt lat="41.5184033" lon="0.85643"><ele>281.0</ele><time>2026-03-31T07:07:16.161Z</time></trkpt><trkpt lat="41.51831" lon="0.85625"><ele>281.0</ele><time>2026-03-31T07:07:17.162Z</time></trkpt><trkpt lat="41.5182183" lon="0.8560583"><ele>279.6666666666667</ele><time>2026-03-31T07:07:18.162Z</time></trkpt><trkpt lat="41.5181267" lon="0.8558717"><ele>278.3333333333333</ele><time>2026-03-31T07:07:19.161Z</time></trkpt><trkpt lat="41.5180217" lon="0.8556717"><ele>277.0</ele><time>2026-03-31T07:07:20.161Z</time></trkpt><trkpt lat="41.5179183" lon="0.85545"><ele>277.0</ele><time>2026-03-31T07:07:21.161Z</time></trkpt><trkpt lat="41.5178083" lon="0.855225"><ele>277.0</ele><time>2026-03-31T07:07:22.161Z</time></trkpt><trkpt lat="41.517695" lon="0.8549967"><ele>277.0</ele><time>2026-03-31T07:07:23.161Z</time></trkpt><trkpt lat="41.5175883" lon="0.8547717"><ele>277.0</ele><time>2026-03-31T07:07:24.162Z</time></trkpt><trkpt lat="41.5174767" lon="0.8545417"><ele>277.0</ele><time>2026-03-31T07:07:25.162Z</time></trkpt><trkpt lat="41.5173633" lon="0.8543017"><ele>277.0</ele><time>2026-03-31T07:07:26.161Z</time></trkpt><trkpt lat="41.51725" lon="0.8540583"><ele>277.66666666666663</ele><time>2026-03-31T07:07:27.162Z</time></trkpt><trkpt lat="41.5171317" lon="0.8538167"><ele>278.3333333333333</ele><time>2026-03-31T07:07:28.161Z</time></trkpt><trkpt lat="41.5170133" lon="0.8535767"><ele>279.0</ele><time>2026-03-31T07:07:29.161Z</time></trkpt><trkpt lat="41.5168917" lon="0.8533333"><ele>280.0</ele><time>2026-03-31T07:07:30.161Z</time></trkpt><trkpt lat="41.51676" lon="0.8530883"><ele>281.0</ele><time>2026-03-31T07:07:31.162Z</time></trkpt><trkpt lat="41.51662" lon="0.8528483"><ele>282.5</ele><time>2026-03-31T07:07:32.161Z</time></trkpt><trkpt lat="41.516475" lon="0.8526117"><ele>284.0</ele><time>2026-03-31T07:07:33.161Z</time></trkpt><trkpt lat="41.5163267" lon="0.8523933"><ele>285.0</ele><time>2026-03-31T07:07:34.161Z</time></trkpt><trkpt lat="41.5161717" lon="0.8521767"><ele>286.0</ele><time>2026-03-31T07:07:35.162Z</time></trkpt><trkpt lat="41.5160233" lon="0.8519567"><ele>287.0</ele><time>2026-03-31T07:07:36.162Z</time></trkpt><trkpt lat="41.5158667" lon="0.85175"><ele>287.0</ele><time>2026-03-31T07:07:37.161Z</time></trkpt><trkpt lat="41.5157217" lon="0.8515433"><ele>287.0</ele><time>2026-03-31T07:07:38.161Z</time></trkpt><trkpt lat="41.5155667" lon="0.8513333"><ele>287.0</ele><time>2026-03-31T07:07:39.161Z</time></trkpt><trkpt lat="41.515415" lon="0.85112"><ele>288.0</ele><time>2026-03-31T07:07:40.161Z</time></trkpt><trkpt lat="41.515255" lon="0.8509083"><ele>289.0</ele><time>2026-03-31T07:07:41.162Z</time></trkpt><trkpt lat="41.515095" lon="0.8506983"><ele>289.0</ele><time>2026-03-31T07:07:42.162Z</time></trkpt><trkpt lat="41.51494" lon="0.85049"><ele>289.0</ele><time>2026-03-31T07:07:43.161Z</time></trkpt><trkpt lat="41.514785" lon="0.8502767"><ele>289.0</ele><time>2026-03-31T07:07:44.161Z</time></trkpt><trkpt lat="41.514625" lon="0.850065"><ele>290.5</ele><time>2026-03-31T07:07:45.161Z</time></trkpt><trkpt lat="41.5144667" lon="0.8498517"><ele>292.0</ele><time>2026-03-31T07:07:46.162Z</time></trkpt><trkpt lat="41.5143083" lon="0.8496367"><ele>292.0</ele><time>2026-03-31T07:07:47.162Z</time></trkpt><trkpt lat="41.51415" lon="0.8494233"><ele>292.0</ele><time>2026-03-31T07:07:48.162Z</time></trkpt><trkpt lat="41.5139917" lon="0.849205"><ele>292.0</ele><time>2026-03-31T07:07:49.162Z</time></trkpt><trkpt lat="41.5138283" lon="0.84899"><ele>292.0</ele><time>2026-03-31T07:07:50.161Z</time></trkpt><trkpt lat="41.513665" lon="0.8487767"><ele>294.0</ele><time>2026-03-31T07:07:51.161Z</time></trkpt><trkpt lat="41.5135067" lon="0.8485583"><ele>296.0</ele><time>2026-03-31T07:07:52.161Z</time></trkpt><trkpt lat="41.5133483" lon="0.8483433"><ele>296.0</ele><time>2026-03-31T07:07:53.161Z</time></trkpt><trkpt lat="41.5131867" lon="0.8481217"><ele>296.0</ele><time>2026-03-31T07:07:54.161Z</time></trkpt><trkpt lat="41.5130233" lon="0.84791"><ele>295.5</ele><time>2026-03-31T07:07:55.161Z</time></trkpt><trkpt lat="41.5128633" lon="0.84769"><ele>295.0</ele><time>2026-03-31T07:07:56.162Z</time></trkpt><trkpt lat="41.5127083" lon="0.84747"><ele>296.0</ele><time>2026-03-31T07:07:57.161Z</time></trkpt><trkpt lat="41.5125517" lon="0.8472533"><ele>297.0</ele><time>2026-03-31T07:07:58.162Z</time></trkpt><trkpt lat="41.5123917" lon="0.8470383"><ele>297.0</ele><time>2026-03-31T07:07:59.161Z</time></trkpt><trkpt lat="41.512235" lon="0.84682"><ele>297.0</ele><time>2026-03-31T07:08:00.161Z</time></trkpt><trkpt lat="41.5120783" lon="0.8466117"><ele>297.0</ele><time>2026-03-31T07:08:01.161Z</time></trkpt><trkpt lat="41.5119283" lon="0.8463883"><ele>296.6666666666667</ele><time>2026-03-31T07:08:02.161Z</time></trkpt><trkpt lat="41.511775" lon="0.8461733"><ele>296.33333333333337</ele><time>2026-03-31T07:08:03.162Z</time></trkpt><trkpt lat="41.5116183" lon="0.8459567"><ele>296.0</ele><time>2026-03-31T07:08:04.162Z</time></trkpt><trkpt lat="41.5114717" lon="0.8457317"><ele>296.5</ele><time>2026-03-31T07:08:05.162Z</time></trkpt><trkpt lat="41.5113283" lon="0.8455017"><ele>297.0</ele><time>2026-03-31T07:08:06.162Z</time></trkpt><trkpt lat="41.5111817" lon="0.84527"><ele>298.0</ele><time>2026-03-31T07:08:07.162Z</time></trkpt><trkpt lat="41.5110333" lon="0.8450383"><ele>299.0</ele><time>2026-03-31T07:08:08.161Z</time></trkpt><trkpt lat="41.5108883" lon="0.8448083"><ele>299.0</ele><time>2026-03-31T07:08:09.161Z</time></trkpt><trkpt lat="41.51075" lon="0.84458"><ele>299.0</ele><time>2026-03-31T07:08:10.161Z</time></trkpt><trkpt lat="41.5106117" lon="0.844345"><ele>299.0</ele><time>2026-03-31T07:08:11.161Z</time></trkpt><trkpt lat="41.5104717" lon="0.8441067"><ele>300.5</ele><time>2026-03-31T07:08:12.162Z</time></trkpt><trkpt lat="41.510335" lon="0.8438633"><ele>302.0</ele><time>2026-03-31T07:08:13.162Z</time></trkpt><trkpt lat="41.5101983" lon="0.843615"><ele>301.0</ele><time>2026-03-31T07:08:14.161Z</time></trkpt><trkpt lat="41.5100633" lon="0.8433717"><ele>300.0</ele><time>2026-03-31T07:08:15.161Z</time></trkpt><trkpt lat="41.5099317" lon="0.8431283"><ele>300.0</ele><time>2026-03-31T07:08:16.161Z</time></trkpt><trkpt lat="41.509795" lon="0.8428833"><ele>300.0</ele><time>2026-03-31T07:08:17.161Z</time></trkpt><trkpt lat="41.5096633" lon="0.842635"><ele>301.0</ele><time>2026-03-31T07:08:18.161Z</time></trkpt><trkpt lat="41.509535" lon="0.8423867"><ele>302.0</ele><time>2026-03-31T07:08:19.162Z</time></trkpt><trkpt lat="41.5094017" lon="0.8421217"><ele>302.0</ele><time>2026-03-31T07:08:20.161Z</time></trkpt><trkpt lat="41.5092733" lon="0.8418717"><ele>302.0</ele><time>2026-03-31T07:08:21.162Z</time></trkpt><trkpt lat="41.509145" lon="0.8416183"><ele>302.0</ele><time>2026-03-31T07:08:22.162Z</time></trkpt><trkpt lat="41.50901" lon="0.8413567"><ele>302.0</ele><time>2026-03-31T07:08:23.161Z</time></trkpt><trkpt lat="41.5088733" lon="0.8411033"><ele>302.5</ele><time>2026-03-31T07:08:24.162Z</time></trkpt><trkpt lat="41.50873" lon="0.84084"><ele>303.0</ele><time>2026-03-31T07:08:25.161Z</time></trkpt><trkpt lat="41.5085933" lon="0.84057"><ele>303.0</ele><time>2026-03-31T07:08:26.161Z</time></trkpt><trkpt lat="41.508455" lon="0.8403033"><ele>303.0</ele><time>2026-03-31T07:08:27.161Z</time></trkpt><trkpt lat="41.5083133" lon="0.8400333"><ele>303.5</ele><time>2026-03-31T07:08:28.161Z</time></trkpt><trkpt lat="41.50818" lon="0.8397617"><ele>304.0</ele><time>2026-03-31T07:08:29.162Z</time></trkpt><trkpt lat="41.508045" lon="0.839505"><ele>306.0</ele><time>2026-03-31T07:08:30.161Z</time></trkpt><trkpt lat="41.507895" lon="0.8392333"><ele>308.0</ele><time>2026-03-31T07:08:31.161Z</time></trkpt><trkpt lat="41.5077667" lon="0.8389683"><ele>308.0</ele><time>2026-03-31T07:08:32.161Z</time></trkpt><trkpt lat="41.5076367" lon="0.8387283"><ele>308.0</ele><time>2026-03-31T07:08:33.162Z</time></trkpt><trkpt lat="41.5075083" lon="0.8384617"><ele>307.5</ele><time>2026-03-31T07:08:34.162Z</time></trkpt><trkpt lat="41.50738" lon="0.838195"><ele>307.0</ele><time>2026-03-31T07:08:35.161Z</time></trkpt><trkpt lat="41.5072467" lon="0.837935"><ele>307.0</ele><time>2026-03-31T07:08:36.162Z</time></trkpt><trkpt lat="41.50711" lon="0.8376767"><ele>307.0</ele><time>2026-03-31T07:08:37.161Z</time></trkpt><trkpt lat="41.5069783" lon="0.837425"><ele>308.0</ele><time>2026-03-31T07:08:38.161Z</time></trkpt><trkpt lat="41.5068417" lon="0.8371767"><ele>309.0</ele><time>2026-03-31T07:08:39.162Z</time></trkpt><trkpt lat="41.506705" lon="0.8369233"><ele>310.5</ele><time>2026-03-31T07:08:40.162Z</time></trkpt><trkpt lat="41.5065717" lon="0.8366783"><ele>312.0</ele><time>2026-03-31T07:08:41.161Z</time></trkpt><trkpt lat="41.5064367" lon="0.836435"><ele>312.0</ele><time>2026-03-31T07:08:42.162Z</time></trkpt><trkpt lat="41.5063033" lon="0.8361833"><ele>312.0</ele><time>2026-03-31T07:08:43.162Z</time></trkpt><trkpt lat="41.5061667" lon="0.8359217"><ele>312.5</ele><time>2026-03-31T07:08:44.162Z</time></trkpt><trkpt lat="41.5060333" lon="0.8356633"><ele>313.0</ele><time>2026-03-31T07:08:45.161Z</time></trkpt><trkpt lat="41.5059" lon="0.8354033"><ele>313.0</ele><time>2026-03-31T07:08:46.162Z</time></trkpt><trkpt lat="41.5057667" lon="0.8351533"><ele>313.0</ele><time>2026-03-31T07:08:47.161Z</time></trkpt><trkpt lat="41.5056367" lon="0.8349017"><ele>312.5</ele><time>2026-03-31T07:08:48.162Z</time></trkpt><trkpt lat="41.5055017" lon="0.8346583"><ele>312.0</ele><time>2026-03-31T07:08:49.161Z</time></trkpt><trkpt lat="41.5053683" lon="0.83441"><ele>313.5</ele><time>2026-03-31T07:08:50.161Z</time></trkpt><trkpt lat="41.505235" lon="0.834155"><ele>315.0</ele><time>2026-03-31T07:08:51.161Z</time></trkpt><trkpt lat="41.5051017" lon="0.8339"><ele>315.0</ele><time>2026-03-31T07:08:52.162Z</time></trkpt><trkpt lat="41.5049683" lon="0.8336433"><ele>315.0</ele><time>2026-03-31T07:08:53.161Z</time></trkpt><trkpt lat="41.5048417" lon="0.8333917"><ele>315.5</ele><time>2026-03-31T07:08:54.161Z</time></trkpt><trkpt lat="41.5047117" lon="0.8331433"><ele>316.0</ele><time>2026-03-31T07:08:55.161Z</time></trkpt><trkpt lat="41.504575" lon="0.8328917"><ele>316.5</ele><time>2026-03-31T07:08:56.161Z</time></trkpt><trkpt lat="41.5044433" lon="0.8326433"><ele>317.0</ele><time>2026-03-31T07:08:57.162Z</time></trkpt><trkpt lat="41.5043117" lon="0.83239"><ele>317.5</ele><time>2026-03-31T07:08:58.161Z</time></trkpt><trkpt lat="41.5041767" lon="0.8321383"><ele>318.0</ele><time>2026-03-31T07:08:59.161Z</time></trkpt><trkpt lat="41.5040433" lon="0.83188"><ele>318.5</ele><time>2026-03-31T07:09:00.161Z</time></trkpt><trkpt lat="41.50391" lon="0.831625"><ele>319.0</ele><time>2026-03-31T07:09:01.161Z</time></trkpt><trkpt lat="41.5037783" lon="0.83137"><ele>320.0</ele><time>2026-03-31T07:09:02.162Z</time></trkpt><trkpt lat="41.5036517" lon="0.8311283"><ele>321.0</ele><time>2026-03-31T07:09:03.162Z</time></trkpt><trkpt lat="41.503525" lon="0.83088"><ele>322.0</ele><time>2026-03-31T07:09:04.162Z</time></trkpt><trkpt lat="41.5033967" lon="0.8306367"><ele>322.0</ele><time>2026-03-31T07:09:05.161Z</time></trkpt><trkpt lat="41.5032667" lon="0.830385"><ele>322.0</ele><time>2026-03-31T07:09:06.161Z</time></trkpt><trkpt lat="41.50314" lon="0.830145"><ele>322.0</ele><time>2026-03-31T07:09:07.162Z</time></trkpt><trkpt lat="41.5030117" lon="0.8299"><ele>323.0</ele><time>2026-03-31T07:09:08.161Z</time></trkpt><trkpt lat="41.5028867" lon="0.8296517"><ele>324.0</ele><time>2026-03-31T07:09:09.161Z</time></trkpt><trkpt lat="41.5027617" lon="0.8294017"><ele>325.0</ele><time>2026-03-31T07:09:10.162Z</time></trkpt><trkpt lat="41.50263" lon="0.8291467"><ele>326.5</ele><time>2026-03-31T07:09:11.162Z</time></trkpt><trkpt lat="41.5025017" lon="0.828895"><ele>328.0</ele><time>2026-03-31T07:09:12.162Z</time></trkpt><trkpt lat="41.50237" lon="0.828645"><ele>328.66666666666663</ele><time>2026-03-31T07:09:13.161Z</time></trkpt><trkpt lat="41.5022383" lon="0.8283967"><ele>329.3333333333333</ele><time>2026-03-31T07:09:14.161Z</time></trkpt><trkpt lat="41.5021167" lon="0.8281567"><ele>330.0</ele><time>2026-03-31T07:09:15.161Z</time></trkpt><trkpt lat="41.5019933" lon="0.827905"><ele>331.0</ele><time>2026-03-31T07:09:16.161Z</time></trkpt><trkpt lat="41.5018733" lon="0.8276483"><ele>332.0</ele><time>2026-03-31T07:09:17.161Z</time></trkpt><trkpt lat="41.501755" lon="0.8273983"><ele>333.0</ele><time>2026-03-31T07:09:18.161Z</time></trkpt><trkpt lat="41.50164" lon="0.8271233"><ele>333.0</ele><time>2026-03-31T07:09:19.161Z</time></trkpt><trkpt lat="41.5015383" lon="0.8268517"><ele>333.0</ele><time>2026-03-31T07:09:20.161Z</time></trkpt><trkpt lat="41.5014333" lon="0.826585"><ele>332.5</ele><time>2026-03-31T07:09:21.162Z</time></trkpt><trkpt lat="41.5013317" lon="0.82631"><ele>332.0</ele><time>2026-03-31T07:09:22.161Z</time></trkpt><trkpt lat="41.5012317" lon="0.82604"><ele>335.0</ele><time>2026-03-31T07:09:23.161Z</time></trkpt><trkpt lat="41.5011233" lon="0.82577"><ele>338.0</ele><time>2026-03-31T07:09:24.162Z</time></trkpt><trkpt lat="41.5010117" lon="0.8254867"><ele>338.0</ele><time>2026-03-31T07:09:25.161Z</time></trkpt><trkpt lat="41.5008983" lon="0.825205"><ele>338.0</ele><time>2026-03-31T07:09:26.162Z</time></trkpt><trkpt lat="41.50079" lon="0.824925"><ele>335.5</ele><time>2026-03-31T07:09:27.161Z</time></trkpt><trkpt lat="41.5006683" lon="0.8246533"><ele>333.0</ele><time>2026-03-31T07:09:28.161Z</time></trkpt><trkpt lat="41.5005483" lon="0.8243783"><ele>335.0</ele><time>2026-03-31T07:09:29.161Z</time></trkpt><trkpt lat="41.5004217" lon="0.82411"><ele>337.0</ele><time>2026-03-31T07:09:30.161Z</time></trkpt><trkpt lat="41.5002883" lon="0.823855"><ele>337.0</ele><time>2026-03-31T07:09:31.162Z</time></trkpt><trkpt lat="41.5001517" lon="0.8236033"><ele>337.0</ele><time>2026-03-31T07:09:32.161Z</time></trkpt><trkpt lat="41.5000133" lon="0.8233517"><ele>333.5</ele><time>2026-03-31T07:09:33.161Z</time></trkpt><trkpt lat="41.4998733" lon="0.8230983"><ele>330.0</ele><time>2026-03-31T07:09:34.162Z</time></trkpt><trkpt lat="41.4997367" lon="0.8228483"><ele>328.5</ele><time>2026-03-31T07:09:35.161Z</time></trkpt><trkpt lat="41.4996" lon="0.822585"><ele>327.0</ele><time>2026-03-31T07:09:36.161Z</time></trkpt><trkpt lat="41.49946" lon="0.8223283"><ele>327.0</ele><time>2026-03-31T07:09:37.161Z</time></trkpt><trkpt lat="41.499325" lon="0.8220567"><ele>327.0</ele><time>2026-03-31T07:09:38.162Z</time></trkpt><trkpt lat="41.4992017" lon="0.82177"><ele>325.5</ele><time>2026-03-31T07:09:39.161Z</time></trkpt><trkpt lat="41.4990917" lon="0.821485"><ele>324.0</ele><time>2026-03-31T07:09:40.162Z</time></trkpt><trkpt lat="41.4990017" lon="0.8211783"><ele>324.5</ele><time>2026-03-31T07:09:41.161Z</time></trkpt><trkpt lat="41.4989267" lon="0.8208617"><ele>325.0</ele><time>2026-03-31T07:09:42.161Z</time></trkpt><trkpt lat="41.498865" lon="0.82054"><ele>325.0</ele><time>2026-03-31T07:09:43.161Z</time></trkpt><trkpt lat="41.498825" lon="0.8202117"><ele>325.0</ele><time>2026-03-31T07:09:44.161Z</time></trkpt><trkpt lat="41.498805" lon="0.8198783"><ele>326.5</ele><time>2026-03-31T07:09:45.162Z</time></trkpt><trkpt lat="41.4988067" lon="0.8195367"><ele>328.0</ele><time>2026-03-31T07:09:46.161Z</time></trkpt><trkpt lat="41.4988267" lon="0.8191983"><ele>330.0</ele><time>2026-03-31T07:09:47.162Z</time></trkpt><trkpt lat="41.498865" lon="0.818865"><ele>332.0</ele><time>2026-03-31T07:09:48.162Z</time></trkpt><trkpt lat="41.49892" lon="0.8185417"><ele>334.5</ele><time>2026-03-31T07:09:49.161Z</time></trkpt><trkpt lat="41.498995" lon="0.8182267"><ele>337.0</ele><time>2026-03-31T07:09:50.162Z</time></trkpt><trkpt lat="41.4990817" lon="0.8179117"><ele>341.5</ele><time>2026-03-31T07:09:51.162Z</time></trkpt><trkpt lat="41.4991867" lon="0.8176033"><ele>346.0</ele><time>2026-03-31T07:09:52.161Z</time></trkpt><trkpt lat="41.4992967" lon="0.81731"><ele>346.0</ele><time>2026-03-31T07:09:53.161Z</time></trkpt><trkpt lat="41.4994017" lon="0.8169933"><ele>346.0</ele><time>2026-03-31T07:09:54.161Z</time></trkpt><trkpt lat="41.49949" lon="0.8166967"><ele>346.5</ele><time>2026-03-31T07:09:55.161Z</time></trkpt><trkpt lat="41.4995683" lon="0.8163983"><ele>347.0</ele><time>2026-03-31T07:09:56.161Z</time></trkpt><trkpt lat="41.4996283" lon="0.8160867"><ele>348.5</ele><time>2026-03-31T07:09:57.161Z</time></trkpt><trkpt lat="41.4996683" lon="0.8157583"><ele>350.0</ele><time>2026-03-31T07:09:58.161Z</time></trkpt><trkpt lat="41.49968" lon="0.81544"><ele>349.5</ele><time>2026-03-31T07:09:59.162Z</time></trkpt><trkpt lat="41.4996683" lon="0.8151267"><ele>349.0</ele><time>2026-03-31T07:10:00.161Z</time></trkpt><trkpt lat="41.4996417" lon="0.8148"><ele>349.0</ele><time>2026-03-31T07:10:01.162Z</time></trkpt><trkpt lat="41.4995967" lon="0.81449"><ele>349.0</ele><time>2026-03-31T07:10:02.162Z</time></trkpt><trkpt lat="41.4995333" lon="0.8141717"><ele>349.0</ele><time>2026-03-31T07:10:03.161Z</time></trkpt><trkpt lat="41.4994617" lon="0.8138583"><ele>349.0</ele><time>2026-03-31T07:10:04.162Z</time></trkpt><trkpt lat="41.4993833" lon="0.8135367"><ele>348.5</ele><time>2026-03-31T07:10:05.161Z</time></trkpt><trkpt lat="41.4993017" lon="0.8132233"><ele>348.0</ele><time>2026-03-31T07:10:06.161Z</time></trkpt><trkpt lat="41.499215" lon="0.81291"><ele>346.5</ele><time>2026-03-31T07:10:07.162Z</time></trkpt><trkpt lat="41.49913" lon="0.8125983"><ele>345.0</ele><time>2026-03-31T07:10:08.161Z</time></trkpt><trkpt lat="41.4990467" lon="0.812285"><ele>345.0</ele><time>2026-03-31T07:10:09.162Z</time></trkpt><trkpt lat="41.498965" lon="0.811975"><ele>345.0</ele><time>2026-03-31T07:10:10.161Z</time></trkpt><trkpt lat="41.4988833" lon="0.8116633"><ele>345.0</ele><time>2026-03-31T07:10:11.161Z</time></trkpt><trkpt lat="41.4988017" lon="0.8113467"><ele>345.0</ele><time>2026-03-31T07:10:12.162Z</time></trkpt><trkpt lat="41.4987217" lon="0.81103"><ele>345.0</ele><time>2026-03-31T07:10:13.161Z</time></trkpt><trkpt lat="41.49864" lon="0.810715"><ele>345.0</ele><time>2026-03-31T07:10:14.162Z</time></trkpt><trkpt lat="41.4985567" lon="0.8103967"><ele>345.0</ele><time>2026-03-31T07:10:15.162Z</time></trkpt><trkpt lat="41.4984767" lon="0.8100783"><ele>345.0</ele><time>2026-03-31T07:10:16.162Z</time></trkpt><trkpt lat="41.4983917" lon="0.8097633"><ele>345.0</ele><time>2026-03-31T07:10:17.161Z</time></trkpt><trkpt lat="41.4983067" lon="0.80945"><ele>345.0</ele><time>2026-03-31T07:10:18.161Z</time></trkpt><trkpt lat="41.4982167" lon="0.8091417"><ele>344.0</ele><time>2026-03-31T07:10:19.162Z</time></trkpt><trkpt lat="41.4981317" lon="0.8088283"><ele>343.0</ele><time>2026-03-31T07:10:20.161Z</time></trkpt><trkpt lat="41.49805" lon="0.8085117"><ele>341.0</ele><time>2026-03-31T07:10:21.162Z</time></trkpt><trkpt lat="41.4979817" lon="0.8081917"><ele>339.0</ele><time>2026-03-31T07:10:22.162Z</time></trkpt><trkpt lat="41.4979283" lon="0.8078683"><ele>341.5</ele><time>2026-03-31T07:10:23.162Z</time></trkpt><trkpt lat="41.4978917" lon="0.8075367"><ele>344.0</ele><time>2026-03-31T07:10:24.161Z</time></trkpt><trkpt lat="41.4978733" lon="0.8072017"><ele>344.0</ele><time>2026-03-31T07:10:25.162Z</time></trkpt><trkpt lat="41.4978783" lon="0.8068633"><ele>344.0</ele><time>2026-03-31T07:10:26.161Z</time></trkpt><trkpt lat="41.4979133" lon="0.8065283"><ele>342.0</ele><time>2026-03-31T07:10:27.161Z</time></trkpt><trkpt lat="41.4979633" lon="0.8061817"><ele>340.0</ele><time>2026-03-31T07:10:28.161Z</time></trkpt><trkpt lat="41.4980167" lon="0.80582"><ele>339.0</ele><time>2026-03-31T07:10:29.162Z</time></trkpt><trkpt lat="41.4980717" lon="0.8054817"><ele>338.0</ele><time>2026-03-31T07:10:30.162Z</time></trkpt><trkpt lat="41.4981233" lon="0.8051283"><ele>337.5</ele><time>2026-03-31T07:10:31.162Z</time></trkpt><trkpt lat="41.4981733" lon="0.8047683"><ele>337.0</ele><time>2026-03-31T07:10:32.162Z</time></trkpt><trkpt lat="41.4982183" lon="0.80442"><ele>336.5</ele><time>2026-03-31T07:10:33.162Z</time></trkpt><trkpt lat="41.498265" lon="0.8040667"><ele>336.0</ele><time>2026-03-31T07:10:34.161Z</time></trkpt><trkpt lat="41.4983117" lon="0.8037167"><ele>335.5</ele><time>2026-03-31T07:10:35.161Z</time></trkpt><trkpt lat="41.4983533" lon="0.8033633"><ele>335.0</ele><time>2026-03-31T07:10:36.162Z</time></trkpt><trkpt lat="41.4984" lon="0.8030117"><ele>335.0</ele><time>2026-03-31T07:10:37.161Z</time></trkpt><trkpt lat="41.4984483" lon="0.802655"><ele>335.0</ele><time>2026-03-31T07:10:38.161Z</time></trkpt><trkpt lat="41.49851" lon="0.8023083"><ele>335.0</ele><time>2026-03-31T07:10:39.161Z</time></trkpt><trkpt lat="41.4985567" lon="0.8019583"><ele>335.0</ele><time>2026-03-31T07:10:40.161Z</time></trkpt><trkpt lat="41.4986017" lon="0.8016033"><ele>335.0</ele><time>2026-03-31T07:10:41.162Z</time></trkpt><trkpt lat="41.49865" lon="0.8012533"><ele>335.0</ele><time>2026-03-31T07:10:42.162Z</time></trkpt><trkpt lat="41.4986967" lon="0.8009033"><ele>334.5</ele><time>2026-03-31T07:10:43.161Z</time></trkpt><trkpt lat="41.4987417" lon="0.8005483"><ele>334.0</ele><time>2026-03-31T07:10:44.162Z</time></trkpt><trkpt lat="41.4987933" lon="0.8001867"><ele>330.0</ele><time>2026-03-31T07:10:45.161Z</time></trkpt><trkpt lat="41.4988417" lon="0.799835"><ele>326.0</ele><time>2026-03-31T07:10:46.161Z</time></trkpt><trkpt lat="41.4988883" lon="0.7994867"><ele>325.5</ele><time>2026-03-31T07:10:47.162Z</time></trkpt><trkpt lat="41.4989367" lon="0.7991367"><ele>325.0</ele><time>2026-03-31T07:10:48.161Z</time></trkpt><trkpt lat="41.498985" lon="0.79878"><ele>323.0</ele><time>2026-03-31T07:10:49.161Z</time></trkpt><trkpt lat="41.4990317" lon="0.79843"><ele>321.0</ele><time>2026-03-31T07:10:50.161Z</time></trkpt><trkpt lat="41.4990817" lon="0.7980767"><ele>321.0</ele><time>2026-03-31T07:10:51.161Z</time></trkpt><trkpt lat="41.499135" lon="0.7977233"><ele>321.0</ele><time>2026-03-31T07:10:52.162Z</time></trkpt><trkpt lat="41.499185" lon="0.7973683"><ele>318.5</ele><time>2026-03-31T07:10:53.162Z</time></trkpt><trkpt lat="41.499235" lon="0.7970167"><ele>316.0</ele><time>2026-03-31T07:10:54.162Z</time></trkpt><trkpt lat="41.499275" lon="0.7966733"><ele>316.0</ele><time>2026-03-31T07:10:55.162Z</time></trkpt><trkpt lat="41.49932" lon="0.7963233"><ele>316.0</ele><time>2026-03-31T07:10:56.162Z</time></trkpt><trkpt lat="41.4993683" lon="0.7959733"><ele>317.0</ele><time>2026-03-31T07:10:57.161Z</time></trkpt><trkpt lat="41.4994167" lon="0.79563"><ele>318.0</ele><time>2026-03-31T07:10:58.161Z</time></trkpt><trkpt lat="41.49947" lon="0.7952883"><ele>317.5</ele><time>2026-03-31T07:10:59.162Z</time></trkpt><trkpt lat="41.49952" lon="0.7949333"><ele>317.0</ele><time>2026-03-31T07:11:00.162Z</time></trkpt><trkpt lat="41.4995717" lon="0.79459"><ele>315.5</ele><time>2026-03-31T07:11:01.162Z</time></trkpt><trkpt lat="41.499635" lon="0.7942383"><ele>314.0</ele><time>2026-03-31T07:11:02.161Z</time></trkpt><trkpt lat="41.4997033" lon="0.79388"><ele>314.0</ele><time>2026-03-31T07:11:03.162Z</time></trkpt><trkpt lat="41.499775" lon="0.7935233"><ele>314.0</ele><time>2026-03-31T07:11:04.161Z</time></trkpt><trkpt lat="41.4998467" lon="0.79317"><ele>313.5</ele><time>2026-03-31T07:11:05.162Z</time></trkpt><trkpt lat="41.4999183" lon="0.79283"><ele>313.0</ele><time>2026-03-31T07:11:06.161Z</time></trkpt><trkpt lat="41.49999" lon="0.792485"><ele>312.5</ele><time>2026-03-31T07:11:07.162Z</time></trkpt><trkpt lat="41.5000683" lon="0.7921533"><ele>312.0</ele><time>2026-03-31T07:11:08.161Z</time></trkpt><trkpt lat="41.5001433" lon="0.7918183"><ele>312.0</ele><time>2026-03-31T07:11:09.161Z</time></trkpt><trkpt lat="41.5002183" lon="0.7914833"><ele>312.0</ele><time>2026-03-31T07:11:10.161Z</time></trkpt><trkpt lat="41.5002933" lon="0.7911517"><ele>312.5</ele><time>2026-03-31T07:11:11.161Z</time></trkpt><trkpt lat="41.5003667" lon="0.7908083"><ele>313.0</ele><time>2026-03-31T07:11:12.161Z</time></trkpt><trkpt lat="41.5004367" lon="0.7904733"><ele>311.0</ele><time>2026-03-31T07:11:13.161Z</time></trkpt><trkpt lat="41.500505" lon="0.7901367"><ele>309.0</ele><time>2026-03-31T07:11:14.162Z</time></trkpt><trkpt lat="41.5005717" lon="0.7898117"><ele>309.0</ele><time>2026-03-31T07:11:15.162Z</time></trkpt><trkpt lat="41.5006467" lon="0.7894933"><ele>309.0</ele><time>2026-03-31T07:11:16.161Z</time></trkpt><trkpt lat="41.50072" lon="0.7891583"><ele>308.5</ele><time>2026-03-31T07:11:17.161Z</time></trkpt><trkpt lat="41.5007883" lon="0.7888333"><ele>308.0</ele><time>2026-03-31T07:11:18.162Z</time></trkpt><trkpt lat="41.50086" lon="0.78851"><ele>308.5</ele><time>2026-03-31T07:11:19.162Z</time></trkpt><trkpt lat="41.500935" lon="0.7881867"><ele>309.0</ele><time>2026-03-31T07:11:20.162Z</time></trkpt><trkpt lat="41.5010067" lon="0.7878633"><ele>309.0</ele><time>2026-03-31T07:11:21.161Z</time></trkpt><trkpt lat="41.5010817" lon="0.78755"><ele>309.0</ele><time>2026-03-31T07:11:22.162Z</time></trkpt><trkpt lat="41.5011517" lon="0.7872233"><ele>309.0</ele><time>2026-03-31T07:11:23.161Z</time></trkpt><trkpt lat="41.5012183" lon="0.7869083"><ele>309.0</ele><time>2026-03-31T07:11:24.161Z</time></trkpt><trkpt lat="41.5012883" lon="0.7866017"><ele>308.0</ele><time>2026-03-31T07:11:25.162Z</time></trkpt><trkpt lat="41.5013583" lon="0.7863"><ele>307.0</ele><time>2026-03-31T07:11:26.161Z</time></trkpt><trkpt lat="41.50143" lon="0.786"><ele>306.5</ele><time>2026-03-31T07:11:27.162Z</time></trkpt><trkpt lat="41.5015067" lon="0.7857017"><ele>306.0</ele><time>2026-03-31T07:11:28.162Z</time></trkpt><trkpt lat="41.5015783" lon="0.785395"><ele>307.0</ele><time>2026-03-31T07:11:29.162Z</time></trkpt><trkpt lat="41.5016517" lon="0.7850867"><ele>308.0</ele><time>2026-03-31T07:11:30.161Z</time></trkpt><trkpt lat="41.50172" lon="0.7847867"><ele>308.0</ele><time>2026-03-31T07:11:31.161Z</time></trkpt><trkpt lat="41.5017917" lon="0.7844817"><ele>308.0</ele><time>2026-03-31T07:11:32.161Z</time></trkpt><trkpt lat="41.5018567" lon="0.7841667"><ele>307.5</ele><time>2026-03-31T07:11:33.162Z</time></trkpt><trkpt lat="41.50192" lon="0.7838483"><ele>307.0</ele><time>2026-03-31T07:11:34.162Z</time></trkpt><trkpt lat="41.501985" lon="0.7835283"><ele>308.0</ele><time>2026-03-31T07:11:35.162Z</time></trkpt><trkpt lat="41.5020517" lon="0.7832067"><ele>309.0</ele><time>2026-03-31T07:11:36.161Z</time></trkpt><trkpt lat="41.5021217" lon="0.7828883"><ele>306.5</ele><time>2026-03-31T07:11:37.162Z</time></trkpt><trkpt lat="41.502195" lon="0.7825717"><ele>304.0</ele><time>2026-03-31T07:11:38.162Z</time></trkpt><trkpt lat="41.502265" lon="0.78226"><ele>304.0</ele><time>2026-03-31T07:11:39.161Z</time></trkpt><trkpt lat="41.50233" lon="0.7819567"><ele>304.0</ele><time>2026-03-31T07:11:40.162Z</time></trkpt><trkpt lat="41.5024" lon="0.7816417"><ele>306.0</ele><time>2026-03-31T07:11:41.161Z</time></trkpt><trkpt lat="41.50247" lon="0.7813283"><ele>308.0</ele><time>2026-03-31T07:11:42.161Z</time></trkpt><trkpt lat="41.5025417" lon="0.78102"><ele>309.0</ele><time>2026-03-31T07:11:43.161Z</time></trkpt><trkpt lat="41.50261" lon="0.780705"><ele>310.0</ele><time>2026-03-31T07:11:44.161Z</time></trkpt><trkpt lat="41.502675" lon="0.7803933"><ele>311.0</ele><time>2026-03-31T07:11:45.162Z</time></trkpt><trkpt lat="41.5027433" lon="0.78009"><ele>312.0</ele><time>2026-03-31T07:11:46.162Z</time></trkpt><trkpt lat="41.5028083" lon="0.7797933"><ele>312.0</ele><time>2026-03-31T07:11:47.162Z</time></trkpt><trkpt lat="41.502875" lon="0.779495"><ele>312.0</ele><time>2026-03-31T07:11:48.162Z</time></trkpt><trkpt lat="41.5029417" lon="0.779205"><ele>309.3333333333333</ele><time>2026-03-31T07:11:49.161Z</time></trkpt><trkpt lat="41.5030033" lon="0.7789233"><ele>306.66666666666663</ele><time>2026-03-31T07:11:50.161Z</time></trkpt><trkpt lat="41.5030633" lon="0.7786483"><ele>304.0</ele><time>2026-03-31T07:11:51.161Z</time></trkpt><trkpt lat="41.5031183" lon="0.7783733"><ele>304.0</ele><time>2026-03-31T07:11:52.162Z</time></trkpt><trkpt lat="41.5031533" lon="0.7780967"><ele>304.0</ele><time>2026-03-31T07:11:53.161Z</time></trkpt><trkpt lat="41.5031717" lon="0.7778033"><ele>304.0</ele><time>2026-03-31T07:11:54.161Z</time></trkpt><trkpt lat="41.503155" lon="0.7775083"><ele>303.5</ele><time>2026-03-31T07:11:55.161Z</time></trkpt><trkpt lat="41.5031133" lon="0.7772167"><ele>303.0</ele><time>2026-03-31T07:11:56.162Z</time></trkpt><trkpt lat="41.503045" lon="0.7769233"><ele>303.3333333333333</ele><time>2026-03-31T07:11:57.162Z</time></trkpt><trkpt lat="41.50295" lon="0.776665"><ele>303.66666666666663</ele><time>2026-03-31T07:11:58.162Z</time></trkpt><trkpt lat="41.502825" lon="0.776425"><ele>304.0</ele><time>2026-03-31T07:11:59.161Z</time></trkpt><trkpt lat="41.502675" lon="0.77621"><ele>307.0</ele><time>2026-03-31T07:12:00.161Z</time></trkpt><trkpt lat="41.5025017" lon="0.776015"><ele>310.0</ele><time>2026-03-31T07:12:01.162Z</time></trkpt><trkpt lat="41.5023233" lon="0.7758217"><ele>310.0</ele><time>2026-03-31T07:12:02.161Z</time></trkpt><trkpt lat="41.5021333" lon="0.7756317"><ele>310.0</ele><time>2026-03-31T07:12:03.162Z</time></trkpt><trkpt lat="41.5019417" lon="0.7754483"><ele>312.5</ele><time>2026-03-31T07:12:04.161Z</time></trkpt><trkpt lat="41.5017567" lon="0.7752567"><ele>315.0</ele><time>2026-03-31T07:12:05.162Z</time></trkpt><trkpt lat="41.5015733" lon="0.7750683"><ele>315.0</ele><time>2026-03-31T07:12:06.162Z</time></trkpt><trkpt lat="41.5013933" lon="0.7748817"><ele>315.0</ele><time>2026-03-31T07:12:07.162Z</time></trkpt><trkpt lat="41.501215" lon="0.7746917"><ele>316.0</ele><time>2026-03-31T07:12:08.162Z</time></trkpt><trkpt lat="41.5010383" lon="0.77451"><ele>317.0</ele><time>2026-03-31T07:12:09.162Z</time></trkpt><trkpt lat="41.5008633" lon="0.7743267"><ele>318.0</ele><time>2026-03-31T07:12:10.162Z</time></trkpt><trkpt lat="41.500685" lon="0.774145"><ele>318.0</ele><time>2026-03-31T07:12:11.161Z</time></trkpt><trkpt lat="41.5005067" lon="0.77397"><ele>318.0</ele><time>2026-03-31T07:12:12.161Z</time></trkpt><trkpt lat="41.500335" lon="0.7737967"><ele>318.0</ele><time>2026-03-31T07:12:13.162Z</time></trkpt><trkpt lat="41.5001717" lon="0.7736117"><ele>318.3333333333333</ele><time>2026-03-31T07:12:14.161Z</time></trkpt><trkpt lat="41.5000233" lon="0.7734183"><ele>318.66666666666663</ele><time>2026-03-31T07:12:15.161Z</time></trkpt><trkpt lat="41.4999" lon="0.77319"><ele>319.0</ele><time>2026-03-31T07:12:16.162Z</time></trkpt><trkpt lat="41.49981" lon="0.7729433"><ele>321.3333333333333</ele><time>2026-03-31T07:12:17.162Z</time></trkpt><trkpt lat="41.4997433" lon="0.7726783"><ele>323.6666666666667</ele><time>2026-03-31T07:12:18.162Z</time></trkpt><trkpt lat="41.4997033" lon="0.7723983"><ele>326.0</ele><time>2026-03-31T07:12:19.162Z</time></trkpt><trkpt lat="41.4996917" lon="0.7721117"><ele>329.0</ele><time>2026-03-31T07:12:20.162Z</time></trkpt><trkpt lat="41.4997017" lon="0.771835"><ele>332.0</ele><time>2026-03-31T07:12:21.162Z</time></trkpt><trkpt lat="41.499705" lon="0.771565"><ele>335.0</ele><time>2026-03-31T07:12:22.161Z</time></trkpt><trkpt lat="41.4996917" lon="0.7712817"><ele>335.33333333333337</ele><time>2026-03-31T07:12:23.161Z</time></trkpt><trkpt lat="41.4996483" lon="0.7710217"><ele>335.6666666666667</ele><time>2026-03-31T07:12:24.162Z</time></trkpt><trkpt lat="41.499585" lon="0.7707617"><ele>336.0</ele><time>2026-03-31T07:12:25.162Z</time></trkpt><trkpt lat="41.4994883" lon="0.7705017"><ele>340.0</ele><time>2026-03-31T07:12:26.162Z</time></trkpt><trkpt lat="41.499365" lon="0.770265"><ele>344.0</ele><time>2026-03-31T07:12:27.161Z</time></trkpt><trkpt lat="41.4992383" lon="0.7700467"><ele>348.0</ele><time>2026-03-31T07:12:28.161Z</time></trkpt><trkpt lat="41.4991333" lon="0.769835"><ele>348.0</ele><time>2026-03-31T07:12:29.162Z</time></trkpt><trkpt lat="41.4990617" lon="0.7696117"><ele>348.0</ele><time>2026-03-31T07:12:30.162Z</time></trkpt><trkpt lat="41.4990017" lon="0.76938"><ele>348.0</ele><time>2026-03-31T07:12:31.162Z</time></trkpt><trkpt lat="41.4989633" lon="0.76914"><ele>348.6666666666667</ele><time>2026-03-31T07:12:32.162Z</time></trkpt><trkpt lat="41.4989417" lon="0.7689083"><ele>349.33333333333337</ele><time>2026-03-31T07:12:33.162Z</time></trkpt><trkpt lat="41.498915" lon="0.7686917"><ele>350.0</ele><time>2026-03-31T07:12:34.162Z</time></trkpt><trkpt lat="41.4988933" lon="0.7684917"><ele>350.0</ele><time>2026-03-31T07:12:35.161Z</time></trkpt><trkpt lat="41.498875" lon="0.7683183"><ele>350.0</ele><time>2026-03-31T07:12:36.161Z</time></trkpt><trkpt lat="41.4988533" lon="0.7681467"><ele>350.0</ele><time>2026-03-31T07:12:37.161Z</time></trkpt><trkpt lat="41.4988283" lon="0.7679783"><ele>350.0</ele><time>2026-03-31T07:12:38.161Z</time></trkpt><trkpt lat="41.49881" lon="0.76781"><ele>351.75</ele><time>2026-03-31T07:12:39.161Z</time></trkpt><trkpt lat="41.4987817" lon="0.7676517"><ele>353.5</ele><time>2026-03-31T07:12:40.162Z</time></trkpt><trkpt lat="41.4987567" lon="0.7674967"><ele>355.25</ele><time>2026-03-31T07:12:41.161Z</time></trkpt><trkpt lat="41.49873" lon="0.7673383"><ele>357.0</ele><time>2026-03-31T07:12:42.161Z</time></trkpt><trkpt lat="41.4987017" lon="0.7671833"><ele>357.0</ele><time>2026-03-31T07:12:43.161Z</time></trkpt><trkpt lat="41.49867" lon="0.7670333"><ele>357.0</ele><time>2026-03-31T07:12:44.162Z</time></trkpt><trkpt lat="41.4986267" lon="0.7668867"><ele>357.0</ele><time>2026-03-31T07:12:45.161Z</time></trkpt><trkpt lat="41.4985733" lon="0.7667433"><ele>357.0</ele><time>2026-03-31T07:12:46.161Z</time></trkpt><trkpt lat="41.4985133" lon="0.7665933"><ele>357.0</ele><time>2026-03-31T07:12:47.161Z</time></trkpt><trkpt lat="41.4984583" lon="0.766445"><ele>357.0</ele><time>2026-03-31T07:12:48.161Z</time></trkpt><trkpt lat="41.498405" lon="0.766295"><ele>357.0</ele><time>2026-03-31T07:12:49.161Z</time></trkpt><trkpt lat="41.4983483" lon="0.7661583"><ele>357.0</ele><time>2026-03-31T07:12:50.161Z</time></trkpt><trkpt lat="41.4982883" lon="0.766035"><ele>356.8</ele><time>2026-03-31T07:12:51.162Z</time></trkpt><trkpt lat="41.4982367" lon="0.76591"><ele>356.6</ele><time>2026-03-31T07:12:52.161Z</time></trkpt><trkpt lat="41.4981933" lon="0.7657883"><ele>356.40000000000003</ele><time>2026-03-31T07:12:53.161Z</time></trkpt><trkpt lat="41.4981467" lon="0.7656783"><ele>356.20000000000005</ele><time>2026-03-31T07:12:54.162Z</time></trkpt><trkpt lat="41.4980983" lon="0.7655733"><ele>356.0</ele><time>2026-03-31T07:12:55.161Z</time></trkpt><trkpt lat="41.49805" lon="0.7654733"><ele>356.0</ele><time>2026-03-31T07:12:56.161Z</time></trkpt><trkpt lat="41.4980017" lon="0.7653733"><ele>356.0</ele><time>2026-03-31T07:12:57.161Z</time></trkpt><trkpt lat="41.4979467" lon="0.76528"><ele>356.0</ele><time>2026-03-31T07:12:58.161Z</time></trkpt><trkpt lat="41.497865" lon="0.7651983"><ele>356.0</ele><time>2026-03-31T07:12:59.161Z</time></trkpt><trkpt lat="41.4977633" lon="0.7651433"><ele>356.0</ele><time>2026-03-31T07:13:00.162Z</time></trkpt><trkpt lat="41.4976517" lon="0.7651"><ele>355.25</ele><time>2026-03-31T07:13:01.162Z</time></trkpt><trkpt lat="41.4975333" lon="0.7650467"><ele>354.5</ele><time>2026-03-31T07:13:02.162Z</time></trkpt><trkpt lat="41.49743" lon="0.7649817"><ele>353.75</ele><time>2026-03-31T07:13:03.162Z</time></trkpt><trkpt lat="41.4973333" lon="0.7649033"><ele>353.0</ele><time>2026-03-31T07:13:04.161Z</time></trkpt><trkpt lat="41.4972383" lon="0.7648117"><ele>353.0</ele><time>2026-03-31T07:13:05.161Z</time></trkpt><trkpt lat="41.4971483" lon="0.7647283"><ele>353.0</ele><time>2026-03-31T07:13:06.162Z</time></trkpt><trkpt lat="41.49707" lon="0.76459"><ele>353.0</ele><time>2026-03-31T07:13:07.162Z</time></trkpt><trkpt lat="41.4969883" lon="0.76445"><ele>353.0</ele><time>2026-03-31T07:13:08.161Z</time></trkpt><trkpt lat="41.4969067" lon="0.7642967"><ele>352.5</ele><time>2026-03-31T07:13:09.161Z</time></trkpt><trkpt lat="41.4968333" lon="0.764155"><ele>352.0</ele><time>2026-03-31T07:13:10.161Z</time></trkpt><trkpt lat="41.4967483" lon="0.7640133"><ele>351.5</ele><time>2026-03-31T07:13:11.161Z</time></trkpt><trkpt lat="41.4966617" lon="0.76387"><ele>351.0</ele><time>2026-03-31T07:13:12.162Z</time></trkpt><trkpt lat="41.4965833" lon="0.7637317"><ele>351.0</ele><time>2026-03-31T07:13:13.161Z</time></trkpt><trkpt lat="41.4965217" lon="0.763575"><ele>351.0</ele><time>2026-03-31T07:13:14.162Z</time></trkpt><trkpt lat="41.4964683" lon="0.7633933"><ele>351.0</ele><time>2026-03-31T07:13:15.162Z</time></trkpt><trkpt lat="41.496415" lon="0.763195"><ele>351.0</ele><time>2026-03-31T07:13:16.161Z</time></trkpt><trkpt lat="41.4963683" lon="0.76299"><ele>351.0</ele><time>2026-03-31T07:13:17.161Z</time></trkpt><trkpt lat="41.4963217" lon="0.7627783"><ele>351.0</ele><time>2026-03-31T07:13:18.161Z</time></trkpt><trkpt lat="41.4962717" lon="0.7625617"><ele>351.0</ele><time>2026-03-31T07:13:19.161Z</time></trkpt><trkpt lat="41.49622" lon="0.7623367"><ele>348.6666666666667</ele><time>2026-03-31T07:13:20.162Z</time></trkpt><trkpt lat="41.496165" lon="0.7621"><ele>346.33333333333337</ele><time>2026-03-31T07:13:21.162Z</time></trkpt><trkpt lat="41.496105" lon="0.7618567"><ele>344.0</ele><time>2026-03-31T07:13:22.162Z</time></trkpt><trkpt lat="41.4960433" lon="0.7615983"><ele>344.0</ele><time>2026-03-31T07:13:23.161Z</time></trkpt><trkpt lat="41.49598" lon="0.76133"><ele>344.0</ele><time>2026-03-31T07:13:24.161Z</time></trkpt><trkpt lat="41.4959183" lon="0.7610533"><ele>344.0</ele><time>2026-03-31T07:13:25.161Z</time></trkpt><trkpt lat="41.4958583" lon="0.7607767"><ele>343.33333333333337</ele><time>2026-03-31T07:13:26.162Z</time></trkpt><trkpt lat="41.4957933" lon="0.7604983"><ele>342.6666666666667</ele><time>2026-03-31T07:13:27.161Z</time></trkpt><trkpt lat="41.4957267" lon="0.7602217"><ele>342.0</ele><time>2026-03-31T07:13:28.161Z</time></trkpt><trkpt lat="41.495655" lon="0.7599417"><ele>342.0</ele><time>2026-03-31T07:13:29.162Z</time></trkpt><trkpt lat="41.4955833" lon="0.7596583"><ele>342.0</ele><time>2026-03-31T07:13:30.161Z</time></trkpt><trkpt lat="41.4955133" lon="0.75937"><ele>342.5</ele><time>2026-03-31T07:13:31.161Z</time></trkpt><trkpt lat="41.4954467" lon="0.759075"><ele>343.0</ele><time>2026-03-31T07:13:32.161Z</time></trkpt><trkpt lat="41.4953817" lon="0.7587817"><ele>341.0</ele><time>2026-03-31T07:13:33.161Z</time></trkpt><trkpt lat="41.4953217" lon="0.75849"><ele>339.0</ele><time>2026-03-31T07:13:34.161Z</time></trkpt><trkpt lat="41.49526" lon="0.7581867"><ele>339.0</ele><time>2026-03-31T07:13:35.161Z</time></trkpt><trkpt lat="41.49518" lon="0.757885"><ele>339.0</ele><time>2026-03-31T07:13:36.161Z</time></trkpt><trkpt lat="41.4951033" lon="0.7575917"><ele>338.0</ele><time>2026-03-31T07:13:37.161Z</time></trkpt><trkpt lat="41.4950283" lon="0.7572917"><ele>337.0</ele><time>2026-03-31T07:13:38.162Z</time></trkpt><trkpt lat="41.49496" lon="0.7569867"><ele>336.5</ele><time>2026-03-31T07:13:39.162Z</time></trkpt><trkpt lat="41.4948883" lon="0.7566833"><ele>336.0</ele><time>2026-03-31T07:13:40.161Z</time></trkpt><trkpt lat="41.4948167" lon="0.75638"><ele>336.0</ele><time>2026-03-31T07:13:41.161Z</time></trkpt><trkpt lat="41.4947433" lon="0.7560783"><ele>336.0</ele><time>2026-03-31T07:13:42.162Z</time></trkpt><trkpt lat="41.4946717" lon="0.755785"><ele>337.5</ele><time>2026-03-31T07:13:43.161Z</time></trkpt><trkpt lat="41.494595" lon="0.755485"><ele>339.0</ele><time>2026-03-31T07:13:44.162Z</time></trkpt><trkpt lat="41.494505" lon="0.7551867"><ele>334.5</ele><time>2026-03-31T07:13:45.161Z</time></trkpt><trkpt lat="41.4944033" lon="0.7548983"><ele>330.0</ele><time>2026-03-31T07:13:46.162Z</time></trkpt><trkpt lat="41.49429" lon="0.75462"><ele>330.0</ele><time>2026-03-31T07:13:47.161Z</time></trkpt><trkpt lat="41.4941617" lon="0.7543583"><ele>330.0</ele><time>2026-03-31T07:13:48.161Z</time></trkpt><trkpt lat="41.494025" lon="0.7540983"><ele>330.0</ele><time>2026-03-31T07:13:49.162Z</time></trkpt><trkpt lat="41.49388" lon="0.753845"><ele>330.0</ele><time>2026-03-31T07:13:50.161Z</time></trkpt><trkpt lat="41.4937383" lon="0.7536017"><ele>331.5</ele><time>2026-03-31T07:13:51.161Z</time></trkpt><trkpt lat="41.4935967" lon="0.7533467"><ele>333.0</ele><time>2026-03-31T07:13:52.161Z</time></trkpt><trkpt lat="41.493465" lon="0.7530883"><ele>333.0</ele><time>2026-03-31T07:13:53.161Z</time></trkpt><trkpt lat="41.493345" lon="0.752815"><ele>333.0</ele><time>2026-03-31T07:13:54.161Z</time></trkpt><trkpt lat="41.49324" lon="0.7525217"><ele>330.5</ele><time>2026-03-31T07:13:55.161Z</time></trkpt><trkpt lat="41.4931467" lon="0.7522233"><ele>328.0</ele><time>2026-03-31T07:13:56.161Z</time></trkpt><trkpt lat="41.4930533" lon="0.7519217"><ele>327.5</ele><time>2026-03-31T07:13:57.161Z</time></trkpt><trkpt lat="41.4929633" lon="0.7516217"><ele>327.0</ele><time>2026-03-31T07:13:58.161Z</time></trkpt><trkpt lat="41.4928733" lon="0.7513317"><ele>330.0</ele><time>2026-03-31T07:13:59.162Z</time></trkpt><trkpt lat="41.4927733" lon="0.7510317"><ele>333.0</ele><time>2026-03-31T07:14:00.162Z</time></trkpt><trkpt lat="41.4926683" lon="0.750735"><ele>333.0</ele><time>2026-03-31T07:14:01.162Z</time></trkpt><trkpt lat="41.4925433" lon="0.7504533"><ele>333.0</ele><time>2026-03-31T07:14:02.162Z</time></trkpt><trkpt lat="41.4924033" lon="0.7501983"><ele>335.5</ele><time>2026-03-31T07:14:03.162Z</time></trkpt><trkpt lat="41.4922417" lon="0.74996"><ele>338.0</ele><time>2026-03-31T07:14:04.162Z</time></trkpt><trkpt lat="41.4920717" lon="0.74975"><ele>338.5</ele><time>2026-03-31T07:14:05.161Z</time></trkpt><trkpt lat="41.4918883" lon="0.74955"><ele>339.0</ele><time>2026-03-31T07:14:06.162Z</time></trkpt><trkpt lat="41.4916967" lon="0.74935"><ele>340.5</ele><time>2026-03-31T07:14:07.161Z</time></trkpt><trkpt lat="41.4914983" lon="0.74916"><ele>342.0</ele><time>2026-03-31T07:14:08.161Z</time></trkpt><trkpt lat="41.4912983" lon="0.7489667"><ele>341.5</ele><time>2026-03-31T07:14:09.161Z</time></trkpt><trkpt lat="41.4910967" lon="0.74877"><ele>341.0</ele><time>2026-03-31T07:14:10.161Z</time></trkpt><trkpt lat="41.4908983" lon="0.7485733"><ele>342.0</ele><time>2026-03-31T07:14:11.161Z</time></trkpt><trkpt lat="41.4907033" lon="0.7483733"><ele>343.0</ele><time>2026-03-31T07:14:12.161Z</time></trkpt><trkpt lat="41.49051" lon="0.74817"><ele>343.5</ele><time>2026-03-31T07:14:13.162Z</time></trkpt><trkpt lat="41.4903133" lon="0.747975"><ele>344.0</ele><time>2026-03-31T07:14:14.162Z</time></trkpt><trkpt lat="41.4901283" lon="0.7477767"><ele>346.0</ele><time>2026-03-31T07:14:15.162Z</time></trkpt><trkpt lat="41.48995" lon="0.7475683"><ele>348.0</ele><time>2026-03-31T07:14:16.161Z</time></trkpt><trkpt lat="41.4897917" lon="0.7473317"><ele>348.0</ele><time>2026-03-31T07:14:17.161Z</time></trkpt><trkpt lat="41.48965" lon="0.7470717"><ele>348.0</ele><time>2026-03-31T07:14:18.162Z</time></trkpt><trkpt lat="41.4895333" lon="0.74679"><ele>350.0</ele><time>2026-03-31T07:14:19.161Z</time></trkpt><trkpt lat="41.4894133" lon="0.7465217"><ele>352.0</ele><time>2026-03-31T07:14:20.161Z</time></trkpt><trkpt lat="41.489285" lon="0.7462633"><ele>355.5</ele><time>2026-03-31T07:14:21.162Z</time></trkpt><trkpt lat="41.489135" lon="0.7460217"><ele>359.0</ele><time>2026-03-31T07:14:22.161Z</time></trkpt><trkpt lat="41.4889617" lon="0.7458117"><ele>359.0</ele><time>2026-03-31T07:14:23.161Z</time></trkpt><trkpt lat="41.488775" lon="0.745635"><ele>359.0</ele><time>2026-03-31T07:14:24.161Z</time></trkpt><trkpt lat="41.4885633" lon="0.7454883"><ele>359.0</ele><time>2026-03-31T07:14:25.161Z</time></trkpt><trkpt lat="41.488345" lon="0.7453483"><ele>359.0</ele><time>2026-03-31T07:14:26.161Z</time></trkpt><trkpt lat="41.4881333" lon="0.7452133"><ele>363.0</ele><time>2026-03-31T07:14:27.161Z</time></trkpt><trkpt lat="41.4879233" lon="0.745065"><ele>367.0</ele><time>2026-03-31T07:14:28.162Z</time></trkpt><trkpt lat="41.4877233" lon="0.7448933"><ele>367.0</ele><time>2026-03-31T07:14:29.161Z</time></trkpt><trkpt lat="41.487545" lon="0.7446883"><ele>367.0</ele><time>2026-03-31T07:14:30.161Z</time></trkpt><trkpt lat="41.48739" lon="0.7444617"><ele>369.0</ele><time>2026-03-31T07:14:31.161Z</time></trkpt><trkpt lat="41.4872317" lon="0.744225"><ele>371.0</ele><time>2026-03-31T07:14:32.162Z</time></trkpt><trkpt lat="41.4870633" lon="0.7440033"><ele>371.0</ele><time>2026-03-31T07:14:33.162Z</time></trkpt><trkpt lat="41.4868767" lon="0.7438083"><ele>371.0</ele><time>2026-03-31T07:14:34.161Z</time></trkpt><trkpt lat="41.486675" lon="0.7436383"><ele>373.5</ele><time>2026-03-31T07:14:35.161Z</time></trkpt><trkpt lat="41.4864567" lon="0.7435067"><ele>376.0</ele><time>2026-03-31T07:14:36.161Z</time></trkpt><trkpt lat="41.4862217" lon="0.7434083"><ele>378.0</ele><time>2026-03-31T07:14:37.161Z</time></trkpt><trkpt lat="41.4859867" lon="0.74333"><ele>380.0</ele><time>2026-03-31T07:14:38.162Z</time></trkpt><trkpt lat="41.485745" lon="0.7432617"><ele>380.0</ele><time>2026-03-31T07:14:39.162Z</time></trkpt><trkpt lat="41.485505" lon="0.7431967"><ele>380.0</ele><time>2026-03-31T07:14:40.161Z</time></trkpt><trkpt lat="41.4852617" lon="0.7431383"><ele>381.0</ele><time>2026-03-31T07:14:41.162Z</time></trkpt><trkpt lat="41.4850183" lon="0.743075"><ele>382.0</ele><time>2026-03-31T07:14:42.161Z</time></trkpt><trkpt lat="41.48477" lon="0.7430167"><ele>383.0</ele><time>2026-03-31T07:14:43.161Z</time></trkpt><trkpt lat="41.4845333" lon="0.742945"><ele>384.0</ele><time>2026-03-31T07:14:44.162Z</time></trkpt><trkpt lat="41.4842983" lon="0.742875"><ele>384.0</ele><time>2026-03-31T07:14:45.162Z</time></trkpt><trkpt lat="41.48407" lon="0.7427983"><ele>384.0</ele><time>2026-03-31T07:14:46.161Z</time></trkpt><trkpt lat="41.4838433" lon="0.742695"><ele>381.5</ele><time>2026-03-31T07:14:47.161Z</time></trkpt><trkpt lat="41.4836217" lon="0.7425633"><ele>379.0</ele><time>2026-03-31T07:14:48.161Z</time></trkpt><trkpt lat="41.4834067" lon="0.7424033"><ele>379.0</ele><time>2026-03-31T07:14:49.161Z</time></trkpt><trkpt lat="41.4832117" lon="0.7422067"><ele>379.0</ele><time>2026-03-31T07:14:50.162Z</time></trkpt><trkpt lat="41.4830283" lon="0.74198"><ele>373.0</ele><time>2026-03-31T07:14:51.161Z</time></trkpt><trkpt lat="41.4828633" lon="0.74173"><ele>367.0</ele><time>2026-03-31T07:14:52.161Z</time></trkpt><trkpt lat="41.4827217" lon="0.7414583"><ele>367.0</ele><time>2026-03-31T07:14:53.162Z</time></trkpt><trkpt lat="41.4825933" lon="0.7411617"><ele>367.0</ele><time>2026-03-31T07:14:54.162Z</time></trkpt><trkpt lat="41.4824783" lon="0.740855"><ele>366.0</ele><time>2026-03-31T07:14:55.161Z</time></trkpt><trkpt lat="41.4823717" lon="0.74054"><ele>365.0</ele><time>2026-03-31T07:14:56.161Z</time></trkpt><trkpt lat="41.4822683" lon="0.7402317"><ele>365.5</ele><time>2026-03-31T07:14:57.161Z</time></trkpt><trkpt lat="41.48216" lon="0.7399317"><ele>366.0</ele><time>2026-03-31T07:14:58.162Z</time></trkpt><trkpt lat="41.4820517" lon="0.739615"><ele>357.5</ele><time>2026-03-31T07:14:59.161Z</time></trkpt><trkpt lat="41.4819417" lon="0.7393117"><ele>349.0</ele><time>2026-03-31T07:15:00.162Z</time></trkpt><trkpt lat="41.481835" lon="0.7390017"><ele>349.0</ele><time>2026-03-31T07:15:01.161Z</time></trkpt><trkpt lat="41.4817217" lon="0.7386967"><ele>349.0</ele><time>2026-03-31T07:15:02.161Z</time></trkpt><trkpt lat="41.4816183" lon="0.7383883"><ele>350.0</ele><time>2026-03-31T07:15:03.161Z</time></trkpt><trkpt lat="41.481515" lon="0.73808"><ele>351.0</ele><time>2026-03-31T07:15:04.161Z</time></trkpt><trkpt lat="41.4814133" lon="0.7377683"><ele>353.0</ele><time>2026-03-31T07:15:05.161Z</time></trkpt><trkpt lat="41.481305" lon="0.7374667"><ele>355.0</ele><time>2026-03-31T07:15:06.162Z</time></trkpt><trkpt lat="41.4812017" lon="0.7371617"><ele>347.5</ele><time>2026-03-31T07:15:07.162Z</time></trkpt><trkpt lat="41.4810983" lon="0.7368517"><ele>340.0</ele><time>2026-03-31T07:15:08.162Z</time></trkpt><trkpt lat="41.480995" lon="0.7365467"><ele>340.0</ele><time>2026-03-31T07:15:09.161Z</time></trkpt><trkpt lat="41.4808867" lon="0.7362483"><ele>340.0</ele><time>2026-03-31T07:15:10.161Z</time></trkpt><trkpt lat="41.480775" lon="0.735955"><ele>339.5</ele><time>2026-03-31T07:15:11.161Z</time></trkpt><trkpt lat="41.480655" lon="0.7356833"><ele>339.0</ele><time>2026-03-31T07:15:12.161Z</time></trkpt><trkpt lat="41.4805067" lon="0.735435"><ele>335.0</ele><time>2026-03-31T07:15:13.161Z</time></trkpt><trkpt lat="41.4803383" lon="0.7352067"><ele>331.0</ele><time>2026-03-31T07:15:14.162Z</time></trkpt><trkpt lat="41.48015" lon="0.735015"><ele>331.0</ele><time>2026-03-31T07:15:15.162Z</time></trkpt><trkpt lat="41.4799483" lon="0.7348633"><ele>331.0</ele><time>2026-03-31T07:15:16.161Z</time></trkpt><trkpt lat="41.4797283" lon="0.7347483"><ele>330.5</ele><time>2026-03-31T07:15:17.161Z</time></trkpt><trkpt lat="41.4795" lon="0.734665"><ele>330.0</ele><time>2026-03-31T07:15:18.162Z</time></trkpt><trkpt lat="41.47927" lon="0.7346283"><ele>330.0</ele><time>2026-03-31T07:15:19.161Z</time></trkpt><trkpt lat="41.4790317" lon="0.7346483"><ele>330.0</ele><time>2026-03-31T07:15:20.162Z</time></trkpt><trkpt lat="41.4787933" lon="0.73471"><ele>335.5</ele><time>2026-03-31T07:15:21.161Z</time></trkpt><trkpt lat="41.4785583" lon="0.7348017"><ele>341.0</ele><time>2026-03-31T07:15:22.161Z</time></trkpt><trkpt lat="41.4783483" lon="0.734935"><ele>341.0</ele><time>2026-03-31T07:15:23.161Z</time></trkpt><trkpt lat="41.4781483" lon="0.7351133"><ele>341.0</ele><time>2026-03-31T07:15:24.161Z</time></trkpt><trkpt lat="41.47797" lon="0.735335"><ele>341.0</ele><time>2026-03-31T07:15:25.161Z</time></trkpt><trkpt lat="41.4778083" lon="0.7355767"><ele>341.0</ele><time>2026-03-31T07:15:26.161Z</time></trkpt><trkpt lat="41.47766" lon="0.73582"><ele>338.5</ele><time>2026-03-31T07:15:27.161Z</time></trkpt><trkpt lat="41.4775033" lon="0.7360667"><ele>336.0</ele><time>2026-03-31T07:15:28.161Z</time></trkpt><trkpt lat="41.4773517" lon="0.7363067"><ele>336.0</ele><time>2026-03-31T07:15:29.161Z</time></trkpt><trkpt lat="41.4771967" lon="0.73654"><ele>336.0</ele><time>2026-03-31T07:15:30.162Z</time></trkpt><trkpt lat="41.4770233" lon="0.73677"><ele>340.0</ele><time>2026-03-31T07:15:31.162Z</time></trkpt><trkpt lat="41.4768383" lon="0.7369867"><ele>344.0</ele><time>2026-03-31T07:15:32.162Z</time></trkpt><trkpt lat="41.4766433" lon="0.73719"><ele>344.0</ele><time>2026-03-31T07:15:33.161Z</time></trkpt><trkpt lat="41.4764417" lon="0.73738"><ele>344.0</ele><time>2026-03-31T07:15:34.161Z</time></trkpt><trkpt lat="41.4762367" lon="0.7375633"><ele>343.5</ele><time>2026-03-31T07:15:35.162Z</time></trkpt><trkpt lat="41.4760233" lon="0.73773"><ele>343.0</ele><time>2026-03-31T07:15:36.161Z</time></trkpt><trkpt lat="41.4758067" lon="0.7378817"><ele>343.0</ele><time>2026-03-31T07:15:37.161Z</time></trkpt><trkpt lat="41.47559" lon="0.7380283"><ele>343.0</ele><time>2026-03-31T07:15:38.161Z</time></trkpt><trkpt lat="41.4753733" lon="0.73817"><ele>347.5</ele><time>2026-03-31T07:15:39.161Z</time></trkpt><trkpt lat="41.47516" lon="0.7383217"><ele>352.0</ele><time>2026-03-31T07:15:40.161Z</time></trkpt><trkpt lat="41.47494" lon="0.7384833"><ele>350.0</ele><time>2026-03-31T07:15:41.162Z</time></trkpt><trkpt lat="41.474735" lon="0.73867"><ele>348.0</ele><time>2026-03-31T07:15:42.161Z</time></trkpt><trkpt lat="41.4745483" lon="0.7388833"><ele>352.0</ele><time>2026-03-31T07:15:43.162Z</time></trkpt><trkpt lat="41.4743783" lon="0.7391083"><ele>356.0</ele><time>2026-03-31T07:15:44.161Z</time></trkpt><trkpt lat="41.47422" lon="0.7393433"><ele>354.5</ele><time>2026-03-31T07:15:45.161Z</time></trkpt><trkpt lat="41.4740567" lon="0.7395817"><ele>353.0</ele><time>2026-03-31T07:15:46.161Z</time></trkpt><trkpt lat="41.4738867" lon="0.7398067"><ele>356.5</ele><time>2026-03-31T07:15:47.162Z</time></trkpt><trkpt lat="41.4737017" lon="0.7400117"><ele>360.0</ele><time>2026-03-31T07:15:48.162Z</time></trkpt><trkpt lat="41.4734967" lon="0.7401817"><ele>359.0</ele><time>2026-03-31T07:15:49.162Z</time></trkpt><trkpt lat="41.473285" lon="0.7403367"><ele>358.0</ele><time>2026-03-31T07:15:50.161Z</time></trkpt><trkpt lat="41.4730683" lon="0.7404833"><ele>360.5</ele><time>2026-03-31T07:15:51.161Z</time></trkpt><trkpt lat="41.4728467" lon="0.7406367"><ele>363.0</ele><time>2026-03-31T07:15:52.162Z</time></trkpt><trkpt lat="41.47263" lon="0.7407867"><ele>363.0</ele><time>2026-03-31T07:15:53.162Z</time></trkpt><trkpt lat="41.4724117" lon="0.7409417"><ele>363.0</ele><time>2026-03-31T07:15:54.161Z</time></trkpt><trkpt lat="41.4721967" lon="0.7410917"><ele>363.5</ele><time>2026-03-31T07:15:55.161Z</time></trkpt><trkpt lat="41.4719817" lon="0.74124"><ele>364.0</ele><time>2026-03-31T07:15:56.161Z</time></trkpt><trkpt lat="41.4717683" lon="0.74139"><ele>364.0</ele><time>2026-03-31T07:15:57.161Z</time></trkpt><trkpt lat="41.471555" lon="0.741545"><ele>364.0</ele><time>2026-03-31T07:15:58.162Z</time></trkpt><trkpt lat="41.4713383" lon="0.7417"><ele>366.5</ele><time>2026-03-31T07:15:59.161Z</time></trkpt><trkpt lat="41.4711217" lon="0.74185"><ele>369.0</ele><time>2026-03-31T07:16:00.161Z</time></trkpt><trkpt lat="41.470915" lon="0.741995"><ele>369.0</ele><time>2026-03-31T07:16:01.161Z</time></trkpt><trkpt lat="41.4706933" lon="0.7421167"><ele>369.0</ele><time>2026-03-31T07:16:02.161Z</time></trkpt><trkpt lat="41.470465" lon="0.7422133"><ele>371.0</ele><time>2026-03-31T07:16:03.161Z</time></trkpt><trkpt lat="41.470235" lon="0.742275"><ele>373.0</ele><time>2026-03-31T07:16:04.161Z</time></trkpt><trkpt lat="41.469995" lon="0.7422883"><ele>373.0</ele><time>2026-03-31T07:16:05.162Z</time></trkpt><trkpt lat="41.4697567" lon="0.7422533"><ele>373.0</ele><time>2026-03-31T07:16:06.161Z</time></trkpt><trkpt lat="41.469525" lon="0.7421783"><ele>375.0</ele><time>2026-03-31T07:16:07.161Z</time></trkpt><trkpt lat="41.4693017" lon="0.74206"><ele>377.0</ele><time>2026-03-31T07:16:08.161Z</time></trkpt><trkpt lat="41.46909" lon="0.7419183"><ele>380.5</ele><time>2026-03-31T07:16:09.161Z</time></trkpt><trkpt lat="41.4688783" lon="0.7417733"><ele>384.0</ele><time>2026-03-31T07:16:10.161Z</time></trkpt><trkpt lat="41.4686633" lon="0.7416267"><ele>386.0</ele><time>2026-03-31T07:16:11.161Z</time></trkpt><trkpt lat="41.4684383" lon="0.7415183"><ele>388.0</ele><time>2026-03-31T07:16:12.161Z</time></trkpt><trkpt lat="41.468205" lon="0.7414517"><ele>388.0</ele><time>2026-03-31T07:16:13.161Z</time></trkpt><trkpt lat="41.4679583" lon="0.74142"><ele>388.0</ele><time>2026-03-31T07:16:14.162Z</time></trkpt><trkpt lat="41.4677083" lon="0.7414383"><ele>391.0</ele><time>2026-03-31T07:16:15.161Z</time></trkpt><trkpt lat="41.467475" lon="0.7415083"><ele>394.0</ele><time>2026-03-31T07:16:16.161Z</time></trkpt><trkpt lat="41.4672533" lon="0.741625"><ele>397.5</ele><time>2026-03-31T07:16:17.162Z</time></trkpt><trkpt lat="41.467045" lon="0.741775"><ele>401.0</ele><time>2026-03-31T07:16:18.161Z</time></trkpt><trkpt lat="41.4668433" lon="0.74197"><ele>401.5</ele><time>2026-03-31T07:16:19.162Z</time></trkpt><trkpt lat="41.46667" lon="0.7421933"><ele>402.0</ele><time>2026-03-31T07:16:20.161Z</time></trkpt><trkpt lat="41.466525" lon="0.742455"><ele>401.0</ele><time>2026-03-31T07:16:21.161Z</time></trkpt><trkpt lat="41.4664" lon="0.74274"><ele>400.0</ele><time>2026-03-31T07:16:22.161Z</time></trkpt><trkpt lat="41.4663" lon="0.7430367"><ele>400.5</ele><time>2026-03-31T07:16:23.161Z</time></trkpt><trkpt lat="41.4662017" lon="0.7433417"><ele>401.0</ele><time>2026-03-31T07:16:24.161Z</time></trkpt><trkpt lat="41.4660867" lon="0.7436383"><ele>401.0</ele><time>2026-03-31T07:16:25.162Z</time></trkpt><trkpt lat="41.4659583" lon="0.743915"><ele>401.0</ele><time>2026-03-31T07:16:26.162Z</time></trkpt><trkpt lat="41.4658033" lon="0.7441683"><ele>401.0</ele><time>2026-03-31T07:16:27.162Z</time></trkpt><trkpt lat="41.4656167" lon="0.744395"><ele>401.0</ele><time>2026-03-31T07:16:28.162Z</time></trkpt><trkpt lat="41.4654133" lon="0.7445867"><ele>400.5</ele><time>2026-03-31T07:16:29.162Z</time></trkpt><trkpt lat="41.4651967" lon="0.7447333"><ele>400.0</ele><time>2026-03-31T07:16:30.161Z</time></trkpt><trkpt lat="41.4649633" lon="0.744835"><ele>400.0</ele><time>2026-03-31T07:16:31.161Z</time></trkpt><trkpt lat="41.4647217" lon="0.7448883"><ele>400.0</ele><time>2026-03-31T07:16:32.162Z</time></trkpt><trkpt lat="41.4644767" lon="0.7449"><ele>396.0</ele><time>2026-03-31T07:16:33.161Z</time></trkpt><trkpt lat="41.4642317" lon="0.74486"><ele>392.0</ele><time>2026-03-31T07:16:34.162Z</time></trkpt><trkpt lat="41.463995" lon="0.7447767"><ele>388.5</ele><time>2026-03-31T07:16:35.162Z</time></trkpt><trkpt lat="41.4637733" lon="0.74466"><ele>385.0</ele><time>2026-03-31T07:16:36.161Z</time></trkpt><trkpt lat="41.4635417" lon="0.7445317"><ele>385.0</ele><time>2026-03-31T07:16:37.162Z</time></trkpt><trkpt lat="41.4633167" lon="0.744405"><ele>385.0</ele><time>2026-03-31T07:16:38.162Z</time></trkpt><trkpt lat="41.463085" lon="0.7442983"><ele>379.0</ele><time>2026-03-31T07:16:39.161Z</time></trkpt><trkpt lat="41.4628533" lon="0.7442217"><ele>373.0</ele><time>2026-03-31T07:16:40.161Z</time></trkpt><trkpt lat="41.4626233" lon="0.74418"><ele>373.0</ele><time>2026-03-31T07:16:41.161Z</time></trkpt><trkpt lat="41.462385" lon="0.7441833"><ele>373.0</ele><time>2026-03-31T07:16:42.161Z</time></trkpt><trkpt lat="41.4621567" lon="0.744245"><ele>371.0</ele><time>2026-03-31T07:16:43.162Z</time></trkpt><trkpt lat="41.4619367" lon="0.744345"><ele>369.0</ele><time>2026-03-31T07:16:44.161Z</time></trkpt><trkpt lat="41.4617367" lon="0.7444817"><ele>374.0</ele><time>2026-03-31T07:16:45.161Z</time></trkpt><trkpt lat="41.4615467" lon="0.74465"><ele>379.0</ele><time>2026-03-31T07:16:46.161Z</time></trkpt><trkpt lat="41.461375" lon="0.7448467"><ele>373.0</ele><time>2026-03-31T07:16:47.161Z</time></trkpt><trkpt lat="41.4612017" lon="0.7450667"><ele>367.0</ele><time>2026-03-31T07:16:48.161Z</time></trkpt><trkpt lat="41.4610283" lon="0.745285"><ele>367.0</ele><time>2026-03-31T07:16:49.161Z</time></trkpt><trkpt lat="41.4608533" lon="0.745485"><ele>367.0</ele><time>2026-03-31T07:16:50.161Z</time></trkpt><trkpt lat="41.460655" lon="0.74566"><ele>360.5</ele><time>2026-03-31T07:16:51.161Z</time></trkpt><trkpt lat="41.460445" lon="0.7458067"><ele>354.0</ele><time>2026-03-31T07:16:52.161Z</time></trkpt><trkpt lat="41.46022" lon="0.7459117"><ele>354.0</ele><time>2026-03-31T07:16:53.161Z</time></trkpt><trkpt lat="41.4599867" lon="0.7459633"><ele>354.0</ele><time>2026-03-31T07:16:54.162Z</time></trkpt><trkpt lat="41.4597533" lon="0.74598"><ele>352.0</ele><time>2026-03-31T07:16:55.161Z</time></trkpt><trkpt lat="41.4595167" lon="0.74596"><ele>350.0</ele><time>2026-03-31T07:16:56.162Z</time></trkpt><trkpt lat="41.4592833" lon="0.7458917"><ele>350.0</ele><time>2026-03-31T07:16:57.162Z</time></trkpt><trkpt lat="41.4590667" lon="0.7457767"><ele>350.0</ele><time>2026-03-31T07:16:58.161Z</time></trkpt><trkpt lat="41.4588617" lon="0.7456267"><ele>353.5</ele><time>2026-03-31T07:16:59.161Z</time></trkpt><trkpt lat="41.45867" lon="0.7454467"><ele>357.0</ele><time>2026-03-31T07:17:00.162Z</time></trkpt><trkpt lat="41.458485" lon="0.7452417"><ele>352.5</ele><time>2026-03-31T07:17:01.161Z</time></trkpt><trkpt lat="41.4583067" lon="0.7450217"><ele>348.0</ele><time>2026-03-31T07:17:02.162Z</time></trkpt><trkpt lat="41.4581267" lon="0.74481"><ele>350.5</ele><time>2026-03-31T07:17:03.161Z</time></trkpt><trkpt lat="41.4579517" lon="0.74459"><ele>353.0</ele><time>2026-03-31T07:17:04.162Z</time></trkpt><trkpt lat="41.45777" lon="0.74437"><ele>347.5</ele><time>2026-03-31T07:17:05.162Z</time></trkpt><trkpt lat="41.4576017" lon="0.74415"><ele>342.0</ele><time>2026-03-31T07:17:06.162Z</time></trkpt><trkpt lat="41.4574317" lon="0.7439283"><ele>342.0</ele><time>2026-03-31T07:17:07.161Z</time></trkpt><trkpt lat="41.4572633" lon="0.7437033"><ele>342.0</ele><time>2026-03-31T07:17:08.162Z</time></trkpt><trkpt lat="41.4571" lon="0.7434783"><ele>339.0</ele><time>2026-03-31T07:17:09.161Z</time></trkpt><trkpt lat="41.456945" lon="0.74325"><ele>336.0</ele><time>2026-03-31T07:17:10.161Z</time></trkpt><trkpt lat="41.4567883" lon="0.7430283"><ele>336.0</ele><time>2026-03-31T07:17:11.161Z</time></trkpt><trkpt lat="41.45664" lon="0.7428233"><ele>336.0</ele><time>2026-03-31T07:17:12.161Z</time></trkpt><trkpt lat="41.45651" lon="0.7426183"><ele>336.0</ele><time>2026-03-31T07:17:13.162Z</time></trkpt><trkpt lat="41.4563717" lon="0.742415"><ele>337.3333333333333</ele><time>2026-03-31T07:17:14.162Z</time></trkpt><trkpt lat="41.4562383" lon="0.7422217"><ele>338.66666666666663</ele><time>2026-03-31T07:17:15.161Z</time></trkpt><trkpt lat="41.4561083" lon="0.74203"><ele>340.0</ele><time>2026-03-31T07:17:16.162Z</time></trkpt><trkpt lat="41.4559683" lon="0.7418367"><ele>337.3333333333333</ele><time>2026-03-31T07:17:17.161Z</time></trkpt><trkpt lat="41.455825" lon="0.7416467"><ele>334.6666666666667</ele><time>2026-03-31T07:17:18.161Z</time></trkpt><trkpt lat="41.4556833" lon="0.7414633"><ele>332.0</ele><time>2026-03-31T07:17:19.162Z</time></trkpt><trkpt lat="41.45554" lon="0.741285"><ele>333.6666666666667</ele><time>2026-03-31T07:17:20.162Z</time></trkpt><trkpt lat="41.4554133" lon="0.741115"><ele>335.3333333333333</ele><time>2026-03-31T07:17:21.162Z</time></trkpt><trkpt lat="41.455285" lon="0.740955"><ele>337.0</ele><time>2026-03-31T07:17:22.161Z</time></trkpt><trkpt lat="41.45516" lon="0.740805"><ele>334.25</ele><time>2026-03-31T07:17:23.161Z</time></trkpt><trkpt lat="41.4550417" lon="0.7406683"><ele>331.5</ele><time>2026-03-31T07:17:24.162Z</time></trkpt><trkpt lat="41.454915" lon="0.7405567"><ele>328.75</ele><time>2026-03-31T07:17:25.162Z</time></trkpt><trkpt lat="41.4547833" lon="0.7405033"><ele>326.0</ele><time>2026-03-31T07:17:26.161Z</time></trkpt><trkpt lat="41.454645" lon="0.7404983"><ele>324.0</ele><time>2026-03-31T07:17:27.162Z</time></trkpt><trkpt lat="41.4545067" lon="0.7405583"><ele>322.0</ele><time>2026-03-31T07:17:28.162Z</time></trkpt><trkpt lat="41.45439" lon="0.7406717"><ele>320.0</ele><time>2026-03-31T07:17:29.161Z</time></trkpt><trkpt lat="41.4542967" lon="0.74083"><ele>318.0</ele><time>2026-03-31T07:17:30.161Z</time></trkpt><trkpt lat="41.454245" lon="0.7410283"><ele>318.6666666666667</ele><time>2026-03-31T07:17:31.161Z</time></trkpt><trkpt lat="41.4542083" lon="0.7412517"><ele>319.33333333333337</ele><time>2026-03-31T07:17:32.161Z</time></trkpt><trkpt lat="41.45418" lon="0.741485"><ele>320.0</ele><time>2026-03-31T07:17:33.162Z</time></trkpt><trkpt lat="41.4541567" lon="0.7417317"><ele>321.0</ele><time>2026-03-31T07:17:34.162Z</time></trkpt><trkpt lat="41.4541183" lon="0.7419667"><ele>322.0</ele><time>2026-03-31T07:17:35.162Z</time></trkpt><trkpt lat="41.4540633" lon="0.742185"><ele>323.0</ele><time>2026-03-31T07:17:36.161Z</time></trkpt><trkpt lat="41.4539883" lon="0.7423767"><ele>323.0</ele><time>2026-03-31T07:17:37.162Z</time></trkpt><trkpt lat="41.4538783" lon="0.7425367"><ele>323.0</ele><time>2026-03-31T07:17:38.162Z</time></trkpt><trkpt lat="41.4537417" lon="0.742645"><ele>323.0</ele><time>2026-03-31T07:17:39.161Z</time></trkpt><trkpt lat="41.45358" lon="0.74271"><ele>321.6666666666667</ele><time>2026-03-31T07:17:40.162Z</time></trkpt><trkpt lat="41.4534217" lon="0.742755"><ele>320.3333333333333</ele><time>2026-03-31T07:17:41.162Z</time></trkpt><trkpt lat="41.4532717" lon="0.7428317"><ele>319.0</ele><time>2026-03-31T07:17:42.161Z</time></trkpt><trkpt lat="41.4531583" lon="0.7429533"><ele>319.0</ele><time>2026-03-31T07:17:43.161Z</time></trkpt><trkpt lat="41.4530633" lon="0.7431333"><ele>319.0</ele><time>2026-03-31T07:17:44.162Z</time></trkpt><trkpt lat="41.4529917" lon="0.7433317"><ele>319.0</ele><time>2026-03-31T07:17:45.162Z</time></trkpt><trkpt lat="41.4529283" lon="0.7435583"><ele>315.66666666666663</ele><time>2026-03-31T07:17:46.162Z</time></trkpt><trkpt lat="41.452865" lon="0.7437883"><ele>312.3333333333333</ele><time>2026-03-31T07:17:47.162Z</time></trkpt><trkpt lat="41.4528067" lon="0.74402"><ele>309.0</ele><time>2026-03-31T07:17:48.162Z</time></trkpt><trkpt lat="41.4527383" lon="0.7442583"><ele>309.6666666666667</ele><time>2026-03-31T07:17:49.161Z</time></trkpt><trkpt lat="41.4526783" lon="0.744495"><ele>310.33333333333337</ele><time>2026-03-31T07:17:50.161Z</time></trkpt><trkpt lat="41.4526167" lon="0.7447233"><ele>311.0</ele><time>2026-03-31T07:17:51.161Z</time></trkpt><trkpt lat="41.4525567" lon="0.7449583"><ele>311.0</ele><time>2026-03-31T07:17:52.161Z</time></trkpt><trkpt lat="41.452495" lon="0.74518"><ele>311.0</ele><time>2026-03-31T07:17:53.161Z</time></trkpt><trkpt lat="41.4524417" lon="0.7453967"><ele>311.0</ele><time>2026-03-31T07:17:54.161Z</time></trkpt><trkpt lat="41.4523867" lon="0.7456117"><ele>313.0</ele><time>2026-03-31T07:17:55.161Z</time></trkpt><trkpt lat="41.4523267" lon="0.7458283"><ele>315.0</ele><time>2026-03-31T07:17:56.161Z</time></trkpt><trkpt lat="41.452245" lon="0.7460283"><ele>317.0</ele><time>2026-03-31T07:17:57.161Z</time></trkpt><trkpt lat="41.4521367" lon="0.7462083"><ele>313.0</ele><time>2026-03-31T07:17:58.161Z</time></trkpt><trkpt lat="41.4520117" lon="0.74635"><ele>309.0</ele><time>2026-03-31T07:17:59.162Z</time></trkpt><trkpt lat="41.45186" lon="0.7464517"><ele>305.0</ele><time>2026-03-31T07:18:00.162Z</time></trkpt><trkpt lat="41.451695" lon="0.7464983"><ele>305.0</ele><time>2026-03-31T07:18:01.161Z</time></trkpt><trkpt lat="41.45152" lon="0.7465033"><ele>305.0</ele><time>2026-03-31T07:18:02.162Z</time></trkpt><trkpt lat="41.4513683" lon="0.7464417"><ele>305.0</ele><time>2026-03-31T07:18:03.161Z</time></trkpt><trkpt lat="41.45124" lon="0.746325"><ele>306.0</ele><time>2026-03-31T07:18:04.162Z</time></trkpt><trkpt lat="41.45114" lon="0.7461533"><ele>307.0</ele><time>2026-03-31T07:18:05.161Z</time></trkpt><trkpt lat="41.4510767" lon="0.745955"><ele>308.0</ele><time>2026-03-31T07:18:06.161Z</time></trkpt><trkpt lat="41.4510667" lon="0.7457483"><ele>310.33333333333337</ele><time>2026-03-31T07:18:07.161Z</time></trkpt><trkpt lat="41.4511017" lon="0.7455383"><ele>312.6666666666667</ele><time>2026-03-31T07:18:08.161Z</time></trkpt><trkpt lat="41.451175" lon="0.7453267"><ele>315.0</ele><time>2026-03-31T07:18:09.161Z</time></trkpt><trkpt lat="41.4512667" lon="0.7451333"><ele>312.6666666666667</ele><time>2026-03-31T07:18:10.161Z</time></trkpt><trkpt lat="41.45137" lon="0.7449283"><ele>310.33333333333337</ele><time>2026-03-31T07:18:11.161Z</time></trkpt><trkpt lat="41.4514767" lon="0.74473"><ele>308.0</ele><time>2026-03-31T07:18:12.161Z</time></trkpt><trkpt lat="41.4515667" lon="0.7445417"><ele>311.0</ele><time>2026-03-31T07:18:13.162Z</time></trkpt><trkpt lat="41.451645" lon="0.7443467"><ele>314.0</ele><time>2026-03-31T07:18:14.162Z</time></trkpt><trkpt lat="41.451705" lon="0.7441467"><ele>317.0</ele><time>2026-03-31T07:18:15.161Z</time></trkpt><trkpt lat="41.4517433" lon="0.7439467"><ele>317.0</ele><time>2026-03-31T07:18:16.162Z</time></trkpt><trkpt lat="41.4517417" lon="0.7437467"><ele>317.0</ele><time>2026-03-31T07:18:17.162Z</time></trkpt><trkpt lat="41.4517083" lon="0.7435417"><ele>317.0</ele><time>2026-03-31T07:18:18.161Z</time></trkpt><trkpt lat="41.4516333" lon="0.7433583"><ele>316.6666666666667</ele><time>2026-03-31T07:18:19.162Z</time></trkpt><trkpt lat="41.4515283" lon="0.74319"><ele>316.3333333333333</ele><time>2026-03-31T07:18:20.161Z</time></trkpt><trkpt lat="41.4514" lon="0.7430783"><ele>316.0</ele><time>2026-03-31T07:18:21.161Z</time></trkpt><trkpt lat="41.451235" lon="0.7430133"><ele>318.66666666666663</ele><time>2026-03-31T07:18:22.162Z</time></trkpt><trkpt lat="41.45107" lon="0.7429933"><ele>321.3333333333333</ele><time>2026-03-31T07:18:23.162Z</time></trkpt><trkpt lat="41.4509033" lon="0.743035"><ele>324.0</ele><time>2026-03-31T07:18:24.162Z</time></trkpt><trkpt lat="41.4507467" lon="0.7431333"><ele>324.0</ele><time>2026-03-31T07:18:25.161Z</time></trkpt><trkpt lat="41.4506167" lon="0.743285"><ele>324.0</ele><time>2026-03-31T07:18:26.162Z</time></trkpt><trkpt lat="41.4505083" lon="0.7434633"><ele>324.0</ele><time>2026-03-31T07:18:27.161Z</time></trkpt><trkpt lat="41.4503983" lon="0.7436483"><ele>327.6666666666667</ele><time>2026-03-31T07:18:28.162Z</time></trkpt><trkpt lat="41.4502933" lon="0.7438283"><ele>331.33333333333337</ele><time>2026-03-31T07:18:29.161Z</time></trkpt><trkpt lat="41.4501983" lon="0.7440167"><ele>335.0</ele><time>2026-03-31T07:18:30.161Z</time></trkpt><trkpt lat="41.4501233" lon="0.7442133"><ele>335.33333333333337</ele><time>2026-03-31T07:18:31.161Z</time></trkpt><trkpt lat="41.4500733" lon="0.74442"><ele>335.6666666666667</ele><time>2026-03-31T07:18:32.161Z</time></trkpt><trkpt lat="41.4500483" lon="0.7446383"><ele>336.0</ele><time>2026-03-31T07:18:33.161Z</time></trkpt><trkpt lat="41.4500467" lon="0.7448683"><ele>336.0</ele><time>2026-03-31T07:18:34.162Z</time></trkpt><trkpt lat="41.450075" lon="0.7451"><ele>336.0</ele><time>2026-03-31T07:18:35.162Z</time></trkpt><trkpt lat="41.4501117" lon="0.74533"><ele>336.0</ele><time>2026-03-31T07:18:36.162Z</time></trkpt><trkpt lat="41.4501217" lon="0.7455483"><ele>336.0</ele><time>2026-03-31T07:18:37.161Z</time></trkpt><trkpt lat="41.45009" lon="0.7457617"><ele>336.0</ele><time>2026-03-31T07:18:38.161Z</time></trkpt><trkpt lat="41.4500183" lon="0.745975"><ele>336.0</ele><time>2026-03-31T07:18:39.162Z</time></trkpt><trkpt lat="41.44991" lon="0.7461633"><ele>336.6666666666667</ele><time>2026-03-31T07:18:40.161Z</time></trkpt><trkpt lat="41.4497867" lon="0.7463183"><ele>337.33333333333337</ele><time>2026-03-31T07:18:41.161Z</time></trkpt><trkpt lat="41.4496367" lon="0.7464517"><ele>338.0</ele><time>2026-03-31T07:18:42.161Z</time></trkpt><trkpt lat="41.4494567" lon="0.7465433"><ele>338.0</ele><time>2026-03-31T07:18:43.161Z</time></trkpt><trkpt lat="41.44928" lon="0.74657"><ele>338.0</ele><time>2026-03-31T07:18:44.161Z</time></trkpt><trkpt lat="41.4491067" lon="0.7465417"><ele>338.0</ele><time>2026-03-31T07:18:45.162Z</time></trkpt><trkpt lat="41.4489383" lon="0.7464667"><ele>339.33333333333337</ele><time>2026-03-31T07:18:46.161Z</time></trkpt><trkpt lat="41.4487783" lon="0.7463417"><ele>340.6666666666667</ele><time>2026-03-31T07:18:47.161Z</time></trkpt><trkpt lat="41.4486383" lon="0.7461767"><ele>342.0</ele><time>2026-03-31T07:18:48.162Z</time></trkpt><trkpt lat="41.44853" lon="0.7459783"><ele>342.0</ele><time>2026-03-31T07:18:49.161Z</time></trkpt><trkpt lat="41.448455" lon="0.74576"><ele>342.0</ele><time>2026-03-31T07:18:50.161Z</time></trkpt><trkpt lat="41.4484233" lon="0.7455133"><ele>342.0</ele><time>2026-03-31T07:18:51.161Z</time></trkpt><trkpt lat="41.4484317" lon="0.7452633"><ele>344.0</ele><time>2026-03-31T07:18:52.162Z</time></trkpt><trkpt lat="41.4484467" lon="0.7449917"><ele>346.0</ele><time>2026-03-31T07:18:53.162Z</time></trkpt><trkpt lat="41.4484617" lon="0.74472"><ele>348.0</ele><time>2026-03-31T07:18:54.161Z</time></trkpt><trkpt lat="41.448475" lon="0.7444483"><ele>349.0</ele><time>2026-03-31T07:18:55.162Z</time></trkpt><trkpt lat="41.4484867" lon="0.744185"><ele>350.0</ele><time>2026-03-31T07:18:56.162Z</time></trkpt><trkpt lat="41.4485067" lon="0.74394"><ele>351.0</ele><time>2026-03-31T07:18:57.162Z</time></trkpt><trkpt lat="41.4485417" lon="0.7437"><ele>352.6666666666667</ele><time>2026-03-31T07:18:58.161Z</time></trkpt><trkpt lat="41.4485817" lon="0.7434633"><ele>354.33333333333337</ele><time>2026-03-31T07:18:59.162Z</time></trkpt><trkpt lat="41.4486233" lon="0.7432333"><ele>356.0</ele><time>2026-03-31T07:19:00.161Z</time></trkpt><trkpt lat="41.4486517" lon="0.7430233"><ele>356.0</ele><time>2026-03-31T07:19:01.162Z</time></trkpt><trkpt lat="41.448655" lon="0.742825"><ele>356.0</ele><time>2026-03-31T07:19:02.161Z</time></trkpt><trkpt lat="41.4486383" lon="0.742625"><ele>356.0</ele><time>2026-03-31T07:19:03.161Z</time></trkpt><trkpt lat="41.4486083" lon="0.7424233"><ele>356.75</ele><time>2026-03-31T07:19:04.161Z</time></trkpt><trkpt lat="41.4485667" lon="0.7422383"><ele>357.5</ele><time>2026-03-31T07:19:05.161Z</time></trkpt><trkpt lat="41.4485483" lon="0.7420517"><ele>358.25</ele><time>2026-03-31T07:19:06.162Z</time></trkpt><trkpt lat="41.44853" lon="0.7418583"><ele>359.0</ele><time>2026-03-31T07:19:07.161Z</time></trkpt><trkpt lat="41.4485217" lon="0.7416733"><ele>359.0</ele><time>2026-03-31T07:19:08.161Z</time></trkpt><trkpt lat="41.448515" lon="0.7414933"><ele>359.0</ele><time>2026-03-31T07:19:09.162Z</time></trkpt><trkpt lat="41.4485083" lon="0.7413217"><ele>359.0</ele><time>2026-03-31T07:19:10.161Z</time></trkpt><trkpt lat="41.44848" lon="0.7411583"><ele>359.0</ele><time>2026-03-31T07:19:11.161Z</time></trkpt><trkpt lat="41.4484367" lon="0.7410117"><ele>360.0</ele><time>2026-03-31T07:19:12.161Z</time></trkpt><trkpt lat="41.4483817" lon="0.7408833"><ele>361.0</ele><time>2026-03-31T07:19:13.162Z</time></trkpt><trkpt lat="41.4483167" lon="0.7407483"><ele>362.0</ele><time>2026-03-31T07:19:14.161Z</time></trkpt><trkpt lat="41.44826" lon="0.7406217"><ele>363.0</ele><time>2026-03-31T07:19:15.161Z</time></trkpt><trkpt lat="41.44822" lon="0.7404867"><ele>363.0</ele><time>2026-03-31T07:19:16.161Z</time></trkpt><trkpt lat="41.4482017" lon="0.74034"><ele>363.0</ele><time>2026-03-31T07:19:17.161Z</time></trkpt><trkpt lat="41.4482017" lon="0.740195"><ele>363.0</ele><time>2026-03-31T07:19:18.161Z</time></trkpt><trkpt lat="41.44821" lon="0.740045"><ele>363.0</ele><time>2026-03-31T07:19:19.161Z</time></trkpt><trkpt lat="41.4482267" lon="0.7398967"><ele>363.0</ele><time>2026-03-31T07:19:20.162Z</time></trkpt><trkpt lat="41.4482317" lon="0.7397517"><ele>363.59999999999997</ele><time>2026-03-31T07:19:21.162Z</time></trkpt><trkpt lat="41.448245" lon="0.7396117"><ele>364.2</ele><time>2026-03-31T07:19:22.161Z</time></trkpt><trkpt lat="41.44826" lon="0.7394783"><ele>364.8</ele><time>2026-03-31T07:19:23.161Z</time></trkpt><trkpt lat="41.448275" lon="0.7393533"><ele>365.4</ele><time>2026-03-31T07:19:24.162Z</time></trkpt><trkpt lat="41.4482833" lon="0.7392383"><ele>366.0</ele><time>2026-03-31T07:19:25.162Z</time></trkpt><trkpt lat="41.4482917" lon="0.7391367"><ele>366.8333333333333</ele><time>2026-03-31T07:19:26.161Z</time></trkpt><trkpt lat="41.4482717" lon="0.7390433"><ele>367.6666666666667</ele><time>2026-03-31T07:19:27.162Z</time></trkpt><trkpt lat="41.448245" lon="0.7389667"><ele>368.5</ele><time>2026-03-31T07:19:28.161Z</time></trkpt><trkpt lat="41.4482017" lon="0.7388933"><ele>369.33333333333337</ele><time>2026-03-31T07:19:29.162Z</time></trkpt><trkpt lat="41.4481383" lon="0.73883"><ele>370.1666666666667</ele><time>2026-03-31T07:19:30.161Z</time></trkpt><trkpt lat="41.44803" lon="0.7387733"><ele>371.0</ele><time>2026-03-31T07:19:32.161Z</time></trkpt><trkpt lat="41.4479" lon="0.7387717"><ele>371.33333333333337</ele><time>2026-03-31T07:19:34.161Z</time></trkpt><trkpt lat="41.4478283" lon="0.7387933"><ele>371.6666666666667</ele><time>2026-03-31T07:19:35.161Z</time></trkpt><trkpt lat="41.4477583" lon="0.7388483"><ele>372.0</ele><time>2026-03-31T07:19:36.161Z</time></trkpt><trkpt lat="41.4477017" lon="0.73892"><ele>372.3333333333333</ele><time>2026-03-31T07:19:37.162Z</time></trkpt><trkpt lat="41.447655" lon="0.7390217"><ele>372.66666666666663</ele><time>2026-03-31T07:19:38.161Z</time></trkpt><trkpt lat="41.4476083" lon="0.7391367"><ele>373.0</ele><time>2026-03-31T07:19:39.161Z</time></trkpt><trkpt lat="41.4475683" lon="0.739265"><ele>373.2</ele><time>2026-03-31T07:19:40.161Z</time></trkpt><trkpt lat="41.4475283" lon="0.73939"><ele>373.4</ele><time>2026-03-31T07:19:41.161Z</time></trkpt><trkpt lat="41.4474717" lon="0.739505"><ele>373.59999999999997</ele><time>2026-03-31T07:19:42.161Z</time></trkpt><trkpt lat="41.4474083" lon="0.7396033"><ele>373.79999999999995</ele><time>2026-03-31T07:19:43.162Z</time></trkpt><trkpt lat="41.4473333" lon="0.7396983"><ele>374.0</ele><time>2026-03-31T07:19:44.161Z</time></trkpt><trkpt lat="41.4472783" lon="0.739795"><ele>374.0</ele><time>2026-03-31T07:19:45.162Z</time></trkpt><trkpt lat="41.4472233" lon="0.7398967"><ele>374.0</ele><time>2026-03-31T07:19:46.161Z</time></trkpt><trkpt lat="41.4471767" lon="0.74001"><ele>374.0</ele><time>2026-03-31T07:19:47.162Z</time></trkpt><trkpt lat="41.447125" lon="0.7401317"><ele>374.0</ele><time>2026-03-31T07:19:48.162Z</time></trkpt><trkpt lat="41.44707" lon="0.740265"><ele>374.0</ele><time>2026-03-31T07:19:49.161Z</time></trkpt><trkpt lat="41.4470117" lon="0.7403817"><ele>376.2</ele><time>2026-03-31T07:19:50.161Z</time></trkpt><trkpt lat="41.4469533" lon="0.7404967"><ele>378.4</ele><time>2026-03-31T07:19:51.161Z</time></trkpt><trkpt lat="41.4469067" lon="0.7406083"><ele>380.6</ele><time>2026-03-31T07:19:52.161Z</time></trkpt><trkpt lat="41.446865" lon="0.74073"><ele>382.8</ele><time>2026-03-31T07:19:53.161Z</time></trkpt><trkpt lat="41.446845" lon="0.740865"><ele>385.0</ele><time>2026-03-31T07:19:54.162Z</time></trkpt><trkpt lat="41.4468367" lon="0.741015"><ele>385.75</ele><time>2026-03-31T07:19:55.161Z</time></trkpt><trkpt lat="41.4468217" lon="0.7411833"><ele>386.5</ele><time>2026-03-31T07:19:56.161Z</time></trkpt><trkpt lat="41.4468083" lon="0.7413533"><ele>387.25</ele><time>2026-03-31T07:19:57.161Z</time></trkpt><trkpt lat="41.4467883" lon="0.741525"><ele>388.0</ele><time>2026-03-31T07:19:58.162Z</time></trkpt><trkpt lat="41.4467683" lon="0.7417017"><ele>388.0</ele><time>2026-03-31T07:19:59.161Z</time></trkpt><trkpt lat="41.4467333" lon="0.7418783"><ele>388.0</ele><time>2026-03-31T07:20:00.161Z</time></trkpt><trkpt lat="41.4466817" lon="0.742035"><ele>388.0</ele><time>2026-03-31T07:20:01.161Z</time></trkpt><trkpt lat="41.4466" lon="0.7421567"><ele>388.0</ele><time>2026-03-31T07:20:02.161Z</time></trkpt><trkpt lat="41.446505" lon="0.742235"><ele>388.0</ele><time>2026-03-31T07:20:03.161Z</time></trkpt><trkpt lat="41.4463883" lon="0.742295"><ele>388.0</ele><time>2026-03-31T07:20:04.162Z</time></trkpt><trkpt lat="41.4462717" lon="0.7423867"><ele>388.0</ele><time>2026-03-31T07:20:05.161Z</time></trkpt><trkpt lat="41.4461633" lon="0.7424917"><ele>388.0</ele><time>2026-03-31T07:20:06.161Z</time></trkpt><trkpt lat="41.4460517" lon="0.7425767"><ele>389.0</ele><time>2026-03-31T07:20:07.161Z</time></trkpt><trkpt lat="41.445925" lon="0.74264"><ele>390.0</ele><time>2026-03-31T07:20:08.162Z</time></trkpt><trkpt lat="41.445785" lon="0.7426933"><ele>391.0</ele><time>2026-03-31T07:20:09.161Z</time></trkpt><trkpt lat="41.4456533" lon="0.742765"><ele>392.0</ele><time>2026-03-31T07:20:10.162Z</time></trkpt><trkpt lat="41.445545" lon="0.7428767"><ele>393.0</ele><time>2026-03-31T07:20:11.161Z</time></trkpt><trkpt lat="41.4454417" lon="0.743015"><ele>394.0</ele><time>2026-03-31T07:20:12.162Z</time></trkpt><trkpt lat="41.4453217" lon="0.7431383"><ele>395.0</ele><time>2026-03-31T07:20:13.162Z</time></trkpt><trkpt lat="41.4451867" lon="0.7432433"><ele>395.0</ele><time>2026-03-31T07:20:14.161Z</time></trkpt><trkpt lat="41.4450383" lon="0.7433317"><ele>395.0</ele><time>2026-03-31T07:20:15.161Z</time></trkpt><trkpt lat="41.4448817" lon="0.7434267"><ele>395.0</ele><time>2026-03-31T07:20:16.162Z</time></trkpt><trkpt lat="41.4447217" lon="0.743515"><ele>395.66666666666663</ele><time>2026-03-31T07:20:17.161Z</time></trkpt><trkpt lat="41.444555" lon="0.743615"><ele>396.33333333333337</ele><time>2026-03-31T07:20:18.161Z</time></trkpt><trkpt lat="41.4443917" lon="0.743715"><ele>397.0</ele><time>2026-03-31T07:20:19.161Z</time></trkpt><trkpt lat="41.4442333" lon="0.7438183"><ele>397.0</ele><time>2026-03-31T07:20:20.161Z</time></trkpt><trkpt lat="41.444065" lon="0.7439167"><ele>397.0</ele><time>2026-03-31T07:20:21.162Z</time></trkpt><trkpt lat="41.4438967" lon="0.74401"><ele>397.0</ele><time>2026-03-31T07:20:22.161Z</time></trkpt><trkpt lat="41.4437267" lon="0.744115"><ele>397.0</ele><time>2026-03-31T07:20:23.162Z</time></trkpt><trkpt lat="41.4435617" lon="0.74421"><ele>397.0</ele><time>2026-03-31T07:20:24.162Z</time></trkpt><trkpt lat="41.4433917" lon="0.74431"><ele>397.0</ele><time>2026-03-31T07:20:25.161Z</time></trkpt><trkpt lat="41.4432283" lon="0.744415"><ele>397.0</ele><time>2026-03-31T07:20:26.161Z</time></trkpt><trkpt lat="41.44306" lon="0.7445183"><ele>397.0</ele><time>2026-03-31T07:20:27.161Z</time></trkpt><trkpt lat="41.4429017" lon="0.74464"><ele>397.0</ele><time>2026-03-31T07:20:28.161Z</time></trkpt><trkpt lat="41.44276" lon="0.7447733"><ele>399.6666666666667</ele><time>2026-03-31T07:20:29.161Z</time></trkpt><trkpt lat="41.4426433" lon="0.7449"><ele>402.33333333333337</ele><time>2026-03-31T07:20:30.161Z</time></trkpt><trkpt lat="41.4425283" lon="0.74502"><ele>405.0</ele><time>2026-03-31T07:20:31.161Z</time></trkpt><trkpt lat="41.44239" lon="0.7451167"><ele>405.0</ele><time>2026-03-31T07:20:32.162Z</time></trkpt><trkpt lat="41.442235" lon="0.7451967"><ele>405.0</ele><time>2026-03-31T07:20:33.162Z</time></trkpt><trkpt lat="41.4420867" lon="0.745285"><ele>405.0</ele><time>2026-03-31T07:20:34.162Z</time></trkpt><trkpt lat="41.4419617" lon="0.7454033"><ele>406.0</ele><time>2026-03-31T07:20:35.161Z</time></trkpt><trkpt lat="41.44184" lon="0.74554"><ele>407.0</ele><time>2026-03-31T07:20:36.161Z</time></trkpt><trkpt lat="41.4417283" lon="0.745695"><ele>408.0</ele><time>2026-03-31T07:20:37.162Z</time></trkpt><trkpt lat="41.441625" lon="0.7458583"><ele>408.0</ele><time>2026-03-31T07:20:38.161Z</time></trkpt><trkpt lat="41.4415483" lon="0.74603"><ele>408.0</ele><time>2026-03-31T07:20:39.162Z</time></trkpt><trkpt lat="41.44147" lon="0.7462217"><ele>408.0</ele><time>2026-03-31T07:20:40.161Z</time></trkpt><trkpt lat="41.44139" lon="0.7464"><ele>409.5</ele><time>2026-03-31T07:20:41.162Z</time></trkpt><trkpt lat="41.441295" lon="0.7465683"><ele>411.0</ele><time>2026-03-31T07:20:42.162Z</time></trkpt><trkpt lat="41.4411783" lon="0.74669"><ele>412.5</ele><time>2026-03-31T07:20:43.162Z</time></trkpt><trkpt lat="41.44106" lon="0.7467633"><ele>414.0</ele><time>2026-03-31T07:20:44.162Z</time></trkpt><trkpt lat="41.4409433" lon="0.74677"><ele>414.0</ele><time>2026-03-31T07:20:45.162Z</time></trkpt><trkpt lat="41.4408267" lon="0.7467333"><ele>414.0</ele><time>2026-03-31T07:20:46.161Z</time></trkpt><trkpt lat="41.4407017" lon="0.7466733"><ele>414.0</ele><time>2026-03-31T07:20:47.161Z</time></trkpt><trkpt lat="41.4405683" lon="0.7466233"><ele>414.0</ele><time>2026-03-31T07:20:48.161Z</time></trkpt><trkpt lat="41.4404183" lon="0.74659"><ele>415.0</ele><time>2026-03-31T07:20:49.161Z</time></trkpt><trkpt lat="41.4402533" lon="0.7465667"><ele>416.0</ele><time>2026-03-31T07:20:50.162Z</time></trkpt><trkpt lat="41.4400867" lon="0.7465483"><ele>417.0</ele><time>2026-03-31T07:20:51.161Z</time></trkpt><trkpt lat="41.4399283" lon="0.7465333"><ele>417.0</ele><time>2026-03-31T07:20:52.162Z</time></trkpt><trkpt lat="41.4397683" lon="0.7465067"><ele>417.0</ele><time>2026-03-31T07:20:53.162Z</time></trkpt><trkpt lat="41.4396117" lon="0.7464617"><ele>417.0</ele><time>2026-03-31T07:20:54.161Z</time></trkpt><trkpt lat="41.4394683" lon="0.7463867"><ele>416.33333333333337</ele><time>2026-03-31T07:20:55.161Z</time></trkpt><trkpt lat="41.43932" lon="0.7463083"><ele>415.6666666666667</ele><time>2026-03-31T07:20:56.161Z</time></trkpt><trkpt lat="41.43917" lon="0.7462517"><ele>415.0</ele><time>2026-03-31T07:20:57.161Z</time></trkpt><trkpt lat="41.4390117" lon="0.7462283"><ele>415.0</ele><time>2026-03-31T07:20:58.161Z</time></trkpt><trkpt lat="41.4388483" lon="0.7462433"><ele>415.0</ele><time>2026-03-31T07:20:59.161Z</time></trkpt><trkpt lat="41.438685" lon="0.7462617"><ele>415.0</ele><time>2026-03-31T07:21:00.162Z</time></trkpt><trkpt lat="41.4385233" lon="0.7462717"><ele>414.5</ele><time>2026-03-31T07:21:01.162Z</time></trkpt><trkpt lat="41.4383667" lon="0.7462767"><ele>414.0</ele><time>2026-03-31T07:21:02.162Z</time></trkpt><trkpt lat="41.4382167" lon="0.746265"><ele>413.5</ele><time>2026-03-31T07:21:03.162Z</time></trkpt><trkpt lat="41.4380833" lon="0.7462317"><ele>413.0</ele><time>2026-03-31T07:21:04.162Z</time></trkpt><trkpt lat="41.4379583" lon="0.7461933"><ele>414.25</ele><time>2026-03-31T07:21:05.161Z</time></trkpt><trkpt lat="41.43785" lon="0.7461767"><ele>415.5</ele><time>2026-03-31T07:21:06.161Z</time></trkpt><trkpt lat="41.4377433" lon="0.74621"><ele>416.75</ele><time>2026-03-31T07:21:07.161Z</time></trkpt><trkpt lat="41.43764" lon="0.7462917"><ele>418.0</ele><time>2026-03-31T07:21:08.162Z</time></trkpt><trkpt lat="41.4375433" lon="0.7463917"><ele>418.0</ele><time>2026-03-31T07:21:09.162Z</time></trkpt><trkpt lat="41.4374383" lon="0.7464967"><ele>418.0</ele><time>2026-03-31T07:21:10.161Z</time></trkpt><trkpt lat="41.437315" lon="0.7465667"><ele>418.0</ele><time>2026-03-31T07:21:11.162Z</time></trkpt><trkpt lat="41.4371783" lon="0.7466033"><ele>418.0</ele><time>2026-03-31T07:21:12.161Z</time></trkpt><trkpt lat="41.4370217" lon="0.7466083"><ele>420.0</ele><time>2026-03-31T07:21:13.161Z</time></trkpt><trkpt lat="41.4368667" lon="0.7466117"><ele>422.0</ele><time>2026-03-31T07:21:14.162Z</time></trkpt><trkpt lat="41.43671" lon="0.7466217"><ele>424.0</ele><time>2026-03-31T07:21:15.162Z</time></trkpt><trkpt lat="41.4365517" lon="0.7466267"><ele>424.0</ele><time>2026-03-31T07:21:16.162Z</time></trkpt><trkpt lat="41.4363933" lon="0.7466283"><ele>424.0</ele><time>2026-03-31T07:21:17.161Z</time></trkpt><trkpt lat="41.4362333" lon="0.7466467"><ele>424.0</ele><time>2026-03-31T07:21:18.161Z</time></trkpt><trkpt lat="41.4360817" lon="0.7466917"><ele>425.0</ele><time>2026-03-31T07:21:19.161Z</time></trkpt><trkpt lat="41.4359267" lon="0.7467283"><ele>426.0</ele><time>2026-03-31T07:21:20.161Z</time></trkpt><trkpt lat="41.4357633" lon="0.7467467"><ele>427.0</ele><time>2026-03-31T07:21:21.161Z</time></trkpt><trkpt lat="41.4356033" lon="0.7467733"><ele>427.0</ele><time>2026-03-31T07:21:22.162Z</time></trkpt><trkpt lat="41.4354417" lon="0.7468133"><ele>427.0</ele><time>2026-03-31T07:21:23.161Z</time></trkpt><trkpt lat="41.4352817" lon="0.7468667"><ele>427.0</ele><time>2026-03-31T07:21:24.161Z</time></trkpt><trkpt lat="41.435125" lon="0.746925"><ele>427.0</ele><time>2026-03-31T07:21:25.161Z</time></trkpt><trkpt lat="41.4349667" lon="0.7469683"><ele>427.0</ele><time>2026-03-31T07:21:26.161Z</time></trkpt><trkpt lat="41.43481" lon="0.7470017"><ele>427.0</ele><time>2026-03-31T07:21:27.162Z</time></trkpt><trkpt lat="41.434665" lon="0.7470533"><ele>429.0</ele><time>2026-03-31T07:21:28.161Z</time></trkpt><trkpt lat="41.434525" lon="0.7471217"><ele>431.0</ele><time>2026-03-31T07:21:29.161Z</time></trkpt><trkpt lat="41.434385" lon="0.7472067"><ele>433.0</ele><time>2026-03-31T07:21:30.161Z</time></trkpt><trkpt lat="41.43425" lon="0.747295"><ele>433.0</ele><time>2026-03-31T07:21:31.161Z</time></trkpt><trkpt lat="41.4341283" lon="0.7474"><ele>433.0</ele><time>2026-03-31T07:21:32.161Z</time></trkpt><trkpt lat="41.4340267" lon="0.7475417"><ele>433.0</ele><time>2026-03-31T07:21:33.161Z</time></trkpt><trkpt lat="41.4339317" lon="0.7477033"><ele>433.0</ele><time>2026-03-31T07:21:34.161Z</time></trkpt><trkpt lat="41.43384" lon="0.7478717"><ele>433.6666666666667</ele><time>2026-03-31T07:21:35.161Z</time></trkpt><trkpt lat="41.43375" lon="0.7480383"><ele>434.33333333333337</ele><time>2026-03-31T07:21:36.161Z</time></trkpt><trkpt lat="41.4336483" lon="0.7481983"><ele>435.0</ele><time>2026-03-31T07:21:37.162Z</time></trkpt><trkpt lat="41.4335367" lon="0.748345"><ele>435.0</ele><time>2026-03-31T07:21:38.161Z</time></trkpt><trkpt lat="41.4334167" lon="0.748485"><ele>435.0</ele><time>2026-03-31T07:21:39.161Z</time></trkpt><trkpt lat="41.4332883" lon="0.748615"><ele>435.0</ele><time>2026-03-31T07:21:40.162Z</time></trkpt><trkpt lat="41.4331517" lon="0.7487483"><ele>435.0</ele><time>2026-03-31T07:21:41.162Z</time></trkpt><trkpt lat="41.4330167" lon="0.7488717"><ele>435.0</ele><time>2026-03-31T07:21:42.162Z</time></trkpt><trkpt lat="41.4328833" lon="0.7489983"><ele>435.0</ele><time>2026-03-31T07:21:43.162Z</time></trkpt><trkpt lat="41.4327617" lon="0.7491433"><ele>436.33333333333337</ele><time>2026-03-31T07:21:44.161Z</time></trkpt><trkpt lat="41.4326467" lon="0.749305"><ele>437.6666666666667</ele><time>2026-03-31T07:21:45.161Z</time></trkpt><trkpt lat="41.4325433" lon="0.7494583"><ele>439.0</ele><time>2026-03-31T07:21:46.161Z</time></trkpt><trkpt lat="41.4324383" lon="0.7496"><ele>439.25</ele><time>2026-03-31T07:21:47.161Z</time></trkpt><trkpt lat="41.43234" lon="0.74975"><ele>439.5</ele><time>2026-03-31T07:21:48.161Z</time></trkpt><trkpt lat="41.43224" lon="0.7498867"><ele>439.75</ele><time>2026-03-31T07:21:49.161Z</time></trkpt><trkpt lat="41.4321483" lon="0.7500217"><ele>440.0</ele><time>2026-03-31T07:21:50.162Z</time></trkpt><trkpt lat="41.4320517" lon="0.750145"><ele>441.25</ele><time>2026-03-31T07:21:51.161Z</time></trkpt><trkpt lat="41.4319583" lon="0.750265"><ele>442.5</ele><time>2026-03-31T07:21:52.161Z</time></trkpt><trkpt lat="41.4318667" lon="0.75037"><ele>443.75</ele><time>2026-03-31T07:21:53.162Z</time></trkpt><trkpt lat="41.4317633" lon="0.7504567"><ele>445.0</ele><time>2026-03-31T07:21:54.162Z</time></trkpt><trkpt lat="41.4316533" lon="0.7505233"><ele>445.0</ele><time>2026-03-31T07:21:55.162Z</time></trkpt><trkpt lat="41.4315417" lon="0.7505883"><ele>445.0</ele><time>2026-03-31T07:21:56.162Z</time></trkpt><trkpt lat="41.43143" lon="0.7506483"><ele>445.0</ele><time>2026-03-31T07:21:57.161Z</time></trkpt><trkpt lat="41.4313167" lon="0.750715"><ele>445.0</ele><time>2026-03-31T07:21:58.161Z</time></trkpt><trkpt lat="41.4312067" lon="0.75078"><ele>445.75</ele><time>2026-03-31T07:21:59.162Z</time></trkpt><trkpt lat="41.4310983" lon="0.75084"><ele>446.5</ele><time>2026-03-31T07:22:00.162Z</time></trkpt><trkpt lat="41.4309867" lon="0.75089"><ele>447.25</ele><time>2026-03-31T07:22:01.162Z</time></trkpt><trkpt lat="41.4308817" lon="0.7509317"><ele>448.0</ele><time>2026-03-31T07:22:02.162Z</time></trkpt><trkpt lat="41.4307733" lon="0.7509517"><ele>448.0</ele><time>2026-03-31T07:22:03.161Z</time></trkpt><trkpt lat="41.43068" lon="0.7509667"><ele>447.99999999999994</ele><time>2026-03-31T07:22:04.161Z</time></trkpt><trkpt lat="41.4305867" lon="0.750995"><ele>447.99999999999994</ele><time>2026-03-31T07:22:05.161Z</time></trkpt><trkpt lat="41.430495" lon="0.7510517"><ele>448.0</ele><time>2026-03-31T07:22:06.162Z</time></trkpt><trkpt lat="41.4304117" lon="0.7511367"><ele>448.0</ele><time>2026-03-31T07:22:07.161Z</time></trkpt><trkpt lat="41.43033" lon="0.7512333"><ele>447.79999999999995</ele><time>2026-03-31T07:22:08.161Z</time></trkpt><trkpt lat="41.4302517" lon="0.7513333"><ele>447.59999999999997</ele><time>2026-03-31T07:22:09.162Z</time></trkpt><trkpt lat="41.4301733" lon="0.7514433"><ele>447.40000000000003</ele><time>2026-03-31T07:22:10.162Z</time></trkpt><trkpt lat="41.4301117" lon="0.7515467"><ele>447.20000000000005</ele><time>2026-03-31T07:22:11.161Z</time></trkpt><trkpt lat="41.4300667" lon="0.7516833"><ele>447.0</ele><time>2026-03-31T07:22:12.162Z</time></trkpt><trkpt lat="41.4300317" lon="0.751865"><ele>447.33333333333337</ele><time>2026-03-31T07:22:13.162Z</time></trkpt><trkpt lat="41.430025" lon="0.752085"><ele>447.6666666666667</ele><time>2026-03-31T07:22:14.161Z</time></trkpt><trkpt lat="41.4300233" lon="0.752305"><ele>448.0</ele><time>2026-03-31T07:22:15.161Z</time></trkpt><trkpt lat="41.4300117" lon="0.7525333"><ele>448.33333333333337</ele><time>2026-03-31T07:22:16.161Z</time></trkpt><trkpt lat="41.4299883" lon="0.7527567"><ele>448.66666666666663</ele><time>2026-03-31T07:22:17.161Z</time></trkpt><trkpt lat="41.42994" lon="0.7529683"><ele>449.0</ele><time>2026-03-31T07:22:18.162Z</time></trkpt><trkpt lat="41.4298683" lon="0.7531617"><ele>449.0</ele><time>2026-03-31T07:22:19.161Z</time></trkpt><trkpt lat="41.4297717" lon="0.7533283"><ele>449.0</ele><time>2026-03-31T07:22:20.161Z</time></trkpt><trkpt lat="41.4296567" lon="0.7534717"><ele>449.0</ele><time>2026-03-31T07:22:21.161Z</time></trkpt><trkpt lat="41.4295233" lon="0.75362"><ele>449.66666666666663</ele><time>2026-03-31T07:22:22.162Z</time></trkpt><trkpt lat="41.42939" lon="0.753775"><ele>450.33333333333337</ele><time>2026-03-31T07:22:23.161Z</time></trkpt><trkpt lat="41.4292633" lon="0.753915"><ele>451.0</ele><time>2026-03-31T07:22:24.161Z</time></trkpt><trkpt lat="41.4291483" lon="0.7540417"><ele>451.0</ele><time>2026-03-31T07:22:25.162Z</time></trkpt><trkpt lat="41.429035" lon="0.7541767"><ele>451.0</ele><time>2026-03-31T07:22:26.162Z</time></trkpt><trkpt lat="41.428945" lon="0.7543167"><ele>451.0</ele><time>2026-03-31T07:22:27.162Z</time></trkpt><trkpt lat="41.4288717" lon="0.75448"><ele>451.0</ele><time>2026-03-31T07:22:28.161Z</time></trkpt><trkpt lat="41.4288233" lon="0.7546783"><ele>450.6666666666667</ele><time>2026-03-31T07:22:29.161Z</time></trkpt><trkpt lat="41.428795" lon="0.75489"><ele>450.33333333333337</ele><time>2026-03-31T07:22:30.161Z</time></trkpt><trkpt lat="41.4287767" lon="0.7551083"><ele>450.0</ele><time>2026-03-31T07:22:31.161Z</time></trkpt><trkpt lat="41.4287517" lon="0.7553283"><ele>450.0</ele><time>2026-03-31T07:22:32.162Z</time></trkpt><trkpt lat="41.4287383" lon="0.7555467"><ele>450.0</ele><time>2026-03-31T07:22:33.161Z</time></trkpt><trkpt lat="41.4287217" lon="0.755765"><ele>450.0</ele><time>2026-03-31T07:22:34.161Z</time></trkpt><trkpt lat="41.4287" lon="0.7559833"><ele>451.33333333333337</ele><time>2026-03-31T07:22:35.161Z</time></trkpt><trkpt lat="41.4286533" lon="0.7562033"><ele>452.6666666666667</ele><time>2026-03-31T07:22:36.161Z</time></trkpt><trkpt lat="41.428585" lon="0.7564217"><ele>454.0</ele><time>2026-03-31T07:22:37.162Z</time></trkpt><trkpt lat="41.4285" lon="0.756625"><ele>454.0</ele><time>2026-03-31T07:22:38.161Z</time></trkpt><trkpt lat="41.4283933" lon="0.7568217"><ele>454.0</ele><time>2026-03-31T07:22:39.161Z</time></trkpt><trkpt lat="41.42828" lon="0.75702"><ele>454.0</ele><time>2026-03-31T07:22:40.161Z</time></trkpt><trkpt lat="41.4281683" lon="0.7572217"><ele>454.0</ele><time>2026-03-31T07:22:41.161Z</time></trkpt><trkpt lat="41.428055" lon="0.7574233"><ele>454.0</ele><time>2026-03-31T07:22:42.162Z</time></trkpt><trkpt lat="41.4279517" lon="0.75761"><ele>454.0</ele><time>2026-03-31T07:22:43.161Z</time></trkpt><trkpt lat="41.4278667" lon="0.7577983"><ele>455.6666666666667</ele><time>2026-03-31T07:22:44.162Z</time></trkpt><trkpt lat="41.4278017" lon="0.7579867"><ele>457.33333333333337</ele><time>2026-03-31T07:22:45.161Z</time></trkpt><trkpt lat="41.42774" lon="0.7581783"><ele>459.0</ele><time>2026-03-31T07:22:46.162Z</time></trkpt><trkpt lat="41.4276717" lon="0.7583483"><ele>459.0</ele><time>2026-03-31T07:22:47.161Z</time></trkpt><trkpt lat="41.427585" lon="0.7584967"><ele>459.0</ele><time>2026-03-31T07:22:48.161Z</time></trkpt><trkpt lat="41.4274717" lon="0.7586133"><ele>459.0</ele><time>2026-03-31T07:22:49.161Z</time></trkpt><trkpt lat="41.4273533" lon="0.758725"><ele>459.0</ele><time>2026-03-31T07:22:50.162Z</time></trkpt><trkpt lat="41.4272333" lon="0.758835"><ele>459.75</ele><time>2026-03-31T07:22:51.162Z</time></trkpt><trkpt lat="41.427135" lon="0.7589767"><ele>460.5</ele><time>2026-03-31T07:22:52.162Z</time></trkpt><trkpt lat="41.4270517" lon="0.7591383"><ele>461.25</ele><time>2026-03-31T07:22:53.162Z</time></trkpt><trkpt lat="41.4269767" lon="0.7593067"><ele>462.0</ele><time>2026-03-31T07:22:54.161Z</time></trkpt><trkpt lat="41.4269133" lon="0.7594917"><ele>463.0</ele><time>2026-03-31T07:22:55.161Z</time></trkpt><trkpt lat="41.4268367" lon="0.75967"><ele>464.0</ele><time>2026-03-31T07:22:56.162Z</time></trkpt><trkpt lat="41.42674" lon="0.7598383"><ele>465.0</ele><time>2026-03-31T07:22:57.161Z</time></trkpt><trkpt lat="41.426635" lon="0.759995"><ele>465.0</ele><time>2026-03-31T07:22:58.161Z</time></trkpt><trkpt lat="41.4265217" lon="0.76015"><ele>465.0</ele><time>2026-03-31T07:22:59.161Z</time></trkpt><trkpt lat="41.4264183" lon="0.7602967"><ele>465.0</ele><time>2026-03-31T07:23:00.162Z</time></trkpt><trkpt lat="41.4263083" lon="0.760455"><ele>465.66666666666663</ele><time>2026-03-31T07:23:01.162Z</time></trkpt><trkpt lat="41.4261983" lon="0.7606183"><ele>466.3333333333333</ele><time>2026-03-31T07:23:02.162Z</time></trkpt><trkpt lat="41.4260867" lon="0.760785"><ele>467.0</ele><time>2026-03-31T07:23:03.161Z</time></trkpt><trkpt lat="41.4259717" lon="0.7609533"><ele>468.3333333333333</ele><time>2026-03-31T07:23:04.162Z</time></trkpt><trkpt lat="41.4258617" lon="0.76113"><ele>469.66666666666663</ele><time>2026-03-31T07:23:05.162Z</time></trkpt><trkpt lat="41.42576" lon="0.7613167"><ele>471.0</ele><time>2026-03-31T07:23:06.162Z</time></trkpt><trkpt lat="41.4256633" lon="0.7615033"><ele>471.0</ele><time>2026-03-31T07:23:07.161Z</time></trkpt><trkpt lat="41.4255717" lon="0.7616867"><ele>471.0</ele><time>2026-03-31T07:23:08.161Z</time></trkpt><trkpt lat="41.425495" lon="0.7618533"><ele>471.0</ele><time>2026-03-31T07:23:09.161Z</time></trkpt><trkpt lat="41.4254133" lon="0.7620083"><ele>472.0</ele><time>2026-03-31T07:23:10.161Z</time></trkpt><trkpt lat="41.4253233" lon="0.7621583"><ele>473.0</ele><time>2026-03-31T07:23:11.161Z</time></trkpt><trkpt lat="41.4252217" lon="0.7622867"><ele>474.0</ele><time>2026-03-31T07:23:12.161Z</time></trkpt><trkpt lat="41.4251133" lon="0.762375"><ele>475.0</ele><time>2026-03-31T07:23:13.161Z</time></trkpt><trkpt lat="41.4249933" lon="0.7624417"><ele>475.0</ele><time>2026-03-31T07:23:14.163Z</time></trkpt><trkpt lat="41.4248633" lon="0.762475"><ele>475.0</ele><time>2026-03-31T07:23:15.162Z</time></trkpt><trkpt lat="41.4247383" lon="0.76252"><ele>475.0</ele><time>2026-03-31T07:23:16.163Z</time></trkpt><trkpt lat="41.4246217" lon="0.7625833"><ele>475.0</ele><time>2026-03-31T07:23:17.162Z</time></trkpt><trkpt lat="41.424495" lon="0.762655"><ele>476.0</ele><time>2026-03-31T07:23:18.162Z</time></trkpt><trkpt lat="41.424365" lon="0.7627"><ele>477.0</ele><time>2026-03-31T07:23:19.162Z</time></trkpt><trkpt lat="41.4242433" lon="0.7626933"><ele>478.0</ele><time>2026-03-31T07:23:20.163Z</time></trkpt><trkpt lat="41.4241383" lon="0.7626367"><ele>479.0</ele><time>2026-03-31T07:23:21.163Z</time></trkpt><trkpt lat="41.4240383" lon="0.76253"><ele>479.0</ele><time>2026-03-31T07:23:22.162Z</time></trkpt><trkpt lat="41.4239583" lon="0.762395"><ele>479.0</ele><time>2026-03-31T07:23:23.162Z</time></trkpt><trkpt lat="41.4238883" lon="0.7622783"><ele>479.0</ele><time>2026-03-31T07:23:24.163Z</time></trkpt><trkpt lat="41.4238167" lon="0.7621917"><ele>479.0</ele><time>2026-03-31T07:23:25.162Z</time></trkpt><trkpt lat="41.4237233" lon="0.7621533"><ele>479.0</ele><time>2026-03-31T07:23:26.162Z</time></trkpt><trkpt lat="41.42363" lon="0.762165"><ele>480.5</ele><time>2026-03-31T07:23:27.162Z</time></trkpt><trkpt lat="41.4235467" lon="0.7622183"><ele>482.0</ele><time>2026-03-31T07:23:28.162Z</time></trkpt><trkpt lat="41.4234683" lon="0.7623167"><ele>483.5</ele><time>2026-03-31T07:23:29.162Z</time></trkpt><trkpt lat="41.423395" lon="0.7624583"><ele>485.0</ele><time>2026-03-31T07:23:30.163Z</time></trkpt><trkpt lat="41.4232983" lon="0.7626417"><ele>485.5</ele><time>2026-03-31T07:23:31.162Z</time></trkpt><trkpt lat="41.4232017" lon="0.7627967"><ele>486.0</ele><time>2026-03-31T07:23:32.163Z</time></trkpt><trkpt lat="41.4230983" lon="0.7629133"><ele>486.5</ele><time>2026-03-31T07:23:33.163Z</time></trkpt><trkpt lat="41.4229883" lon="0.7629883"><ele>487.0</ele><time>2026-03-31T07:23:34.162Z</time></trkpt><trkpt lat="41.4228567" lon="0.76301"><ele>487.5</ele><time>2026-03-31T07:23:35.162Z</time></trkpt><trkpt lat="41.4227267" lon="0.7629833"><ele>488.0</ele><time>2026-03-31T07:23:36.162Z</time></trkpt><trkpt lat="41.4226083" lon="0.7629217"><ele>488.5</ele><time>2026-03-31T07:23:37.163Z</time></trkpt><trkpt lat="41.4225" lon="0.7628283"><ele>489.0</ele><time>2026-03-31T07:23:38.162Z</time></trkpt><trkpt lat="41.422395" lon="0.7627317"><ele>489.0</ele><time>2026-03-31T07:23:39.162Z</time></trkpt><trkpt lat="41.4222783" lon="0.7626567"><ele>489.0</ele><time>2026-03-31T07:23:40.162Z</time></trkpt><trkpt lat="41.4221517" lon="0.7626233"><ele>489.0</ele><time>2026-03-31T07:23:41.163Z</time></trkpt><trkpt lat="41.4220133" lon="0.7626217"><ele>489.0</ele><time>2026-03-31T07:23:42.163Z</time></trkpt><trkpt lat="41.4218817" lon="0.7626567"><ele>490.0</ele><time>2026-03-31T07:23:43.163Z</time></trkpt><trkpt lat="41.4217367" lon="0.7627017"><ele>491.0</ele><time>2026-03-31T07:23:44.163Z</time></trkpt><trkpt lat="41.4215833" lon="0.7627517"><ele>492.0</ele><time>2026-03-31T07:23:45.162Z</time></trkpt><trkpt lat="41.42144" lon="0.7628217"><ele>493.33333333333337</ele><time>2026-03-31T07:23:46.162Z</time></trkpt><trkpt lat="41.4212917" lon="0.762905"><ele>494.6666666666667</ele><time>2026-03-31T07:23:47.162Z</time></trkpt><trkpt lat="41.42115" lon="0.7629917"><ele>496.0</ele><time>2026-03-31T07:23:48.163Z</time></trkpt><trkpt lat="41.42101" lon="0.7630783"><ele>496.0</ele><time>2026-03-31T07:23:49.162Z</time></trkpt><trkpt lat="41.4208533" lon="0.7631467"><ele>496.0</ele><time>2026-03-31T07:23:50.162Z</time></trkpt><trkpt lat="41.42069" lon="0.7632017"><ele>496.0</ele><time>2026-03-31T07:23:51.162Z</time></trkpt><trkpt lat="41.42052" lon="0.763245"><ele>496.33333333333337</ele><time>2026-03-31T07:23:52.162Z</time></trkpt><trkpt lat="41.420345" lon="0.7632833"><ele>496.66666666666663</ele><time>2026-03-31T07:23:53.163Z</time></trkpt><trkpt lat="41.4201683" lon="0.76332"><ele>497.0</ele><time>2026-03-31T07:23:54.162Z</time></trkpt><trkpt lat="41.419995" lon="0.7633533"><ele>497.0</ele><time>2026-03-31T07:23:55.163Z</time></trkpt><trkpt lat="41.41982" lon="0.7633817"><ele>497.0</ele><time>2026-03-31T07:23:56.163Z</time></trkpt><trkpt lat="41.4196533" lon="0.76341"><ele>497.0</ele><time>2026-03-31T07:23:57.163Z</time></trkpt><trkpt lat="41.419495" lon="0.7634367"><ele>498.66666666666663</ele><time>2026-03-31T07:23:58.163Z</time></trkpt><trkpt lat="41.4193283" lon="0.7634483"><ele>500.33333333333337</ele><time>2026-03-31T07:23:59.162Z</time></trkpt><trkpt lat="41.41917" lon="0.7634267"><ele>502.0</ele><time>2026-03-31T07:24:00.162Z</time></trkpt><trkpt lat="41.419015" lon="0.7633667"><ele>502.0</ele><time>2026-03-31T07:24:01.162Z</time></trkpt><trkpt lat="41.4188783" lon="0.7632683"><ele>502.0</ele><time>2026-03-31T07:24:02.163Z</time></trkpt><trkpt lat="41.4187533" lon="0.7631467"><ele>502.0</ele><time>2026-03-31T07:24:03.162Z</time></trkpt><trkpt lat="41.4186317" lon="0.763025"><ele>502.75</ele><time>2026-03-31T07:24:04.163Z</time></trkpt><trkpt lat="41.4185217" lon="0.7629083"><ele>503.5</ele><time>2026-03-31T07:24:05.163Z</time></trkpt><trkpt lat="41.4184067" lon="0.7628133"><ele>504.25</ele><time>2026-03-31T07:24:06.162Z</time></trkpt><trkpt lat="41.4182783" lon="0.76274"><ele>505.0</ele><time>2026-03-31T07:24:07.162Z</time></trkpt><trkpt lat="41.418145" lon="0.7627083"><ele>504.25</ele><time>2026-03-31T07:24:08.163Z</time></trkpt><trkpt lat="41.418005" lon="0.76269"><ele>503.5</ele><time>2026-03-31T07:24:09.162Z</time></trkpt><trkpt lat="41.4178533" lon="0.7626817"><ele>502.75</ele><time>2026-03-31T07:24:10.162Z</time></trkpt><trkpt lat="41.417705" lon="0.7626767"><ele>502.0</ele><time>2026-03-31T07:24:11.162Z</time></trkpt><trkpt lat="41.417565" lon="0.7626767"><ele>502.0</ele><time>2026-03-31T07:24:12.162Z</time></trkpt><trkpt lat="41.4174283" lon="0.76269"><ele>502.0</ele><time>2026-03-31T07:24:13.162Z</time></trkpt><trkpt lat="41.4173033" lon="0.762725"><ele>502.0</ele><time>2026-03-31T07:24:14.162Z</time></trkpt><trkpt lat="41.4171767" lon="0.7627967"><ele>502.0</ele><time>2026-03-31T07:24:15.162Z</time></trkpt><trkpt lat="41.417065" lon="0.7629017"><ele>503.0</ele><time>2026-03-31T07:24:16.163Z</time></trkpt><trkpt lat="41.4169483" lon="0.7630117"><ele>504.0</ele><time>2026-03-31T07:24:17.162Z</time></trkpt><trkpt lat="41.416825" lon="0.7631283"><ele>505.0</ele><time>2026-03-31T07:24:18.162Z</time></trkpt><trkpt lat="41.4167" lon="0.7632467"><ele>506.0</ele><time>2026-03-31T07:24:19.163Z</time></trkpt><trkpt lat="41.4165767" lon="0.7633667"><ele>506.0</ele><time>2026-03-31T07:24:20.162Z</time></trkpt><trkpt lat="41.4164567" lon="0.7634867"><ele>506.0</ele><time>2026-03-31T07:24:21.162Z</time></trkpt><trkpt lat="41.4163367" lon="0.76361"><ele>506.0</ele><time>2026-03-31T07:24:22.163Z</time></trkpt><trkpt lat="41.4162117" lon="0.76372"><ele>507.3333333333333</ele><time>2026-03-31T07:24:23.162Z</time></trkpt><trkpt lat="41.4160883" lon="0.7638383"><ele>508.66666666666663</ele><time>2026-03-31T07:24:24.162Z</time></trkpt><trkpt lat="41.4159667" lon="0.7639533"><ele>510.0</ele><time>2026-03-31T07:24:25.162Z</time></trkpt><trkpt lat="41.4158467" lon="0.7640733"><ele>510.0</ele><time>2026-03-31T07:24:26.163Z</time></trkpt><trkpt lat="41.4157267" lon="0.7641867"><ele>510.0</ele><time>2026-03-31T07:24:27.162Z</time></trkpt><trkpt lat="41.4156117" lon="0.7642967"><ele>510.0</ele><time>2026-03-31T07:24:28.163Z</time></trkpt><trkpt lat="41.4154983" lon="0.7644017"><ele>510.0</ele><time>2026-03-31T07:24:29.163Z</time></trkpt><trkpt lat="41.4153833" lon="0.7645217"><ele>511.0</ele><time>2026-03-31T07:24:30.162Z</time></trkpt><trkpt lat="41.4152633" lon="0.7646483"><ele>512.0</ele><time>2026-03-31T07:24:31.163Z</time></trkpt><trkpt lat="41.4151467" lon="0.764775"><ele>513.0</ele><time>2026-03-31T07:24:32.162Z</time></trkpt><trkpt lat="41.415025" lon="0.7649083"><ele>513.0</ele><time>2026-03-31T07:24:33.162Z</time></trkpt><trkpt lat="41.4149033" lon="0.765045"><ele>513.0</ele><time>2026-03-31T07:24:34.162Z</time></trkpt><trkpt lat="41.414775" lon="0.7651783"><ele>513.0</ele><time>2026-03-31T07:24:35.162Z</time></trkpt><trkpt lat="41.414645" lon="0.7653183"><ele>514.0</ele><time>2026-03-31T07:24:36.162Z</time></trkpt><trkpt lat="41.4145167" lon="0.7654633"><ele>515.0</ele><time>2026-03-31T07:24:37.163Z</time></trkpt><trkpt lat="41.4143867" lon="0.76561"><ele>516.0</ele><time>2026-03-31T07:24:38.162Z</time></trkpt><trkpt lat="41.414255" lon="0.76576"><ele>516.0</ele><time>2026-03-31T07:24:39.163Z</time></trkpt><trkpt lat="41.4141283" lon="0.765915"><ele>516.0</ele><time>2026-03-31T07:24:40.163Z</time></trkpt><trkpt lat="41.4139983" lon="0.7660583"><ele>516.0</ele><time>2026-03-31T07:24:41.162Z</time></trkpt><trkpt lat="41.4138733" lon="0.7662017"><ele>517.3333333333334</ele><time>2026-03-31T07:24:42.163Z</time></trkpt><trkpt lat="41.413745" lon="0.76635"><ele>518.6666666666667</ele><time>2026-03-31T07:24:43.162Z</time></trkpt><trkpt lat="41.413615" lon="0.7664883"><ele>520.0</ele><time>2026-03-31T07:24:44.162Z</time></trkpt><trkpt lat="41.4134717" lon="0.76661"><ele>520.0</ele><time>2026-03-31T07:24:45.162Z</time></trkpt><trkpt lat="41.413305" lon="0.7667083"><ele>520.0</ele><time>2026-03-31T07:24:46.162Z</time></trkpt><trkpt lat="41.4131333" lon="0.7667783"><ele>520.0</ele><time>2026-03-31T07:24:47.163Z</time></trkpt><trkpt lat="41.4129517" lon="0.76682"><ele>520.6666666666667</ele><time>2026-03-31T07:24:48.163Z</time></trkpt><trkpt lat="41.412765" lon="0.7668633"><ele>521.3333333333334</ele><time>2026-03-31T07:24:49.162Z</time></trkpt><trkpt lat="41.4125817" lon="0.7669117"><ele>522.0</ele><time>2026-03-31T07:24:50.163Z</time></trkpt><trkpt lat="41.4123967" lon="0.76696"><ele>522.0</ele><time>2026-03-31T07:24:51.163Z</time></trkpt><trkpt lat="41.41222" lon="0.7670233"><ele>522.0</ele><time>2026-03-31T07:24:52.162Z</time></trkpt><trkpt lat="41.412045" lon="0.7671"><ele>522.0</ele><time>2026-03-31T07:24:53.162Z</time></trkpt><trkpt lat="41.4118783" lon="0.767175"><ele>522.6666666666666</ele><time>2026-03-31T07:24:54.163Z</time></trkpt><trkpt lat="41.4117133" lon="0.7672467"><ele>523.3333333333333</ele><time>2026-03-31T07:24:55.162Z</time></trkpt><trkpt lat="41.411555" lon="0.7673083"><ele>524.0</ele><time>2026-03-31T07:24:56.163Z</time></trkpt><trkpt lat="41.411395" lon="0.7673433"><ele>524.3333333333333</ele><time>2026-03-31T07:24:57.162Z</time></trkpt><trkpt lat="41.41122" lon="0.76734"><ele>524.6666666666666</ele><time>2026-03-31T07:24:58.162Z</time></trkpt><trkpt lat="41.4110583" lon="0.7672917"><ele>525.0</ele><time>2026-03-31T07:24:59.163Z</time></trkpt><trkpt lat="41.4109067" lon="0.7672167"><ele>525.0</ele><time>2026-03-31T07:25:00.163Z</time></trkpt><trkpt lat="41.41076" lon="0.7671567"><ele>525.0</ele><time>2026-03-31T07:25:01.162Z</time></trkpt><trkpt lat="41.4106133" lon="0.7671483"><ele>525.0</ele><time>2026-03-31T07:25:02.162Z</time></trkpt><trkpt lat="41.4104717" lon="0.7671933"><ele>525.0</ele><time>2026-03-31T07:25:03.162Z</time></trkpt><trkpt lat="41.4103383" lon="0.76729"><ele>526.0</ele><time>2026-03-31T07:25:04.163Z</time></trkpt><trkpt lat="41.4102267" lon="0.767425"><ele>527.0</ele><time>2026-03-31T07:25:05.163Z</time></trkpt><trkpt lat="41.410125" lon="0.76758"><ele>528.0</ele><time>2026-03-31T07:25:06.163Z</time></trkpt><trkpt lat="41.4100167" lon="0.7677367"><ele>528.0</ele><time>2026-03-31T07:25:07.162Z</time></trkpt><trkpt lat="41.4098917" lon="0.7678783"><ele>528.0</ele><time>2026-03-31T07:25:08.162Z</time></trkpt><trkpt lat="41.4097433" lon="0.7679883"><ele>528.0</ele><time>2026-03-31T07:25:09.162Z</time></trkpt><trkpt lat="41.4095833" lon="0.7680883"><ele>529.0</ele><time>2026-03-31T07:25:10.163Z</time></trkpt><trkpt lat="41.4094083" lon="0.768175"><ele>530.0</ele><time>2026-03-31T07:25:11.163Z</time></trkpt><trkpt lat="41.4092317" lon="0.768255"><ele>531.0</ele><time>2026-03-31T07:25:12.163Z</time></trkpt><trkpt lat="41.409055" lon="0.7683233"><ele>531.0</ele><time>2026-03-31T07:25:13.162Z</time></trkpt><trkpt lat="41.4088667" lon="0.7683917"><ele>531.0</ele><time>2026-03-31T07:25:14.163Z</time></trkpt><trkpt lat="41.4086883" lon="0.7684633"><ele>531.0</ele><time>2026-03-31T07:25:15.163Z</time></trkpt><trkpt lat="41.40851" lon="0.7685383"><ele>530.0</ele><time>2026-03-31T07:25:16.163Z</time></trkpt><trkpt lat="41.4083333" lon="0.7686067"><ele>529.0</ele><time>2026-03-31T07:25:17.163Z</time></trkpt><trkpt lat="41.4081567" lon="0.76867"><ele>528.0</ele><time>2026-03-31T07:25:18.162Z</time></trkpt><trkpt lat="41.4079817" lon="0.768735"><ele>528.0</ele><time>2026-03-31T07:25:19.163Z</time></trkpt><trkpt lat="41.407805" lon="0.7687867"><ele>528.0</ele><time>2026-03-31T07:25:20.163Z</time></trkpt><trkpt lat="41.40763" lon="0.7688233"><ele>528.0</ele><time>2026-03-31T07:25:21.162Z</time></trkpt><trkpt lat="41.4074467" lon="0.768835"><ele>528.0</ele><time>2026-03-31T07:25:22.162Z</time></trkpt><trkpt lat="41.4072567" lon="0.76884"><ele>528.0</ele><time>2026-03-31T07:25:23.162Z</time></trkpt><trkpt lat="41.40707" lon="0.7688383"><ele>528.0</ele><time>2026-03-31T07:25:24.162Z</time></trkpt><trkpt lat="41.4068883" lon="0.7688383"><ele>528.0</ele><time>2026-03-31T07:25:25.162Z</time></trkpt><trkpt lat="41.40672" lon="0.768835"><ele>528.0</ele><time>2026-03-31T07:25:26.163Z</time></trkpt><trkpt lat="41.4065667" lon="0.76881"><ele>528.0</ele><time>2026-03-31T07:25:27.162Z</time></trkpt><trkpt lat="41.4064183" lon="0.768755"><ele>526.6666666666666</ele><time>2026-03-31T07:25:28.162Z</time></trkpt><trkpt lat="41.4062833" lon="0.7686667"><ele>525.3333333333333</ele><time>2026-03-31T07:25:29.162Z</time></trkpt><trkpt lat="41.4061433" lon="0.76856"><ele>524.0</ele><time>2026-03-31T07:25:30.163Z</time></trkpt><trkpt lat="41.4060033" lon="0.7684567"><ele>526.75</ele><time>2026-03-31T07:25:31.163Z</time></trkpt><trkpt lat="41.4058583" lon="0.7683683"><ele>529.5</ele><time>2026-03-31T07:25:32.163Z</time></trkpt><trkpt lat="41.405725" lon="0.76829"><ele>532.25</ele><time>2026-03-31T07:25:33.163Z</time></trkpt><trkpt lat="41.4056" lon="0.768225"><ele>535.0</ele><time>2026-03-31T07:25:34.162Z</time></trkpt><trkpt lat="41.405475" lon="0.76819"><ele>536.0</ele><time>2026-03-31T07:25:35.162Z</time></trkpt><trkpt lat="41.4053667" lon="0.7681917"><ele>537.0</ele><time>2026-03-31T07:25:36.162Z</time></trkpt><trkpt lat="41.40526" lon="0.7682417"><ele>538.0</ele><time>2026-03-31T07:25:37.162Z</time></trkpt><trkpt lat="41.4051783" lon="0.7683433"><ele>539.0</ele><time>2026-03-31T07:25:38.163Z</time></trkpt><trkpt lat="41.4051183" lon="0.7684883"><ele>536.5</ele><time>2026-03-31T07:25:39.163Z</time></trkpt><trkpt lat="41.4050683" lon="0.768655"><ele>534.0</ele><time>2026-03-31T07:25:40.162Z</time></trkpt><trkpt lat="41.4050117" lon="0.7688"><ele>531.5</ele><time>2026-03-31T07:25:41.162Z</time></trkpt><trkpt lat="41.4049233" lon="0.768895"><ele>529.0</ele><time>2026-03-31T07:25:42.162Z</time></trkpt><trkpt lat="41.4047967" lon="0.76895"><ele>532.0</ele><time>2026-03-31T07:25:43.162Z</time></trkpt><trkpt lat="41.40465" lon="0.7689833"><ele>535.0</ele><time>2026-03-31T07:25:44.163Z</time></trkpt><trkpt lat="41.4045067" lon="0.7689983"><ele>538.0</ele><time>2026-03-31T07:25:45.163Z</time></trkpt><trkpt lat="41.404375" lon="0.7690217"><ele>541.0</ele><time>2026-03-31T07:25:46.162Z</time></trkpt><trkpt lat="41.40425" lon="0.769085"><ele>541.0</ele><time>2026-03-31T07:25:47.163Z</time></trkpt><trkpt lat="41.404145" lon="0.7691917"><ele>541.0</ele><time>2026-03-31T07:25:48.163Z</time></trkpt><trkpt lat="41.40404" lon="0.7693183"><ele>541.0</ele><time>2026-03-31T07:25:49.162Z</time></trkpt><trkpt lat="41.40393" lon="0.7694267"><ele>541.0</ele><time>2026-03-31T07:25:50.163Z</time></trkpt><trkpt lat="41.403795" lon="0.7694883"><ele>539.3333333333334</ele><time>2026-03-31T07:25:51.162Z</time></trkpt><trkpt lat="41.40364" lon="0.769525"><ele>537.6666666666666</ele><time>2026-03-31T07:25:52.163Z</time></trkpt><trkpt lat="41.4034917" lon="0.769555"><ele>536.0</ele><time>2026-03-31T07:25:53.162Z</time></trkpt><trkpt lat="41.4033533" lon="0.7696017"><ele>536.0</ele><time>2026-03-31T07:25:54.163Z</time></trkpt><trkpt lat="41.4032417" lon="0.7696933"><ele>536.0</ele><time>2026-03-31T07:25:55.162Z</time></trkpt><trkpt lat="41.4031417" lon="0.7698233"><ele>536.0</ele><time>2026-03-31T07:25:56.163Z</time></trkpt><trkpt lat="41.4030483" lon="0.769955"><ele>536.0</ele><time>2026-03-31T07:25:57.163Z</time></trkpt><trkpt lat="41.4029417" lon="0.770065"><ele>534.3333333333333</ele><time>2026-03-31T07:25:58.163Z</time></trkpt><trkpt lat="41.4028017" lon="0.7701583"><ele>532.6666666666666</ele><time>2026-03-31T07:25:59.163Z</time></trkpt><trkpt lat="41.4026483" lon="0.7702383"><ele>531.0</ele><time>2026-03-31T07:26:00.162Z</time></trkpt><trkpt lat="41.4024933" lon="0.7703283"><ele>531.0</ele><time>2026-03-31T07:26:01.162Z</time></trkpt><trkpt lat="41.4023333" lon="0.7704117"><ele>531.0</ele><time>2026-03-31T07:26:02.162Z</time></trkpt><trkpt lat="41.4021683" lon="0.7705017"><ele>531.0</ele><time>2026-03-31T07:26:03.162Z</time></trkpt><trkpt lat="41.402" lon="0.770585"><ele>534.0</ele><time>2026-03-31T07:26:04.163Z</time></trkpt><trkpt lat="41.401825" lon="0.7706667"><ele>537.0</ele><time>2026-03-31T07:26:05.163Z</time></trkpt><trkpt lat="41.401655" lon="0.77076"><ele>540.0</ele><time>2026-03-31T07:26:06.163Z</time></trkpt><trkpt lat="41.401485" lon="0.7708583"><ele>539.0</ele><time>2026-03-31T07:26:07.163Z</time></trkpt><trkpt lat="41.401325" lon="0.7709533"><ele>538.0</ele><time>2026-03-31T07:26:08.162Z</time></trkpt><trkpt lat="41.40118" lon="0.77105"><ele>537.0</ele><time>2026-03-31T07:26:09.163Z</time></trkpt><trkpt lat="41.4010483" lon="0.7711617"><ele>537.0</ele><time>2026-03-31T07:26:10.162Z</time></trkpt><trkpt lat="41.40093" lon="0.77131"><ele>537.0</ele><time>2026-03-31T07:26:11.162Z</time></trkpt><trkpt lat="41.4008267" lon="0.7714817"><ele>537.0</ele><time>2026-03-31T07:26:12.162Z</time></trkpt><trkpt lat="41.4007217" lon="0.7716517"><ele>537.0</ele><time>2026-03-31T07:26:13.162Z</time></trkpt><trkpt lat="41.4006167" lon="0.77179"><ele>537.0</ele><time>2026-03-31T07:26:14.162Z</time></trkpt><trkpt lat="41.4004933" lon="0.7719083"><ele>537.0</ele><time>2026-03-31T07:26:15.163Z</time></trkpt><trkpt lat="41.40035" lon="0.77201"><ele>536.3333333333334</ele><time>2026-03-31T07:26:16.162Z</time></trkpt><trkpt lat="41.4002133" lon="0.7720967"><ele>535.6666666666667</ele><time>2026-03-31T07:26:17.162Z</time></trkpt><trkpt lat="41.4000733" lon="0.7721633"><ele>535.0</ele><time>2026-03-31T07:26:18.163Z</time></trkpt><trkpt lat="41.3999183" lon="0.7721917"><ele>535.0</ele><time>2026-03-31T07:26:19.163Z</time></trkpt><trkpt lat="41.3997483" lon="0.7722017"><ele>535.0</ele><time>2026-03-31T07:26:20.162Z</time></trkpt><trkpt lat="41.3995683" lon="0.7722133"><ele>535.0</ele><time>2026-03-31T07:26:21.163Z</time></trkpt><trkpt lat="41.3993933" lon="0.7722433"><ele>535.3333333333334</ele><time>2026-03-31T07:26:22.163Z</time></trkpt><trkpt lat="41.3992233" lon="0.7722517"><ele>535.6666666666666</ele><time>2026-03-31T07:26:23.162Z</time></trkpt><trkpt lat="41.3990617" lon="0.7722567"><ele>536.0</ele><time>2026-03-31T07:26:24.163Z</time></trkpt><trkpt lat="41.3989133" lon="0.77225"><ele>537.5</ele><time>2026-03-31T07:26:25.162Z</time></trkpt><trkpt lat="41.3987817" lon="0.7722567"><ele>539.0</ele><time>2026-03-31T07:26:26.163Z</time></trkpt><trkpt lat="41.3986633" lon="0.7722967"><ele>540.5</ele><time>2026-03-31T07:26:27.162Z</time></trkpt><trkpt lat="41.398555" lon="0.7723767"><ele>542.0</ele><time>2026-03-31T07:26:28.162Z</time></trkpt><trkpt lat="41.3984583" lon="0.77249"><ele>542.0</ele><time>2026-03-31T07:26:29.163Z</time></trkpt><trkpt lat="41.3983667" lon="0.7726283"><ele>542.0</ele><time>2026-03-31T07:26:30.162Z</time></trkpt><trkpt lat="41.39828" lon="0.7727717"><ele>542.0</ele><time>2026-03-31T07:26:31.162Z</time></trkpt><trkpt lat="41.3982167" lon="0.7729533"><ele>542.0</ele><time>2026-03-31T07:26:32.162Z</time></trkpt><trkpt lat="41.3981833" lon="0.773155"><ele>541.0</ele><time>2026-03-31T07:26:33.162Z</time></trkpt><trkpt lat="41.3981567" lon="0.7733517"><ele>540.0</ele><time>2026-03-31T07:26:34.162Z</time></trkpt><trkpt lat="41.3981133" lon="0.773525"><ele>539.0</ele><time>2026-03-31T07:26:35.163Z</time></trkpt><trkpt lat="41.398045" lon="0.7736633"><ele>538.0</ele><time>2026-03-31T07:26:36.163Z</time></trkpt><trkpt lat="41.39796" lon="0.7737633"><ele>537.75</ele><time>2026-03-31T07:26:37.163Z</time></trkpt><trkpt lat="41.39785" lon="0.7738167"><ele>537.5</ele><time>2026-03-31T07:26:38.162Z</time></trkpt><trkpt lat="41.397725" lon="0.7738217"><ele>537.25</ele><time>2026-03-31T07:26:39.162Z</time></trkpt><trkpt lat="41.3975883" lon="0.7738183"><ele>537.0</ele><time>2026-03-31T07:26:40.162Z</time></trkpt><trkpt lat="41.3974467" lon="0.77382"><ele>537.0</ele><time>2026-03-31T07:26:41.162Z</time></trkpt><trkpt lat="41.3973017" lon="0.7738183"><ele>537.0</ele><time>2026-03-31T07:26:42.162Z</time></trkpt><trkpt lat="41.39716" lon="0.7738433"><ele>537.0</ele><time>2026-03-31T07:26:43.163Z</time></trkpt><trkpt lat="41.3970283" lon="0.773915"><ele>537.0</ele><time>2026-03-31T07:26:44.162Z</time></trkpt><trkpt lat="41.3969067" lon="0.7740317"><ele>538.0</ele><time>2026-03-31T07:26:45.163Z</time></trkpt><trkpt lat="41.3967883" lon="0.7741767"><ele>539.0</ele><time>2026-03-31T07:26:46.163Z</time></trkpt><trkpt lat="41.3966917" lon="0.7743417"><ele>540.0</ele><time>2026-03-31T07:26:47.163Z</time></trkpt><trkpt lat="41.3965967" lon="0.7745067"><ele>540.0</ele><time>2026-03-31T07:26:48.162Z</time></trkpt><trkpt lat="41.3964917" lon="0.77466"><ele>540.0</ele><time>2026-03-31T07:26:49.163Z</time></trkpt><trkpt lat="41.3963733" lon="0.774805"><ele>540.0</ele><time>2026-03-31T07:26:50.162Z</time></trkpt><trkpt lat="41.39624" lon="0.7749367"><ele>542.0</ele><time>2026-03-31T07:26:51.163Z</time></trkpt><trkpt lat="41.3961017" lon="0.7750633"><ele>544.0</ele><time>2026-03-31T07:26:52.162Z</time></trkpt><trkpt lat="41.3959683" lon="0.7751833"><ele>546.0</ele><time>2026-03-31T07:26:53.163Z</time></trkpt><trkpt lat="41.3958317" lon="0.7752933"><ele>546.0</ele><time>2026-03-31T07:26:54.163Z</time></trkpt><trkpt lat="41.3957" lon="0.7753867"><ele>546.0</ele><time>2026-03-31T07:26:55.163Z</time></trkpt><trkpt lat="41.3955583" lon="0.7754433"><ele>546.0</ele><time>2026-03-31T07:26:56.162Z</time></trkpt><trkpt lat="41.3954067" lon="0.775485"><ele>546.75</ele><time>2026-03-31T07:26:57.162Z</time></trkpt><trkpt lat="41.3952567" lon="0.7755"><ele>547.5</ele><time>2026-03-31T07:26:58.162Z</time></trkpt><trkpt lat="41.3951067" lon="0.7755033"><ele>548.25</ele><time>2026-03-31T07:26:59.162Z</time></trkpt><trkpt lat="41.3949683" lon="0.775515"><ele>549.0</ele><time>2026-03-31T07:27:00.162Z</time></trkpt><trkpt lat="41.3948483" lon="0.77554"><ele>549.0</ele><time>2026-03-31T07:27:01.163Z</time></trkpt><trkpt lat="41.3947433" lon="0.77561"><ele>549.0</ele><time>2026-03-31T07:27:02.162Z</time></trkpt><trkpt lat="41.39467" lon="0.7757183"><ele>549.0</ele><time>2026-03-31T07:27:03.163Z</time></trkpt><trkpt lat="41.3946217" lon="0.77586"><ele>549.0</ele><time>2026-03-31T07:27:04.163Z</time></trkpt><trkpt lat="41.3946117" lon="0.7760217"><ele>548.75</ele><time>2026-03-31T07:27:05.163Z</time></trkpt><trkpt lat="41.3946217" lon="0.7761933"><ele>548.5</ele><time>2026-03-31T07:27:06.163Z</time></trkpt><trkpt lat="41.394605" lon="0.77638"><ele>548.25</ele><time>2026-03-31T07:27:07.162Z</time></trkpt><trkpt lat="41.3945433" lon="0.7765433"><ele>548.0</ele><time>2026-03-31T07:27:08.162Z</time></trkpt><trkpt lat="41.39445" lon="0.7766667"><ele>548.0</ele><time>2026-03-31T07:27:09.162Z</time></trkpt><trkpt lat="41.3943317" lon="0.776755"><ele>548.0</ele><time>2026-03-31T07:27:10.163Z</time></trkpt><trkpt lat="41.3942033" lon="0.7768017"><ele>548.0</ele><time>2026-03-31T07:27:11.163Z</time></trkpt><trkpt lat="41.39408" lon="0.77684"><ele>548.0</ele><time>2026-03-31T07:27:12.162Z</time></trkpt><trkpt lat="41.39397" lon="0.7769283"><ele>548.5</ele><time>2026-03-31T07:27:13.162Z</time></trkpt><trkpt lat="41.393875" lon="0.7770633"><ele>549.0</ele><time>2026-03-31T07:27:14.162Z</time></trkpt><trkpt lat="41.3937833" lon="0.77721"><ele>549.5</ele><time>2026-03-31T07:27:15.162Z</time></trkpt><trkpt lat="41.3936767" lon="0.77736"><ele>550.0</ele><time>2026-03-31T07:27:16.162Z</time></trkpt><trkpt lat="41.39356" lon="0.7775017"><ele>550.0</ele><time>2026-03-31T07:27:17.162Z</time></trkpt><trkpt lat="41.393435" lon="0.7776367"><ele>550.0</ele><time>2026-03-31T07:27:18.162Z</time></trkpt><trkpt lat="41.393305" lon="0.7777683"><ele>550.0</ele><time>2026-03-31T07:27:19.162Z</time></trkpt><trkpt lat="41.39318" lon="0.7778933"><ele>551.6666666666667</ele><time>2026-03-31T07:27:20.162Z</time></trkpt><trkpt lat="41.3930567" lon="0.778015"><ele>553.3333333333334</ele><time>2026-03-31T07:27:21.162Z</time></trkpt><trkpt lat="41.392935" lon="0.778145"><ele>555.0</ele><time>2026-03-31T07:27:22.163Z</time></trkpt><trkpt lat="41.3928333" lon="0.7782933"><ele>555.0</ele><time>2026-03-31T07:27:23.162Z</time></trkpt><trkpt lat="41.39274" lon="0.778465"><ele>555.0</ele><time>2026-03-31T07:27:24.163Z</time></trkpt><trkpt lat="41.3926533" lon="0.778645"><ele>555.0</ele><time>2026-03-31T07:27:25.163Z</time></trkpt><trkpt lat="41.392565" lon="0.7788383"><ele>556.6666666666666</ele><time>2026-03-31T07:27:26.162Z</time></trkpt><trkpt lat="41.3924817" lon="0.77903"><ele>558.3333333333333</ele><time>2026-03-31T07:27:27.162Z</time></trkpt><trkpt lat="41.39241" lon="0.7792267"><ele>560.0</ele><time>2026-03-31T07:27:28.162Z</time></trkpt><trkpt lat="41.392345" lon="0.7794217"><ele>560.6666666666666</ele><time>2026-03-31T07:27:29.163Z</time></trkpt><trkpt lat="41.392285" lon="0.7796133"><ele>561.3333333333334</ele><time>2026-03-31T07:27:30.162Z</time></trkpt><trkpt lat="41.3922167" lon="0.7798017"><ele>562.0</ele><time>2026-03-31T07:27:31.163Z</time></trkpt><trkpt lat="41.3921267" lon="0.7799717"><ele>562.0</ele><time>2026-03-31T07:27:32.163Z</time></trkpt><trkpt lat="41.392005" lon="0.7801333"><ele>562.0</ele><time>2026-03-31T07:27:33.163Z</time></trkpt><trkpt lat="41.3918783" lon="0.7802883"><ele>562.0</ele><time>2026-03-31T07:27:34.163Z</time></trkpt><trkpt lat="41.3917533" lon="0.78046"><ele>563.6666666666667</ele><time>2026-03-31T07:27:35.163Z</time></trkpt><trkpt lat="41.3916283" lon="0.78063"><ele>565.3333333333334</ele><time>2026-03-31T07:27:36.162Z</time></trkpt><trkpt lat="41.3915117" lon="0.7808067"><ele>567.0</ele><time>2026-03-31T07:27:37.162Z</time></trkpt><trkpt lat="41.3914" lon="0.78098"><ele>567.3333333333334</ele><time>2026-03-31T07:27:38.163Z</time></trkpt><trkpt lat="41.39128" lon="0.781145"><ele>567.6666666666667</ele><time>2026-03-31T07:27:39.163Z</time></trkpt><trkpt lat="41.3911533" lon="0.7812917"><ele>568.0</ele><time>2026-03-31T07:27:40.162Z</time></trkpt><trkpt lat="41.3910283" lon="0.7814267"><ele>568.0</ele><time>2026-03-31T07:27:41.162Z</time></trkpt><trkpt lat="41.3909017" lon="0.781555"><ele>568.0</ele><time>2026-03-31T07:27:42.163Z</time></trkpt><trkpt lat="41.3907783" lon="0.7816683"><ele>568.0</ele><time>2026-03-31T07:27:43.162Z</time></trkpt><trkpt lat="41.39066" lon="0.7817633"><ele>568.0</ele><time>2026-03-31T07:27:44.163Z</time></trkpt><trkpt lat="41.3905367" lon="0.781845"><ele>568.25</ele><time>2026-03-31T07:27:45.162Z</time></trkpt><trkpt lat="41.3904083" lon="0.781925"><ele>568.5</ele><time>2026-03-31T07:27:46.162Z</time></trkpt><trkpt lat="41.390285" lon="0.7820217"><ele>568.75</ele><time>2026-03-31T07:27:47.163Z</time></trkpt><trkpt lat="41.390165" lon="0.78213"><ele>569.0</ele><time>2026-03-31T07:27:48.162Z</time></trkpt><trkpt lat="41.390045" lon="0.7822333"><ele>569.0</ele><time>2026-03-31T07:27:49.162Z</time></trkpt><trkpt lat="41.3899417" lon="0.782315"><ele>569.0</ele><time>2026-03-31T07:27:50.163Z</time></trkpt><trkpt lat="41.3898433" lon="0.782365"><ele>569.0</ele><time>2026-03-31T07:27:51.163Z</time></trkpt><trkpt lat="41.38974" lon="0.7823733"><ele>569.0</ele><time>2026-03-31T07:27:52.163Z</time></trkpt><trkpt lat="41.3896483" lon="0.78233"><ele>569.0</ele><time>2026-03-31T07:27:53.162Z</time></trkpt><trkpt lat="41.38957" lon="0.7822417"><ele>569.2</ele><time>2026-03-31T07:27:54.163Z</time></trkpt><trkpt lat="41.389525" lon="0.7821217"><ele>569.4</ele><time>2026-03-31T07:27:55.162Z</time></trkpt><trkpt lat="41.3895217" lon="0.7819833"><ele>569.6</ele><time>2026-03-31T07:27:56.162Z</time></trkpt><trkpt lat="41.3895317" lon="0.781835"><ele>569.8</ele><time>2026-03-31T07:27:57.162Z</time></trkpt><trkpt lat="41.3895217" lon="0.7816817"><ele>570.0</ele><time>2026-03-31T07:27:58.163Z</time></trkpt><trkpt lat="41.3894817" lon="0.7815317"><ele>570.0</ele><time>2026-03-31T07:27:59.162Z</time></trkpt><trkpt lat="41.3894033" lon="0.7813917"><ele>570.0</ele><time>2026-03-31T07:28:00.162Z</time></trkpt><trkpt lat="41.3893133" lon="0.7812517"><ele>570.0</ele><time>2026-03-31T07:28:01.163Z</time></trkpt><trkpt lat="41.3892217" lon="0.781125"><ele>570.0</ele><time>2026-03-31T07:28:02.162Z</time></trkpt><trkpt lat="41.389135" lon="0.7809867"><ele>570.75</ele><time>2026-03-31T07:28:03.163Z</time></trkpt><trkpt lat="41.3890517" lon="0.7808383"><ele>571.5</ele><time>2026-03-31T07:28:04.162Z</time></trkpt><trkpt lat="41.3889717" lon="0.7806917"><ele>572.25</ele><time>2026-03-31T07:28:05.163Z</time></trkpt><trkpt lat="41.388895" lon="0.780545"><ele>573.0</ele><time>2026-03-31T07:28:06.163Z</time></trkpt><trkpt lat="41.3887967" lon="0.7804217"><ele>573.0</ele><time>2026-03-31T07:28:07.162Z</time></trkpt><trkpt lat="41.388685" lon="0.78032"><ele>573.0</ele><time>2026-03-31T07:28:08.162Z</time></trkpt><trkpt lat="41.388565" lon="0.7802267"><ele>573.0</ele><time>2026-03-31T07:28:09.163Z</time></trkpt><trkpt lat="41.3884467" lon="0.780115"><ele>573.0</ele><time>2026-03-31T07:28:10.163Z</time></trkpt><trkpt lat="41.3883333" lon="0.780005"><ele>573.0</ele><time>2026-03-31T07:28:11.162Z</time></trkpt><trkpt lat="41.3882333" lon="0.779895"><ele>573.0</ele><time>2026-03-31T07:28:12.162Z</time></trkpt><trkpt lat="41.3881483" lon="0.7797883"><ele>573.0</ele><time>2026-03-31T07:28:13.162Z</time></trkpt><trkpt lat="41.388085" lon="0.7797133"><ele>573.0</ele><time>2026-03-31T07:28:14.162Z</time></trkpt><trkpt lat="41.38802" lon="0.77968"><ele>573.0</ele><time>2026-03-31T07:28:15.163Z</time></trkpt><trkpt lat="41.3879467" lon="0.7796783"><ele>573.4</ele><time>2026-03-31T07:28:16.162Z</time></trkpt><trkpt lat="41.3878633" lon="0.7797317"><ele>573.8</ele><time>2026-03-31T07:28:17.162Z</time></trkpt><trkpt lat="41.387775" lon="0.7798183"><ele>574.2</ele><time>2026-03-31T07:28:18.162Z</time></trkpt><trkpt lat="41.3876883" lon="0.7799367"><ele>574.6</ele><time>2026-03-31T07:28:19.163Z</time></trkpt><trkpt lat="41.387605" lon="0.7800433"><ele>575.0</ele><time>2026-03-31T07:28:20.162Z</time></trkpt><trkpt lat="41.3875133" lon="0.780125"><ele>575.0</ele><time>2026-03-31T07:28:21.163Z</time></trkpt><trkpt lat="41.3874" lon="0.78016"><ele>575.0</ele><time>2026-03-31T07:28:22.163Z</time></trkpt><trkpt lat="41.3872733" lon="0.78016"><ele>575.0</ele><time>2026-03-31T07:28:23.162Z</time></trkpt><trkpt lat="41.3871533" lon="0.7801217"><ele>575.0</ele><time>2026-03-31T07:28:24.162Z</time></trkpt><trkpt lat="41.3870483" lon="0.7800667"><ele>574.25</ele><time>2026-03-31T07:28:25.162Z</time></trkpt><trkpt lat="41.3869367" lon="0.78001"><ele>573.5</ele><time>2026-03-31T07:28:26.162Z</time></trkpt><trkpt lat="41.3868183" lon="0.7799667"><ele>572.75</ele><time>2026-03-31T07:28:27.162Z</time></trkpt><trkpt lat="41.3867033" lon="0.7799367"><ele>572.0</ele><time>2026-03-31T07:28:28.163Z</time></trkpt><trkpt lat="41.386595" lon="0.7799233"><ele>572.0</ele><time>2026-03-31T07:28:29.162Z</time></trkpt><trkpt lat="41.3864933" lon="0.7799383"><ele>572.0</ele><time>2026-03-31T07:28:30.162Z</time></trkpt><trkpt lat="41.3864017" lon="0.779965"><ele>572.0</ele><time>2026-03-31T07:28:31.163Z</time></trkpt><trkpt lat="41.386315" lon="0.7800283"><ele>572.0</ele><time>2026-03-31T07:28:32.163Z</time></trkpt><trkpt lat="41.3862267" lon="0.780115"><ele>572.0</ele><time>2026-03-31T07:28:33.162Z</time></trkpt><trkpt lat="41.3861467" lon="0.7802133"><ele>571.0</ele><time>2026-03-31T07:28:34.162Z</time></trkpt><trkpt lat="41.3860583" lon="0.7803217"><ele>570.0</ele><time>2026-03-31T07:28:35.162Z</time></trkpt><trkpt lat="41.38596" lon="0.78042"><ele>569.0</ele><time>2026-03-31T07:28:36.162Z</time></trkpt><trkpt lat="41.3858617" lon="0.7805067"><ele>568.0</ele><time>2026-03-31T07:28:37.162Z</time></trkpt><trkpt lat="41.3857667" lon="0.78056"><ele>568.0</ele><time>2026-03-31T07:28:38.162Z</time></trkpt><trkpt lat="41.38566" lon="0.7805633"><ele>568.0</ele><time>2026-03-31T07:28:39.162Z</time></trkpt><trkpt lat="41.3855533" lon="0.7805283"><ele>568.0</ele><time>2026-03-31T07:28:40.163Z</time></trkpt><trkpt lat="41.3854417" lon="0.7804667"><ele>568.0</ele><time>2026-03-31T07:28:41.162Z</time></trkpt><trkpt lat="41.38533" lon="0.7803867"><ele>567.75</ele><time>2026-03-31T07:28:42.163Z</time></trkpt><trkpt lat="41.38523" lon="0.7802933"><ele>567.5</ele><time>2026-03-31T07:28:43.162Z</time></trkpt><trkpt lat="41.38515" lon="0.78017"><ele>567.25</ele><time>2026-03-31T07:28:44.163Z</time></trkpt><trkpt lat="41.3850833" lon="0.780025"><ele>567.0</ele><time>2026-03-31T07:28:45.163Z</time></trkpt><trkpt lat="41.385025" lon="0.7798517"><ele>570.0</ele><time>2026-03-31T07:28:46.163Z</time></trkpt><trkpt lat="41.3849733" lon="0.7796983"><ele>573.0</ele><time>2026-03-31T07:28:47.162Z</time></trkpt><trkpt lat="41.3849017" lon="0.7795817"><ele>576.0</ele><time>2026-03-31T07:28:48.162Z</time></trkpt><trkpt lat="41.384815" lon="0.7794867"><ele>579.0</ele><time>2026-03-31T07:28:49.163Z</time></trkpt><trkpt lat="41.3847017" lon="0.7794183"><ele>578.5</ele><time>2026-03-31T07:28:50.162Z</time></trkpt><trkpt lat="41.384585" lon="0.7794"><ele>578.0</ele><time>2026-03-31T07:28:51.163Z</time></trkpt><trkpt lat="41.3844617" lon="0.7794233"><ele>577.5</ele><time>2026-03-31T07:28:52.163Z</time></trkpt><trkpt lat="41.3843383" lon="0.7794733"><ele>577.0</ele><time>2026-03-31T07:28:53.163Z</time></trkpt><trkpt lat="41.3842067" lon="0.7795217"><ele>577.0</ele><time>2026-03-31T07:28:54.163Z</time></trkpt><trkpt lat="41.3840633" lon="0.77957"><ele>577.0</ele><time>2026-03-31T07:28:55.162Z</time></trkpt><trkpt lat="41.38393" lon="0.7796267"><ele>577.0</ele><time>2026-03-31T07:28:56.162Z</time></trkpt><trkpt lat="41.3837883" lon="0.779675"><ele>577.0</ele><time>2026-03-31T07:28:57.162Z</time></trkpt><trkpt lat="41.3836533" lon="0.7797233"><ele>579.25</ele><time>2026-03-31T07:28:58.162Z</time></trkpt><trkpt lat="41.3835117" lon="0.779765"><ele>581.5</ele><time>2026-03-31T07:28:59.163Z</time></trkpt><trkpt lat="41.3833667" lon="0.7797933"><ele>583.75</ele><time>2026-03-31T07:29:00.162Z</time></trkpt><trkpt lat="41.3832217" lon="0.779805"><ele>586.0</ele><time>2026-03-31T07:29:01.162Z</time></trkpt><trkpt lat="41.3830867" lon="0.77982"><ele>586.8</ele><time>2026-03-31T07:29:02.163Z</time></trkpt><trkpt lat="41.38296" lon="0.7798383"><ele>587.6</ele><time>2026-03-31T07:29:03.162Z</time></trkpt><trkpt lat="41.3828483" lon="0.7798567"><ele>588.4</ele><time>2026-03-31T07:29:04.162Z</time></trkpt><trkpt lat="41.3827617" lon="0.7798917"><ele>589.2</ele><time>2026-03-31T07:29:05.162Z</time></trkpt><trkpt lat="41.3827" lon="0.7799517"><ele>590.0</ele><time>2026-03-31T07:29:06.162Z</time></trkpt><trkpt lat="41.3826483" lon="0.780045"><ele>590.0</ele><time>2026-03-31T07:29:07.162Z</time></trkpt><trkpt lat="41.38261" lon="0.7801733"><ele>590.0</ele><time>2026-03-31T07:29:08.162Z</time></trkpt><trkpt lat="41.3825617" lon="0.7802933"><ele>590.0</ele><time>2026-03-31T07:29:09.162Z</time></trkpt><trkpt lat="41.3825017" lon="0.7804033"><ele>590.0</ele><time>2026-03-31T07:29:10.163Z</time></trkpt><trkpt lat="41.3824067" lon="0.7804917"><ele>590.0</ele><time>2026-03-31T07:29:11.163Z</time></trkpt><trkpt lat="41.3822933" lon="0.78055"><ele>592.0</ele><time>2026-03-31T07:29:12.163Z</time></trkpt><trkpt lat="41.3821733" lon="0.78059"><ele>594.0</ele><time>2026-03-31T07:29:13.163Z</time></trkpt><trkpt lat="41.38205" lon="0.7806467"><ele>596.0</ele><time>2026-03-31T07:29:14.163Z</time></trkpt><trkpt lat="41.38193" lon="0.7807267"><ele>598.0</ele><time>2026-03-31T07:29:15.162Z</time></trkpt><trkpt lat="41.3818133" lon="0.7808233"><ele>598.0</ele><time>2026-03-31T07:29:16.162Z</time></trkpt><trkpt lat="41.3817017" lon="0.7809233"><ele>598.0</ele><time>2026-03-31T07:29:17.162Z</time></trkpt><trkpt lat="41.3815867" lon="0.7810133"><ele>598.0</ele><time>2026-03-31T07:29:18.162Z</time></trkpt><trkpt lat="41.3814717" lon="0.781085"><ele>598.0</ele><time>2026-03-31T07:29:19.162Z</time></trkpt><trkpt lat="41.3813517" lon="0.7811283"><ele>600.6</ele><time>2026-03-31T07:29:20.162Z</time></trkpt><trkpt lat="41.3812267" lon="0.7811467"><ele>603.1999999999999</ele><time>2026-03-31T07:29:21.162Z</time></trkpt><trkpt lat="41.38112" lon="0.7811633"><ele>605.8</ele><time>2026-03-31T07:29:22.162Z</time></trkpt><trkpt lat="41.381025" lon="0.781175"><ele>608.4</ele><time>2026-03-31T07:29:23.162Z</time></trkpt><trkpt lat="41.3809417" lon="0.7812"><ele>611.0</ele><time>2026-03-31T07:29:24.163Z</time></trkpt><trkpt lat="41.3808733" lon="0.7812333"><ele>611.0000000000001</ele><time>2026-03-31T07:29:25.162Z</time></trkpt><trkpt lat="41.3808133" lon="0.7812817"><ele>611.0</ele><time>2026-03-31T07:29:26.162Z</time></trkpt><trkpt lat="41.380755" lon="0.7813283"><ele>611.0</ele><time>2026-03-31T07:29:27.162Z</time></trkpt><trkpt lat="41.3806983" lon="0.7813833"><ele>611.0</ele><time>2026-03-31T07:29:28.162Z</time></trkpt><trkpt lat="41.380645" lon="0.78143"><ele>611.0</ele><time>2026-03-31T07:29:29.162Z</time></trkpt><trkpt lat="41.3805867" lon="0.78147"><ele>611.0000000000001</ele><time>2026-03-31T07:29:30.162Z</time></trkpt><trkpt lat="41.38053" lon="0.7815167"><ele>611.0</ele><time>2026-03-31T07:29:31.163Z</time></trkpt><trkpt lat="41.3804683" lon="0.7815633"><ele>611.4</ele><time>2026-03-31T07:29:32.163Z</time></trkpt><trkpt lat="41.3804017" lon="0.7816217"><ele>611.8</ele><time>2026-03-31T07:29:33.163Z</time></trkpt><trkpt lat="41.3803317" lon="0.7817067"><ele>612.1999999999999</ele><time>2026-03-31T07:29:34.162Z</time></trkpt><trkpt lat="41.38027" lon="0.7818217"><ele>612.6</ele><time>2026-03-31T07:29:35.162Z</time></trkpt><trkpt lat="41.3802333" lon="0.7819667"><ele>613.0</ele><time>2026-03-31T07:29:36.162Z</time></trkpt><trkpt lat="41.3802033" lon="0.7821167"><ele>613.25</ele><time>2026-03-31T07:29:37.162Z</time></trkpt><trkpt lat="41.3801717" lon="0.7822683"><ele>613.5</ele><time>2026-03-31T07:29:38.162Z</time></trkpt><trkpt lat="41.38012" lon="0.78241"><ele>613.75</ele><time>2026-03-31T07:29:39.163Z</time></trkpt><trkpt lat="41.380045" lon="0.7825283"><ele>614.0</ele><time>2026-03-31T07:29:40.162Z</time></trkpt><trkpt lat="41.3799483" lon="0.7826467"><ele>613.75</ele><time>2026-03-31T07:29:41.162Z</time></trkpt><trkpt lat="41.379835" lon="0.7827633"><ele>613.5</ele><time>2026-03-31T07:29:42.162Z</time></trkpt><trkpt lat="41.3797167" lon="0.782875"><ele>613.25</ele><time>2026-03-31T07:29:43.162Z</time></trkpt><trkpt lat="41.379595" lon="0.7829817"><ele>613.0</ele><time>2026-03-31T07:29:44.163Z</time></trkpt><trkpt lat="41.3794617" lon="0.78309"><ele>613.0</ele><time>2026-03-31T07:29:45.162Z</time></trkpt><trkpt lat="41.3793267" lon="0.7831933"><ele>613.0</ele><time>2026-03-31T07:29:46.162Z</time></trkpt><trkpt lat="41.3791983" lon="0.7832867"><ele>613.0</ele><time>2026-03-31T07:29:47.162Z</time></trkpt><trkpt lat="41.3790833" lon="0.783365"><ele>613.0</ele><time>2026-03-31T07:29:48.162Z</time></trkpt><trkpt lat="41.3789683" lon="0.7834317"><ele>613.0</ele><time>2026-03-31T07:29:49.163Z</time></trkpt><trkpt lat="41.3788533" lon="0.7834583"><ele>613.0</ele><time>2026-03-31T07:29:50.162Z</time></trkpt><trkpt lat="41.3787333" lon="0.7834467"><ele>613.0</ele><time>2026-03-31T07:29:51.162Z</time></trkpt><trkpt lat="41.378615" lon="0.7834067"><ele>613.0</ele><time>2026-03-31T07:29:52.163Z</time></trkpt><trkpt lat="41.3785017" lon="0.7834033"><ele>613.5</ele><time>2026-03-31T07:29:53.163Z</time></trkpt><trkpt lat="41.378395" lon="0.7834433"><ele>614.0</ele><time>2026-03-31T07:29:54.162Z</time></trkpt><trkpt lat="41.37829" lon="0.7835133"><ele>614.5</ele><time>2026-03-31T07:29:55.162Z</time></trkpt><trkpt lat="41.378175" lon="0.783605"><ele>615.0</ele><time>2026-03-31T07:29:56.162Z</time></trkpt><trkpt lat="41.3780583" lon="0.7837083"><ele>614.5</ele><time>2026-03-31T07:29:57.163Z</time></trkpt><trkpt lat="41.3779367" lon="0.7838083"><ele>614.0</ele><time>2026-03-31T07:29:58.163Z</time></trkpt><trkpt lat="41.3778" lon="0.7838833"><ele>613.5</ele><time>2026-03-31T07:29:59.163Z</time></trkpt><trkpt lat="41.37766" lon="0.7839517"><ele>613.0</ele><time>2026-03-31T07:30:00.162Z</time></trkpt><trkpt lat="41.3775117" lon="0.784015"><ele>613.0</ele><time>2026-03-31T07:30:01.162Z</time></trkpt><trkpt lat="41.3773733" lon="0.784085"><ele>613.0</ele><time>2026-03-31T07:30:02.162Z</time></trkpt><trkpt lat="41.377245" lon="0.7841467"><ele>613.0</ele><time>2026-03-31T07:30:03.163Z</time></trkpt><trkpt lat="41.377115" lon="0.78418"><ele>613.0</ele><time>2026-03-31T07:30:04.163Z</time></trkpt><trkpt lat="41.37698" lon="0.7841767"><ele>611.75</ele><time>2026-03-31T07:30:05.163Z</time></trkpt><trkpt lat="41.376845" lon="0.7841433"><ele>610.5</ele><time>2026-03-31T07:30:06.162Z</time></trkpt><trkpt lat="41.37671" lon="0.7840967"><ele>609.25</ele><time>2026-03-31T07:30:07.162Z</time></trkpt><trkpt lat="41.3765883" lon="0.78403"><ele>608.0</ele><time>2026-03-31T07:30:08.162Z</time></trkpt><trkpt lat="41.3764717" lon="0.783945"><ele>608.0</ele><time>2026-03-31T07:30:09.162Z</time></trkpt><trkpt lat="41.3763633" lon="0.78384"><ele>608.0</ele><time>2026-03-31T07:30:10.163Z</time></trkpt><trkpt lat="41.3762817" lon="0.7837217"><ele>608.0</ele><time>2026-03-31T07:30:11.162Z</time></trkpt><trkpt lat="41.37622" lon="0.7835933"><ele>608.0</ele><time>2026-03-31T07:30:12.162Z</time></trkpt><trkpt lat="41.3762067" lon="0.7834433"><ele>607.5</ele><time>2026-03-31T07:30:13.162Z</time></trkpt><trkpt lat="41.376225" lon="0.7832867"><ele>607.0</ele><time>2026-03-31T07:30:14.162Z</time></trkpt><trkpt lat="41.3762717" lon="0.7831283"><ele>606.5</ele><time>2026-03-31T07:30:15.163Z</time></trkpt><trkpt lat="41.37633" lon="0.7829717"><ele>606.0</ele><time>2026-03-31T07:30:16.162Z</time></trkpt><trkpt lat="41.3763883" lon="0.7828283"><ele>604.5</ele><time>2026-03-31T07:30:17.163Z</time></trkpt><trkpt lat="41.376435" lon="0.7826717"><ele>603.0</ele><time>2026-03-31T07:30:18.162Z</time></trkpt><trkpt lat="41.3764633" lon="0.7825133"><ele>601.5</ele><time>2026-03-31T07:30:19.163Z</time></trkpt><trkpt lat="41.3764733" lon="0.7823533"><ele>600.0</ele><time>2026-03-31T07:30:20.162Z</time></trkpt><trkpt lat="41.37647" lon="0.7821867"><ele>600.0</ele><time>2026-03-31T07:30:21.162Z</time></trkpt><trkpt lat="41.37646" lon="0.78202"><ele>600.0</ele><time>2026-03-31T07:30:22.162Z</time></trkpt><trkpt lat="41.3764433" lon="0.7818567"><ele>600.0</ele><time>2026-03-31T07:30:23.163Z</time></trkpt><trkpt lat="41.3764383" lon="0.7817117"><ele>600.0</ele><time>2026-03-31T07:30:24.162Z</time></trkpt><trkpt lat="41.376455" lon="0.7815683"><ele>599.0</ele><time>2026-03-31T07:30:25.162Z</time></trkpt><trkpt lat="41.3764983" lon="0.7814217"><ele>598.0</ele><time>2026-03-31T07:30:26.162Z</time></trkpt><trkpt lat="41.3765567" lon="0.78128"><ele>597.0</ele><time>2026-03-31T07:30:27.163Z</time></trkpt><trkpt lat="41.37663" lon="0.7811433"><ele>596.0</ele><time>2026-03-31T07:30:28.163Z</time></trkpt><trkpt lat="41.3767117" lon="0.7810183"><ele>596.2</ele><time>2026-03-31T07:30:29.162Z</time></trkpt><trkpt lat="41.3767767" lon="0.7808833"><ele>596.4000000000001</ele><time>2026-03-31T07:30:30.162Z</time></trkpt><trkpt lat="41.3768283" lon="0.78076"><ele>596.6</ele><time>2026-03-31T07:30:31.162Z</time></trkpt><trkpt lat="41.376865" lon="0.7806233"><ele>596.8000000000001</ele><time>2026-03-31T07:30:32.162Z</time></trkpt><trkpt lat="41.3768767" lon="0.780475"><ele>597.0</ele><time>2026-03-31T07:30:33.162Z</time></trkpt><trkpt lat="41.37687" lon="0.7803267"><ele>596.0</ele><time>2026-03-31T07:30:34.162Z</time></trkpt><trkpt lat="41.376865" lon="0.7801667"><ele>595.0</ele><time>2026-03-31T07:30:35.162Z</time></trkpt><trkpt lat="41.3768633" lon="0.7800033"><ele>594.0</ele><time>2026-03-31T07:30:36.163Z</time></trkpt><trkpt lat="41.376865" lon="0.779845"><ele>593.0</ele><time>2026-03-31T07:30:37.163Z</time></trkpt><trkpt lat="41.37688" lon="0.7796967"><ele>593.0</ele><time>2026-03-31T07:30:38.162Z</time></trkpt><trkpt lat="41.37689" lon="0.7795667"><ele>593.0</ele><time>2026-03-31T07:30:39.163Z</time></trkpt><trkpt lat="41.3768833" lon="0.7794467"><ele>593.0</ele><time>2026-03-31T07:30:40.163Z</time></trkpt><trkpt lat="41.37685" lon="0.7793433"><ele>593.0</ele><time>2026-03-31T07:30:41.163Z</time></trkpt><trkpt lat="41.3767983" lon="0.7792417"><ele>593.0</ele><time>2026-03-31T07:30:42.162Z</time></trkpt><trkpt lat="41.3767283" lon="0.7791383"><ele>592.4</ele><time>2026-03-31T07:30:43.163Z</time></trkpt><trkpt lat="41.37665" lon="0.7790483"><ele>591.8</ele><time>2026-03-31T07:30:44.163Z</time></trkpt><trkpt lat="41.37656" lon="0.7789783"><ele>591.2</ele><time>2026-03-31T07:30:45.162Z</time></trkpt><trkpt lat="41.376465" lon="0.7789267"><ele>590.6</ele><time>2026-03-31T07:30:46.162Z</time></trkpt><trkpt lat="41.37637" lon="0.7788833"><ele>590.0</ele><time>2026-03-31T07:30:47.163Z</time></trkpt><trkpt lat="41.3762767" lon="0.778845"><ele>587.8</ele><time>2026-03-31T07:30:48.162Z</time></trkpt><trkpt lat="41.376195" lon="0.778775"><ele>585.6</ele><time>2026-03-31T07:30:49.163Z</time></trkpt><trkpt lat="41.3761233" lon="0.7786833"><ele>583.4</ele><time>2026-03-31T07:30:50.162Z</time></trkpt><trkpt lat="41.3760683" lon="0.77856"><ele>581.2</ele><time>2026-03-31T07:30:51.162Z</time></trkpt><trkpt lat="41.3760433" lon="0.7784233"><ele>579.0</ele><time>2026-03-31T07:30:52.162Z</time></trkpt><trkpt lat="41.3760467" lon="0.778285"><ele>578.2</ele><time>2026-03-31T07:30:53.162Z</time></trkpt><trkpt lat="41.3760767" lon="0.7781483"><ele>577.4</ele><time>2026-03-31T07:30:54.163Z</time></trkpt><trkpt lat="41.3761417" lon="0.77802"><ele>576.6</ele><time>2026-03-31T07:30:55.163Z</time></trkpt><trkpt lat="41.3762133" lon="0.7779133"><ele>575.8</ele><time>2026-03-31T07:30:56.162Z</time></trkpt><trkpt lat="41.3762617" lon="0.77782"><ele>575.0</ele><time>2026-03-31T07:30:57.162Z</time></trkpt><trkpt lat="41.3762783" lon="0.7777283"><ele>575.0</ele><time>2026-03-31T07:30:58.163Z</time></trkpt><trkpt lat="41.3762667" lon="0.777645"><ele>575.0</ele><time>2026-03-31T07:30:59.163Z</time></trkpt><trkpt lat="41.3761633" lon="0.7775867"><ele>575.0</ele><time>2026-03-31T07:31:01.163Z</time></trkpt><trkpt lat="41.3760933" lon="0.777615"><ele>575.0</ele><time>2026-03-31T07:31:02.162Z</time></trkpt><trkpt lat="41.37601" lon="0.7776883"><ele>575.0</ele><time>2026-03-31T07:31:03.163Z</time></trkpt><trkpt lat="41.3759167" lon="0.7777833"><ele>575.0</ele><time>2026-03-31T07:31:04.162Z</time></trkpt><trkpt lat="41.3758183" lon="0.7778833"><ele>575.0</ele><time>2026-03-31T07:31:05.163Z</time></trkpt><trkpt lat="41.37572" lon="0.77796"><ele>575.0</ele><time>2026-03-31T07:31:06.163Z</time></trkpt><trkpt lat="41.375625" lon="0.7780283"><ele>575.0</ele><time>2026-03-31T07:31:07.163Z</time></trkpt><trkpt lat="41.375535" lon="0.778095"><ele>575.0</ele><time>2026-03-31T07:31:08.162Z</time></trkpt><trkpt lat="41.3754533" lon="0.7781817"><ele>574.0</ele><time>2026-03-31T07:31:09.162Z</time></trkpt><trkpt lat="41.3753883" lon="0.7782867"><ele>573.0</ele><time>2026-03-31T07:31:10.162Z</time></trkpt><trkpt lat="41.37534" lon="0.778415"><ele>572.0</ele><time>2026-03-31T07:31:11.163Z</time></trkpt><trkpt lat="41.375305" lon="0.77855"><ele>571.0</ele><time>2026-03-31T07:31:12.163Z</time></trkpt><trkpt lat="41.3752967" lon="0.7787"><ele>570.0</ele><time>2026-03-31T07:31:13.163Z</time></trkpt><trkpt lat="41.3752917" lon="0.7788533"><ele>569.2</ele><time>2026-03-31T07:31:14.163Z</time></trkpt><trkpt lat="41.3752767" lon="0.7790083"><ele>568.4</ele><time>2026-03-31T07:31:15.162Z</time></trkpt><trkpt lat="41.3752517" lon="0.7791583"><ele>567.6</ele><time>2026-03-31T07:31:16.163Z</time></trkpt><trkpt lat="41.3752117" lon="0.7792917"><ele>566.8</ele><time>2026-03-31T07:31:17.163Z</time></trkpt><trkpt lat="41.3751533" lon="0.7794083"><ele>566.0</ele><time>2026-03-31T07:31:18.163Z</time></trkpt><trkpt lat="41.3750717" lon="0.779515"><ele>566.6</ele><time>2026-03-31T07:31:19.162Z</time></trkpt><trkpt lat="41.3749833" lon="0.7796083"><ele>567.2</ele><time>2026-03-31T07:31:20.163Z</time></trkpt><trkpt lat="41.3748817" lon="0.77969"><ele>567.8</ele><time>2026-03-31T07:31:21.162Z</time></trkpt><trkpt lat="41.3747817" lon="0.7797583"><ele>568.4</ele><time>2026-03-31T07:31:22.163Z</time></trkpt><trkpt lat="41.374685" lon="0.7798033"><ele>569.0</ele><time>2026-03-31T07:31:23.163Z</time></trkpt><trkpt lat="41.3745933" lon="0.77981"><ele>569.0</ele><time>2026-03-31T07:31:24.162Z</time></trkpt><trkpt lat="41.3744933" lon="0.779785"><ele>569.0</ele><time>2026-03-31T07:31:25.163Z</time></trkpt><trkpt lat="41.3743983" lon="0.7797267"><ele>569.0</ele><time>2026-03-31T07:31:26.162Z</time></trkpt><trkpt lat="41.3743183" lon="0.779635"><ele>569.0</ele><time>2026-03-31T07:31:27.163Z</time></trkpt><trkpt lat="41.3742483" lon="0.7795183"><ele>569.0</ele><time>2026-03-31T07:31:28.162Z</time></trkpt><trkpt lat="41.3741883" lon="0.779405"><ele>568.0</ele><time>2026-03-31T07:31:29.162Z</time></trkpt><trkpt lat="41.3741333" lon="0.779305"><ele>567.0</ele><time>2026-03-31T07:31:30.162Z</time></trkpt><trkpt lat="41.3740617" lon="0.7792333"><ele>566.0</ele><time>2026-03-31T07:31:31.162Z</time></trkpt><trkpt lat="41.3739717" lon="0.7792133"><ele>565.0</ele><time>2026-03-31T07:31:32.162Z</time></trkpt><trkpt lat="41.3738783" lon="0.7792317"><ele>564.0</ele><time>2026-03-31T07:31:33.162Z</time></trkpt><trkpt lat="41.3737733" lon="0.7792633"><ele>564.0</ele><time>2026-03-31T07:31:34.162Z</time></trkpt><trkpt lat="41.3736733" lon="0.7792567"><ele>564.0</ele><time>2026-03-31T07:31:35.162Z</time></trkpt><trkpt lat="41.3735967" lon="0.7792133"><ele>564.0</ele><time>2026-03-31T07:31:36.163Z</time></trkpt><trkpt lat="41.3735433" lon="0.77908"><ele>564.0</ele><time>2026-03-31T07:31:38.163Z</time></trkpt><trkpt lat="41.373465" lon="0.7789567"><ele>564.0</ele><time>2026-03-31T07:31:40.163Z</time></trkpt><trkpt lat="41.37341" lon="0.778885"><ele>564.0</ele><time>2026-03-31T07:31:41.162Z</time></trkpt><trkpt lat="41.3733667" lon="0.7787767"><ele>564.0</ele><time>2026-03-31T07:31:42.162Z</time></trkpt><trkpt lat="41.373335" lon="0.7786467"><ele>564.0</ele><time>2026-03-31T07:31:43.162Z</time></trkpt><trkpt lat="41.3732967" lon="0.7785067"><ele>564.0</ele><time>2026-03-31T07:31:44.163Z</time></trkpt><trkpt lat="41.3732533" lon="0.7783783"><ele>564.0</ele><time>2026-03-31T07:31:45.163Z</time></trkpt><trkpt lat="41.3731833" lon="0.77826"><ele>562.5</ele><time>2026-03-31T07:31:46.162Z</time></trkpt><trkpt lat="41.3731133" lon="0.77813"><ele>561.0</ele><time>2026-03-31T07:31:47.162Z</time></trkpt><trkpt lat="41.3730467" lon="0.7779983"><ele>559.5</ele><time>2026-03-31T07:31:48.162Z</time></trkpt><trkpt lat="41.3729717" lon="0.777875"><ele>558.0</ele><time>2026-03-31T07:31:49.163Z</time></trkpt><trkpt lat="41.3728867" lon="0.777765"><ele>557.5</ele><time>2026-03-31T07:31:50.162Z</time></trkpt><trkpt lat="41.3728017" lon="0.7776833"><ele>557.0</ele><time>2026-03-31T07:31:51.162Z</time></trkpt><trkpt lat="41.3726883" lon="0.7776233"><ele>556.5</ele><time>2026-03-31T07:31:52.163Z</time></trkpt><trkpt lat="41.3725583" lon="0.7775917"><ele>556.0</ele><time>2026-03-31T07:31:53.162Z</time></trkpt><trkpt lat="41.372425" lon="0.7775717"><ele>556.0</ele><time>2026-03-31T07:31:54.162Z</time></trkpt><trkpt lat="41.3722917" lon="0.7775633"><ele>556.0</ele><time>2026-03-31T07:31:55.163Z</time></trkpt><trkpt lat="41.3721733" lon="0.7775883"><ele>556.0</ele><time>2026-03-31T07:31:56.163Z</time></trkpt><trkpt lat="41.3720633" lon="0.7776633"><ele>556.0</ele><time>2026-03-31T07:31:57.163Z</time></trkpt><trkpt lat="41.37195" lon="0.7777783"><ele>557.25</ele><time>2026-03-31T07:31:58.162Z</time></trkpt><trkpt lat="41.3718483" lon="0.77791"><ele>558.5</ele><time>2026-03-31T07:31:59.162Z</time></trkpt><trkpt lat="41.3717583" lon="0.7780367"><ele>559.75</ele><time>2026-03-31T07:32:00.162Z</time></trkpt><trkpt lat="41.3716633" lon="0.7781467"><ele>561.0</ele><time>2026-03-31T07:32:01.162Z</time></trkpt><trkpt lat="41.3715717" lon="0.7782333"><ele>561.0</ele><time>2026-03-31T07:32:02.163Z</time></trkpt><trkpt lat="41.3714833" lon="0.7783033"><ele>561.0</ele><time>2026-03-31T07:32:03.163Z</time></trkpt><trkpt lat="41.3713983" lon="0.7783717"><ele>561.0</ele><time>2026-03-31T07:32:04.162Z</time></trkpt><trkpt lat="41.3713267" lon="0.77846"><ele>561.0</ele><time>2026-03-31T07:32:05.162Z</time></trkpt><trkpt lat="41.37127" lon="0.7785883"><ele>561.0</ele><time>2026-03-31T07:32:06.162Z</time></trkpt><trkpt lat="41.371225" lon="0.778735"><ele>560.25</ele><time>2026-03-31T07:32:07.162Z</time></trkpt><trkpt lat="41.3711817" lon="0.7789"><ele>559.5</ele><time>2026-03-31T07:32:08.162Z</time></trkpt><trkpt lat="41.3711433" lon="0.7790583"><ele>558.75</ele><time>2026-03-31T07:32:09.162Z</time></trkpt><trkpt lat="41.3711033" lon="0.779205"><ele>558.0</ele><time>2026-03-31T07:32:10.162Z</time></trkpt><trkpt lat="41.371045" lon="0.7793433"><ele>558.0</ele><time>2026-03-31T07:32:11.163Z</time></trkpt><trkpt lat="41.3709667" lon="0.7794417"><ele>558.0</ele><time>2026-03-31T07:32:12.162Z</time></trkpt><trkpt lat="41.3708683" lon="0.7794917"><ele>558.0</ele><time>2026-03-31T07:32:13.162Z</time></trkpt><trkpt lat="41.3707533" lon="0.7794833"><ele>558.0</ele><time>2026-03-31T07:32:14.162Z</time></trkpt><trkpt lat="41.37066" lon="0.77942"><ele>558.0</ele><time>2026-03-31T07:32:15.162Z</time></trkpt><trkpt lat="41.370595" lon="0.7793067"><ele>558.0</ele><time>2026-03-31T07:32:16.161Z</time></trkpt><trkpt lat="41.3705683" lon="0.7791633"><ele>558.0</ele><time>2026-03-31T07:32:17.163Z</time></trkpt><trkpt lat="41.3705683" lon="0.7789917"><ele>558.0</ele><time>2026-03-31T07:32:18.162Z</time></trkpt><trkpt lat="41.3705633" lon="0.7788233"><ele>558.0</ele><time>2026-03-31T07:32:19.162Z</time></trkpt><trkpt lat="41.3705533" lon="0.7786617"><ele>557.6</ele><time>2026-03-31T07:32:20.162Z</time></trkpt><trkpt lat="41.3705533" lon="0.7785017"><ele>557.1999999999999</ele><time>2026-03-31T07:32:21.162Z</time></trkpt><trkpt lat="41.370585" lon="0.77836"><ele>556.8</ele><time>2026-03-31T07:32:22.162Z</time></trkpt><trkpt lat="41.3706333" lon="0.7782383"><ele>556.4</ele><time>2026-03-31T07:32:23.163Z</time></trkpt><trkpt lat="41.3706983" lon="0.7781267"><ele>556.0</ele><time>2026-03-31T07:32:24.162Z</time></trkpt><trkpt lat="41.3707617" lon="0.77802"><ele>556.0</ele><time>2026-03-31T07:32:25.162Z</time></trkpt><trkpt lat="41.3707983" lon="0.777915"><ele>556.0</ele><time>2026-03-31T07:32:26.162Z</time></trkpt><trkpt lat="41.3708117" lon="0.7778233"><ele>556.0</ele><time>2026-03-31T07:32:27.162Z</time></trkpt><trkpt lat="41.37082" lon="0.777725"><ele>556.0</ele><time>2026-03-31T07:32:28.162Z</time></trkpt><trkpt lat="41.3708133" lon="0.7776283"><ele>556.0</ele><time>2026-03-31T07:32:29.163Z</time></trkpt><trkpt lat="41.3708" lon="0.77752"><ele>556.0</ele><time>2026-03-31T07:32:30.162Z</time></trkpt><trkpt lat="41.3707683" lon="0.7774"><ele>557.0</ele><time>2026-03-31T07:32:31.162Z</time></trkpt><trkpt lat="41.3707417" lon="0.7772767"><ele>558.0</ele><time>2026-03-31T07:32:32.162Z</time></trkpt><trkpt lat="41.3707333" lon="0.7771433"><ele>559.0</ele><time>2026-03-31T07:32:33.163Z</time></trkpt><trkpt lat="41.370755" lon="0.777005"><ele>560.0</ele><time>2026-03-31T07:32:34.163Z</time></trkpt><trkpt lat="41.3707867" lon="0.7768683"><ele>561.0</ele><time>2026-03-31T07:32:35.163Z</time></trkpt><trkpt lat="41.3708317" lon="0.7767233"><ele>563.0</ele><time>2026-03-31T07:32:36.162Z</time></trkpt><trkpt lat="41.370885" lon="0.776575"><ele>565.0</ele><time>2026-03-31T07:32:37.162Z</time></trkpt><trkpt lat="41.37094" lon="0.77643"><ele>567.0</ele><time>2026-03-31T07:32:38.162Z</time></trkpt><trkpt lat="41.3710033" lon="0.776295"><ele>569.0</ele><time>2026-03-31T07:32:39.162Z</time></trkpt><trkpt lat="41.3710817" lon="0.7761833"><ele>569.0</ele><time>2026-03-31T07:32:40.162Z</time></trkpt><trkpt lat="41.371165" lon="0.776085"><ele>569.0</ele><time>2026-03-31T07:32:41.163Z</time></trkpt><trkpt lat="41.37126" lon="0.7760017"><ele>569.0</ele><time>2026-03-31T07:32:42.162Z</time></trkpt><trkpt lat="41.37133" lon="0.7759317"><ele>569.0</ele><time>2026-03-31T07:32:43.162Z</time></trkpt><trkpt lat="41.37139" lon="0.7758483"><ele>569.0</ele><time>2026-03-31T07:32:44.162Z</time></trkpt><trkpt lat="41.3714317" lon="0.7757583"><ele>569.4</ele><time>2026-03-31T07:32:45.163Z</time></trkpt><trkpt lat="41.371465" lon="0.775675"><ele>569.8</ele><time>2026-03-31T07:32:46.162Z</time></trkpt><trkpt lat="41.3715" lon="0.7755533"><ele>570.2</ele><time>2026-03-31T07:32:48.162Z</time></trkpt><trkpt lat="41.37155" lon="0.7754433"><ele>570.6</ele><time>2026-03-31T07:32:51.162Z</time></trkpt><trkpt lat="41.3716017" lon="0.7753333"><ele>571.0</ele><time>2026-03-31T07:32:53.162Z</time></trkpt><trkpt lat="41.3716633" lon="0.7752333"><ele>571.4</ele><time>2026-03-31T07:32:55.162Z</time></trkpt><trkpt lat="41.3717583" lon="0.7751633"><ele>571.8</ele><time>2026-03-31T07:32:57.163Z</time></trkpt><trkpt lat="41.371815" lon="0.77512"><ele>572.1999999999999</ele><time>2026-03-31T07:32:58.163Z</time></trkpt><trkpt lat="41.3718867" lon="0.7750683"><ele>572.6</ele><time>2026-03-31T07:32:59.163Z</time></trkpt><trkpt lat="41.3719833" lon="0.77502"><ele>573.0</ele><time>2026-03-31T07:33:00.163Z</time></trkpt><trkpt lat="41.3720783" lon="0.7749583"><ele>573.0</ele><time>2026-03-31T07:33:01.162Z</time></trkpt><trkpt lat="41.3721783" lon="0.7749017"><ele>573.0</ele><time>2026-03-31T07:33:02.162Z</time></trkpt><trkpt lat="41.3722667" lon="0.7748467"><ele>573.0</ele><time>2026-03-31T07:33:03.162Z</time></trkpt><trkpt lat="41.3723467" lon="0.77479"><ele>573.0</ele><time>2026-03-31T07:33:04.163Z</time></trkpt><trkpt lat="41.3724217" lon="0.774735"><ele>573.0</ele><time>2026-03-31T07:33:05.163Z</time></trkpt><trkpt lat="41.3724933" lon="0.7746883"><ele>571.6</ele><time>2026-03-31T07:33:06.162Z</time></trkpt><trkpt lat="41.37256" lon="0.77464"><ele>570.1999999999999</ele><time>2026-03-31T07:33:07.163Z</time></trkpt><trkpt lat="41.3726217" lon="0.7745983"><ele>568.8</ele><time>2026-03-31T07:33:08.162Z</time></trkpt><trkpt lat="41.3727283" lon="0.77454"><ele>567.4</ele><time>2026-03-31T07:33:10.162Z</time></trkpt><trkpt lat="41.372815" lon="0.77449"><ele>566.0</ele><time>2026-03-31T07:33:12.162Z</time></trkpt><trkpt lat="41.3728967" lon="0.7744083"><ele>565.2</ele><time>2026-03-31T07:33:14.163Z</time></trkpt><trkpt lat="41.3729383" lon="0.7743383"><ele>564.4000000000001</ele><time>2026-03-31T07:33:15.163Z</time></trkpt><trkpt lat="41.3729567" lon="0.77425"><ele>563.6</ele><time>2026-03-31T07:33:16.162Z</time></trkpt><trkpt lat="41.3729833" lon="0.7741267"><ele>562.8000000000001</ele><time>2026-03-31T07:33:18.162Z</time></trkpt><trkpt lat="41.3730083" lon="0.77402"><ele>562.0</ele><time>2026-03-31T07:33:22.163Z</time></trkpt><trkpt lat="41.3729933" lon="0.7738283"><ele>562.0</ele><time>2026-03-31T07:33:24.163Z</time></trkpt><trkpt lat="41.372975" lon="0.773725"><ele>562.0</ele><time>2026-03-31T07:33:25.162Z</time></trkpt><trkpt lat="41.3729583" lon="0.77362"><ele>562.0</ele><time>2026-03-31T07:33:26.162Z</time></trkpt><trkpt lat="41.3729" lon="0.7735283"><ele>562.0</ele><time>2026-03-31T07:33:27.162Z</time></trkpt><trkpt lat="41.3728217" lon="0.7734733"><ele>562.0</ele><time>2026-03-31T07:33:28.162Z</time></trkpt><trkpt lat="41.3727317" lon="0.7734633"><ele>562.0</ele><time>2026-03-31T07:33:29.163Z</time></trkpt><trkpt lat="41.3726217" lon="0.7734933"><ele>562.0</ele><time>2026-03-31T07:33:30.162Z</time></trkpt><trkpt lat="41.3724917" lon="0.7735467"><ele>562.0</ele><time>2026-03-31T07:33:31.163Z</time></trkpt><trkpt lat="41.3723367" lon="0.77361"><ele>562.0</ele><time>2026-03-31T07:33:32.162Z</time></trkpt><trkpt lat="41.372185" lon="0.77369"><ele>561.0</ele><time>2026-03-31T07:33:33.162Z</time></trkpt><trkpt lat="41.3720433" lon="0.77376"><ele>560.0</ele><time>2026-03-31T07:33:34.162Z</time></trkpt><trkpt lat="41.3718933" lon="0.773815"><ele>559.0</ele><time>2026-03-31T07:33:35.163Z</time></trkpt><trkpt lat="41.3717517" lon="0.7738733"><ele>559.0</ele><time>2026-03-31T07:33:36.162Z</time></trkpt><trkpt lat="41.371595" lon="0.7739333"><ele>559.0</ele><time>2026-03-31T07:33:37.162Z</time></trkpt><trkpt lat="41.3714433" lon="0.7739917"><ele>559.0</ele><time>2026-03-31T07:33:38.163Z</time></trkpt><trkpt lat="41.3712967" lon="0.7740433"><ele>558.0</ele><time>2026-03-31T07:33:39.162Z</time></trkpt><trkpt lat="41.3711433" lon="0.77409"><ele>557.0</ele><time>2026-03-31T07:33:40.162Z</time></trkpt><trkpt lat="41.3709967" lon="0.7741667"><ele>556.0</ele><time>2026-03-31T07:33:41.163Z</time></trkpt><trkpt lat="41.370845" lon="0.7742217"><ele>556.0</ele><time>2026-03-31T07:33:42.162Z</time></trkpt><trkpt lat="41.3706883" lon="0.7742817"><ele>556.0</ele><time>2026-03-31T07:33:43.162Z</time></trkpt><trkpt lat="41.370545" lon="0.774335"><ele>556.0</ele><time>2026-03-31T07:33:44.162Z</time></trkpt><trkpt lat="41.3704267" lon="0.7743883"><ele>556.0</ele><time>2026-03-31T07:33:45.162Z</time></trkpt><trkpt lat="41.3703083" lon="0.7744617"><ele>559.25</ele><time>2026-03-31T07:33:46.162Z</time></trkpt><trkpt lat="41.3701883" lon="0.7745583"><ele>562.5</ele><time>2026-03-31T07:33:47.162Z</time></trkpt><trkpt lat="41.3700733" lon="0.77467"><ele>565.75</ele><time>2026-03-31T07:33:48.162Z</time></trkpt><trkpt lat="41.3699683" lon="0.7748"><ele>569.0</ele><time>2026-03-31T07:33:49.162Z</time></trkpt><trkpt lat="41.36987" lon="0.7749317"><ele>569.0</ele><time>2026-03-31T07:33:50.162Z</time></trkpt><trkpt lat="41.36977" lon="0.77506"><ele>569.0</ele><time>2026-03-31T07:33:51.162Z</time></trkpt><trkpt lat="41.3696583" lon="0.7751667"><ele>569.0</ele><time>2026-03-31T07:33:52.163Z</time></trkpt><trkpt lat="41.3695283" lon="0.7752483"><ele>569.0</ele><time>2026-03-31T07:33:53.162Z</time></trkpt><trkpt lat="41.3694" lon="0.7753133"><ele>570.0</ele><time>2026-03-31T07:33:54.162Z</time></trkpt><trkpt lat="41.369275" lon="0.7753783"><ele>571.0</ele><time>2026-03-31T07:33:55.162Z</time></trkpt><trkpt lat="41.3691333" lon="0.77543"><ele>572.0</ele><time>2026-03-31T07:33:56.163Z</time></trkpt><trkpt lat="41.36902" lon="0.77555"><ele>573.0</ele><time>2026-03-31T07:33:57.162Z</time></trkpt><trkpt lat="41.3689267" lon="0.7756983"><ele>570.6666666666666</ele><time>2026-03-31T07:33:58.162Z</time></trkpt><trkpt lat="41.368835" lon="0.7758667"><ele>568.3333333333333</ele><time>2026-03-31T07:33:59.163Z</time></trkpt><trkpt lat="41.3687467" lon="0.776045"><ele>566.0</ele><time>2026-03-31T07:34:00.162Z</time></trkpt><trkpt lat="41.3686517" lon="0.77621"><ele>566.0</ele><time>2026-03-31T07:34:01.163Z</time></trkpt><trkpt lat="41.3685533" lon="0.7763767"><ele>566.0</ele><time>2026-03-31T07:34:02.162Z</time></trkpt><trkpt lat="41.368435" lon="0.7765367"><ele>566.0</ele><time>2026-03-31T07:34:03.163Z</time></trkpt><trkpt lat="41.3683017" lon="0.77666"><ele>566.0</ele><time>2026-03-31T07:34:04.163Z</time></trkpt><trkpt lat="41.3681733" lon="0.7767567"><ele>566.0</ele><time>2026-03-31T07:34:05.163Z</time></trkpt><trkpt lat="41.3680467" lon="0.7768717"><ele>566.0</ele><time>2026-03-31T07:34:06.162Z</time></trkpt><trkpt lat="41.36793" lon="0.7770083"><ele>566.0</ele><time>2026-03-31T07:34:07.163Z</time></trkpt><trkpt lat="41.36782" lon="0.7771667"><ele>566.0</ele><time>2026-03-31T07:34:08.162Z</time></trkpt><trkpt lat="41.3677033" lon="0.7773233"><ele>566.0</ele><time>2026-03-31T07:34:09.163Z</time></trkpt><trkpt lat="41.3675917" lon="0.77749"><ele>566.0</ele><time>2026-03-31T07:34:10.162Z</time></trkpt><trkpt lat="41.3674867" lon="0.777665"><ele>566.0</ele><time>2026-03-31T07:34:11.162Z</time></trkpt><trkpt lat="41.3673833" lon="0.7778517"><ele>566.0</ele><time>2026-03-31T07:34:12.162Z</time></trkpt><trkpt lat="41.3672833" lon="0.7780367"><ele>566.0</ele><time>2026-03-31T07:34:13.162Z</time></trkpt><trkpt lat="41.3672" lon="0.7782383"><ele>566.0</ele><time>2026-03-31T07:34:14.163Z</time></trkpt><trkpt lat="41.3671133" lon="0.7784233"><ele>566.0</ele><time>2026-03-31T07:34:15.163Z</time></trkpt><trkpt lat="41.3670333" lon="0.7785967"><ele>570.5</ele><time>2026-03-31T07:34:16.163Z</time></trkpt><trkpt lat="41.3669567" lon="0.77876"><ele>575.0</ele><time>2026-03-31T07:34:17.163Z</time></trkpt><trkpt lat="41.3668883" lon="0.7789"><ele>579.5</ele><time>2026-03-31T07:34:18.162Z</time></trkpt><trkpt lat="41.3668183" lon="0.7790217"><ele>584.0</ele><time>2026-03-31T07:34:19.162Z</time></trkpt><trkpt lat="41.3667433" lon="0.7790933"><ele>584.0</ele><time>2026-03-31T07:34:20.162Z</time></trkpt><trkpt lat="41.36665" lon="0.77912"><ele>584.0</ele><time>2026-03-31T07:34:21.162Z</time></trkpt><trkpt lat="41.3665567" lon="0.779095"><ele>584.0</ele><time>2026-03-31T07:34:22.162Z</time></trkpt><trkpt lat="41.3664617" lon="0.7790233"><ele>584.0</ele><time>2026-03-31T07:34:23.163Z</time></trkpt><trkpt lat="41.3663717" lon="0.7789633"><ele>584.0</ele><time>2026-03-31T07:34:24.162Z</time></trkpt><trkpt lat="41.366275" lon="0.77895"><ele>582.0</ele><time>2026-03-31T07:34:25.162Z</time></trkpt><trkpt lat="41.3661817" lon="0.7789783"><ele>580.0</ele><time>2026-03-31T07:34:26.163Z</time></trkpt><trkpt lat="41.3660883" lon="0.779045"><ele>578.0</ele><time>2026-03-31T07:34:27.162Z</time></trkpt><trkpt lat="41.3660183" lon="0.7791683"><ele>576.0</ele><time>2026-03-31T07:34:28.162Z</time></trkpt><trkpt lat="41.3659267" lon="0.7792967"><ele>576.5</ele><time>2026-03-31T07:34:29.163Z</time></trkpt><trkpt lat="41.3658083" lon="0.779355"><ele>577.0</ele><time>2026-03-31T07:34:30.162Z</time></trkpt><trkpt lat="41.3656867" lon="0.7793533"><ele>577.5</ele><time>2026-03-31T07:34:31.163Z</time></trkpt><trkpt lat="41.36558" lon="0.7793567"><ele>578.0</ele><time>2026-03-31T07:34:32.162Z</time></trkpt><trkpt lat="41.36549" lon="0.779405"><ele>578.0</ele><time>2026-03-31T07:34:33.162Z</time></trkpt><trkpt lat="41.365425" lon="0.7794967"><ele>578.0</ele><time>2026-03-31T07:34:34.162Z</time></trkpt><trkpt lat="41.36539" lon="0.7796083"><ele>578.0</ele><time>2026-03-31T07:34:35.162Z</time></trkpt><trkpt lat="41.3653933" lon="0.7797633"><ele>578.0</ele><time>2026-03-31T07:34:36.162Z</time></trkpt><trkpt lat="41.3654167" lon="0.77993"><ele>578.0</ele><time>2026-03-31T07:34:37.162Z</time></trkpt><trkpt lat="41.3654183" lon="0.7800833"><ele>583.0</ele><time>2026-03-31T07:34:38.162Z</time></trkpt><trkpt lat="41.3653783" lon="0.7802167"><ele>588.0</ele><time>2026-03-31T07:34:39.162Z</time></trkpt><trkpt lat="41.3653067" lon="0.7803217"><ele>593.0</ele><time>2026-03-31T07:34:40.163Z</time></trkpt><trkpt lat="41.3652017" lon="0.7804017"><ele>598.0</ele><time>2026-03-31T07:34:41.162Z</time></trkpt><trkpt lat="41.3650933" lon="0.7804733"><ele>598.0</ele><time>2026-03-31T07:34:42.163Z</time></trkpt><trkpt lat="41.3649783" lon="0.7805533"><ele>598.0</ele><time>2026-03-31T07:34:43.162Z</time></trkpt><trkpt lat="41.36486" lon="0.780635"><ele>598.0</ele><time>2026-03-31T07:34:44.162Z</time></trkpt><trkpt lat="41.36474" lon="0.7807083"><ele>598.0</ele><time>2026-03-31T07:34:45.162Z</time></trkpt><trkpt lat="41.364625" lon="0.7808067"><ele>596.0</ele><time>2026-03-31T07:34:46.162Z</time></trkpt><trkpt lat="41.3645283" lon="0.780915"><ele>594.0</ele><time>2026-03-31T07:34:47.162Z</time></trkpt><trkpt lat="41.3644467" lon="0.781045"><ele>592.0</ele><time>2026-03-31T07:34:48.162Z</time></trkpt><trkpt lat="41.3643717" lon="0.7811567"><ele>590.0</ele><time>2026-03-31T07:34:49.162Z</time></trkpt><trkpt lat="41.3642883" lon="0.78122"><ele>589.6</ele><time>2026-03-31T07:34:50.163Z</time></trkpt><trkpt lat="41.3641883" lon="0.7812233"><ele>589.2</ele><time>2026-03-31T07:34:51.163Z</time></trkpt><trkpt lat="41.3640983" lon="0.78118"><ele>588.8</ele><time>2026-03-31T07:34:52.162Z</time></trkpt><trkpt lat="41.3640033" lon="0.7811183"><ele>588.4</ele><time>2026-03-31T07:34:53.162Z</time></trkpt><trkpt lat="41.3639117" lon="0.781055"><ele>588.0</ele><time>2026-03-31T07:34:54.162Z</time></trkpt><trkpt lat="41.3638267" lon="0.7810033"><ele>588.0</ele><time>2026-03-31T07:34:55.163Z</time></trkpt><trkpt lat="41.3637283" lon="0.7809717"><ele>588.0</ele><time>2026-03-31T07:34:56.162Z</time></trkpt><trkpt lat="41.36364" lon="0.7809967"><ele>588.0</ele><time>2026-03-31T07:34:57.162Z</time></trkpt><trkpt lat="41.3635533" lon="0.7810717"><ele>588.0</ele><time>2026-03-31T07:34:58.162Z</time></trkpt><trkpt lat="41.3634667" lon="0.78118"><ele>588.0</ele><time>2026-03-31T07:34:59.162Z</time></trkpt><trkpt lat="41.3633917" lon="0.7813117"><ele>591.0</ele><time>2026-03-31T07:35:00.163Z</time></trkpt><trkpt lat="41.36333" lon="0.7814633"><ele>594.0</ele><time>2026-03-31T07:35:01.163Z</time></trkpt><trkpt lat="41.363285" lon="0.781635"><ele>597.0</ele><time>2026-03-31T07:35:02.162Z</time></trkpt><trkpt lat="41.3632617" lon="0.7818167"><ele>600.0</ele><time>2026-03-31T07:35:03.163Z</time></trkpt><trkpt lat="41.3632517" lon="0.7819833"><ele>600.4</ele><time>2026-03-31T07:35:04.163Z</time></trkpt><trkpt lat="41.363245" lon="0.7821433"><ele>600.8</ele><time>2026-03-31T07:35:05.163Z</time></trkpt><trkpt lat="41.3632567" lon="0.782265"><ele>601.2</ele><time>2026-03-31T07:35:06.162Z</time></trkpt><trkpt lat="41.363295" lon="0.7823767"><ele>601.6</ele><time>2026-03-31T07:35:07.163Z</time></trkpt><trkpt lat="41.3633717" lon="0.78248"><ele>602.0</ele><time>2026-03-31T07:35:08.163Z</time></trkpt><trkpt lat="41.36345" lon="0.7825933"><ele>603.5</ele><time>2026-03-31T07:35:09.163Z</time></trkpt><trkpt lat="41.3635017" lon="0.7827233"><ele>605.0</ele><time>2026-03-31T07:35:10.162Z</time></trkpt><trkpt lat="41.3635117" lon="0.7828667"><ele>606.5</ele><time>2026-03-31T07:35:11.163Z</time></trkpt><trkpt lat="41.3634817" lon="0.7830117"><ele>608.0</ele><time>2026-03-31T07:35:12.162Z</time></trkpt><trkpt lat="41.3634383" lon="0.7831733"><ele>608.0</ele><time>2026-03-31T07:35:13.163Z</time></trkpt><trkpt lat="41.3633867" lon="0.7833483"><ele>608.0</ele><time>2026-03-31T07:35:14.162Z</time></trkpt><trkpt lat="41.3633317" lon="0.7835383"><ele>608.0</ele><time>2026-03-31T07:35:15.162Z</time></trkpt><trkpt lat="41.363275" lon="0.7837367"><ele>610.6666666666666</ele><time>2026-03-31T07:35:16.162Z</time></trkpt><trkpt lat="41.3632217" lon="0.7839233"><ele>613.3333333333334</ele><time>2026-03-31T07:35:17.162Z</time></trkpt><trkpt lat="41.36317" lon="0.784125"><ele>616.0</ele><time>2026-03-31T07:35:18.163Z</time></trkpt><trkpt lat="41.3631167" lon="0.784335"><ele>616.0</ele><time>2026-03-31T07:35:19.163Z</time></trkpt><trkpt lat="41.3630567" lon="0.78454"><ele>616.0</ele><time>2026-03-31T07:35:20.163Z</time></trkpt><trkpt lat="41.3629967" lon="0.7847517"><ele>616.0</ele><time>2026-03-31T07:35:21.163Z</time></trkpt><trkpt lat="41.36293" lon="0.7849633"><ele>616.0</ele><time>2026-03-31T07:35:22.162Z</time></trkpt><trkpt lat="41.36287" lon="0.7851783"><ele>616.0</ele><time>2026-03-31T07:35:23.163Z</time></trkpt><trkpt lat="41.3628117" lon="0.7853883"><ele>616.0</ele><time>2026-03-31T07:35:24.162Z</time></trkpt><trkpt lat="41.3627533" lon="0.7855983"><ele>619.0</ele><time>2026-03-31T07:35:25.163Z</time></trkpt><trkpt lat="41.3627" lon="0.785805"><ele>622.0</ele><time>2026-03-31T07:35:26.162Z</time></trkpt><trkpt lat="41.362635" lon="0.7860017"><ele>625.0</ele><time>2026-03-31T07:35:27.163Z</time></trkpt><trkpt lat="41.36254" lon="0.78618"><ele>626.6666666666667</ele><time>2026-03-31T07:35:28.162Z</time></trkpt><trkpt lat="41.3624467" lon="0.7863617"><ele>628.3333333333334</ele><time>2026-03-31T07:35:29.162Z</time></trkpt><trkpt lat="41.3623367" lon="0.7865517"><ele>630.0</ele><time>2026-03-31T07:35:30.163Z</time></trkpt><trkpt lat="41.36223" lon="0.7867483"><ele>630.3333333333334</ele><time>2026-03-31T07:35:31.162Z</time></trkpt><trkpt lat="41.362125" lon="0.7869517"><ele>630.6666666666667</ele><time>2026-03-31T07:35:32.163Z</time></trkpt><trkpt lat="41.3620117" lon="0.787155"><ele>631.0</ele><time>2026-03-31T07:35:33.163Z</time></trkpt><trkpt lat="41.3618967" lon="0.7873567"><ele>631.0</ele><time>2026-03-31T07:35:34.162Z</time></trkpt><trkpt lat="41.361785" lon="0.7875583"><ele>631.0</ele><time>2026-03-31T07:35:35.163Z</time></trkpt><trkpt lat="41.36168" lon="0.7877583"><ele>631.0</ele><time>2026-03-31T07:35:36.163Z</time></trkpt><trkpt lat="41.3615883" lon="0.7879633"><ele>631.3333333333334</ele><time>2026-03-31T07:35:37.162Z</time></trkpt><trkpt lat="41.3614983" lon="0.7881817"><ele>631.6666666666666</ele><time>2026-03-31T07:35:38.163Z</time></trkpt><trkpt lat="41.3614067" lon="0.7884167"><ele>632.0</ele><time>2026-03-31T07:35:39.162Z</time></trkpt><trkpt lat="41.36133" lon="0.78865"><ele>631.3333333333333</ele><time>2026-03-31T07:35:40.163Z</time></trkpt><trkpt lat="41.3612617" lon="0.788885"><ele>630.6666666666666</ele><time>2026-03-31T07:35:41.162Z</time></trkpt><trkpt lat="41.3611867" lon="0.7891183"><ele>630.0</ele><time>2026-03-31T07:35:42.163Z</time></trkpt><trkpt lat="41.3611133" lon="0.78935"><ele>630.0</ele><time>2026-03-31T07:35:43.162Z</time></trkpt><trkpt lat="41.361045" lon="0.7895733"><ele>630.0</ele><time>2026-03-31T07:35:44.162Z</time></trkpt><trkpt lat="41.3609883" lon="0.7897933"><ele>630.0</ele><time>2026-03-31T07:35:45.163Z</time></trkpt><trkpt lat="41.3609367" lon="0.7899933"><ele>631.0</ele><time>2026-03-31T07:35:46.163Z</time></trkpt><trkpt lat="41.360885" lon="0.790185"><ele>632.0</ele><time>2026-03-31T07:35:47.162Z</time></trkpt><trkpt lat="41.3608217" lon="0.7903633"><ele>633.0</ele><time>2026-03-31T07:35:48.163Z</time></trkpt><trkpt lat="41.3607333" lon="0.7905067"><ele>634.0</ele><time>2026-03-31T07:35:49.163Z</time></trkpt><trkpt lat="41.3606167" lon="0.7906217"><ele>633.6666666666667</ele><time>2026-03-31T07:35:50.162Z</time></trkpt><trkpt lat="41.3604817" lon="0.790695"><ele>633.3333333333334</ele><time>2026-03-31T07:35:51.162Z</time></trkpt><trkpt lat="41.36032" lon="0.7907517"><ele>633.0</ele><time>2026-03-31T07:35:52.162Z</time></trkpt><trkpt lat="41.3601617" lon="0.7908133"><ele>633.0</ele><time>2026-03-31T07:35:53.162Z</time></trkpt><trkpt lat="41.3600083" lon="0.7908833"><ele>633.0</ele><time>2026-03-31T07:35:54.163Z</time></trkpt><trkpt lat="41.3598583" lon="0.790955"><ele>633.0</ele><time>2026-03-31T07:35:55.163Z</time></trkpt><trkpt lat="41.3597" lon="0.7910317"><ele>636.3333333333334</ele><time>2026-03-31T07:35:56.162Z</time></trkpt><trkpt lat="41.3595467" lon="0.7911017"><ele>639.6666666666667</ele><time>2026-03-31T07:35:57.162Z</time></trkpt><trkpt lat="41.3593883" lon="0.7911667"><ele>643.0</ele><time>2026-03-31T07:35:58.162Z</time></trkpt><trkpt lat="41.3592217" lon="0.791225"><ele>643.0</ele><time>2026-03-31T07:35:59.162Z</time></trkpt><trkpt lat="41.35905" lon="0.79129"><ele>643.0</ele><time>2026-03-31T07:36:00.163Z</time></trkpt><trkpt lat="41.3588817" lon="0.7913633"><ele>643.0</ele><time>2026-03-31T07:36:01.162Z</time></trkpt><trkpt lat="41.3587133" lon="0.7914433"><ele>642.6666666666667</ele><time>2026-03-31T07:36:02.162Z</time></trkpt><trkpt lat="41.3585483" lon="0.791535"><ele>642.3333333333334</ele><time>2026-03-31T07:36:03.162Z</time></trkpt><trkpt lat="41.35838" lon="0.7916383"><ele>642.0</ele><time>2026-03-31T07:36:04.162Z</time></trkpt><trkpt lat="41.358225" lon="0.7917483"><ele>643.3333333333334</ele><time>2026-03-31T07:36:05.162Z</time></trkpt><trkpt lat="41.35806" lon="0.79186"><ele>644.6666666666667</ele><time>2026-03-31T07:36:06.162Z</time></trkpt><trkpt lat="41.3578967" lon="0.7919733"><ele>646.0</ele><time>2026-03-31T07:36:07.162Z</time></trkpt><trkpt lat="41.357735" lon="0.792085"><ele>647.0</ele><time>2026-03-31T07:36:08.162Z</time></trkpt><trkpt lat="41.3575733" lon="0.7921917"><ele>648.0</ele><time>2026-03-31T07:36:09.162Z</time></trkpt><trkpt lat="41.357405" lon="0.79232"><ele>649.0</ele><time>2026-03-31T07:36:10.163Z</time></trkpt><trkpt lat="41.357225" lon="0.79244"><ele>648.6666666666667</ele><time>2026-03-31T07:36:11.163Z</time></trkpt><trkpt lat="41.3570417" lon="0.792565"><ele>648.3333333333334</ele><time>2026-03-31T07:36:12.163Z</time></trkpt><trkpt lat="41.3568633" lon="0.792685"><ele>648.0</ele><time>2026-03-31T07:36:13.162Z</time></trkpt><trkpt lat="41.3566783" lon="0.7928117"><ele>649.3333333333334</ele><time>2026-03-31T07:36:14.162Z</time></trkpt><trkpt lat="41.356495" lon="0.79294"><ele>650.6666666666667</ele><time>2026-03-31T07:36:15.163Z</time></trkpt><trkpt lat="41.3563183" lon="0.7930667"><ele>652.0</ele><time>2026-03-31T07:36:16.163Z</time></trkpt><trkpt lat="41.356155" lon="0.79319"><ele>652.0</ele><time>2026-03-31T07:36:17.162Z</time></trkpt><trkpt lat="41.3559867" lon="0.79331"><ele>652.0</ele><time>2026-03-31T07:36:18.164Z</time></trkpt><trkpt lat="41.35581" lon="0.79343"><ele>652.0</ele><time>2026-03-31T07:36:19.163Z</time></trkpt><trkpt lat="41.3556283" lon="0.7935467"><ele>653.6666666666667</ele><time>2026-03-31T07:36:20.164Z</time></trkpt><trkpt lat="41.35545" lon="0.7936717"><ele>655.3333333333334</ele><time>2026-03-31T07:36:21.163Z</time></trkpt><trkpt lat="41.3552733" lon="0.7938017"><ele>657.0</ele><time>2026-03-31T07:36:22.163Z</time></trkpt><trkpt lat="41.3550883" lon="0.7939317"><ele>657.0</ele><time>2026-03-31T07:36:23.164Z</time></trkpt><trkpt lat="41.3549" lon="0.7940567"><ele>657.0</ele><time>2026-03-31T07:36:24.164Z</time></trkpt><trkpt lat="41.3547117" lon="0.7941767"><ele>657.0</ele><time>2026-03-31T07:36:25.164Z</time></trkpt><trkpt lat="41.354525" lon="0.7943033"><ele>655.3333333333334</ele><time>2026-03-31T07:36:26.163Z</time></trkpt><trkpt lat="41.3543433" lon="0.7944217"><ele>653.6666666666667</ele><time>2026-03-31T07:36:27.163Z</time></trkpt><trkpt lat="41.3541633" lon="0.79455"><ele>652.0</ele><time>2026-03-31T07:36:28.163Z</time></trkpt><trkpt lat="41.3539817" lon="0.79467"><ele>656.6666666666667</ele><time>2026-03-31T07:36:29.163Z</time></trkpt><trkpt lat="41.3537983" lon="0.7948017"><ele>661.3333333333334</ele><time>2026-03-31T07:36:30.164Z</time></trkpt><trkpt lat="41.35361" lon="0.7949317"><ele>666.0</ele><time>2026-03-31T07:36:31.164Z</time></trkpt><trkpt lat="41.3534283" lon="0.79506"><ele>667.6666666666666</ele><time>2026-03-31T07:36:32.163Z</time></trkpt><trkpt lat="41.35324" lon="0.79518"><ele>669.3333333333333</ele><time>2026-03-31T07:36:33.163Z</time></trkpt><trkpt lat="41.3530583" lon="0.7952967"><ele>671.0</ele><time>2026-03-31T07:36:34.163Z</time></trkpt><trkpt lat="41.352875" lon="0.7954267"><ele>671.0</ele><time>2026-03-31T07:36:35.164Z</time></trkpt><trkpt lat="41.3527033" lon="0.79555"><ele>671.0</ele><time>2026-03-31T07:36:36.164Z</time></trkpt><trkpt lat="41.3525217" lon="0.7956667"><ele>671.0</ele><time>2026-03-31T07:36:37.163Z</time></trkpt><trkpt lat="41.3523467" lon="0.7957933"><ele>671.6666666666666</ele><time>2026-03-31T07:36:38.163Z</time></trkpt><trkpt lat="41.3521717" lon="0.79593"><ele>672.3333333333334</ele><time>2026-03-31T07:36:39.163Z</time></trkpt><trkpt lat="41.3520117" lon="0.7960617"><ele>673.0</ele><time>2026-03-31T07:36:40.164Z</time></trkpt><trkpt lat="41.3518567" lon="0.796185"><ele>673.0</ele><time>2026-03-31T07:36:41.164Z</time></trkpt><trkpt lat="41.3517067" lon="0.7963117"><ele>673.0</ele><time>2026-03-31T07:36:42.163Z</time></trkpt><trkpt lat="41.35156" lon="0.7964483"><ele>673.0</ele><time>2026-03-31T07:36:43.164Z</time></trkpt><trkpt lat="41.35141" lon="0.7965817"><ele>672.6666666666667</ele><time>2026-03-31T07:36:44.163Z</time></trkpt><trkpt lat="41.3512633" lon="0.79672"><ele>672.3333333333334</ele><time>2026-03-31T07:36:45.163Z</time></trkpt><trkpt lat="41.3511233" lon="0.7968417"><ele>672.0</ele><time>2026-03-31T07:36:46.164Z</time></trkpt><trkpt lat="41.35098" lon="0.796945"><ele>671.6666666666666</ele><time>2026-03-31T07:36:47.163Z</time></trkpt><trkpt lat="41.35081" lon="0.7970183"><ele>671.3333333333333</ele><time>2026-03-31T07:36:48.163Z</time></trkpt><trkpt lat="41.35063" lon="0.7970667"><ele>671.0</ele><time>2026-03-31T07:36:49.163Z</time></trkpt><trkpt lat="41.35045" lon="0.7971"><ele>671.0</ele><time>2026-03-31T07:36:50.163Z</time></trkpt><trkpt lat="41.350265" lon="0.7971317"><ele>671.0</ele><time>2026-03-31T07:36:51.163Z</time></trkpt><trkpt lat="41.3500833" lon="0.7971767"><ele>671.0</ele><time>2026-03-31T07:36:52.163Z</time></trkpt><trkpt lat="41.3499017" lon="0.797225"><ele>671.0</ele><time>2026-03-31T07:36:53.163Z</time></trkpt><trkpt lat="41.34973" lon="0.797275"><ele>671.0</ele><time>2026-03-31T07:36:54.164Z</time></trkpt><trkpt lat="41.34955" lon="0.7973283"><ele>671.0</ele><time>2026-03-31T07:36:55.163Z</time></trkpt><trkpt lat="41.349385" lon="0.79737"><ele>671.0</ele><time>2026-03-31T07:36:56.163Z</time></trkpt><trkpt lat="41.3492217" lon="0.7973667"><ele>671.0</ele><time>2026-03-31T07:36:57.164Z</time></trkpt><trkpt lat="41.3490517" lon="0.797335"><ele>671.0</ele><time>2026-03-31T07:36:58.164Z</time></trkpt><trkpt lat="41.348875" lon="0.797295"><ele>672.6666666666666</ele><time>2026-03-31T07:36:59.163Z</time></trkpt><trkpt lat="41.3487" lon="0.797255"><ele>674.3333333333334</ele><time>2026-03-31T07:37:00.163Z</time></trkpt><trkpt lat="41.3485433" lon="0.7972283"><ele>676.0</ele><time>2026-03-31T07:37:01.163Z</time></trkpt><trkpt lat="41.348395" lon="0.797225"><ele>676.0</ele><time>2026-03-31T07:37:02.163Z</time></trkpt><trkpt lat="41.34826" lon="0.7972433"><ele>676.0</ele><time>2026-03-31T07:37:03.164Z</time></trkpt><trkpt lat="41.3481383" lon="0.7973267"><ele>676.0</ele><time>2026-03-31T07:37:04.163Z</time></trkpt><trkpt lat="41.3480333" lon="0.7974383"><ele>676.0</ele><time>2026-03-31T07:37:05.164Z</time></trkpt><trkpt lat="41.3479167" lon="0.7975583"><ele>677.0</ele><time>2026-03-31T07:37:06.163Z</time></trkpt><trkpt lat="41.3478017" lon="0.7976817"><ele>678.0</ele><time>2026-03-31T07:37:07.163Z</time></trkpt><trkpt lat="41.3476933" lon="0.7977933"><ele>679.0</ele><time>2026-03-31T07:37:08.164Z</time></trkpt><trkpt lat="41.3475933" lon="0.7978983"><ele>680.0</ele><time>2026-03-31T07:37:09.164Z</time></trkpt><trkpt lat="41.347495" lon="0.798"><ele>680.0</ele><time>2026-03-31T07:37:10.163Z</time></trkpt><trkpt lat="41.3474067" lon="0.7980983"><ele>680.0</ele><time>2026-03-31T07:37:11.163Z</time></trkpt><trkpt lat="41.347315" lon="0.7981933"><ele>680.0</ele><time>2026-03-31T07:37:12.163Z</time></trkpt><trkpt lat="41.3472167" lon="0.79829"><ele>680.0</ele><time>2026-03-31T07:37:13.164Z</time></trkpt><trkpt lat="41.3471183" lon="0.79838"><ele>680.6</ele><time>2026-03-31T07:37:14.164Z</time></trkpt><trkpt lat="41.34702" lon="0.7984717"><ele>681.2</ele><time>2026-03-31T07:37:15.164Z</time></trkpt><trkpt lat="41.3469317" lon="0.7985683"><ele>681.8</ele><time>2026-03-31T07:37:16.163Z</time></trkpt><trkpt lat="41.34685" lon="0.7986583"><ele>682.4</ele><time>2026-03-31T07:37:17.163Z</time></trkpt><trkpt lat="41.34677" lon="0.79875"><ele>683.0</ele><time>2026-03-31T07:37:18.164Z</time></trkpt><trkpt lat="41.346685" lon="0.7988367"><ele>684.0</ele><time>2026-03-31T07:37:19.164Z</time></trkpt><trkpt lat="41.3466" lon="0.7989167"><ele>685.0</ele><time>2026-03-31T07:37:20.163Z</time></trkpt><trkpt lat="41.34653" lon="0.7989867"><ele>686.0</ele><time>2026-03-31T07:37:21.164Z</time></trkpt><trkpt lat="41.34648" lon="0.7990567"><ele>687.0</ele><time>2026-03-31T07:37:22.163Z</time></trkpt><trkpt lat="41.3464533" lon="0.799135"><ele>688.0</ele><time>2026-03-31T07:37:23.163Z</time></trkpt><trkpt lat="41.346435" lon="0.7992183"><ele>689.0</ele><time>2026-03-31T07:37:24.164Z</time></trkpt><trkpt lat="41.3464033" lon="0.7993133"><ele>689.0</ele><time>2026-03-31T07:37:26.163Z</time></trkpt><trkpt lat="41.3464483" lon="0.79925"><ele>689.0</ele><time>2026-03-31T07:37:38.163Z</time></trkpt><trkpt lat="41.3464667" lon="0.7991633"><ele>689.0</ele><time>2026-03-31T07:37:39.164Z</time></trkpt><trkpt lat="41.346505" lon="0.7990583"><ele>689.0</ele><time>2026-03-31T07:37:40.163Z</time></trkpt><trkpt lat="41.346565" lon="0.7989567"><ele>689.0</ele><time>2026-03-31T07:37:41.163Z</time></trkpt><trkpt lat="41.3466483" lon="0.7988617"><ele>689.0</ele><time>2026-03-31T07:37:42.164Z</time></trkpt><trkpt lat="41.3467433" lon="0.7987817"><ele>689.0</ele><time>2026-03-31T07:37:43.163Z</time></trkpt><trkpt lat="41.3468333" lon="0.7987033"><ele>689.0</ele><time>2026-03-31T07:37:44.163Z</time></trkpt><trkpt lat="41.3469067" lon="0.7986283"><ele>689.0</ele><time>2026-03-31T07:37:45.163Z</time></trkpt><trkpt lat="41.34696" lon="0.7985617"><ele>689.0</ele><time>2026-03-31T07:37:46.163Z</time></trkpt><trkpt lat="41.3469933" lon="0.7984667"><ele>689.0</ele><time>2026-03-31T07:37:49.164Z</time></trkpt><trkpt lat="41.3469267" lon="0.79844"><ele>689.0</ele><time>2026-03-31T07:37:53.163Z</time></trkpt><trkpt lat="41.3469583" lon="0.7985267"><ele>689.0</ele><time>2026-03-31T07:39:48.163Z</time></trkpt><trkpt lat="41.3468933" lon="0.79862"><ele>689.0</ele><time>2026-03-31T07:39:50.164Z</time></trkpt><trkpt lat="41.346835" lon="0.79868"><ele>689.0</ele><time>2026-03-31T07:39:51.163Z</time></trkpt><trkpt lat="41.3467683" lon="0.798745"><ele>689.0</ele><time>2026-03-31T07:39:52.163Z</time></trkpt><trkpt lat="41.3466917" lon="0.79882"><ele>689.0</ele><time>2026-03-31T07:39:53.163Z</time></trkpt><trkpt lat="41.3466083" lon="0.7989017"><ele>689.0</ele><time>2026-03-31T07:39:54.164Z</time></trkpt><trkpt lat="41.3465233" lon="0.7989967"><ele>689.0</ele><time>2026-03-31T07:39:55.163Z</time></trkpt><trkpt lat="41.346465" lon="0.79912"><ele>689.0</ele><time>2026-03-31T07:39:56.163Z</time></trkpt><trkpt lat="41.3464267" lon="0.7992633"><ele>689.0</ele><time>2026-03-31T07:39:57.164Z</time></trkpt><trkpt lat="41.3464067" lon="0.7994367"><ele>690.0</ele><time>2026-03-31T07:39:58.163Z</time></trkpt><trkpt lat="41.3463917" lon="0.7996183"><ele>691.0</ele><time>2026-03-31T07:39:59.164Z</time></trkpt><trkpt lat="41.3463617" lon="0.7998117"><ele>692.0</ele><time>2026-03-31T07:40:00.163Z</time></trkpt><trkpt lat="41.3463333" lon="0.799995"><ele>693.0</ele><time>2026-03-31T07:40:01.164Z</time></trkpt><trkpt lat="41.3463017" lon="0.8001817"><ele>691.0</ele><time>2026-03-31T07:40:02.163Z</time></trkpt><trkpt lat="41.3462733" lon="0.8003733"><ele>689.0</ele><time>2026-03-31T07:40:03.163Z</time></trkpt><trkpt lat="41.3462467" lon="0.80056"><ele>687.0</ele><time>2026-03-31T07:40:04.164Z</time></trkpt><trkpt lat="41.3462133" lon="0.8007483"><ele>685.0</ele><time>2026-03-31T07:40:05.164Z</time></trkpt><trkpt lat="41.34616" lon="0.800915"><ele>686.5</ele><time>2026-03-31T07:40:06.164Z</time></trkpt><trkpt lat="41.3460867" lon="0.8010617"><ele>688.0</ele><time>2026-03-31T07:40:07.164Z</time></trkpt><trkpt lat="41.345985" lon="0.8011767"><ele>689.5</ele><time>2026-03-31T07:40:08.163Z</time></trkpt><trkpt lat="41.34586" lon="0.8012867"><ele>691.0</ele><time>2026-03-31T07:40:09.163Z</time></trkpt><trkpt lat="41.34573" lon="0.8013833"><ele>691.0</ele><time>2026-03-31T07:40:10.163Z</time></trkpt><trkpt lat="41.3455983" lon="0.80149"><ele>691.0</ele><time>2026-03-31T07:40:11.163Z</time></trkpt><trkpt lat="41.3454633" lon="0.8016117"><ele>691.0</ele><time>2026-03-31T07:40:12.164Z</time></trkpt><trkpt lat="41.3453233" lon="0.80174"><ele>689.3333333333334</ele><time>2026-03-31T07:40:13.163Z</time></trkpt><trkpt lat="41.345185" lon="0.801875"><ele>687.6666666666666</ele><time>2026-03-31T07:40:14.163Z</time></trkpt><trkpt lat="41.3450417" lon="0.802015"><ele>686.0</ele><time>2026-03-31T07:40:15.164Z</time></trkpt><trkpt lat="41.344895" lon="0.8021667"><ele>686.0</ele><time>2026-03-31T07:40:16.163Z</time></trkpt><trkpt lat="41.3447383" lon="0.8023117"><ele>686.0</ele><time>2026-03-31T07:40:17.163Z</time></trkpt><trkpt lat="41.3445883" lon="0.80246"><ele>686.0</ele><time>2026-03-31T07:40:18.163Z</time></trkpt><trkpt lat="41.3444383" lon="0.802615"><ele>686.3333333333333</ele><time>2026-03-31T07:40:19.164Z</time></trkpt><trkpt lat="41.3442817" lon="0.802765"><ele>686.6666666666666</ele><time>2026-03-31T07:40:20.164Z</time></trkpt><trkpt lat="41.344135" lon="0.80291"><ele>687.0</ele><time>2026-03-31T07:40:21.163Z</time></trkpt><trkpt lat="41.3439933" lon="0.8030717"><ele>691.6666666666666</ele><time>2026-03-31T07:40:22.163Z</time></trkpt><trkpt lat="41.3438633" lon="0.80325"><ele>696.3333333333333</ele><time>2026-03-31T07:40:23.164Z</time></trkpt><trkpt lat="41.3437467" lon="0.80343"><ele>701.0</ele><time>2026-03-31T07:40:24.164Z</time></trkpt><trkpt lat="41.3436267" lon="0.803605"><ele>701.0</ele><time>2026-03-31T07:40:25.163Z</time></trkpt><trkpt lat="41.3435117" lon="0.8037733"><ele>701.0</ele><time>2026-03-31T07:40:26.163Z</time></trkpt><trkpt lat="41.343385" lon="0.80393"><ele>701.0</ele><time>2026-03-31T07:40:27.164Z</time></trkpt><trkpt lat="41.3432967" lon="0.80406"><ele>701.0</ele><time>2026-03-31T07:40:28.164Z</time></trkpt><trkpt lat="41.3431883" lon="0.8041867"><ele>701.0</ele><time>2026-03-31T07:40:29.164Z</time></trkpt><trkpt lat="41.3430683" lon="0.8042917"><ele>701.0</ele><time>2026-03-31T07:40:30.163Z</time></trkpt><trkpt lat="41.3429317" lon="0.8043833"><ele>701.0</ele><time>2026-03-31T07:40:31.163Z</time></trkpt><trkpt lat="41.3427883" lon="0.804455"><ele>700.6666666666666</ele><time>2026-03-31T07:40:32.163Z</time></trkpt><trkpt lat="41.3426367" lon="0.8045033"><ele>700.3333333333334</ele><time>2026-03-31T07:40:33.163Z</time></trkpt><trkpt lat="41.3424883" lon="0.8045183"><ele>700.0</ele><time>2026-03-31T07:40:34.163Z</time></trkpt><trkpt lat="41.3423333" lon="0.8045117"><ele>702.25</ele><time>2026-03-31T07:40:35.164Z</time></trkpt><trkpt lat="41.34219" lon="0.804545"><ele>704.5</ele><time>2026-03-31T07:40:36.164Z</time></trkpt><trkpt lat="41.34206" lon="0.8046033"><ele>706.75</ele><time>2026-03-31T07:40:37.164Z</time></trkpt><trkpt lat="41.34196" lon="0.804715"><ele>709.0</ele><time>2026-03-31T07:40:38.163Z</time></trkpt><trkpt lat="41.3418783" lon="0.804875"><ele>709.0</ele><time>2026-03-31T07:40:39.163Z</time></trkpt><trkpt lat="41.341825" lon="0.8050617"><ele>709.0</ele><time>2026-03-31T07:40:40.163Z</time></trkpt><trkpt lat="41.3418033" lon="0.8052583"><ele>709.0</ele><time>2026-03-31T07:40:41.163Z</time></trkpt><trkpt lat="41.3417917" lon="0.80545"><ele>709.0</ele><time>2026-03-31T07:40:42.164Z</time></trkpt><trkpt lat="41.3417667" lon="0.8056"><ele>708.8000000000001</ele><time>2026-03-31T07:40:43.164Z</time></trkpt><trkpt lat="41.34172" lon="0.8057133"><ele>708.6</ele><time>2026-03-31T07:40:44.163Z</time></trkpt><trkpt lat="41.3416417" lon="0.8057817"><ele>708.4</ele><time>2026-03-31T07:40:45.164Z</time></trkpt><trkpt lat="41.341555" lon="0.8058067"><ele>708.2</ele><time>2026-03-31T07:40:46.164Z</time></trkpt><trkpt lat="41.3414617" lon="0.805795"><ele>708.0</ele><time>2026-03-31T07:40:47.163Z</time></trkpt><trkpt lat="41.34136" lon="0.8057517"><ele>706.75</ele><time>2026-03-31T07:40:48.163Z</time></trkpt><trkpt lat="41.3412333" lon="0.8057117"><ele>705.5</ele><time>2026-03-31T07:40:49.163Z</time></trkpt><trkpt lat="41.34111" lon="0.8057117"><ele>704.25</ele><time>2026-03-31T07:40:50.163Z</time></trkpt><trkpt lat="41.3409717" lon="0.80576"><ele>703.0</ele><time>2026-03-31T07:40:51.164Z</time></trkpt><trkpt lat="41.340835" lon="0.8058233"><ele>703.0</ele><time>2026-03-31T07:40:52.163Z</time></trkpt><trkpt lat="41.3406883" lon="0.805885"><ele>703.0</ele><time>2026-03-31T07:40:53.164Z</time></trkpt><trkpt lat="41.3405417" lon="0.8059633"><ele>703.0</ele><time>2026-03-31T07:40:54.163Z</time></trkpt><trkpt lat="41.3404017" lon="0.8060567"><ele>702.6666666666667</ele><time>2026-03-31T07:40:55.163Z</time></trkpt><trkpt lat="41.3402583" lon="0.8061667"><ele>702.3333333333334</ele><time>2026-03-31T07:40:56.164Z</time></trkpt><trkpt lat="41.34012" lon="0.8062733"><ele>702.0</ele><time>2026-03-31T07:40:57.163Z</time></trkpt><trkpt lat="41.3399733" lon="0.8063667"><ele>702.0</ele><time>2026-03-31T07:40:58.163Z</time></trkpt><trkpt lat="41.33983" lon="0.8064267"><ele>702.0</ele><time>2026-03-31T07:40:59.164Z</time></trkpt><trkpt lat="41.3396967" lon="0.806475"><ele>702.0</ele><time>2026-03-31T07:41:00.163Z</time></trkpt><trkpt lat="41.3395717" lon="0.8065183"><ele>702.0</ele><time>2026-03-31T07:41:01.163Z</time></trkpt><trkpt lat="41.33947" lon="0.8065567"><ele>702.0</ele><time>2026-03-31T07:41:02.163Z</time></trkpt><trkpt lat="41.3393733" lon="0.8065983"><ele>702.0</ele><time>2026-03-31T07:41:03.163Z</time></trkpt><trkpt lat="41.339275" lon="0.8066667"><ele>702.0</ele><time>2026-03-31T07:41:04.164Z</time></trkpt><trkpt lat="41.3392" lon="0.8067683"><ele>702.0</ele><time>2026-03-31T07:41:05.164Z</time></trkpt><trkpt lat="41.3391317" lon="0.8069083"><ele>702.0</ele><time>2026-03-31T07:41:06.163Z</time></trkpt><trkpt lat="41.339065" lon="0.8070433"><ele>702.0</ele><time>2026-03-31T07:41:07.163Z</time></trkpt><trkpt lat="41.33898" lon="0.8071783"><ele>702.0</ele><time>2026-03-31T07:41:08.163Z</time></trkpt><trkpt lat="41.338875" lon="0.807295"><ele>702.0</ele><time>2026-03-31T07:41:09.163Z</time></trkpt><trkpt lat="41.3387617" lon="0.807395"><ele>702.0</ele><time>2026-03-31T07:41:10.164Z</time></trkpt><trkpt lat="41.3386267" lon="0.8074767"><ele>700.75</ele><time>2026-03-31T07:41:11.163Z</time></trkpt><trkpt lat="41.3384883" lon="0.8075567"><ele>699.5</ele><time>2026-03-31T07:41:12.164Z</time></trkpt><trkpt lat="41.3383617" lon="0.8076217"><ele>698.25</ele><time>2026-03-31T07:41:13.164Z</time></trkpt><trkpt lat="41.3382383" lon="0.8076933"><ele>697.0</ele><time>2026-03-31T07:41:14.164Z</time></trkpt><trkpt lat="41.33813" lon="0.8077367"><ele>698.6</ele><time>2026-03-31T07:41:15.163Z</time></trkpt><trkpt lat="41.3380217" lon="0.8077467"><ele>700.2</ele><time>2026-03-31T07:41:16.164Z</time></trkpt><trkpt lat="41.33792" lon="0.8077167"><ele>701.8</ele><time>2026-03-31T07:41:17.163Z</time></trkpt><trkpt lat="41.3378267" lon="0.807635"><ele>703.4</ele><time>2026-03-31T07:41:18.163Z</time></trkpt><trkpt lat="41.3377383" lon="0.8075367"><ele>705.0</ele><time>2026-03-31T07:41:19.163Z</time></trkpt><trkpt lat="41.3376367" lon="0.807445"><ele>705.0</ele><time>2026-03-31T07:41:20.164Z</time></trkpt><trkpt lat="41.3375267" lon="0.8073933"><ele>705.0</ele><time>2026-03-31T07:41:21.163Z</time></trkpt><trkpt lat="41.3374" lon="0.8073567"><ele>705.0</ele><time>2026-03-31T07:41:22.163Z</time></trkpt><trkpt lat="41.3372683" lon="0.8073367"><ele>705.0</ele><time>2026-03-31T07:41:23.164Z</time></trkpt><trkpt lat="41.337145" lon="0.8073433"><ele>705.25</ele><time>2026-03-31T07:41:24.163Z</time></trkpt><trkpt lat="41.3370267" lon="0.8073867"><ele>705.5</ele><time>2026-03-31T07:41:25.163Z</time></trkpt><trkpt lat="41.3369067" lon="0.8074633"><ele>705.75</ele><time>2026-03-31T07:41:26.163Z</time></trkpt><trkpt lat="41.336775" lon="0.80756"><ele>706.0</ele><time>2026-03-31T07:41:27.163Z</time></trkpt><trkpt lat="41.33665" lon="0.8076667"><ele>710.75</ele><time>2026-03-31T07:41:28.163Z</time></trkpt><trkpt lat="41.3365267" lon="0.8077717"><ele>715.5</ele><time>2026-03-31T07:41:29.163Z</time></trkpt><trkpt lat="41.3364133" lon="0.8078633"><ele>720.25</ele><time>2026-03-31T07:41:30.163Z</time></trkpt><trkpt lat="41.33629" lon="0.8079167"><ele>725.0</ele><time>2026-03-31T07:41:31.164Z</time></trkpt><trkpt lat="41.3361567" lon="0.8079217"><ele>725.25</ele><time>2026-03-31T07:41:32.164Z</time></trkpt><trkpt lat="41.3360167" lon="0.8078967"><ele>725.5</ele><time>2026-03-31T07:41:33.163Z</time></trkpt><trkpt lat="41.3358733" lon="0.8078667"><ele>725.75</ele><time>2026-03-31T07:41:34.163Z</time></trkpt><trkpt lat="41.3357267" lon="0.8078633"><ele>726.0</ele><time>2026-03-31T07:41:35.163Z</time></trkpt><trkpt lat="41.3355883" lon="0.80788"><ele>726.4</ele><time>2026-03-31T07:41:36.163Z</time></trkpt><trkpt lat="41.33547" lon="0.8078933"><ele>726.8</ele><time>2026-03-31T07:41:37.163Z</time></trkpt><trkpt lat="41.3353617" lon="0.807945"><ele>727.1999999999999</ele><time>2026-03-31T07:41:38.163Z</time></trkpt><trkpt lat="41.3352683" lon="0.8080167"><ele>727.5999999999999</ele><time>2026-03-31T07:41:39.164Z</time></trkpt><trkpt lat="41.3351917" lon="0.8080883"><ele>728.0</ele><time>2026-03-31T07:41:40.164Z</time></trkpt><trkpt lat="41.3350967" lon="0.808115"><ele>728.0</ele><time>2026-03-31T07:41:41.163Z</time></trkpt><trkpt lat="41.3350017" lon="0.808105"><ele>728.0</ele><time>2026-03-31T07:41:42.163Z</time></trkpt><trkpt lat="41.3349083" lon="0.8080417"><ele>728.0</ele><time>2026-03-31T07:41:43.163Z</time></trkpt><trkpt lat="41.33483" lon="0.807935"><ele>728.0</ele><time>2026-03-31T07:41:44.163Z</time></trkpt><trkpt lat="41.3347533" lon="0.8078467"><ele>728.0</ele><time>2026-03-31T07:41:45.164Z</time></trkpt><trkpt lat="41.3346783" lon="0.8077917"><ele>727.4</ele><time>2026-03-31T07:41:46.163Z</time></trkpt><trkpt lat="41.3346" lon="0.807785"><ele>726.8</ele><time>2026-03-31T07:41:47.163Z</time></trkpt><trkpt lat="41.33452" lon="0.80782"><ele>726.2</ele><time>2026-03-31T07:41:48.163Z</time></trkpt><trkpt lat="41.3344467" lon="0.8078983"><ele>725.6</ele><time>2026-03-31T07:41:49.164Z</time></trkpt><trkpt lat="41.3343667" lon="0.8079917"><ele>725.0</ele><time>2026-03-31T07:41:50.163Z</time></trkpt><trkpt lat="41.3342883" lon="0.8080817"><ele>725.0</ele><time>2026-03-31T07:41:51.163Z</time></trkpt><trkpt lat="41.334205" lon="0.80818"><ele>725.0</ele><time>2026-03-31T07:41:52.163Z</time></trkpt><trkpt lat="41.3341483" lon="0.8082917"><ele>725.0</ele><time>2026-03-31T07:41:53.164Z</time></trkpt><trkpt lat="41.3341133" lon="0.8084217"><ele>725.0</ele><time>2026-03-31T07:41:54.163Z</time></trkpt><trkpt lat="41.3341133" lon="0.8085783"><ele>725.0</ele><time>2026-03-31T07:41:55.163Z</time></trkpt><trkpt lat="41.334125" lon="0.8087567"><ele>724.75</ele><time>2026-03-31T07:41:56.163Z</time></trkpt><trkpt lat="41.3341567" lon="0.8089383"><ele>724.5</ele><time>2026-03-31T07:41:57.164Z</time></trkpt><trkpt lat="41.3341683" lon="0.80912"><ele>724.25</ele><time>2026-03-31T07:41:58.163Z</time></trkpt><trkpt lat="41.3341467" lon="0.8092967"><ele>724.0</ele><time>2026-03-31T07:41:59.164Z</time></trkpt><trkpt lat="41.3340917" lon="0.80944"><ele>724.0</ele><time>2026-03-31T07:42:00.163Z</time></trkpt><trkpt lat="41.3339967" lon="0.8095617"><ele>724.0</ele><time>2026-03-31T07:42:01.164Z</time></trkpt><trkpt lat="41.33387" lon="0.80967"><ele>724.0</ele><time>2026-03-31T07:42:02.164Z</time></trkpt><trkpt lat="41.3337483" lon="0.8097867"><ele>724.0</ele><time>2026-03-31T07:42:03.163Z</time></trkpt><trkpt lat="41.3336167" lon="0.8099033"><ele>726.3333333333334</ele><time>2026-03-31T07:42:04.163Z</time></trkpt><trkpt lat="41.3334917" lon="0.8100233"><ele>728.6666666666666</ele><time>2026-03-31T07:42:05.164Z</time></trkpt><trkpt lat="41.3333617" lon="0.8101483"><ele>731.0</ele><time>2026-03-31T07:42:06.164Z</time></trkpt><trkpt lat="41.3332483" lon="0.8102717"><ele>734.0</ele><time>2026-03-31T07:42:07.164Z</time></trkpt><trkpt lat="41.33312" lon="0.8103933"><ele>737.0</ele><time>2026-03-31T07:42:08.163Z</time></trkpt><trkpt lat="41.3329933" lon="0.8105017"><ele>740.0</ele><time>2026-03-31T07:42:09.163Z</time></trkpt><trkpt lat="41.3328667" lon="0.8105883"><ele>741.75</ele><time>2026-03-31T07:42:10.163Z</time></trkpt><trkpt lat="41.33273" lon="0.8106467"><ele>743.5</ele><time>2026-03-31T07:42:11.164Z</time></trkpt><trkpt lat="41.33258" lon="0.8106883"><ele>745.25</ele><time>2026-03-31T07:42:12.163Z</time></trkpt><trkpt lat="41.332445" lon="0.810685"><ele>747.0</ele><time>2026-03-31T07:42:13.163Z</time></trkpt><trkpt lat="41.33232" lon="0.8106433"><ele>747.6</ele><time>2026-03-31T07:42:14.163Z</time></trkpt><trkpt lat="41.3322083" lon="0.81056"><ele>748.2</ele><time>2026-03-31T07:42:15.163Z</time></trkpt><trkpt lat="41.3321167" lon="0.8104783"><ele>748.8</ele><time>2026-03-31T07:42:16.163Z</time></trkpt><trkpt lat="41.3320267" lon="0.81044"><ele>749.4</ele><time>2026-03-31T07:42:17.163Z</time></trkpt><trkpt lat="41.3319367" lon="0.8104483"><ele>750.0</ele><time>2026-03-31T07:42:18.163Z</time></trkpt><trkpt lat="41.33184" lon="0.8104867"><ele>750.0</ele><time>2026-03-31T07:42:19.164Z</time></trkpt><trkpt lat="41.3317317" lon="0.8105533"><ele>750.0</ele><time>2026-03-31T07:42:20.163Z</time></trkpt><trkpt lat="41.33161" lon="0.8106267"><ele>750.0</ele><time>2026-03-31T07:42:21.164Z</time></trkpt><trkpt lat="41.3314833" lon="0.8106883"><ele>750.0</ele><time>2026-03-31T07:42:22.163Z</time></trkpt><trkpt lat="41.3313517" lon="0.8107467"><ele>750.5</ele><time>2026-03-31T07:42:23.164Z</time></trkpt><trkpt lat="41.331215" lon="0.8108117"><ele>751.0</ele><time>2026-03-31T07:42:24.163Z</time></trkpt><trkpt lat="41.3310983" lon="0.8108933"><ele>751.5</ele><time>2026-03-31T07:42:25.164Z</time></trkpt><trkpt lat="41.3309883" lon="0.8110017"><ele>752.0</ele><time>2026-03-31T07:42:26.164Z</time></trkpt><trkpt lat="41.3308917" lon="0.8111333"><ele>752.0</ele><time>2026-03-31T07:42:27.163Z</time></trkpt><trkpt lat="41.3307933" lon="0.8112667"><ele>752.0</ele><time>2026-03-31T07:42:28.163Z</time></trkpt><trkpt lat="41.3306967" lon="0.8113933"><ele>752.0</ele><time>2026-03-31T07:42:29.164Z</time></trkpt><trkpt lat="41.3306117" lon="0.8115083"><ele>752.0</ele><time>2026-03-31T07:42:30.163Z</time></trkpt><trkpt lat="41.3305233" lon="0.8115933"><ele>755.0</ele><time>2026-03-31T07:42:31.163Z</time></trkpt><trkpt lat="41.330435" lon="0.81166"><ele>758.0</ele><time>2026-03-31T07:42:32.164Z</time></trkpt><trkpt lat="41.330325" lon="0.8117"><ele>761.0</ele><time>2026-03-31T07:42:33.164Z</time></trkpt><trkpt lat="41.3302067" lon="0.8117133"><ele>764.0</ele><time>2026-03-31T07:42:34.164Z</time></trkpt><trkpt lat="41.3300817" lon="0.8117067"><ele>764.0</ele><time>2026-03-31T07:42:35.164Z</time></trkpt><trkpt lat="41.32995" lon="0.8117017"><ele>764.0</ele><time>2026-03-31T07:42:36.163Z</time></trkpt><trkpt lat="41.3298167" lon="0.8117033"><ele>764.0</ele><time>2026-03-31T07:42:37.163Z</time></trkpt><trkpt lat="41.3296883" lon="0.811725"><ele>764.0</ele><time>2026-03-31T07:42:38.163Z</time></trkpt><trkpt lat="41.3295633" lon="0.811765"><ele>764.4000000000001</ele><time>2026-03-31T07:42:39.163Z</time></trkpt><trkpt lat="41.329455" lon="0.811795"><ele>764.8</ele><time>2026-03-31T07:42:40.163Z</time></trkpt><trkpt lat="41.3293433" lon="0.8118167"><ele>765.2</ele><time>2026-03-31T07:42:41.163Z</time></trkpt><trkpt lat="41.3292483" lon="0.811825"><ele>765.5999999999999</ele><time>2026-03-31T07:42:42.164Z</time></trkpt><trkpt lat="41.3291717" lon="0.8117967"><ele>766.0</ele><time>2026-03-31T07:42:43.163Z</time></trkpt><trkpt lat="41.32909" lon="0.8117267"><ele>767.25</ele><time>2026-03-31T07:42:45.164Z</time></trkpt><trkpt lat="41.32904" lon="0.81157"><ele>768.5</ele><time>2026-03-31T07:42:47.163Z</time></trkpt><trkpt lat="41.328995" lon="0.811465"><ele>769.75</ele><time>2026-03-31T07:42:48.163Z</time></trkpt><trkpt lat="41.328925" lon="0.8113567"><ele>771.0</ele><time>2026-03-31T07:42:49.164Z</time></trkpt><trkpt lat="41.32882" lon="0.8112617"><ele>771.25</ele><time>2026-03-31T07:42:50.164Z</time></trkpt><trkpt lat="41.32872" lon="0.81118"><ele>771.5</ele><time>2026-03-31T07:42:51.163Z</time></trkpt><trkpt lat="41.3286233" lon="0.8110833"><ele>771.75</ele><time>2026-03-31T07:42:52.163Z</time></trkpt><trkpt lat="41.3285467" lon="0.810955"><ele>772.0</ele><time>2026-03-31T07:42:53.163Z</time></trkpt><trkpt lat="41.3285083" lon="0.8107983"><ele>772.0</ele><time>2026-03-31T07:42:54.164Z</time></trkpt><trkpt lat="41.3285017" lon="0.8106283"><ele>772.0</ele><time>2026-03-31T07:42:55.163Z</time></trkpt><trkpt lat="41.3285183" lon="0.8104367"><ele>772.0</ele><time>2026-03-31T07:42:56.163Z</time></trkpt><trkpt lat="41.3285283" lon="0.8102517"><ele>772.0</ele><time>2026-03-31T07:42:57.163Z</time></trkpt><trkpt lat="41.328535" lon="0.8100817"><ele>771.25</ele><time>2026-03-31T07:42:58.164Z</time></trkpt><trkpt lat="41.3285067" lon="0.8099117"><ele>770.5</ele><time>2026-03-31T07:42:59.164Z</time></trkpt><trkpt lat="41.3284533" lon="0.8097367"><ele>769.75</ele><time>2026-03-31T07:43:00.164Z</time></trkpt><trkpt lat="41.3283867" lon="0.80957"><ele>769.0</ele><time>2026-03-31T07:43:01.163Z</time></trkpt><trkpt lat="41.3283117" lon="0.80941"><ele>766.75</ele><time>2026-03-31T07:43:02.164Z</time></trkpt><trkpt lat="41.32826" lon="0.809245"><ele>764.5</ele><time>2026-03-31T07:43:03.163Z</time></trkpt><trkpt lat="41.3282283" lon="0.80908"><ele>762.25</ele><time>2026-03-31T07:43:04.163Z</time></trkpt><trkpt lat="41.3282183" lon="0.80892"><ele>760.0</ele><time>2026-03-31T07:43:05.164Z</time></trkpt><trkpt lat="41.3282467" lon="0.808755"><ele>760.0</ele><time>2026-03-31T07:43:06.163Z</time></trkpt><trkpt lat="41.3283083" lon="0.8085833"><ele>760.0</ele><time>2026-03-31T07:43:07.163Z</time></trkpt><trkpt lat="41.3284" lon="0.8084317"><ele>760.0</ele><time>2026-03-31T07:43:08.163Z</time></trkpt><trkpt lat="41.3285117" lon="0.8082767"><ele>758.0</ele><time>2026-03-31T07:43:09.163Z</time></trkpt><trkpt lat="41.3286217" lon="0.8081267"><ele>756.0</ele><time>2026-03-31T07:43:10.163Z</time></trkpt><trkpt lat="41.3287317" lon="0.80797"><ele>754.0</ele><time>2026-03-31T07:43:11.164Z</time></trkpt><trkpt lat="41.3288433" lon="0.807805"><ele>753.0</ele><time>2026-03-31T07:43:12.163Z</time></trkpt><trkpt lat="41.32895" lon="0.8076217"><ele>752.0</ele><time>2026-03-31T07:43:13.163Z</time></trkpt><trkpt lat="41.3290417" lon="0.8074467"><ele>751.0</ele><time>2026-03-31T07:43:14.164Z</time></trkpt><trkpt lat="41.329115" lon="0.8072483"><ele>751.0</ele><time>2026-03-31T07:43:15.163Z</time></trkpt><trkpt lat="41.3291733" lon="0.8070517"><ele>751.0</ele><time>2026-03-31T07:43:16.163Z</time></trkpt><trkpt lat="41.3292317" lon="0.80687"><ele>751.0</ele><time>2026-03-31T07:43:17.163Z</time></trkpt><trkpt lat="41.3292833" lon="0.8066883"><ele>749.75</ele><time>2026-03-31T07:43:18.164Z</time></trkpt><trkpt lat="41.3293183" lon="0.8065183"><ele>748.5</ele><time>2026-03-31T07:43:19.163Z</time></trkpt><trkpt lat="41.3293117" lon="0.80637"><ele>747.25</ele><time>2026-03-31T07:43:20.163Z</time></trkpt><trkpt lat="41.3292917" lon="0.8062333"><ele>746.0</ele><time>2026-03-31T07:43:21.163Z</time></trkpt><trkpt lat="41.3292583" lon="0.8061"><ele>745.0</ele><time>2026-03-31T07:43:22.163Z</time></trkpt><trkpt lat="41.3292533" lon="0.80598"><ele>744.0</ele><time>2026-03-31T07:43:23.163Z</time></trkpt><trkpt lat="41.3292933" lon="0.805865"><ele>743.0</ele><time>2026-03-31T07:43:24.163Z</time></trkpt><trkpt lat="41.32936" lon="0.805755"><ele>742.0</ele><time>2026-03-31T07:43:25.163Z</time></trkpt><trkpt lat="41.3294433" lon="0.8056467"><ele>741.0</ele><time>2026-03-31T07:43:26.164Z</time></trkpt><trkpt lat="41.3295267" lon="0.8055267"><ele>741.0</ele><time>2026-03-31T07:43:27.163Z</time></trkpt><trkpt lat="41.3295667" lon="0.805375"><ele>741.0</ele><time>2026-03-31T07:43:28.164Z</time></trkpt><trkpt lat="41.3295783" lon="0.805195"><ele>741.0</ele><time>2026-03-31T07:43:29.163Z</time></trkpt><trkpt lat="41.329565" lon="0.8050067"><ele>741.0</ele><time>2026-03-31T07:43:30.164Z</time></trkpt><trkpt lat="41.3295267" lon="0.8048167"><ele>739.0</ele><time>2026-03-31T07:43:31.163Z</time></trkpt><trkpt lat="41.3295" lon="0.8046233"><ele>737.0</ele><time>2026-03-31T07:43:32.163Z</time></trkpt><trkpt lat="41.3295067" lon="0.804435"><ele>735.0</ele><time>2026-03-31T07:43:33.163Z</time></trkpt><trkpt lat="41.329555" lon="0.8042433"><ele>733.0</ele><time>2026-03-31T07:43:34.163Z</time></trkpt><trkpt lat="41.3296383" lon="0.8040567"><ele>734.0</ele><time>2026-03-31T07:43:35.163Z</time></trkpt><trkpt lat="41.329735" lon="0.8038767"><ele>735.0</ele><time>2026-03-31T07:43:36.164Z</time></trkpt><trkpt lat="41.3298367" lon="0.8036967"><ele>736.0</ele><time>2026-03-31T07:43:37.164Z</time></trkpt><trkpt lat="41.3299367" lon="0.80351"><ele>736.6666666666667</ele><time>2026-03-31T07:43:38.163Z</time></trkpt><trkpt lat="41.3300333" lon="0.8033367"><ele>737.3333333333334</ele><time>2026-03-31T07:43:39.163Z</time></trkpt><trkpt lat="41.3301233" lon="0.8031683"><ele>738.0</ele><time>2026-03-31T07:43:40.163Z</time></trkpt><trkpt lat="41.3302167" lon="0.803"><ele>738.0</ele><time>2026-03-31T07:43:41.164Z</time></trkpt><trkpt lat="41.3303" lon="0.80284"><ele>738.0</ele><time>2026-03-31T07:43:42.164Z</time></trkpt><trkpt lat="41.3303617" lon="0.8026567"><ele>738.0</ele><time>2026-03-31T07:43:43.164Z</time></trkpt><trkpt lat="41.33039" lon="0.802455"><ele>736.6666666666666</ele><time>2026-03-31T07:43:44.163Z</time></trkpt><trkpt lat="41.3303933" lon="0.8022417"><ele>735.3333333333333</ele><time>2026-03-31T07:43:45.163Z</time></trkpt><trkpt lat="41.330385" lon="0.80202"><ele>734.0</ele><time>2026-03-31T07:43:46.164Z</time></trkpt><trkpt lat="41.3303583" lon="0.8018017"><ele>734.0</ele><time>2026-03-31T07:43:47.163Z</time></trkpt><trkpt lat="41.3303317" lon="0.8015933"><ele>734.0</ele><time>2026-03-31T07:43:48.163Z</time></trkpt><trkpt lat="41.3303033" lon="0.8014033"><ele>734.0</ele><time>2026-03-31T07:43:49.163Z</time></trkpt><trkpt lat="41.3302733" lon="0.801215"><ele>734.0</ele><time>2026-03-31T07:43:50.163Z</time></trkpt><trkpt lat="41.3302433" lon="0.801045"><ele>735.0</ele><time>2026-03-31T07:43:51.164Z</time></trkpt><trkpt lat="41.3301933" lon="0.800855"><ele>736.0</ele><time>2026-03-31T07:43:52.163Z</time></trkpt><trkpt lat="41.3301217" lon="0.8006683"><ele>737.0</ele><time>2026-03-31T07:43:53.164Z</time></trkpt><trkpt lat="41.3300333" lon="0.80048"><ele>737.0</ele><time>2026-03-31T07:43:54.163Z</time></trkpt><trkpt lat="41.3299383" lon="0.8003033"><ele>737.0</ele><time>2026-03-31T07:43:55.163Z</time></trkpt><trkpt lat="41.329845" lon="0.80013"><ele>737.0</ele><time>2026-03-31T07:43:56.163Z</time></trkpt><trkpt lat="41.3297467" lon="0.7999583"><ele>736.5</ele><time>2026-03-31T07:43:57.164Z</time></trkpt><trkpt lat="41.3296583" lon="0.799795"><ele>736.0</ele><time>2026-03-31T07:43:58.164Z</time></trkpt><trkpt lat="41.32959" lon="0.7996283"><ele>735.5</ele><time>2026-03-31T07:43:59.163Z</time></trkpt><trkpt lat="41.32956" lon="0.7994517"><ele>735.0</ele><time>2026-03-31T07:44:00.163Z</time></trkpt><trkpt lat="41.3295683" lon="0.7992667"><ele>732.6666666666666</ele><time>2026-03-31T07:44:01.164Z</time></trkpt><trkpt lat="41.32961" lon="0.7990783"><ele>730.3333333333333</ele><time>2026-03-31T07:44:02.163Z</time></trkpt><trkpt lat="41.3296617" lon="0.798875"><ele>728.0</ele><time>2026-03-31T07:44:03.164Z</time></trkpt><trkpt lat="41.3297167" lon="0.7986717"><ele>727.6666666666666</ele><time>2026-03-31T07:44:04.163Z</time></trkpt><trkpt lat="41.3297783" lon="0.7984583"><ele>727.3333333333334</ele><time>2026-03-31T07:44:05.163Z</time></trkpt><trkpt lat="41.3298383" lon="0.7982517"><ele>727.0</ele><time>2026-03-31T07:44:06.163Z</time></trkpt><trkpt lat="41.3298917" lon="0.7980483"><ele>727.0</ele><time>2026-03-31T07:44:07.164Z</time></trkpt><trkpt lat="41.329945" lon="0.7978467"><ele>727.0</ele><time>2026-03-31T07:44:08.163Z</time></trkpt><trkpt lat="41.329995" lon="0.79766"><ele>727.0</ele><time>2026-03-31T07:44:09.163Z</time></trkpt><trkpt lat="41.330035" lon="0.7974833"><ele>727.0</ele><time>2026-03-31T07:44:10.164Z</time></trkpt><trkpt lat="41.330055" lon="0.7973033"><ele>726.75</ele><time>2026-03-31T07:44:11.164Z</time></trkpt><trkpt lat="41.330045" lon="0.7971267"><ele>726.5</ele><time>2026-03-31T07:44:12.164Z</time></trkpt><trkpt lat="41.3300083" lon="0.7969467"><ele>726.25</ele><time>2026-03-31T07:44:13.164Z</time></trkpt><trkpt lat="41.3299567" lon="0.7967567"><ele>726.0</ele><time>2026-03-31T07:44:14.163Z</time></trkpt><trkpt lat="41.3298983" lon="0.7965667"><ele>724.3333333333334</ele><time>2026-03-31T07:44:15.164Z</time></trkpt><trkpt lat="41.32983" lon="0.7963717"><ele>722.6666666666667</ele><time>2026-03-31T07:44:16.164Z</time></trkpt><trkpt lat="41.3297817" lon="0.79617"><ele>721.0</ele><time>2026-03-31T07:44:17.164Z</time></trkpt><trkpt lat="41.3297267" lon="0.7959783"><ele>720.75</ele><time>2026-03-31T07:44:18.164Z</time></trkpt><trkpt lat="41.3297033" lon="0.7957967"><ele>720.5</ele><time>2026-03-31T07:44:19.164Z</time></trkpt><trkpt lat="41.329715" lon="0.7956083"><ele>720.25</ele><time>2026-03-31T07:44:20.163Z</time></trkpt><trkpt lat="41.32978" lon="0.7954217"><ele>720.0</ele><time>2026-03-31T07:44:21.163Z</time></trkpt><trkpt lat="41.3298767" lon="0.79526"><ele>719.0</ele><time>2026-03-31T07:44:22.163Z</time></trkpt><trkpt lat="41.3299867" lon="0.7951167"><ele>718.0</ele><time>2026-03-31T07:44:23.164Z</time></trkpt><trkpt lat="41.330105" lon="0.7949767"><ele>717.0</ele><time>2026-03-31T07:44:24.164Z</time></trkpt><trkpt lat="41.3302233" lon="0.79484"><ele>717.0</ele><time>2026-03-31T07:44:25.164Z</time></trkpt><trkpt lat="41.3303383" lon="0.7946967"><ele>717.0</ele><time>2026-03-31T07:44:26.163Z</time></trkpt><trkpt lat="41.3304433" lon="0.79454"><ele>717.0</ele><time>2026-03-31T07:44:27.164Z</time></trkpt><trkpt lat="41.33053" lon="0.7943717"><ele>714.0</ele><time>2026-03-31T07:44:28.163Z</time></trkpt><trkpt lat="41.33061" lon="0.79419"><ele>711.0</ele><time>2026-03-31T07:44:29.164Z</time></trkpt><trkpt lat="41.3306883" lon="0.794"><ele>708.0</ele><time>2026-03-31T07:44:30.163Z</time></trkpt><trkpt lat="41.3307733" lon="0.793815"><ele>708.0</ele><time>2026-03-31T07:44:31.163Z</time></trkpt><trkpt lat="41.3308583" lon="0.7936317"><ele>708.0</ele><time>2026-03-31T07:44:32.163Z</time></trkpt><trkpt lat="41.3309367" lon="0.7934467"><ele>708.0</ele><time>2026-03-31T07:44:33.163Z</time></trkpt><trkpt lat="41.3310133" lon="0.793255"><ele>709.3333333333334</ele><time>2026-03-31T07:44:34.163Z</time></trkpt><trkpt lat="41.3310967" lon="0.7930633"><ele>710.6666666666667</ele><time>2026-03-31T07:44:35.163Z</time></trkpt><trkpt lat="41.3311783" lon="0.7928783"><ele>712.0</ele><time>2026-03-31T07:44:36.164Z</time></trkpt><trkpt lat="41.3312633" lon="0.79269"><ele>710.3333333333334</ele><time>2026-03-31T07:44:37.163Z</time></trkpt><trkpt lat="41.3313433" lon="0.7924983"><ele>708.6666666666666</ele><time>2026-03-31T07:44:38.163Z</time></trkpt><trkpt lat="41.3314267" lon="0.7923033"><ele>707.0</ele><time>2026-03-31T07:44:39.163Z</time></trkpt><trkpt lat="41.3315067" lon="0.79211"><ele>706.6666666666666</ele><time>2026-03-31T07:44:40.163Z</time></trkpt><trkpt lat="41.3315883" lon="0.79191"><ele>706.3333333333334</ele><time>2026-03-31T07:44:41.164Z</time></trkpt><trkpt lat="41.331665" lon="0.7917217"><ele>706.0</ele><time>2026-03-31T07:44:42.163Z</time></trkpt><trkpt lat="41.3317367" lon="0.7915217"><ele>705.6666666666667</ele><time>2026-03-31T07:44:43.163Z</time></trkpt><trkpt lat="41.3317967" lon="0.7913217"><ele>705.3333333333334</ele><time>2026-03-31T07:44:44.163Z</time></trkpt><trkpt lat="41.3318433" lon="0.79113"><ele>705.0</ele><time>2026-03-31T07:44:45.164Z</time></trkpt><trkpt lat="41.3318833" lon="0.7909317"><ele>704.25</ele><time>2026-03-31T07:44:46.163Z</time></trkpt><trkpt lat="41.331925" lon="0.7907333"><ele>703.5</ele><time>2026-03-31T07:44:47.163Z</time></trkpt><trkpt lat="41.33195" lon="0.7905417"><ele>702.75</ele><time>2026-03-31T07:44:48.163Z</time></trkpt><trkpt lat="41.33198" lon="0.7903633"><ele>702.0</ele><time>2026-03-31T07:44:49.164Z</time></trkpt><trkpt lat="41.332005" lon="0.7901783"><ele>700.6666666666666</ele><time>2026-03-31T07:44:50.163Z</time></trkpt><trkpt lat="41.3320267" lon="0.7899817"><ele>699.3333333333333</ele><time>2026-03-31T07:44:51.163Z</time></trkpt><trkpt lat="41.3320367" lon="0.7897633"><ele>698.0</ele><time>2026-03-31T07:44:52.163Z</time></trkpt><trkpt lat="41.3320433" lon="0.7895317"><ele>696.0</ele><time>2026-03-31T07:44:53.164Z</time></trkpt><trkpt lat="41.3320483" lon="0.789285"><ele>694.0</ele><time>2026-03-31T07:44:54.164Z</time></trkpt><trkpt lat="41.3320533" lon="0.7890333"><ele>692.0</ele><time>2026-03-31T07:44:55.163Z</time></trkpt><trkpt lat="41.3320617" lon="0.7887717"><ele>692.0</ele><time>2026-03-31T07:44:56.163Z</time></trkpt><trkpt lat="41.332055" lon="0.7885183"><ele>692.0</ele><time>2026-03-31T07:44:57.163Z</time></trkpt><trkpt lat="41.3320533" lon="0.788265"><ele>692.0</ele><time>2026-03-31T07:44:58.164Z</time></trkpt><trkpt lat="41.3320533" lon="0.7880217"><ele>693.0</ele><time>2026-03-31T07:44:59.164Z</time></trkpt><trkpt lat="41.3320433" lon="0.787785"><ele>694.0</ele><time>2026-03-31T07:45:00.163Z</time></trkpt><trkpt lat="41.3320367" lon="0.7875417"><ele>695.0</ele><time>2026-03-31T07:45:01.163Z</time></trkpt><trkpt lat="41.3320283" lon="0.7873083"><ele>695.0</ele><time>2026-03-31T07:45:02.164Z</time></trkpt><trkpt lat="41.3320283" lon="0.7870867"><ele>695.0</ele><time>2026-03-31T07:45:03.163Z</time></trkpt><trkpt lat="41.3320367" lon="0.7868983"><ele>695.0</ele><time>2026-03-31T07:45:04.163Z</time></trkpt><trkpt lat="41.33206" lon="0.7867017"><ele>695.3333333333333</ele><time>2026-03-31T07:45:05.164Z</time></trkpt><trkpt lat="41.332115" lon="0.7865133"><ele>695.6666666666666</ele><time>2026-03-31T07:45:06.164Z</time></trkpt><trkpt lat="41.3322083" lon="0.7863417"><ele>696.0</ele><time>2026-03-31T07:45:07.163Z</time></trkpt><trkpt lat="41.3323183" lon="0.786175"><ele>696.0</ele><time>2026-03-31T07:45:08.164Z</time></trkpt><trkpt lat="41.33242" lon="0.786015"><ele>696.0</ele><time>2026-03-31T07:45:09.164Z</time></trkpt><trkpt lat="41.33251" lon="0.785855"><ele>696.0</ele><time>2026-03-31T07:45:10.164Z</time></trkpt><trkpt lat="41.3325867" lon="0.7856733"><ele>693.3333333333334</ele><time>2026-03-31T07:45:11.164Z</time></trkpt><trkpt lat="41.3326317" lon="0.7854683"><ele>690.6666666666667</ele><time>2026-03-31T07:45:12.163Z</time></trkpt><trkpt lat="41.33264" lon="0.7852567"><ele>688.0</ele><time>2026-03-31T07:45:13.164Z</time></trkpt><trkpt lat="41.332635" lon="0.7850417"><ele>685.3333333333334</ele><time>2026-03-31T07:45:14.163Z</time></trkpt><trkpt lat="41.3326183" lon="0.7848217"><ele>682.6666666666666</ele><time>2026-03-31T07:45:15.164Z</time></trkpt><trkpt lat="41.3325933" lon="0.784605"><ele>680.0</ele><time>2026-03-31T07:45:16.164Z</time></trkpt><trkpt lat="41.33255" lon="0.7843967"><ele>680.0</ele><time>2026-03-31T07:45:17.164Z</time></trkpt><trkpt lat="41.3324817" lon="0.7841933"><ele>680.0</ele><time>2026-03-31T07:45:18.164Z</time></trkpt><trkpt lat="41.3324" lon="0.784"><ele>680.0</ele><time>2026-03-31T07:45:19.163Z</time></trkpt><trkpt lat="41.3323217" lon="0.7838083"><ele>680.0</ele><time>2026-03-31T07:45:20.164Z</time></trkpt><trkpt lat="41.3322583" lon="0.783615"><ele>680.0</ele><time>2026-03-31T07:45:21.163Z</time></trkpt><trkpt lat="41.332215" lon="0.7834217"><ele>680.0</ele><time>2026-03-31T07:45:22.164Z</time></trkpt><trkpt lat="41.3322" lon="0.783235"><ele>679.25</ele><time>2026-03-31T07:45:23.163Z</time></trkpt><trkpt lat="41.3322367" lon="0.7830467"><ele>678.5</ele><time>2026-03-31T07:45:24.163Z</time></trkpt><trkpt lat="41.3323017" lon="0.7828583"><ele>677.75</ele><time>2026-03-31T07:45:25.164Z</time></trkpt><trkpt lat="41.332375" lon="0.78269"><ele>677.0</ele><time>2026-03-31T07:45:26.164Z</time></trkpt><trkpt lat="41.33244" lon="0.782525"><ele>676.0</ele><time>2026-03-31T07:45:27.163Z</time></trkpt><trkpt lat="41.33247" lon="0.7823533"><ele>675.0</ele><time>2026-03-31T07:45:28.163Z</time></trkpt><trkpt lat="41.3324833" lon="0.7821733"><ele>674.0</ele><time>2026-03-31T07:45:29.163Z</time></trkpt><trkpt lat="41.33248" lon="0.7819883"><ele>673.0</ele><time>2026-03-31T07:45:30.163Z</time></trkpt><trkpt lat="41.3324617" lon="0.7818083"><ele>672.75</ele><time>2026-03-31T07:45:31.163Z</time></trkpt><trkpt lat="41.3324433" lon="0.781625"><ele>672.5</ele><time>2026-03-31T07:45:32.164Z</time></trkpt><trkpt lat="41.3324267" lon="0.7814583"><ele>672.25</ele><time>2026-03-31T07:45:33.164Z</time></trkpt><trkpt lat="41.3324167" lon="0.7812933"><ele>672.0</ele><time>2026-03-31T07:45:34.164Z</time></trkpt><trkpt lat="41.3323983" lon="0.7811183"><ele>672.5</ele><time>2026-03-31T07:45:35.163Z</time></trkpt><trkpt lat="41.3323933" lon="0.7809367"><ele>673.0</ele><time>2026-03-31T07:45:36.164Z</time></trkpt><trkpt lat="41.3323933" lon="0.780765"><ele>673.5</ele><time>2026-03-31T07:45:37.163Z</time></trkpt><trkpt lat="41.3324233" lon="0.7806017"><ele>674.0</ele><time>2026-03-31T07:45:38.163Z</time></trkpt><trkpt lat="41.3324783" lon="0.78044"><ele>674.0</ele><time>2026-03-31T07:45:39.164Z</time></trkpt><trkpt lat="41.3325367" lon="0.780285"><ele>674.0</ele><time>2026-03-31T07:45:40.163Z</time></trkpt><trkpt lat="41.3325933" lon="0.78013"><ele>674.0</ele><time>2026-03-31T07:45:41.164Z</time></trkpt><trkpt lat="41.3326483" lon="0.7799733"><ele>674.0</ele><time>2026-03-31T07:45:42.163Z</time></trkpt><trkpt lat="41.332705" lon="0.7798283"><ele>675.0</ele><time>2026-03-31T07:45:43.163Z</time></trkpt><trkpt lat="41.3327533" lon="0.7797017"><ele>676.0</ele><time>2026-03-31T07:45:44.163Z</time></trkpt><trkpt lat="41.3328033" lon="0.7795817"><ele>677.0</ele><time>2026-03-31T07:45:45.164Z</time></trkpt><trkpt lat="41.332845" lon="0.779455"><ele>678.0</ele><time>2026-03-31T07:45:46.163Z</time></trkpt><trkpt lat="41.3328883" lon="0.7793233"><ele>679.0</ele><time>2026-03-31T07:45:47.164Z</time></trkpt><trkpt lat="41.3329333" lon="0.779185"><ele>679.4000000000001</ele><time>2026-03-31T07:45:48.163Z</time></trkpt><trkpt lat="41.3329717" lon="0.7790583"><ele>679.8</ele><time>2026-03-31T07:45:49.163Z</time></trkpt><trkpt lat="41.3329917" lon="0.7789217"><ele>680.2</ele><time>2026-03-31T07:45:50.164Z</time></trkpt><trkpt lat="41.3329717" lon="0.7788033"><ele>680.5999999999999</ele><time>2026-03-31T07:45:51.164Z</time></trkpt><trkpt lat="41.3329133" lon="0.7786917"><ele>681.0</ele><time>2026-03-31T07:45:52.164Z</time></trkpt><trkpt lat="41.3328333" lon="0.778605"><ele>681.0</ele><time>2026-03-31T07:45:53.163Z</time></trkpt><trkpt lat="41.3327467" lon="0.7785267"><ele>681.0</ele><time>2026-03-31T07:45:54.163Z</time></trkpt><trkpt lat="41.3326633" lon="0.77844"><ele>681.0</ele><time>2026-03-31T07:45:55.163Z</time></trkpt><trkpt lat="41.3325833" lon="0.7783533"><ele>681.0</ele><time>2026-03-31T07:45:56.163Z</time></trkpt><trkpt lat="41.3325133" lon="0.7782583"><ele>681.0</ele><time>2026-03-31T07:45:57.163Z</time></trkpt><trkpt lat="41.3324533" lon="0.77814"><ele>679.25</ele><time>2026-03-31T07:45:58.164Z</time></trkpt><trkpt lat="41.332425" lon="0.778005"><ele>677.5</ele><time>2026-03-31T07:45:59.164Z</time></trkpt><trkpt lat="41.3324417" lon="0.7778583"><ele>675.75</ele><time>2026-03-31T07:46:00.164Z</time></trkpt><trkpt lat="41.332475" lon="0.7776983"><ele>674.0</ele><time>2026-03-31T07:46:01.164Z</time></trkpt><trkpt lat="41.3325233" lon="0.77751"><ele>673.3333333333333</ele><time>2026-03-31T07:46:02.163Z</time></trkpt><trkpt lat="41.33259" lon="0.7773117"><ele>672.6666666666666</ele><time>2026-03-31T07:46:03.164Z</time></trkpt><trkpt lat="41.3326533" lon="0.77711"><ele>672.0</ele><time>2026-03-31T07:46:04.163Z</time></trkpt><trkpt lat="41.3327283" lon="0.7768983"><ele>671.3333333333334</ele><time>2026-03-31T07:46:05.164Z</time></trkpt><trkpt lat="41.3328167" lon="0.7766967"><ele>670.6666666666667</ele><time>2026-03-31T07:46:06.163Z</time></trkpt><trkpt lat="41.3329083" lon="0.7765033"><ele>670.0</ele><time>2026-03-31T07:46:07.163Z</time></trkpt><trkpt lat="41.3330133" lon="0.77631"><ele>668.0</ele><time>2026-03-31T07:46:08.163Z</time></trkpt><trkpt lat="41.3331333" lon="0.77612"><ele>666.0</ele><time>2026-03-31T07:46:09.163Z</time></trkpt><trkpt lat="41.3332667" lon="0.7759417"><ele>664.0</ele><time>2026-03-31T07:46:10.163Z</time></trkpt><trkpt lat="41.3334" lon="0.77576"><ele>664.0</ele><time>2026-03-31T07:46:11.164Z</time></trkpt><trkpt lat="41.333525" lon="0.7755717"><ele>664.0</ele><time>2026-03-31T07:46:12.163Z</time></trkpt><trkpt lat="41.3336433" lon="0.7753867"><ele>664.0</ele><time>2026-03-31T07:46:13.163Z</time></trkpt><trkpt lat="41.3337617" lon="0.7751967"><ele>663.6666666666667</ele><time>2026-03-31T07:46:14.163Z</time></trkpt><trkpt lat="41.33387" lon="0.77501"><ele>663.3333333333334</ele><time>2026-03-31T07:46:15.163Z</time></trkpt><trkpt lat="41.3339767" lon="0.774825"><ele>663.0</ele><time>2026-03-31T07:46:16.164Z</time></trkpt><trkpt lat="41.3340883" lon="0.7746433"><ele>663.0</ele><time>2026-03-31T07:46:17.163Z</time></trkpt><trkpt lat="41.3342" lon="0.7744633"><ele>663.0</ele><time>2026-03-31T07:46:18.163Z</time></trkpt><trkpt lat="41.3343017" lon="0.7742983"><ele>663.0</ele><time>2026-03-31T07:46:19.163Z</time></trkpt><trkpt lat="41.3343867" lon="0.7741383"><ele>663.0</ele><time>2026-03-31T07:46:20.163Z</time></trkpt><trkpt lat="41.3344567" lon="0.773955"><ele>663.0</ele><time>2026-03-31T07:46:21.163Z</time></trkpt><trkpt lat="41.3344883" lon="0.7737517"><ele>663.0</ele><time>2026-03-31T07:46:22.164Z</time></trkpt><trkpt lat="41.3344833" lon="0.773535"><ele>660.6666666666666</ele><time>2026-03-31T07:46:23.164Z</time></trkpt><trkpt lat="41.3344567" lon="0.7733183"><ele>658.3333333333333</ele><time>2026-03-31T07:46:24.164Z</time></trkpt><trkpt lat="41.334435" lon="0.7731083"><ele>656.0</ele><time>2026-03-31T07:46:25.163Z</time></trkpt><trkpt lat="41.3344167" lon="0.77289"><ele>656.0</ele><time>2026-03-31T07:46:26.163Z</time></trkpt><trkpt lat="41.334395" lon="0.772665"><ele>656.0</ele><time>2026-03-31T07:46:27.164Z</time></trkpt><trkpt lat="41.3343833" lon="0.7724433"><ele>656.0</ele><time>2026-03-31T07:46:28.164Z</time></trkpt><trkpt lat="41.3343767" lon="0.77222"><ele>656.0</ele><time>2026-03-31T07:46:29.164Z</time></trkpt><trkpt lat="41.3343667" lon="0.7719917"><ele>656.0</ele><time>2026-03-31T07:46:30.163Z</time></trkpt><trkpt lat="41.3343633" lon="0.7717633"><ele>656.0</ele><time>2026-03-31T07:46:31.163Z</time></trkpt><trkpt lat="41.3343583" lon="0.7715467"><ele>656.75</ele><time>2026-03-31T07:46:32.163Z</time></trkpt><trkpt lat="41.3343667" lon="0.771345"><ele>657.5</ele><time>2026-03-31T07:46:33.164Z</time></trkpt><trkpt lat="41.3343567" lon="0.7711533"><ele>658.25</ele><time>2026-03-31T07:46:34.164Z</time></trkpt><trkpt lat="41.3343433" lon="0.7709733"><ele>659.0</ele><time>2026-03-31T07:46:35.164Z</time></trkpt><trkpt lat="41.334295" lon="0.7708183"><ele>659.75</ele><time>2026-03-31T07:46:36.164Z</time></trkpt><trkpt lat="41.3342083" lon="0.7706967"><ele>660.5</ele><time>2026-03-31T07:46:37.164Z</time></trkpt><trkpt lat="41.3341033" lon="0.7706133"><ele>661.25</ele><time>2026-03-31T07:46:38.163Z</time></trkpt><trkpt lat="41.33397" lon="0.7705817"><ele>662.0</ele><time>2026-03-31T07:46:39.163Z</time></trkpt><trkpt lat="41.3338333" lon="0.770595"><ele>662.0</ele><time>2026-03-31T07:46:40.164Z</time></trkpt><trkpt lat="41.3336867" lon="0.770595"><ele>662.0</ele><time>2026-03-31T07:46:41.163Z</time></trkpt><trkpt lat="41.333565" lon="0.7705567"><ele>662.0</ele><time>2026-03-31T07:46:42.163Z</time></trkpt><trkpt lat="41.333455" lon="0.7704717"><ele>662.0</ele><time>2026-03-31T07:46:43.163Z</time></trkpt><trkpt lat="41.3333683" lon="0.770355"><ele>662.0</ele><time>2026-03-31T07:46:44.163Z</time></trkpt><trkpt lat="41.33331" lon="0.7702"><ele>662.0</ele><time>2026-03-31T07:46:45.163Z</time></trkpt><trkpt lat="41.3332567" lon="0.7700333"><ele>662.0</ele><time>2026-03-31T07:46:46.164Z</time></trkpt><trkpt lat="41.3332033" lon="0.7698633"><ele>662.0</ele><time>2026-03-31T07:46:47.163Z</time></trkpt><trkpt lat="41.333135" lon="0.7696933"><ele>661.75</ele><time>2026-03-31T07:46:48.163Z</time></trkpt><trkpt lat="41.3330533" lon="0.7695517"><ele>661.5</ele><time>2026-03-31T07:46:49.164Z</time></trkpt><trkpt lat="41.33294" lon="0.7694333"><ele>661.25</ele><time>2026-03-31T07:46:50.163Z</time></trkpt><trkpt lat="41.332825" lon="0.76934"><ele>661.0</ele><time>2026-03-31T07:46:51.163Z</time></trkpt><trkpt lat="41.3327133" lon="0.7692783"><ele>661.0</ele><time>2026-03-31T07:46:52.163Z</time></trkpt><trkpt lat="41.332625" lon="0.76919"><ele>661.0</ele><time>2026-03-31T07:46:53.163Z</time></trkpt><trkpt lat="41.3325733" lon="0.7690667"><ele>661.0</ele><time>2026-03-31T07:46:54.164Z</time></trkpt><trkpt lat="41.33256" lon="0.768925"><ele>661.0</ele><time>2026-03-31T07:46:55.163Z</time></trkpt><trkpt lat="41.3325933" lon="0.7687733"><ele>661.0</ele><time>2026-03-31T07:46:56.163Z</time></trkpt><trkpt lat="41.33265" lon="0.7686267"><ele>661.25</ele><time>2026-03-31T07:46:57.164Z</time></trkpt><trkpt lat="41.3327317" lon="0.768495"><ele>661.5</ele><time>2026-03-31T07:46:58.163Z</time></trkpt><trkpt lat="41.3328333" lon="0.7683767"><ele>661.75</ele><time>2026-03-31T07:46:59.164Z</time></trkpt><trkpt lat="41.33293" lon="0.76825"><ele>662.0</ele><time>2026-03-31T07:47:00.163Z</time></trkpt><trkpt lat="41.3330033" lon="0.7681067"><ele>662.0</ele><time>2026-03-31T07:47:01.163Z</time></trkpt><trkpt lat="41.3330267" lon="0.7679533"><ele>662.0</ele><time>2026-03-31T07:47:02.163Z</time></trkpt><trkpt lat="41.332995" lon="0.7677967"><ele>662.0</ele><time>2026-03-31T07:47:03.163Z</time></trkpt><trkpt lat="41.3329017" lon="0.767645"><ele>662.0</ele><time>2026-03-31T07:47:04.163Z</time></trkpt><trkpt lat="41.3327933" lon="0.7675233"><ele>663.25</ele><time>2026-03-31T07:47:05.163Z</time></trkpt><trkpt lat="41.3326833" lon="0.767405"><ele>664.5</ele><time>2026-03-31T07:47:06.163Z</time></trkpt><trkpt lat="41.3326133" lon="0.76726"><ele>665.75</ele><time>2026-03-31T07:47:07.164Z</time></trkpt><trkpt lat="41.3325517" lon="0.7670967"><ele>667.0</ele><time>2026-03-31T07:47:08.164Z</time></trkpt><trkpt lat="41.3325033" lon="0.7669233"><ele>668.0</ele><time>2026-03-31T07:47:09.163Z</time></trkpt><trkpt lat="41.3324533" lon="0.7667617"><ele>669.0</ele><time>2026-03-31T07:47:10.163Z</time></trkpt><trkpt lat="41.3324217" lon="0.7666233"><ele>670.0</ele><time>2026-03-31T07:47:11.163Z</time></trkpt><trkpt lat="41.3324317" lon="0.7665083"><ele>671.0</ele><time>2026-03-31T07:47:12.163Z</time></trkpt><trkpt lat="41.3324917" lon="0.76639"><ele>672.0</ele><time>2026-03-31T07:47:13.163Z</time></trkpt><trkpt lat="41.3325767" lon="0.7662933"><ele>672.0</ele><time>2026-03-31T07:47:14.163Z</time></trkpt><trkpt lat="41.3326767" lon="0.76623"><ele>672.0</ele><time>2026-03-31T07:47:15.164Z</time></trkpt><trkpt lat="41.3327983" lon="0.7661967"><ele>672.0</ele><time>2026-03-31T07:47:16.164Z</time></trkpt><trkpt lat="41.3329283" lon="0.766185"><ele>672.0</ele><time>2026-03-31T07:47:17.164Z</time></trkpt><trkpt lat="41.3330483" lon="0.7661617"><ele>673.0</ele><time>2026-03-31T07:47:18.163Z</time></trkpt><trkpt lat="41.33316" lon="0.7660867"><ele>674.0</ele><time>2026-03-31T07:47:19.164Z</time></trkpt><trkpt lat="41.3332383" lon="0.7659617"><ele>675.0</ele><time>2026-03-31T07:47:20.163Z</time></trkpt><trkpt lat="41.3333283" lon="0.7658583"><ele>676.0</ele><time>2026-03-31T07:47:21.164Z</time></trkpt><trkpt lat="41.3334333" lon="0.7658"><ele>676.0</ele><time>2026-03-31T07:47:22.163Z</time></trkpt><trkpt lat="41.3335183" lon="0.76572"><ele>676.0</ele><time>2026-03-31T07:47:23.163Z</time></trkpt><trkpt lat="41.3335667" lon="0.765615"><ele>676.0</ele><time>2026-03-31T07:47:24.164Z</time></trkpt><trkpt lat="41.3335717" lon="0.76548"><ele>676.0</ele><time>2026-03-31T07:47:25.163Z</time></trkpt><trkpt lat="41.3335483" lon="0.7653283"><ele>676.0</ele><time>2026-03-31T07:47:26.164Z</time></trkpt><trkpt lat="41.33351" lon="0.7651467"><ele>674.3333333333334</ele><time>2026-03-31T07:47:27.163Z</time></trkpt><trkpt lat="41.3334817" lon="0.7649533"><ele>672.6666666666666</ele><time>2026-03-31T07:47:28.163Z</time></trkpt><trkpt lat="41.3334833" lon="0.7647467"><ele>671.0</ele><time>2026-03-31T07:47:29.163Z</time></trkpt><trkpt lat="41.3334917" lon="0.7645517"><ele>671.0</ele><time>2026-03-31T07:47:30.163Z</time></trkpt><trkpt lat="41.33353" lon="0.7643783"><ele>671.0</ele><time>2026-03-31T07:47:31.164Z</time></trkpt><trkpt lat="41.3336033" lon="0.7642317"><ele>671.0</ele><time>2026-03-31T07:47:32.163Z</time></trkpt><trkpt lat="41.3336917" lon="0.7640833"><ele>671.0</ele><time>2026-03-31T07:47:33.164Z</time></trkpt><trkpt lat="41.3337867" lon="0.7639333"><ele>672.5</ele><time>2026-03-31T07:47:34.164Z</time></trkpt><trkpt lat="41.3338867" lon="0.763795"><ele>674.0</ele><time>2026-03-31T07:47:35.163Z</time></trkpt><trkpt lat="41.3339883" lon="0.76367"><ele>675.5</ele><time>2026-03-31T07:47:36.164Z</time></trkpt><trkpt lat="41.33409" lon="0.7635717"><ele>677.0</ele><time>2026-03-31T07:47:37.163Z</time></trkpt><trkpt lat="41.3341933" lon="0.7634867"><ele>677.0</ele><time>2026-03-31T07:47:38.164Z</time></trkpt><trkpt lat="41.3342917" lon="0.763415"><ele>677.0</ele><time>2026-03-31T07:47:39.163Z</time></trkpt><trkpt lat="41.3343767" lon="0.7633433"><ele>677.0</ele><time>2026-03-31T07:47:40.163Z</time></trkpt><trkpt lat="41.33445" lon="0.76325"><ele>677.0</ele><time>2026-03-31T07:47:41.163Z</time></trkpt><trkpt lat="41.33451" lon="0.7631767"><ele>677.0</ele><time>2026-03-31T07:47:42.164Z</time></trkpt><trkpt lat="41.3345583" lon="0.7630933"><ele>677.0</ele><time>2026-03-31T07:47:43.164Z</time></trkpt><trkpt lat="41.3345933" lon="0.7629983"><ele>677.0</ele><time>2026-03-31T07:47:44.163Z</time></trkpt><trkpt lat="41.3345983" lon="0.762905"><ele>677.0</ele><time>2026-03-31T07:47:45.163Z</time></trkpt><trkpt lat="41.3345183" lon="0.76278"><ele>677.0</ele><time>2026-03-31T07:47:47.163Z</time></trkpt><trkpt lat="41.334445" lon="0.7627483"><ele>677.0</ele><time>2026-03-31T07:47:48.164Z</time></trkpt><trkpt lat="41.334375" lon="0.7626867"><ele>677.0</ele><time>2026-03-31T07:47:49.163Z</time></trkpt><trkpt lat="41.33432" lon="0.7625933"><ele>676.75</ele><time>2026-03-31T07:47:50.164Z</time></trkpt><trkpt lat="41.3342667" lon="0.7624767"><ele>676.5</ele><time>2026-03-31T07:47:51.163Z</time></trkpt><trkpt lat="41.3341933" lon="0.7623417"><ele>676.25</ele><time>2026-03-31T07:47:52.163Z</time></trkpt><trkpt lat="41.33409" lon="0.762245"><ele>676.0</ele><time>2026-03-31T07:47:53.163Z</time></trkpt><trkpt lat="41.3339767" lon="0.762145"><ele>673.5</ele><time>2026-03-31T07:47:54.164Z</time></trkpt><trkpt lat="41.3338867" lon="0.7620267"><ele>671.0</ele><time>2026-03-31T07:47:55.163Z</time></trkpt><trkpt lat="41.3338083" lon="0.7618867"><ele>668.5</ele><time>2026-03-31T07:47:56.164Z</time></trkpt><trkpt lat="41.3337283" lon="0.7617583"><ele>666.0</ele><time>2026-03-31T07:47:57.163Z</time></trkpt><trkpt lat="41.33363" lon="0.761645"><ele>666.0</ele><time>2026-03-31T07:47:58.163Z</time></trkpt><trkpt lat="41.33351" lon="0.7615683"><ele>666.0</ele><time>2026-03-31T07:47:59.163Z</time></trkpt><trkpt lat="41.3333783" lon="0.7615033"><ele>666.0</ele><time>2026-03-31T07:48:00.164Z</time></trkpt><trkpt lat="41.3332317" lon="0.7614483"><ele>666.0</ele><time>2026-03-31T07:48:01.163Z</time></trkpt><trkpt lat="41.3330767" lon="0.7613917"><ele>660.6666666666666</ele><time>2026-03-31T07:48:02.163Z</time></trkpt><trkpt lat="41.3329133" lon="0.7613267"><ele>655.3333333333333</ele><time>2026-03-31T07:48:03.163Z</time></trkpt><trkpt lat="41.332765" lon="0.7612683"><ele>650.0</ele><time>2026-03-31T07:48:04.163Z</time></trkpt><trkpt lat="41.33261" lon="0.7612083"><ele>650.0</ele><time>2026-03-31T07:48:05.164Z</time></trkpt><trkpt lat="41.3324517" lon="0.761145"><ele>650.0</ele><time>2026-03-31T07:48:06.163Z</time></trkpt><trkpt lat="41.3323017" lon="0.761075"><ele>650.0</ele><time>2026-03-31T07:48:07.163Z</time></trkpt><trkpt lat="41.3321633" lon="0.760965"><ele>651.6666666666666</ele><time>2026-03-31T07:48:08.163Z</time></trkpt><trkpt lat="41.332025" lon="0.7608367"><ele>653.3333333333334</ele><time>2026-03-31T07:48:09.163Z</time></trkpt><trkpt lat="41.3318817" lon="0.7607233"><ele>655.0</ele><time>2026-03-31T07:48:10.163Z</time></trkpt><trkpt lat="41.33173" lon="0.7606433"><ele>655.0</ele><time>2026-03-31T07:48:11.164Z</time></trkpt><trkpt lat="41.3315767" lon="0.76058"><ele>655.0</ele><time>2026-03-31T07:48:12.163Z</time></trkpt><trkpt lat="41.3314183" lon="0.7605367"><ele>655.0</ele><time>2026-03-31T07:48:13.163Z</time></trkpt><trkpt lat="41.3312467" lon="0.76052"><ele>650.3333333333334</ele><time>2026-03-31T07:48:14.164Z</time></trkpt><trkpt lat="41.3310733" lon="0.7604983"><ele>645.6666666666666</ele><time>2026-03-31T07:48:15.163Z</time></trkpt><trkpt lat="41.3308967" lon="0.76048"><ele>641.0</ele><time>2026-03-31T07:48:16.163Z</time></trkpt><trkpt lat="41.3307267" lon="0.7604667"><ele>641.0</ele><time>2026-03-31T07:48:17.164Z</time></trkpt><trkpt lat="41.3305733" lon="0.760465"><ele>641.0</ele><time>2026-03-31T07:48:18.163Z</time></trkpt><trkpt lat="41.3304283" lon="0.76049"><ele>641.0</ele><time>2026-03-31T07:48:19.164Z</time></trkpt><trkpt lat="41.3302933" lon="0.7605467"><ele>641.0</ele><time>2026-03-31T07:48:20.164Z</time></trkpt><trkpt lat="41.3301817" lon="0.7606333"><ele>640.0</ele><time>2026-03-31T07:48:21.164Z</time></trkpt><trkpt lat="41.3300783" lon="0.7607133"><ele>639.0</ele><time>2026-03-31T07:48:22.164Z</time></trkpt><trkpt lat="41.329975" lon="0.760755"><ele>638.0</ele><time>2026-03-31T07:48:23.163Z</time></trkpt><trkpt lat="41.3298667" lon="0.7607383"><ele>637.0</ele><time>2026-03-31T07:48:24.163Z</time></trkpt><trkpt lat="41.3297517" lon="0.7607183"><ele>636.25</ele><time>2026-03-31T07:48:25.164Z</time></trkpt><trkpt lat="41.3296267" lon="0.7607267"><ele>635.5</ele><time>2026-03-31T07:48:26.163Z</time></trkpt><trkpt lat="41.329505" lon="0.7607867"><ele>634.75</ele><time>2026-03-31T07:48:27.164Z</time></trkpt><trkpt lat="41.329385" lon="0.7608733"><ele>634.0</ele><time>2026-03-31T07:48:28.163Z</time></trkpt><trkpt lat="41.3292717" lon="0.7609533"><ele>634.0</ele><time>2026-03-31T07:48:29.164Z</time></trkpt><trkpt lat="41.3291683" lon="0.761005"><ele>634.0</ele><time>2026-03-31T07:48:30.163Z</time></trkpt><trkpt lat="41.32907" lon="0.7610133"><ele>634.0</ele><time>2026-03-31T07:48:31.163Z</time></trkpt><trkpt lat="41.32898" lon="0.7609717"><ele>634.0</ele><time>2026-03-31T07:48:32.163Z</time></trkpt><trkpt lat="41.3289" lon="0.76087"><ele>634.0</ele><time>2026-03-31T07:48:33.164Z</time></trkpt><trkpt lat="41.3288233" lon="0.76074"><ele>632.25</ele><time>2026-03-31T07:48:34.164Z</time></trkpt><trkpt lat="41.328735" lon="0.7606033"><ele>630.5</ele><time>2026-03-31T07:48:35.163Z</time></trkpt><trkpt lat="41.3286467" lon="0.7604817"><ele>628.75</ele><time>2026-03-31T07:48:36.164Z</time></trkpt><trkpt lat="41.3285617" lon="0.7603567"><ele>627.0</ele><time>2026-03-31T07:48:37.163Z</time></trkpt><trkpt lat="41.328515" lon="0.7602067"><ele>625.0</ele><time>2026-03-31T07:48:38.164Z</time></trkpt><trkpt lat="41.3284983" lon="0.76005"><ele>623.0</ele><time>2026-03-31T07:48:39.163Z</time></trkpt><trkpt lat="41.3285" lon="0.7598983"><ele>621.0</ele><time>2026-03-31T07:48:40.163Z</time></trkpt><trkpt lat="41.3285267" lon="0.7597767"><ele>619.0</ele><time>2026-03-31T07:48:41.164Z</time></trkpt><trkpt lat="41.3285867" lon="0.7596533"><ele>617.0</ele><time>2026-03-31T07:48:42.163Z</time></trkpt><trkpt lat="41.3286633" lon="0.75955"><ele>617.0</ele><time>2026-03-31T07:48:43.163Z</time></trkpt><trkpt lat="41.3287633" lon="0.7594467"><ele>617.0</ele><time>2026-03-31T07:48:44.163Z</time></trkpt><trkpt lat="41.3288383" lon="0.7593333"><ele>617.0</ele><time>2026-03-31T07:48:45.164Z</time></trkpt><trkpt lat="41.328885" lon="0.7591967"><ele>617.0</ele><time>2026-03-31T07:48:46.163Z</time></trkpt><trkpt lat="41.3288817" lon="0.7590517"><ele>614.6</ele><time>2026-03-31T07:48:47.163Z</time></trkpt><trkpt lat="41.328845" lon="0.7589083"><ele>612.2</ele><time>2026-03-31T07:48:48.163Z</time></trkpt><trkpt lat="41.3288" lon="0.758775"><ele>609.8</ele><time>2026-03-31T07:48:49.164Z</time></trkpt><trkpt lat="41.3287833" lon="0.7586433"><ele>607.4</ele><time>2026-03-31T07:48:50.164Z</time></trkpt><trkpt lat="41.3288233" lon="0.7585283"><ele>605.0</ele><time>2026-03-31T07:48:51.163Z</time></trkpt><trkpt lat="41.3288917" lon="0.75841"><ele>606.5</ele><time>2026-03-31T07:48:52.163Z</time></trkpt><trkpt lat="41.3289517" lon="0.758275"><ele>608.0</ele><time>2026-03-31T07:48:53.163Z</time></trkpt><trkpt lat="41.3289667" lon="0.758125"><ele>609.5</ele><time>2026-03-31T07:48:54.164Z</time></trkpt><trkpt lat="41.328935" lon="0.7579867"><ele>611.0</ele><time>2026-03-31T07:48:55.163Z</time></trkpt><trkpt lat="41.328855" lon="0.7578467"><ele>610.0</ele><time>2026-03-31T07:48:56.163Z</time></trkpt><trkpt lat="41.32876" lon="0.7577383"><ele>609.0</ele><time>2026-03-31T07:48:57.164Z</time></trkpt><trkpt lat="41.3286417" lon="0.7576683"><ele>608.0</ele><time>2026-03-31T07:48:58.163Z</time></trkpt><trkpt lat="41.3285133" lon="0.7576333"><ele>607.0</ele><time>2026-03-31T07:48:59.163Z</time></trkpt><trkpt lat="41.328385" lon="0.757625"><ele>607.0</ele><time>2026-03-31T07:49:00.164Z</time></trkpt><trkpt lat="41.3282583" lon="0.7576267"><ele>607.0</ele><time>2026-03-31T07:49:01.164Z</time></trkpt><trkpt lat="41.32813" lon="0.7576567"><ele>607.0</ele><time>2026-03-31T07:49:02.164Z</time></trkpt><trkpt lat="41.3280083" lon="0.757725"><ele>607.0</ele><time>2026-03-31T07:49:03.165Z</time></trkpt><trkpt lat="41.3278867" lon="0.7578217"><ele>603.75</ele><time>2026-03-31T07:49:04.165Z</time></trkpt><trkpt lat="41.3277633" lon="0.7579367"><ele>600.5</ele><time>2026-03-31T07:49:05.165Z</time></trkpt><trkpt lat="41.3276533" lon="0.7580433"><ele>597.25</ele><time>2026-03-31T07:49:06.164Z</time></trkpt><trkpt lat="41.3275383" lon="0.7581217"><ele>594.0</ele><time>2026-03-31T07:49:07.164Z</time></trkpt><trkpt lat="41.3274133" lon="0.7581717"><ele>594.0</ele><time>2026-03-31T07:49:08.165Z</time></trkpt><trkpt lat="41.3272817" lon="0.758185"><ele>594.0</ele><time>2026-03-31T07:49:09.164Z</time></trkpt><trkpt lat="41.327145" lon="0.758165"><ele>594.0</ele><time>2026-03-31T07:49:10.164Z</time></trkpt><trkpt lat="41.327025" lon="0.7580833"><ele>594.0</ele><time>2026-03-31T07:49:11.164Z</time></trkpt><trkpt lat="41.32694" lon="0.757965"><ele>594.6</ele><time>2026-03-31T07:49:12.164Z</time></trkpt><trkpt lat="41.3268867" lon="0.757815"><ele>595.2</ele><time>2026-03-31T07:49:13.165Z</time></trkpt><trkpt lat="41.326825" lon="0.7576783"><ele>595.8000000000001</ele><time>2026-03-31T07:49:14.164Z</time></trkpt><trkpt lat="41.3267517" lon="0.75758"><ele>596.4</ele><time>2026-03-31T07:49:15.165Z</time></trkpt><trkpt lat="41.32667" lon="0.75754"><ele>597.0</ele><time>2026-03-31T07:49:16.164Z</time></trkpt><trkpt lat="41.326555" lon="0.7575633"><ele>597.0</ele><time>2026-03-31T07:49:17.164Z</time></trkpt><trkpt lat="41.326445" lon="0.7576433"><ele>597.0</ele><time>2026-03-31T07:49:18.164Z</time></trkpt><trkpt lat="41.32634" lon="0.7577583"><ele>597.0</ele><time>2026-03-31T07:49:19.165Z</time></trkpt><trkpt lat="41.3262267" lon="0.7578567"><ele>597.0</ele><time>2026-03-31T07:49:20.164Z</time></trkpt><trkpt lat="41.3261133" lon="0.7579233"><ele>591.75</ele><time>2026-03-31T07:49:21.164Z</time></trkpt><trkpt lat="41.3259833" lon="0.7579483"><ele>586.5</ele><time>2026-03-31T07:49:22.165Z</time></trkpt><trkpt lat="41.325845" lon="0.7579233"><ele>581.25</ele><time>2026-03-31T07:49:23.164Z</time></trkpt><trkpt lat="41.325695" lon="0.757905"><ele>576.0</ele><time>2026-03-31T07:49:24.165Z</time></trkpt><trkpt lat="41.3255483" lon="0.7578967"><ele>573.5</ele><time>2026-03-31T07:49:25.165Z</time></trkpt><trkpt lat="41.3254083" lon="0.75789"><ele>571.0</ele><time>2026-03-31T07:49:26.165Z</time></trkpt><trkpt lat="41.3252583" lon="0.7578833"><ele>568.5</ele><time>2026-03-31T07:49:27.164Z</time></trkpt><trkpt lat="41.3251133" lon="0.75789"><ele>566.0</ele><time>2026-03-31T07:49:28.164Z</time></trkpt><trkpt lat="41.32496" lon="0.7578883"><ele>566.0</ele><time>2026-03-31T07:49:29.164Z</time></trkpt><trkpt lat="41.3248217" lon="0.7578633"><ele>566.0</ele><time>2026-03-31T07:49:30.164Z</time></trkpt><trkpt lat="41.3246967" lon="0.7577917"><ele>566.0</ele><time>2026-03-31T07:49:31.164Z</time></trkpt><trkpt lat="41.3245983" lon="0.7576867"><ele>566.0</ele><time>2026-03-31T07:49:32.164Z</time></trkpt><trkpt lat="41.3245333" lon="0.7575667"><ele>565.0</ele><time>2026-03-31T07:49:33.165Z</time></trkpt><trkpt lat="41.3245067" lon="0.75742"><ele>564.0</ele><time>2026-03-31T07:49:34.165Z</time></trkpt><trkpt lat="41.3245017" lon="0.7572483"><ele>563.0</ele><time>2026-03-31T07:49:35.165Z</time></trkpt><trkpt lat="41.324495" lon="0.75706"><ele>562.0</ele><time>2026-03-31T07:49:36.164Z</time></trkpt><trkpt lat="41.3244783" lon="0.75688"><ele>563.5</ele><time>2026-03-31T07:49:37.164Z</time></trkpt><trkpt lat="41.3244467" lon="0.756725"><ele>565.0</ele><time>2026-03-31T07:49:38.164Z</time></trkpt><trkpt lat="41.3243983" lon="0.756575"><ele>566.5</ele><time>2026-03-31T07:49:39.165Z</time></trkpt><trkpt lat="41.3243267" lon="0.7564367"><ele>568.0</ele><time>2026-03-31T07:49:40.165Z</time></trkpt><trkpt lat="41.3242483" lon="0.7563283"><ele>568.0</ele><time>2026-03-31T07:49:41.165Z</time></trkpt><trkpt lat="41.3241467" lon="0.7562533"><ele>568.0</ele><time>2026-03-31T07:49:42.165Z</time></trkpt><trkpt lat="41.3240267" lon="0.7562283"><ele>568.0</ele><time>2026-03-31T07:49:43.164Z</time></trkpt><trkpt lat="41.32392" lon="0.75629"><ele>568.0</ele><time>2026-03-31T07:49:44.165Z</time></trkpt><trkpt lat="41.3238217" lon="0.756405"><ele>567.25</ele><time>2026-03-31T07:49:45.165Z</time></trkpt><trkpt lat="41.3237617" lon="0.7565533"><ele>566.5</ele><time>2026-03-31T07:49:46.164Z</time></trkpt><trkpt lat="41.3237317" lon="0.75672"><ele>565.75</ele><time>2026-03-31T07:49:47.164Z</time></trkpt><trkpt lat="41.32369" lon="0.75688"><ele>565.0</ele><time>2026-03-31T07:49:48.164Z</time></trkpt><trkpt lat="41.3236433" lon="0.7570167"><ele>562.2</ele><time>2026-03-31T07:49:49.165Z</time></trkpt><trkpt lat="41.3235683" lon="0.7571367"><ele>559.4</ele><time>2026-03-31T07:49:50.164Z</time></trkpt><trkpt lat="41.3234767" lon="0.7572"><ele>556.6</ele><time>2026-03-31T07:49:51.164Z</time></trkpt><trkpt lat="41.3233817" lon="0.7571967"><ele>553.8</ele><time>2026-03-31T07:49:52.164Z</time></trkpt><trkpt lat="41.3233117" lon="0.75715"><ele>551.0</ele><time>2026-03-31T07:49:53.164Z</time></trkpt><trkpt lat="41.323255" lon="0.7570767"><ele>551.0</ele><time>2026-03-31T07:49:54.164Z</time></trkpt><trkpt lat="41.3232183" lon="0.7569733"><ele>551.0</ele><time>2026-03-31T07:49:55.165Z</time></trkpt><trkpt lat="41.3232283" lon="0.756825"><ele>551.0</ele><time>2026-03-31T07:49:56.165Z</time></trkpt><trkpt lat="41.3232533" lon="0.7566483"><ele>551.0</ele><time>2026-03-31T07:49:57.164Z</time></trkpt><trkpt lat="41.3232767" lon="0.7564467"><ele>553.25</ele><time>2026-03-31T07:49:58.165Z</time></trkpt><trkpt lat="41.3232617" lon="0.75629"><ele>555.5</ele><time>2026-03-31T07:49:59.165Z</time></trkpt><trkpt lat="41.3232033" lon="0.7561633"><ele>557.75</ele><time>2026-03-31T07:50:00.164Z</time></trkpt><trkpt lat="41.3231117" lon="0.756075"><ele>560.0</ele><time>2026-03-31T07:50:01.164Z</time></trkpt><trkpt lat="41.323" lon="0.756045"><ele>560.0</ele><time>2026-03-31T07:50:02.164Z</time></trkpt><trkpt lat="41.3228817" lon="0.7560733"><ele>560.0</ele><time>2026-03-31T07:50:03.164Z</time></trkpt><trkpt lat="41.3227633" lon="0.756165"><ele>560.0</ele><time>2026-03-31T07:50:04.164Z</time></trkpt><trkpt lat="41.3226717" lon="0.75631"><ele>560.0</ele><time>2026-03-31T07:50:05.165Z</time></trkpt><trkpt lat="41.3226067" lon="0.7564917"><ele>560.0</ele><time>2026-03-31T07:50:06.165Z</time></trkpt><trkpt lat="41.3225433" lon="0.7566433"><ele>560.0</ele><time>2026-03-31T07:50:07.164Z</time></trkpt><trkpt lat="41.322465" lon="0.7567417"><ele>560.0</ele><time>2026-03-31T07:50:08.165Z</time></trkpt><trkpt lat="41.32237" lon="0.7567933"><ele>560.0</ele><time>2026-03-31T07:50:09.165Z</time></trkpt><trkpt lat="41.32226" lon="0.7568017"><ele>562.75</ele><time>2026-03-31T07:50:10.165Z</time></trkpt><trkpt lat="41.322145" lon="0.756765"><ele>565.5</ele><time>2026-03-31T07:50:11.164Z</time></trkpt><trkpt lat="41.32203" lon="0.756715"><ele>568.25</ele><time>2026-03-31T07:50:12.164Z</time></trkpt><trkpt lat="41.3219067" lon="0.7567"><ele>571.0</ele><time>2026-03-31T07:50:13.165Z</time></trkpt><trkpt lat="41.3217917" lon="0.75674"><ele>571.0</ele><time>2026-03-31T07:50:14.164Z</time></trkpt><trkpt lat="41.3216917" lon="0.756835"><ele>571.0</ele><time>2026-03-31T07:50:15.164Z</time></trkpt><trkpt lat="41.3216267" lon="0.7569833"><ele>571.0</ele><time>2026-03-31T07:50:16.164Z</time></trkpt><trkpt lat="41.321605" lon="0.7571517"><ele>571.0</ele><time>2026-03-31T07:50:17.164Z</time></trkpt><trkpt lat="41.3216083" lon="0.7573417"><ele>567.0</ele><time>2026-03-31T07:50:18.164Z</time></trkpt><trkpt lat="41.3216167" lon="0.7575367"><ele>563.0</ele><time>2026-03-31T07:50:19.164Z</time></trkpt><trkpt lat="41.3216367" lon="0.7577117"><ele>559.0</ele><time>2026-03-31T07:50:20.164Z</time></trkpt><trkpt lat="41.3216817" lon="0.7578783"><ele>555.0</ele><time>2026-03-31T07:50:21.164Z</time></trkpt><trkpt lat="41.3217283" lon="0.7580267"><ele>554.0</ele><time>2026-03-31T07:50:22.164Z</time></trkpt><trkpt lat="41.3217833" lon="0.7581783"><ele>553.0</ele><time>2026-03-31T07:50:23.164Z</time></trkpt><trkpt lat="41.3218117" lon="0.758325"><ele>552.0</ele><time>2026-03-31T07:50:24.164Z</time></trkpt><trkpt lat="41.3217967" lon="0.758485"><ele>551.0</ele><time>2026-03-31T07:50:25.165Z</time></trkpt><trkpt lat="41.321755" lon="0.758665"><ele>549.25</ele><time>2026-03-31T07:50:26.164Z</time></trkpt><trkpt lat="41.32172" lon="0.75886"><ele>547.5</ele><time>2026-03-31T07:50:27.165Z</time></trkpt><trkpt lat="41.3216817" lon="0.7590483"><ele>545.75</ele><time>2026-03-31T07:50:28.165Z</time></trkpt><trkpt lat="41.3216383" lon="0.7592283"><ele>544.0</ele><time>2026-03-31T07:50:29.164Z</time></trkpt><trkpt lat="41.3215933" lon="0.7593867"><ele>545.5</ele><time>2026-03-31T07:50:30.165Z</time></trkpt><trkpt lat="41.32153" lon="0.759525"><ele>547.0</ele><time>2026-03-31T07:50:31.164Z</time></trkpt><trkpt lat="41.321445" lon="0.7596383"><ele>548.5</ele><time>2026-03-31T07:50:32.164Z</time></trkpt><trkpt lat="41.321325" lon="0.7597217"><ele>550.0</ele><time>2026-03-31T07:50:33.165Z</time></trkpt><trkpt lat="41.3212" lon="0.7598"><ele>550.0</ele><time>2026-03-31T07:50:34.165Z</time></trkpt><trkpt lat="41.3210967" lon="0.7599217"><ele>550.0</ele><time>2026-03-31T07:50:35.164Z</time></trkpt><trkpt lat="41.3210317" lon="0.7600733"><ele>550.0</ele><time>2026-03-31T07:50:36.165Z</time></trkpt><trkpt lat="41.3209733" lon="0.760225"><ele>550.0</ele><time>2026-03-31T07:50:37.165Z</time></trkpt><trkpt lat="41.320905" lon="0.7603683"><ele>545.5</ele><time>2026-03-31T07:50:38.164Z</time></trkpt><trkpt lat="41.3208167" lon="0.760495"><ele>541.0</ele><time>2026-03-31T07:50:39.164Z</time></trkpt><trkpt lat="41.3207083" lon="0.7605833"><ele>536.5</ele><time>2026-03-31T07:50:40.164Z</time></trkpt><trkpt lat="41.3205883" lon="0.760645"><ele>532.0</ele><time>2026-03-31T07:50:41.165Z</time></trkpt><trkpt lat="41.32045" lon="0.76068"><ele>530.5</ele><time>2026-03-31T07:50:42.165Z</time></trkpt><trkpt lat="41.3203167" lon="0.76071"><ele>529.0</ele><time>2026-03-31T07:50:43.164Z</time></trkpt><trkpt lat="41.3201867" lon="0.76072"><ele>527.5</ele><time>2026-03-31T07:50:44.164Z</time></trkpt><trkpt lat="41.3200717" lon="0.760685"><ele>526.0</ele><time>2026-03-31T07:50:45.164Z</time></trkpt><trkpt lat="41.319965" lon="0.7606017"><ele>526.0</ele><time>2026-03-31T07:50:46.165Z</time></trkpt><trkpt lat="41.3198867" lon="0.76048"><ele>526.0</ele><time>2026-03-31T07:50:47.164Z</time></trkpt><trkpt lat="41.3198083" lon="0.76036"><ele>526.0</ele><time>2026-03-31T07:50:48.165Z</time></trkpt><trkpt lat="41.3197267" lon="0.7602867"><ele>526.0</ele><time>2026-03-31T07:50:49.165Z</time></trkpt><trkpt lat="41.3196317" lon="0.7602717"><ele>526.0</ele><time>2026-03-31T07:50:50.165Z</time></trkpt><trkpt lat="41.3195317" lon="0.7603067"><ele>528.75</ele><time>2026-03-31T07:50:51.165Z</time></trkpt><trkpt lat="41.3194467" lon="0.7603917"><ele>531.5</ele><time>2026-03-31T07:50:52.165Z</time></trkpt><trkpt lat="41.31939" lon="0.7605117"><ele>534.25</ele><time>2026-03-31T07:50:53.164Z</time></trkpt><trkpt lat="41.319375" lon="0.76067"><ele>537.0</ele><time>2026-03-31T07:50:54.165Z</time></trkpt><trkpt lat="41.3193567" lon="0.76084"><ele>537.0</ele><time>2026-03-31T07:50:55.164Z</time></trkpt><trkpt lat="41.319315" lon="0.7609817"><ele>537.0</ele><time>2026-03-31T07:50:56.165Z</time></trkpt><trkpt lat="41.3192467" lon="0.7611117"><ele>537.0</ele><time>2026-03-31T07:50:57.164Z</time></trkpt><trkpt lat="41.3191533" lon="0.7612267"><ele>537.0</ele><time>2026-03-31T07:50:58.165Z</time></trkpt><trkpt lat="41.3190433" lon="0.7613417"><ele>540.0</ele><time>2026-03-31T07:50:59.164Z</time></trkpt><trkpt lat="41.3189333" lon="0.76146"><ele>543.0</ele><time>2026-03-31T07:51:00.165Z</time></trkpt><trkpt lat="41.3188217" lon="0.7615933"><ele>546.0</ele><time>2026-03-31T07:51:01.164Z</time></trkpt><trkpt lat="41.3187433" lon="0.76176"><ele>549.0</ele><time>2026-03-31T07:51:02.164Z</time></trkpt><trkpt lat="41.318695" lon="0.7619317"><ele>542.5</ele><time>2026-03-31T07:51:03.164Z</time></trkpt><trkpt lat="41.3186667" lon="0.7620917"><ele>536.0</ele><time>2026-03-31T07:51:04.164Z</time></trkpt><trkpt lat="41.3186283" lon="0.7622283"><ele>529.5</ele><time>2026-03-31T07:51:05.164Z</time></trkpt><trkpt lat="41.318555" lon="0.7623617"><ele>523.0</ele><time>2026-03-31T07:51:06.164Z</time></trkpt><trkpt lat="41.31846" lon="0.762475"><ele>523.0</ele><time>2026-03-31T07:51:07.165Z</time></trkpt><trkpt lat="41.3183433" lon="0.7625667"><ele>523.0</ele><time>2026-03-31T07:51:08.165Z</time></trkpt><trkpt lat="41.3182017" lon="0.7626483"><ele>523.0</ele><time>2026-03-31T07:51:09.164Z</time></trkpt><trkpt lat="41.3180517" lon="0.76271"><ele>523.0</ele><time>2026-03-31T07:51:10.165Z</time></trkpt><trkpt lat="41.3178983" lon="0.762775"><ele>518.0</ele><time>2026-03-31T07:51:11.165Z</time></trkpt><trkpt lat="41.317745" lon="0.76285"><ele>513.0</ele><time>2026-03-31T07:51:12.165Z</time></trkpt><trkpt lat="41.31761" lon="0.7628983"><ele>508.0</ele><time>2026-03-31T07:51:13.165Z</time></trkpt><trkpt lat="41.3174833" lon="0.76291"><ele>503.0</ele><time>2026-03-31T07:51:14.164Z</time></trkpt><trkpt lat="41.317375" lon="0.7628733"><ele>503.0</ele><time>2026-03-31T07:51:15.164Z</time></trkpt><trkpt lat="41.3172983" lon="0.7627967"><ele>502.99999999999994</ele><time>2026-03-31T07:51:16.165Z</time></trkpt><trkpt lat="41.317245" lon="0.7626817"><ele>502.99999999999994</ele><time>2026-03-31T07:51:17.164Z</time></trkpt><trkpt lat="41.317205" lon="0.76256"><ele>503.0</ele><time>2026-03-31T07:51:18.164Z</time></trkpt><trkpt lat="41.3171417" lon="0.7624233"><ele>503.0</ele><time>2026-03-31T07:51:19.165Z</time></trkpt><trkpt lat="41.3170517" lon="0.7623283"><ele>505.2</ele><time>2026-03-31T07:51:20.165Z</time></trkpt><trkpt lat="41.3169417" lon="0.7622833"><ele>507.4</ele><time>2026-03-31T07:51:21.165Z</time></trkpt><trkpt lat="41.3168283" lon="0.7622867"><ele>509.59999999999997</ele><time>2026-03-31T07:51:22.164Z</time></trkpt><trkpt lat="41.3167317" lon="0.7623333"><ele>511.79999999999995</ele><time>2026-03-31T07:51:23.164Z</time></trkpt><trkpt lat="41.3166683" lon="0.76243"><ele>514.0</ele><time>2026-03-31T07:51:24.164Z</time></trkpt><trkpt lat="41.3166317" lon="0.762555"><ele>512.75</ele><time>2026-03-31T07:51:25.165Z</time></trkpt><trkpt lat="41.3166333" lon="0.7627017"><ele>511.5</ele><time>2026-03-31T07:51:26.164Z</time></trkpt><trkpt lat="41.316665" lon="0.7628667"><ele>510.25</ele><time>2026-03-31T07:51:27.165Z</time></trkpt><trkpt lat="41.3167033" lon="0.7630383"><ele>509.0</ele><time>2026-03-31T07:51:28.164Z</time></trkpt><trkpt lat="41.3167133" lon="0.7632017"><ele>509.0</ele><time>2026-03-31T07:51:29.164Z</time></trkpt><trkpt lat="41.3166917" lon="0.7633433"><ele>509.0</ele><time>2026-03-31T07:51:30.165Z</time></trkpt><trkpt lat="41.3166383" lon="0.7634783"><ele>509.0</ele><time>2026-03-31T07:51:31.164Z</time></trkpt><trkpt lat="41.3165583" lon="0.76361"><ele>509.0</ele><time>2026-03-31T07:51:32.164Z</time></trkpt><trkpt lat="41.31646" lon="0.76375"><ele>507.75</ele><time>2026-03-31T07:51:33.164Z</time></trkpt><trkpt lat="41.31637" lon="0.763885"><ele>506.5</ele><time>2026-03-31T07:51:34.164Z</time></trkpt><trkpt lat="41.31628" lon="0.76401"><ele>505.25</ele><time>2026-03-31T07:51:35.164Z</time></trkpt><trkpt lat="41.3161867" lon="0.7641017"><ele>504.0</ele><time>2026-03-31T07:51:36.165Z</time></trkpt><trkpt lat="41.3160767" lon="0.7641633"><ele>504.0</ele><time>2026-03-31T07:51:37.164Z</time></trkpt><trkpt lat="41.315975" lon="0.7641833"><ele>504.0</ele><time>2026-03-31T07:51:38.165Z</time></trkpt><trkpt lat="41.315845" lon="0.7641567"><ele>504.0</ele><time>2026-03-31T07:51:39.164Z</time></trkpt><trkpt lat="41.3157383" lon="0.76416"><ele>504.0</ele><time>2026-03-31T07:51:40.164Z</time></trkpt><trkpt lat="41.31565" lon="0.7642067"><ele>504.0</ele><time>2026-03-31T07:51:41.164Z</time></trkpt><trkpt lat="41.3155867" lon="0.7642983"><ele>502.6</ele><time>2026-03-31T07:51:42.164Z</time></trkpt><trkpt lat="41.3155667" lon="0.764425"><ele>501.2</ele><time>2026-03-31T07:51:43.165Z</time></trkpt><trkpt lat="41.3155783" lon="0.7645583"><ele>499.80000000000007</ele><time>2026-03-31T07:51:44.165Z</time></trkpt><trkpt lat="41.3156317" lon="0.76467"><ele>498.40000000000003</ele><time>2026-03-31T07:51:45.165Z</time></trkpt><trkpt lat="41.315675" lon="0.7647733"><ele>497.0</ele><time>2026-03-31T07:51:46.165Z</time></trkpt><trkpt lat="41.315685" lon="0.7649033"><ele>497.0</ele><time>2026-03-31T07:51:47.164Z</time></trkpt><trkpt lat="41.3156783" lon="0.7650467"><ele>497.0</ele><time>2026-03-31T07:51:48.164Z</time></trkpt><trkpt lat="41.3156567" lon="0.7652133"><ele>497.0</ele><time>2026-03-31T07:51:49.165Z</time></trkpt><trkpt lat="41.31564" lon="0.7653883"><ele>497.0</ele><time>2026-03-31T07:51:50.164Z</time></trkpt><trkpt lat="41.3156567" lon="0.7655633"><ele>496.6</ele><time>2026-03-31T07:51:51.164Z</time></trkpt><trkpt lat="41.3156817" lon="0.7657367"><ele>496.20000000000005</ele><time>2026-03-31T07:51:52.165Z</time></trkpt><trkpt lat="41.3157" lon="0.76589"><ele>495.8</ele><time>2026-03-31T07:51:53.164Z</time></trkpt><trkpt lat="41.3156983" lon="0.7660167"><ele>495.4</ele><time>2026-03-31T07:51:54.164Z</time></trkpt><trkpt lat="41.3156617" lon="0.7661333"><ele>495.0</ele><time>2026-03-31T07:51:55.164Z</time></trkpt><trkpt lat="41.3155967" lon="0.7662433"><ele>494.5</ele><time>2026-03-31T07:51:56.164Z</time></trkpt><trkpt lat="41.3154917" lon="0.766355"><ele>494.0</ele><time>2026-03-31T07:51:57.165Z</time></trkpt><trkpt lat="41.31537" lon="0.7664633"><ele>493.5</ele><time>2026-03-31T07:51:58.164Z</time></trkpt><trkpt lat="41.3152433" lon="0.7665817"><ele>493.0</ele><time>2026-03-31T07:51:59.165Z</time></trkpt><trkpt lat="41.31512" lon="0.766675"><ele>493.0</ele><time>2026-03-31T07:52:00.165Z</time></trkpt><trkpt lat="41.3149917" lon="0.7667367"><ele>493.0</ele><time>2026-03-31T07:52:01.164Z</time></trkpt><trkpt lat="41.31488" lon="0.7667933"><ele>493.0</ele><time>2026-03-31T07:52:02.164Z</time></trkpt><trkpt lat="41.3147917" lon="0.7668817"><ele>493.0</ele><time>2026-03-31T07:52:03.165Z</time></trkpt><trkpt lat="41.31472" lon="0.76702"><ele>492.75</ele><time>2026-03-31T07:52:04.164Z</time></trkpt><trkpt lat="41.3146533" lon="0.7671817"><ele>492.5</ele><time>2026-03-31T07:52:05.165Z</time></trkpt><trkpt lat="41.31459" lon="0.7673567"><ele>492.25</ele><time>2026-03-31T07:52:06.164Z</time></trkpt><trkpt lat="41.3145267" lon="0.7675333"><ele>492.0</ele><time>2026-03-31T07:52:07.165Z</time></trkpt><trkpt lat="41.314465" lon="0.7677083"><ele>492.0</ele><time>2026-03-31T07:52:08.165Z</time></trkpt><trkpt lat="41.3143933" lon="0.767875"><ele>492.0</ele><time>2026-03-31T07:52:09.165Z</time></trkpt><trkpt lat="41.3142917" lon="0.7680333"><ele>492.0</ele><time>2026-03-31T07:52:10.164Z</time></trkpt><trkpt lat="41.3142" lon="0.76818"><ele>492.0</ele><time>2026-03-31T07:52:11.164Z</time></trkpt><trkpt lat="41.3141133" lon="0.7683417"><ele>492.0</ele><time>2026-03-31T07:52:12.164Z</time></trkpt><trkpt lat="41.31404" lon="0.7684983"><ele>492.0</ele><time>2026-03-31T07:52:13.164Z</time></trkpt><trkpt lat="41.3139533" lon="0.7686333"><ele>492.0</ele><time>2026-03-31T07:52:14.164Z</time></trkpt><trkpt lat="41.3138467" lon="0.7687367"><ele>492.0</ele><time>2026-03-31T07:52:15.165Z</time></trkpt><trkpt lat="41.3137033" lon="0.7688017"><ele>487.33333333333337</ele><time>2026-03-31T07:52:16.164Z</time></trkpt><trkpt lat="41.3135517" lon="0.768865"><ele>482.6666666666667</ele><time>2026-03-31T07:52:17.164Z</time></trkpt><trkpt lat="41.3133883" lon="0.7689183"><ele>478.0</ele><time>2026-03-31T07:52:18.164Z</time></trkpt><trkpt lat="41.3132183" lon="0.7689767"><ele>482.0</ele><time>2026-03-31T07:52:19.164Z</time></trkpt><trkpt lat="41.3130567" lon="0.7690583"><ele>486.0</ele><time>2026-03-31T07:52:20.165Z</time></trkpt><trkpt lat="41.3128867" lon="0.7691567"><ele>490.0</ele><time>2026-03-31T07:52:21.164Z</time></trkpt><trkpt lat="41.312715" lon="0.7692767"><ele>482.0</ele><time>2026-03-31T07:52:22.165Z</time></trkpt><trkpt lat="41.312555" lon="0.7694117"><ele>474.0</ele><time>2026-03-31T07:52:23.164Z</time></trkpt><trkpt lat="41.3124017" lon="0.7695433"><ele>466.0</ele><time>2026-03-31T07:52:24.164Z</time></trkpt><trkpt lat="41.312265" lon="0.7696417"><ele>465.75</ele><time>2026-03-31T07:52:25.164Z</time></trkpt><trkpt lat="41.3121433" lon="0.7697083"><ele>465.5</ele><time>2026-03-31T07:52:26.164Z</time></trkpt><trkpt lat="41.312025" lon="0.7697367"><ele>465.25</ele><time>2026-03-31T07:52:27.165Z</time></trkpt><trkpt lat="41.3119133" lon="0.7697217"><ele>465.0</ele><time>2026-03-31T07:52:28.164Z</time></trkpt><trkpt lat="41.3118117" lon="0.769645"><ele>465.0</ele><time>2026-03-31T07:52:29.164Z</time></trkpt><trkpt lat="41.311715" lon="0.7695333"><ele>465.0</ele><time>2026-03-31T07:52:30.165Z</time></trkpt><trkpt lat="41.3116133" lon="0.7694417"><ele>465.0</ele><time>2026-03-31T07:52:31.164Z</time></trkpt><trkpt lat="41.311495" lon="0.7693983"><ele>465.0</ele><time>2026-03-31T07:52:32.164Z</time></trkpt><trkpt lat="41.311375" lon="0.769405"><ele>466.5</ele><time>2026-03-31T07:52:33.164Z</time></trkpt><trkpt lat="41.3112383" lon="0.7693883"><ele>468.0</ele><time>2026-03-31T07:52:34.165Z</time></trkpt><trkpt lat="41.3110967" lon="0.76934"><ele>469.5</ele><time>2026-03-31T07:52:35.164Z</time></trkpt><trkpt lat="41.3109533" lon="0.7692567"><ele>471.0</ele><time>2026-03-31T07:52:36.164Z</time></trkpt><trkpt lat="41.31082" lon="0.769175"><ele>471.0</ele><time>2026-03-31T07:52:37.164Z</time></trkpt><trkpt lat="41.3107133" lon="0.7690983"><ele>471.0</ele><time>2026-03-31T07:52:38.164Z</time></trkpt><trkpt lat="41.3106217" lon="0.7689983"><ele>471.0</ele><time>2026-03-31T07:52:39.165Z</time></trkpt><trkpt lat="41.310575" lon="0.7688867"><ele>471.0</ele><time>2026-03-31T07:52:40.164Z</time></trkpt><trkpt lat="41.310585" lon="0.768755"><ele>471.0</ele><time>2026-03-31T07:52:41.164Z</time></trkpt><trkpt lat="41.31062" lon="0.768625"><ele>472.8</ele><time>2026-03-31T07:52:42.164Z</time></trkpt><trkpt lat="41.3106483" lon="0.7685017"><ele>474.6</ele><time>2026-03-31T07:52:43.164Z</time></trkpt><trkpt lat="41.3106233" lon="0.7683867"><ele>476.4</ele><time>2026-03-31T07:52:44.165Z</time></trkpt><trkpt lat="41.3105633" lon="0.7682933"><ele>478.2</ele><time>2026-03-31T07:52:45.164Z</time></trkpt><trkpt lat="41.3104633" lon="0.7682533"><ele>480.0</ele><time>2026-03-31T07:52:46.164Z</time></trkpt><trkpt lat="41.3103533" lon="0.768275"><ele>480.0</ele><time>2026-03-31T07:52:47.164Z</time></trkpt><trkpt lat="41.3102417" lon="0.7683367"><ele>480.0</ele><time>2026-03-31T07:52:48.164Z</time></trkpt><trkpt lat="41.3101533" lon="0.7684583"><ele>480.0</ele><time>2026-03-31T07:52:49.165Z</time></trkpt><trkpt lat="41.3100833" lon="0.768625"><ele>480.0</ele><time>2026-03-31T07:52:50.164Z</time></trkpt><trkpt lat="41.310005" lon="0.7687517"><ele>477.8</ele><time>2026-03-31T07:52:51.165Z</time></trkpt><trkpt lat="41.309915" lon="0.76882"><ele>475.6</ele><time>2026-03-31T07:52:52.164Z</time></trkpt><trkpt lat="41.3098167" lon="0.76883"><ele>473.4</ele><time>2026-03-31T07:52:53.164Z</time></trkpt><trkpt lat="41.30971" lon="0.7688067"><ele>471.2</ele><time>2026-03-31T07:52:54.165Z</time></trkpt><trkpt lat="41.3096083" lon="0.7688017"><ele>469.0</ele><time>2026-03-31T07:52:55.164Z</time></trkpt><trkpt lat="41.3095017" lon="0.7688367"><ele>469.0</ele><time>2026-03-31T07:52:56.164Z</time></trkpt><trkpt lat="41.309395" lon="0.7689133"><ele>469.0</ele><time>2026-03-31T07:52:57.165Z</time></trkpt><trkpt lat="41.3092917" lon="0.769"><ele>469.0</ele><time>2026-03-31T07:52:58.165Z</time></trkpt><trkpt lat="41.3091933" lon="0.7690817"><ele>469.0</ele><time>2026-03-31T07:52:59.164Z</time></trkpt><trkpt lat="41.3091" lon="0.7691583"><ele>469.0</ele><time>2026-03-31T07:53:00.164Z</time></trkpt><trkpt lat="41.3090117" lon="0.76921"><ele>469.0</ele><time>2026-03-31T07:53:01.164Z</time></trkpt><trkpt lat="41.3089067" lon="0.7692333"><ele>469.0</ele><time>2026-03-31T07:53:02.165Z</time></trkpt><trkpt lat="41.3087983" lon="0.7692317"><ele>469.0</ele><time>2026-03-31T07:53:03.164Z</time></trkpt><trkpt lat="41.30868" lon="0.7691833"><ele>469.0</ele><time>2026-03-31T07:53:04.164Z</time></trkpt><trkpt lat="41.30856" lon="0.7691067"><ele>466.0</ele><time>2026-03-31T07:53:05.164Z</time></trkpt><trkpt lat="41.308435" lon="0.7690167"><ele>463.0</ele><time>2026-03-31T07:53:06.164Z</time></trkpt><trkpt lat="41.3083217" lon="0.768915"><ele>460.0</ele><time>2026-03-31T07:53:07.164Z</time></trkpt><trkpt lat="41.3082183" lon="0.7688017"><ele>457.0</ele><time>2026-03-31T07:53:08.164Z</time></trkpt><trkpt lat="41.30812" lon="0.7686767"><ele>454.75</ele><time>2026-03-31T07:53:09.165Z</time></trkpt><trkpt lat="41.3080283" lon="0.76854"><ele>452.5</ele><time>2026-03-31T07:53:10.164Z</time></trkpt><trkpt lat="41.3079333" lon="0.768385"><ele>450.25</ele><time>2026-03-31T07:53:11.164Z</time></trkpt><trkpt lat="41.3078367" lon="0.7682233"><ele>448.0</ele><time>2026-03-31T07:53:12.164Z</time></trkpt><trkpt lat="41.30775" lon="0.7680717"><ele>448.0</ele><time>2026-03-31T07:53:13.164Z</time></trkpt><trkpt lat="41.3076633" lon="0.76793"><ele>448.0</ele><time>2026-03-31T07:53:14.164Z</time></trkpt><trkpt lat="41.3075833" lon="0.7677767"><ele>448.0</ele><time>2026-03-31T07:53:15.164Z</time></trkpt><trkpt lat="41.3074983" lon="0.7676517"><ele>448.0</ele><time>2026-03-31T07:53:16.164Z</time></trkpt><trkpt lat="41.3074317" lon="0.7675467"><ele>446.4</ele><time>2026-03-31T07:53:17.164Z</time></trkpt><trkpt lat="41.3073467" lon="0.76749"><ele>444.79999999999995</ele><time>2026-03-31T07:53:18.165Z</time></trkpt><trkpt lat="41.30726" lon="0.7674933"><ele>443.2</ele><time>2026-03-31T07:53:19.164Z</time></trkpt><trkpt lat="41.30717" lon="0.7675433"><ele>441.6</ele><time>2026-03-31T07:53:20.164Z</time></trkpt><trkpt lat="41.3070767" lon="0.76764"><ele>440.0</ele><time>2026-03-31T07:53:21.165Z</time></trkpt><trkpt lat="41.3069633" lon="0.767705"><ele>440.0</ele><time>2026-03-31T07:53:22.164Z</time></trkpt><trkpt lat="41.3068267" lon="0.7677217"><ele>440.0</ele><time>2026-03-31T07:53:23.164Z</time></trkpt><trkpt lat="41.3066833" lon="0.7676933"><ele>440.0</ele><time>2026-03-31T07:53:24.165Z</time></trkpt><trkpt lat="41.3065333" lon="0.76767"><ele>440.0</ele><time>2026-03-31T07:53:25.165Z</time></trkpt><trkpt lat="41.3063783" lon="0.7676683"><ele>440.66666666666663</ele><time>2026-03-31T07:53:26.165Z</time></trkpt><trkpt lat="41.3062117" lon="0.7677"><ele>441.33333333333337</ele><time>2026-03-31T07:53:27.165Z</time></trkpt><trkpt lat="41.3060533" lon="0.7677567"><ele>442.0</ele><time>2026-03-31T07:53:28.164Z</time></trkpt><trkpt lat="41.3059" lon="0.7678167"><ele>442.0</ele><time>2026-03-31T07:53:29.165Z</time></trkpt><trkpt lat="41.3057417" lon="0.76788"><ele>442.0</ele><time>2026-03-31T07:53:30.165Z</time></trkpt><trkpt lat="41.3056" lon="0.7679433"><ele>442.0</ele><time>2026-03-31T07:53:31.164Z</time></trkpt><trkpt lat="41.3054667" lon="0.76803"><ele>443.25</ele><time>2026-03-31T07:53:32.164Z</time></trkpt><trkpt lat="41.30535" lon="0.76813"><ele>444.5</ele><time>2026-03-31T07:53:33.165Z</time></trkpt><trkpt lat="41.3052317" lon="0.7682367"><ele>445.75</ele><time>2026-03-31T07:53:34.164Z</time></trkpt><trkpt lat="41.3051217" lon="0.76833"><ele>447.0</ele><time>2026-03-31T07:53:35.165Z</time></trkpt><trkpt lat="41.3050017" lon="0.7684117"><ele>447.0</ele><time>2026-03-31T07:53:36.165Z</time></trkpt><trkpt lat="41.3048833" lon="0.7684633"><ele>447.0</ele><time>2026-03-31T07:53:37.164Z</time></trkpt><trkpt lat="41.30476" lon="0.7684933"><ele>447.0</ele><time>2026-03-31T07:53:38.165Z</time></trkpt><trkpt lat="41.3046283" lon="0.7684933"><ele>447.0</ele><time>2026-03-31T07:53:39.164Z</time></trkpt><trkpt lat="41.3044983" lon="0.7684733"><ele>445.25</ele><time>2026-03-31T07:53:40.164Z</time></trkpt><trkpt lat="41.3043633" lon="0.7684317"><ele>443.5</ele><time>2026-03-31T07:53:41.165Z</time></trkpt><trkpt lat="41.3042333" lon="0.76837"><ele>441.75</ele><time>2026-03-31T07:53:42.165Z</time></trkpt><trkpt lat="41.3041067" lon="0.7682783"><ele>440.0</ele><time>2026-03-31T07:53:43.165Z</time></trkpt><trkpt lat="41.3040083" lon="0.76817"><ele>440.0</ele><time>2026-03-31T07:53:44.165Z</time></trkpt><trkpt lat="41.303925" lon="0.7680417"><ele>440.0</ele><time>2026-03-31T07:53:45.165Z</time></trkpt><trkpt lat="41.30386" lon="0.7678817"><ele>440.0</ele><time>2026-03-31T07:53:46.164Z</time></trkpt><trkpt lat="41.3038267" lon="0.76773"><ele>440.0</ele><time>2026-03-31T07:53:47.165Z</time></trkpt><trkpt lat="41.30382" lon="0.76759"><ele>439.8333333333333</ele><time>2026-03-31T07:53:48.164Z</time></trkpt><trkpt lat="41.3038567" lon="0.7674633"><ele>439.66666666666663</ele><time>2026-03-31T07:53:49.165Z</time></trkpt><trkpt lat="41.3039083" lon="0.7673567"><ele>439.5</ele><time>2026-03-31T07:53:50.164Z</time></trkpt><trkpt lat="41.303965" lon="0.767255"><ele>439.33333333333337</ele><time>2026-03-31T07:53:51.164Z</time></trkpt><trkpt lat="41.3039883" lon="0.7671617"><ele>439.1666666666667</ele><time>2026-03-31T07:53:52.164Z</time></trkpt><trkpt lat="41.3039733" lon="0.7670567"><ele>439.0</ele><time>2026-03-31T07:53:53.164Z</time></trkpt><trkpt lat="41.3039317" lon="0.7669917"><ele>438.0</ele><time>2026-03-31T07:53:54.165Z</time></trkpt><trkpt lat="41.3038383" lon="0.76695"><ele>437.0</ele><time>2026-03-31T07:53:55.164Z</time></trkpt><trkpt lat="41.30371" lon="0.7669"><ele>436.0</ele><time>2026-03-31T07:53:56.164Z</time></trkpt><trkpt lat="41.3035717" lon="0.7668017"><ele>435.0</ele><time>2026-03-31T07:53:57.165Z</time></trkpt><trkpt lat="41.3034283" lon="0.766665"><ele>435.0</ele><time>2026-03-31T07:53:58.164Z</time></trkpt><trkpt lat="41.30329" lon="0.766525"><ele>435.0</ele><time>2026-03-31T07:53:59.164Z</time></trkpt><trkpt lat="41.3031583" lon="0.7664017"><ele>435.0</ele><time>2026-03-31T07:54:00.165Z</time></trkpt><trkpt lat="41.3030133" lon="0.7662917"><ele>431.66666666666663</ele><time>2026-03-31T07:54:01.164Z</time></trkpt><trkpt lat="41.3028683" lon="0.76622"><ele>428.3333333333333</ele><time>2026-03-31T07:54:02.165Z</time></trkpt><trkpt lat="41.3027" lon="0.7661733"><ele>425.0</ele><time>2026-03-31T07:54:03.164Z</time></trkpt><trkpt lat="41.302535" lon="0.7661517"><ele>425.0</ele><time>2026-03-31T07:54:04.165Z</time></trkpt><trkpt lat="41.3023717" lon="0.7661617"><ele>425.0</ele><time>2026-03-31T07:54:05.165Z</time></trkpt><trkpt lat="41.3021967" lon="0.7662017"><ele>425.0</ele><time>2026-03-31T07:54:06.165Z</time></trkpt><trkpt lat="41.3020233" lon="0.7662583"><ele>425.0</ele><time>2026-03-31T07:54:07.165Z</time></trkpt><trkpt lat="41.30184" lon="0.76631"><ele>425.0</ele><time>2026-03-31T07:54:08.165Z</time></trkpt><trkpt lat="41.30165" lon="0.7663583"><ele>425.0</ele><time>2026-03-31T07:54:09.164Z</time></trkpt><trkpt lat="41.30147" lon="0.7664083"><ele>424.3333333333333</ele><time>2026-03-31T07:54:10.165Z</time></trkpt><trkpt lat="41.3013017" lon="0.7664367"><ele>423.66666666666663</ele><time>2026-03-31T07:54:11.164Z</time></trkpt><trkpt lat="41.3011367" lon="0.7664667"><ele>423.0</ele><time>2026-03-31T07:54:12.164Z</time></trkpt><trkpt lat="41.3009817" lon="0.7664967"><ele>423.0</ele><time>2026-03-31T07:54:13.164Z</time></trkpt><trkpt lat="41.3008333" lon="0.7664917"><ele>423.0</ele><time>2026-03-31T07:54:14.164Z</time></trkpt><trkpt lat="41.3006817" lon="0.7664617"><ele>423.0</ele><time>2026-03-31T07:54:15.164Z</time></trkpt><trkpt lat="41.3005167" lon="0.76641"><ele>421.0</ele><time>2026-03-31T07:54:16.164Z</time></trkpt><trkpt lat="41.30035" lon="0.7663483"><ele>419.0</ele><time>2026-03-31T07:54:17.164Z</time></trkpt><trkpt lat="41.300185" lon="0.7662733"><ele>417.0</ele><time>2026-03-31T07:54:18.165Z</time></trkpt><trkpt lat="41.30003" lon="0.76617"><ele>417.0</ele><time>2026-03-31T07:54:19.165Z</time></trkpt><trkpt lat="41.2998733" lon="0.7660567"><ele>417.0</ele><time>2026-03-31T07:54:20.165Z</time></trkpt><trkpt lat="41.2997117" lon="0.765945"><ele>417.0</ele><time>2026-03-31T07:54:21.165Z</time></trkpt><trkpt lat="41.2995433" lon="0.765845"><ele>417.0</ele><time>2026-03-31T07:54:22.165Z</time></trkpt><trkpt lat="41.2993683" lon="0.7657483"><ele>417.0</ele><time>2026-03-31T07:54:23.164Z</time></trkpt><trkpt lat="41.29919" lon="0.7656567"><ele>417.0</ele><time>2026-03-31T07:54:24.164Z</time></trkpt><trkpt lat="41.2990117" lon="0.765585"><ele>415.0</ele><time>2026-03-31T07:54:25.164Z</time></trkpt><trkpt lat="41.2988383" lon="0.76553"><ele>413.0</ele><time>2026-03-31T07:54:26.165Z</time></trkpt><trkpt lat="41.298675" lon="0.76549"><ele>411.0</ele><time>2026-03-31T07:54:27.164Z</time></trkpt><trkpt lat="41.2985183" lon="0.7654733"><ele>411.0</ele><time>2026-03-31T07:54:28.165Z</time></trkpt><trkpt lat="41.2983833" lon="0.7654367"><ele>411.0</ele><time>2026-03-31T07:54:29.164Z</time></trkpt><trkpt lat="41.29828" lon="0.7653617"><ele>411.0</ele><time>2026-03-31T07:54:30.164Z</time></trkpt><trkpt lat="41.2981783" lon="0.7652667"><ele>411.0</ele><time>2026-03-31T07:54:31.164Z</time></trkpt><trkpt lat="41.2980767" lon="0.765195"><ele>410.75</ele><time>2026-03-31T07:54:32.165Z</time></trkpt><trkpt lat="41.29798" lon="0.765145"><ele>410.5</ele><time>2026-03-31T07:54:33.165Z</time></trkpt><trkpt lat="41.2978733" lon="0.765125"><ele>410.25</ele><time>2026-03-31T07:54:34.164Z</time></trkpt><trkpt lat="41.29775" lon="0.76516"><ele>410.0</ele><time>2026-03-31T07:54:35.165Z</time></trkpt><trkpt lat="41.2976233" lon="0.765215"><ele>410.0</ele><time>2026-03-31T07:54:36.164Z</time></trkpt><trkpt lat="41.29748" lon="0.7652933"><ele>410.0</ele><time>2026-03-31T07:54:37.165Z</time></trkpt><trkpt lat="41.2973383" lon="0.7653683"><ele>410.0</ele><time>2026-03-31T07:54:38.164Z</time></trkpt><trkpt lat="41.297185" lon="0.7654533"><ele>414.3333333333333</ele><time>2026-03-31T07:54:39.164Z</time></trkpt><trkpt lat="41.297035" lon="0.7655367"><ele>418.66666666666663</ele><time>2026-03-31T07:54:40.164Z</time></trkpt><trkpt lat="41.2968967" lon="0.7656317"><ele>423.0</ele><time>2026-03-31T07:54:41.165Z</time></trkpt><trkpt lat="41.2967567" lon="0.76573"><ele>423.0</ele><time>2026-03-31T07:54:42.164Z</time></trkpt><trkpt lat="41.296635" lon="0.7658333"><ele>423.0</ele><time>2026-03-31T07:54:43.165Z</time></trkpt><trkpt lat="41.2965333" lon="0.7659317"><ele>423.0</ele><time>2026-03-31T07:54:44.165Z</time></trkpt><trkpt lat="41.2964517" lon="0.7660283"><ele>423.0</ele><time>2026-03-31T07:54:45.165Z</time></trkpt><trkpt lat="41.2963733" lon="0.7661367"><ele>424.0</ele><time>2026-03-31T07:54:46.165Z</time></trkpt><trkpt lat="41.2963233" lon="0.7662917"><ele>425.0</ele><time>2026-03-31T07:54:47.164Z</time></trkpt><trkpt lat="41.29628" lon="0.7664567"><ele>426.0</ele><time>2026-03-31T07:54:48.164Z</time></trkpt><trkpt lat="41.2962367" lon="0.766625"><ele>427.0</ele><time>2026-03-31T07:54:49.164Z</time></trkpt><trkpt lat="41.2961967" lon="0.7667783"><ele>422.0</ele><time>2026-03-31T07:54:50.164Z</time></trkpt><trkpt lat="41.2961533" lon="0.7669083"><ele>417.00000000000006</ele><time>2026-03-31T07:54:51.164Z</time></trkpt><trkpt lat="41.29611" lon="0.76702"><ele>412.0</ele><time>2026-03-31T07:54:52.164Z</time></trkpt><trkpt lat="41.2960483" lon="0.767115"><ele>407.0</ele><time>2026-03-31T07:54:53.164Z</time></trkpt><trkpt lat="41.2959633" lon="0.7671767"><ele>402.0</ele><time>2026-03-31T07:54:54.164Z</time></trkpt><trkpt lat="41.295855" lon="0.7671867"><ele>402.0</ele><time>2026-03-31T07:54:55.165Z</time></trkpt><trkpt lat="41.2957417" lon="0.7671517"><ele>402.0</ele><time>2026-03-31T07:54:56.164Z</time></trkpt><trkpt lat="41.2956133" lon="0.7671017"><ele>402.0</ele><time>2026-03-31T07:54:57.165Z</time></trkpt><trkpt lat="41.2954767" lon="0.767055"><ele>402.0</ele><time>2026-03-31T07:54:58.165Z</time></trkpt><trkpt lat="41.2953333" lon="0.76699"><ele>398.66666666666663</ele><time>2026-03-31T07:54:59.165Z</time></trkpt><trkpt lat="41.2951983" lon="0.7669033"><ele>395.3333333333333</ele><time>2026-03-31T07:55:00.165Z</time></trkpt><trkpt lat="41.2950583" lon="0.7667933"><ele>392.0</ele><time>2026-03-31T07:55:01.164Z</time></trkpt><trkpt lat="41.2949333" lon="0.7666667"><ele>392.66666666666663</ele><time>2026-03-31T07:55:02.164Z</time></trkpt><trkpt lat="41.294805" lon="0.7665517"><ele>393.33333333333337</ele><time>2026-03-31T07:55:03.164Z</time></trkpt><trkpt lat="41.294675" lon="0.7664517"><ele>394.0</ele><time>2026-03-31T07:55:04.164Z</time></trkpt><trkpt lat="41.2945383" lon="0.7663783"><ele>394.0</ele><time>2026-03-31T07:55:05.165Z</time></trkpt><trkpt lat="41.29441" lon="0.7663"><ele>394.0</ele><time>2026-03-31T07:55:06.165Z</time></trkpt><trkpt lat="41.2942867" lon="0.7661683"><ele>394.0</ele><time>2026-03-31T07:55:07.164Z</time></trkpt><trkpt lat="41.2941517" lon="0.7660433"><ele>396.6666666666667</ele><time>2026-03-31T07:55:08.164Z</time></trkpt><trkpt lat="41.2940017" lon="0.76592"><ele>399.33333333333337</ele><time>2026-03-31T07:55:09.164Z</time></trkpt><trkpt lat="41.2938383" lon="0.7658167"><ele>402.0</ele><time>2026-03-31T07:55:10.164Z</time></trkpt><trkpt lat="41.2936733" lon="0.765725"><ele>402.0</ele><time>2026-03-31T07:55:11.165Z</time></trkpt><trkpt lat="41.2934983" lon="0.765635"><ele>402.0</ele><time>2026-03-31T07:55:12.164Z</time></trkpt><trkpt lat="41.2933217" lon="0.7655433"><ele>402.0</ele><time>2026-03-31T07:55:13.164Z</time></trkpt><trkpt lat="41.293145" lon="0.7654583"><ele>397.66666666666663</ele><time>2026-03-31T07:55:14.164Z</time></trkpt><trkpt lat="41.2929667" lon="0.76538"><ele>393.3333333333333</ele><time>2026-03-31T07:55:15.164Z</time></trkpt><trkpt lat="41.2927883" lon="0.7653133"><ele>389.0</ele><time>2026-03-31T07:55:16.165Z</time></trkpt><trkpt lat="41.2926217" lon="0.7652417"><ele>392.0</ele><time>2026-03-31T07:55:17.164Z</time></trkpt><trkpt lat="41.2924533" lon="0.7651667"><ele>395.0</ele><time>2026-03-31T07:55:18.165Z</time></trkpt><trkpt lat="41.2923033" lon="0.7650883"><ele>398.0</ele><time>2026-03-31T07:55:19.164Z</time></trkpt><trkpt lat="41.2921517" lon="0.765035"><ele>398.0</ele><time>2026-03-31T07:55:20.164Z</time></trkpt><trkpt lat="41.2920167" lon="0.76496"><ele>398.0</ele><time>2026-03-31T07:55:21.164Z</time></trkpt><trkpt lat="41.2918983" lon="0.764865"><ele>398.0</ele><time>2026-03-31T07:55:22.164Z</time></trkpt><trkpt lat="41.29179" lon="0.7647433"><ele>398.0</ele><time>2026-03-31T07:55:23.164Z</time></trkpt><trkpt lat="41.2917" lon="0.764585"><ele>398.0</ele><time>2026-03-31T07:55:24.165Z</time></trkpt><trkpt lat="41.291635" lon="0.7644133"><ele>398.0</ele><time>2026-03-31T07:55:25.164Z</time></trkpt><trkpt lat="41.2915833" lon="0.7642367"><ele>398.0</ele><time>2026-03-31T07:55:26.164Z</time></trkpt><trkpt lat="41.2915133" lon="0.7640767"><ele>398.0</ele><time>2026-03-31T07:55:27.164Z</time></trkpt><trkpt lat="41.2914217" lon="0.763955"><ele>397.5</ele><time>2026-03-31T07:55:28.164Z</time></trkpt><trkpt lat="41.2912983" lon="0.7638617"><ele>397.0</ele><time>2026-03-31T07:55:29.164Z</time></trkpt><trkpt lat="41.291175" lon="0.7637633"><ele>396.5</ele><time>2026-03-31T07:55:30.164Z</time></trkpt><trkpt lat="41.2910767" lon="0.7635967"><ele>396.0</ele><time>2026-03-31T07:55:31.164Z</time></trkpt><trkpt lat="41.2909817" lon="0.763415"><ele>396.0</ele><time>2026-03-31T07:55:32.165Z</time></trkpt><trkpt lat="41.2908967" lon="0.76322"><ele>396.0</ele><time>2026-03-31T07:55:33.165Z</time></trkpt><trkpt lat="41.2908083" lon="0.763035"><ele>396.0</ele><time>2026-03-31T07:55:34.164Z</time></trkpt><trkpt lat="41.290715" lon="0.762845"><ele>393.0</ele><time>2026-03-31T07:55:35.164Z</time></trkpt><trkpt lat="41.2906017" lon="0.76266"><ele>390.0</ele><time>2026-03-31T07:55:36.164Z</time></trkpt><trkpt lat="41.2904783" lon="0.76249"><ele>387.0</ele><time>2026-03-31T07:55:37.164Z</time></trkpt><trkpt lat="41.2903417" lon="0.7623317"><ele>387.0</ele><time>2026-03-31T07:55:38.164Z</time></trkpt><trkpt lat="41.2902" lon="0.76218"><ele>387.0</ele><time>2026-03-31T07:55:39.165Z</time></trkpt><trkpt lat="41.2900533" lon="0.76202"><ele>387.0</ele><time>2026-03-31T07:55:40.164Z</time></trkpt><trkpt lat="41.2899083" lon="0.7618717"><ele>386.66666666666663</ele><time>2026-03-31T07:55:41.164Z</time></trkpt><trkpt lat="41.28977" lon="0.761725"><ele>386.3333333333333</ele><time>2026-03-31T07:55:42.164Z</time></trkpt><trkpt lat="41.289635" lon="0.7615817"><ele>386.0</ele><time>2026-03-31T07:55:43.165Z</time></trkpt><trkpt lat="41.2895133" lon="0.7614417"><ele>386.0</ele><time>2026-03-31T07:55:44.165Z</time></trkpt><trkpt lat="41.2894033" lon="0.7613183"><ele>386.0</ele><time>2026-03-31T07:55:45.164Z</time></trkpt><trkpt lat="41.2892917" lon="0.7612083"><ele>386.0</ele><time>2026-03-31T07:55:46.164Z</time></trkpt><trkpt lat="41.28921" lon="0.7610933"><ele>386.0</ele><time>2026-03-31T07:55:47.164Z</time></trkpt><trkpt lat="41.2891483" lon="0.76097"><ele>387.4</ele><time>2026-03-31T07:55:48.164Z</time></trkpt><trkpt lat="41.28912" lon="0.76084"><ele>388.8</ele><time>2026-03-31T07:55:49.165Z</time></trkpt><trkpt lat="41.2891317" lon="0.760725"><ele>390.2</ele><time>2026-03-31T07:55:50.164Z</time></trkpt><trkpt lat="41.289175" lon="0.7606"><ele>391.59999999999997</ele><time>2026-03-31T07:55:51.165Z</time></trkpt><trkpt lat="41.2892267" lon="0.7604483"><ele>393.0</ele><time>2026-03-31T07:55:52.164Z</time></trkpt><trkpt lat="41.289265" lon="0.7602617"><ele>390.33333333333337</ele><time>2026-03-31T07:55:53.165Z</time></trkpt><trkpt lat="41.2892833" lon="0.7600483"><ele>387.6666666666667</ele><time>2026-03-31T07:55:54.164Z</time></trkpt><trkpt lat="41.2893017" lon="0.759845"><ele>385.0</ele><time>2026-03-31T07:55:55.165Z</time></trkpt><trkpt lat="41.2893117" lon="0.7596667"><ele>385.0</ele><time>2026-03-31T07:55:56.165Z</time></trkpt><trkpt lat="41.2893367" lon="0.759505"><ele>385.0</ele><time>2026-03-31T07:55:57.165Z</time></trkpt><trkpt lat="41.289395" lon="0.7593633"><ele>385.0</ele><time>2026-03-31T07:55:58.164Z</time></trkpt><trkpt lat="41.2894817" lon="0.7592367"><ele>385.0</ele><time>2026-03-31T07:55:59.164Z</time></trkpt><trkpt lat="41.28957" lon="0.7591183"><ele>384.0</ele><time>2026-03-31T07:56:00.165Z</time></trkpt><trkpt lat="41.2896233" lon="0.7589833"><ele>383.0</ele><time>2026-03-31T07:56:01.165Z</time></trkpt><trkpt lat="41.289635" lon="0.7588283"><ele>382.0</ele><time>2026-03-31T07:56:02.164Z</time></trkpt><trkpt lat="41.2896083" lon="0.758665"><ele>381.0</ele><time>2026-03-31T07:56:03.164Z</time></trkpt><trkpt lat="41.289555" lon="0.7584833"><ele>380.6666666666667</ele><time>2026-03-31T07:56:04.165Z</time></trkpt><trkpt lat="41.2894817" lon="0.758305"><ele>380.33333333333337</ele><time>2026-03-31T07:56:05.164Z</time></trkpt><trkpt lat="41.289405" lon="0.758135"><ele>380.0</ele><time>2026-03-31T07:56:06.165Z</time></trkpt><trkpt lat="41.2893217" lon="0.7579567"><ele>380.0</ele><time>2026-03-31T07:56:07.165Z</time></trkpt><trkpt lat="41.2892383" lon="0.757775"><ele>380.0</ele><time>2026-03-31T07:56:08.165Z</time></trkpt><trkpt lat="41.289155" lon="0.7575967"><ele>380.0</ele><time>2026-03-31T07:56:09.165Z</time></trkpt><trkpt lat="41.289075" lon="0.7574183"><ele>380.33333333333337</ele><time>2026-03-31T07:56:10.164Z</time></trkpt><trkpt lat="41.2890083" lon="0.7572317"><ele>380.6666666666667</ele><time>2026-03-31T07:56:11.164Z</time></trkpt><trkpt lat="41.2889383" lon="0.75703"><ele>381.0</ele><time>2026-03-31T07:56:12.165Z</time></trkpt><trkpt lat="41.288875" lon="0.7568133"><ele>381.0</ele><time>2026-03-31T07:56:13.164Z</time></trkpt><trkpt lat="41.2888083" lon="0.7565883"><ele>381.0</ele><time>2026-03-31T07:56:14.165Z</time></trkpt><trkpt lat="41.28874" lon="0.7563633"><ele>381.0</ele><time>2026-03-31T07:56:15.164Z</time></trkpt><trkpt lat="41.2886717" lon="0.7561467"><ele>380.3333333333333</ele><time>2026-03-31T07:56:16.164Z</time></trkpt><trkpt lat="41.2886067" lon="0.7559367"><ele>379.66666666666663</ele><time>2026-03-31T07:56:17.164Z</time></trkpt><trkpt lat="41.28855" lon="0.7557333"><ele>379.0</ele><time>2026-03-31T07:56:18.164Z</time></trkpt><trkpt lat="41.2885017" lon="0.7555483"><ele>379.0</ele><time>2026-03-31T07:56:19.165Z</time></trkpt><trkpt lat="41.2884433" lon="0.7553733"><ele>379.0</ele><time>2026-03-31T07:56:20.164Z</time></trkpt><trkpt lat="41.2883633" lon="0.7552133"><ele>379.0</ele><time>2026-03-31T07:56:21.165Z</time></trkpt><trkpt lat="41.2882833" lon="0.75506"><ele>379.0</ele><time>2026-03-31T07:56:22.164Z</time></trkpt><trkpt lat="41.2882033" lon="0.7549033"><ele>378.25</ele><time>2026-03-31T07:56:23.164Z</time></trkpt><trkpt lat="41.2881083" lon="0.7547633"><ele>377.5</ele><time>2026-03-31T07:56:24.165Z</time></trkpt><trkpt lat="41.287995" lon="0.7546333"><ele>376.75</ele><time>2026-03-31T07:56:25.164Z</time></trkpt><trkpt lat="41.28786" lon="0.7545467"><ele>376.0</ele><time>2026-03-31T07:56:26.164Z</time></trkpt><trkpt lat="41.2877367" lon="0.7544383"><ele>377.5</ele><time>2026-03-31T07:56:27.164Z</time></trkpt><trkpt lat="41.2876183" lon="0.75434"><ele>379.0</ele><time>2026-03-31T07:56:28.165Z</time></trkpt><trkpt lat="41.2874883" lon="0.7542567"><ele>380.5</ele><time>2026-03-31T07:56:29.165Z</time></trkpt><trkpt lat="41.2873567" lon="0.75421"><ele>382.0</ele><time>2026-03-31T07:56:30.164Z</time></trkpt><trkpt lat="41.2872267" lon="0.754195"><ele>382.0</ele><time>2026-03-31T07:56:31.164Z</time></trkpt><trkpt lat="41.2871083" lon="0.7541983"><ele>382.0</ele><time>2026-03-31T07:56:32.164Z</time></trkpt><trkpt lat="41.2870067" lon="0.7542033"><ele>382.0</ele><time>2026-03-31T07:56:33.164Z</time></trkpt><trkpt lat="41.2869217" lon="0.7542033"><ele>382.0</ele><time>2026-03-31T07:56:34.164Z</time></trkpt><trkpt lat="41.286855" lon="0.7542067"><ele>382.0</ele><time>2026-03-31T07:56:35.164Z</time></trkpt><trkpt lat="41.28673" lon="0.7542333"><ele>382.0</ele><time>2026-03-31T07:56:37.164Z</time></trkpt><trkpt lat="41.2866583" lon="0.754245"><ele>382.0</ele><time>2026-03-31T07:56:38.165Z</time></trkpt><trkpt lat="41.286585" lon="0.75426"><ele>382.0</ele><time>2026-03-31T07:56:39.165Z</time></trkpt><trkpt lat="41.2864967" lon="0.7542867"><ele>382.0</ele><time>2026-03-31T07:56:40.165Z</time></trkpt><trkpt lat="41.2864083" lon="0.754305"><ele>382.0</ele><time>2026-03-31T07:56:41.164Z</time></trkpt><trkpt lat="41.2863217" lon="0.754325"><ele>382.0</ele><time>2026-03-31T07:56:42.164Z</time></trkpt><trkpt lat="41.2862317" lon="0.754355"><ele>380.20000000000005</ele><time>2026-03-31T07:56:43.164Z</time></trkpt><trkpt lat="41.2861483" lon="0.754405"><ele>378.4</ele><time>2026-03-31T07:56:44.164Z</time></trkpt><trkpt lat="41.2860683" lon="0.7544533"><ele>376.6</ele><time>2026-03-31T07:56:45.164Z</time></trkpt><trkpt lat="41.2859817" lon="0.7545067"><ele>374.79999999999995</ele><time>2026-03-31T07:56:46.164Z</time></trkpt><trkpt lat="41.285895" lon="0.754545"><ele>373.0</ele><time>2026-03-31T07:56:47.165Z</time></trkpt><trkpt lat="41.2858033" lon="0.7545683"><ele>373.0</ele><time>2026-03-31T07:56:48.164Z</time></trkpt><trkpt lat="41.2857183" lon="0.7545883"><ele>373.0</ele><time>2026-03-31T07:56:49.165Z</time></trkpt><trkpt lat="41.2856233" lon="0.7546133"><ele>373.0</ele><time>2026-03-31T07:56:50.165Z</time></trkpt><trkpt lat="41.285535" lon="0.7546483"><ele>373.0</ele><time>2026-03-31T07:56:51.164Z</time></trkpt><trkpt lat="41.2854467" lon="0.7546833"><ele>373.0</ele><time>2026-03-31T07:56:52.163Z</time></trkpt><trkpt lat="41.285355" lon="0.7547267"><ele>373.4</ele><time>2026-03-31T07:56:53.164Z</time></trkpt><trkpt lat="41.2852617" lon="0.7547633"><ele>373.79999999999995</ele><time>2026-03-31T07:56:54.164Z</time></trkpt><trkpt lat="41.2851683" lon="0.75481"><ele>374.2</ele><time>2026-03-31T07:56:55.164Z</time></trkpt><trkpt lat="41.2850733" lon="0.7548417"><ele>374.6</ele><time>2026-03-31T07:56:56.164Z</time></trkpt><trkpt lat="41.2849833" lon="0.75488"><ele>375.0</ele><time>2026-03-31T07:56:57.165Z</time></trkpt><trkpt lat="41.2849017" lon="0.7549033"><ele>375.0</ele><time>2026-03-31T07:56:58.164Z</time></trkpt><trkpt lat="41.2848217" lon="0.75494"><ele>375.0</ele><time>2026-03-31T07:56:59.164Z</time></trkpt><trkpt lat="41.28474" lon="0.7549817"><ele>375.0</ele><time>2026-03-31T07:57:00.164Z</time></trkpt><trkpt lat="41.2846583" lon="0.7550233"><ele>375.0</ele><time>2026-03-31T07:57:01.164Z</time></trkpt><trkpt lat="41.2845833" lon="0.7550483"><ele>375.0</ele><time>2026-03-31T07:57:02.165Z</time></trkpt><trkpt lat="41.2844967" lon="0.7550533"><ele>375.0</ele><time>2026-03-31T07:57:03.165Z</time></trkpt><trkpt lat="41.2844067" lon="0.755035"><ele>374.8</ele><time>2026-03-31T07:57:04.165Z</time></trkpt><trkpt lat="41.2843167" lon="0.7549967"><ele>374.6</ele><time>2026-03-31T07:57:05.164Z</time></trkpt><trkpt lat="41.2842267" lon="0.7549433"><ele>374.4</ele><time>2026-03-31T07:57:06.165Z</time></trkpt><trkpt lat="41.2841367" lon="0.75488"><ele>374.2</ele><time>2026-03-31T07:57:07.165Z</time></trkpt><trkpt lat="41.2840517" lon="0.754815"><ele>374.0</ele><time>2026-03-31T07:57:08.164Z</time></trkpt><trkpt lat="41.28397" lon="0.7547467"><ele>374.0</ele><time>2026-03-31T07:57:09.165Z</time></trkpt><trkpt lat="41.2838983" lon="0.7546717"><ele>374.0</ele><time>2026-03-31T07:57:10.164Z</time></trkpt><trkpt lat="41.2838333" lon="0.7545817"><ele>374.0</ele><time>2026-03-31T07:57:11.164Z</time></trkpt><trkpt lat="41.2837817" lon="0.7544833"><ele>374.0</ele><time>2026-03-31T07:57:12.164Z</time></trkpt><trkpt lat="41.2837533" lon="0.7543867"><ele>374.0</ele><time>2026-03-31T07:57:13.165Z</time></trkpt><trkpt lat="41.2837483" lon="0.754285"><ele>374.0</ele><time>2026-03-31T07:57:14.164Z</time></trkpt><trkpt lat="41.28376" lon="0.7541717"><ele>373.5</ele><time>2026-03-31T07:57:15.164Z</time></trkpt><trkpt lat="41.2838117" lon="0.7540633"><ele>373.0</ele><time>2026-03-31T07:57:16.165Z</time></trkpt><trkpt lat="41.2838833" lon="0.753955"><ele>372.5</ele><time>2026-03-31T07:57:17.164Z</time></trkpt><trkpt lat="41.2839733" lon="0.75384"><ele>372.0</ele><time>2026-03-31T07:57:18.164Z</time></trkpt><trkpt lat="41.284055" lon="0.7537167"><ele>371.75</ele><time>2026-03-31T07:57:19.164Z</time></trkpt><trkpt lat="41.2841483" lon="0.7536033"><ele>371.5</ele><time>2026-03-31T07:57:20.165Z</time></trkpt><trkpt lat="41.2842417" lon="0.7534883"><ele>371.25</ele><time>2026-03-31T07:57:21.165Z</time></trkpt><trkpt lat="41.284325" lon="0.753365"><ele>371.0</ele><time>2026-03-31T07:57:22.165Z</time></trkpt><trkpt lat="41.2844183" lon="0.7532467"><ele>371.0</ele><time>2026-03-31T07:57:23.164Z</time></trkpt><trkpt lat="41.2845" lon="0.7531283"><ele>371.0</ele><time>2026-03-31T07:57:24.165Z</time></trkpt><trkpt lat="41.28459" lon="0.7530133"><ele>371.0</ele><time>2026-03-31T07:57:25.164Z</time></trkpt><trkpt lat="41.2846767" lon="0.7528967"><ele>371.0</ele><time>2026-03-31T07:57:26.164Z</time></trkpt><trkpt lat="41.2847617" lon="0.7527783"><ele>372.20000000000005</ele><time>2026-03-31T07:57:27.164Z</time></trkpt><trkpt lat="41.2848433" lon="0.7526667"><ele>373.40000000000003</ele><time>2026-03-31T07:57:28.165Z</time></trkpt><trkpt lat="41.2849233" lon="0.752565"><ele>374.6</ele><time>2026-03-31T07:57:29.164Z</time></trkpt><trkpt lat="41.2849883" lon="0.7524633"><ele>375.8</ele><time>2026-03-31T07:57:30.164Z</time></trkpt><trkpt lat="41.2850583" lon="0.7523617"><ele>377.0</ele><time>2026-03-31T07:57:31.164Z</time></trkpt><trkpt lat="41.2851267" lon="0.7522583"><ele>377.0</ele><time>2026-03-31T07:57:32.165Z</time></trkpt><trkpt lat="41.2851933" lon="0.75215"><ele>377.0</ele><time>2026-03-31T07:57:33.165Z</time></trkpt><trkpt lat="41.2852533" lon="0.7520467"><ele>377.0</ele><time>2026-03-31T07:57:34.164Z</time></trkpt><trkpt lat="41.2853183" lon="0.751935"><ele>377.0</ele><time>2026-03-31T07:57:35.164Z</time></trkpt><trkpt lat="41.285375" lon="0.7518317"><ele>377.0</ele><time>2026-03-31T07:57:36.164Z</time></trkpt><trkpt lat="41.285425" lon="0.75173"><ele>375.40000000000003</ele><time>2026-03-31T07:57:37.164Z</time></trkpt><trkpt lat="41.2854767" lon="0.7516317"><ele>373.8</ele><time>2026-03-31T07:57:38.165Z</time></trkpt><trkpt lat="41.2855317" lon="0.7515233"><ele>372.2</ele><time>2026-03-31T07:57:39.164Z</time></trkpt><trkpt lat="41.2855833" lon="0.7514117"><ele>370.6</ele><time>2026-03-31T07:57:40.164Z</time></trkpt><trkpt lat="41.2856283" lon="0.7513017"><ele>369.0</ele><time>2026-03-31T07:57:41.165Z</time></trkpt><trkpt lat="41.28565" lon="0.7511617"><ele>373.2</ele><time>2026-03-31T07:57:42.164Z</time></trkpt><trkpt lat="41.2856533" lon="0.7510117"><ele>377.4</ele><time>2026-03-31T07:57:43.165Z</time></trkpt><trkpt lat="41.2856617" lon="0.7508683"><ele>381.6</ele><time>2026-03-31T07:57:44.164Z</time></trkpt><trkpt lat="41.2856717" lon="0.75074"><ele>385.8</ele><time>2026-03-31T07:57:45.164Z</time></trkpt><trkpt lat="41.2856817" lon="0.7506133"><ele>390.0</ele><time>2026-03-31T07:57:46.165Z</time></trkpt><trkpt lat="41.2856867" lon="0.7504833"><ele>390.0</ele><time>2026-03-31T07:57:47.165Z</time></trkpt><trkpt lat="41.2856933" lon="0.7503217"><ele>390.0</ele><time>2026-03-31T07:57:48.165Z</time></trkpt><trkpt lat="41.2856783" lon="0.750145"><ele>390.0</ele><time>2026-03-31T07:57:49.165Z</time></trkpt><trkpt lat="41.2856517" lon="0.7499517"><ele>390.0</ele><time>2026-03-31T07:57:50.164Z</time></trkpt><trkpt lat="41.2856117" lon="0.74975"><ele>382.6666666666667</ele><time>2026-03-31T07:57:51.164Z</time></trkpt><trkpt lat="41.2855633" lon="0.7495433"><ele>375.33333333333337</ele><time>2026-03-31T07:57:52.164Z</time></trkpt><trkpt lat="41.285505" lon="0.74933"><ele>368.0</ele><time>2026-03-31T07:57:53.165Z</time></trkpt><trkpt lat="41.2854317" lon="0.7491217"><ele>368.0</ele><time>2026-03-31T07:57:54.164Z</time></trkpt><trkpt lat="41.2853483" lon="0.7489433"><ele>368.0</ele><time>2026-03-31T07:57:55.164Z</time></trkpt><trkpt lat="41.2852583" lon="0.7487817"><ele>368.0</ele><time>2026-03-31T07:57:56.164Z</time></trkpt><trkpt lat="41.2851667" lon="0.74862"><ele>374.0</ele><time>2026-03-31T07:57:57.164Z</time></trkpt><trkpt lat="41.2850533" lon="0.74848"><ele>380.0</ele><time>2026-03-31T07:57:58.165Z</time></trkpt><trkpt lat="41.2849333" lon="0.7483583"><ele>386.0</ele><time>2026-03-31T07:57:59.165Z</time></trkpt><trkpt lat="41.284805" lon="0.748255"><ele>381.75</ele><time>2026-03-31T07:58:00.165Z</time></trkpt><trkpt lat="41.2846883" lon="0.748175"><ele>377.5</ele><time>2026-03-31T07:58:01.164Z</time></trkpt><trkpt lat="41.2845667" lon="0.748095"><ele>373.25</ele><time>2026-03-31T07:58:02.164Z</time></trkpt><trkpt lat="41.2844567" lon="0.748035"><ele>369.0</ele><time>2026-03-31T07:58:03.164Z</time></trkpt><trkpt lat="41.2843383" lon="0.748"><ele>369.0</ele><time>2026-03-31T07:58:04.165Z</time></trkpt><trkpt lat="41.284225" lon="0.7479633"><ele>369.0</ele><time>2026-03-31T07:58:05.164Z</time></trkpt><trkpt lat="41.2841117" lon="0.747915"><ele>369.0</ele><time>2026-03-31T07:58:06.164Z</time></trkpt><trkpt lat="41.2840233" lon="0.7478433"><ele>369.0</ele><time>2026-03-31T07:58:07.164Z</time></trkpt><trkpt lat="41.28397" lon="0.74774"><ele>369.0</ele><time>2026-03-31T07:58:08.165Z</time></trkpt><trkpt lat="41.28394" lon="0.7476267"><ele>370.0</ele><time>2026-03-31T07:58:09.165Z</time></trkpt><trkpt lat="41.2839617" lon="0.7475033"><ele>371.0</ele><time>2026-03-31T07:58:10.164Z</time></trkpt><trkpt lat="41.2839883" lon="0.7474133"><ele>372.0</ele><time>2026-03-31T07:58:11.164Z</time></trkpt><trkpt lat="41.2840517" lon="0.7473467"><ele>373.0</ele><time>2026-03-31T07:58:12.164Z</time></trkpt><trkpt lat="41.2841433" lon="0.7472983"><ele>374.0</ele><time>2026-03-31T07:58:13.165Z</time></trkpt><trkpt lat="41.2842683" lon="0.7472833"><ele>374.0</ele><time>2026-03-31T07:58:14.165Z</time></trkpt><trkpt lat="41.284435" lon="0.7472683"><ele>374.0</ele><time>2026-03-31T07:58:15.164Z</time></trkpt><trkpt lat="41.2846167" lon="0.747215"><ele>374.0</ele><time>2026-03-31T07:58:16.165Z</time></trkpt><trkpt lat="41.284785" lon="0.7471467"><ele>377.6666666666667</ele><time>2026-03-31T07:58:17.165Z</time></trkpt><trkpt lat="41.2849517" lon="0.747085"><ele>381.33333333333337</ele><time>2026-03-31T07:58:18.164Z</time></trkpt><trkpt lat="41.285115" lon="0.7470117"><ele>385.0</ele><time>2026-03-31T07:58:19.164Z</time></trkpt><trkpt lat="41.2852817" lon="0.7469333"><ele>383.33333333333337</ele><time>2026-03-31T07:58:20.164Z</time></trkpt><trkpt lat="41.2854267" lon="0.7467967"><ele>381.6666666666667</ele><time>2026-03-31T07:58:21.165Z</time></trkpt><trkpt lat="41.2855733" lon="0.7466467"><ele>380.0</ele><time>2026-03-31T07:58:22.165Z</time></trkpt><trkpt lat="41.28572" lon="0.746485"><ele>380.0</ele><time>2026-03-31T07:58:23.164Z</time></trkpt><trkpt lat="41.2858517" lon="0.7463467"><ele>380.0</ele><time>2026-03-31T07:58:24.164Z</time></trkpt><trkpt lat="41.2859483" lon="0.7462483"><ele>380.0</ele><time>2026-03-31T07:58:25.165Z</time></trkpt><trkpt lat="41.2860517" lon="0.7461783"><ele>380.0</ele><time>2026-03-31T07:58:26.164Z</time></trkpt><trkpt lat="41.2861617" lon="0.7461483"><ele>380.0</ele><time>2026-03-31T07:58:27.164Z</time></trkpt><trkpt lat="41.2862833" lon="0.7461567"><ele>380.0</ele><time>2026-03-31T07:58:28.164Z</time></trkpt><trkpt lat="41.2863983" lon="0.746175"><ele>380.0</ele><time>2026-03-31T07:58:29.164Z</time></trkpt><trkpt lat="41.2865" lon="0.7461917"><ele>380.0</ele><time>2026-03-31T07:58:30.164Z</time></trkpt><trkpt lat="41.2865917" lon="0.7461833"><ele>380.0</ele><time>2026-03-31T07:58:31.164Z</time></trkpt><trkpt lat="41.2866783" lon="0.7461517"><ele>380.4</ele><time>2026-03-31T07:58:32.164Z</time></trkpt><trkpt lat="41.2867483" lon="0.7460883"><ele>380.8</ele><time>2026-03-31T07:58:33.164Z</time></trkpt><trkpt lat="41.2867717" lon="0.74598"><ele>381.20000000000005</ele><time>2026-03-31T07:58:34.164Z</time></trkpt><trkpt lat="41.2867633" lon="0.7458383"><ele>381.6</ele><time>2026-03-31T07:58:35.164Z</time></trkpt><trkpt lat="41.286705" lon="0.7456583"><ele>382.0</ele><time>2026-03-31T07:58:36.164Z</time></trkpt><trkpt lat="41.2866767" lon="0.7455017"><ele>378.5</ele><time>2026-03-31T07:58:37.164Z</time></trkpt><trkpt lat="41.2866917" lon="0.7453533"><ele>375.0</ele><time>2026-03-31T07:58:38.165Z</time></trkpt><trkpt lat="41.2867417" lon="0.7451883"><ele>371.5</ele><time>2026-03-31T07:58:39.164Z</time></trkpt><trkpt lat="41.2868" lon="0.7450217"><ele>368.0</ele><time>2026-03-31T07:58:40.164Z</time></trkpt><trkpt lat="41.2868467" lon="0.7448217"><ele>368.0</ele><time>2026-03-31T07:58:41.164Z</time></trkpt><trkpt lat="41.286905" lon="0.7446267"><ele>368.0</ele><time>2026-03-31T07:58:42.165Z</time></trkpt><trkpt lat="41.2869683" lon="0.7444317"><ele>368.0</ele><time>2026-03-31T07:58:43.165Z</time></trkpt><trkpt lat="41.28703" lon="0.744245"><ele>366.75</ele><time>2026-03-31T07:58:44.165Z</time></trkpt><trkpt lat="41.287075" lon="0.7440567"><ele>365.5</ele><time>2026-03-31T07:58:45.165Z</time></trkpt><trkpt lat="41.287075" lon="0.7438567"><ele>364.25</ele><time>2026-03-31T07:58:46.164Z</time></trkpt><trkpt lat="41.2870567" lon="0.74366"><ele>363.0</ele><time>2026-03-31T07:58:47.164Z</time></trkpt><trkpt lat="41.2870383" lon="0.7434517"><ele>362.3333333333333</ele><time>2026-03-31T07:58:48.164Z</time></trkpt><trkpt lat="41.28703" lon="0.7432433"><ele>361.66666666666663</ele><time>2026-03-31T07:58:49.164Z</time></trkpt><trkpt lat="41.28702" lon="0.7430367"><ele>361.0</ele><time>2026-03-31T07:58:50.165Z</time></trkpt><trkpt lat="41.2869967" lon="0.7428233"><ele>361.25</ele><time>2026-03-31T07:58:51.164Z</time></trkpt><trkpt lat="41.286985" lon="0.7426183"><ele>361.5</ele><time>2026-03-31T07:58:52.164Z</time></trkpt><trkpt lat="41.2869517" lon="0.742435"><ele>361.75</ele><time>2026-03-31T07:58:53.164Z</time></trkpt><trkpt lat="41.2868983" lon="0.74227"><ele>362.0</ele><time>2026-03-31T07:58:54.164Z</time></trkpt><trkpt lat="41.2868317" lon="0.7421083"><ele>362.0</ele><time>2026-03-31T07:58:55.164Z</time></trkpt><trkpt lat="41.2867567" lon="0.7419333"><ele>362.0</ele><time>2026-03-31T07:58:56.164Z</time></trkpt><trkpt lat="41.2866867" lon="0.741755"><ele>362.0</ele><time>2026-03-31T07:58:57.164Z</time></trkpt><trkpt lat="41.286605" lon="0.7415717"><ele>359.25</ele><time>2026-03-31T07:58:58.164Z</time></trkpt><trkpt lat="41.2865117" lon="0.7413933"><ele>356.5</ele><time>2026-03-31T07:58:59.164Z</time></trkpt><trkpt lat="41.2864167" lon="0.74124"><ele>353.75</ele><time>2026-03-31T07:59:00.164Z</time></trkpt><trkpt lat="41.2863217" lon="0.74111"><ele>351.0</ele><time>2026-03-31T07:59:01.164Z</time></trkpt><trkpt lat="41.286215" lon="0.74099"><ele>359.0</ele><time>2026-03-31T07:59:02.164Z</time></trkpt><trkpt lat="41.28609" lon="0.7408933"><ele>367.0</ele><time>2026-03-31T07:59:03.165Z</time></trkpt><trkpt lat="41.2859583" lon="0.7408283"><ele>375.0</ele><time>2026-03-31T07:59:04.165Z</time></trkpt><trkpt lat="41.2858183" lon="0.7408033"><ele>383.0</ele><time>2026-03-31T07:59:05.165Z</time></trkpt><trkpt lat="41.28567" lon="0.74077"><ele>379.0</ele><time>2026-03-31T07:59:06.165Z</time></trkpt><trkpt lat="41.2855117" lon="0.7407233"><ele>375.0</ele><time>2026-03-31T07:59:07.165Z</time></trkpt><trkpt lat="41.2853517" lon="0.7406717"><ele>371.0</ele><time>2026-03-31T07:59:08.165Z</time></trkpt><trkpt lat="41.2852" lon="0.7406383"><ele>371.0</ele><time>2026-03-31T07:59:09.164Z</time></trkpt><trkpt lat="41.285045" lon="0.7406017"><ele>371.0</ele><time>2026-03-31T07:59:10.164Z</time></trkpt><trkpt lat="41.28489" lon="0.7405767"><ele>371.0</ele><time>2026-03-31T07:59:11.165Z</time></trkpt><trkpt lat="41.284725" lon="0.7405733"><ele>370.6666666666667</ele><time>2026-03-31T07:59:12.164Z</time></trkpt><trkpt lat="41.284555" lon="0.7405817"><ele>370.3333333333333</ele><time>2026-03-31T07:59:13.165Z</time></trkpt><trkpt lat="41.284405" lon="0.7406017"><ele>370.0</ele><time>2026-03-31T07:59:14.164Z</time></trkpt><trkpt lat="41.2842533" lon="0.7406117"><ele>370.0</ele><time>2026-03-31T07:59:15.165Z</time></trkpt><trkpt lat="41.28411" lon="0.740625"><ele>370.0</ele><time>2026-03-31T07:59:16.165Z</time></trkpt><trkpt lat="41.2839867" lon="0.740625"><ele>370.0</ele><time>2026-03-31T07:59:17.165Z</time></trkpt><trkpt lat="41.2838533" lon="0.7406017"><ele>370.0</ele><time>2026-03-31T07:59:18.165Z</time></trkpt><trkpt lat="41.283735" lon="0.740535"><ele>369.5</ele><time>2026-03-31T07:59:19.165Z</time></trkpt><trkpt lat="41.28361" lon="0.74044"><ele>369.0</ele><time>2026-03-31T07:59:20.164Z</time></trkpt><trkpt lat="41.2834983" lon="0.7403133"><ele>368.5</ele><time>2026-03-31T07:59:21.165Z</time></trkpt><trkpt lat="41.2833983" lon="0.7401783"><ele>368.0</ele><time>2026-03-31T07:59:22.164Z</time></trkpt><trkpt lat="41.28332" lon="0.7400383"><ele>368.0</ele><time>2026-03-31T07:59:23.165Z</time></trkpt><trkpt lat="41.2832583" lon="0.7398983"><ele>368.0</ele><time>2026-03-31T07:59:24.165Z</time></trkpt><trkpt lat="41.28322" lon="0.7397583"><ele>368.0</ele><time>2026-03-31T07:59:25.165Z</time></trkpt><trkpt lat="41.2832233" lon="0.7395983"><ele>368.0</ele><time>2026-03-31T07:59:26.164Z</time></trkpt><trkpt lat="41.2832317" lon="0.73943"><ele>367.75</ele><time>2026-03-31T07:59:27.164Z</time></trkpt><trkpt lat="41.2832383" lon="0.73924"><ele>367.5</ele><time>2026-03-31T07:59:28.164Z</time></trkpt><trkpt lat="41.2832233" lon="0.73904"><ele>367.25</ele><time>2026-03-31T07:59:29.164Z</time></trkpt><trkpt lat="41.2832117" lon="0.73884"><ele>367.0</ele><time>2026-03-31T07:59:30.165Z</time></trkpt><trkpt lat="41.2831917" lon="0.7386383"><ele>367.0</ele><time>2026-03-31T07:59:31.164Z</time></trkpt><trkpt lat="41.2831683" lon="0.7384167"><ele>367.0</ele><time>2026-03-31T07:59:32.165Z</time></trkpt><trkpt lat="41.2831467" lon="0.7381933"><ele>367.0</ele><time>2026-03-31T07:59:33.164Z</time></trkpt><trkpt lat="41.2831283" lon="0.7379617"><ele>361.0</ele><time>2026-03-31T07:59:34.165Z</time></trkpt><trkpt lat="41.2830967" lon="0.7377317"><ele>355.0</ele><time>2026-03-31T07:59:35.164Z</time></trkpt><trkpt lat="41.2830633" lon="0.737515"><ele>349.0</ele><time>2026-03-31T07:59:36.165Z</time></trkpt><trkpt lat="41.2830233" lon="0.737295"><ele>348.0</ele><time>2026-03-31T07:59:37.165Z</time></trkpt><trkpt lat="41.2829867" lon="0.7370783"><ele>347.0</ele><time>2026-03-31T07:59:38.165Z</time></trkpt><trkpt lat="41.2829533" lon="0.7368567"><ele>346.0</ele><time>2026-03-31T07:59:39.164Z</time></trkpt><trkpt lat="41.28293" lon="0.7366317"><ele>345.66666666666663</ele><time>2026-03-31T07:59:40.165Z</time></trkpt><trkpt lat="41.2829183" lon="0.736405"><ele>345.3333333333333</ele><time>2026-03-31T07:59:41.165Z</time></trkpt><trkpt lat="41.2829117" lon="0.73618"><ele>345.0</ele><time>2026-03-31T07:59:42.164Z</time></trkpt><trkpt lat="41.2829017" lon="0.7359583"><ele>344.3333333333333</ele><time>2026-03-31T07:59:43.164Z</time></trkpt><trkpt lat="41.2828767" lon="0.7357417"><ele>343.66666666666663</ele><time>2026-03-31T07:59:44.164Z</time></trkpt><trkpt lat="41.2828317" lon="0.7355333"><ele>343.0</ele><time>2026-03-31T07:59:45.164Z</time></trkpt><trkpt lat="41.2827733" lon="0.7353317"><ele>345.3333333333333</ele><time>2026-03-31T07:59:46.164Z</time></trkpt><trkpt lat="41.2827083" lon="0.7351217"><ele>347.6666666666667</ele><time>2026-03-31T07:59:47.164Z</time></trkpt><trkpt lat="41.282635" lon="0.7349117"><ele>350.0</ele><time>2026-03-31T07:59:48.164Z</time></trkpt><trkpt lat="41.2825683" lon="0.7347117"><ele>350.0</ele><time>2026-03-31T07:59:49.164Z</time></trkpt><trkpt lat="41.2825067" lon="0.73451"><ele>350.0</ele><time>2026-03-31T07:59:50.165Z</time></trkpt><trkpt lat="41.2824417" lon="0.7343133"><ele>350.0</ele><time>2026-03-31T07:59:51.164Z</time></trkpt><trkpt lat="41.282375" lon="0.7341367"><ele>347.5</ele><time>2026-03-31T07:59:52.164Z</time></trkpt><trkpt lat="41.2823133" lon="0.733965"><ele>345.0</ele><time>2026-03-31T07:59:53.165Z</time></trkpt><trkpt lat="41.282235" lon="0.7338083"><ele>342.5</ele><time>2026-03-31T07:59:54.164Z</time></trkpt><trkpt lat="41.2821367" lon="0.7336683"><ele>340.0</ele><time>2026-03-31T07:59:55.164Z</time></trkpt><trkpt lat="41.282035" lon="0.73354"><ele>346.0</ele><time>2026-03-31T07:59:56.164Z</time></trkpt><trkpt lat="41.2819083" lon="0.7334467"><ele>352.0</ele><time>2026-03-31T07:59:57.165Z</time></trkpt><trkpt lat="41.2817683" lon="0.7333817"><ele>358.0</ele><time>2026-03-31T07:59:58.164Z</time></trkpt><trkpt lat="41.2816267" lon="0.7333617"><ele>364.0</ele><time>2026-03-31T07:59:59.165Z</time></trkpt><trkpt lat="41.2814783" lon="0.7333667"><ele>364.3333333333333</ele><time>2026-03-31T08:00:00.164Z</time></trkpt><trkpt lat="41.2813217" lon="0.733355"><ele>364.6666666666667</ele><time>2026-03-31T08:00:01.165Z</time></trkpt><trkpt lat="41.2811617" lon="0.7333433"><ele>365.0</ele><time>2026-03-31T08:00:02.165Z</time></trkpt><trkpt lat="41.2809917" lon="0.73336"><ele>365.0</ele><time>2026-03-31T08:00:03.165Z</time></trkpt><trkpt lat="41.280825" lon="0.73341"><ele>365.0</ele><time>2026-03-31T08:00:04.165Z</time></trkpt><trkpt lat="41.280665" lon="0.7334867"><ele>365.0</ele><time>2026-03-31T08:00:05.164Z</time></trkpt><trkpt lat="41.2805067" lon="0.73356"><ele>359.33333333333337</ele><time>2026-03-31T08:00:06.165Z</time></trkpt><trkpt lat="41.280345" lon="0.7336517"><ele>353.6666666666667</ele><time>2026-03-31T08:00:07.164Z</time></trkpt><trkpt lat="41.2801783" lon="0.733725"><ele>348.0</ele><time>2026-03-31T08:00:08.164Z</time></trkpt><trkpt lat="41.2800117" lon="0.7337783"><ele>348.0</ele><time>2026-03-31T08:00:09.164Z</time></trkpt><trkpt lat="41.279845" lon="0.7337967"><ele>348.0</ele><time>2026-03-31T08:00:10.165Z</time></trkpt><trkpt lat="41.2796733" lon="0.7338067"><ele>348.0</ele><time>2026-03-31T08:00:11.164Z</time></trkpt><trkpt lat="41.2795033" lon="0.733825"><ele>349.3333333333333</ele><time>2026-03-31T08:00:12.164Z</time></trkpt><trkpt lat="41.2793233" lon="0.7338283"><ele>350.66666666666663</ele><time>2026-03-31T08:00:13.164Z</time></trkpt><trkpt lat="41.2791467" lon="0.733825"><ele>352.0</ele><time>2026-03-31T08:00:14.164Z</time></trkpt><trkpt lat="41.2789733" lon="0.73381"><ele>350.0</ele><time>2026-03-31T08:00:15.165Z</time></trkpt><trkpt lat="41.2788117" lon="0.73378"><ele>348.0</ele><time>2026-03-31T08:00:16.165Z</time></trkpt><trkpt lat="41.2786683" lon="0.7337367"><ele>346.0</ele><time>2026-03-31T08:00:17.164Z</time></trkpt><trkpt lat="41.278535" lon="0.73369"><ele>344.0</ele><time>2026-03-31T08:00:18.165Z</time></trkpt><trkpt lat="41.278415" lon="0.7336167"><ele>344.0</ele><time>2026-03-31T08:00:19.164Z</time></trkpt><trkpt lat="41.2783117" lon="0.7335033"><ele>344.0</ele><time>2026-03-31T08:00:20.165Z</time></trkpt><trkpt lat="41.27822" lon="0.7333483"><ele>344.0</ele><time>2026-03-31T08:00:21.164Z</time></trkpt><trkpt lat="41.27813" lon="0.733195"><ele>344.0</ele><time>2026-03-31T08:00:22.164Z</time></trkpt><trkpt lat="41.2780517" lon="0.7330617"><ele>344.0</ele><time>2026-03-31T08:00:23.164Z</time></trkpt><trkpt lat="41.2780067" lon="0.7329133"><ele>344.0</ele><time>2026-03-31T08:00:24.165Z</time></trkpt><trkpt lat="41.278005" lon="0.7327567"><ele>344.0</ele><time>2026-03-31T08:00:25.164Z</time></trkpt><trkpt lat="41.2780433" lon="0.7325917"><ele>344.0</ele><time>2026-03-31T08:00:26.164Z</time></trkpt><trkpt lat="41.2781133" lon="0.73243"><ele>348.0</ele><time>2026-03-31T08:00:27.165Z</time></trkpt><trkpt lat="41.2782" lon="0.7322617"><ele>352.0</ele><time>2026-03-31T08:00:28.164Z</time></trkpt><trkpt lat="41.278295" lon="0.7321033"><ele>356.0</ele><time>2026-03-31T08:00:29.164Z</time></trkpt><trkpt lat="41.2784" lon="0.73196"><ele>352.6666666666667</ele><time>2026-03-31T08:00:30.164Z</time></trkpt><trkpt lat="41.2785217" lon="0.73182"><ele>349.3333333333333</ele><time>2026-03-31T08:00:31.165Z</time></trkpt><trkpt lat="41.2786533" lon="0.7316667"><ele>346.0</ele><time>2026-03-31T08:00:32.164Z</time></trkpt><trkpt lat="41.278785" lon="0.7315067"><ele>346.0</ele><time>2026-03-31T08:00:33.165Z</time></trkpt><trkpt lat="41.2789233" lon="0.7313367"><ele>346.0</ele><time>2026-03-31T08:00:34.164Z</time></trkpt><trkpt lat="41.2790417" lon="0.7311517"><ele>346.0</ele><time>2026-03-31T08:00:35.165Z</time></trkpt><trkpt lat="41.279155" lon="0.73095"><ele>346.66666666666663</ele><time>2026-03-31T08:00:36.165Z</time></trkpt><trkpt lat="41.279265" lon="0.73073"><ele>347.3333333333333</ele><time>2026-03-31T08:00:37.165Z</time></trkpt><trkpt lat="41.2793717" lon="0.7305033"><ele>348.0</ele><time>2026-03-31T08:00:38.164Z</time></trkpt><trkpt lat="41.279485" lon="0.73028"><ele>350.0</ele><time>2026-03-31T08:00:39.164Z</time></trkpt><trkpt lat="41.2796033" lon="0.7300517"><ele>352.0</ele><time>2026-03-31T08:00:40.164Z</time></trkpt><trkpt lat="41.279715" lon="0.7298467"><ele>354.0</ele><time>2026-03-31T08:00:41.164Z</time></trkpt><trkpt lat="41.279825" lon="0.7296433"><ele>354.0</ele><time>2026-03-31T08:00:42.165Z</time></trkpt><trkpt lat="41.279945" lon="0.7294517"><ele>354.0</ele><time>2026-03-31T08:00:43.164Z</time></trkpt><trkpt lat="41.280075" lon="0.7292667"><ele>354.0</ele><time>2026-03-31T08:00:44.165Z</time></trkpt><trkpt lat="41.280195" lon="0.7290867"><ele>351.5</ele><time>2026-03-31T08:00:45.164Z</time></trkpt><trkpt lat="41.2803" lon="0.72893"><ele>349.0</ele><time>2026-03-31T08:00:46.164Z</time></trkpt><trkpt lat="41.2803933" lon="0.7287833"><ele>346.5</ele><time>2026-03-31T08:00:47.164Z</time></trkpt><trkpt lat="41.280465" lon="0.7286367"><ele>344.0</ele><time>2026-03-31T08:00:48.165Z</time></trkpt><trkpt lat="41.280495" lon="0.7284567"><ele>342.0</ele><time>2026-03-31T08:00:49.165Z</time></trkpt><trkpt lat="41.2805033" lon="0.7282583"><ele>340.0</ele><time>2026-03-31T08:00:50.164Z</time></trkpt><trkpt lat="41.2804967" lon="0.7280467"><ele>338.0</ele><time>2026-03-31T08:00:51.164Z</time></trkpt><trkpt lat="41.2804917" lon="0.7278317"><ele>337.33333333333337</ele><time>2026-03-31T08:00:52.165Z</time></trkpt><trkpt lat="41.2804883" lon="0.7276233"><ele>336.6666666666667</ele><time>2026-03-31T08:00:53.165Z</time></trkpt><trkpt lat="41.2804917" lon="0.7274"><ele>336.0</ele><time>2026-03-31T08:00:54.165Z</time></trkpt><trkpt lat="41.2804867" lon="0.7271783"><ele>336.0</ele><time>2026-03-31T08:00:55.165Z</time></trkpt><trkpt lat="41.28049" lon="0.7269617"><ele>336.0</ele><time>2026-03-31T08:00:56.164Z</time></trkpt><trkpt lat="41.2804917" lon="0.7267467"><ele>336.0</ele><time>2026-03-31T08:00:57.165Z</time></trkpt><trkpt lat="41.2804967" lon="0.7265283"><ele>335.75</ele><time>2026-03-31T08:00:58.165Z</time></trkpt><trkpt lat="41.2805033" lon="0.7263333"><ele>335.5</ele><time>2026-03-31T08:00:59.165Z</time></trkpt><trkpt lat="41.2805083" lon="0.7261417"><ele>335.25</ele><time>2026-03-31T08:01:00.164Z</time></trkpt><trkpt lat="41.2805033" lon="0.7259567"><ele>335.0</ele><time>2026-03-31T08:01:01.164Z</time></trkpt><trkpt lat="41.2805083" lon="0.7257733"><ele>335.0</ele><time>2026-03-31T08:01:02.164Z</time></trkpt><trkpt lat="41.280505" lon="0.7255983"><ele>335.0</ele><time>2026-03-31T08:01:03.165Z</time></trkpt><trkpt lat="41.28049" lon="0.725425"><ele>335.0</ele><time>2026-03-31T08:01:04.164Z</time></trkpt><trkpt lat="41.2804767" lon="0.725245"><ele>335.0</ele><time>2026-03-31T08:01:05.165Z</time></trkpt><trkpt lat="41.2804617" lon="0.7250783"><ele>335.75</ele><time>2026-03-31T08:01:06.165Z</time></trkpt><trkpt lat="41.280455" lon="0.7248983"><ele>336.5</ele><time>2026-03-31T08:01:07.164Z</time></trkpt><trkpt lat="41.2804333" lon="0.7247317"><ele>337.25</ele><time>2026-03-31T08:01:08.164Z</time></trkpt><trkpt lat="41.2803833" lon="0.7245683"><ele>338.0</ele><time>2026-03-31T08:01:09.164Z</time></trkpt><trkpt lat="41.2803217" lon="0.7243983"><ele>340.75</ele><time>2026-03-31T08:01:10.165Z</time></trkpt><trkpt lat="41.2802633" lon="0.7242367"><ele>343.5</ele><time>2026-03-31T08:01:11.164Z</time></trkpt><trkpt lat="41.2802" lon="0.724065"><ele>346.25</ele><time>2026-03-31T08:01:12.164Z</time></trkpt><trkpt lat="41.2801133" lon="0.723905"><ele>349.0</ele><time>2026-03-31T08:01:13.164Z</time></trkpt><trkpt lat="41.2800083" lon="0.7237483"><ele>349.0</ele><time>2026-03-31T08:01:14.164Z</time></trkpt><trkpt lat="41.2799" lon="0.7236017"><ele>349.0</ele><time>2026-03-31T08:01:15.164Z</time></trkpt><trkpt lat="41.279775" lon="0.7234617"><ele>349.0</ele><time>2026-03-31T08:01:16.164Z</time></trkpt><trkpt lat="41.2796467" lon="0.7233333"><ele>346.5</ele><time>2026-03-31T08:01:17.165Z</time></trkpt><trkpt lat="41.2795333" lon="0.7232133"><ele>344.0</ele><time>2026-03-31T08:01:18.165Z</time></trkpt><trkpt lat="41.27942" lon="0.723095"><ele>341.5</ele><time>2026-03-31T08:01:19.165Z</time></trkpt><trkpt lat="41.2793183" lon="0.7229867"><ele>339.0</ele><time>2026-03-31T08:01:20.165Z</time></trkpt><trkpt lat="41.2792183" lon="0.7228817"><ele>339.0</ele><time>2026-03-31T08:01:21.164Z</time></trkpt><trkpt lat="41.2791233" lon="0.7227867"><ele>339.0</ele><time>2026-03-31T08:01:22.164Z</time></trkpt><trkpt lat="41.27904" lon="0.7227033"><ele>339.0</ele><time>2026-03-31T08:01:23.164Z</time></trkpt><trkpt lat="41.27898" lon="0.72263"><ele>339.0</ele><time>2026-03-31T08:01:24.164Z</time></trkpt><trkpt lat="41.2789383" lon="0.7225633"><ele>339.0</ele><time>2026-03-31T08:01:25.164Z</time></trkpt><trkpt lat="41.2789283" lon="0.7224067"><ele>340.8333333333333</ele><time>2026-03-31T08:01:27.165Z</time></trkpt><trkpt lat="41.2789817" lon="0.7223"><ele>342.6666666666667</ele><time>2026-03-31T08:01:28.165Z</time></trkpt><trkpt lat="41.2790633" lon="0.7222233"><ele>344.5</ele><time>2026-03-31T08:01:29.165Z</time></trkpt><trkpt lat="41.2791467" lon="0.7221867"><ele>346.33333333333337</ele><time>2026-03-31T08:01:30.165Z</time></trkpt><trkpt lat="41.2792167" lon="0.72215"><ele>348.1666666666667</ele><time>2026-03-31T08:01:31.165Z</time></trkpt><trkpt lat="41.279275" lon="0.7220817"><ele>350.0</ele><time>2026-03-31T08:01:32.164Z</time></trkpt><trkpt lat="41.2792983" lon="0.7219933"><ele>349.0</ele><time>2026-03-31T08:01:33.164Z</time></trkpt><trkpt lat="41.2792917" lon="0.7218733"><ele>348.0</ele><time>2026-03-31T08:01:34.164Z</time></trkpt><trkpt lat="41.2792567" lon="0.7217383"><ele>347.0</ele><time>2026-03-31T08:01:35.165Z</time></trkpt><trkpt lat="41.2792267" lon="0.7216217"><ele>346.0</ele><time>2026-03-31T08:01:36.164Z</time></trkpt><trkpt lat="41.2792017" lon="0.7215317"><ele>345.0</ele><time>2026-03-31T08:01:37.164Z</time></trkpt><trkpt lat="41.2791783" lon="0.7214167"><ele>345.0</ele><time>2026-03-31T08:01:39.165Z</time></trkpt><trkpt lat="41.2791383" lon="0.72134"><ele>345.0</ele><time>2026-03-31T08:03:06.164Z</time></trkpt><trkpt lat="41.2790183" lon="0.7213667"><ele>345.0</ele><time>2026-03-31T08:03:08.164Z</time></trkpt><trkpt lat="41.278935" lon="0.7213917"><ele>345.0</ele><time>2026-03-31T08:03:09.164Z</time></trkpt><trkpt lat="41.278855" lon="0.7214217"><ele>345.0</ele><time>2026-03-31T08:03:10.164Z</time></trkpt><trkpt lat="41.2787517" lon="0.7214733"><ele>345.25</ele><time>2026-03-31T08:03:11.165Z</time></trkpt><trkpt lat="41.2786383" lon="0.7215317"><ele>345.5</ele><time>2026-03-31T08:03:12.164Z</time></trkpt><trkpt lat="41.27852" lon="0.7215767"><ele>345.75</ele><time>2026-03-31T08:03:13.164Z</time></trkpt><trkpt lat="41.27839" lon="0.721595"><ele>346.0</ele><time>2026-03-31T08:03:14.164Z</time></trkpt><trkpt lat="41.27824" lon="0.7215767"><ele>344.0</ele><time>2026-03-31T08:03:15.164Z</time></trkpt><trkpt lat="41.2780883" lon="0.72153"><ele>342.0</ele><time>2026-03-31T08:03:16.165Z</time></trkpt><trkpt lat="41.2779383" lon="0.7214617"><ele>340.0</ele><time>2026-03-31T08:03:17.164Z</time></trkpt><trkpt lat="41.2777917" lon="0.72139"><ele>340.0</ele><time>2026-03-31T08:03:18.165Z</time></trkpt><trkpt lat="41.2776417" lon="0.7213167"><ele>340.0</ele><time>2026-03-31T08:03:19.164Z</time></trkpt><trkpt lat="41.2774883" lon="0.7212483"><ele>340.0</ele><time>2026-03-31T08:03:20.164Z</time></trkpt><trkpt lat="41.27734" lon="0.72118"><ele>336.66666666666663</ele><time>2026-03-31T08:03:21.164Z</time></trkpt><trkpt lat="41.2771883" lon="0.7211"><ele>333.3333333333333</ele><time>2026-03-31T08:03:22.165Z</time></trkpt><trkpt lat="41.277035" lon="0.7210233"><ele>330.0</ele><time>2026-03-31T08:03:23.164Z</time></trkpt><trkpt lat="41.2768867" lon="0.7209533"><ele>336.0</ele><time>2026-03-31T08:03:24.164Z</time></trkpt><trkpt lat="41.2767317" lon="0.7208767"><ele>342.0</ele><time>2026-03-31T08:03:25.165Z</time></trkpt><trkpt lat="41.276575" lon="0.7208083"><ele>348.0</ele><time>2026-03-31T08:03:26.165Z</time></trkpt><trkpt lat="41.2764183" lon="0.72074"><ele>348.0</ele><time>2026-03-31T08:03:27.164Z</time></trkpt><trkpt lat="41.2762683" lon="0.7206483"><ele>348.0</ele><time>2026-03-31T08:03:28.164Z</time></trkpt><trkpt lat="41.2761183" lon="0.720555"><ele>348.0</ele><time>2026-03-31T08:03:29.165Z</time></trkpt><trkpt lat="41.27598" lon="0.7204533"><ele>348.0</ele><time>2026-03-31T08:03:30.164Z</time></trkpt><trkpt lat="41.2758467" lon="0.7203133"><ele>348.0</ele><time>2026-03-31T08:03:31.165Z</time></trkpt><trkpt lat="41.2757283" lon="0.720145"><ele>348.0</ele><time>2026-03-31T08:03:32.165Z</time></trkpt><trkpt lat="41.2756083" lon="0.7199583"><ele>348.6666666666667</ele><time>2026-03-31T08:03:33.164Z</time></trkpt><trkpt lat="41.275505" lon="0.7197667"><ele>349.33333333333337</ele><time>2026-03-31T08:03:34.165Z</time></trkpt><trkpt lat="41.2754083" lon="0.7195767"><ele>350.0</ele><time>2026-03-31T08:03:35.165Z</time></trkpt><trkpt lat="41.2753183" lon="0.719405"><ele>352.33333333333337</ele><time>2026-03-31T08:03:36.164Z</time></trkpt><trkpt lat="41.2752283" lon="0.7192317"><ele>354.6666666666667</ele><time>2026-03-31T08:03:37.165Z</time></trkpt><trkpt lat="41.27515" lon="0.719055"><ele>357.0</ele><time>2026-03-31T08:03:38.164Z</time></trkpt><trkpt lat="41.27509" lon="0.7188817"><ele>357.0</ele><time>2026-03-31T08:03:39.164Z</time></trkpt><trkpt lat="41.2750567" lon="0.71871"><ele>357.0</ele><time>2026-03-31T08:03:40.164Z</time></trkpt><trkpt lat="41.2750433" lon="0.7185133"><ele>357.0</ele><time>2026-03-31T08:03:41.165Z</time></trkpt><trkpt lat="41.27504" lon="0.7183267"><ele>357.0</ele><time>2026-03-31T08:03:42.165Z</time></trkpt><trkpt lat="41.275055" lon="0.71814"><ele>356.0</ele><time>2026-03-31T08:03:43.164Z</time></trkpt><trkpt lat="41.2750933" lon="0.717945"><ele>355.0</ele><time>2026-03-31T08:03:44.165Z</time></trkpt><trkpt lat="41.2751417" lon="0.71773"><ele>354.0</ele><time>2026-03-31T08:03:45.165Z</time></trkpt><trkpt lat="41.2751967" lon="0.717505"><ele>351.3333333333333</ele><time>2026-03-31T08:03:46.164Z</time></trkpt><trkpt lat="41.2752483" lon="0.7172683"><ele>348.66666666666663</ele><time>2026-03-31T08:03:47.164Z</time></trkpt><trkpt lat="41.275285" lon="0.7170183"><ele>346.0</ele><time>2026-03-31T08:03:48.164Z</time></trkpt><trkpt lat="41.275315" lon="0.7167583"><ele>344.0</ele><time>2026-03-31T08:03:49.165Z</time></trkpt><trkpt lat="41.27533" lon="0.7164967"><ele>342.0</ele><time>2026-03-31T08:03:50.164Z</time></trkpt><trkpt lat="41.27533" lon="0.7162283"><ele>340.0</ele><time>2026-03-31T08:03:51.165Z</time></trkpt><trkpt lat="41.2753133" lon="0.7159783"><ele>338.0</ele><time>2026-03-31T08:03:52.164Z</time></trkpt><trkpt lat="41.2753017" lon="0.7157483"><ele>336.0</ele><time>2026-03-31T08:03:53.165Z</time></trkpt><trkpt lat="41.275295" lon="0.7155533"><ele>334.0</ele><time>2026-03-31T08:03:54.164Z</time></trkpt><trkpt lat="41.2752933" lon="0.7153633"><ele>333.75</ele><time>2026-03-31T08:03:55.164Z</time></trkpt><trkpt lat="41.2753067" lon="0.71519"><ele>333.5</ele><time>2026-03-31T08:03:56.165Z</time></trkpt><trkpt lat="41.2753467" lon="0.7150317"><ele>333.25</ele><time>2026-03-31T08:03:57.165Z</time></trkpt><trkpt lat="41.2753833" lon="0.7148817"><ele>333.0</ele><time>2026-03-31T08:03:58.164Z</time></trkpt><trkpt lat="41.27538" lon="0.7147283"><ele>333.0</ele><time>2026-03-31T08:03:59.165Z</time></trkpt><trkpt lat="41.2753267" lon="0.7145767"><ele>333.0</ele><time>2026-03-31T08:04:00.164Z</time></trkpt><trkpt lat="41.2752483" lon="0.7144617"><ele>333.0</ele><time>2026-03-31T08:04:01.165Z</time></trkpt><trkpt lat="41.275135" lon="0.714365"><ele>333.0</ele><time>2026-03-31T08:04:02.165Z</time></trkpt><trkpt lat="41.2750267" lon="0.7142983"><ele>330.5</ele><time>2026-03-31T08:04:03.164Z</time></trkpt><trkpt lat="41.274915" lon="0.7142083"><ele>328.0</ele><time>2026-03-31T08:04:04.165Z</time></trkpt><trkpt lat="41.2748033" lon="0.7140783"><ele>325.5</ele><time>2026-03-31T08:04:05.164Z</time></trkpt><trkpt lat="41.2746917" lon="0.713935"><ele>323.0</ele><time>2026-03-31T08:04:06.165Z</time></trkpt><trkpt lat="41.2745933" lon="0.7138033"><ele>323.0</ele><time>2026-03-31T08:04:07.164Z</time></trkpt><trkpt lat="41.274505" lon="0.7136683"><ele>323.0</ele><time>2026-03-31T08:04:08.164Z</time></trkpt><trkpt lat="41.2744383" lon="0.7135017"><ele>323.0</ele><time>2026-03-31T08:04:09.165Z</time></trkpt><trkpt lat="41.2743867" lon="0.7133233"><ele>323.0</ele><time>2026-03-31T08:04:10.164Z</time></trkpt><trkpt lat="41.274345" lon="0.71314"><ele>326.25</ele><time>2026-03-31T08:04:11.164Z</time></trkpt><trkpt lat="41.2742967" lon="0.7129667"><ele>329.5</ele><time>2026-03-31T08:04:12.165Z</time></trkpt><trkpt lat="41.27424" lon="0.7127917"><ele>332.75</ele><time>2026-03-31T08:04:13.165Z</time></trkpt><trkpt lat="41.274165" lon="0.7126183"><ele>336.0</ele><time>2026-03-31T08:04:14.164Z</time></trkpt><trkpt lat="41.27406" lon="0.7124733"><ele>332.6666666666667</ele><time>2026-03-31T08:04:15.164Z</time></trkpt><trkpt lat="41.2739167" lon="0.71235"><ele>329.33333333333337</ele><time>2026-03-31T08:04:16.164Z</time></trkpt><trkpt lat="41.2737667" lon="0.7122567"><ele>326.0</ele><time>2026-03-31T08:04:17.165Z</time></trkpt><trkpt lat="41.2736167" lon="0.7121283"><ele>326.0</ele><time>2026-03-31T08:04:18.165Z</time></trkpt><trkpt lat="41.2734667" lon="0.7119717"><ele>326.0</ele><time>2026-03-31T08:04:19.164Z</time></trkpt><trkpt lat="41.2733317" lon="0.7118167"><ele>326.0</ele><time>2026-03-31T08:04:20.165Z</time></trkpt><trkpt lat="41.2732033" lon="0.7116683"><ele>325.75</ele><time>2026-03-31T08:04:21.165Z</time></trkpt><trkpt lat="41.2730767" lon="0.71153"><ele>325.5</ele><time>2026-03-31T08:04:22.165Z</time></trkpt><trkpt lat="41.2729733" lon="0.7114017"><ele>325.25</ele><time>2026-03-31T08:04:23.164Z</time></trkpt><trkpt lat="41.272875" lon="0.7112717"><ele>325.0</ele><time>2026-03-31T08:04:24.165Z</time></trkpt><trkpt lat="41.2727983" lon="0.7111317"><ele>327.5</ele><time>2026-03-31T08:04:25.164Z</time></trkpt><trkpt lat="41.2727517" lon="0.7109583"><ele>330.0</ele><time>2026-03-31T08:04:26.164Z</time></trkpt><trkpt lat="41.2727483" lon="0.7107767"><ele>332.5</ele><time>2026-03-31T08:04:27.164Z</time></trkpt><trkpt lat="41.2727433" lon="0.7106083"><ele>335.0</ele><time>2026-03-31T08:04:28.164Z</time></trkpt><trkpt lat="41.272715" lon="0.7104483"><ele>335.0</ele><time>2026-03-31T08:04:29.165Z</time></trkpt><trkpt lat="41.272655" lon="0.7103217"><ele>335.0</ele><time>2026-03-31T08:04:30.164Z</time></trkpt><trkpt lat="41.2725483" lon="0.7102267"><ele>335.0</ele><time>2026-03-31T08:04:31.164Z</time></trkpt><trkpt lat="41.2724233" lon="0.7101767"><ele>335.0</ele><time>2026-03-31T08:04:32.164Z</time></trkpt><trkpt lat="41.2722933" lon="0.7101867"><ele>336.0</ele><time>2026-03-31T08:04:33.164Z</time></trkpt><trkpt lat="41.2721817" lon="0.7102517"><ele>337.0</ele><time>2026-03-31T08:04:34.164Z</time></trkpt><trkpt lat="41.2720867" lon="0.7103667"><ele>338.0</ele><time>2026-03-31T08:04:35.164Z</time></trkpt><trkpt lat="41.2720117" lon="0.7105167"><ele>339.0</ele><time>2026-03-31T08:04:36.165Z</time></trkpt><trkpt lat="41.2719283" lon="0.7106617"><ele>339.0</ele><time>2026-03-31T08:04:37.165Z</time></trkpt><trkpt lat="41.2718467" lon="0.71078"><ele>339.0</ele><time>2026-03-31T08:04:38.165Z</time></trkpt><trkpt lat="41.2717517" lon="0.7108617"><ele>339.0</ele><time>2026-03-31T08:04:39.165Z</time></trkpt><trkpt lat="41.2716383" lon="0.7109133"><ele>339.0</ele><time>2026-03-31T08:04:40.164Z</time></trkpt><trkpt lat="41.271505" lon="0.7109183"><ele>342.3333333333333</ele><time>2026-03-31T08:04:41.165Z</time></trkpt><trkpt lat="41.2713583" lon="0.7108983"><ele>345.66666666666663</ele><time>2026-03-31T08:04:42.164Z</time></trkpt><trkpt lat="41.2712083" lon="0.7108667"><ele>349.0</ele><time>2026-03-31T08:04:43.165Z</time></trkpt><trkpt lat="41.27105" lon="0.71086"><ele>349.0</ele><time>2026-03-31T08:04:44.164Z</time></trkpt><trkpt lat="41.2708867" lon="0.7108983"><ele>349.0</ele><time>2026-03-31T08:04:45.165Z</time></trkpt><trkpt lat="41.2707267" lon="0.71097"><ele>349.0</ele><time>2026-03-31T08:04:46.164Z</time></trkpt><trkpt lat="41.27058" lon="0.7110717"><ele>342.66666666666663</ele><time>2026-03-31T08:04:47.165Z</time></trkpt><trkpt lat="41.2704283" lon="0.71117"><ele>336.3333333333333</ele><time>2026-03-31T08:04:48.165Z</time></trkpt><trkpt lat="41.2702817" lon="0.71127"><ele>330.0</ele><time>2026-03-31T08:04:49.165Z</time></trkpt><trkpt lat="41.2701517" lon="0.71136"><ele>330.0</ele><time>2026-03-31T08:04:50.165Z</time></trkpt><trkpt lat="41.2700283" lon="0.7114333"><ele>330.0</ele><time>2026-03-31T08:04:51.164Z</time></trkpt><trkpt lat="41.2699" lon="0.7114917"><ele>330.0</ele><time>2026-03-31T08:04:52.165Z</time></trkpt><trkpt lat="41.2697683" lon="0.711495"><ele>330.0</ele><time>2026-03-31T08:04:53.164Z</time></trkpt><trkpt lat="41.269625" lon="0.7114617"><ele>333.5</ele><time>2026-03-31T08:04:54.164Z</time></trkpt><trkpt lat="41.2694767" lon="0.7114283"><ele>337.0</ele><time>2026-03-31T08:04:55.164Z</time></trkpt><trkpt lat="41.269335" lon="0.7114167"><ele>340.5</ele><time>2026-03-31T08:04:56.165Z</time></trkpt><trkpt lat="41.269205" lon="0.7114633"><ele>344.0</ele><time>2026-03-31T08:04:57.164Z</time></trkpt><trkpt lat="41.2690917" lon="0.711555"><ele>344.0</ele><time>2026-03-31T08:04:58.164Z</time></trkpt><trkpt lat="41.269" lon="0.7116867"><ele>344.0</ele><time>2026-03-31T08:04:59.164Z</time></trkpt><trkpt lat="41.2689433" lon="0.71186"><ele>344.0</ele><time>2026-03-31T08:05:00.164Z</time></trkpt><trkpt lat="41.2689067" lon="0.7120483"><ele>344.0</ele><time>2026-03-31T08:05:01.164Z</time></trkpt><trkpt lat="41.26886" lon="0.7122283"><ele>345.75</ele><time>2026-03-31T08:05:02.165Z</time></trkpt><trkpt lat="41.2687917" lon="0.7123917"><ele>347.5</ele><time>2026-03-31T08:05:03.165Z</time></trkpt><trkpt lat="41.2687083" lon="0.7125283"><ele>349.25</ele><time>2026-03-31T08:05:04.165Z</time></trkpt><trkpt lat="41.268605" lon="0.7126667"><ele>351.0</ele><time>2026-03-31T08:05:05.165Z</time></trkpt><trkpt lat="41.2684717" lon="0.7127983"><ele>345.6666666666667</ele><time>2026-03-31T08:05:06.164Z</time></trkpt><trkpt lat="41.2683317" lon="0.7128983"><ele>340.33333333333337</ele><time>2026-03-31T08:05:07.164Z</time></trkpt><trkpt lat="41.268185" lon="0.7129833"><ele>335.0</ele><time>2026-03-31T08:05:08.164Z</time></trkpt><trkpt lat="41.268035" lon="0.71306"><ele>335.0</ele><time>2026-03-31T08:05:09.164Z</time></trkpt><trkpt lat="41.267885" lon="0.713125"><ele>335.0</ele><time>2026-03-31T08:05:10.164Z</time></trkpt><trkpt lat="41.2677367" lon="0.7132"><ele>335.0</ele><time>2026-03-31T08:05:11.165Z</time></trkpt><trkpt lat="41.2675933" lon="0.71327"><ele>335.0</ele><time>2026-03-31T08:05:12.165Z</time></trkpt><trkpt lat="41.2674483" lon="0.713325"><ele>335.0</ele><time>2026-03-31T08:05:13.164Z</time></trkpt><trkpt lat="41.2673033" lon="0.7133667"><ele>335.0</ele><time>2026-03-31T08:05:14.164Z</time></trkpt><trkpt lat="41.2671467" lon="0.7133783"><ele>335.0</ele><time>2026-03-31T08:05:15.164Z</time></trkpt><trkpt lat="41.26699" lon="0.7133617"><ele>335.0</ele><time>2026-03-31T08:05:16.164Z</time></trkpt><trkpt lat="41.2668333" lon="0.7133317"><ele>335.0</ele><time>2026-03-31T08:05:17.165Z</time></trkpt><trkpt lat="41.2666783" lon="0.713285"><ele>335.0</ele><time>2026-03-31T08:05:18.164Z</time></trkpt><trkpt lat="41.266535" lon="0.71323"><ele>335.0</ele><time>2026-03-31T08:05:19.164Z</time></trkpt><trkpt lat="41.2663967" lon="0.7131717"><ele>335.0</ele><time>2026-03-31T08:05:20.165Z</time></trkpt><trkpt lat="41.2662767" lon="0.71311"><ele>335.0</ele><time>2026-03-31T08:05:21.164Z</time></trkpt><trkpt lat="41.2661683" lon="0.713035"><ele>334.5</ele><time>2026-03-31T08:05:22.164Z</time></trkpt><trkpt lat="41.26606" lon="0.712935"><ele>334.0</ele><time>2026-03-31T08:05:23.165Z</time></trkpt><trkpt lat="41.26595" lon="0.7128133"><ele>333.5</ele><time>2026-03-31T08:05:24.165Z</time></trkpt><trkpt lat="41.26584" lon="0.7126867"><ele>333.0</ele><time>2026-03-31T08:05:25.164Z</time></trkpt><trkpt lat="41.2657333" lon="0.7125433"><ele>333.0</ele><time>2026-03-31T08:05:26.164Z</time></trkpt><trkpt lat="41.265635" lon="0.712395"><ele>333.0</ele><time>2026-03-31T08:05:27.164Z</time></trkpt><trkpt lat="41.2655433" lon="0.7122367"><ele>333.0</ele><time>2026-03-31T08:05:28.164Z</time></trkpt><trkpt lat="41.2654767" lon="0.7120617"><ele>333.0</ele><time>2026-03-31T08:05:29.165Z</time></trkpt><trkpt lat="41.2654333" lon="0.71188"><ele>331.6666666666667</ele><time>2026-03-31T08:05:30.165Z</time></trkpt><trkpt lat="41.2653867" lon="0.7116917"><ele>330.33333333333337</ele><time>2026-03-31T08:05:31.164Z</time></trkpt><trkpt lat="41.2653383" lon="0.711495"><ele>329.0</ele><time>2026-03-31T08:05:32.165Z</time></trkpt><trkpt lat="41.2652933" lon="0.7113033"><ele>329.0</ele><time>2026-03-31T08:05:33.165Z</time></trkpt><trkpt lat="41.26522" lon="0.7111233"><ele>329.0</ele><time>2026-03-31T08:05:34.164Z</time></trkpt><trkpt lat="41.2651183" lon="0.710955"><ele>329.0</ele><time>2026-03-31T08:05:35.164Z</time></trkpt><trkpt lat="41.2650017" lon="0.710815"><ele>329.6666666666667</ele><time>2026-03-31T08:05:36.164Z</time></trkpt><trkpt lat="41.2648583" lon="0.7107533"><ele>330.3333333333333</ele><time>2026-03-31T08:05:37.165Z</time></trkpt><trkpt lat="41.264695" lon="0.71076"><ele>331.0</ele><time>2026-03-31T08:05:38.164Z</time></trkpt><trkpt lat="41.2645283" lon="0.7107933"><ele>331.0</ele><time>2026-03-31T08:05:39.164Z</time></trkpt><trkpt lat="41.2643733" lon="0.7108217"><ele>331.0</ele><time>2026-03-31T08:05:40.165Z</time></trkpt><trkpt lat="41.2642017" lon="0.7108033"><ele>331.0</ele><time>2026-03-31T08:05:41.164Z</time></trkpt><trkpt lat="41.2640333" lon="0.7107333"><ele>327.66666666666663</ele><time>2026-03-31T08:05:42.164Z</time></trkpt><trkpt lat="41.263885" lon="0.7106317"><ele>324.3333333333333</ele><time>2026-03-31T08:05:43.165Z</time></trkpt><trkpt lat="41.2637617" lon="0.7105"><ele>321.0</ele><time>2026-03-31T08:05:44.165Z</time></trkpt><trkpt lat="41.26364" lon="0.710375"><ele>321.0</ele><time>2026-03-31T08:05:45.164Z</time></trkpt><trkpt lat="41.2635383" lon="0.7102967"><ele>321.0</ele><time>2026-03-31T08:05:46.165Z</time></trkpt><trkpt lat="41.2634367" lon="0.7102683"><ele>321.0</ele><time>2026-03-31T08:05:47.164Z</time></trkpt><trkpt lat="41.2633233" lon="0.7102833"><ele>321.0</ele><time>2026-03-31T08:05:48.164Z</time></trkpt><trkpt lat="41.2631817" lon="0.7102867"><ele>318.0</ele><time>2026-03-31T08:05:49.165Z</time></trkpt><trkpt lat="41.263035" lon="0.71026"><ele>315.0</ele><time>2026-03-31T08:05:50.164Z</time></trkpt><trkpt lat="41.2628667" lon="0.7102333"><ele>312.0</ele><time>2026-03-31T08:05:51.164Z</time></trkpt><trkpt lat="41.2626983" lon="0.7102383"><ele>316.6666666666667</ele><time>2026-03-31T08:05:52.164Z</time></trkpt><trkpt lat="41.262525" lon="0.7102267"><ele>321.33333333333337</ele><time>2026-03-31T08:05:53.165Z</time></trkpt><trkpt lat="41.2623417" lon="0.7101767"><ele>326.0</ele><time>2026-03-31T08:05:54.164Z</time></trkpt><trkpt lat="41.2621817" lon="0.7101433"><ele>326.0</ele><time>2026-03-31T08:05:55.165Z</time></trkpt><trkpt lat="41.26202" lon="0.7100733"><ele>326.0</ele><time>2026-03-31T08:05:56.164Z</time></trkpt><trkpt lat="41.261895" lon="0.7100233"><ele>326.0</ele><time>2026-03-31T08:05:57.165Z</time></trkpt><trkpt lat="41.2617817" lon="0.70995"><ele>326.0</ele><time>2026-03-31T08:05:58.165Z</time></trkpt><trkpt lat="41.2616933" lon="0.709865"><ele>326.0</ele><time>2026-03-31T08:05:59.164Z</time></trkpt><trkpt lat="41.2616183" lon="0.7097567"><ele>326.0</ele><time>2026-03-31T08:06:00.164Z</time></trkpt><trkpt lat="41.2615783" lon="0.709625"><ele>326.0</ele><time>2026-03-31T08:06:01.164Z</time></trkpt><trkpt lat="41.26158" lon="0.709475"><ele>326.0</ele><time>2026-03-31T08:06:02.165Z</time></trkpt><trkpt lat="41.2616217" lon="0.7093283"><ele>326.0</ele><time>2026-03-31T08:06:03.164Z</time></trkpt><trkpt lat="41.261665" lon="0.7091667"><ele>329.0</ele><time>2026-03-31T08:06:04.165Z</time></trkpt><trkpt lat="41.2616967" lon="0.70901"><ele>332.0</ele><time>2026-03-31T08:06:05.165Z</time></trkpt><trkpt lat="41.2616833" lon="0.7088617"><ele>335.0</ele><time>2026-03-31T08:06:06.165Z</time></trkpt><trkpt lat="41.2616183" lon="0.7087117"><ele>338.0</ele><time>2026-03-31T08:06:07.164Z</time></trkpt><trkpt lat="41.2615217" lon="0.708605"><ele>339.5</ele><time>2026-03-31T08:06:08.164Z</time></trkpt><trkpt lat="41.261395" lon="0.7085517"><ele>341.0</ele><time>2026-03-31T08:06:09.164Z</time></trkpt><trkpt lat="41.2612567" lon="0.7085533"><ele>342.5</ele><time>2026-03-31T08:06:10.164Z</time></trkpt><trkpt lat="41.2611217" lon="0.708595"><ele>344.0</ele><time>2026-03-31T08:06:11.164Z</time></trkpt><trkpt lat="41.2609633" lon="0.7085983"><ele>344.0</ele><time>2026-03-31T08:06:12.164Z</time></trkpt><trkpt lat="41.2608133" lon="0.7085567"><ele>344.0</ele><time>2026-03-31T08:06:13.164Z</time></trkpt><trkpt lat="41.2606883" lon="0.7084917"><ele>344.0</ele><time>2026-03-31T08:06:14.164Z</time></trkpt><trkpt lat="41.2605867" lon="0.7083917"><ele>344.0</ele><time>2026-03-31T08:06:15.164Z</time></trkpt><trkpt lat="41.26049" lon="0.7082583"><ele>342.75</ele><time>2026-03-31T08:06:16.164Z</time></trkpt><trkpt lat="41.2603867" lon="0.7081267"><ele>341.5</ele><time>2026-03-31T08:06:17.164Z</time></trkpt><trkpt lat="41.26028" lon="0.7080133"><ele>340.25</ele><time>2026-03-31T08:06:18.165Z</time></trkpt><trkpt lat="41.2601517" lon="0.7079633"><ele>339.0</ele><time>2026-03-31T08:06:19.164Z</time></trkpt><trkpt lat="41.26002" lon="0.70798"><ele>339.0</ele><time>2026-03-31T08:06:20.164Z</time></trkpt><trkpt lat="41.2599" lon="0.708045"><ele>339.0</ele><time>2026-03-31T08:06:21.164Z</time></trkpt><trkpt lat="41.25979" lon="0.7081667"><ele>339.0</ele><time>2026-03-31T08:06:22.164Z</time></trkpt><trkpt lat="41.2596767" lon="0.7082733"><ele>339.0</ele><time>2026-03-31T08:06:23.165Z</time></trkpt><trkpt lat="41.2595667" lon="0.708345"><ele>343.0</ele><time>2026-03-31T08:06:24.164Z</time></trkpt><trkpt lat="41.2594283" lon="0.708365"><ele>347.0</ele><time>2026-03-31T08:06:25.164Z</time></trkpt><trkpt lat="41.2592783" lon="0.7083617"><ele>351.0</ele><time>2026-03-31T08:06:26.164Z</time></trkpt><trkpt lat="41.2591183" lon="0.70834"><ele>351.0</ele><time>2026-03-31T08:06:27.164Z</time></trkpt><trkpt lat="41.258955" lon="0.70831"><ele>351.0</ele><time>2026-03-31T08:06:28.164Z</time></trkpt><trkpt lat="41.2587883" lon="0.7082683"><ele>351.0</ele><time>2026-03-31T08:06:29.164Z</time></trkpt><trkpt lat="41.258635" lon="0.70821"><ele>349.5</ele><time>2026-03-31T08:06:30.164Z</time></trkpt><trkpt lat="41.2585133" lon="0.708155"><ele>348.0</ele><time>2026-03-31T08:06:31.164Z</time></trkpt><trkpt lat="41.258415" lon="0.708085"><ele>346.5</ele><time>2026-03-31T08:06:32.164Z</time></trkpt><trkpt lat="41.2583267" lon="0.7079783"><ele>345.0</ele><time>2026-03-31T08:06:33.165Z</time></trkpt><trkpt lat="41.2582383" lon="0.7078483"><ele>350.0</ele><time>2026-03-31T08:06:34.164Z</time></trkpt><trkpt lat="41.2581483" lon="0.7077317"><ele>355.0</ele><time>2026-03-31T08:06:35.164Z</time></trkpt><trkpt lat="41.258035" lon="0.7076483"><ele>360.0</ele><time>2026-03-31T08:06:36.165Z</time></trkpt><trkpt lat="41.2579167" lon="0.7076083"><ele>365.0</ele><time>2026-03-31T08:06:37.165Z</time></trkpt><trkpt lat="41.25781" lon="0.707625"><ele>365.0</ele><time>2026-03-31T08:06:38.165Z</time></trkpt><trkpt lat="41.2577167" lon="0.70769"><ele>365.0</ele><time>2026-03-31T08:06:39.165Z</time></trkpt><trkpt lat="41.2576383" lon="0.7077983"><ele>365.0</ele><time>2026-03-31T08:06:40.164Z</time></trkpt><trkpt lat="41.2575667" lon="0.7079417"><ele>365.0</ele><time>2026-03-31T08:06:41.165Z</time></trkpt><trkpt lat="41.2574817" lon="0.7080767"><ele>364.75</ele><time>2026-03-31T08:06:42.165Z</time></trkpt><trkpt lat="41.2573817" lon="0.7082033"><ele>364.5</ele><time>2026-03-31T08:06:43.164Z</time></trkpt><trkpt lat="41.2572683" lon="0.7083067"><ele>364.25</ele><time>2026-03-31T08:06:44.164Z</time></trkpt><trkpt lat="41.2571433" lon="0.7083667"><ele>364.0</ele><time>2026-03-31T08:06:45.165Z</time></trkpt><trkpt lat="41.2570167" lon="0.7083883"><ele>364.0</ele><time>2026-03-31T08:06:46.164Z</time></trkpt><trkpt lat="41.2568783" lon="0.708395"><ele>364.0</ele><time>2026-03-31T08:06:47.164Z</time></trkpt><trkpt lat="41.256755" lon="0.7083767"><ele>364.0</ele><time>2026-03-31T08:06:48.164Z</time></trkpt><trkpt lat="41.2566583" lon="0.7083867"><ele>364.0</ele><time>2026-03-31T08:06:49.164Z</time></trkpt><trkpt lat="41.256585" lon="0.708445"><ele>364.0</ele><time>2026-03-31T08:06:50.165Z</time></trkpt><trkpt lat="41.2565433" lon="0.7085567"><ele>364.6</ele><time>2026-03-31T08:06:51.165Z</time></trkpt><trkpt lat="41.25652" lon="0.708695"><ele>365.2</ele><time>2026-03-31T08:06:52.164Z</time></trkpt><trkpt lat="41.2564833" lon="0.7088483"><ele>365.8</ele><time>2026-03-31T08:06:53.164Z</time></trkpt><trkpt lat="41.2564333" lon="0.7089667"><ele>366.40000000000003</ele><time>2026-03-31T08:06:54.165Z</time></trkpt><trkpt lat="41.2563583" lon="0.7090683"><ele>367.0</ele><time>2026-03-31T08:06:55.165Z</time></trkpt><trkpt lat="41.256265" lon="0.709175"><ele>367.0</ele><time>2026-03-31T08:06:56.164Z</time></trkpt><trkpt lat="41.256155" lon="0.7092917"><ele>367.0</ele><time>2026-03-31T08:06:57.164Z</time></trkpt><trkpt lat="41.2560417" lon="0.7094267"><ele>367.0</ele><time>2026-03-31T08:06:58.164Z</time></trkpt><trkpt lat="41.255935" lon="0.709575"><ele>367.0</ele><time>2026-03-31T08:06:59.164Z</time></trkpt><trkpt lat="41.2558317" lon="0.709725"><ele>365.25</ele><time>2026-03-31T08:07:00.165Z</time></trkpt><trkpt lat="41.2557333" lon="0.709875"><ele>363.5</ele><time>2026-03-31T08:07:01.164Z</time></trkpt><trkpt lat="41.2556433" lon="0.7100167"><ele>361.75</ele><time>2026-03-31T08:07:02.165Z</time></trkpt><trkpt lat="41.25556" lon="0.7101283"><ele>360.0</ele><time>2026-03-31T08:07:03.165Z</time></trkpt><trkpt lat="41.255465" lon="0.7102183"><ele>355.75</ele><time>2026-03-31T08:07:04.165Z</time></trkpt><trkpt lat="41.25536" lon="0.7102717"><ele>351.5</ele><time>2026-03-31T08:07:05.165Z</time></trkpt><trkpt lat="41.25524" lon="0.7103"><ele>347.25</ele><time>2026-03-31T08:07:06.164Z</time></trkpt><trkpt lat="41.2551017" lon="0.7102967"><ele>343.0</ele><time>2026-03-31T08:07:07.164Z</time></trkpt><trkpt lat="41.2549817" lon="0.71025"><ele>344.75</ele><time>2026-03-31T08:07:08.164Z</time></trkpt><trkpt lat="41.2548783" lon="0.7101533"><ele>346.5</ele><time>2026-03-31T08:07:09.164Z</time></trkpt><trkpt lat="41.2547967" lon="0.7100133"><ele>348.25</ele><time>2026-03-31T08:07:10.165Z</time></trkpt><trkpt lat="41.2547367" lon="0.709835"><ele>350.0</ele><time>2026-03-31T08:07:11.165Z</time></trkpt><trkpt lat="41.2546817" lon="0.709645"><ele>350.0</ele><time>2026-03-31T08:07:12.164Z</time></trkpt><trkpt lat="41.254605" lon="0.70948"><ele>350.0</ele><time>2026-03-31T08:07:13.164Z</time></trkpt><trkpt lat="41.2545" lon="0.7093467"><ele>350.0</ele><time>2026-03-31T08:07:14.165Z</time></trkpt><trkpt lat="41.2543883" lon="0.7092267"><ele>350.0</ele><time>2026-03-31T08:07:15.164Z</time></trkpt><trkpt lat="41.25429" lon="0.709115"><ele>350.0</ele><time>2026-03-31T08:07:16.164Z</time></trkpt><trkpt lat="41.2542133" lon="0.7089967"><ele>350.0</ele><time>2026-03-31T08:07:17.165Z</time></trkpt><trkpt lat="41.25417" lon="0.7088717"><ele>350.0</ele><time>2026-03-31T08:07:18.164Z</time></trkpt><trkpt lat="41.2541283" lon="0.70873"><ele>350.0</ele><time>2026-03-31T08:07:19.165Z</time></trkpt><trkpt lat="41.25407" lon="0.708585"><ele>351.75</ele><time>2026-03-31T08:07:20.165Z</time></trkpt><trkpt lat="41.253975" lon="0.708455"><ele>353.5</ele><time>2026-03-31T08:07:21.164Z</time></trkpt><trkpt lat="41.2538767" lon="0.70836"><ele>355.25</ele><time>2026-03-31T08:07:22.165Z</time></trkpt><trkpt lat="41.25377" lon="0.70825"><ele>357.0</ele><time>2026-03-31T08:07:23.165Z</time></trkpt><trkpt lat="41.253685" lon="0.7081133"><ele>353.8</ele><time>2026-03-31T08:07:24.164Z</time></trkpt><trkpt lat="41.253655" lon="0.707975"><ele>350.6</ele><time>2026-03-31T08:07:25.164Z</time></trkpt><trkpt lat="41.2536633" lon="0.7078367"><ele>347.40000000000003</ele><time>2026-03-31T08:07:26.164Z</time></trkpt><trkpt lat="41.2537067" lon="0.707705"><ele>344.20000000000005</ele><time>2026-03-31T08:07:27.165Z</time></trkpt><trkpt lat="41.2537783" lon="0.7075717"><ele>341.0</ele><time>2026-03-31T08:07:28.164Z</time></trkpt><trkpt lat="41.2538467" lon="0.7074283"><ele>341.0</ele><time>2026-03-31T08:07:29.164Z</time></trkpt><trkpt lat="41.253895" lon="0.7072933"><ele>341.0</ele><time>2026-03-31T08:07:30.165Z</time></trkpt><trkpt lat="41.25392" lon="0.7071517"><ele>341.0</ele><time>2026-03-31T08:07:31.165Z</time></trkpt><trkpt lat="41.2539067" lon="0.707015"><ele>341.0</ele><time>2026-03-31T08:07:32.164Z</time></trkpt><trkpt lat="41.253855" lon="0.7068883"><ele>341.0</ele><time>2026-03-31T08:07:33.164Z</time></trkpt><trkpt lat="41.2537767" lon="0.70679"><ele>344.25</ele><time>2026-03-31T08:07:34.165Z</time></trkpt><trkpt lat="41.25367" lon="0.7067433"><ele>347.5</ele><time>2026-03-31T08:07:35.165Z</time></trkpt><trkpt lat="41.2535433" lon="0.7067467"><ele>350.75</ele><time>2026-03-31T08:07:36.164Z</time></trkpt><trkpt lat="41.25341" lon="0.706805"><ele>354.0</ele><time>2026-03-31T08:07:37.164Z</time></trkpt><trkpt lat="41.2532733" lon="0.7069017"><ele>350.75</ele><time>2026-03-31T08:07:38.164Z</time></trkpt><trkpt lat="41.2531433" lon="0.7070017"><ele>347.5</ele><time>2026-03-31T08:07:39.164Z</time></trkpt><trkpt lat="41.2530033" lon="0.7070833"><ele>344.25</ele><time>2026-03-31T08:07:40.164Z</time></trkpt><trkpt lat="41.25288" lon="0.707155"><ele>341.0</ele><time>2026-03-31T08:07:41.165Z</time></trkpt><trkpt lat="41.252755" lon="0.7072117"><ele>339.0</ele><time>2026-03-31T08:07:42.165Z</time></trkpt><trkpt lat="41.25262" lon="0.7072433"><ele>337.0</ele><time>2026-03-31T08:07:43.165Z</time></trkpt><trkpt lat="41.252465" lon="0.7072367"><ele>335.0</ele><time>2026-03-31T08:07:44.164Z</time></trkpt><trkpt lat="41.2523067" lon="0.7071933"><ele>332.0</ele><time>2026-03-31T08:07:45.164Z</time></trkpt><trkpt lat="41.2521483" lon="0.707145"><ele>329.0</ele><time>2026-03-31T08:07:46.164Z</time></trkpt><trkpt lat="41.251985" lon="0.7070867"><ele>326.0</ele><time>2026-03-31T08:07:47.164Z</time></trkpt><trkpt lat="41.25183" lon="0.70703"><ele>326.0</ele><time>2026-03-31T08:07:48.164Z</time></trkpt><trkpt lat="41.2516867" lon="0.706975"><ele>326.0</ele><time>2026-03-31T08:07:49.164Z</time></trkpt><trkpt lat="41.2515517" lon="0.7069167"><ele>326.0</ele><time>2026-03-31T08:07:50.165Z</time></trkpt><trkpt lat="41.2514367" lon="0.7068333"><ele>326.0</ele><time>2026-03-31T08:07:51.164Z</time></trkpt><trkpt lat="41.251325" lon="0.7067217"><ele>324.0</ele><time>2026-03-31T08:07:52.165Z</time></trkpt><trkpt lat="41.2512233" lon="0.706575"><ele>322.0</ele><time>2026-03-31T08:07:53.164Z</time></trkpt><trkpt lat="41.25112" lon="0.7064133"><ele>320.0</ele><time>2026-03-31T08:07:54.165Z</time></trkpt><trkpt lat="41.25102" lon="0.706255"><ele>320.0</ele><time>2026-03-31T08:07:55.165Z</time></trkpt><trkpt lat="41.2509217" lon="0.7061033"><ele>320.0</ele><time>2026-03-31T08:07:56.165Z</time></trkpt><trkpt lat="41.25082" lon="0.705975"><ele>320.0</ele><time>2026-03-31T08:07:57.164Z</time></trkpt><trkpt lat="41.2507133" lon="0.705855"><ele>320.0</ele><time>2026-03-31T08:07:58.164Z</time></trkpt><trkpt lat="41.2506167" lon="0.7057433"><ele>320.0</ele><time>2026-03-31T08:07:59.165Z</time></trkpt><trkpt lat="41.2505283" lon="0.705585"><ele>320.0</ele><time>2026-03-31T08:08:00.165Z</time></trkpt><trkpt lat="41.2504633" lon="0.705425"><ele>320.0</ele><time>2026-03-31T08:08:01.164Z</time></trkpt><trkpt lat="41.25042" lon="0.705255"><ele>320.0</ele><time>2026-03-31T08:08:02.165Z</time></trkpt><trkpt lat="41.2504033" lon="0.7050967"><ele>320.0</ele><time>2026-03-31T08:08:03.164Z</time></trkpt><trkpt lat="41.250435" lon="0.704945"><ele>320.0</ele><time>2026-03-31T08:08:04.164Z</time></trkpt><trkpt lat="41.2505017" lon="0.7048083"><ele>320.0</ele><time>2026-03-31T08:08:05.164Z</time></trkpt><trkpt lat="41.250605" lon="0.7047117"><ele>320.0</ele><time>2026-03-31T08:08:06.165Z</time></trkpt><trkpt lat="41.25073" lon="0.704625"><ele>322.0</ele><time>2026-03-31T08:08:07.164Z</time></trkpt><trkpt lat="41.2508533" lon="0.7045383"><ele>324.0</ele><time>2026-03-31T08:08:08.164Z</time></trkpt><trkpt lat="41.2509567" lon="0.7044233"><ele>326.0</ele><time>2026-03-31T08:08:09.164Z</time></trkpt><trkpt lat="41.2510217" lon="0.7042867"><ele>328.0</ele><time>2026-03-31T08:08:10.164Z</time></trkpt><trkpt lat="41.2510617" lon="0.7041383"><ele>328.0</ele><time>2026-03-31T08:08:11.164Z</time></trkpt><trkpt lat="41.25105" lon="0.7039767"><ele>328.0</ele><time>2026-03-31T08:08:12.164Z</time></trkpt><trkpt lat="41.251015" lon="0.7038083"><ele>328.0</ele><time>2026-03-31T08:08:13.164Z</time></trkpt><trkpt lat="41.2509733" lon="0.7036433"><ele>328.0</ele><time>2026-03-31T08:08:14.164Z</time></trkpt><trkpt lat="41.2509567" lon="0.7034483"><ele>326.75</ele><time>2026-03-31T08:08:15.165Z</time></trkpt><trkpt lat="41.250985" lon="0.7032517"><ele>325.5</ele><time>2026-03-31T08:08:16.165Z</time></trkpt><trkpt lat="41.2510317" lon="0.7030717"><ele>324.25</ele><time>2026-03-31T08:08:17.164Z</time></trkpt><trkpt lat="41.2510767" lon="0.70291"><ele>323.0</ele><time>2026-03-31T08:08:18.164Z</time></trkpt><trkpt lat="41.2510767" lon="0.70274"><ele>322.5</ele><time>2026-03-31T08:08:19.164Z</time></trkpt><trkpt lat="41.25103" lon="0.7025767"><ele>322.0</ele><time>2026-03-31T08:08:20.164Z</time></trkpt><trkpt lat="41.2509433" lon="0.7024217"><ele>321.5</ele><time>2026-03-31T08:08:21.165Z</time></trkpt><trkpt lat="41.2508283" lon="0.7023067"><ele>321.0</ele><time>2026-03-31T08:08:22.164Z</time></trkpt><trkpt lat="41.2507083" lon="0.7022033"><ele>319.3333333333333</ele><time>2026-03-31T08:08:23.165Z</time></trkpt><trkpt lat="41.2505817" lon="0.702085"><ele>317.66666666666663</ele><time>2026-03-31T08:08:24.165Z</time></trkpt><trkpt lat="41.2504433" lon="0.7019583"><ele>316.0</ele><time>2026-03-31T08:08:25.165Z</time></trkpt><trkpt lat="41.2503117" lon="0.7018333"><ele>316.0</ele><time>2026-03-31T08:08:26.165Z</time></trkpt><trkpt lat="41.2501933" lon="0.7017217"><ele>316.0</ele><time>2026-03-31T08:08:27.164Z</time></trkpt><trkpt lat="41.2500817" lon="0.7016083"><ele>316.0</ele><time>2026-03-31T08:08:28.164Z</time></trkpt><trkpt lat="41.2499867" lon="0.7014767"><ele>316.0</ele><time>2026-03-31T08:08:29.164Z</time></trkpt><trkpt lat="41.2499283" lon="0.701325"><ele>316.0</ele><time>2026-03-31T08:08:30.164Z</time></trkpt><trkpt lat="41.2498983" lon="0.70115"><ele>316.0</ele><time>2026-03-31T08:08:31.164Z</time></trkpt><trkpt lat="41.2499217" lon="0.7009717"><ele>316.0</ele><time>2026-03-31T08:08:32.165Z</time></trkpt><trkpt lat="41.2499633" lon="0.7008067"><ele>316.0</ele><time>2026-03-31T08:08:33.165Z</time></trkpt><trkpt lat="41.2499983" lon="0.7006367"><ele>315.5</ele><time>2026-03-31T08:08:34.164Z</time></trkpt><trkpt lat="41.2499983" lon="0.7004667"><ele>315.0</ele><time>2026-03-31T08:08:35.165Z</time></trkpt><trkpt lat="41.2499467" lon="0.7003117"><ele>314.5</ele><time>2026-03-31T08:08:36.164Z</time></trkpt><trkpt lat="41.2498533" lon="0.7001817"><ele>314.0</ele><time>2026-03-31T08:08:37.164Z</time></trkpt><trkpt lat="41.2497267" lon="0.7000933"><ele>313.0</ele><time>2026-03-31T08:08:38.164Z</time></trkpt><trkpt lat="41.2495833" lon="0.7000533"><ele>312.0</ele><time>2026-03-31T08:08:39.165Z</time></trkpt><trkpt lat="41.24944" lon="0.7000217"><ele>311.0</ele><time>2026-03-31T08:08:40.165Z</time></trkpt><trkpt lat="41.2493033" lon="0.699955"><ele>310.0</ele><time>2026-03-31T08:08:41.164Z</time></trkpt><trkpt lat="41.2491783" lon="0.699845"><ele>310.0</ele><time>2026-03-31T08:08:42.164Z</time></trkpt><trkpt lat="41.2490717" lon="0.6996933"><ele>310.0</ele><time>2026-03-31T08:08:43.165Z</time></trkpt><trkpt lat="41.2489817" lon="0.6995167"><ele>310.0</ele><time>2026-03-31T08:08:44.165Z</time></trkpt><trkpt lat="41.2489" lon="0.699335"><ele>309.75</ele><time>2026-03-31T08:08:45.165Z</time></trkpt><trkpt lat="41.248825" lon="0.6991617"><ele>309.5</ele><time>2026-03-31T08:08:46.165Z</time></trkpt><trkpt lat="41.2487567" lon="0.6990133"><ele>309.25</ele><time>2026-03-31T08:08:47.164Z</time></trkpt><trkpt lat="41.2486883" lon="0.698905"><ele>309.0</ele><time>2026-03-31T08:08:48.164Z</time></trkpt><trkpt lat="41.2486117" lon="0.69882"><ele>309.0</ele><time>2026-03-31T08:08:49.164Z</time></trkpt><trkpt lat="41.2485183" lon="0.6987833"><ele>309.0</ele><time>2026-03-31T08:08:50.164Z</time></trkpt><trkpt lat="41.2484317" lon="0.69883"><ele>309.0</ele><time>2026-03-31T08:08:51.164Z</time></trkpt><trkpt lat="41.2483333" lon="0.6989067"><ele>309.0</ele><time>2026-03-31T08:08:52.164Z</time></trkpt><trkpt lat="41.2482233" lon="0.69899"><ele>309.0</ele><time>2026-03-31T08:08:53.164Z</time></trkpt><trkpt lat="41.2481017" lon="0.6990383"><ele>308.59999999999997</ele><time>2026-03-31T08:08:54.165Z</time></trkpt><trkpt lat="41.247995" lon="0.6990667"><ele>308.2</ele><time>2026-03-31T08:08:55.164Z</time></trkpt><trkpt lat="41.247895" lon="0.69906"><ele>307.79999999999995</ele><time>2026-03-31T08:08:56.164Z</time></trkpt><trkpt lat="41.247805" lon="0.698995"><ele>307.4</ele><time>2026-03-31T08:08:57.164Z</time></trkpt><trkpt lat="41.247725" lon="0.6988833"><ele>307.0</ele><time>2026-03-31T08:08:58.164Z</time></trkpt><trkpt lat="41.247645" lon="0.69876"><ele>307.0</ele><time>2026-03-31T08:08:59.165Z</time></trkpt><trkpt lat="41.2475667" lon="0.69866"><ele>307.0</ele><time>2026-03-31T08:09:00.164Z</time></trkpt><trkpt lat="41.2474567" lon="0.69858"><ele>307.0</ele><time>2026-03-31T08:09:01.164Z</time></trkpt><trkpt lat="41.2473467" lon="0.6985683"><ele>307.0</ele><time>2026-03-31T08:09:02.164Z</time></trkpt><trkpt lat="41.2472317" lon="0.6985567"><ele>306.0</ele><time>2026-03-31T08:09:03.164Z</time></trkpt><trkpt lat="41.2470983" lon="0.6985133"><ele>305.0</ele><time>2026-03-31T08:09:04.165Z</time></trkpt><trkpt lat="41.2469567" lon="0.6984333"><ele>304.0</ele><time>2026-03-31T08:09:05.164Z</time></trkpt><trkpt lat="41.24681" lon="0.69834"><ele>304.0</ele><time>2026-03-31T08:09:06.165Z</time></trkpt><trkpt lat="41.2466533" lon="0.69825"><ele>304.0</ele><time>2026-03-31T08:09:07.164Z</time></trkpt><trkpt lat="41.246495" lon="0.698165"><ele>304.0</ele><time>2026-03-31T08:09:08.164Z</time></trkpt><trkpt lat="41.2463383" lon="0.6980967"><ele>303.3333333333333</ele><time>2026-03-31T08:09:09.164Z</time></trkpt><trkpt lat="41.2461817" lon="0.6980483"><ele>302.6666666666667</ele><time>2026-03-31T08:09:10.164Z</time></trkpt><trkpt lat="41.24603" lon="0.6980033"><ele>302.0</ele><time>2026-03-31T08:09:11.164Z</time></trkpt><trkpt lat="41.2458783" lon="0.697955"><ele>302.0</ele><time>2026-03-31T08:09:12.165Z</time></trkpt><trkpt lat="41.2457567" lon="0.6979383"><ele>302.0</ele><time>2026-03-31T08:09:13.165Z</time></trkpt><trkpt lat="41.24565" lon="0.6979517"><ele>302.0</ele><time>2026-03-31T08:09:14.164Z</time></trkpt><trkpt lat="41.2455517" lon="0.6980217"><ele>302.0</ele><time>2026-03-31T08:09:15.164Z</time></trkpt><trkpt lat="41.2454617" lon="0.6981117"><ele>301.0</ele><time>2026-03-31T08:09:16.164Z</time></trkpt><trkpt lat="41.2453667" lon="0.698205"><ele>300.0</ele><time>2026-03-31T08:09:17.164Z</time></trkpt><trkpt lat="41.2452567" lon="0.6982983"><ele>299.0</ele><time>2026-03-31T08:09:18.164Z</time></trkpt><trkpt lat="41.245135" lon="0.6983717"><ele>298.0</ele><time>2026-03-31T08:09:19.164Z</time></trkpt><trkpt lat="41.2450067" lon="0.6984217"><ele>298.0</ele><time>2026-03-31T08:09:20.165Z</time></trkpt><trkpt lat="41.2448633" lon="0.698425"><ele>298.0</ele><time>2026-03-31T08:09:21.165Z</time></trkpt><trkpt lat="41.2447117" lon="0.6983983"><ele>298.0</ele><time>2026-03-31T08:09:22.165Z</time></trkpt><trkpt lat="41.2445683" lon="0.69836"><ele>298.0</ele><time>2026-03-31T08:09:23.165Z</time></trkpt><trkpt lat="41.24443" lon="0.6983017"><ele>297.25</ele><time>2026-03-31T08:09:24.165Z</time></trkpt><trkpt lat="41.244305" lon="0.6982317"><ele>296.5</ele><time>2026-03-31T08:09:25.165Z</time></trkpt><trkpt lat="41.2441783" lon="0.6981617"><ele>295.75</ele><time>2026-03-31T08:09:26.165Z</time></trkpt><trkpt lat="41.24404" lon="0.6980967"><ele>295.0</ele><time>2026-03-31T08:09:27.164Z</time></trkpt><trkpt lat="41.2439133" lon="0.698065"><ele>295.0</ele><time>2026-03-31T08:09:28.165Z</time></trkpt><trkpt lat="41.2437967" lon="0.69807"><ele>295.0</ele><time>2026-03-31T08:09:29.164Z</time></trkpt><trkpt lat="41.2436683" lon="0.6980733"><ele>295.0</ele><time>2026-03-31T08:09:30.165Z</time></trkpt><trkpt lat="41.2435333" lon="0.6980633"><ele>295.0</ele><time>2026-03-31T08:09:31.164Z</time></trkpt><trkpt lat="41.243405" lon="0.6980833"><ele>295.0</ele><time>2026-03-31T08:09:32.164Z</time></trkpt><trkpt lat="41.2432667" lon="0.69814"><ele>295.0</ele><time>2026-03-31T08:09:33.164Z</time></trkpt><trkpt lat="41.2431467" lon="0.69823"><ele>295.0</ele><time>2026-03-31T08:09:34.165Z</time></trkpt><trkpt lat="41.2430417" lon="0.6983567"><ele>295.0</ele><time>2026-03-31T08:09:35.165Z</time></trkpt><trkpt lat="41.2429433" lon="0.6985017"><ele>295.3333333333333</ele><time>2026-03-31T08:09:36.165Z</time></trkpt><trkpt lat="41.2428433" lon="0.6986517"><ele>295.6666666666667</ele><time>2026-03-31T08:09:37.165Z</time></trkpt><trkpt lat="41.2427367" lon="0.6988083"><ele>296.0</ele><time>2026-03-31T08:09:38.164Z</time></trkpt><trkpt lat="41.2426217" lon="0.6989633"><ele>296.0</ele><time>2026-03-31T08:09:39.165Z</time></trkpt><trkpt lat="41.2425017" lon="0.699125"><ele>296.0</ele><time>2026-03-31T08:09:40.164Z</time></trkpt><trkpt lat="41.242395" lon="0.6992983"><ele>296.0</ele><time>2026-03-31T08:09:41.165Z</time></trkpt><trkpt lat="41.2423" lon="0.6995017"><ele>304.6666666666667</ele><time>2026-03-31T08:09:42.165Z</time></trkpt><trkpt lat="41.242225" lon="0.6997183"><ele>313.3333333333333</ele><time>2026-03-31T08:09:43.165Z</time></trkpt><trkpt lat="41.24215" lon="0.6999333"><ele>322.0</ele><time>2026-03-31T08:09:44.165Z</time></trkpt><trkpt lat="41.2420883" lon="0.7001433"><ele>315.66666666666663</ele><time>2026-03-31T08:09:45.164Z</time></trkpt><trkpt lat="41.2420267" lon="0.7003517"><ele>309.3333333333333</ele><time>2026-03-31T08:09:46.164Z</time></trkpt><trkpt lat="41.2419767" lon="0.7005517"><ele>303.0</ele><time>2026-03-31T08:09:47.164Z</time></trkpt><trkpt lat="41.2419217" lon="0.700735"><ele>303.0</ele><time>2026-03-31T08:09:48.164Z</time></trkpt><trkpt lat="41.241865" lon="0.7009083"><ele>303.0</ele><time>2026-03-31T08:09:49.165Z</time></trkpt><trkpt lat="41.2417917" lon="0.701075"><ele>303.0</ele><time>2026-03-31T08:09:50.165Z</time></trkpt><trkpt lat="41.2417033" lon="0.701245"><ele>303.0</ele><time>2026-03-31T08:09:51.165Z</time></trkpt><trkpt lat="41.2416067" lon="0.7014217"><ele>302.6666666666667</ele><time>2026-03-31T08:09:52.164Z</time></trkpt><trkpt lat="41.2415267" lon="0.701605"><ele>302.33333333333337</ele><time>2026-03-31T08:09:53.164Z</time></trkpt><trkpt lat="41.2414367" lon="0.7017783"><ele>302.0</ele><time>2026-03-31T08:09:54.164Z</time></trkpt><trkpt lat="41.2413617" lon="0.7019467"><ele>302.0</ele><time>2026-03-31T08:09:55.165Z</time></trkpt><trkpt lat="41.2413083" lon="0.7021083"><ele>302.0</ele><time>2026-03-31T08:09:56.164Z</time></trkpt><trkpt lat="41.241275" lon="0.7022633"><ele>302.0</ele><time>2026-03-31T08:09:57.165Z</time></trkpt><trkpt lat="41.2412417" lon="0.7024383"><ele>302.0</ele><time>2026-03-31T08:09:58.164Z</time></trkpt><trkpt lat="41.2412083" lon="0.702625"><ele>299.0</ele><time>2026-03-31T08:09:59.165Z</time></trkpt><trkpt lat="41.2411567" lon="0.7028033"><ele>296.0</ele><time>2026-03-31T08:10:00.164Z</time></trkpt><trkpt lat="41.2411017" lon="0.7029817"><ele>293.0</ele><time>2026-03-31T08:10:01.164Z</time></trkpt><trkpt lat="41.2410433" lon="0.7031667"><ele>290.0</ele><time>2026-03-31T08:10:02.165Z</time></trkpt><trkpt lat="41.2409883" lon="0.7033467"><ele>290.0</ele><time>2026-03-31T08:10:03.165Z</time></trkpt><trkpt lat="41.2409083" lon="0.7035067"><ele>290.0</ele><time>2026-03-31T08:10:04.164Z</time></trkpt><trkpt lat="41.2408233" lon="0.7036567"><ele>290.0</ele><time>2026-03-31T08:10:05.165Z</time></trkpt><trkpt lat="41.2407183" lon="0.7038"><ele>290.0</ele><time>2026-03-31T08:10:06.164Z</time></trkpt><trkpt lat="41.2406167" lon="0.7039183"><ele>289.0</ele><time>2026-03-31T08:10:07.165Z</time></trkpt><trkpt lat="41.2405217" lon="0.70402"><ele>288.0</ele><time>2026-03-31T08:10:08.165Z</time></trkpt><trkpt lat="41.24042" lon="0.70409"><ele>287.0</ele><time>2026-03-31T08:10:09.164Z</time></trkpt><trkpt lat="41.240305" lon="0.7041267"><ele>286.0</ele><time>2026-03-31T08:10:10.164Z</time></trkpt><trkpt lat="41.2401867" lon="0.7041317"><ele>286.0</ele><time>2026-03-31T08:10:11.165Z</time></trkpt><trkpt lat="41.2400583" lon="0.7041233"><ele>286.0</ele><time>2026-03-31T08:10:12.164Z</time></trkpt><trkpt lat="41.23994" lon="0.70412"><ele>286.0</ele><time>2026-03-31T08:10:13.164Z</time></trkpt><trkpt lat="41.2398267" lon="0.7041267"><ele>286.0</ele><time>2026-03-31T08:10:14.165Z</time></trkpt><trkpt lat="41.2397183" lon="0.7041717"><ele>287.0</ele><time>2026-03-31T08:10:15.165Z</time></trkpt><trkpt lat="41.239625" lon="0.7042567"><ele>288.0</ele><time>2026-03-31T08:10:16.165Z</time></trkpt><trkpt lat="41.239525" lon="0.7043517"><ele>289.0</ele><time>2026-03-31T08:10:17.164Z</time></trkpt><trkpt lat="41.2394267" lon="0.7044117"><ele>290.0</ele><time>2026-03-31T08:10:18.165Z</time></trkpt><trkpt lat="41.2393267" lon="0.704415"><ele>291.0</ele><time>2026-03-31T08:10:19.165Z</time></trkpt><trkpt lat="41.23923" lon="0.7043533"><ele>291.0</ele><time>2026-03-31T08:10:20.164Z</time></trkpt><trkpt lat="41.2391333" lon="0.7042467"><ele>291.0</ele><time>2026-03-31T08:10:21.164Z</time></trkpt><trkpt lat="41.23904" lon="0.7041267"><ele>291.0</ele><time>2026-03-31T08:10:22.164Z</time></trkpt><trkpt lat="41.238945" lon="0.7040067"><ele>291.0</ele><time>2026-03-31T08:10:23.164Z</time></trkpt><trkpt lat="41.2388383" lon="0.7038867"><ele>290.25</ele><time>2026-03-31T08:10:24.164Z</time></trkpt><trkpt lat="41.2387383" lon="0.7037567"><ele>289.5</ele><time>2026-03-31T08:10:25.164Z</time></trkpt><trkpt lat="41.23864" lon="0.7036367"><ele>288.75</ele><time>2026-03-31T08:10:26.164Z</time></trkpt><trkpt lat="41.23854" lon="0.703515"><ele>288.0</ele><time>2026-03-31T08:10:27.164Z</time></trkpt><trkpt lat="41.23844" lon="0.7033983"><ele>289.25</ele><time>2026-03-31T08:10:28.165Z</time></trkpt><trkpt lat="41.2383367" lon="0.7032783"><ele>290.5</ele><time>2026-03-31T08:10:29.164Z</time></trkpt><trkpt lat="41.23823" lon="0.7031483"><ele>291.75</ele><time>2026-03-31T08:10:30.165Z</time></trkpt><trkpt lat="41.2381283" lon="0.7030217"><ele>293.0</ele><time>2026-03-31T08:10:31.165Z</time></trkpt><trkpt lat="41.2380317" lon="0.702905"><ele>293.0</ele><time>2026-03-31T08:10:32.164Z</time></trkpt><trkpt lat="41.2379483" lon="0.702795"><ele>293.0</ele><time>2026-03-31T08:10:33.164Z</time></trkpt><trkpt lat="41.2378783" lon="0.7026783"><ele>293.0</ele><time>2026-03-31T08:10:34.165Z</time></trkpt><trkpt lat="41.2378383" lon="0.7025367"><ele>293.0</ele><time>2026-03-31T08:10:35.164Z</time></trkpt><trkpt lat="41.2378333" lon="0.7023717"><ele>293.25</ele><time>2026-03-31T08:10:36.164Z</time></trkpt><trkpt lat="41.23787" lon="0.70221"><ele>293.5</ele><time>2026-03-31T08:10:37.164Z</time></trkpt><trkpt lat="41.2379333" lon="0.702045"><ele>293.75</ele><time>2026-03-31T08:10:38.164Z</time></trkpt><trkpt lat="41.2379933" lon="0.7018983"><ele>294.0</ele><time>2026-03-31T08:10:39.165Z</time></trkpt><trkpt lat="41.23808" lon="0.7017883"><ele>293.0</ele><time>2026-03-31T08:10:40.165Z</time></trkpt><trkpt lat="41.238195" lon="0.7017167"><ele>292.0</ele><time>2026-03-31T08:10:41.164Z</time></trkpt><trkpt lat="41.2383133" lon="0.7016567"><ele>291.0</ele><time>2026-03-31T08:10:42.164Z</time></trkpt><trkpt lat="41.238435" lon="0.70157"><ele>290.0</ele><time>2026-03-31T08:10:43.165Z</time></trkpt><trkpt lat="41.2385283" lon="0.7014567"><ele>290.0</ele><time>2026-03-31T08:10:44.164Z</time></trkpt><trkpt lat="41.2385883" lon="0.7013017"><ele>290.0</ele><time>2026-03-31T08:10:45.164Z</time></trkpt><trkpt lat="41.2386017" lon="0.7011233"><ele>290.0</ele><time>2026-03-31T08:10:46.165Z</time></trkpt><trkpt lat="41.238575" lon="0.7009417"><ele>290.0</ele><time>2026-03-31T08:10:47.165Z</time></trkpt><trkpt lat="41.238545" lon="0.7007583"><ele>289.75</ele><time>2026-03-31T08:10:48.165Z</time></trkpt><trkpt lat="41.2385383" lon="0.7005617"><ele>289.5</ele><time>2026-03-31T08:10:49.164Z</time></trkpt><trkpt lat="41.2385567" lon="0.70037"><ele>289.25</ele><time>2026-03-31T08:10:50.164Z</time></trkpt><trkpt lat="41.2386017" lon="0.700175"><ele>289.0</ele><time>2026-03-31T08:10:51.164Z</time></trkpt><trkpt lat="41.2386533" lon="0.7000017"><ele>289.0</ele><time>2026-03-31T08:10:52.165Z</time></trkpt><trkpt lat="41.2387" lon="0.69984"><ele>289.0</ele><time>2026-03-31T08:10:53.165Z</time></trkpt><trkpt lat="41.2387283" lon="0.6997017"><ele>289.0</ele><time>2026-03-31T08:10:54.165Z</time></trkpt><trkpt lat="41.2387117" lon="0.6995633"><ele>289.0</ele><time>2026-03-31T08:10:55.165Z</time></trkpt><trkpt lat="41.238655" lon="0.69943"><ele>290.5</ele><time>2026-03-31T08:10:56.164Z</time></trkpt><trkpt lat="41.2385717" lon="0.6993183"><ele>292.0</ele><time>2026-03-31T08:10:57.164Z</time></trkpt><trkpt lat="41.2384617" lon="0.699235"><ele>293.5</ele><time>2026-03-31T08:10:58.164Z</time></trkpt><trkpt lat="41.238355" lon="0.6992133"><ele>295.0</ele><time>2026-03-31T08:10:59.165Z</time></trkpt><trkpt lat="41.2382483" lon="0.69927"><ele>295.0</ele><time>2026-03-31T08:11:00.164Z</time></trkpt><trkpt lat="41.2381483" lon="0.6993817"><ele>295.0</ele><time>2026-03-31T08:11:01.165Z</time></trkpt><trkpt lat="41.2380333" lon="0.6995033"><ele>295.0</ele><time>2026-03-31T08:11:02.164Z</time></trkpt><trkpt lat="41.2379083" lon="0.6996283"><ele>295.0</ele><time>2026-03-31T08:11:03.165Z</time></trkpt><trkpt lat="41.23777" lon="0.6997317"><ele>292.25</ele><time>2026-03-31T08:11:04.165Z</time></trkpt><trkpt lat="41.237625" lon="0.6998133"><ele>289.5</ele><time>2026-03-31T08:11:05.165Z</time></trkpt><trkpt lat="41.2374883" lon="0.6998617"><ele>286.75</ele><time>2026-03-31T08:11:06.164Z</time></trkpt><trkpt lat="41.237355" lon="0.6998717"><ele>284.0</ele><time>2026-03-31T08:11:07.164Z</time></trkpt><trkpt lat="41.2372133" lon="0.699845"><ele>282.75</ele><time>2026-03-31T08:11:08.164Z</time></trkpt><trkpt lat="41.2371083" lon="0.69977"><ele>281.5</ele><time>2026-03-31T08:11:09.164Z</time></trkpt><trkpt lat="41.2370267" lon="0.699645"><ele>280.25</ele><time>2026-03-31T08:11:10.164Z</time></trkpt><trkpt lat="41.2369667" lon="0.69949"><ele>279.0</ele><time>2026-03-31T08:11:11.165Z</time></trkpt><trkpt lat="41.23693" lon="0.6993133"><ele>279.0</ele><time>2026-03-31T08:11:12.165Z</time></trkpt><trkpt lat="41.2368967" lon="0.6991267"><ele>279.0</ele><time>2026-03-31T08:11:13.164Z</time></trkpt><trkpt lat="41.236845" lon="0.69894"><ele>279.0</ele><time>2026-03-31T08:11:14.165Z</time></trkpt><trkpt lat="41.2367717" lon="0.698755"><ele>279.0</ele><time>2026-03-31T08:11:15.164Z</time></trkpt><trkpt lat="41.2366833" lon="0.6985933"><ele>279.0</ele><time>2026-03-31T08:11:16.164Z</time></trkpt><trkpt lat="41.2365967" lon="0.69845"><ele>279.0</ele><time>2026-03-31T08:11:17.165Z</time></trkpt><trkpt lat="41.2365267" lon="0.6983167"><ele>279.0</ele><time>2026-03-31T08:11:18.164Z</time></trkpt><trkpt lat="41.2364967" lon="0.698165"><ele>280.5</ele><time>2026-03-31T08:11:19.165Z</time></trkpt><trkpt lat="41.236505" lon="0.6980217"><ele>282.0</ele><time>2026-03-31T08:11:20.164Z</time></trkpt><trkpt lat="41.2365567" lon="0.6978983"><ele>283.5</ele><time>2026-03-31T08:11:21.165Z</time></trkpt><trkpt lat="41.2366417" lon="0.6977917"><ele>285.0</ele><time>2026-03-31T08:11:22.165Z</time></trkpt><trkpt lat="41.236755" lon="0.6977167"><ele>285.0</ele><time>2026-03-31T08:11:23.165Z</time></trkpt><trkpt lat="41.23687" lon="0.6976567"><ele>285.0</ele><time>2026-03-31T08:11:24.165Z</time></trkpt><trkpt lat="41.236975" lon="0.697585"><ele>285.0</ele><time>2026-03-31T08:11:25.165Z</time></trkpt><trkpt lat="41.2370683" lon="0.6974883"><ele>285.0</ele><time>2026-03-31T08:11:26.165Z</time></trkpt><trkpt lat="41.2371183" lon="0.6973467"><ele>285.0</ele><time>2026-03-31T08:11:27.164Z</time></trkpt><trkpt lat="41.2371167" lon="0.69718"><ele>285.0</ele><time>2026-03-31T08:11:28.165Z</time></trkpt><trkpt lat="41.2370517" lon="0.6970317"><ele>285.0</ele><time>2026-03-31T08:11:29.164Z</time></trkpt><trkpt lat="41.236945" lon="0.6969333"><ele>285.0</ele><time>2026-03-31T08:11:30.165Z</time></trkpt><trkpt lat="41.23682" lon="0.6968917"><ele>285.0</ele><time>2026-03-31T08:11:31.165Z</time></trkpt><trkpt lat="41.2366917" lon="0.6969067"><ele>285.0</ele><time>2026-03-31T08:11:32.165Z</time></trkpt><trkpt lat="41.2365567" lon="0.696975"><ele>285.0</ele><time>2026-03-31T08:11:33.164Z</time></trkpt><trkpt lat="41.2364183" lon="0.6970533"><ele>285.0</ele><time>2026-03-31T08:11:34.164Z</time></trkpt><trkpt lat="41.23628" lon="0.69713"><ele>284.25</ele><time>2026-03-31T08:11:35.164Z</time></trkpt><trkpt lat="41.2361433" lon="0.6972067"><ele>283.5</ele><time>2026-03-31T08:11:36.164Z</time></trkpt><trkpt lat="41.236015" lon="0.69728"><ele>282.75</ele><time>2026-03-31T08:11:37.165Z</time></trkpt><trkpt lat="41.23589" lon="0.6973467"><ele>282.0</ele><time>2026-03-31T08:11:38.165Z</time></trkpt><trkpt lat="41.235775" lon="0.6973967"><ele>282.0</ele><time>2026-03-31T08:11:39.165Z</time></trkpt><trkpt lat="41.2356617" lon="0.6974083"><ele>282.0</ele><time>2026-03-31T08:11:40.164Z</time></trkpt><trkpt lat="41.23555" lon="0.6973717"><ele>282.0</ele><time>2026-03-31T08:11:41.165Z</time></trkpt><trkpt lat="41.2354467" lon="0.6973117"><ele>282.0</ele><time>2026-03-31T08:11:42.165Z</time></trkpt><trkpt lat="41.2353367" lon="0.6972167"><ele>281.25</ele><time>2026-03-31T08:11:43.164Z</time></trkpt><trkpt lat="41.2352117" lon="0.6971233"><ele>280.5</ele><time>2026-03-31T08:11:44.164Z</time></trkpt><trkpt lat="41.23508" lon="0.6970517"><ele>279.75</ele><time>2026-03-31T08:11:45.164Z</time></trkpt><trkpt lat="41.234965" lon="0.697035"><ele>279.0</ele><time>2026-03-31T08:11:46.164Z</time></trkpt><trkpt lat="41.23484" lon="0.6970783"><ele>278.75</ele><time>2026-03-31T08:11:47.164Z</time></trkpt><trkpt lat="41.2347167" lon="0.69714"><ele>278.5</ele><time>2026-03-31T08:11:48.164Z</time></trkpt><trkpt lat="41.234585" lon="0.697175"><ele>278.25</ele><time>2026-03-31T08:11:49.164Z</time></trkpt><trkpt lat="41.234455" lon="0.69715"><ele>278.0</ele><time>2026-03-31T08:11:50.164Z</time></trkpt><trkpt lat="41.2343283" lon="0.6970567"><ele>280.5</ele><time>2026-03-31T08:11:51.164Z</time></trkpt><trkpt lat="41.234215" lon="0.696915"><ele>283.0</ele><time>2026-03-31T08:11:52.164Z</time></trkpt><trkpt lat="41.2341183" lon="0.6967717"><ele>285.5</ele><time>2026-03-31T08:11:53.164Z</time></trkpt><trkpt lat="41.23404" lon="0.69668"><ele>288.0</ele><time>2026-03-31T08:11:54.165Z</time></trkpt><trkpt lat="41.233955" lon="0.6966483"><ele>287.5</ele><time>2026-03-31T08:11:55.164Z</time></trkpt><trkpt lat="41.2338583" lon="0.6966717"><ele>287.0</ele><time>2026-03-31T08:11:56.164Z</time></trkpt><trkpt lat="41.2337583" lon="0.6967383"><ele>286.5</ele><time>2026-03-31T08:11:57.164Z</time></trkpt><trkpt lat="41.2336667" lon="0.6968517"><ele>286.0</ele><time>2026-03-31T08:11:58.164Z</time></trkpt><trkpt lat="41.2335767" lon="0.696985"><ele>286.0</ele><time>2026-03-31T08:11:59.165Z</time></trkpt><trkpt lat="41.233475" lon="0.697125"><ele>286.0</ele><time>2026-03-31T08:12:00.165Z</time></trkpt><trkpt lat="41.2333767" lon="0.697255"><ele>286.0</ele><time>2026-03-31T08:12:01.165Z</time></trkpt><trkpt lat="41.2332567" lon="0.6973883"><ele>286.0</ele><time>2026-03-31T08:12:02.164Z</time></trkpt><trkpt lat="41.233125" lon="0.69752"><ele>290.0</ele><time>2026-03-31T08:12:03.164Z</time></trkpt><trkpt lat="41.23298" lon="0.6976233"><ele>294.0</ele><time>2026-03-31T08:12:04.164Z</time></trkpt><trkpt lat="41.2328233" lon="0.6976933"><ele>298.0</ele><time>2026-03-31T08:12:05.164Z</time></trkpt><trkpt lat="41.2326617" lon="0.6977483"><ele>292.0</ele><time>2026-03-31T08:12:06.165Z</time></trkpt><trkpt lat="41.2324867" lon="0.6977833"><ele>286.0</ele><time>2026-03-31T08:12:07.165Z</time></trkpt><trkpt lat="41.2323117" lon="0.6977867"><ele>280.0</ele><time>2026-03-31T08:12:08.164Z</time></trkpt><trkpt lat="41.2321383" lon="0.6977767"><ele>280.0</ele><time>2026-03-31T08:12:09.165Z</time></trkpt><trkpt lat="41.23198" lon="0.6977567"><ele>280.0</ele><time>2026-03-31T08:12:10.165Z</time></trkpt><trkpt lat="41.2318383" lon="0.697725"><ele>280.0</ele><time>2026-03-31T08:12:11.164Z</time></trkpt><trkpt lat="41.2316833" lon="0.69765"><ele>285.5</ele><time>2026-03-31T08:12:12.164Z</time></trkpt><trkpt lat="41.2315683" lon="0.6975783"><ele>291.0</ele><time>2026-03-31T08:12:13.164Z</time></trkpt><trkpt lat="41.2314583" lon="0.6974817"><ele>296.5</ele><time>2026-03-31T08:12:14.165Z</time></trkpt><trkpt lat="41.231345" lon="0.6973683"><ele>302.0</ele><time>2026-03-31T08:12:15.165Z</time></trkpt><trkpt lat="41.23122" lon="0.697275"><ele>303.25</ele><time>2026-03-31T08:12:16.164Z</time></trkpt><trkpt lat="41.2310917" lon="0.69722"><ele>304.5</ele><time>2026-03-31T08:12:17.165Z</time></trkpt><trkpt lat="41.2309767" lon="0.6972017"><ele>305.75</ele><time>2026-03-31T08:12:18.164Z</time></trkpt><trkpt lat="41.230875" lon="0.6972067"><ele>307.0</ele><time>2026-03-31T08:12:19.165Z</time></trkpt><trkpt lat="41.230785" lon="0.6972817"><ele>307.0</ele><time>2026-03-31T08:12:20.164Z</time></trkpt><trkpt lat="41.23071" lon="0.6973833"><ele>307.0</ele><time>2026-03-31T08:12:21.164Z</time></trkpt><trkpt lat="41.2306567" lon="0.697525"><ele>307.0</ele><time>2026-03-31T08:12:22.164Z</time></trkpt><trkpt lat="41.2306167" lon="0.69769"><ele>307.0</ele><time>2026-03-31T08:12:23.164Z</time></trkpt><trkpt lat="41.23059" lon="0.6978867"><ele>307.5</ele><time>2026-03-31T08:12:24.165Z</time></trkpt><trkpt lat="41.230555" lon="0.6980683"><ele>308.0</ele><time>2026-03-31T08:12:25.165Z</time></trkpt><trkpt lat="41.2305033" lon="0.6982133"><ele>308.5</ele><time>2026-03-31T08:12:26.164Z</time></trkpt><trkpt lat="41.2304333" lon="0.6983133"><ele>309.0</ele><time>2026-03-31T08:12:27.165Z</time></trkpt><trkpt lat="41.230345" lon="0.698375"><ele>309.0</ele><time>2026-03-31T08:12:28.164Z</time></trkpt><trkpt lat="41.23023" lon="0.6983867"><ele>309.0</ele><time>2026-03-31T08:12:29.164Z</time></trkpt><trkpt lat="41.2301017" lon="0.6983817"><ele>309.0</ele><time>2026-03-31T08:12:30.164Z</time></trkpt><trkpt lat="41.2299583" lon="0.6983667"><ele>309.0</ele><time>2026-03-31T08:12:31.164Z</time></trkpt><trkpt lat="41.229805" lon="0.698355"><ele>307.25</ele><time>2026-03-31T08:12:32.164Z</time></trkpt><trkpt lat="41.2296617" lon="0.698325"><ele>305.5</ele><time>2026-03-31T08:12:33.164Z</time></trkpt><trkpt lat="41.22955" lon="0.698265"><ele>303.75</ele><time>2026-03-31T08:12:34.164Z</time></trkpt><trkpt lat="41.2294433" lon="0.698155"><ele>302.0</ele><time>2026-03-31T08:12:35.164Z</time></trkpt><trkpt lat="41.2293433" lon="0.69802"><ele>302.0</ele><time>2026-03-31T08:12:36.164Z</time></trkpt><trkpt lat="41.2292517" lon="0.697865"><ele>302.0</ele><time>2026-03-31T08:12:37.165Z</time></trkpt><trkpt lat="41.22918" lon="0.6977"><ele>302.0</ele><time>2026-03-31T08:12:38.164Z</time></trkpt><trkpt lat="41.229135" lon="0.6974967"><ele>305.33333333333337</ele><time>2026-03-31T08:12:39.164Z</time></trkpt><trkpt lat="41.2291033" lon="0.697295"><ele>308.6666666666667</ele><time>2026-03-31T08:12:40.164Z</time></trkpt><trkpt lat="41.229075" lon="0.6970767"><ele>312.0</ele><time>2026-03-31T08:12:41.165Z</time></trkpt><trkpt lat="41.2290317" lon="0.6968533"><ele>309.3333333333333</ele><time>2026-03-31T08:12:42.165Z</time></trkpt><trkpt lat="41.2289633" lon="0.6966217"><ele>306.66666666666663</ele><time>2026-03-31T08:12:43.164Z</time></trkpt><trkpt lat="41.2288767" lon="0.6963933"><ele>304.0</ele><time>2026-03-31T08:12:44.165Z</time></trkpt><trkpt lat="41.228785" lon="0.6961717"><ele>304.0</ele><time>2026-03-31T08:12:45.165Z</time></trkpt><trkpt lat="41.2286917" lon="0.6959583"><ele>304.0</ele><time>2026-03-31T08:12:46.165Z</time></trkpt><trkpt lat="41.2285917" lon="0.69577"><ele>304.0</ele><time>2026-03-31T08:12:47.164Z</time></trkpt><trkpt lat="41.2284867" lon="0.6956083"><ele>304.0</ele><time>2026-03-31T08:12:48.164Z</time></trkpt><trkpt lat="41.2283733" lon="0.695485"><ele>304.0</ele><time>2026-03-31T08:12:49.165Z</time></trkpt><trkpt lat="41.2282267" lon="0.6954"><ele>304.0</ele><time>2026-03-31T08:12:50.164Z</time></trkpt><trkpt lat="41.2280717" lon="0.6953617"><ele>304.0</ele><time>2026-03-31T08:12:51.164Z</time></trkpt><trkpt lat="41.2279217" lon="0.695345"><ele>304.0</ele><time>2026-03-31T08:12:52.165Z</time></trkpt><trkpt lat="41.2277983" lon="0.6952867"><ele>304.0</ele><time>2026-03-31T08:12:53.164Z</time></trkpt><trkpt lat="41.227685" lon="0.69518"><ele>304.0</ele><time>2026-03-31T08:12:54.165Z</time></trkpt><trkpt lat="41.2275733" lon="0.695035"><ele>306.0</ele><time>2026-03-31T08:12:55.165Z</time></trkpt><trkpt lat="41.227445" lon="0.6948933"><ele>308.0</ele><time>2026-03-31T08:12:56.164Z</time></trkpt><trkpt lat="41.2273083" lon="0.69476"><ele>310.0</ele><time>2026-03-31T08:12:57.164Z</time></trkpt><trkpt lat="41.227165" lon="0.6946483"><ele>310.75</ele><time>2026-03-31T08:12:58.165Z</time></trkpt><trkpt lat="41.22703" lon="0.69456"><ele>311.5</ele><time>2026-03-31T08:12:59.165Z</time></trkpt><trkpt lat="41.2269217" lon="0.6944433"><ele>312.25</ele><time>2026-03-31T08:13:00.164Z</time></trkpt><trkpt lat="41.2268317" lon="0.6942917"><ele>313.0</ele><time>2026-03-31T08:13:01.164Z</time></trkpt><trkpt lat="41.2267483" lon="0.694115"><ele>313.0</ele><time>2026-03-31T08:13:02.164Z</time></trkpt><trkpt lat="41.226665" lon="0.69393"><ele>313.0</ele><time>2026-03-31T08:13:03.165Z</time></trkpt><trkpt lat="41.226585" lon="0.6937433"><ele>313.0</ele><time>2026-03-31T08:13:04.165Z</time></trkpt><trkpt lat="41.22649" lon="0.6935617"><ele>314.66666666666663</ele><time>2026-03-31T08:13:05.165Z</time></trkpt><trkpt lat="41.2264083" lon="0.6933883"><ele>316.3333333333333</ele><time>2026-03-31T08:13:06.165Z</time></trkpt><trkpt lat="41.2263283" lon="0.693185"><ele>318.0</ele><time>2026-03-31T08:13:07.164Z</time></trkpt><trkpt lat="41.22626" lon="0.69297"><ele>318.0</ele><time>2026-03-31T08:13:08.164Z</time></trkpt><trkpt lat="41.2262017" lon="0.6927567"><ele>318.0</ele><time>2026-03-31T08:13:09.164Z</time></trkpt><trkpt lat="41.226145" lon="0.6925317"><ele>318.0</ele><time>2026-03-31T08:13:10.165Z</time></trkpt><trkpt lat="41.22609" lon="0.6923033"><ele>318.0</ele><time>2026-03-31T08:13:11.165Z</time></trkpt><trkpt lat="41.2260367" lon="0.6920733"><ele>318.0</ele><time>2026-03-31T08:13:12.165Z</time></trkpt><trkpt lat="41.22598" lon="0.6918617"><ele>318.0</ele><time>2026-03-31T08:13:13.164Z</time></trkpt><trkpt lat="41.2259267" lon="0.69165"><ele>319.5</ele><time>2026-03-31T08:13:14.164Z</time></trkpt><trkpt lat="41.2258833" lon="0.69145"><ele>321.0</ele><time>2026-03-31T08:13:15.164Z</time></trkpt><trkpt lat="41.2258433" lon="0.6912633"><ele>322.5</ele><time>2026-03-31T08:13:16.164Z</time></trkpt><trkpt lat="41.2258167" lon="0.6910783"><ele>324.0</ele><time>2026-03-31T08:13:17.165Z</time></trkpt><trkpt lat="41.2258" lon="0.6909033"><ele>325.75</ele><time>2026-03-31T08:13:18.164Z</time></trkpt><trkpt lat="41.2258117" lon="0.6907317"><ele>327.5</ele><time>2026-03-31T08:13:19.164Z</time></trkpt><trkpt lat="41.2258517" lon="0.6905667"><ele>329.25</ele><time>2026-03-31T08:13:20.164Z</time></trkpt><trkpt lat="41.225925" lon="0.69041"><ele>331.0</ele><time>2026-03-31T08:13:21.164Z</time></trkpt><trkpt lat="41.22601" lon="0.6902433"><ele>332.0</ele><time>2026-03-31T08:13:22.164Z</time></trkpt><trkpt lat="41.226105" lon="0.69008"><ele>333.0</ele><time>2026-03-31T08:13:23.164Z</time></trkpt><trkpt lat="41.2261967" lon="0.689915"><ele>334.0</ele><time>2026-03-31T08:13:24.165Z</time></trkpt><trkpt lat="41.2262867" lon="0.6897433"><ele>334.0</ele><time>2026-03-31T08:13:25.165Z</time></trkpt><trkpt lat="41.22638" lon="0.689575"><ele>334.0</ele><time>2026-03-31T08:13:26.164Z</time></trkpt><trkpt lat="41.2264717" lon="0.6894117"><ele>334.0</ele><time>2026-03-31T08:13:27.164Z</time></trkpt><trkpt lat="41.2265517" lon="0.6892617"><ele>334.0</ele><time>2026-03-31T08:13:28.165Z</time></trkpt><trkpt lat="41.2266133" lon="0.6891183"><ele>336.5</ele><time>2026-03-31T08:13:29.164Z</time></trkpt><trkpt lat="41.226645" lon="0.688975"><ele>339.0</ele><time>2026-03-31T08:13:30.164Z</time></trkpt><trkpt lat="41.226655" lon="0.6888217"><ele>341.5</ele><time>2026-03-31T08:13:31.164Z</time></trkpt><trkpt lat="41.2266117" lon="0.6886733"><ele>344.0</ele><time>2026-03-31T08:13:32.165Z</time></trkpt><trkpt lat="41.2265283" lon="0.6885417"><ele>344.75</ele><time>2026-03-31T08:13:33.164Z</time></trkpt><trkpt lat="41.22642" lon="0.6884367"><ele>345.5</ele><time>2026-03-31T08:13:34.164Z</time></trkpt><trkpt lat="41.2262917" lon="0.6883567"><ele>346.25</ele><time>2026-03-31T08:13:35.165Z</time></trkpt><trkpt lat="41.2261683" lon="0.6882767"><ele>347.0</ele><time>2026-03-31T08:13:36.164Z</time></trkpt><trkpt lat="41.226045" lon="0.6881633"><ele>347.0</ele><time>2026-03-31T08:13:37.164Z</time></trkpt><trkpt lat="41.225935" lon="0.6880067"><ele>347.0</ele><time>2026-03-31T08:13:38.164Z</time></trkpt><trkpt lat="41.2258333" lon="0.6878317"><ele>347.0</ele><time>2026-03-31T08:13:39.164Z</time></trkpt><trkpt lat="41.2257433" lon="0.687665"><ele>350.0</ele><time>2026-03-31T08:13:40.165Z</time></trkpt><trkpt lat="41.2256533" lon="0.6874983"><ele>353.0</ele><time>2026-03-31T08:13:41.164Z</time></trkpt><trkpt lat="41.2255733" lon="0.687375"><ele>356.0</ele><time>2026-03-31T08:13:42.165Z</time></trkpt><trkpt lat="41.2254867" lon="0.6872767"><ele>359.0</ele><time>2026-03-31T08:13:43.165Z</time></trkpt><trkpt lat="41.2253583" lon="0.6872217"><ele>359.5</ele><time>2026-03-31T08:13:44.164Z</time></trkpt><trkpt lat="41.2252383" lon="0.6872383"><ele>360.0</ele><time>2026-03-31T08:13:45.164Z</time></trkpt><trkpt lat="41.22513" lon="0.687325"><ele>360.5</ele><time>2026-03-31T08:13:46.164Z</time></trkpt><trkpt lat="41.2250383" lon="0.6874467"><ele>361.0</ele><time>2026-03-31T08:13:47.164Z</time></trkpt><trkpt lat="41.224965" lon="0.687615"><ele>359.75</ele><time>2026-03-31T08:13:48.164Z</time></trkpt><trkpt lat="41.2248867" lon="0.6877783"><ele>358.5</ele><time>2026-03-31T08:13:49.164Z</time></trkpt><trkpt lat="41.2247967" lon="0.687915"><ele>357.25</ele><time>2026-03-31T08:13:50.164Z</time></trkpt><trkpt lat="41.224685" lon="0.6879933"><ele>356.0</ele><time>2026-03-31T08:13:51.165Z</time></trkpt><trkpt lat="41.2245517" lon="0.6880433"><ele>358.5</ele><time>2026-03-31T08:13:52.165Z</time></trkpt><trkpt lat="41.22442" lon="0.6881017"><ele>361.0</ele><time>2026-03-31T08:13:53.164Z</time></trkpt><trkpt lat="41.224305" lon="0.6881833"><ele>363.5</ele><time>2026-03-31T08:13:54.165Z</time></trkpt><trkpt lat="41.2242167" lon="0.6882967"><ele>366.0</ele><time>2026-03-31T08:13:55.164Z</time></trkpt><trkpt lat="41.2241383" lon="0.6884117"><ele>366.0</ele><time>2026-03-31T08:13:56.164Z</time></trkpt><trkpt lat="41.2240667" lon="0.6884983"><ele>366.0</ele><time>2026-03-31T08:13:57.164Z</time></trkpt><trkpt lat="41.2240117" lon="0.688555"><ele>366.0</ele><time>2026-03-31T08:13:58.164Z</time></trkpt><trkpt lat="41.2239617" lon="0.68862"><ele>366.0</ele><time>2026-03-31T08:13:59.164Z</time></trkpt><trkpt lat="41.22393" lon="0.688695"><ele>366.0</ele><time>2026-03-31T08:14:00.164Z</time></trkpt><trkpt lat="41.2239083" lon="0.688805"><ele>366.0</ele><time>2026-03-31T08:14:01.165Z</time></trkpt><trkpt lat="41.22389" lon="0.688945"><ele>368.25</ele><time>2026-03-31T08:14:02.164Z</time></trkpt><trkpt lat="41.2238483" lon="0.6890917"><ele>370.5</ele><time>2026-03-31T08:14:03.165Z</time></trkpt><trkpt lat="41.2238017" lon="0.689255"><ele>372.75</ele><time>2026-03-31T08:14:04.165Z</time></trkpt><trkpt lat="41.2237583" lon="0.6894183"><ele>375.0</ele><time>2026-03-31T08:14:05.164Z</time></trkpt><trkpt lat="41.2237333" lon="0.689585"><ele>375.0</ele><time>2026-03-31T08:14:06.165Z</time></trkpt><trkpt lat="41.2237167" lon="0.68974"><ele>375.0</ele><time>2026-03-31T08:14:07.164Z</time></trkpt><trkpt lat="41.2236733" lon="0.6898483"><ele>375.0</ele><time>2026-03-31T08:14:08.164Z</time></trkpt><trkpt lat="41.223615" lon="0.6899233"><ele>375.0</ele><time>2026-03-31T08:14:09.164Z</time></trkpt><trkpt lat="41.223525" lon="0.689955"><ele>375.0</ele><time>2026-03-31T08:14:10.164Z</time></trkpt><trkpt lat="41.2234183" lon="0.689955"><ele>375.0</ele><time>2026-03-31T08:14:11.164Z</time></trkpt><trkpt lat="41.223295" lon="0.6899667"><ele>375.0</ele><time>2026-03-31T08:14:12.164Z</time></trkpt><trkpt lat="41.2231783" lon="0.69002"><ele>375.0</ele><time>2026-03-31T08:14:13.164Z</time></trkpt><trkpt lat="41.2230917" lon="0.6901217"><ele>375.0</ele><time>2026-03-31T08:14:14.164Z</time></trkpt><trkpt lat="41.223025" lon="0.6902417"><ele>374.2</ele><time>2026-03-31T08:14:15.164Z</time></trkpt><trkpt lat="41.2229583" lon="0.6903533"><ele>373.4</ele><time>2026-03-31T08:14:16.164Z</time></trkpt><trkpt lat="41.2228733" lon="0.6904233"><ele>372.6</ele><time>2026-03-31T08:14:17.164Z</time></trkpt><trkpt lat="41.2227617" lon="0.69045"><ele>371.8</ele><time>2026-03-31T08:14:18.165Z</time></trkpt><trkpt lat="41.2226383" lon="0.6904683"><ele>371.0</ele><time>2026-03-31T08:14:19.164Z</time></trkpt><trkpt lat="41.222525" lon="0.6905117"><ele>371.0</ele><time>2026-03-31T08:14:20.164Z</time></trkpt><trkpt lat="41.2224217" lon="0.69059"><ele>371.0</ele><time>2026-03-31T08:14:21.164Z</time></trkpt><trkpt lat="41.222345" lon="0.6907117"><ele>371.0</ele><time>2026-03-31T08:14:22.164Z</time></trkpt><trkpt lat="41.2222967" lon="0.69086"><ele>371.0</ele><time>2026-03-31T08:14:23.165Z</time></trkpt><trkpt lat="41.222235" lon="0.6909983"><ele>373.0</ele><time>2026-03-31T08:14:24.164Z</time></trkpt><trkpt lat="41.2221383" lon="0.6911183"><ele>375.0</ele><time>2026-03-31T08:14:25.164Z</time></trkpt><trkpt lat="41.2220417" lon="0.6912383"><ele>377.0</ele><time>2026-03-31T08:14:26.165Z</time></trkpt><trkpt lat="41.221955" lon="0.6913683"><ele>379.0</ele><time>2026-03-31T08:14:27.164Z</time></trkpt><trkpt lat="41.2219" lon="0.6915233"><ele>379.0</ele><time>2026-03-31T08:14:28.164Z</time></trkpt><trkpt lat="41.2218683" lon="0.69167"><ele>379.0</ele><time>2026-03-31T08:14:29.164Z</time></trkpt><trkpt lat="41.22187" lon="0.691825"><ele>379.0</ele><time>2026-03-31T08:14:30.164Z</time></trkpt><trkpt lat="41.2219017" lon="0.69198"><ele>379.0</ele><time>2026-03-31T08:14:31.165Z</time></trkpt><trkpt lat="41.2219583" lon="0.6921467"><ele>379.0</ele><time>2026-03-31T08:14:32.164Z</time></trkpt><trkpt lat="41.2220167" lon="0.6923283"><ele>379.0</ele><time>2026-03-31T08:14:33.164Z</time></trkpt><trkpt lat="41.222055" lon="0.6925117"><ele>379.0</ele><time>2026-03-31T08:14:34.164Z</time></trkpt><trkpt lat="41.222075" lon="0.6927"><ele>379.0</ele><time>2026-03-31T08:14:35.164Z</time></trkpt><trkpt lat="41.2220817" lon="0.6928967"><ele>379.0</ele><time>2026-03-31T08:14:36.164Z</time></trkpt><trkpt lat="41.2220883" lon="0.6931017"><ele>379.0</ele><time>2026-03-31T08:14:37.165Z</time></trkpt><trkpt lat="41.2220833" lon="0.693295"><ele>379.0</ele><time>2026-03-31T08:14:38.164Z</time></trkpt><trkpt lat="41.2220767" lon="0.6934733"><ele>379.0</ele><time>2026-03-31T08:14:39.164Z</time></trkpt><trkpt lat="41.22206" lon="0.693645"><ele>381.25</ele><time>2026-03-31T08:14:40.165Z</time></trkpt><trkpt lat="41.222035" lon="0.6938117"><ele>383.5</ele><time>2026-03-31T08:14:41.165Z</time></trkpt><trkpt lat="41.2219883" lon="0.6939683"><ele>385.75</ele><time>2026-03-31T08:14:42.165Z</time></trkpt><trkpt lat="41.2219117" lon="0.6941117"><ele>388.0</ele><time>2026-03-31T08:14:43.164Z</time></trkpt><trkpt lat="41.2218217" lon="0.694235"><ele>388.0</ele><time>2026-03-31T08:14:44.164Z</time></trkpt><trkpt lat="41.22171" lon="0.6943417"><ele>388.0</ele><time>2026-03-31T08:14:45.165Z</time></trkpt><trkpt lat="41.221595" lon="0.6944433"><ele>388.0</ele><time>2026-03-31T08:14:46.164Z</time></trkpt><trkpt lat="41.2214733" lon="0.69455"><ele>388.0</ele><time>2026-03-31T08:14:47.164Z</time></trkpt><trkpt lat="41.2213667" lon="0.69466"><ele>390.25</ele><time>2026-03-31T08:14:48.164Z</time></trkpt><trkpt lat="41.2212733" lon="0.6947983"><ele>392.5</ele><time>2026-03-31T08:14:49.165Z</time></trkpt><trkpt lat="41.2212017" lon="0.69496"><ele>394.75</ele><time>2026-03-31T08:14:50.164Z</time></trkpt><trkpt lat="41.221135" lon="0.695135"><ele>397.0</ele><time>2026-03-31T08:14:51.165Z</time></trkpt><trkpt lat="41.2210617" lon="0.6953067"><ele>400.75</ele><time>2026-03-31T08:14:52.164Z</time></trkpt><trkpt lat="41.2209817" lon="0.6954417"><ele>404.5</ele><time>2026-03-31T08:14:53.164Z</time></trkpt><trkpt lat="41.2208783" lon="0.6955383"><ele>408.25</ele><time>2026-03-31T08:14:54.164Z</time></trkpt><trkpt lat="41.2207567" lon="0.695605"><ele>412.0</ele><time>2026-03-31T08:14:55.165Z</time></trkpt><trkpt lat="41.220625" lon="0.6956317"><ele>412.0</ele><time>2026-03-31T08:14:56.164Z</time></trkpt><trkpt lat="41.2204817" lon="0.6956067"><ele>412.0</ele><time>2026-03-31T08:14:57.164Z</time></trkpt><trkpt lat="41.2203433" lon="0.6955483"><ele>412.0</ele><time>2026-03-31T08:14:58.164Z</time></trkpt><trkpt lat="41.2202083" lon="0.6954733"><ele>412.0</ele><time>2026-03-31T08:14:59.165Z</time></trkpt><trkpt lat="41.2200683" lon="0.6954417"><ele>412.0</ele><time>2026-03-31T08:15:00.164Z</time></trkpt><trkpt lat="41.2199433" lon="0.69547"><ele>412.0</ele><time>2026-03-31T08:15:01.164Z</time></trkpt><trkpt lat="41.2198383" lon="0.6955467"><ele>412.0</ele><time>2026-03-31T08:15:02.164Z</time></trkpt><trkpt lat="41.2197467" lon="0.6956467"><ele>412.0</ele><time>2026-03-31T08:15:03.164Z</time></trkpt><trkpt lat="41.219675" lon="0.695765"><ele>413.75</ele><time>2026-03-31T08:15:04.164Z</time></trkpt><trkpt lat="41.2195967" lon="0.6959117"><ele>415.5</ele><time>2026-03-31T08:15:05.164Z</time></trkpt><trkpt lat="41.2195133" lon="0.6960317"><ele>417.25</ele><time>2026-03-31T08:15:06.164Z</time></trkpt><trkpt lat="41.2194267" lon="0.6961383"><ele>419.0</ele><time>2026-03-31T08:15:07.164Z</time></trkpt><trkpt lat="41.21937" lon="0.69625"><ele>419.0</ele><time>2026-03-31T08:15:08.164Z</time></trkpt><trkpt lat="41.2193283" lon="0.69638"><ele>419.0</ele><time>2026-03-31T08:15:09.164Z</time></trkpt><trkpt lat="41.21928" lon="0.6965"><ele>419.0</ele><time>2026-03-31T08:15:10.165Z</time></trkpt><trkpt lat="41.2192067" lon="0.6965733"><ele>419.0</ele><time>2026-03-31T08:15:11.164Z</time></trkpt><trkpt lat="41.2191083" lon="0.6966067"><ele>419.0</ele><time>2026-03-31T08:15:12.164Z</time></trkpt><trkpt lat="41.219" lon="0.696645"><ele>420.0</ele><time>2026-03-31T08:15:13.165Z</time></trkpt><trkpt lat="41.2189117" lon="0.696705"><ele>421.0</ele><time>2026-03-31T08:15:14.164Z</time></trkpt><trkpt lat="41.218845" lon="0.696805"><ele>422.0</ele><time>2026-03-31T08:15:15.165Z</time></trkpt><trkpt lat="41.2188117" lon="0.6969367"><ele>423.0</ele><time>2026-03-31T08:15:16.164Z</time></trkpt><trkpt lat="41.2187967" lon="0.6970933"><ele>424.0</ele><time>2026-03-31T08:15:17.164Z</time></trkpt><trkpt lat="41.218755" lon="0.6972167"><ele>424.79999999999995</ele><time>2026-03-31T08:15:18.165Z</time></trkpt><trkpt lat="41.21868" lon="0.6973117"><ele>425.59999999999997</ele><time>2026-03-31T08:15:19.165Z</time></trkpt><trkpt lat="41.218595" lon="0.69737"><ele>426.4</ele><time>2026-03-31T08:15:20.164Z</time></trkpt><trkpt lat="41.21851" lon="0.6973867"><ele>427.2</ele><time>2026-03-31T08:15:21.164Z</time></trkpt><trkpt lat="41.21843" lon="0.6973583"><ele>428.0</ele><time>2026-03-31T08:15:22.165Z</time></trkpt><trkpt lat="41.21836" lon="0.6972833"><ele>428.0</ele><time>2026-03-31T08:15:23.165Z</time></trkpt><trkpt lat="41.2183017" lon="0.6971433"><ele>428.0</ele><time>2026-03-31T08:15:24.165Z</time></trkpt><trkpt lat="41.2182617" lon="0.696955"><ele>428.0</ele><time>2026-03-31T08:15:25.165Z</time></trkpt><trkpt lat="41.21825" lon="0.6967183"><ele>428.0</ele><time>2026-03-31T08:15:26.164Z</time></trkpt><trkpt lat="41.21823" lon="0.6965017"><ele>427.0</ele><time>2026-03-31T08:15:27.165Z</time></trkpt><trkpt lat="41.2182133" lon="0.6962967"><ele>426.0</ele><time>2026-03-31T08:15:28.164Z</time></trkpt><trkpt lat="41.2181983" lon="0.6960967"><ele>425.0</ele><time>2026-03-31T08:15:29.164Z</time></trkpt><trkpt lat="41.218195" lon="0.6959183"><ele>424.0</ele><time>2026-03-31T08:15:30.165Z</time></trkpt><trkpt lat="41.2182" lon="0.6957533"><ele>424.2</ele><time>2026-03-31T08:15:31.165Z</time></trkpt><trkpt lat="41.2181833" lon="0.6956183"><ele>424.4</ele><time>2026-03-31T08:15:32.164Z</time></trkpt><trkpt lat="41.2181367" lon="0.6955083"><ele>424.6</ele><time>2026-03-31T08:15:33.164Z</time></trkpt><trkpt lat="41.218065" lon="0.6954317"><ele>424.8</ele><time>2026-03-31T08:15:34.165Z</time></trkpt><trkpt lat="41.21799" lon="0.69542"><ele>425.0</ele><time>2026-03-31T08:15:35.164Z</time></trkpt><trkpt lat="41.2179083" lon="0.69545"><ele>425.0</ele><time>2026-03-31T08:15:36.164Z</time></trkpt><trkpt lat="41.2178267" lon="0.6955383"><ele>425.0</ele><time>2026-03-31T08:15:37.164Z</time></trkpt><trkpt lat="41.217745" lon="0.6956633"><ele>425.0</ele><time>2026-03-31T08:15:38.165Z</time></trkpt><trkpt lat="41.217655" lon="0.6958217"><ele>425.0</ele><time>2026-03-31T08:15:39.164Z</time></trkpt><trkpt lat="41.2175667" lon="0.695955"><ele>425.0</ele><time>2026-03-31T08:15:40.165Z</time></trkpt><trkpt lat="41.2174783" lon="0.6960533"><ele>425.0</ele><time>2026-03-31T08:15:41.164Z</time></trkpt><trkpt lat="41.2174017" lon="0.6961467"><ele>425.0</ele><time>2026-03-31T08:15:42.164Z</time></trkpt><trkpt lat="41.2173483" lon="0.69626"><ele>425.0</ele><time>2026-03-31T08:15:43.164Z</time></trkpt><trkpt lat="41.2173267" lon="0.69637"><ele>425.0</ele><time>2026-03-31T08:15:44.165Z</time></trkpt><trkpt lat="41.2173517" lon="0.696495"><ele>426.25</ele><time>2026-03-31T08:15:45.164Z</time></trkpt><trkpt lat="41.2174117" lon="0.69662"><ele>427.5</ele><time>2026-03-31T08:15:46.165Z</time></trkpt><trkpt lat="41.217475" lon="0.696755"><ele>428.75</ele><time>2026-03-31T08:15:47.165Z</time></trkpt><trkpt lat="41.2175433" lon="0.6969083"><ele>430.0</ele><time>2026-03-31T08:15:48.164Z</time></trkpt><trkpt lat="41.2175767" lon="0.697075"><ele>430.5</ele><time>2026-03-31T08:15:49.164Z</time></trkpt><trkpt lat="41.217575" lon="0.6972533"><ele>431.0</ele><time>2026-03-31T08:15:50.165Z</time></trkpt><trkpt lat="41.217535" lon="0.6974233"><ele>431.5</ele><time>2026-03-31T08:15:51.164Z</time></trkpt><trkpt lat="41.2174767" lon="0.6975783"><ele>432.0</ele><time>2026-03-31T08:15:52.165Z</time></trkpt><trkpt lat="41.2174083" lon="0.6977217"><ele>431.25</ele><time>2026-03-31T08:15:53.164Z</time></trkpt><trkpt lat="41.2173467" lon="0.6978667"><ele>430.5</ele><time>2026-03-31T08:15:54.164Z</time></trkpt><trkpt lat="41.21731" lon="0.6980117"><ele>429.75</ele><time>2026-03-31T08:15:55.164Z</time></trkpt><trkpt lat="41.2172867" lon="0.69817"><ele>429.0</ele><time>2026-03-31T08:15:56.164Z</time></trkpt><trkpt lat="41.21729" lon="0.6983433"><ele>429.0</ele><time>2026-03-31T08:15:57.164Z</time></trkpt><trkpt lat="41.2173083" lon="0.698525"><ele>429.0</ele><time>2026-03-31T08:15:58.164Z</time></trkpt><trkpt lat="41.217315" lon="0.6987083"><ele>429.0</ele><time>2026-03-31T08:15:59.165Z</time></trkpt><trkpt lat="41.21732" lon="0.6989067"><ele>429.0</ele><time>2026-03-31T08:16:00.165Z</time></trkpt><trkpt lat="41.217315" lon="0.6990883"><ele>432.4</ele><time>2026-03-31T08:16:01.165Z</time></trkpt><trkpt lat="41.2172983" lon="0.6992417"><ele>435.79999999999995</ele><time>2026-03-31T08:16:02.164Z</time></trkpt><trkpt lat="41.217245" lon="0.6993683"><ele>439.20000000000005</ele><time>2026-03-31T08:16:03.164Z</time></trkpt><trkpt lat="41.2171633" lon="0.6994633"><ele>442.6</ele><time>2026-03-31T08:16:04.164Z</time></trkpt><trkpt lat="41.2170583" lon="0.6995117"><ele>446.0</ele><time>2026-03-31T08:16:05.164Z</time></trkpt><trkpt lat="41.2169433" lon="0.6994933"><ele>446.0</ele><time>2026-03-31T08:16:06.164Z</time></trkpt><trkpt lat="41.216835" lon="0.6994167"><ele>446.0</ele><time>2026-03-31T08:16:07.165Z</time></trkpt><trkpt lat="41.2167267" lon="0.6993133"><ele>446.0</ele><time>2026-03-31T08:16:08.165Z</time></trkpt><trkpt lat="41.2166233" lon="0.699225"><ele>446.0</ele><time>2026-03-31T08:16:09.164Z</time></trkpt><trkpt lat="41.216525" lon="0.6991917"><ele>445.0</ele><time>2026-03-31T08:16:10.165Z</time></trkpt><trkpt lat="41.2164367" lon="0.699225"><ele>444.0</ele><time>2026-03-31T08:16:11.164Z</time></trkpt><trkpt lat="41.21638" lon="0.6993083"><ele>443.0</ele><time>2026-03-31T08:16:12.165Z</time></trkpt><trkpt lat="41.216355" lon="0.6994333"><ele>442.0</ele><time>2026-03-31T08:16:13.164Z</time></trkpt><trkpt lat="41.21634" lon="0.6995767"><ele>441.0</ele><time>2026-03-31T08:16:14.164Z</time></trkpt><trkpt lat="41.2162967" lon="0.6997167"><ele>446.0</ele><time>2026-03-31T08:16:15.165Z</time></trkpt><trkpt lat="41.2162217" lon="0.6998133"><ele>451.0</ele><time>2026-03-31T08:16:16.165Z</time></trkpt><trkpt lat="41.2161233" lon="0.69985"><ele>456.0</ele><time>2026-03-31T08:16:17.164Z</time></trkpt><trkpt lat="41.21601" lon="0.69982"><ele>461.0</ele><time>2026-03-31T08:16:18.165Z</time></trkpt><trkpt lat="41.21589" lon="0.69976"><ele>461.0</ele><time>2026-03-31T08:16:19.164Z</time></trkpt><trkpt lat="41.2157833" lon="0.69968"><ele>461.0</ele><time>2026-03-31T08:16:20.164Z</time></trkpt><trkpt lat="41.2156633" lon="0.6995983"><ele>461.0</ele><time>2026-03-31T08:16:21.164Z</time></trkpt><trkpt lat="41.215555" lon="0.6994867"><ele>461.0</ele><time>2026-03-31T08:16:22.164Z</time></trkpt><trkpt lat="41.2154767" lon="0.69935"><ele>457.6</ele><time>2026-03-31T08:16:23.165Z</time></trkpt><trkpt lat="41.2154117" lon="0.699235"><ele>454.20000000000005</ele><time>2026-03-31T08:16:24.164Z</time></trkpt><trkpt lat="41.2153467" lon="0.6991217"><ele>450.79999999999995</ele><time>2026-03-31T08:16:25.164Z</time></trkpt><trkpt lat="41.2152633" lon="0.6990767"><ele>447.4</ele><time>2026-03-31T08:16:26.165Z</time></trkpt><trkpt lat="41.2151883" lon="0.6990967"><ele>444.0</ele><time>2026-03-31T08:16:27.164Z</time></trkpt><trkpt lat="41.2151217" lon="0.6991583"><ele>444.0</ele><time>2026-03-31T08:16:28.165Z</time></trkpt><trkpt lat="41.21509" lon="0.6992617"><ele>444.0</ele><time>2026-03-31T08:16:29.164Z</time></trkpt><trkpt lat="41.21511" lon="0.699395"><ele>444.0</ele><time>2026-03-31T08:16:30.165Z</time></trkpt><trkpt lat="41.2151717" lon="0.69952"><ele>444.0</ele><time>2026-03-31T08:16:31.164Z</time></trkpt><trkpt lat="41.2152583" lon="0.699635"><ele>444.0</ele><time>2026-03-31T08:16:32.164Z</time></trkpt><trkpt lat="41.2153783" lon="0.6997217"><ele>445.0</ele><time>2026-03-31T08:16:33.164Z</time></trkpt><trkpt lat="41.2155233" lon="0.69978"><ele>446.0</ele><time>2026-03-31T08:16:34.164Z</time></trkpt><trkpt lat="41.2156633" lon="0.6998583"><ele>447.0</ele><time>2026-03-31T08:16:35.165Z</time></trkpt><trkpt lat="41.2157917" lon="0.6999467"><ele>448.0</ele><time>2026-03-31T08:16:36.165Z</time></trkpt><trkpt lat="41.2159117" lon="0.7000417"><ele>451.25</ele><time>2026-03-31T08:16:37.164Z</time></trkpt><trkpt lat="41.216035" lon="0.700145"><ele>454.5</ele><time>2026-03-31T08:16:38.164Z</time></trkpt><trkpt lat="41.2161483" lon="0.7002217"><ele>457.75</ele><time>2026-03-31T08:16:39.165Z</time></trkpt><trkpt lat="41.2162633" lon="0.7002633"><ele>461.0</ele><time>2026-03-31T08:16:40.164Z</time></trkpt><trkpt lat="41.2163683" lon="0.7002467"><ele>461.0</ele><time>2026-03-31T08:16:41.164Z</time></trkpt><trkpt lat="41.2164717" lon="0.7001867"><ele>461.0</ele><time>2026-03-31T08:16:42.165Z</time></trkpt><trkpt lat="41.216565" lon="0.7000833"><ele>461.0</ele><time>2026-03-31T08:16:43.164Z</time></trkpt><trkpt lat="41.21663" lon="0.6999833"><ele>461.0</ele><time>2026-03-31T08:16:44.164Z</time></trkpt><trkpt lat="41.2166917" lon="0.699935"><ele>461.0</ele><time>2026-03-31T08:16:45.164Z</time></trkpt><trkpt lat="41.2168033" lon="0.6999917"><ele>462.20000000000005</ele><time>2026-03-31T08:16:47.165Z</time></trkpt><trkpt lat="41.216865" lon="0.7000817"><ele>463.40000000000003</ele><time>2026-03-31T08:16:48.165Z</time></trkpt><trkpt lat="41.2169233" lon="0.7001917"><ele>464.6</ele><time>2026-03-31T08:16:49.164Z</time></trkpt><trkpt lat="41.2170083" lon="0.7002967"><ele>465.8</ele><time>2026-03-31T08:16:50.165Z</time></trkpt><trkpt lat="41.217095" lon="0.70036"><ele>467.0</ele><time>2026-03-31T08:16:51.165Z</time></trkpt><trkpt lat="41.2172" lon="0.700375"><ele>467.0</ele><time>2026-03-31T08:16:52.165Z</time></trkpt><trkpt lat="41.2172933" lon="0.7003167"><ele>467.0</ele><time>2026-03-31T08:16:53.164Z</time></trkpt><trkpt lat="41.2173833" lon="0.7001967"><ele>467.0</ele><time>2026-03-31T08:16:54.164Z</time></trkpt><trkpt lat="41.21746" lon="0.7000417"><ele>467.0</ele><time>2026-03-31T08:16:55.164Z</time></trkpt><trkpt lat="41.2175267" lon="0.6999317"><ele>467.0</ele><time>2026-03-31T08:16:56.165Z</time></trkpt><trkpt lat="41.2176033" lon="0.6999017"><ele>467.00000000000006</ele><time>2026-03-31T08:16:57.164Z</time></trkpt><trkpt lat="41.2177017" lon="0.69998"><ele>467.00000000000006</ele><time>2026-03-31T08:16:59.165Z</time></trkpt><trkpt lat="41.2177133" lon="0.7000767"><ele>467.0</ele><time>2026-03-31T08:17:00.164Z</time></trkpt><trkpt lat="41.217695" lon="0.7002117"><ele>467.0</ele><time>2026-03-31T08:17:01.164Z</time></trkpt><trkpt lat="41.2176467" lon="0.70038"><ele>470.0</ele><time>2026-03-31T08:17:02.164Z</time></trkpt><trkpt lat="41.21758" lon="0.7005533"><ele>473.0</ele><time>2026-03-31T08:17:03.164Z</time></trkpt><trkpt lat="41.2175067" lon="0.7007267"><ele>476.0</ele><time>2026-03-31T08:17:04.164Z</time></trkpt><trkpt lat="41.217445" lon="0.700895"><ele>479.0</ele><time>2026-03-31T08:17:05.164Z</time></trkpt><trkpt lat="41.2173983" lon="0.7010617"><ele>479.5</ele><time>2026-03-31T08:17:06.164Z</time></trkpt><trkpt lat="41.2173767" lon="0.7012067"><ele>480.0</ele><time>2026-03-31T08:17:07.165Z</time></trkpt><trkpt lat="41.2173767" lon="0.701355"><ele>480.5</ele><time>2026-03-31T08:17:08.164Z</time></trkpt><trkpt lat="41.2173967" lon="0.7015167"><ele>481.0</ele><time>2026-03-31T08:17:09.165Z</time></trkpt><trkpt lat="41.217415" lon="0.7016783"><ele>481.0</ele><time>2026-03-31T08:17:10.164Z</time></trkpt><trkpt lat="41.217395" lon="0.7018383"><ele>481.0</ele><time>2026-03-31T08:17:11.165Z</time></trkpt><trkpt lat="41.21734" lon="0.70199"><ele>481.0</ele><time>2026-03-31T08:17:12.164Z</time></trkpt><trkpt lat="41.2172717" lon="0.7021467"><ele>481.0</ele><time>2026-03-31T08:17:13.165Z</time></trkpt><trkpt lat="41.2172067" lon="0.70232"><ele>483.25</ele><time>2026-03-31T08:17:14.164Z</time></trkpt><trkpt lat="41.2171433" lon="0.70249"><ele>485.5</ele><time>2026-03-31T08:17:15.165Z</time></trkpt><trkpt lat="41.2170783" lon="0.7026717"><ele>487.75</ele><time>2026-03-31T08:17:16.165Z</time></trkpt><trkpt lat="41.217005" lon="0.70285"><ele>490.0</ele><time>2026-03-31T08:17:17.164Z</time></trkpt><trkpt lat="41.2169317" lon="0.7030067"><ele>491.0</ele><time>2026-03-31T08:17:18.164Z</time></trkpt><trkpt lat="41.2168533" lon="0.7031367"><ele>492.0</ele><time>2026-03-31T08:17:19.164Z</time></trkpt><trkpt lat="41.2167533" lon="0.7032517"><ele>493.0</ele><time>2026-03-31T08:17:20.165Z</time></trkpt><trkpt lat="41.216655" lon="0.7033483"><ele>494.0</ele><time>2026-03-31T08:17:21.164Z</time></trkpt><trkpt lat="41.21654" lon="0.7033967"><ele>496.0</ele><time>2026-03-31T08:17:22.164Z</time></trkpt><trkpt lat="41.21642" lon="0.7034133"><ele>498.0</ele><time>2026-03-31T08:17:23.165Z</time></trkpt><trkpt lat="41.2162883" lon="0.7034067"><ele>500.0</ele><time>2026-03-31T08:17:24.164Z</time></trkpt><trkpt lat="41.216155" lon="0.7033967"><ele>502.0</ele><time>2026-03-31T08:17:25.165Z</time></trkpt><trkpt lat="41.21602" lon="0.7033917"><ele>502.0</ele><time>2026-03-31T08:17:26.164Z</time></trkpt><trkpt lat="41.2158867" lon="0.7033717"><ele>502.0</ele><time>2026-03-31T08:17:27.165Z</time></trkpt><trkpt lat="41.2157633" lon="0.7033117"><ele>502.0</ele><time>2026-03-31T08:17:28.165Z</time></trkpt><trkpt lat="41.21566" lon="0.7032233"><ele>502.0</ele><time>2026-03-31T08:17:29.165Z</time></trkpt><trkpt lat="41.2155517" lon="0.7031367"><ele>502.25</ele><time>2026-03-31T08:17:30.164Z</time></trkpt><trkpt lat="41.215445" lon="0.7030817"><ele>502.5</ele><time>2026-03-31T08:17:31.164Z</time></trkpt><trkpt lat="41.21533" lon="0.7030633"><ele>502.75</ele><time>2026-03-31T08:17:32.165Z</time></trkpt><trkpt lat="41.2152" lon="0.703095"><ele>503.0</ele><time>2026-03-31T08:17:33.165Z</time></trkpt><trkpt lat="41.2150833" lon="0.7031583"><ele>503.0</ele><time>2026-03-31T08:17:34.164Z</time></trkpt><trkpt lat="41.2149733" lon="0.7032433"><ele>503.0</ele><time>2026-03-31T08:17:35.164Z</time></trkpt><trkpt lat="41.21488" lon="0.7033617"><ele>503.0</ele><time>2026-03-31T08:17:36.164Z</time></trkpt><trkpt lat="41.2148167" lon="0.703525"><ele>503.0</ele><time>2026-03-31T08:17:37.165Z</time></trkpt><trkpt lat="41.2147683" lon="0.7036917"><ele>503.5</ele><time>2026-03-31T08:17:38.164Z</time></trkpt><trkpt lat="41.2147033" lon="0.7038583"><ele>504.0</ele><time>2026-03-31T08:17:39.164Z</time></trkpt><trkpt lat="41.2146367" lon="0.704015"><ele>504.5</ele><time>2026-03-31T08:17:40.165Z</time></trkpt><trkpt lat="41.2145483" lon="0.7041433"><ele>505.0</ele><time>2026-03-31T08:17:41.165Z</time></trkpt><trkpt lat="41.214445" lon="0.70426"><ele>505.0</ele><time>2026-03-31T08:17:42.165Z</time></trkpt><trkpt lat="41.214335" lon="0.7043583"><ele>505.0</ele><time>2026-03-31T08:17:43.164Z</time></trkpt><trkpt lat="41.2142217" lon="0.7044633"><ele>505.0</ele><time>2026-03-31T08:17:44.164Z</time></trkpt><trkpt lat="41.21414" lon="0.7046"><ele>505.0</ele><time>2026-03-31T08:17:45.165Z</time></trkpt><trkpt lat="41.2140883" lon="0.704755"><ele>505.25</ele><time>2026-03-31T08:17:46.165Z</time></trkpt><trkpt lat="41.2140883" lon="0.7049133"><ele>505.5</ele><time>2026-03-31T08:17:47.164Z</time></trkpt><trkpt lat="41.2141517" lon="0.705065"><ele>505.75</ele><time>2026-03-31T08:17:48.165Z</time></trkpt><trkpt lat="41.2142517" lon="0.7051767"><ele>506.0</ele><time>2026-03-31T08:17:49.164Z</time></trkpt><trkpt lat="41.214365" lon="0.7052617"><ele>506.0</ele><time>2026-03-31T08:17:50.165Z</time></trkpt><trkpt lat="41.2144917" lon="0.7053433"><ele>506.0</ele><time>2026-03-31T08:17:51.165Z</time></trkpt><trkpt lat="41.2146217" lon="0.7054383"><ele>506.0</ele><time>2026-03-31T08:17:52.164Z</time></trkpt><trkpt lat="41.2147433" lon="0.7055717"><ele>506.0</ele><time>2026-03-31T08:17:53.164Z</time></trkpt><trkpt lat="41.2148583" lon="0.7057183"><ele>512.0</ele><time>2026-03-31T08:17:54.165Z</time></trkpt><trkpt lat="41.2149567" lon="0.7058667"><ele>518.0</ele><time>2026-03-31T08:17:55.164Z</time></trkpt><trkpt lat="41.21505" lon="0.7060267"><ele>524.0</ele><time>2026-03-31T08:17:56.164Z</time></trkpt><trkpt lat="41.2151367" lon="0.706195"><ele>524.0</ele><time>2026-03-31T08:17:57.165Z</time></trkpt><trkpt lat="41.2152117" lon="0.70637"><ele>524.0</ele><time>2026-03-31T08:17:58.164Z</time></trkpt><trkpt lat="41.2152683" lon="0.7065283"><ele>524.0</ele><time>2026-03-31T08:17:59.164Z</time></trkpt><trkpt lat="41.215315" lon="0.7066683"><ele>524.0</ele><time>2026-03-31T08:18:00.164Z</time></trkpt><trkpt lat="41.2153333" lon="0.706795"><ele>526.4</ele><time>2026-03-31T08:18:01.164Z</time></trkpt><trkpt lat="41.2153133" lon="0.7069233"><ele>528.8</ele><time>2026-03-31T08:18:02.165Z</time></trkpt><trkpt lat="41.21525" lon="0.7070317"><ele>531.2</ele><time>2026-03-31T08:18:03.164Z</time></trkpt><trkpt lat="41.215165" lon="0.70713"><ele>533.6</ele><time>2026-03-31T08:18:04.164Z</time></trkpt><trkpt lat="41.21507" lon="0.7071983"><ele>536.0</ele><time>2026-03-31T08:18:05.165Z</time></trkpt><trkpt lat="41.21497" lon="0.707235"><ele>536.0</ele><time>2026-03-31T08:18:06.165Z</time></trkpt><trkpt lat="41.21486" lon="0.70723"><ele>536.0</ele><time>2026-03-31T08:18:07.165Z</time></trkpt><trkpt lat="41.2147417" lon="0.7072167"><ele>536.0</ele><time>2026-03-31T08:18:08.164Z</time></trkpt><trkpt lat="41.2146217" lon="0.7072317"><ele>536.0</ele><time>2026-03-31T08:18:09.164Z</time></trkpt><trkpt lat="41.21449" lon="0.7072617"><ele>537.0</ele><time>2026-03-31T08:18:10.164Z</time></trkpt><trkpt lat="41.21435" lon="0.7073033"><ele>538.0</ele><time>2026-03-31T08:18:11.164Z</time></trkpt><trkpt lat="41.2142033" lon="0.7073433"><ele>539.0</ele><time>2026-03-31T08:18:12.165Z</time></trkpt><trkpt lat="41.2140567" lon="0.7073867"><ele>540.0</ele><time>2026-03-31T08:18:13.164Z</time></trkpt><trkpt lat="41.2139017" lon="0.7073983"><ele>541.75</ele><time>2026-03-31T08:18:14.164Z</time></trkpt><trkpt lat="41.2137567" lon="0.7073833"><ele>543.5</ele><time>2026-03-31T08:18:15.164Z</time></trkpt><trkpt lat="41.2136133" lon="0.70735"><ele>545.25</ele><time>2026-03-31T08:18:16.164Z</time></trkpt><trkpt lat="41.2134833" lon="0.7073033"><ele>547.0</ele><time>2026-03-31T08:18:17.164Z</time></trkpt><trkpt lat="41.2133533" lon="0.707245"><ele>547.0</ele><time>2026-03-31T08:18:18.165Z</time></trkpt><trkpt lat="41.21323" lon="0.7072017"><ele>547.0</ele><time>2026-03-31T08:18:19.165Z</time></trkpt><trkpt lat="41.2131267" lon="0.7071933"><ele>547.0</ele><time>2026-03-31T08:18:20.165Z</time></trkpt><trkpt lat="41.21305" lon="0.707215"><ele>547.0</ele><time>2026-03-31T08:18:21.165Z</time></trkpt><trkpt lat="41.2129783" lon="0.707275"><ele>547.0</ele><time>2026-03-31T08:18:22.165Z</time></trkpt><trkpt lat="41.2129183" lon="0.7073767"><ele>545.75</ele><time>2026-03-31T08:18:23.164Z</time></trkpt><trkpt lat="41.212875" lon="0.7075083"><ele>544.5</ele><time>2026-03-31T08:18:24.164Z</time></trkpt><trkpt lat="41.21284" lon="0.7076617"><ele>543.25</ele><time>2026-03-31T08:18:25.165Z</time></trkpt><trkpt lat="41.212795" lon="0.7078333"><ele>542.0</ele><time>2026-03-31T08:18:26.165Z</time></trkpt><trkpt lat="41.2127383" lon="0.7079717"><ele>542.4</ele><time>2026-03-31T08:18:27.164Z</time></trkpt><trkpt lat="41.21266" lon="0.70806"><ele>542.8000000000001</ele><time>2026-03-31T08:18:28.165Z</time></trkpt><trkpt lat="41.21256" lon="0.7081233"><ele>543.2</ele><time>2026-03-31T08:18:29.164Z</time></trkpt><trkpt lat="41.2124617" lon="0.7081783"><ele>543.6</ele><time>2026-03-31T08:18:30.164Z</time></trkpt><trkpt lat="41.212355" lon="0.70824"><ele>544.0</ele><time>2026-03-31T08:18:31.164Z</time></trkpt><trkpt lat="41.2122417" lon="0.7083217"><ele>544.0</ele><time>2026-03-31T08:18:32.165Z</time></trkpt><trkpt lat="41.2121367" lon="0.708425"><ele>544.0</ele><time>2026-03-31T08:18:33.164Z</time></trkpt><trkpt lat="41.21201" lon="0.708525"><ele>544.0</ele><time>2026-03-31T08:18:34.165Z</time></trkpt><trkpt lat="41.211885" lon="0.7086167"><ele>544.0</ele><time>2026-03-31T08:18:35.165Z</time></trkpt><trkpt lat="41.2117567" lon="0.7086817"><ele>547.5</ele><time>2026-03-31T08:18:36.164Z</time></trkpt><trkpt lat="41.211625" lon="0.70873"><ele>551.0</ele><time>2026-03-31T08:18:37.165Z</time></trkpt><trkpt lat="41.21151" lon="0.70879"><ele>554.5</ele><time>2026-03-31T08:18:38.164Z</time></trkpt><trkpt lat="41.211405" lon="0.70887"><ele>558.0</ele><time>2026-03-31T08:18:39.165Z</time></trkpt><trkpt lat="41.21132" lon="0.7089783"><ele>558.0</ele><time>2026-03-31T08:18:40.165Z</time></trkpt><trkpt lat="41.211275" lon="0.7091217"><ele>558.0</ele><time>2026-03-31T08:18:41.165Z</time></trkpt><trkpt lat="41.2112683" lon="0.7092817"><ele>558.0</ele><time>2026-03-31T08:18:42.164Z</time></trkpt><trkpt lat="41.2112933" lon="0.70945"><ele>558.0</ele><time>2026-03-31T08:18:43.164Z</time></trkpt><trkpt lat="41.2113433" lon="0.7096017"><ele>560.0</ele><time>2026-03-31T08:18:44.164Z</time></trkpt><trkpt lat="41.211395" lon="0.709735"><ele>562.0</ele><time>2026-03-31T08:18:45.164Z</time></trkpt><trkpt lat="41.21147" lon="0.7098483"><ele>564.0</ele><time>2026-03-31T08:18:46.164Z</time></trkpt><trkpt lat="41.2115733" lon="0.7099133"><ele>566.0</ele><time>2026-03-31T08:18:47.164Z</time></trkpt><trkpt lat="41.21169" lon="0.709985"><ele>566.0</ele><time>2026-03-31T08:18:48.165Z</time></trkpt><trkpt lat="41.2118017" lon="0.71007"><ele>566.0</ele><time>2026-03-31T08:18:49.164Z</time></trkpt><trkpt lat="41.2119017" lon="0.71018"><ele>566.0</ele><time>2026-03-31T08:18:50.164Z</time></trkpt><trkpt lat="41.2119583" lon="0.710345"><ele>566.0</ele><time>2026-03-31T08:18:51.164Z</time></trkpt><trkpt lat="41.21199" lon="0.710515"><ele>564.0</ele><time>2026-03-31T08:18:52.164Z</time></trkpt><trkpt lat="41.212025" lon="0.710695"><ele>562.0</ele><time>2026-03-31T08:18:53.165Z</time></trkpt><trkpt lat="41.21206" lon="0.71084"><ele>560.0</ele><time>2026-03-31T08:18:54.165Z</time></trkpt><trkpt lat="41.2121" lon="0.710955"><ele>558.0</ele><time>2026-03-31T08:18:55.164Z</time></trkpt><trkpt lat="41.212165" lon="0.71103"><ele>556.0</ele><time>2026-03-31T08:18:56.165Z</time></trkpt><trkpt lat="41.2122433" lon="0.7110667"><ele>556.2</ele><time>2026-03-31T08:18:57.165Z</time></trkpt><trkpt lat="41.21234" lon="0.7110783"><ele>556.4000000000001</ele><time>2026-03-31T08:18:58.164Z</time></trkpt><trkpt lat="41.2124417" lon="0.71109"><ele>556.6</ele><time>2026-03-31T08:18:59.165Z</time></trkpt><trkpt lat="41.2125567" lon="0.7111317"><ele>556.8000000000001</ele><time>2026-03-31T08:19:00.165Z</time></trkpt><trkpt lat="41.2126567" lon="0.7111867"><ele>557.0</ele><time>2026-03-31T08:19:01.164Z</time></trkpt><trkpt lat="41.2127667" lon="0.711245"><ele>557.0</ele><time>2026-03-31T08:19:02.164Z</time></trkpt><trkpt lat="41.2128967" lon="0.7112883"><ele>557.0</ele><time>2026-03-31T08:19:03.164Z</time></trkpt><trkpt lat="41.2130383" lon="0.7113017"><ele>557.0</ele><time>2026-03-31T08:19:04.165Z</time></trkpt><trkpt lat="41.2131817" lon="0.7113217"><ele>557.0</ele><time>2026-03-31T08:19:05.165Z</time></trkpt><trkpt lat="41.21332" lon="0.7113483"><ele>559.25</ele><time>2026-03-31T08:19:06.164Z</time></trkpt><trkpt lat="41.213445" lon="0.7114267"><ele>561.5</ele><time>2026-03-31T08:19:07.164Z</time></trkpt><trkpt lat="41.2135617" lon="0.7115433"><ele>563.75</ele><time>2026-03-31T08:19:08.165Z</time></trkpt><trkpt lat="41.2136717" lon="0.71169"><ele>566.0</ele><time>2026-03-31T08:19:09.165Z</time></trkpt><trkpt lat="41.21378" lon="0.7118533"><ele>559.0</ele><time>2026-03-31T08:19:10.164Z</time></trkpt><trkpt lat="41.2138683" lon="0.7120367"><ele>552.0</ele><time>2026-03-31T08:19:11.164Z</time></trkpt><trkpt lat="41.2139317" lon="0.7122283"><ele>545.0</ele><time>2026-03-31T08:19:12.164Z</time></trkpt><trkpt lat="41.2139833" lon="0.7124383"><ele>551.0</ele><time>2026-03-31T08:19:13.165Z</time></trkpt><trkpt lat="41.2140383" lon="0.71264"><ele>557.0</ele><time>2026-03-31T08:19:14.164Z</time></trkpt><trkpt lat="41.21409" lon="0.71284"><ele>563.0</ele><time>2026-03-31T08:19:15.164Z</time></trkpt><trkpt lat="41.214155" lon="0.713035"><ele>563.0</ele><time>2026-03-31T08:19:16.164Z</time></trkpt><trkpt lat="41.214235" lon="0.713235"><ele>563.0</ele><time>2026-03-31T08:19:17.164Z</time></trkpt><trkpt lat="41.2143167" lon="0.7134267"><ele>563.0</ele><time>2026-03-31T08:19:18.164Z</time></trkpt><trkpt lat="41.2144183" lon="0.7136033"><ele>556.0</ele><time>2026-03-31T08:19:19.164Z</time></trkpt><trkpt lat="41.21453" lon="0.71376"><ele>549.0</ele><time>2026-03-31T08:19:20.164Z</time></trkpt><trkpt lat="41.2146583" lon="0.7139033"><ele>542.0</ele><time>2026-03-31T08:19:21.165Z</time></trkpt><trkpt lat="41.214795" lon="0.7140283"><ele>552.3333333333333</ele><time>2026-03-31T08:19:22.164Z</time></trkpt><trkpt lat="41.2149283" lon="0.7141517"><ele>562.6666666666666</ele><time>2026-03-31T08:19:23.165Z</time></trkpt><trkpt lat="41.2150733" lon="0.7142517"><ele>573.0</ele><time>2026-03-31T08:19:24.164Z</time></trkpt><trkpt lat="41.2152333" lon="0.7143433"><ele>571.0</ele><time>2026-03-31T08:19:25.165Z</time></trkpt><trkpt lat="41.2153817" lon="0.7144267"><ele>569.0</ele><time>2026-03-31T08:19:26.164Z</time></trkpt><trkpt lat="41.21552" lon="0.7145067"><ele>567.0</ele><time>2026-03-31T08:19:27.164Z</time></trkpt><trkpt lat="41.215635" lon="0.7145883"><ele>565.0</ele><time>2026-03-31T08:19:28.164Z</time></trkpt><trkpt lat="41.21573" lon="0.7146967"><ele>565.0</ele><time>2026-03-31T08:19:29.165Z</time></trkpt><trkpt lat="41.2157683" lon="0.7148233"><ele>565.0</ele><time>2026-03-31T08:19:30.164Z</time></trkpt><trkpt lat="41.2157967" lon="0.7149483"><ele>565.0</ele><time>2026-03-31T08:19:31.164Z</time></trkpt><trkpt lat="41.21584" lon="0.7150483"><ele>565.0</ele><time>2026-03-31T08:19:32.165Z</time></trkpt><trkpt lat="41.2159167" lon="0.7151133"><ele>565.0</ele><time>2026-03-31T08:19:33.165Z</time></trkpt><trkpt lat="41.216015" lon="0.7151517"><ele>565.0</ele><time>2026-03-31T08:19:34.164Z</time></trkpt><trkpt lat="41.2161217" lon="0.7151633"><ele>565.0</ele><time>2026-03-31T08:19:35.164Z</time></trkpt><trkpt lat="41.2162267" lon="0.7152033"><ele>565.0</ele><time>2026-03-31T08:19:36.164Z</time></trkpt><trkpt lat="41.2163283" lon="0.71529"><ele>565.0</ele><time>2026-03-31T08:19:37.164Z</time></trkpt><trkpt lat="41.2163883" lon="0.7154133"><ele>565.0</ele><time>2026-03-31T08:19:38.165Z</time></trkpt><trkpt lat="41.21641" lon="0.7155533"><ele>562.0</ele><time>2026-03-31T08:19:39.165Z</time></trkpt><trkpt lat="41.2164067" lon="0.7157117"><ele>559.0</ele><time>2026-03-31T08:19:40.165Z</time></trkpt><trkpt lat="41.21643" lon="0.7158467"><ele>556.0</ele><time>2026-03-31T08:19:41.164Z</time></trkpt><trkpt lat="41.216475" lon="0.715965"><ele>553.0</ele><time>2026-03-31T08:19:42.164Z</time></trkpt><trkpt lat="41.2165533" lon="0.716075"><ele>550.0</ele><time>2026-03-31T08:19:43.165Z</time></trkpt><trkpt lat="41.21666" lon="0.71617"><ele>550.0</ele><time>2026-03-31T08:19:44.165Z</time></trkpt><trkpt lat="41.2167717" lon="0.7162667"><ele>550.0</ele><time>2026-03-31T08:19:45.164Z</time></trkpt><trkpt lat="41.2169017" lon="0.7163683"><ele>550.0</ele><time>2026-03-31T08:19:46.165Z</time></trkpt><trkpt lat="41.21703" lon="0.716485"><ele>550.0</ele><time>2026-03-31T08:19:47.164Z</time></trkpt><trkpt lat="41.21716" lon="0.7165983"><ele>550.0</ele><time>2026-03-31T08:19:48.165Z</time></trkpt><trkpt lat="41.2172917" lon="0.71671"><ele>550.0</ele><time>2026-03-31T08:19:49.165Z</time></trkpt><trkpt lat="41.2174317" lon="0.7168283"><ele>550.0</ele><time>2026-03-31T08:19:50.164Z</time></trkpt><trkpt lat="41.217565" lon="0.71696"><ele>550.6666666666667</ele><time>2026-03-31T08:19:51.164Z</time></trkpt><trkpt lat="41.2177" lon="0.7170883"><ele>551.3333333333334</ele><time>2026-03-31T08:19:52.164Z</time></trkpt><trkpt lat="41.21782" lon="0.71723"><ele>552.0</ele><time>2026-03-31T08:19:53.164Z</time></trkpt><trkpt lat="41.21794" lon="0.71739"><ele>552.0</ele><time>2026-03-31T08:19:54.165Z</time></trkpt><trkpt lat="41.2180567" lon="0.717545"><ele>552.0</ele><time>2026-03-31T08:19:55.165Z</time></trkpt><trkpt lat="41.21818" lon="0.71771"><ele>552.0</ele><time>2026-03-31T08:19:56.164Z</time></trkpt><trkpt lat="41.2183033" lon="0.7178783"><ele>554.3333333333334</ele><time>2026-03-31T08:19:57.164Z</time></trkpt><trkpt lat="41.2184117" lon="0.7180383"><ele>556.6666666666667</ele><time>2026-03-31T08:19:58.164Z</time></trkpt><trkpt lat="41.21852" lon="0.7181917"><ele>559.0</ele><time>2026-03-31T08:19:59.165Z</time></trkpt><trkpt lat="41.2186217" lon="0.718335"><ele>559.0</ele><time>2026-03-31T08:20:00.164Z</time></trkpt><trkpt lat="41.218715" lon="0.71847"><ele>559.0</ele><time>2026-03-31T08:20:01.164Z</time></trkpt><trkpt lat="41.21881" lon="0.7186117"><ele>559.0</ele><time>2026-03-31T08:20:02.164Z</time></trkpt><trkpt lat="41.218905" lon="0.7187567"><ele>559.0</ele><time>2026-03-31T08:20:03.164Z</time></trkpt><trkpt lat="41.21899" lon="0.71889"><ele>560.25</ele><time>2026-03-31T08:20:04.164Z</time></trkpt><trkpt lat="41.219065" lon="0.71903"><ele>561.5</ele><time>2026-03-31T08:20:05.165Z</time></trkpt><trkpt lat="41.2191183" lon="0.7191917"><ele>562.75</ele><time>2026-03-31T08:20:06.164Z</time></trkpt><trkpt lat="41.2191617" lon="0.71937"><ele>564.0</ele><time>2026-03-31T08:20:07.165Z</time></trkpt><trkpt lat="41.21921" lon="0.7195483"><ele>564.0</ele><time>2026-03-31T08:20:08.164Z</time></trkpt><trkpt lat="41.2192667" lon="0.7197117"><ele>564.0</ele><time>2026-03-31T08:20:09.164Z</time></trkpt><trkpt lat="41.2193333" lon="0.719875"><ele>564.0</ele><time>2026-03-31T08:20:10.164Z</time></trkpt><trkpt lat="41.2193933" lon="0.720055"><ele>564.0</ele><time>2026-03-31T08:20:11.165Z</time></trkpt><trkpt lat="41.219425" lon="0.7202417"><ele>564.5</ele><time>2026-03-31T08:20:12.165Z</time></trkpt><trkpt lat="41.2194433" lon="0.7204383"><ele>565.0</ele><time>2026-03-31T08:20:13.165Z</time></trkpt><trkpt lat="41.21945" lon="0.7206317"><ele>565.5</ele><time>2026-03-31T08:20:14.164Z</time></trkpt><trkpt lat="41.2194533" lon="0.7208233"><ele>566.0</ele><time>2026-03-31T08:20:15.165Z</time></trkpt><trkpt lat="41.2194533" lon="0.721005"><ele>565.25</ele><time>2026-03-31T08:20:16.164Z</time></trkpt><trkpt lat="41.2194483" lon="0.7211733"><ele>564.5</ele><time>2026-03-31T08:20:17.164Z</time></trkpt><trkpt lat="41.2194267" lon="0.72133"><ele>563.75</ele><time>2026-03-31T08:20:18.164Z</time></trkpt><trkpt lat="41.21939" lon="0.721485"><ele>563.0</ele><time>2026-03-31T08:20:19.164Z</time></trkpt><trkpt lat="41.2193367" lon="0.7216383"><ele>563.0</ele><time>2026-03-31T08:20:20.165Z</time></trkpt><trkpt lat="41.2192733" lon="0.7218"><ele>563.0</ele><time>2026-03-31T08:20:21.164Z</time></trkpt><trkpt lat="41.2192067" lon="0.721955"><ele>563.0</ele><time>2026-03-31T08:20:22.165Z</time></trkpt><trkpt lat="41.2191383" lon="0.72212"><ele>563.0</ele><time>2026-03-31T08:20:23.164Z</time></trkpt><trkpt lat="41.2190717" lon="0.722295"><ele>564.6666666666666</ele><time>2026-03-31T08:20:24.165Z</time></trkpt><trkpt lat="41.2190017" lon="0.722475"><ele>566.3333333333334</ele><time>2026-03-31T08:20:25.164Z</time></trkpt><trkpt lat="41.2189267" lon="0.7226617"><ele>568.0</ele><time>2026-03-31T08:20:26.165Z</time></trkpt><trkpt lat="41.21885" lon="0.7228467"><ele>568.0</ele><time>2026-03-31T08:20:27.164Z</time></trkpt><trkpt lat="41.2187733" lon="0.723045"><ele>568.0</ele><time>2026-03-31T08:20:28.165Z</time></trkpt><trkpt lat="41.2186933" lon="0.72324"><ele>568.0</ele><time>2026-03-31T08:20:29.164Z</time></trkpt><trkpt lat="41.2186133" lon="0.7234267"><ele>562.0</ele><time>2026-03-31T08:20:30.164Z</time></trkpt><trkpt lat="41.2185333" lon="0.7236167"><ele>556.0</ele><time>2026-03-31T08:20:31.165Z</time></trkpt><trkpt lat="41.2184583" lon="0.72381"><ele>550.0</ele><time>2026-03-31T08:20:32.164Z</time></trkpt><trkpt lat="41.21838" lon="0.7239917"><ele>550.0</ele><time>2026-03-31T08:20:33.164Z</time></trkpt><trkpt lat="41.218285" lon="0.7241767"><ele>550.0</ele><time>2026-03-31T08:20:34.165Z</time></trkpt><trkpt lat="41.218185" lon="0.7243583"><ele>550.0</ele><time>2026-03-31T08:20:35.164Z</time></trkpt><trkpt lat="41.2180883" lon="0.72453"><ele>555.6666666666667</ele><time>2026-03-31T08:20:36.164Z</time></trkpt><trkpt lat="41.2179967" lon="0.724705"><ele>561.3333333333334</ele><time>2026-03-31T08:20:37.164Z</time></trkpt><trkpt lat="41.2178983" lon="0.7248667"><ele>567.0</ele><time>2026-03-31T08:20:38.164Z</time></trkpt><trkpt lat="41.2178117" lon="0.7250083"><ele>567.0</ele><time>2026-03-31T08:20:39.164Z</time></trkpt><trkpt lat="41.217755" lon="0.7251583"><ele>567.0</ele><time>2026-03-31T08:20:40.165Z</time></trkpt><trkpt lat="41.21773" lon="0.725325"><ele>567.0</ele><time>2026-03-31T08:20:41.164Z</time></trkpt><trkpt lat="41.2177233" lon="0.72551"><ele>567.0</ele><time>2026-03-31T08:20:42.164Z</time></trkpt><trkpt lat="41.21772" lon="0.725705"><ele>564.6666666666666</ele><time>2026-03-31T08:20:43.164Z</time></trkpt><trkpt lat="41.2177083" lon="0.7259083"><ele>562.3333333333333</ele><time>2026-03-31T08:20:44.164Z</time></trkpt><trkpt lat="41.2176633" lon="0.7261183"><ele>560.0</ele><time>2026-03-31T08:20:45.165Z</time></trkpt><trkpt lat="41.2176233" lon="0.72632"><ele>557.3333333333333</ele><time>2026-03-31T08:20:46.164Z</time></trkpt><trkpt lat="41.2175733" lon="0.7265233"><ele>554.6666666666666</ele><time>2026-03-31T08:20:47.165Z</time></trkpt><trkpt lat="41.2175217" lon="0.7267283"><ele>552.0</ele><time>2026-03-31T08:20:48.165Z</time></trkpt><trkpt lat="41.217455" lon="0.7269133"><ele>549.75</ele><time>2026-03-31T08:20:49.164Z</time></trkpt><trkpt lat="41.2173833" lon="0.7270867"><ele>547.5</ele><time>2026-03-31T08:20:50.165Z</time></trkpt><trkpt lat="41.2173067" lon="0.7272517"><ele>545.25</ele><time>2026-03-31T08:20:51.164Z</time></trkpt><trkpt lat="41.217225" lon="0.7274017"><ele>543.0</ele><time>2026-03-31T08:20:52.164Z</time></trkpt><trkpt lat="41.2171417" lon="0.7275483"><ele>546.25</ele><time>2026-03-31T08:20:53.164Z</time></trkpt><trkpt lat="41.2170517" lon="0.7276917"><ele>549.5</ele><time>2026-03-31T08:20:54.164Z</time></trkpt><trkpt lat="41.21697" lon="0.7278367"><ele>552.75</ele><time>2026-03-31T08:20:55.165Z</time></trkpt><trkpt lat="41.216895" lon="0.72799"><ele>556.0</ele><time>2026-03-31T08:20:56.164Z</time></trkpt><trkpt lat="41.2168283" lon="0.728125"><ele>556.0</ele><time>2026-03-31T08:20:57.165Z</time></trkpt><trkpt lat="41.2167917" lon="0.7282567"><ele>556.0</ele><time>2026-03-31T08:20:58.164Z</time></trkpt><trkpt lat="41.2167733" lon="0.7283933"><ele>556.0</ele><time>2026-03-31T08:20:59.164Z</time></trkpt><trkpt lat="41.2167783" lon="0.7285333"><ele>556.0</ele><time>2026-03-31T08:21:00.165Z</time></trkpt><trkpt lat="41.2168017" lon="0.7286517"><ele>556.0</ele><time>2026-03-31T08:21:01.164Z</time></trkpt><trkpt lat="41.2168333" lon="0.72874"><ele>555.8</ele><time>2026-03-31T08:21:02.165Z</time></trkpt><trkpt lat="41.2168417" lon="0.7288633"><ele>555.6</ele><time>2026-03-31T08:21:04.165Z</time></trkpt><trkpt lat="41.2168167" lon="0.72898"><ele>555.4</ele><time>2026-03-31T08:22:19.164Z</time></trkpt><trkpt lat="41.2167733" lon="0.729115"><ele>555.2</ele><time>2026-03-31T08:22:21.164Z</time></trkpt><trkpt lat="41.216745" lon="0.7292183"><ele>555.0</ele><time>2026-03-31T08:22:22.164Z</time></trkpt><trkpt lat="41.2167083" lon="0.7293233"><ele>555.0</ele><time>2026-03-31T08:22:23.164Z</time></trkpt><trkpt lat="41.2166633" lon="0.7294183"><ele>555.0</ele><time>2026-03-31T08:22:24.165Z</time></trkpt><trkpt lat="41.21661" lon="0.72951"><ele>555.0</ele><time>2026-03-31T08:22:25.165Z</time></trkpt><trkpt lat="41.216545" lon="0.7295983"><ele>555.0</ele><time>2026-03-31T08:22:26.165Z</time></trkpt><trkpt lat="41.2164833" lon="0.729685"><ele>555.0</ele><time>2026-03-31T08:22:27.165Z</time></trkpt><trkpt lat="41.21643" lon="0.729765"><ele>555.0</ele><time>2026-03-31T08:22:28.164Z</time></trkpt><trkpt lat="41.2163717" lon="0.72984"><ele>555.0</ele><time>2026-03-31T08:22:29.165Z</time></trkpt><trkpt lat="41.2163017" lon="0.7298867"><ele>555.0</ele><time>2026-03-31T08:22:30.164Z</time></trkpt><trkpt lat="41.216215" lon="0.7299317"><ele>555.0</ele><time>2026-03-31T08:22:31.164Z</time></trkpt><trkpt lat="41.2161183" lon="0.7299583"><ele>555.0</ele><time>2026-03-31T08:22:32.165Z</time></trkpt><trkpt lat="41.21603" lon="0.7299867"><ele>555.0</ele><time>2026-03-31T08:22:33.165Z</time></trkpt><trkpt lat="41.2159467" lon="0.73004"><ele>555.0</ele><time>2026-03-31T08:22:34.164Z</time></trkpt><trkpt lat="41.2158883" lon="0.7301317"><ele>555.0</ele><time>2026-03-31T08:22:35.165Z</time></trkpt><trkpt lat="41.21584" lon="0.7302383"><ele>555.0</ele><time>2026-03-31T08:22:36.164Z</time></trkpt><trkpt lat="41.2157967" lon="0.73034"><ele>555.0</ele><time>2026-03-31T08:22:37.164Z</time></trkpt><trkpt lat="41.2157567" lon="0.7304433"><ele>555.0</ele><time>2026-03-31T08:22:38.165Z</time></trkpt><trkpt lat="41.2157083" lon="0.730535"><ele>555.0</ele><time>2026-03-31T08:22:39.164Z</time></trkpt><trkpt lat="41.2156517" lon="0.7306317"><ele>554.0</ele><time>2026-03-31T08:22:40.165Z</time></trkpt><trkpt lat="41.215595" lon="0.73073"><ele>553.0</ele><time>2026-03-31T08:22:41.164Z</time></trkpt><trkpt lat="41.2155383" lon="0.7308083"><ele>552.0</ele><time>2026-03-31T08:22:42.164Z</time></trkpt><trkpt lat="41.21547" lon="0.7308733"><ele>551.0</ele><time>2026-03-31T08:22:43.164Z</time></trkpt><trkpt lat="41.215405" lon="0.7309483"><ele>550.0</ele><time>2026-03-31T08:22:44.165Z</time></trkpt><trkpt lat="41.215335" lon="0.73103"><ele>549.0</ele><time>2026-03-31T08:22:45.164Z</time></trkpt><trkpt lat="41.2152733" lon="0.7311417"><ele>549.0</ele><time>2026-03-31T08:22:46.165Z</time></trkpt><trkpt lat="41.215235" lon="0.73126"><ele>549.0</ele><time>2026-03-31T08:22:47.164Z</time></trkpt><trkpt lat="41.2152133" lon="0.731355"><ele>549.0</ele><time>2026-03-31T08:22:48.164Z</time></trkpt><trkpt lat="41.215195" lon="0.7315133"><ele>549.0</ele><time>2026-03-31T08:22:50.164Z</time></trkpt><trkpt lat="41.2151933" lon="0.7316217"><ele>549.0</ele><time>2026-03-31T08:22:51.164Z</time></trkpt><trkpt lat="41.2151967" lon="0.731735"><ele>549.0</ele><time>2026-03-31T08:22:52.164Z</time></trkpt><trkpt lat="41.21519" lon="0.7318683"><ele>549.0</ele><time>2026-03-31T08:22:53.164Z</time></trkpt><trkpt lat="41.21518" lon="0.7319967"><ele>549.0</ele><time>2026-03-31T08:22:54.165Z</time></trkpt><trkpt lat="41.21518" lon="0.73213"><ele>549.0</ele><time>2026-03-31T08:22:55.165Z</time></trkpt><trkpt lat="41.2151717" lon="0.7322633"><ele>549.0</ele><time>2026-03-31T08:22:56.164Z</time></trkpt><trkpt lat="41.2151383" lon="0.7323683"><ele>549.2</ele><time>2026-03-31T08:22:57.165Z</time></trkpt><trkpt lat="41.2150967" lon="0.73246"><ele>549.4</ele><time>2026-03-31T08:22:58.164Z</time></trkpt><trkpt lat="41.2150367" lon="0.7325267"><ele>549.6</ele><time>2026-03-31T08:22:59.164Z</time></trkpt><trkpt lat="41.21495" lon="0.7325583"><ele>549.8</ele><time>2026-03-31T08:23:00.164Z</time></trkpt><trkpt lat="41.2148467" lon="0.7325683"><ele>550.0</ele><time>2026-03-31T08:23:01.165Z</time></trkpt><trkpt lat="41.21469" lon="0.732555"><ele>549.0</ele><time>2026-03-31T08:23:02.164Z</time></trkpt><trkpt lat="41.2145283" lon="0.732545"><ele>548.0</ele><time>2026-03-31T08:23:03.165Z</time></trkpt><trkpt lat="41.2143933" lon="0.73253"><ele>547.0</ele><time>2026-03-31T08:23:04.165Z</time></trkpt><trkpt lat="41.2142833" lon="0.73254"><ele>546.0</ele><time>2026-03-31T08:23:05.165Z</time></trkpt><trkpt lat="41.2141917" lon="0.7325933"><ele>546.0</ele><time>2026-03-31T08:23:06.165Z</time></trkpt><trkpt lat="41.2141183" lon="0.7327"><ele>546.0</ele><time>2026-03-31T08:23:07.165Z</time></trkpt><trkpt lat="41.21406" lon="0.732835"><ele>546.0</ele><time>2026-03-31T08:23:08.166Z</time></trkpt><trkpt lat="41.2140317" lon="0.7329967"><ele>546.0</ele><time>2026-03-31T08:23:09.166Z</time></trkpt><trkpt lat="41.2140067" lon="0.7331483"><ele>548.4</ele><time>2026-03-31T08:23:10.165Z</time></trkpt><trkpt lat="41.2139417" lon="0.73326"><ele>550.8</ele><time>2026-03-31T08:23:11.165Z</time></trkpt><trkpt lat="41.2138583" lon="0.7333267"><ele>553.1999999999999</ele><time>2026-03-31T08:23:12.165Z</time></trkpt><trkpt lat="41.2137667" lon="0.7333333"><ele>555.6</ele><time>2026-03-31T08:23:13.165Z</time></trkpt><trkpt lat="41.213685" lon="0.7332933"><ele>558.0</ele><time>2026-03-31T08:23:14.165Z</time></trkpt><trkpt lat="41.2136083" lon="0.7332133"><ele>558.0</ele><time>2026-03-31T08:23:15.166Z</time></trkpt><trkpt lat="41.213545" lon="0.7330883"><ele>558.0</ele><time>2026-03-31T08:23:16.166Z</time></trkpt><trkpt lat="41.2134967" lon="0.7329017"><ele>558.0</ele><time>2026-03-31T08:23:17.165Z</time></trkpt><trkpt lat="41.213435" lon="0.7327183"><ele>558.0</ele><time>2026-03-31T08:23:18.165Z</time></trkpt><trkpt lat="41.2133617" lon="0.732545"><ele>557.25</ele><time>2026-03-31T08:23:19.166Z</time></trkpt><trkpt lat="41.213285" lon="0.7323783"><ele>556.5</ele><time>2026-03-31T08:23:20.166Z</time></trkpt><trkpt lat="41.21321" lon="0.732215"><ele>555.75</ele><time>2026-03-31T08:23:21.165Z</time></trkpt><trkpt lat="41.2131367" lon="0.73208"><ele>555.0</ele><time>2026-03-31T08:23:22.165Z</time></trkpt><trkpt lat="41.2130583" lon="0.7319733"><ele>555.0</ele><time>2026-03-31T08:23:23.166Z</time></trkpt><trkpt lat="41.21295" lon="0.7319"><ele>555.0</ele><time>2026-03-31T08:23:24.166Z</time></trkpt><trkpt lat="41.2128233" lon="0.731875"><ele>555.0</ele><time>2026-03-31T08:23:25.165Z</time></trkpt><trkpt lat="41.2126867" lon="0.7318867"><ele>555.0</ele><time>2026-03-31T08:23:26.165Z</time></trkpt><trkpt lat="41.2125433" lon="0.7319033"><ele>555.0</ele><time>2026-03-31T08:23:27.165Z</time></trkpt><trkpt lat="41.2123883" lon="0.7319"><ele>555.0</ele><time>2026-03-31T08:23:28.166Z</time></trkpt><trkpt lat="41.2122317" lon="0.731875"><ele>555.0</ele><time>2026-03-31T08:23:29.165Z</time></trkpt><trkpt lat="41.2120717" lon="0.731835"><ele>549.0</ele><time>2026-03-31T08:23:30.165Z</time></trkpt><trkpt lat="41.2119017" lon="0.73179"><ele>543.0</ele><time>2026-03-31T08:23:31.165Z</time></trkpt><trkpt lat="41.2117383" lon="0.7317367"><ele>537.0</ele><time>2026-03-31T08:23:32.165Z</time></trkpt><trkpt lat="41.2115733" lon="0.7316917"><ele>538.0</ele><time>2026-03-31T08:23:33.166Z</time></trkpt><trkpt lat="41.2113983" lon="0.7316433"><ele>539.0</ele><time>2026-03-31T08:23:34.166Z</time></trkpt><trkpt lat="41.21123" lon="0.7315917"><ele>540.0</ele><time>2026-03-31T08:23:35.165Z</time></trkpt><trkpt lat="41.211075" lon="0.7315217"><ele>540.0</ele><time>2026-03-31T08:23:36.166Z</time></trkpt><trkpt lat="41.21092" lon="0.731415"><ele>540.0</ele><time>2026-03-31T08:23:37.165Z</time></trkpt><trkpt lat="41.2107733" lon="0.7312933"><ele>540.0</ele><time>2026-03-31T08:23:38.166Z</time></trkpt><trkpt lat="41.2106467" lon="0.731175"><ele>540.0</ele><time>2026-03-31T08:23:39.166Z</time></trkpt><trkpt lat="41.21054" lon="0.7310633"><ele>540.0</ele><time>2026-03-31T08:23:40.165Z</time></trkpt><trkpt lat="41.21044" lon="0.730965"><ele>540.0</ele><time>2026-03-31T08:23:41.166Z</time></trkpt><trkpt lat="41.2103233" lon="0.73093"><ele>540.0</ele><time>2026-03-31T08:23:42.165Z</time></trkpt><trkpt lat="41.210215" lon="0.73095"><ele>540.0</ele><time>2026-03-31T08:23:43.165Z</time></trkpt><trkpt lat="41.2101117" lon="0.7310283"><ele>540.0</ele><time>2026-03-31T08:23:44.166Z</time></trkpt><trkpt lat="41.21001" lon="0.73113"><ele>540.0</ele><time>2026-03-31T08:23:45.166Z</time></trkpt><trkpt lat="41.2098933" lon="0.7312317"><ele>540.0</ele><time>2026-03-31T08:23:46.165Z</time></trkpt><trkpt lat="41.2097667" lon="0.7313117"><ele>541.75</ele><time>2026-03-31T08:23:47.165Z</time></trkpt><trkpt lat="41.209635" lon="0.7313267"><ele>543.5</ele><time>2026-03-31T08:23:48.165Z</time></trkpt><trkpt lat="41.2094933" lon="0.73128"><ele>545.25</ele><time>2026-03-31T08:23:49.166Z</time></trkpt><trkpt lat="41.209345" lon="0.7311967"><ele>547.0</ele><time>2026-03-31T08:23:50.165Z</time></trkpt><trkpt lat="41.209185" lon="0.7311033"><ele>546.0</ele><time>2026-03-31T08:23:51.165Z</time></trkpt><trkpt lat="41.20903" lon="0.731015"><ele>545.0</ele><time>2026-03-31T08:23:52.165Z</time></trkpt><trkpt lat="41.2088867" lon="0.7309417"><ele>544.0</ele><time>2026-03-31T08:23:53.165Z</time></trkpt><trkpt lat="41.20875" lon="0.7308467"><ele>544.0</ele><time>2026-03-31T08:23:54.165Z</time></trkpt><trkpt lat="41.2086233" lon="0.7307167"><ele>544.0</ele><time>2026-03-31T08:23:55.165Z</time></trkpt><trkpt lat="41.208505" lon="0.73055"><ele>544.0</ele><time>2026-03-31T08:23:56.165Z</time></trkpt><trkpt lat="41.2083833" lon="0.7303733"><ele>542.6666666666667</ele><time>2026-03-31T08:23:57.166Z</time></trkpt><trkpt lat="41.2082683" lon="0.7301833"><ele>541.3333333333334</ele><time>2026-03-31T08:23:58.165Z</time></trkpt><trkpt lat="41.2081467" lon="0.7300033"><ele>540.0</ele><time>2026-03-31T08:23:59.165Z</time></trkpt><trkpt lat="41.2080217" lon="0.7298483"><ele>540.0</ele><time>2026-03-31T08:24:00.165Z</time></trkpt><trkpt lat="41.2079167" lon="0.7296933"><ele>540.0</ele><time>2026-03-31T08:24:01.165Z</time></trkpt><trkpt lat="41.207815" lon="0.7295433"><ele>540.0</ele><time>2026-03-31T08:24:02.166Z</time></trkpt><trkpt lat="41.20772" lon="0.7294067"><ele>540.0</ele><time>2026-03-31T08:24:03.166Z</time></trkpt><trkpt lat="41.2076183" lon="0.7293017"><ele>538.75</ele><time>2026-03-31T08:24:04.166Z</time></trkpt><trkpt lat="41.2074917" lon="0.72923"><ele>537.5</ele><time>2026-03-31T08:24:05.166Z</time></trkpt><trkpt lat="41.2073567" lon="0.72919"><ele>536.25</ele><time>2026-03-31T08:24:06.166Z</time></trkpt><trkpt lat="41.2072267" lon="0.729125"><ele>535.0</ele><time>2026-03-31T08:24:07.165Z</time></trkpt><trkpt lat="41.2070983" lon="0.7290283"><ele>535.0</ele><time>2026-03-31T08:24:08.166Z</time></trkpt><trkpt lat="41.2069717" lon="0.7288867"><ele>535.0</ele><time>2026-03-31T08:24:09.165Z</time></trkpt><trkpt lat="41.206855" lon="0.7287283"><ele>535.0</ele><time>2026-03-31T08:24:10.165Z</time></trkpt><trkpt lat="41.206755" lon="0.728555"><ele>532.3333333333334</ele><time>2026-03-31T08:24:11.165Z</time></trkpt><trkpt lat="41.20667" lon="0.728365"><ele>529.6666666666666</ele><time>2026-03-31T08:24:12.166Z</time></trkpt><trkpt lat="41.2066" lon="0.72818"><ele>527.0</ele><time>2026-03-31T08:24:13.165Z</time></trkpt><trkpt lat="41.2065417" lon="0.7280067"><ele>526.25</ele><time>2026-03-31T08:24:14.165Z</time></trkpt><trkpt lat="41.2064817" lon="0.7278483"><ele>525.5</ele><time>2026-03-31T08:24:15.166Z</time></trkpt><trkpt lat="41.206385" lon="0.72771"><ele>524.75</ele><time>2026-03-31T08:24:16.165Z</time></trkpt><trkpt lat="41.20627" lon="0.7275767"><ele>524.0</ele><time>2026-03-31T08:24:17.165Z</time></trkpt><trkpt lat="41.2061283" lon="0.7274567"><ele>524.0</ele><time>2026-03-31T08:24:18.166Z</time></trkpt><trkpt lat="41.205995" lon="0.7273367"><ele>524.0</ele><time>2026-03-31T08:24:19.166Z</time></trkpt><trkpt lat="41.205855" lon="0.72722"><ele>524.0</ele><time>2026-03-31T08:24:20.165Z</time></trkpt><trkpt lat="41.2057183" lon="0.7270933"><ele>524.6666666666666</ele><time>2026-03-31T08:24:21.165Z</time></trkpt><trkpt lat="41.205585" lon="0.72698"><ele>525.3333333333334</ele><time>2026-03-31T08:24:22.166Z</time></trkpt><trkpt lat="41.2054383" lon="0.72689"><ele>526.0</ele><time>2026-03-31T08:24:23.165Z</time></trkpt><trkpt lat="41.2052933" lon="0.72682"><ele>522.6666666666667</ele><time>2026-03-31T08:24:24.165Z</time></trkpt><trkpt lat="41.2051533" lon="0.7267167"><ele>519.3333333333334</ele><time>2026-03-31T08:24:25.165Z</time></trkpt><trkpt lat="41.2050283" lon="0.72659"><ele>516.0</ele><time>2026-03-31T08:24:26.165Z</time></trkpt><trkpt lat="41.2048983" lon="0.72643"><ele>513.6666666666666</ele><time>2026-03-31T08:24:27.165Z</time></trkpt><trkpt lat="41.20479" lon="0.726265"><ele>511.3333333333333</ele><time>2026-03-31T08:24:28.165Z</time></trkpt><trkpt lat="41.204685" lon="0.7261033"><ele>509.0</ele><time>2026-03-31T08:24:29.166Z</time></trkpt><trkpt lat="41.2045683" lon="0.7259583"><ele>509.0</ele><time>2026-03-31T08:24:30.165Z</time></trkpt><trkpt lat="41.204435" lon="0.7258133"><ele>509.0</ele><time>2026-03-31T08:24:31.165Z</time></trkpt><trkpt lat="41.2042967" lon="0.7256683"><ele>509.0</ele><time>2026-03-31T08:24:32.166Z</time></trkpt><trkpt lat="41.2041667" lon="0.7255317"><ele>509.0</ele><time>2026-03-31T08:24:33.165Z</time></trkpt><trkpt lat="41.20404" lon="0.72539"><ele>509.0</ele><time>2026-03-31T08:24:34.165Z</time></trkpt><trkpt lat="41.203915" lon="0.725255"><ele>509.0</ele><time>2026-03-31T08:24:35.165Z</time></trkpt><trkpt lat="41.20379" lon="0.7251467"><ele>506.0</ele><time>2026-03-31T08:24:36.166Z</time></trkpt><trkpt lat="41.2036567" lon="0.7250633"><ele>503.0</ele><time>2026-03-31T08:24:37.165Z</time></trkpt><trkpt lat="41.2035083" lon="0.7250017"><ele>500.0</ele><time>2026-03-31T08:24:38.165Z</time></trkpt><trkpt lat="41.2033517" lon="0.7249517"><ele>500.0</ele><time>2026-03-31T08:24:39.166Z</time></trkpt><trkpt lat="41.2031917" lon="0.72493"><ele>500.0</ele><time>2026-03-31T08:24:40.165Z</time></trkpt><trkpt lat="41.203035" lon="0.72492"><ele>500.0</ele><time>2026-03-31T08:24:41.166Z</time></trkpt><trkpt lat="41.202885" lon="0.724915"><ele>498.0</ele><time>2026-03-31T08:24:42.165Z</time></trkpt><trkpt lat="41.2027433" lon="0.7249033"><ele>496.0</ele><time>2026-03-31T08:24:43.166Z</time></trkpt><trkpt lat="41.2026083" lon="0.7248767"><ele>494.0</ele><time>2026-03-31T08:24:44.166Z</time></trkpt><trkpt lat="41.2024867" lon="0.7248"><ele>492.0</ele><time>2026-03-31T08:24:45.165Z</time></trkpt><trkpt lat="41.2023783" lon="0.7246783"><ele>491.0</ele><time>2026-03-31T08:24:46.166Z</time></trkpt><trkpt lat="41.2022833" lon="0.7245217"><ele>490.0</ele><time>2026-03-31T08:24:47.166Z</time></trkpt><trkpt lat="41.2021917" lon="0.724355"><ele>489.0</ele><time>2026-03-31T08:24:48.166Z</time></trkpt><trkpt lat="41.202105" lon="0.7241783"><ele>489.0</ele><time>2026-03-31T08:24:49.165Z</time></trkpt><trkpt lat="41.202005" lon="0.7240217"><ele>489.0</ele><time>2026-03-31T08:24:50.165Z</time></trkpt><trkpt lat="41.2018983" lon="0.7238883"><ele>489.0</ele><time>2026-03-31T08:24:51.165Z</time></trkpt><trkpt lat="41.2017767" lon="0.72376"><ele>489.0</ele><time>2026-03-31T08:24:52.166Z</time></trkpt><trkpt lat="41.2016617" lon="0.7236467"><ele>489.0</ele><time>2026-03-31T08:24:53.166Z</time></trkpt><trkpt lat="41.2015367" lon="0.7235183"><ele>489.0</ele><time>2026-03-31T08:24:54.165Z</time></trkpt><trkpt lat="41.2014067" lon="0.7233817"><ele>488.33333333333337</ele><time>2026-03-31T08:24:55.165Z</time></trkpt><trkpt lat="41.2012867" lon="0.7232633"><ele>487.6666666666667</ele><time>2026-03-31T08:24:56.166Z</time></trkpt><trkpt lat="41.2011667" lon="0.7231317"><ele>487.0</ele><time>2026-03-31T08:24:57.165Z</time></trkpt><trkpt lat="41.2010417" lon="0.7229917"><ele>487.0</ele><time>2026-03-31T08:24:58.165Z</time></trkpt><trkpt lat="41.2008933" lon="0.722875"><ele>487.0</ele><time>2026-03-31T08:24:59.166Z</time></trkpt><trkpt lat="41.20074" lon="0.7227683"><ele>487.0</ele><time>2026-03-31T08:25:00.166Z</time></trkpt><trkpt lat="41.2005783" lon="0.7226683"><ele>483.0</ele><time>2026-03-31T08:25:01.165Z</time></trkpt><trkpt lat="41.2004233" lon="0.7225783"><ele>479.0</ele><time>2026-03-31T08:25:02.165Z</time></trkpt><trkpt lat="41.2002667" lon="0.7225"><ele>475.0</ele><time>2026-03-31T08:25:03.165Z</time></trkpt><trkpt lat="41.20011" lon="0.7224467"><ele>475.0</ele><time>2026-03-31T08:25:04.166Z</time></trkpt><trkpt lat="41.1999567" lon="0.722435"><ele>475.0</ele><time>2026-03-31T08:25:05.165Z</time></trkpt><trkpt lat="41.1997933" lon="0.722435"><ele>475.0</ele><time>2026-03-31T08:25:06.166Z</time></trkpt><trkpt lat="41.19962" lon="0.72239"><ele>474.0</ele><time>2026-03-31T08:25:07.165Z</time></trkpt><trkpt lat="41.1994633" lon="0.7222983"><ele>473.0</ele><time>2026-03-31T08:25:08.165Z</time></trkpt><trkpt lat="41.1993133" lon="0.7221683"><ele>472.0</ele><time>2026-03-31T08:25:09.166Z</time></trkpt><trkpt lat="41.1991733" lon="0.72203"><ele>471.0</ele><time>2026-03-31T08:25:10.165Z</time></trkpt><trkpt lat="41.1990467" lon="0.7218933"><ele>470.0</ele><time>2026-03-31T08:25:11.166Z</time></trkpt><trkpt lat="41.19895" lon="0.7217533"><ele>469.0</ele><time>2026-03-31T08:25:12.166Z</time></trkpt><trkpt lat="41.198885" lon="0.7215983"><ele>468.0</ele><time>2026-03-31T08:25:13.165Z</time></trkpt><trkpt lat="41.1988617" lon="0.7214383"><ele>468.0</ele><time>2026-03-31T08:25:14.166Z</time></trkpt><trkpt lat="41.1988667" lon="0.7212667"><ele>468.0</ele><time>2026-03-31T08:25:15.166Z</time></trkpt><trkpt lat="41.19889" lon="0.7211017"><ele>468.0</ele><time>2026-03-31T08:25:16.165Z</time></trkpt><trkpt lat="41.1988967" lon="0.7209233"><ele>468.0</ele><time>2026-03-31T08:25:17.165Z</time></trkpt><trkpt lat="41.1988783" lon="0.7207583"><ele>467.5</ele><time>2026-03-31T08:25:18.165Z</time></trkpt><trkpt lat="41.19882" lon="0.7206033"><ele>467.0</ele><time>2026-03-31T08:25:19.165Z</time></trkpt><trkpt lat="41.1987183" lon="0.72047"><ele>466.5</ele><time>2026-03-31T08:25:20.166Z</time></trkpt><trkpt lat="41.1985917" lon="0.7203733"><ele>466.0</ele><time>2026-03-31T08:25:21.166Z</time></trkpt><trkpt lat="41.1984433" lon="0.7203"><ele>466.0</ele><time>2026-03-31T08:25:22.166Z</time></trkpt><trkpt lat="41.1982867" lon="0.720245"><ele>466.0</ele><time>2026-03-31T08:25:23.165Z</time></trkpt><trkpt lat="41.1981383" lon="0.720165"><ele>466.0</ele><time>2026-03-31T08:25:24.165Z</time></trkpt><trkpt lat="41.1979933" lon="0.7200517"><ele>465.0</ele><time>2026-03-31T08:25:25.165Z</time></trkpt><trkpt lat="41.1978483" lon="0.7199167"><ele>464.0</ele><time>2026-03-31T08:25:26.166Z</time></trkpt><trkpt lat="41.1977233" lon="0.7197617"><ele>463.0</ele><time>2026-03-31T08:25:27.165Z</time></trkpt><trkpt lat="41.1976133" lon="0.7195817"><ele>457.0</ele><time>2026-03-31T08:25:28.165Z</time></trkpt><trkpt lat="41.1975167" lon="0.7193783"><ele>451.0</ele><time>2026-03-31T08:25:29.165Z</time></trkpt><trkpt lat="41.1974383" lon="0.7191533"><ele>445.0</ele><time>2026-03-31T08:25:30.166Z</time></trkpt><trkpt lat="41.1973817" lon="0.718945"><ele>444.6666666666667</ele><time>2026-03-31T08:25:31.166Z</time></trkpt><trkpt lat="41.197335" lon="0.718735"><ele>444.33333333333337</ele><time>2026-03-31T08:25:32.166Z</time></trkpt><trkpt lat="41.1972917" lon="0.7185367"><ele>444.0</ele><time>2026-03-31T08:25:33.166Z</time></trkpt><trkpt lat="41.19723" lon="0.71836"><ele>444.0</ele><time>2026-03-31T08:25:34.166Z</time></trkpt><trkpt lat="41.1971517" lon="0.7182"><ele>444.0</ele><time>2026-03-31T08:25:35.165Z</time></trkpt><trkpt lat="41.1970483" lon="0.7180667"><ele>444.0</ele><time>2026-03-31T08:25:36.166Z</time></trkpt><trkpt lat="41.1969267" lon="0.7179883"><ele>444.0</ele><time>2026-03-31T08:25:37.165Z</time></trkpt><trkpt lat="41.1968" lon="0.7179717"><ele>444.0</ele><time>2026-03-31T08:25:38.165Z</time></trkpt><trkpt lat="41.1966633" lon="0.718015"><ele>444.0</ele><time>2026-03-31T08:25:39.165Z</time></trkpt><trkpt lat="41.1965233" lon="0.7180633"><ele>444.0</ele><time>2026-03-31T08:25:40.165Z</time></trkpt><trkpt lat="41.19638" lon="0.718085"><ele>444.0</ele><time>2026-03-31T08:25:41.166Z</time></trkpt><trkpt lat="41.1962517" lon="0.718035"><ele>443.0</ele><time>2026-03-31T08:25:42.166Z</time></trkpt><trkpt lat="41.1961183" lon="0.717935"><ele>442.0</ele><time>2026-03-31T08:25:43.165Z</time></trkpt><trkpt lat="41.1959967" lon="0.7178033"><ele>441.0</ele><time>2026-03-31T08:25:44.165Z</time></trkpt><trkpt lat="41.19587" lon="0.71766"><ele>437.0</ele><time>2026-03-31T08:25:45.165Z</time></trkpt><trkpt lat="41.1957367" lon="0.7175483"><ele>433.0</ele><time>2026-03-31T08:25:46.166Z</time></trkpt><trkpt lat="41.1955867" lon="0.71746"><ele>429.0</ele><time>2026-03-31T08:25:47.166Z</time></trkpt><trkpt lat="41.195415" lon="0.7173733"><ele>429.0</ele><time>2026-03-31T08:25:48.165Z</time></trkpt><trkpt lat="41.1952333" lon="0.7172817"><ele>429.0</ele><time>2026-03-31T08:25:49.165Z</time></trkpt><trkpt lat="41.1950533" lon="0.7171867"><ele>429.0</ele><time>2026-03-31T08:25:50.166Z</time></trkpt><trkpt lat="41.194875" lon="0.717095"><ele>427.66666666666663</ele><time>2026-03-31T08:25:51.165Z</time></trkpt><trkpt lat="41.1947083" lon="0.71701"><ele>426.3333333333333</ele><time>2026-03-31T08:25:52.166Z</time></trkpt><trkpt lat="41.1945417" lon="0.7169217"><ele>425.0</ele><time>2026-03-31T08:25:53.165Z</time></trkpt><trkpt lat="41.19438" lon="0.71683"><ele>425.0</ele><time>2026-03-31T08:25:54.165Z</time></trkpt><trkpt lat="41.194225" lon="0.7167783"><ele>425.0</ele><time>2026-03-31T08:25:55.166Z</time></trkpt><trkpt lat="41.1940683" lon="0.7167767"><ele>425.0</ele><time>2026-03-31T08:25:56.165Z</time></trkpt><trkpt lat="41.193905" lon="0.7168167"><ele>422.3333333333333</ele><time>2026-03-31T08:25:57.165Z</time></trkpt><trkpt lat="41.19374" lon="0.7168783"><ele>419.66666666666663</ele><time>2026-03-31T08:25:58.165Z</time></trkpt><trkpt lat="41.1935833" lon="0.7169333"><ele>417.0</ele><time>2026-03-31T08:25:59.165Z</time></trkpt><trkpt lat="41.193435" lon="0.716965"><ele>416.0</ele><time>2026-03-31T08:26:00.165Z</time></trkpt><trkpt lat="41.1933017" lon="0.7169833"><ele>415.0</ele><time>2026-03-31T08:26:01.165Z</time></trkpt><trkpt lat="41.1931817" lon="0.71696"><ele>414.0</ele><time>2026-03-31T08:26:02.165Z</time></trkpt><trkpt lat="41.1930717" lon="0.7168817"><ele>413.0</ele><time>2026-03-31T08:26:03.165Z</time></trkpt><trkpt lat="41.1929683" lon="0.716745"><ele>411.5</ele><time>2026-03-31T08:26:04.165Z</time></trkpt><trkpt lat="41.1928717" lon="0.7165983"><ele>410.0</ele><time>2026-03-31T08:26:05.165Z</time></trkpt><trkpt lat="41.1927583" lon="0.7164667"><ele>408.5</ele><time>2026-03-31T08:26:06.166Z</time></trkpt><trkpt lat="41.1926417" lon="0.7163767"><ele>407.0</ele><time>2026-03-31T08:26:07.166Z</time></trkpt><trkpt lat="41.1925117" lon="0.7163517"><ele>407.0</ele><time>2026-03-31T08:26:08.165Z</time></trkpt><trkpt lat="41.1923633" lon="0.7164017"><ele>407.0</ele><time>2026-03-31T08:26:09.165Z</time></trkpt><trkpt lat="41.192215" lon="0.716465"><ele>407.0</ele><time>2026-03-31T08:26:10.166Z</time></trkpt><trkpt lat="41.1920583" lon="0.7164983"><ele>405.66666666666663</ele><time>2026-03-31T08:26:11.165Z</time></trkpt><trkpt lat="41.191895" lon="0.7164917"><ele>404.33333333333337</ele><time>2026-03-31T08:26:12.166Z</time></trkpt><trkpt lat="41.1917283" lon="0.7164967"><ele>403.0</ele><time>2026-03-31T08:26:13.166Z</time></trkpt><trkpt lat="41.1915667" lon="0.7165483"><ele>404.6666666666667</ele><time>2026-03-31T08:26:14.166Z</time></trkpt><trkpt lat="41.191405" lon="0.71665"><ele>406.33333333333337</ele><time>2026-03-31T08:26:15.165Z</time></trkpt><trkpt lat="41.1912533" lon="0.716775"><ele>408.0</ele><time>2026-03-31T08:26:16.166Z</time></trkpt><trkpt lat="41.19111" lon="0.7168983"><ele>402.0</ele><time>2026-03-31T08:26:17.165Z</time></trkpt><trkpt lat="41.1909567" lon="0.7170067"><ele>396.0</ele><time>2026-03-31T08:26:18.166Z</time></trkpt><trkpt lat="41.1908067" lon="0.71711"><ele>390.0</ele><time>2026-03-31T08:26:19.166Z</time></trkpt><trkpt lat="41.190655" lon="0.7171983"><ele>388.0</ele><time>2026-03-31T08:26:20.165Z</time></trkpt><trkpt lat="41.190495" lon="0.717275"><ele>386.0</ele><time>2026-03-31T08:26:21.165Z</time></trkpt><trkpt lat="41.1903317" lon="0.7173467"><ele>384.0</ele><time>2026-03-31T08:26:22.166Z</time></trkpt><trkpt lat="41.1901833" lon="0.7174067"><ele>384.0</ele><time>2026-03-31T08:26:23.166Z</time></trkpt><trkpt lat="41.1900467" lon="0.71745"><ele>384.0</ele><time>2026-03-31T08:26:24.165Z</time></trkpt><trkpt lat="41.1899067" lon="0.717475"><ele>384.0</ele><time>2026-03-31T08:26:25.166Z</time></trkpt><trkpt lat="41.1897633" lon="0.7174667"><ele>384.0</ele><time>2026-03-31T08:26:26.165Z</time></trkpt><trkpt lat="41.1896183" lon="0.717425"><ele>378.6666666666667</ele><time>2026-03-31T08:26:27.165Z</time></trkpt><trkpt lat="41.18948" lon="0.7173483"><ele>373.33333333333337</ele><time>2026-03-31T08:26:28.165Z</time></trkpt><trkpt lat="41.1893383" lon="0.71723"><ele>368.0</ele><time>2026-03-31T08:26:29.165Z</time></trkpt><trkpt lat="41.189215" lon="0.7170767"><ele>366.33333333333337</ele><time>2026-03-31T08:26:30.165Z</time></trkpt><trkpt lat="41.189115" lon="0.7168967"><ele>364.6666666666667</ele><time>2026-03-31T08:26:31.165Z</time></trkpt><trkpt lat="41.18903" lon="0.71669"><ele>363.0</ele><time>2026-03-31T08:26:32.166Z</time></trkpt><trkpt lat="41.188955" lon="0.7164667"><ele>363.0</ele><time>2026-03-31T08:26:33.166Z</time></trkpt><trkpt lat="41.1888833" lon="0.71626"><ele>363.0</ele><time>2026-03-31T08:26:34.165Z</time></trkpt><trkpt lat="41.1888083" lon="0.7160583"><ele>363.0</ele><time>2026-03-31T08:26:35.165Z</time></trkpt><trkpt lat="41.188715" lon="0.7158683"><ele>363.6666666666667</ele><time>2026-03-31T08:26:36.166Z</time></trkpt><trkpt lat="41.188595" lon="0.715715"><ele>364.33333333333337</ele><time>2026-03-31T08:26:37.165Z</time></trkpt><trkpt lat="41.1884467" lon="0.7156"><ele>365.0</ele><time>2026-03-31T08:26:38.165Z</time></trkpt><trkpt lat="41.1882967" lon="0.7155133"><ele>361.0</ele><time>2026-03-31T08:26:39.165Z</time></trkpt><trkpt lat="41.188165" lon="0.715445"><ele>357.0</ele><time>2026-03-31T08:26:40.166Z</time></trkpt><trkpt lat="41.1880567" lon="0.71534"><ele>353.0</ele><time>2026-03-31T08:26:41.165Z</time></trkpt><trkpt lat="41.187965" lon="0.7152017"><ele>349.0</ele><time>2026-03-31T08:26:42.165Z</time></trkpt><trkpt lat="41.1879" lon="0.71505"><ele>349.0</ele><time>2026-03-31T08:26:43.165Z</time></trkpt><trkpt lat="41.187845" lon="0.714865"><ele>349.0</ele><time>2026-03-31T08:26:44.166Z</time></trkpt><trkpt lat="41.1877917" lon="0.7146733"><ele>349.0</ele><time>2026-03-31T08:26:45.165Z</time></trkpt><trkpt lat="41.1877067" lon="0.7145017"><ele>351.0</ele><time>2026-03-31T08:26:46.165Z</time></trkpt><trkpt lat="41.187605" lon="0.7143517"><ele>353.0</ele><time>2026-03-31T08:26:47.165Z</time></trkpt><trkpt lat="41.1875217" lon="0.7142317"><ele>355.0</ele><time>2026-03-31T08:26:48.166Z</time></trkpt><trkpt lat="41.1874433" lon="0.7140917"><ele>357.0</ele><time>2026-03-31T08:26:49.165Z</time></trkpt><trkpt lat="41.187395" lon="0.713955"><ele>357.0</ele><time>2026-03-31T08:26:50.165Z</time></trkpt><trkpt lat="41.18732" lon="0.7138517"><ele>357.0</ele><time>2026-03-31T08:26:51.165Z</time></trkpt><trkpt lat="41.1872317" lon="0.7137883"><ele>357.0</ele><time>2026-03-31T08:26:52.165Z</time></trkpt><trkpt lat="41.187115" lon="0.7138167"><ele>357.0</ele><time>2026-03-31T08:26:53.166Z</time></trkpt><trkpt lat="41.1869933" lon="0.7139083"><ele>357.0</ele><time>2026-03-31T08:26:54.166Z</time></trkpt><trkpt lat="41.1868783" lon="0.7140333"><ele>357.0</ele><time>2026-03-31T08:26:55.166Z</time></trkpt><trkpt lat="41.1867683" lon="0.7141617"><ele>357.0</ele><time>2026-03-31T08:26:56.166Z</time></trkpt><trkpt lat="41.186675" lon="0.71431"><ele>357.0</ele><time>2026-03-31T08:26:57.165Z</time></trkpt><trkpt lat="41.1865833" lon="0.7144417"><ele>351.0</ele><time>2026-03-31T08:26:58.165Z</time></trkpt><trkpt lat="41.18648" lon="0.71452"><ele>345.0</ele><time>2026-03-31T08:26:59.165Z</time></trkpt><trkpt lat="41.1863567" lon="0.71456"><ele>339.0</ele><time>2026-03-31T08:27:00.166Z</time></trkpt><trkpt lat="41.186235" lon="0.7145667"><ele>333.0</ele><time>2026-03-31T08:27:01.165Z</time></trkpt><trkpt lat="41.186125" lon="0.71453"><ele>333.0</ele><time>2026-03-31T08:27:02.165Z</time></trkpt><trkpt lat="41.1860067" lon="0.71444"><ele>333.0</ele><time>2026-03-31T08:27:03.165Z</time></trkpt><trkpt lat="41.185905" lon="0.7143083"><ele>333.0</ele><time>2026-03-31T08:27:04.165Z</time></trkpt><trkpt lat="41.1858183" lon="0.71415"><ele>333.0</ele><time>2026-03-31T08:27:05.165Z</time></trkpt><trkpt lat="41.1857317" lon="0.7139683"><ele>329.3333333333333</ele><time>2026-03-31T08:27:06.165Z</time></trkpt><trkpt lat="41.1856517" lon="0.7137733"><ele>325.66666666666663</ele><time>2026-03-31T08:27:07.165Z</time></trkpt><trkpt lat="41.185575" lon="0.713585"><ele>322.0</ele><time>2026-03-31T08:27:08.166Z</time></trkpt><trkpt lat="41.1855017" lon="0.71341"><ele>322.0</ele><time>2026-03-31T08:27:09.165Z</time></trkpt><trkpt lat="41.1854467" lon="0.7132583"><ele>322.0</ele><time>2026-03-31T08:27:10.165Z</time></trkpt><trkpt lat="41.1854167" lon="0.7130917"><ele>322.0</ele><time>2026-03-31T08:27:11.165Z</time></trkpt><trkpt lat="41.1854317" lon="0.7129233"><ele>322.0</ele><time>2026-03-31T08:27:12.165Z</time></trkpt><trkpt lat="41.1854683" lon="0.7127567"><ele>324.6</ele><time>2026-03-31T08:27:13.165Z</time></trkpt><trkpt lat="41.18553" lon="0.7126017"><ele>327.20000000000005</ele><time>2026-03-31T08:27:14.166Z</time></trkpt><trkpt lat="41.1855667" lon="0.7124633"><ele>329.8</ele><time>2026-03-31T08:27:15.165Z</time></trkpt><trkpt lat="41.1855767" lon="0.71232"><ele>332.4</ele><time>2026-03-31T08:27:16.166Z</time></trkpt><trkpt lat="41.1855433" lon="0.7121967"><ele>335.0</ele><time>2026-03-31T08:27:17.166Z</time></trkpt><trkpt lat="41.1854717" lon="0.7121083"><ele>335.0</ele><time>2026-03-31T08:27:18.166Z</time></trkpt><trkpt lat="41.1853817" lon="0.7120717"><ele>335.0</ele><time>2026-03-31T08:27:19.165Z</time></trkpt><trkpt lat="41.1852817" lon="0.71209"><ele>335.0</ele><time>2026-03-31T08:27:20.166Z</time></trkpt><trkpt lat="41.18518" lon="0.7121533"><ele>335.0</ele><time>2026-03-31T08:27:21.165Z</time></trkpt><trkpt lat="41.1850767" lon="0.71228"><ele>335.0</ele><time>2026-03-31T08:27:22.166Z</time></trkpt><trkpt lat="41.1849783" lon="0.712475"><ele>335.0</ele><time>2026-03-31T08:27:23.165Z</time></trkpt><trkpt lat="41.18487" lon="0.7126783"><ele>335.0</ele><time>2026-03-31T08:27:24.165Z</time></trkpt><trkpt lat="41.1847717" lon="0.71287"><ele>335.0</ele><time>2026-03-31T08:27:25.165Z</time></trkpt><trkpt lat="41.1846783" lon="0.713055"><ele>333.6666666666667</ele><time>2026-03-31T08:27:26.166Z</time></trkpt><trkpt lat="41.1845967" lon="0.713245"><ele>332.3333333333333</ele><time>2026-03-31T08:27:27.166Z</time></trkpt><trkpt lat="41.1845217" lon="0.713425"><ele>331.0</ele><time>2026-03-31T08:27:28.166Z</time></trkpt><trkpt lat="41.1844217" lon="0.7135833"><ele>328.5</ele><time>2026-03-31T08:27:29.166Z</time></trkpt><trkpt lat="41.1843167" lon="0.7137183"><ele>326.0</ele><time>2026-03-31T08:27:30.165Z</time></trkpt><trkpt lat="41.18421" lon="0.713825"><ele>323.5</ele><time>2026-03-31T08:27:31.166Z</time></trkpt><trkpt lat="41.18408" lon="0.7138983"><ele>321.0</ele><time>2026-03-31T08:27:32.165Z</time></trkpt><trkpt lat="41.1839383" lon="0.713945"><ele>321.0</ele><time>2026-03-31T08:27:33.166Z</time></trkpt><trkpt lat="41.1837833" lon="0.7139733"><ele>321.0</ele><time>2026-03-31T08:27:34.165Z</time></trkpt><trkpt lat="41.1836167" lon="0.7140233"><ele>321.0</ele><time>2026-03-31T08:27:35.166Z</time></trkpt><trkpt lat="41.1834633" lon="0.7141067"><ele>321.0</ele><time>2026-03-31T08:27:36.166Z</time></trkpt><trkpt lat="41.1833067" lon="0.7141883"><ele>321.0</ele><time>2026-03-31T08:27:37.166Z</time></trkpt><trkpt lat="41.183155" lon="0.7142383"><ele>321.0</ele><time>2026-03-31T08:27:38.165Z</time></trkpt><trkpt lat="41.1829983" lon="0.71426"><ele>320.6666666666667</ele><time>2026-03-31T08:27:39.166Z</time></trkpt><trkpt lat="41.1828317" lon="0.7142617"><ele>320.33333333333337</ele><time>2026-03-31T08:27:40.165Z</time></trkpt><trkpt lat="41.1826567" lon="0.71423"><ele>320.0</ele><time>2026-03-31T08:27:41.166Z</time></trkpt><trkpt lat="41.1824833" lon="0.7141867"><ele>318.0</ele><time>2026-03-31T08:27:42.165Z</time></trkpt><trkpt lat="41.1822967" lon="0.7141483"><ele>316.0</ele><time>2026-03-31T08:27:43.165Z</time></trkpt><trkpt lat="41.1821233" lon="0.7141283"><ele>314.0</ele><time>2026-03-31T08:27:44.166Z</time></trkpt><trkpt lat="41.1819417" lon="0.7141117"><ele>314.0</ele><time>2026-03-31T08:27:45.165Z</time></trkpt><trkpt lat="41.1817417" lon="0.7140733"><ele>314.0</ele><time>2026-03-31T08:27:46.165Z</time></trkpt><trkpt lat="41.1815483" lon="0.7140283"><ele>314.0</ele><time>2026-03-31T08:27:47.165Z</time></trkpt><trkpt lat="41.1813517" lon="0.7139717"><ele>309.0</ele><time>2026-03-31T08:27:48.166Z</time></trkpt><trkpt lat="41.181165" lon="0.7139183"><ele>304.0</ele><time>2026-03-31T08:27:49.165Z</time></trkpt><trkpt lat="41.1809883" lon="0.7138517"><ele>299.0</ele><time>2026-03-31T08:27:50.165Z</time></trkpt><trkpt lat="41.1808167" lon="0.7137717"><ele>297.33333333333337</ele><time>2026-03-31T08:27:51.165Z</time></trkpt><trkpt lat="41.18065" lon="0.7136717"><ele>295.6666666666667</ele><time>2026-03-31T08:27:52.165Z</time></trkpt><trkpt lat="41.180505" lon="0.7135617"><ele>294.0</ele><time>2026-03-31T08:27:53.165Z</time></trkpt><trkpt lat="41.1803683" lon="0.71344"><ele>297.3333333333333</ele><time>2026-03-31T08:27:54.165Z</time></trkpt><trkpt lat="41.1802433" lon="0.7132917"><ele>300.66666666666663</ele><time>2026-03-31T08:27:55.165Z</time></trkpt><trkpt lat="41.1801267" lon="0.7130983"><ele>304.0</ele><time>2026-03-31T08:27:56.165Z</time></trkpt><trkpt lat="41.1800133" lon="0.712895"><ele>306.3333333333333</ele><time>2026-03-31T08:27:57.165Z</time></trkpt><trkpt lat="41.1799" lon="0.7127"><ele>308.6666666666667</ele><time>2026-03-31T08:27:58.166Z</time></trkpt><trkpt lat="41.1798067" lon="0.7125217"><ele>311.0</ele><time>2026-03-31T08:27:59.166Z</time></trkpt><trkpt lat="41.17972" lon="0.712325"><ele>305.33333333333337</ele><time>2026-03-31T08:28:00.166Z</time></trkpt><trkpt lat="41.1796433" lon="0.7121117"><ele>299.6666666666667</ele><time>2026-03-31T08:28:01.165Z</time></trkpt><trkpt lat="41.1795783" lon="0.7118983"><ele>294.0</ele><time>2026-03-31T08:28:02.166Z</time></trkpt><trkpt lat="41.1795117" lon="0.7117"><ele>294.0</ele><time>2026-03-31T08:28:03.165Z</time></trkpt><trkpt lat="41.1793967" lon="0.7115367"><ele>294.0</ele><time>2026-03-31T08:28:04.166Z</time></trkpt><trkpt lat="41.1792583" lon="0.7114083"><ele>294.0</ele><time>2026-03-31T08:28:05.165Z</time></trkpt><trkpt lat="41.1790983" lon="0.7113033"><ele>293.0</ele><time>2026-03-31T08:28:06.165Z</time></trkpt><trkpt lat="41.1789217" lon="0.711215"><ele>292.0</ele><time>2026-03-31T08:28:07.166Z</time></trkpt><trkpt lat="41.1787483" lon="0.7111333"><ele>291.0</ele><time>2026-03-31T08:28:08.165Z</time></trkpt><trkpt lat="41.1785833" lon="0.71102"><ele>291.0</ele><time>2026-03-31T08:28:09.165Z</time></trkpt><trkpt lat="41.17842" lon="0.71087"><ele>291.0</ele><time>2026-03-31T08:28:10.166Z</time></trkpt><trkpt lat="41.178255" lon="0.7107167"><ele>291.0</ele><time>2026-03-31T08:28:11.166Z</time></trkpt><trkpt lat="41.1780917" lon="0.7105567"><ele>289.0</ele><time>2026-03-31T08:28:12.165Z</time></trkpt><trkpt lat="41.177935" lon="0.7104067"><ele>287.0</ele><time>2026-03-31T08:28:13.165Z</time></trkpt><trkpt lat="41.1777933" lon="0.7102633"><ele>285.0</ele><time>2026-03-31T08:28:14.165Z</time></trkpt><trkpt lat="41.1776517" lon="0.7101167"><ele>285.0</ele><time>2026-03-31T08:28:15.165Z</time></trkpt><trkpt lat="41.1775017" lon="0.70995"><ele>285.0</ele><time>2026-03-31T08:28:16.165Z</time></trkpt><trkpt lat="41.17736" lon="0.709755"><ele>285.0</ele><time>2026-03-31T08:28:17.166Z</time></trkpt><trkpt lat="41.177225" lon="0.7095633"><ele>281.75</ele><time>2026-03-31T08:28:18.166Z</time></trkpt><trkpt lat="41.1771" lon="0.7094117"><ele>278.5</ele><time>2026-03-31T08:28:19.165Z</time></trkpt><trkpt lat="41.1769933" lon="0.7092883"><ele>275.25</ele><time>2026-03-31T08:28:20.165Z</time></trkpt><trkpt lat="41.176895" lon="0.7091733"><ele>272.0</ele><time>2026-03-31T08:28:21.166Z</time></trkpt><trkpt lat="41.1768117" lon="0.7090583"><ele>272.0</ele><time>2026-03-31T08:28:22.165Z</time></trkpt><trkpt lat="41.176765" lon="0.7089233"><ele>272.0</ele><time>2026-03-31T08:28:23.165Z</time></trkpt><trkpt lat="41.176755" lon="0.7087933"><ele>272.0</ele><time>2026-03-31T08:28:24.165Z</time></trkpt><trkpt lat="41.1767967" lon="0.7086633"><ele>272.0</ele><time>2026-03-31T08:28:25.166Z</time></trkpt><trkpt lat="41.1768683" lon="0.7085283"><ele>272.0</ele><time>2026-03-31T08:28:26.165Z</time></trkpt><trkpt lat="41.1769667" lon="0.7084067"><ele>271.25</ele><time>2026-03-31T08:28:27.166Z</time></trkpt><trkpt lat="41.1770733" lon="0.7083"><ele>270.5</ele><time>2026-03-31T08:28:28.165Z</time></trkpt><trkpt lat="41.1771767" lon="0.7081783"><ele>269.75</ele><time>2026-03-31T08:28:29.166Z</time></trkpt><trkpt lat="41.177255" lon="0.7080433"><ele>269.0</ele><time>2026-03-31T08:28:30.165Z</time></trkpt><trkpt lat="41.17728" lon="0.7078967"><ele>269.75</ele><time>2026-03-31T08:28:31.166Z</time></trkpt><trkpt lat="41.1772767" lon="0.70774"><ele>270.5</ele><time>2026-03-31T08:28:32.165Z</time></trkpt><trkpt lat="41.1772217" lon="0.70761"><ele>271.25</ele><time>2026-03-31T08:28:33.165Z</time></trkpt><trkpt lat="41.1771267" lon="0.7075167"><ele>272.0</ele><time>2026-03-31T08:28:34.165Z</time></trkpt><trkpt lat="41.1770067" lon="0.70747"><ele>272.0</ele><time>2026-03-31T08:28:35.165Z</time></trkpt><trkpt lat="41.1768517" lon="0.7074383"><ele>272.0</ele><time>2026-03-31T08:28:36.165Z</time></trkpt><trkpt lat="41.1767" lon="0.7073967"><ele>272.0</ele><time>2026-03-31T08:28:37.166Z</time></trkpt><trkpt lat="41.176555" lon="0.7073533"><ele>268.5</ele><time>2026-03-31T08:28:38.166Z</time></trkpt><trkpt lat="41.1764283" lon="0.707295"><ele>265.0</ele><time>2026-03-31T08:28:39.166Z</time></trkpt><trkpt lat="41.17631" lon="0.7071967"><ele>261.5</ele><time>2026-03-31T08:28:40.165Z</time></trkpt><trkpt lat="41.1762117" lon="0.7070567"><ele>258.0</ele><time>2026-03-31T08:28:41.166Z</time></trkpt><trkpt lat="41.1761367" lon="0.7069067"><ele>258.0</ele><time>2026-03-31T08:28:42.165Z</time></trkpt><trkpt lat="41.17609" lon="0.7067367"><ele>258.0</ele><time>2026-03-31T08:28:43.166Z</time></trkpt><trkpt lat="41.1760733" lon="0.7065467"><ele>258.0</ele><time>2026-03-31T08:28:44.166Z</time></trkpt><trkpt lat="41.1760783" lon="0.706355"><ele>258.0</ele><time>2026-03-31T08:28:45.166Z</time></trkpt><trkpt lat="41.17609" lon="0.706185"><ele>258.75</ele><time>2026-03-31T08:28:46.166Z</time></trkpt><trkpt lat="41.176135" lon="0.70603"><ele>259.5</ele><time>2026-03-31T08:28:47.166Z</time></trkpt><trkpt lat="41.176205" lon="0.705895"><ele>260.25</ele><time>2026-03-31T08:28:48.165Z</time></trkpt><trkpt lat="41.1763017" lon="0.705785"><ele>261.0</ele><time>2026-03-31T08:28:49.165Z</time></trkpt><trkpt lat="41.1763867" lon="0.70568"><ele>261.0</ele><time>2026-03-31T08:28:50.166Z</time></trkpt><trkpt lat="41.1764483" lon="0.705565"><ele>261.0</ele><time>2026-03-31T08:28:51.165Z</time></trkpt><trkpt lat="41.1764783" lon="0.705425"><ele>261.0</ele><time>2026-03-31T08:28:52.166Z</time></trkpt><trkpt lat="41.1764733" lon="0.7052767"><ele>261.0</ele><time>2026-03-31T08:28:53.165Z</time></trkpt><trkpt lat="41.17643" lon="0.7051417"><ele>261.0</ele><time>2026-03-31T08:28:54.166Z</time></trkpt><trkpt lat="41.17635" lon="0.70506"><ele>265.25</ele><time>2026-03-31T08:28:55.165Z</time></trkpt><trkpt lat="41.1762617" lon="0.7050433"><ele>269.5</ele><time>2026-03-31T08:28:56.165Z</time></trkpt><trkpt lat="41.1761583" lon="0.7050717"><ele>273.75</ele><time>2026-03-31T08:28:57.165Z</time></trkpt><trkpt lat="41.1760333" lon="0.705135"><ele>278.0</ele><time>2026-03-31T08:28:58.165Z</time></trkpt><trkpt lat="41.1758733" lon="0.7052333"><ele>272.33333333333337</ele><time>2026-03-31T08:28:59.165Z</time></trkpt><trkpt lat="41.1757083" lon="0.70531"><ele>266.6666666666667</ele><time>2026-03-31T08:29:00.165Z</time></trkpt><trkpt lat="41.1755517" lon="0.7053667"><ele>261.0</ele><time>2026-03-31T08:29:01.166Z</time></trkpt><trkpt lat="41.1754033" lon="0.7054067"><ele>261.0</ele><time>2026-03-31T08:29:02.165Z</time></trkpt><trkpt lat="41.1752683" lon="0.705435"><ele>261.0</ele><time>2026-03-31T08:29:03.165Z</time></trkpt><trkpt lat="41.1751383" lon="0.7054267"><ele>261.0</ele><time>2026-03-31T08:29:04.166Z</time></trkpt><trkpt lat="41.17502" lon="0.7053833"><ele>261.0</ele><time>2026-03-31T08:29:05.166Z</time></trkpt><trkpt lat="41.1749017" lon="0.7053017"><ele>262.6666666666667</ele><time>2026-03-31T08:29:06.165Z</time></trkpt><trkpt lat="41.17478" lon="0.7052"><ele>264.33333333333337</ele><time>2026-03-31T08:29:07.165Z</time></trkpt><trkpt lat="41.1746417" lon="0.7051133"><ele>266.0</ele><time>2026-03-31T08:29:08.166Z</time></trkpt><trkpt lat="41.174495" lon="0.7050417"><ele>266.0</ele><time>2026-03-31T08:29:09.165Z</time></trkpt><trkpt lat="41.1743383" lon="0.705"><ele>266.0</ele><time>2026-03-31T08:29:10.166Z</time></trkpt><trkpt lat="41.1741833" lon="0.7049817"><ele>266.0</ele><time>2026-03-31T08:29:11.166Z</time></trkpt><trkpt lat="41.1740267" lon="0.704985"><ele>265.0</ele><time>2026-03-31T08:29:12.165Z</time></trkpt><trkpt lat="41.1738683" lon="0.7049967"><ele>264.0</ele><time>2026-03-31T08:29:13.166Z</time></trkpt><trkpt lat="41.1737233" lon="0.7049967"><ele>263.0</ele><time>2026-03-31T08:29:14.166Z</time></trkpt><trkpt lat="41.1735967" lon="0.7049617"><ele>262.0</ele><time>2026-03-31T08:29:15.166Z</time></trkpt><trkpt lat="41.173465" lon="0.7049133"><ele>262.0</ele><time>2026-03-31T08:29:16.165Z</time></trkpt><trkpt lat="41.1733483" lon="0.7049017"><ele>262.0</ele><time>2026-03-31T08:29:17.165Z</time></trkpt><trkpt lat="41.173245" lon="0.7049417"><ele>262.0</ele><time>2026-03-31T08:29:18.165Z</time></trkpt><trkpt lat="41.1731467" lon="0.7049883"><ele>262.0</ele><time>2026-03-31T08:29:19.165Z</time></trkpt><trkpt lat="41.1730433" lon="0.7049717"><ele>262.0</ele><time>2026-03-31T08:29:20.165Z</time></trkpt><trkpt lat="41.17296" lon="0.7048883"><ele>264.25</ele><time>2026-03-31T08:29:21.166Z</time></trkpt><trkpt lat="41.17288" lon="0.704775"><ele>266.5</ele><time>2026-03-31T08:29:22.165Z</time></trkpt><trkpt lat="41.1727967" lon="0.7046467"><ele>268.75</ele><time>2026-03-31T08:29:23.165Z</time></trkpt><trkpt lat="41.17269" lon="0.7045267"><ele>271.0</ele><time>2026-03-31T08:29:24.165Z</time></trkpt><trkpt lat="41.1725533" lon="0.70441"><ele>266.0</ele><time>2026-03-31T08:29:25.165Z</time></trkpt><trkpt lat="41.1724183" lon="0.7043067"><ele>261.0</ele><time>2026-03-31T08:29:26.165Z</time></trkpt><trkpt lat="41.1722733" lon="0.7042217"><ele>256.0</ele><time>2026-03-31T08:29:27.165Z</time></trkpt><trkpt lat="41.1721233" lon="0.7041667"><ele>256.0</ele><time>2026-03-31T08:29:28.166Z</time></trkpt><trkpt lat="41.1719733" lon="0.70415"><ele>256.0</ele><time>2026-03-31T08:29:29.165Z</time></trkpt><trkpt lat="41.1718317" lon="0.7041233"><ele>256.0</ele><time>2026-03-31T08:29:30.166Z</time></trkpt><trkpt lat="41.1717" lon="0.7040633"><ele>256.0</ele><time>2026-03-31T08:29:31.165Z</time></trkpt><trkpt lat="41.1715883" lon="0.7040017"><ele>254.20000000000002</ele><time>2026-03-31T08:29:32.166Z</time></trkpt><trkpt lat="41.1714883" lon="0.70397"><ele>252.40000000000003</ele><time>2026-03-31T08:29:33.165Z</time></trkpt><trkpt lat="41.1714033" lon="0.7039933"><ele>250.6</ele><time>2026-03-31T08:29:34.165Z</time></trkpt><trkpt lat="41.171325" lon="0.70408"><ele>248.8</ele><time>2026-03-31T08:29:35.165Z</time></trkpt><trkpt lat="41.1712417" lon="0.7041983"><ele>247.0</ele><time>2026-03-31T08:29:36.165Z</time></trkpt><trkpt lat="41.1711533" lon="0.704335"><ele>246.25</ele><time>2026-03-31T08:29:37.165Z</time></trkpt><trkpt lat="41.1710533" lon="0.7044217"><ele>245.5</ele><time>2026-03-31T08:29:38.165Z</time></trkpt><trkpt lat="41.1709167" lon="0.70445"><ele>244.75</ele><time>2026-03-31T08:29:39.166Z</time></trkpt><trkpt lat="41.1707667" lon="0.704435"><ele>244.0</ele><time>2026-03-31T08:29:40.165Z</time></trkpt><trkpt lat="41.1706217" lon="0.7044017"><ele>244.0</ele><time>2026-03-31T08:29:41.166Z</time></trkpt><trkpt lat="41.1704983" lon="0.7043783"><ele>243.99999999999997</ele><time>2026-03-31T08:29:42.165Z</time></trkpt><trkpt lat="41.1704017" lon="0.7044067"><ele>243.99999999999997</ele><time>2026-03-31T08:29:43.165Z</time></trkpt><trkpt lat="41.1703083" lon="0.704485"><ele>244.0</ele><time>2026-03-31T08:29:44.166Z</time></trkpt><trkpt lat="41.1702267" lon="0.70459"><ele>244.0</ele><time>2026-03-31T08:29:45.165Z</time></trkpt><trkpt lat="41.1701467" lon="0.7046717"><ele>244.2</ele><time>2026-03-31T08:29:46.165Z</time></trkpt><trkpt lat="41.1700583" lon="0.704695"><ele>244.39999999999998</ele><time>2026-03-31T08:29:47.165Z</time></trkpt><trkpt lat="41.1699767" lon="0.70467"><ele>244.6</ele><time>2026-03-31T08:29:48.165Z</time></trkpt><trkpt lat="41.169865" lon="0.704595"><ele>244.8</ele><time>2026-03-31T08:29:49.166Z</time></trkpt><trkpt lat="41.1697517" lon="0.7045083"><ele>245.0</ele><time>2026-03-31T08:29:50.165Z</time></trkpt><trkpt lat="41.1696117" lon="0.7044383"><ele>245.0</ele><time>2026-03-31T08:29:51.165Z</time></trkpt><trkpt lat="41.1694633" lon="0.704395"><ele>245.0</ele><time>2026-03-31T08:29:52.165Z</time></trkpt><trkpt lat="41.1693083" lon="0.7044"><ele>245.0</ele><time>2026-03-31T08:29:53.166Z</time></trkpt><trkpt lat="41.16915" lon="0.7044317"><ele>243.0</ele><time>2026-03-31T08:29:54.166Z</time></trkpt><trkpt lat="41.1689883" lon="0.7044683"><ele>241.0</ele><time>2026-03-31T08:29:55.165Z</time></trkpt><trkpt lat="41.1688333" lon="0.7045067"><ele>239.0</ele><time>2026-03-31T08:29:56.165Z</time></trkpt><trkpt lat="41.16867" lon="0.7045383"><ele>239.0</ele><time>2026-03-31T08:29:57.166Z</time></trkpt><trkpt lat="41.168505" lon="0.7045767"><ele>239.0</ele><time>2026-03-31T08:29:58.166Z</time></trkpt><trkpt lat="41.1683417" lon="0.7046133"><ele>239.0</ele><time>2026-03-31T08:29:59.166Z</time></trkpt><trkpt lat="41.1681767" lon="0.7046483"><ele>236.66666666666669</ele><time>2026-03-31T08:30:00.166Z</time></trkpt><trkpt lat="41.1680033" lon="0.704685"><ele>234.33333333333331</ele><time>2026-03-31T08:30:01.166Z</time></trkpt><trkpt lat="41.16783" lon="0.7047267"><ele>232.0</ele><time>2026-03-31T08:30:02.166Z</time></trkpt><trkpt lat="41.167655" lon="0.7047583"><ele>232.0</ele><time>2026-03-31T08:30:03.166Z</time></trkpt><trkpt lat="41.1674867" lon="0.7047917"><ele>232.0</ele><time>2026-03-31T08:30:04.166Z</time></trkpt><trkpt lat="41.16732" lon="0.7048267"><ele>232.0</ele><time>2026-03-31T08:30:05.165Z</time></trkpt><trkpt lat="41.1671633" lon="0.704865"><ele>231.0</ele><time>2026-03-31T08:30:06.165Z</time></trkpt><trkpt lat="41.1670133" lon="0.7049033"><ele>230.0</ele><time>2026-03-31T08:30:07.165Z</time></trkpt><trkpt lat="41.1668717" lon="0.7049367"><ele>229.0</ele><time>2026-03-31T08:30:08.165Z</time></trkpt><trkpt lat="41.1667467" lon="0.7049533"><ele>228.0</ele><time>2026-03-31T08:30:09.166Z</time></trkpt><trkpt lat="41.1666333" lon="0.70497"><ele>228.0</ele><time>2026-03-31T08:30:10.166Z</time></trkpt><trkpt lat="41.16653" lon="0.704985"><ele>228.0</ele><time>2026-03-31T08:30:11.166Z</time></trkpt><trkpt lat="41.166435" lon="0.7050033"><ele>228.0</ele><time>2026-03-31T08:30:12.165Z</time></trkpt><trkpt lat="41.1663383" lon="0.7050233"><ele>228.0</ele><time>2026-03-31T08:30:13.165Z</time></trkpt><trkpt lat="41.16624" lon="0.7050433"><ele>228.0</ele><time>2026-03-31T08:30:14.166Z</time></trkpt><trkpt lat="41.16612" lon="0.7050567"><ele>228.25</ele><time>2026-03-31T08:30:15.165Z</time></trkpt><trkpt lat="41.165985" lon="0.70506"><ele>228.5</ele><time>2026-03-31T08:30:16.166Z</time></trkpt><trkpt lat="41.1658467" lon="0.705045"><ele>228.75</ele><time>2026-03-31T08:30:17.165Z</time></trkpt><trkpt lat="41.1657083" lon="0.70504"><ele>229.0</ele><time>2026-03-31T08:30:18.165Z</time></trkpt><trkpt lat="41.16557" lon="0.7050383"><ele>229.75</ele><time>2026-03-31T08:30:19.165Z</time></trkpt><trkpt lat="41.16544" lon="0.7050433"><ele>230.5</ele><time>2026-03-31T08:30:20.166Z</time></trkpt><trkpt lat="41.1653217" lon="0.7050683"><ele>231.25</ele><time>2026-03-31T08:30:21.165Z</time></trkpt><trkpt lat="41.1652017" lon="0.7050817"><ele>232.0</ele><time>2026-03-31T08:30:22.165Z</time></trkpt><trkpt lat="41.1650917" lon="0.705095"><ele>231.99999999999997</ele><time>2026-03-31T08:30:23.165Z</time></trkpt><trkpt lat="41.164995" lon="0.705105"><ele>232.0</ele><time>2026-03-31T08:30:24.166Z</time></trkpt><trkpt lat="41.1649183" lon="0.705125"><ele>232.0</ele><time>2026-03-31T08:30:25.166Z</time></trkpt><trkpt lat="41.1648467" lon="0.70514"><ele>232.0</ele><time>2026-03-31T08:30:26.163Z</time></trkpt><trkpt lat="41.1647833" lon="0.7051567"><ele>231.99999999999997</ele><time>2026-03-31T08:30:27.166Z</time></trkpt><trkpt lat="41.1647" lon="0.7051717"><ele>232.0</ele><time>2026-03-31T08:30:28.166Z</time></trkpt><trkpt lat="41.1646067" lon="0.7051967"><ele>231.8</ele><time>2026-03-31T08:30:29.166Z</time></trkpt><trkpt lat="41.164515" lon="0.7052167"><ele>231.6</ele><time>2026-03-31T08:30:30.165Z</time></trkpt><trkpt lat="41.1644217" lon="0.70524"><ele>231.40000000000003</ele><time>2026-03-31T08:30:31.165Z</time></trkpt><trkpt lat="41.1643317" lon="0.7052583"><ele>231.20000000000002</ele><time>2026-03-31T08:30:32.165Z</time></trkpt><trkpt lat="41.16424" lon="0.7052733"><ele>231.0</ele><time>2026-03-31T08:30:33.165Z</time></trkpt><trkpt lat="41.1641333" lon="0.705285"><ele>229.4</ele><time>2026-03-31T08:30:34.166Z</time></trkpt><trkpt lat="41.16403" lon="0.7052867"><ele>227.8</ele><time>2026-03-31T08:30:35.165Z</time></trkpt><trkpt lat="41.16393" lon="0.7052833"><ele>226.20000000000002</ele><time>2026-03-31T08:30:36.165Z</time></trkpt><trkpt lat="41.1638367" lon="0.7052833"><ele>224.60000000000002</ele><time>2026-03-31T08:30:37.165Z</time></trkpt><trkpt lat="41.1637433" lon="0.705285"><ele>223.0</ele><time>2026-03-31T08:30:38.166Z</time></trkpt><trkpt lat="41.1636583" lon="0.7052817"><ele>223.0</ele><time>2026-03-31T08:30:39.166Z</time></trkpt><trkpt lat="41.163595" lon="0.70526"><ele>223.0</ele><time>2026-03-31T08:30:40.166Z</time></trkpt><trkpt lat="41.1635367" lon="0.7052"><ele>223.0</ele><time>2026-03-31T08:30:41.165Z</time></trkpt><trkpt lat="41.1634817" lon="0.705105"><ele>223.0</ele><time>2026-03-31T08:30:42.165Z</time></trkpt><trkpt lat="41.1634467" lon="0.7049783"><ele>223.0</ele><time>2026-03-31T08:30:43.166Z</time></trkpt><trkpt lat="41.1634317" lon="0.7048167"><ele>222.0</ele><time>2026-03-31T08:30:44.166Z</time></trkpt><trkpt lat="41.16341" lon="0.7046783"><ele>221.0</ele><time>2026-03-31T08:30:45.165Z</time></trkpt><trkpt lat="41.1633933" lon="0.7045433"><ele>220.0</ele><time>2026-03-31T08:30:46.166Z</time></trkpt><trkpt lat="41.1633717" lon="0.704385"><ele>219.0</ele><time>2026-03-31T08:30:47.166Z</time></trkpt><trkpt lat="41.16333" lon="0.704225"><ele>218.5</ele><time>2026-03-31T08:30:48.166Z</time></trkpt><trkpt lat="41.1632867" lon="0.7040567"><ele>218.0</ele><time>2026-03-31T08:30:49.165Z</time></trkpt><trkpt lat="41.1632367" lon="0.7038883"><ele>217.5</ele><time>2026-03-31T08:30:50.165Z</time></trkpt><trkpt lat="41.16318" lon="0.703725"><ele>217.0</ele><time>2026-03-31T08:30:51.165Z</time></trkpt><trkpt lat="41.1631267" lon="0.7035633"><ele>216.2</ele><time>2026-03-31T08:30:52.165Z</time></trkpt><trkpt lat="41.163075" lon="0.7034167"><ele>215.39999999999998</ele><time>2026-03-31T08:30:53.165Z</time></trkpt><trkpt lat="41.1630317" lon="0.70328"><ele>214.60000000000002</ele><time>2026-03-31T08:30:54.166Z</time></trkpt><trkpt lat="41.1629917" lon="0.7031617"><ele>213.8</ele><time>2026-03-31T08:30:55.165Z</time></trkpt><trkpt lat="41.1629533" lon="0.703045"><ele>213.0</ele><time>2026-03-31T08:30:56.165Z</time></trkpt><trkpt lat="41.1629133" lon="0.7029183"><ele>213.0</ele><time>2026-03-31T08:30:57.165Z</time></trkpt><trkpt lat="41.1628717" lon="0.702775"><ele>213.0</ele><time>2026-03-31T08:30:58.165Z</time></trkpt><trkpt lat="41.16283" lon="0.7026133"><ele>213.0</ele><time>2026-03-31T08:30:59.166Z</time></trkpt><trkpt lat="41.1627917" lon="0.7024383"><ele>213.0</ele><time>2026-03-31T08:31:00.165Z</time></trkpt><trkpt lat="41.1627683" lon="0.702255"><ele>213.66666666666669</ele><time>2026-03-31T08:31:01.166Z</time></trkpt><trkpt lat="41.1627567" lon="0.702045"><ele>214.33333333333334</ele><time>2026-03-31T08:31:02.165Z</time></trkpt><trkpt lat="41.1627533" lon="0.70183"><ele>215.0</ele><time>2026-03-31T08:31:03.166Z</time></trkpt><trkpt lat="41.1627633" lon="0.701605"><ele>215.0</ele><time>2026-03-31T08:31:04.165Z</time></trkpt><trkpt lat="41.16277" lon="0.701375"><ele>215.0</ele><time>2026-03-31T08:31:05.165Z</time></trkpt><trkpt lat="41.1627783" lon="0.7011433"><ele>215.0</ele><time>2026-03-31T08:31:06.165Z</time></trkpt><trkpt lat="41.1627917" lon="0.7009083"><ele>215.0</ele><time>2026-03-31T08:31:07.166Z</time></trkpt><trkpt lat="41.1628117" lon="0.700665"><ele>215.0</ele><time>2026-03-31T08:31:08.165Z</time></trkpt><trkpt lat="41.1628183" lon="0.7004183"><ele>215.0</ele><time>2026-03-31T08:31:09.165Z</time></trkpt><trkpt lat="41.16282" lon="0.7001767"><ele>214.33333333333334</ele><time>2026-03-31T08:31:10.166Z</time></trkpt><trkpt lat="41.1628167" lon="0.699945"><ele>213.66666666666669</ele><time>2026-03-31T08:31:11.165Z</time></trkpt><trkpt lat="41.16281" lon="0.699725"><ele>213.0</ele><time>2026-03-31T08:31:12.165Z</time></trkpt><trkpt lat="41.1627983" lon="0.6995033"><ele>211.0</ele><time>2026-03-31T08:31:13.166Z</time></trkpt><trkpt lat="41.162805" lon="0.6992933"><ele>209.0</ele><time>2026-03-31T08:31:14.165Z</time></trkpt><trkpt lat="41.1628333" lon="0.699075"><ele>207.0</ele><time>2026-03-31T08:31:15.165Z</time></trkpt><trkpt lat="41.1628933" lon="0.6988567"><ele>207.0</ele><time>2026-03-31T08:31:16.165Z</time></trkpt><trkpt lat="41.162975" lon="0.6986533"><ele>207.0</ele><time>2026-03-31T08:31:17.165Z</time></trkpt><trkpt lat="41.1630733" lon="0.6984567"><ele>207.0</ele><time>2026-03-31T08:31:18.165Z</time></trkpt><trkpt lat="41.163165" lon="0.6982583"><ele>205.66666666666669</ele><time>2026-03-31T08:31:19.165Z</time></trkpt><trkpt lat="41.1632383" lon="0.6980617"><ele>204.33333333333334</ele><time>2026-03-31T08:31:20.165Z</time></trkpt><trkpt lat="41.1632883" lon="0.69784"><ele>203.0</ele><time>2026-03-31T08:31:21.165Z</time></trkpt><trkpt lat="41.163305" lon="0.6976233"><ele>203.0</ele><time>2026-03-31T08:31:22.165Z</time></trkpt><trkpt lat="41.1633083" lon="0.6974167"><ele>203.0</ele><time>2026-03-31T08:31:23.166Z</time></trkpt><trkpt lat="41.16331" lon="0.69722"><ele>203.0</ele><time>2026-03-31T08:31:24.165Z</time></trkpt><trkpt lat="41.1632867" lon="0.697025"><ele>203.66666666666669</ele><time>2026-03-31T08:31:25.165Z</time></trkpt><trkpt lat="41.163235" lon="0.6968333"><ele>204.33333333333331</ele><time>2026-03-31T08:31:26.166Z</time></trkpt><trkpt lat="41.1631567" lon="0.6966633"><ele>205.0</ele><time>2026-03-31T08:31:27.165Z</time></trkpt><trkpt lat="41.1630467" lon="0.6965217"><ele>205.0</ele><time>2026-03-31T08:31:28.166Z</time></trkpt><trkpt lat="41.1629133" lon="0.6964283"><ele>205.0</ele><time>2026-03-31T08:31:29.166Z</time></trkpt><trkpt lat="41.16276" lon="0.6963833"><ele>205.0</ele><time>2026-03-31T08:31:30.166Z</time></trkpt><trkpt lat="41.162595" lon="0.69635"><ele>205.0</ele><time>2026-03-31T08:31:31.165Z</time></trkpt><trkpt lat="41.1624183" lon="0.6963167"><ele>205.0</ele><time>2026-03-31T08:31:32.166Z</time></trkpt><trkpt lat="41.1622483" lon="0.6962567"><ele>205.0</ele><time>2026-03-31T08:31:33.165Z</time></trkpt><trkpt lat="41.1620733" lon="0.6961933"><ele>202.66666666666666</ele><time>2026-03-31T08:31:34.165Z</time></trkpt><trkpt lat="41.1619083" lon="0.69614"><ele>200.33333333333331</ele><time>2026-03-31T08:31:35.166Z</time></trkpt><trkpt lat="41.161745" lon="0.6960817"><ele>198.0</ele><time>2026-03-31T08:31:36.165Z</time></trkpt><trkpt lat="41.161595" lon="0.6960117"><ele>201.33333333333331</ele><time>2026-03-31T08:31:37.165Z</time></trkpt><trkpt lat="41.1614517" lon="0.6958967"><ele>204.66666666666666</ele><time>2026-03-31T08:31:38.165Z</time></trkpt><trkpt lat="41.1613033" lon="0.695735"><ele>208.0</ele><time>2026-03-31T08:31:39.165Z</time></trkpt><trkpt lat="41.1611633" lon="0.695575"><ele>208.0</ele><time>2026-03-31T08:31:40.165Z</time></trkpt><trkpt lat="41.161035" lon="0.6954433"><ele>208.0</ele><time>2026-03-31T08:31:41.165Z</time></trkpt><trkpt lat="41.1608917" lon="0.6953183"><ele>208.0</ele><time>2026-03-31T08:31:42.166Z</time></trkpt><trkpt lat="41.1607317" lon="0.6952567"><ele>211.33333333333331</ele><time>2026-03-31T08:31:43.165Z</time></trkpt><trkpt lat="41.160565" lon="0.695215"><ele>214.66666666666669</ele><time>2026-03-31T08:31:44.165Z</time></trkpt><trkpt lat="41.1603917" lon="0.6952067"><ele>218.0</ele><time>2026-03-31T08:31:45.165Z</time></trkpt><trkpt lat="41.1602133" lon="0.695195"><ele>218.0</ele><time>2026-03-31T08:31:46.165Z</time></trkpt><trkpt lat="41.1600483" lon="0.6951717"><ele>218.0</ele><time>2026-03-31T08:31:47.165Z</time></trkpt><trkpt lat="41.1599083" lon="0.6951"><ele>218.0</ele><time>2026-03-31T08:31:48.165Z</time></trkpt><trkpt lat="41.1597817" lon="0.69498"><ele>214.66666666666669</ele><time>2026-03-31T08:31:49.165Z</time></trkpt><trkpt lat="41.1596983" lon="0.694825"><ele>211.33333333333331</ele><time>2026-03-31T08:31:50.165Z</time></trkpt><trkpt lat="41.1596333" lon="0.694625"><ele>208.0</ele><time>2026-03-31T08:31:51.165Z</time></trkpt><trkpt lat="41.1596" lon="0.6944117"><ele>208.0</ele><time>2026-03-31T08:31:52.165Z</time></trkpt><trkpt lat="41.1595967" lon="0.6941983"><ele>208.0</ele><time>2026-03-31T08:31:53.165Z</time></trkpt><trkpt lat="41.1595867" lon="0.694"><ele>208.0</ele><time>2026-03-31T08:31:54.165Z</time></trkpt><trkpt lat="41.1595417" lon="0.6937983"><ele>208.0</ele><time>2026-03-31T08:31:55.166Z</time></trkpt><trkpt lat="41.1594517" lon="0.69361"><ele>208.0</ele><time>2026-03-31T08:31:56.165Z</time></trkpt><trkpt lat="41.15933" lon="0.6934233"><ele>208.0</ele><time>2026-03-31T08:31:57.165Z</time></trkpt><trkpt lat="41.159205" lon="0.6932417"><ele>209.0</ele><time>2026-03-31T08:31:58.166Z</time></trkpt><trkpt lat="41.1590767" lon="0.6930583"><ele>210.0</ele><time>2026-03-31T08:31:59.165Z</time></trkpt><trkpt lat="41.1589583" lon="0.6928783"><ele>211.0</ele><time>2026-03-31T08:32:00.165Z</time></trkpt><trkpt lat="41.1588533" lon="0.6927017"><ele>211.0</ele><time>2026-03-31T08:32:01.165Z</time></trkpt><trkpt lat="41.1587583" lon="0.69252"><ele>211.0</ele><time>2026-03-31T08:32:02.165Z</time></trkpt><trkpt lat="41.15868" lon="0.6923333"><ele>211.0</ele><time>2026-03-31T08:32:03.166Z</time></trkpt><trkpt lat="41.1586183" lon="0.6921267"><ele>215.66666666666666</ele><time>2026-03-31T08:32:04.166Z</time></trkpt><trkpt lat="41.1585717" lon="0.6919067"><ele>220.33333333333331</ele><time>2026-03-31T08:32:05.166Z</time></trkpt><trkpt lat="41.1585617" lon="0.6916917"><ele>225.0</ele><time>2026-03-31T08:32:06.165Z</time></trkpt><trkpt lat="41.1585633" lon="0.6914917"><ele>225.0</ele><time>2026-03-31T08:32:07.166Z</time></trkpt><trkpt lat="41.1585717" lon="0.691285"><ele>225.0</ele><time>2026-03-31T08:32:08.166Z</time></trkpt><trkpt lat="41.1585833" lon="0.6910667"><ele>225.0</ele><time>2026-03-31T08:32:09.165Z</time></trkpt><trkpt lat="41.158575" lon="0.6908417"><ele>229.0</ele><time>2026-03-31T08:32:10.165Z</time></trkpt><trkpt lat="41.1585667" lon="0.6906117"><ele>233.0</ele><time>2026-03-31T08:32:11.165Z</time></trkpt><trkpt lat="41.158565" lon="0.6903783"><ele>237.0</ele><time>2026-03-31T08:32:12.165Z</time></trkpt><trkpt lat="41.1585617" lon="0.69016"><ele>237.33333333333331</ele><time>2026-03-31T08:32:13.166Z</time></trkpt><trkpt lat="41.158565" lon="0.6899433"><ele>237.66666666666666</ele><time>2026-03-31T08:32:14.165Z</time></trkpt><trkpt lat="41.1585483" lon="0.6897567"><ele>238.0</ele><time>2026-03-31T08:32:15.165Z</time></trkpt><trkpt lat="41.1585033" lon="0.689565"><ele>236.33333333333331</ele><time>2026-03-31T08:32:16.165Z</time></trkpt><trkpt lat="41.158425" lon="0.6893783"><ele>234.66666666666669</ele><time>2026-03-31T08:32:17.165Z</time></trkpt><trkpt lat="41.1583333" lon="0.6891883"><ele>233.0</ele><time>2026-03-31T08:32:18.166Z</time></trkpt><trkpt lat="41.1582517" lon="0.689"><ele>232.33333333333334</ele><time>2026-03-31T08:32:19.165Z</time></trkpt><trkpt lat="41.1581517" lon="0.688805"><ele>231.66666666666669</ele><time>2026-03-31T08:32:20.165Z</time></trkpt><trkpt lat="41.158055" lon="0.68861"><ele>231.0</ele><time>2026-03-31T08:32:21.166Z</time></trkpt><trkpt lat="41.1579583" lon="0.6883983"><ele>231.0</ele><time>2026-03-31T08:32:22.165Z</time></trkpt><trkpt lat="41.1578717" lon="0.6881917"><ele>231.0</ele><time>2026-03-31T08:32:23.165Z</time></trkpt><trkpt lat="41.15779" lon="0.6879983"><ele>231.0</ele><time>2026-03-31T08:32:24.166Z</time></trkpt><trkpt lat="41.157705" lon="0.68779"><ele>228.66666666666669</ele><time>2026-03-31T08:32:25.166Z</time></trkpt><trkpt lat="41.1576117" lon="0.6875783"><ele>226.33333333333334</ele><time>2026-03-31T08:32:26.165Z</time></trkpt><trkpt lat="41.157515" lon="0.687355"><ele>224.0</ele><time>2026-03-31T08:32:27.165Z</time></trkpt><trkpt lat="41.15742" lon="0.68713"><ele>221.33333333333334</ele><time>2026-03-31T08:32:28.165Z</time></trkpt><trkpt lat="41.157325" lon="0.686905"><ele>218.66666666666669</ele><time>2026-03-31T08:32:29.166Z</time></trkpt><trkpt lat="41.157225" lon="0.68669"><ele>216.0</ele><time>2026-03-31T08:32:30.166Z</time></trkpt><trkpt lat="41.1571267" lon="0.6864733"><ele>216.0</ele><time>2026-03-31T08:32:31.166Z</time></trkpt><trkpt lat="41.15703" lon="0.686265"><ele>216.0</ele><time>2026-03-31T08:32:32.166Z</time></trkpt><trkpt lat="41.1569067" lon="0.6860567"><ele>216.0</ele><time>2026-03-31T08:32:33.165Z</time></trkpt><trkpt lat="41.1567617" lon="0.68589"><ele>215.0</ele><time>2026-03-31T08:32:34.165Z</time></trkpt><trkpt lat="41.1566083" lon="0.6857333"><ele>214.0</ele><time>2026-03-31T08:32:35.166Z</time></trkpt><trkpt lat="41.156455" lon="0.6855967"><ele>213.0</ele><time>2026-03-31T08:32:36.165Z</time></trkpt><trkpt lat="41.15631" lon="0.685465"><ele>211.66666666666669</ele><time>2026-03-31T08:32:37.165Z</time></trkpt><trkpt lat="41.1561617" lon="0.6853317"><ele>210.33333333333334</ele><time>2026-03-31T08:32:38.165Z</time></trkpt><trkpt lat="41.1560133" lon="0.685255"><ele>209.0</ele><time>2026-03-31T08:32:39.166Z</time></trkpt><trkpt lat="41.1558383" lon="0.6852217"><ele>206.0</ele><time>2026-03-31T08:32:40.165Z</time></trkpt><trkpt lat="41.155655" lon="0.6852267"><ele>203.0</ele><time>2026-03-31T08:32:41.166Z</time></trkpt><trkpt lat="41.15547" lon="0.6852533"><ele>200.0</ele><time>2026-03-31T08:32:42.166Z</time></trkpt><trkpt lat="41.1552783" lon="0.68526"><ele>200.0</ele><time>2026-03-31T08:32:43.166Z</time></trkpt><trkpt lat="41.15508" lon="0.6852433"><ele>200.0</ele><time>2026-03-31T08:32:44.166Z</time></trkpt><trkpt lat="41.1548867" lon="0.6851967"><ele>200.0</ele><time>2026-03-31T08:32:45.165Z</time></trkpt><trkpt lat="41.1547017" lon="0.6851417"><ele>197.33333333333334</ele><time>2026-03-31T08:32:46.165Z</time></trkpt><trkpt lat="41.1545233" lon="0.6850533"><ele>194.66666666666669</ele><time>2026-03-31T08:32:47.166Z</time></trkpt><trkpt lat="41.1543533" lon="0.6849533"><ele>192.0</ele><time>2026-03-31T08:32:48.165Z</time></trkpt><trkpt lat="41.1541783" lon="0.6848283"><ele>189.0</ele><time>2026-03-31T08:32:49.165Z</time></trkpt><trkpt lat="41.154015" lon="0.6846883"><ele>186.0</ele><time>2026-03-31T08:32:50.165Z</time></trkpt><trkpt lat="41.1538483" lon="0.684565"><ele>183.0</ele><time>2026-03-31T08:32:51.165Z</time></trkpt><trkpt lat="41.1536917" lon="0.6844433"><ele>183.66666666666666</ele><time>2026-03-31T08:32:52.166Z</time></trkpt><trkpt lat="41.1535417" lon="0.6843017"><ele>184.33333333333331</ele><time>2026-03-31T08:32:53.166Z</time></trkpt><trkpt lat="41.1533883" lon="0.6841317"><ele>185.0</ele><time>2026-03-31T08:32:54.166Z</time></trkpt><trkpt lat="41.15324" lon="0.6839333"><ele>183.33333333333331</ele><time>2026-03-31T08:32:55.165Z</time></trkpt><trkpt lat="41.153095" lon="0.6837333"><ele>181.66666666666666</ele><time>2026-03-31T08:32:56.165Z</time></trkpt><trkpt lat="41.1529533" lon="0.68354"><ele>180.0</ele><time>2026-03-31T08:32:57.165Z</time></trkpt><trkpt lat="41.152805" lon="0.6833583"><ele>178.66666666666666</ele><time>2026-03-31T08:32:58.166Z</time></trkpt><trkpt lat="41.1526533" lon="0.683195"><ele>177.33333333333331</ele><time>2026-03-31T08:32:59.165Z</time></trkpt><trkpt lat="41.15248" lon="0.6830467"><ele>176.0</ele><time>2026-03-31T08:33:00.166Z</time></trkpt><trkpt lat="41.1522917" lon="0.6829283"><ele>174.33333333333331</ele><time>2026-03-31T08:33:01.165Z</time></trkpt><trkpt lat="41.1520967" lon="0.6828467"><ele>172.66666666666666</ele><time>2026-03-31T08:33:02.165Z</time></trkpt><trkpt lat="41.1519233" lon="0.68276"><ele>171.0</ele><time>2026-03-31T08:33:03.166Z</time></trkpt><trkpt lat="41.1517667" lon="0.68267"><ele>171.0</ele><time>2026-03-31T08:33:04.165Z</time></trkpt><trkpt lat="41.1516267" lon="0.6825467"><ele>171.0</ele><time>2026-03-31T08:33:05.165Z</time></trkpt><trkpt lat="41.1515017" lon="0.68238"><ele>171.0</ele><time>2026-03-31T08:33:06.165Z</time></trkpt><trkpt lat="41.151395" lon="0.6821733"><ele>169.33333333333334</ele><time>2026-03-31T08:33:07.166Z</time></trkpt><trkpt lat="41.1513" lon="0.68196"><ele>167.66666666666669</ele><time>2026-03-31T08:33:08.165Z</time></trkpt><trkpt lat="41.1512083" lon="0.6817383"><ele>166.0</ele><time>2026-03-31T08:33:09.165Z</time></trkpt><trkpt lat="41.1511017" lon="0.68154"><ele>165.33333333333334</ele><time>2026-03-31T08:33:10.166Z</time></trkpt><trkpt lat="41.1510167" lon="0.681375"><ele>164.66666666666666</ele><time>2026-03-31T08:33:11.165Z</time></trkpt><trkpt lat="41.1509417" lon="0.68119"><ele>164.0</ele><time>2026-03-31T08:33:12.166Z</time></trkpt><trkpt lat="41.1508767" lon="0.680985"><ele>164.0</ele><time>2026-03-31T08:33:13.165Z</time></trkpt><trkpt lat="41.1508333" lon="0.6807583"><ele>164.0</ele><time>2026-03-31T08:33:14.166Z</time></trkpt><trkpt lat="41.1508" lon="0.68053"><ele>164.0</ele><time>2026-03-31T08:33:15.166Z</time></trkpt><trkpt lat="41.1508" lon="0.680325"><ele>164.25</ele><time>2026-03-31T08:33:16.165Z</time></trkpt><trkpt lat="41.1507767" lon="0.6801233"><ele>164.5</ele><time>2026-03-31T08:33:17.165Z</time></trkpt><trkpt lat="41.1507233" lon="0.6799383"><ele>164.75</ele><time>2026-03-31T08:33:18.165Z</time></trkpt><trkpt lat="41.1506217" lon="0.6798033"><ele>165.0</ele><time>2026-03-31T08:33:19.165Z</time></trkpt><trkpt lat="41.1504867" lon="0.6797317"><ele>161.0</ele><time>2026-03-31T08:33:20.165Z</time></trkpt><trkpt lat="41.15032" lon="0.6797017"><ele>157.0</ele><time>2026-03-31T08:33:21.165Z</time></trkpt><trkpt lat="41.15015" lon="0.679695"><ele>153.0</ele><time>2026-03-31T08:33:22.166Z</time></trkpt><trkpt lat="41.1500083" lon="0.6796783"><ele>153.0</ele><time>2026-03-31T08:33:23.165Z</time></trkpt><trkpt lat="41.1498817" lon="0.6795933"><ele>153.0</ele><time>2026-03-31T08:33:24.166Z</time></trkpt><trkpt lat="41.1497783" lon="0.67946"><ele>153.0</ele><time>2026-03-31T08:33:25.166Z</time></trkpt><trkpt lat="41.1496917" lon="0.6792933"><ele>153.0</ele><time>2026-03-31T08:33:26.165Z</time></trkpt><trkpt lat="41.1496083" lon="0.6791"><ele>152.33333333333334</ele><time>2026-03-31T08:33:27.165Z</time></trkpt><trkpt lat="41.1495133" lon="0.678895"><ele>151.66666666666669</ele><time>2026-03-31T08:33:28.165Z</time></trkpt><trkpt lat="41.1494117" lon="0.6786967"><ele>151.0</ele><time>2026-03-31T08:33:29.166Z</time></trkpt><trkpt lat="41.1493183" lon="0.6784833"><ele>151.0</ele><time>2026-03-31T08:33:30.165Z</time></trkpt><trkpt lat="41.1492083" lon="0.6782817"><ele>151.0</ele><time>2026-03-31T08:33:31.165Z</time></trkpt><trkpt lat="41.149085" lon="0.6781067"><ele>151.0</ele><time>2026-03-31T08:33:32.165Z</time></trkpt><trkpt lat="41.1489667" lon="0.6779467"><ele>149.75</ele><time>2026-03-31T08:33:33.166Z</time></trkpt><trkpt lat="41.1488717" lon="0.6778183"><ele>148.5</ele><time>2026-03-31T08:33:34.165Z</time></trkpt><trkpt lat="41.14875" lon="0.6777033"><ele>147.25</ele><time>2026-03-31T08:33:35.165Z</time></trkpt><trkpt lat="41.1486083" lon="0.677645"><ele>146.0</ele><time>2026-03-31T08:33:36.166Z</time></trkpt><trkpt lat="41.148465" lon="0.6776217"><ele>146.0</ele><time>2026-03-31T08:33:37.166Z</time></trkpt><trkpt lat="41.1483167" lon="0.6776083"><ele>146.0</ele><time>2026-03-31T08:33:38.166Z</time></trkpt><trkpt lat="41.1481783" lon="0.6775833"><ele>146.0</ele><time>2026-03-31T08:33:39.165Z</time></trkpt><trkpt lat="41.1480433" lon="0.6775217"><ele>146.0</ele><time>2026-03-31T08:33:40.165Z</time></trkpt><trkpt lat="41.147895" lon="0.6774367"><ele>146.75</ele><time>2026-03-31T08:33:41.165Z</time></trkpt><trkpt lat="41.14776" lon="0.67735"><ele>147.5</ele><time>2026-03-31T08:33:42.166Z</time></trkpt><trkpt lat="41.147625" lon="0.6772983"><ele>148.25</ele><time>2026-03-31T08:33:43.166Z</time></trkpt><trkpt lat="41.1474933" lon="0.6773133"><ele>149.0</ele><time>2026-03-31T08:33:44.166Z</time></trkpt><trkpt lat="41.1473667" lon="0.6773883"><ele>149.0</ele><time>2026-03-31T08:33:45.166Z</time></trkpt><trkpt lat="41.1472567" lon="0.6775217"><ele>149.0</ele><time>2026-03-31T08:33:46.165Z</time></trkpt><trkpt lat="41.147155" lon="0.6776717"><ele>149.0</ele><time>2026-03-31T08:33:47.165Z</time></trkpt><trkpt lat="41.1470517" lon="0.6778233"><ele>145.75</ele><time>2026-03-31T08:33:48.165Z</time></trkpt><trkpt lat="41.1469417" lon="0.677935"><ele>142.5</ele><time>2026-03-31T08:33:49.165Z</time></trkpt><trkpt lat="41.1468133" lon="0.6780083"><ele>139.25</ele><time>2026-03-31T08:33:50.166Z</time></trkpt><trkpt lat="41.1466767" lon="0.67803"><ele>136.0</ele><time>2026-03-31T08:33:51.166Z</time></trkpt><trkpt lat="41.146545" lon="0.6779933"><ele>135.66666666666669</ele><time>2026-03-31T08:33:52.165Z</time></trkpt><trkpt lat="41.14642" lon="0.6778917"><ele>135.33333333333334</ele><time>2026-03-31T08:33:53.165Z</time></trkpt><trkpt lat="41.1462917" lon="0.6777417"><ele>135.0</ele><time>2026-03-31T08:33:54.165Z</time></trkpt><trkpt lat="41.1461633" lon="0.6775683"><ele>135.0</ele><time>2026-03-31T08:33:55.165Z</time></trkpt><trkpt lat="41.1460367" lon="0.6773983"><ele>135.0</ele><time>2026-03-31T08:33:56.165Z</time></trkpt><trkpt lat="41.1459317" lon="0.6772183"><ele>135.0</ele><time>2026-03-31T08:33:57.165Z</time></trkpt><trkpt lat="41.1458383" lon="0.6770083"><ele>135.66666666666666</ele><time>2026-03-31T08:33:58.166Z</time></trkpt><trkpt lat="41.1457667" lon="0.6767917"><ele>136.33333333333331</ele><time>2026-03-31T08:33:59.166Z</time></trkpt><trkpt lat="41.1456967" lon="0.676565"><ele>137.0</ele><time>2026-03-31T08:34:00.166Z</time></trkpt><trkpt lat="41.145635" lon="0.6763467"><ele>134.0</ele><time>2026-03-31T08:34:01.165Z</time></trkpt><trkpt lat="41.1455733" lon="0.6761383"><ele>131.0</ele><time>2026-03-31T08:34:02.166Z</time></trkpt><trkpt lat="41.1454817" lon="0.675985"><ele>128.0</ele><time>2026-03-31T08:34:03.165Z</time></trkpt><trkpt lat="41.145365" lon="0.67585"><ele>128.0</ele><time>2026-03-31T08:34:04.165Z</time></trkpt><trkpt lat="41.14521" lon="0.675755"><ele>128.0</ele><time>2026-03-31T08:34:05.165Z</time></trkpt><trkpt lat="41.1450417" lon="0.6756883"><ele>128.0</ele><time>2026-03-31T08:34:06.166Z</time></trkpt><trkpt lat="41.14487" lon="0.6756233"><ele>126.0</ele><time>2026-03-31T08:34:07.165Z</time></trkpt><trkpt lat="41.14469" lon="0.67556"><ele>124.0</ele><time>2026-03-31T08:34:08.165Z</time></trkpt><trkpt lat="41.14452" lon="0.675495"><ele>122.0</ele><time>2026-03-31T08:34:09.166Z</time></trkpt><trkpt lat="41.1443633" lon="0.6754333"><ele>122.0</ele><time>2026-03-31T08:34:10.165Z</time></trkpt><trkpt lat="41.1442183" lon="0.6753533"><ele>122.0</ele><time>2026-03-31T08:34:11.165Z</time></trkpt><trkpt lat="41.1440783" lon="0.6752683"><ele>122.0</ele><time>2026-03-31T08:34:12.165Z</time></trkpt><trkpt lat="41.1439633" lon="0.6751217"><ele>118.66666666666666</ele><time>2026-03-31T08:34:13.165Z</time></trkpt><trkpt lat="41.1438733" lon="0.67493"><ele>115.33333333333334</ele><time>2026-03-31T08:34:14.165Z</time></trkpt><trkpt lat="41.1438033" lon="0.67471"><ele>112.0</ele><time>2026-03-31T08:34:15.165Z</time></trkpt><trkpt lat="41.14375" lon="0.6744783"><ele>110.66666666666667</ele><time>2026-03-31T08:34:16.166Z</time></trkpt><trkpt lat="41.1437017" lon="0.6742467"><ele>109.33333333333334</ele><time>2026-03-31T08:34:17.165Z</time></trkpt><trkpt lat="41.1436483" lon="0.6740083"><ele>108.0</ele><time>2026-03-31T08:34:18.165Z</time></trkpt><trkpt lat="41.1435983" lon="0.673775"><ele>108.66666666666666</ele><time>2026-03-31T08:34:19.165Z</time></trkpt><trkpt lat="41.1435533" lon="0.6735583"><ele>109.33333333333333</ele><time>2026-03-31T08:34:20.165Z</time></trkpt><trkpt lat="41.14351" lon="0.6733683"><ele>110.0</ele><time>2026-03-31T08:34:21.165Z</time></trkpt><trkpt lat="41.1434283" lon="0.6731967"><ele>110.0</ele><time>2026-03-31T08:34:22.165Z</time></trkpt><trkpt lat="41.1433033" lon="0.6730583"><ele>110.0</ele><time>2026-03-31T08:34:23.166Z</time></trkpt><trkpt lat="41.1431767" lon="0.6729267"><ele>110.0</ele><time>2026-03-31T08:34:24.165Z</time></trkpt><trkpt lat="41.1430683" lon="0.6727767"><ele>106.0</ele><time>2026-03-31T08:34:25.165Z</time></trkpt><trkpt lat="41.1429917" lon="0.6726017"><ele>102.0</ele><time>2026-03-31T08:34:26.165Z</time></trkpt><trkpt lat="41.1429333" lon="0.672385"><ele>98.0</ele><time>2026-03-31T08:34:27.166Z</time></trkpt><trkpt lat="41.1429033" lon="0.6721633"><ele>98.0</ele><time>2026-03-31T08:34:28.165Z</time></trkpt><trkpt lat="41.1428683" lon="0.6719467"><ele>98.0</ele><time>2026-03-31T08:34:29.165Z</time></trkpt><trkpt lat="41.1428067" lon="0.6717317"><ele>98.0</ele><time>2026-03-31T08:34:30.166Z</time></trkpt><trkpt lat="41.142705" lon="0.6715517"><ele>98.33333333333333</ele><time>2026-03-31T08:34:31.165Z</time></trkpt><trkpt lat="41.1425733" lon="0.6713983"><ele>98.66666666666666</ele><time>2026-03-31T08:34:32.166Z</time></trkpt><trkpt lat="41.1424483" lon="0.6712483"><ele>99.0</ele><time>2026-03-31T08:34:33.165Z</time></trkpt><trkpt lat="41.1423117" lon="0.67111"><ele>98.0</ele><time>2026-03-31T08:34:34.166Z</time></trkpt><trkpt lat="41.1421533" lon="0.671"><ele>97.0</ele><time>2026-03-31T08:34:35.165Z</time></trkpt><trkpt lat="41.1419917" lon="0.6709133"><ele>96.0</ele><time>2026-03-31T08:34:36.166Z</time></trkpt><trkpt lat="41.1418383" lon="0.6708383"><ele>96.0</ele><time>2026-03-31T08:34:37.165Z</time></trkpt><trkpt lat="41.1416967" lon="0.6707817"><ele>96.0</ele><time>2026-03-31T08:34:38.166Z</time></trkpt><trkpt lat="41.1415317" lon="0.6707667"><ele>96.0</ele><time>2026-03-31T08:34:39.165Z</time></trkpt><trkpt lat="41.1413733" lon="0.6707967"><ele>94.66666666666667</ele><time>2026-03-31T08:34:40.166Z</time></trkpt><trkpt lat="41.1412067" lon="0.6708317"><ele>93.33333333333334</ele><time>2026-03-31T08:34:41.166Z</time></trkpt><trkpt lat="41.141045" lon="0.6708467"><ele>92.0</ele><time>2026-03-31T08:34:42.165Z</time></trkpt><trkpt lat="41.140905" lon="0.670825"><ele>92.0</ele><time>2026-03-31T08:34:43.166Z</time></trkpt><trkpt lat="41.1407733" lon="0.670735"><ele>92.0</ele><time>2026-03-31T08:34:44.165Z</time></trkpt><trkpt lat="41.1406833" lon="0.670605"><ele>92.0</ele><time>2026-03-31T08:34:45.165Z</time></trkpt><trkpt lat="41.14063" lon="0.6704183"><ele>92.0</ele><time>2026-03-31T08:34:46.165Z</time></trkpt><trkpt lat="41.14062" lon="0.6702133"><ele>94.33333333333334</ele><time>2026-03-31T08:34:47.165Z</time></trkpt><trkpt lat="41.140635" lon="0.6700067"><ele>96.66666666666667</ele><time>2026-03-31T08:34:48.166Z</time></trkpt><trkpt lat="41.1406683" lon="0.6698117"><ele>99.0</ele><time>2026-03-31T08:34:49.165Z</time></trkpt><trkpt lat="41.1407217" lon="0.6696133"><ele>98.25</ele><time>2026-03-31T08:34:50.165Z</time></trkpt><trkpt lat="41.1407817" lon="0.6694333"><ele>97.5</ele><time>2026-03-31T08:34:51.165Z</time></trkpt><trkpt lat="41.1408133" lon="0.6692633"><ele>96.75</ele><time>2026-03-31T08:34:52.165Z</time></trkpt><trkpt lat="41.140825" lon="0.669095"><ele>96.0</ele><time>2026-03-31T08:34:53.165Z</time></trkpt><trkpt lat="41.1407817" lon="0.6689133"><ele>94.33333333333333</ele><time>2026-03-31T08:34:54.166Z</time></trkpt><trkpt lat="41.1406917" lon="0.66877"><ele>92.66666666666666</ele><time>2026-03-31T08:34:55.165Z</time></trkpt><trkpt lat="41.1405633" lon="0.6686517"><ele>91.0</ele><time>2026-03-31T08:34:56.165Z</time></trkpt><trkpt lat="41.1404117" lon="0.6685583"><ele>91.0</ele><time>2026-03-31T08:34:57.166Z</time></trkpt><trkpt lat="41.1402467" lon="0.6684733"><ele>91.0</ele><time>2026-03-31T08:34:58.166Z</time></trkpt><trkpt lat="41.1400683" lon="0.6684017"><ele>91.0</ele><time>2026-03-31T08:34:59.165Z</time></trkpt><trkpt lat="41.1398933" lon="0.66835"><ele>88.0</ele><time>2026-03-31T08:35:00.165Z</time></trkpt><trkpt lat="41.139715" lon="0.6683017"><ele>85.0</ele><time>2026-03-31T08:35:01.165Z</time></trkpt><trkpt lat="41.1395317" lon="0.6682583"><ele>82.0</ele><time>2026-03-31T08:35:02.166Z</time></trkpt><trkpt lat="41.1393617" lon="0.6682167"><ele>82.0</ele><time>2026-03-31T08:35:03.165Z</time></trkpt><trkpt lat="41.1392117" lon="0.6681683"><ele>82.0</ele><time>2026-03-31T08:35:04.165Z</time></trkpt><trkpt lat="41.1390767" lon="0.668085"><ele>82.0</ele><time>2026-03-31T08:35:05.165Z</time></trkpt><trkpt lat="41.1389617" lon="0.6679683"><ele>82.0</ele><time>2026-03-31T08:35:06.166Z</time></trkpt><trkpt lat="41.1388383" lon="0.6678717"><ele>81.5</ele><time>2026-03-31T08:35:07.165Z</time></trkpt><trkpt lat="41.13871" lon="0.6678333"><ele>81.0</ele><time>2026-03-31T08:35:08.166Z</time></trkpt><trkpt lat="41.1385917" lon="0.6678033"><ele>80.5</ele><time>2026-03-31T08:35:09.165Z</time></trkpt><trkpt lat="41.13848" lon="0.667735"><ele>80.0</ele><time>2026-03-31T08:35:10.165Z</time></trkpt><trkpt lat="41.1383567" lon="0.6676217"><ele>80.0</ele><time>2026-03-31T08:35:11.165Z</time></trkpt><trkpt lat="41.1382333" lon="0.6674867"><ele>80.0</ele><time>2026-03-31T08:35:12.166Z</time></trkpt><trkpt lat="41.1381067" lon="0.66735"><ele>80.0</ele><time>2026-03-31T08:35:13.165Z</time></trkpt><trkpt lat="41.1379717" lon="0.667235"><ele>77.25</ele><time>2026-03-31T08:35:14.165Z</time></trkpt><trkpt lat="41.1378383" lon="0.6671517"><ele>74.5</ele><time>2026-03-31T08:35:15.166Z</time></trkpt><trkpt lat="41.137695" lon="0.667145"><ele>71.75</ele><time>2026-03-31T08:35:16.165Z</time></trkpt><trkpt lat="41.1375433" lon="0.6671767"><ele>69.0</ele><time>2026-03-31T08:35:17.166Z</time></trkpt><trkpt lat="41.1374217" lon="0.6671583"><ele>68.75</ele><time>2026-03-31T08:35:18.165Z</time></trkpt><trkpt lat="41.13731" lon="0.6670867"><ele>68.5</ele><time>2026-03-31T08:35:19.166Z</time></trkpt><trkpt lat="41.1372067" lon="0.6669583"><ele>68.25</ele><time>2026-03-31T08:35:20.166Z</time></trkpt><trkpt lat="41.1371083" lon="0.6667967"><ele>68.0</ele><time>2026-03-31T08:35:21.166Z</time></trkpt><trkpt lat="41.137" lon="0.666605"><ele>68.0</ele><time>2026-03-31T08:35:22.166Z</time></trkpt><trkpt lat="41.1369" lon="0.6664067"><ele>68.0</ele><time>2026-03-31T08:35:23.165Z</time></trkpt><trkpt lat="41.1368067" lon="0.6662033"><ele>68.0</ele><time>2026-03-31T08:35:24.166Z</time></trkpt><trkpt lat="41.13671" lon="0.6659933"><ele>69.66666666666667</ele><time>2026-03-31T08:35:25.165Z</time></trkpt><trkpt lat="41.1366183" lon="0.665785"><ele>71.33333333333333</ele><time>2026-03-31T08:35:26.165Z</time></trkpt><trkpt lat="41.13652" lon="0.66556"><ele>73.0</ele><time>2026-03-31T08:35:27.165Z</time></trkpt><trkpt lat="41.136405" lon="0.6653667"><ele>70.0</ele><time>2026-03-31T08:35:28.165Z</time></trkpt><trkpt lat="41.1362733" lon="0.665195"><ele>67.0</ele><time>2026-03-31T08:35:29.165Z</time></trkpt><trkpt lat="41.1361117" lon="0.665055"><ele>64.0</ele><time>2026-03-31T08:35:30.165Z</time></trkpt><trkpt lat="41.1359467" lon="0.66492"><ele>64.0</ele><time>2026-03-31T08:35:31.166Z</time></trkpt><trkpt lat="41.1357917" lon="0.6647717"><ele>64.0</ele><time>2026-03-31T08:35:32.165Z</time></trkpt><trkpt lat="41.1356333" lon="0.6646117"><ele>64.0</ele><time>2026-03-31T08:35:33.165Z</time></trkpt><trkpt lat="41.13546" lon="0.6644667"><ele>62.666666666666664</ele><time>2026-03-31T08:35:34.166Z</time></trkpt><trkpt lat="41.135305" lon="0.6643317"><ele>61.33333333333333</ele><time>2026-03-31T08:35:35.165Z</time></trkpt><trkpt lat="41.13515" lon="0.6642017"><ele>60.0</ele><time>2026-03-31T08:35:36.165Z</time></trkpt><trkpt lat="41.1349983" lon="0.6640683"><ele>57.33333333333333</ele><time>2026-03-31T08:35:37.166Z</time></trkpt><trkpt lat="41.134865" lon="0.6639433"><ele>54.666666666666664</ele><time>2026-03-31T08:35:38.165Z</time></trkpt><trkpt lat="41.1347517" lon="0.6637967"><ele>52.0</ele><time>2026-03-31T08:35:39.166Z</time></trkpt><trkpt lat="41.1346617" lon="0.663635"><ele>51.666666666666664</ele><time>2026-03-31T08:35:40.165Z</time></trkpt><trkpt lat="41.1345933" lon="0.66344"><ele>51.33333333333333</ele><time>2026-03-31T08:35:41.165Z</time></trkpt><trkpt lat="41.1345617" lon="0.6632267"><ele>51.0</ele><time>2026-03-31T08:35:42.165Z</time></trkpt><trkpt lat="41.1345533" lon="0.6630067"><ele>51.0</ele><time>2026-03-31T08:35:43.166Z</time></trkpt><trkpt lat="41.1345633" lon="0.6627833"><ele>51.0</ele><time>2026-03-31T08:35:44.166Z</time></trkpt><trkpt lat="41.1345683" lon="0.6625567"><ele>51.0</ele><time>2026-03-31T08:35:45.166Z</time></trkpt><trkpt lat="41.1345683" lon="0.66233"><ele>51.0</ele><time>2026-03-31T08:35:46.166Z</time></trkpt><trkpt lat="41.1345817" lon="0.66211"><ele>51.0</ele><time>2026-03-31T08:35:47.165Z</time></trkpt><trkpt lat="41.1346017" lon="0.6618983"><ele>51.0</ele><time>2026-03-31T08:35:48.165Z</time></trkpt><trkpt lat="41.134655" lon="0.661695"><ele>50.66666666666667</ele><time>2026-03-31T08:35:49.165Z</time></trkpt><trkpt lat="41.13472" lon="0.6614833"><ele>50.333333333333336</ele><time>2026-03-31T08:35:50.166Z</time></trkpt><trkpt lat="41.134795" lon="0.66126"><ele>50.0</ele><time>2026-03-31T08:35:51.166Z</time></trkpt><trkpt lat="41.1348667" lon="0.6610367"><ele>52.66666666666667</ele><time>2026-03-31T08:35:52.165Z</time></trkpt><trkpt lat="41.134935" lon="0.6608267"><ele>55.33333333333333</ele><time>2026-03-31T08:35:53.165Z</time></trkpt><trkpt lat="41.1349883" lon="0.6606217"><ele>58.0</ele><time>2026-03-31T08:35:54.166Z</time></trkpt><trkpt lat="41.1350267" lon="0.66043"><ele>55.33333333333333</ele><time>2026-03-31T08:35:55.165Z</time></trkpt><trkpt lat="41.1350167" lon="0.6602417"><ele>52.66666666666667</ele><time>2026-03-31T08:35:56.165Z</time></trkpt><trkpt lat="41.1349617" lon="0.6600517"><ele>50.0</ele><time>2026-03-31T08:35:57.165Z</time></trkpt><trkpt lat="41.13487" lon="0.65987"><ele>48.333333333333336</ele><time>2026-03-31T08:35:58.165Z</time></trkpt><trkpt lat="41.1347733" lon="0.6597083"><ele>46.66666666666667</ele><time>2026-03-31T08:35:59.166Z</time></trkpt><trkpt lat="41.1346917" lon="0.659525"><ele>45.0</ele><time>2026-03-31T08:36:00.165Z</time></trkpt><trkpt lat="41.134645" lon="0.6593283"><ele>45.0</ele><time>2026-03-31T08:36:01.166Z</time></trkpt><trkpt lat="41.134635" lon="0.6591067"><ele>45.0</ele><time>2026-03-31T08:36:02.165Z</time></trkpt><trkpt lat="41.1346583" lon="0.658865"><ele>45.0</ele><time>2026-03-31T08:36:03.165Z</time></trkpt><trkpt lat="41.1347083" lon="0.6586333"><ele>45.0</ele><time>2026-03-31T08:36:04.165Z</time></trkpt><trkpt lat="41.13476" lon="0.6583917"><ele>45.0</ele><time>2026-03-31T08:36:05.165Z</time></trkpt><trkpt lat="41.13481" lon="0.65815"><ele>45.0</ele><time>2026-03-31T08:36:06.165Z</time></trkpt><trkpt lat="41.1348617" lon="0.657915"><ele>47.33333333333333</ele><time>2026-03-31T08:36:07.165Z</time></trkpt><trkpt lat="41.1349067" lon="0.6576983"><ele>49.666666666666664</ele><time>2026-03-31T08:36:08.165Z</time></trkpt><trkpt lat="41.1349417" lon="0.657475"><ele>52.0</ele><time>2026-03-31T08:36:09.166Z</time></trkpt><trkpt lat="41.1349617" lon="0.6572583"><ele>52.0</ele><time>2026-03-31T08:36:10.166Z</time></trkpt><trkpt lat="41.1349533" lon="0.65703"><ele>52.0</ele><time>2026-03-31T08:36:11.165Z</time></trkpt><trkpt lat="41.1349217" lon="0.656795"><ele>52.0</ele><time>2026-03-31T08:36:12.166Z</time></trkpt><trkpt lat="41.134885" lon="0.6565633"><ele>47.33333333333333</ele><time>2026-03-31T08:36:13.165Z</time></trkpt><trkpt lat="41.1348533" lon="0.656325"><ele>42.666666666666664</ele><time>2026-03-31T08:36:14.165Z</time></trkpt><trkpt lat="41.1348283" lon="0.6560933"><ele>38.0</ele><time>2026-03-31T08:36:15.166Z</time></trkpt><trkpt lat="41.1348133" lon="0.6558767"><ele>37.5</ele><time>2026-03-31T08:36:16.165Z</time></trkpt><trkpt lat="41.1347983" lon="0.6556683"><ele>37.0</ele><time>2026-03-31T08:36:17.166Z</time></trkpt><trkpt lat="41.1347917" lon="0.6554767"><ele>36.5</ele><time>2026-03-31T08:36:18.165Z</time></trkpt><trkpt lat="41.1347883" lon="0.6553083"><ele>36.0</ele><time>2026-03-31T08:36:19.166Z</time></trkpt><trkpt lat="41.1347983" lon="0.6551583"><ele>36.0</ele><time>2026-03-31T08:36:20.166Z</time></trkpt><trkpt lat="41.1348033" lon="0.6550283"><ele>36.0</ele><time>2026-03-31T08:36:21.165Z</time></trkpt><trkpt lat="41.1348167" lon="0.6549"><ele>36.0</ele><time>2026-03-31T08:36:22.165Z</time></trkpt><trkpt lat="41.13483" lon="0.65478"><ele>36.0</ele><time>2026-03-31T08:36:23.166Z</time></trkpt><trkpt lat="41.1348467" lon="0.6546533"><ele>36.0</ele><time>2026-03-31T08:36:24.166Z</time></trkpt><trkpt lat="41.1348733" lon="0.65453"><ele>37.4</ele><time>2026-03-31T08:36:25.165Z</time></trkpt><trkpt lat="41.1348983" lon="0.6544033"><ele>38.8</ele><time>2026-03-31T08:36:26.166Z</time></trkpt><trkpt lat="41.1349433" lon="0.65428"><ele>40.199999999999996</ele><time>2026-03-31T08:36:27.166Z</time></trkpt><trkpt lat="41.1349917" lon="0.6541467"><ele>41.6</ele><time>2026-03-31T08:36:28.165Z</time></trkpt><trkpt lat="41.1350433" lon="0.6540217"><ele>43.0</ele><time>2026-03-31T08:36:29.166Z</time></trkpt><trkpt lat="41.1350983" lon="0.65391"><ele>43.0</ele><time>2026-03-31T08:36:30.165Z</time></trkpt><trkpt lat="41.1351517" lon="0.653795"><ele>43.0</ele><time>2026-03-31T08:36:31.165Z</time></trkpt><trkpt lat="41.1352" lon="0.6536767"><ele>43.0</ele><time>2026-03-31T08:36:32.165Z</time></trkpt><trkpt lat="41.135245" lon="0.6535783"><ele>43.0</ele><time>2026-03-31T08:36:33.166Z</time></trkpt><trkpt lat="41.135295" lon="0.6534917"><ele>43.0</ele><time>2026-03-31T08:36:34.165Z</time></trkpt><trkpt lat="41.1353417" lon="0.6534083"><ele>42.85714285714286</ele><time>2026-03-31T08:36:35.165Z</time></trkpt><trkpt lat="41.1353817" lon="0.6533267"><ele>42.714285714285715</ele><time>2026-03-31T08:36:36.166Z</time></trkpt><trkpt lat="41.13542" lon="0.6532583"><ele>42.57142857142857</ele><time>2026-03-31T08:36:37.165Z</time></trkpt><trkpt lat="41.135445" lon="0.6531783"><ele>42.42857142857143</ele><time>2026-03-31T08:36:38.166Z</time></trkpt><trkpt lat="41.1354717" lon="0.6530783"><ele>42.285714285714285</ele><time>2026-03-31T08:36:39.165Z</time></trkpt><trkpt lat="41.1355" lon="0.65298"><ele>42.142857142857146</ele><time>2026-03-31T08:36:40.165Z</time></trkpt><trkpt lat="41.1355417" lon="0.65288"><ele>42.0</ele><time>2026-03-31T08:36:41.165Z</time></trkpt><trkpt lat="41.1355917" lon="0.6527817"><ele>41.666666666666664</ele><time>2026-03-31T08:36:42.166Z</time></trkpt><trkpt lat="41.1356367" lon="0.6526883"><ele>41.333333333333336</ele><time>2026-03-31T08:36:43.165Z</time></trkpt><trkpt lat="41.135665" lon="0.6525867"><ele>41.0</ele><time>2026-03-31T08:36:44.165Z</time></trkpt><trkpt lat="41.1356933" lon="0.6524917"><ele>40.66666666666667</ele><time>2026-03-31T08:36:45.165Z</time></trkpt><trkpt lat="41.1357333" lon="0.6524117"><ele>40.333333333333336</ele><time>2026-03-31T08:36:46.165Z</time></trkpt><trkpt lat="41.1357667" lon="0.652335"><ele>40.0</ele><time>2026-03-31T08:36:47.165Z</time></trkpt><trkpt lat="41.1357983" lon="0.6522517"><ele>40.0</ele><time>2026-03-31T08:36:48.165Z</time></trkpt><trkpt lat="41.135825" lon="0.6521"><ele>40.0</ele><time>2026-03-31T08:36:50.166Z</time></trkpt><trkpt lat="41.1357733" lon="0.652"><ele>40.0</ele><time>2026-03-31T08:36:52.165Z</time></trkpt><trkpt lat="41.1356583" lon="0.65203"><ele>40.0</ele><time>2026-03-31T08:36:54.165Z</time></trkpt><trkpt lat="41.1355783" lon="0.6520567"><ele>40.0</ele><time>2026-03-31T08:36:55.166Z</time></trkpt><trkpt lat="41.1354867" lon="0.6520733"><ele>39.2</ele><time>2026-03-31T08:36:56.166Z</time></trkpt><trkpt lat="41.13539" lon="0.652075"><ele>38.4</ele><time>2026-03-31T08:36:57.166Z</time></trkpt><trkpt lat="41.135295" lon="0.6520717"><ele>37.6</ele><time>2026-03-31T08:36:58.166Z</time></trkpt><trkpt lat="41.1352067" lon="0.652065"><ele>36.8</ele><time>2026-03-31T08:36:59.166Z</time></trkpt><trkpt lat="41.135115" lon="0.6520567"><ele>36.0</ele><time>2026-03-31T08:37:00.166Z</time></trkpt><trkpt lat="41.1350217" lon="0.652045"><ele>36.0</ele><time>2026-03-31T08:37:01.166Z</time></trkpt><trkpt lat="41.134925" lon="0.65203"><ele>36.0</ele><time>2026-03-31T08:37:02.166Z</time></trkpt><trkpt lat="41.1348333" lon="0.6520317"><ele>36.0</ele><time>2026-03-31T08:37:03.165Z</time></trkpt><trkpt lat="41.1347383" lon="0.6520183"><ele>36.0</ele><time>2026-03-31T08:37:04.166Z</time></trkpt><trkpt lat="41.1346583" lon="0.6519917"><ele>36.0</ele><time>2026-03-31T08:37:05.165Z</time></trkpt><trkpt lat="41.134595" lon="0.6519383"><ele>36.0</ele><time>2026-03-31T08:37:06.165Z</time></trkpt><trkpt lat="41.1345533" lon="0.65187"><ele>34.5</ele><time>2026-03-31T08:37:07.165Z</time></trkpt><trkpt lat="41.1345183" lon="0.6517783"><ele>33.0</ele><time>2026-03-31T08:37:08.166Z</time></trkpt><trkpt lat="41.1344817" lon="0.651685"><ele>31.5</ele><time>2026-03-31T08:37:09.166Z</time></trkpt><trkpt lat="41.1344383" lon="0.6516167"><ele>30.0</ele><time>2026-03-31T08:37:10.165Z</time></trkpt><trkpt lat="41.134385" lon="0.6515683"><ele>28.5</ele><time>2026-03-31T08:37:11.166Z</time></trkpt><trkpt lat="41.13431" lon="0.6515267"><ele>27.0</ele><time>2026-03-31T08:37:13.165Z</time></trkpt><trkpt lat="41.134205" lon="0.6515167"><ele>27.0</ele><time>2026-03-31T08:37:28.166Z</time></trkpt><trkpt lat="41.134125" lon="0.6515517"><ele>27.0</ele><time>2026-03-31T08:37:29.165Z</time></trkpt><trkpt lat="41.13402" lon="0.6516033"><ele>27.0</ele><time>2026-03-31T08:37:30.165Z</time></trkpt><trkpt lat="41.1338767" lon="0.6516567"><ele>27.0</ele><time>2026-03-31T08:37:31.166Z</time></trkpt><trkpt lat="41.1336983" lon="0.6517067"><ele>27.333333333333336</ele><time>2026-03-31T08:37:32.165Z</time></trkpt><trkpt lat="41.1335133" lon="0.65174"><ele>27.666666666666668</ele><time>2026-03-31T08:37:33.165Z</time></trkpt><trkpt lat="41.133325" lon="0.651765"><ele>28.0</ele><time>2026-03-31T08:37:34.166Z</time></trkpt><trkpt lat="41.13313" lon="0.65178"><ele>28.333333333333336</ele><time>2026-03-31T08:37:35.166Z</time></trkpt><trkpt lat="41.1329267" lon="0.6517783"><ele>28.666666666666664</ele><time>2026-03-31T08:37:36.165Z</time></trkpt><trkpt lat="41.1327067" lon="0.6517567"><ele>29.0</ele><time>2026-03-31T08:37:37.166Z</time></trkpt><trkpt lat="41.1324767" lon="0.6517217"><ele>27.5</ele><time>2026-03-31T08:37:38.165Z</time></trkpt><trkpt lat="41.1322433" lon="0.6516683"><ele>26.0</ele><time>2026-03-31T08:37:39.165Z</time></trkpt><trkpt lat="41.1320133" lon="0.65159"><ele>26.0</ele><time>2026-03-31T08:37:40.166Z</time></trkpt><trkpt lat="41.1317917" lon="0.65149"><ele>26.0</ele><time>2026-03-31T08:37:41.165Z</time></trkpt><trkpt lat="41.13157" lon="0.651375"><ele>26.0</ele><time>2026-03-31T08:37:42.165Z</time></trkpt><trkpt lat="41.1313517" lon="0.6512433"><ele>26.0</ele><time>2026-03-31T08:37:43.165Z</time></trkpt><trkpt lat="41.1311383" lon="0.6510967"><ele>26.0</ele><time>2026-03-31T08:37:44.165Z</time></trkpt><trkpt lat="41.1309217" lon="0.6509283"><ele>26.0</ele><time>2026-03-31T08:37:45.166Z</time></trkpt><trkpt lat="41.1307133" lon="0.6507417"><ele>29.5</ele><time>2026-03-31T08:37:46.166Z</time></trkpt><trkpt lat="41.130515" lon="0.65053"><ele>33.0</ele><time>2026-03-31T08:37:47.165Z</time></trkpt><trkpt lat="41.13033" lon="0.6503083"><ele>32.5</ele><time>2026-03-31T08:37:48.165Z</time></trkpt><trkpt lat="41.1301667" lon="0.650055"><ele>32.0</ele><time>2026-03-31T08:37:49.165Z</time></trkpt><trkpt lat="41.1300283" lon="0.64977"><ele>32.0</ele><time>2026-03-31T08:37:50.165Z</time></trkpt><trkpt lat="41.129915" lon="0.64947"><ele>32.0</ele><time>2026-03-31T08:37:51.165Z</time></trkpt><trkpt lat="41.1298283" lon="0.6491667"><ele>34.5</ele><time>2026-03-31T08:37:52.165Z</time></trkpt><trkpt lat="41.129765" lon="0.6488667"><ele>37.0</ele><time>2026-03-31T08:37:53.165Z</time></trkpt><trkpt lat="41.1297217" lon="0.6485533"><ele>37.0</ele><time>2026-03-31T08:37:54.165Z</time></trkpt><trkpt lat="41.1296917" lon="0.6482367"><ele>37.0</ele><time>2026-03-31T08:37:55.165Z</time></trkpt><trkpt lat="41.1296633" lon="0.6479317"><ele>37.0</ele><time>2026-03-31T08:37:56.166Z</time></trkpt><trkpt lat="41.1296433" lon="0.6476283"><ele>37.0</ele><time>2026-03-31T08:37:57.165Z</time></trkpt><trkpt lat="41.129615" lon="0.6473417"><ele>37.0</ele><time>2026-03-31T08:37:58.166Z</time></trkpt><trkpt lat="41.1295933" lon="0.6470567"><ele>37.333333333333336</ele><time>2026-03-31T08:37:59.166Z</time></trkpt><trkpt lat="41.1295733" lon="0.6467833"><ele>37.666666666666664</ele><time>2026-03-31T08:38:00.165Z</time></trkpt><trkpt lat="41.1295583" lon="0.6465067"><ele>38.0</ele><time>2026-03-31T08:38:01.165Z</time></trkpt><trkpt lat="41.12953" lon="0.64624"><ele>38.0</ele><time>2026-03-31T08:38:02.166Z</time></trkpt><trkpt lat="41.129505" lon="0.6459783"><ele>38.0</ele><time>2026-03-31T08:38:03.166Z</time></trkpt><trkpt lat="41.1294783" lon="0.6457233"><ele>38.0</ele><time>2026-03-31T08:38:04.166Z</time></trkpt><trkpt lat="41.12946" lon="0.6454667"><ele>38.33333333333333</ele><time>2026-03-31T08:38:05.166Z</time></trkpt><trkpt lat="41.1294283" lon="0.6451833"><ele>38.666666666666664</ele><time>2026-03-31T08:38:06.165Z</time></trkpt><trkpt lat="41.1293967" lon="0.6449067"><ele>39.0</ele><time>2026-03-31T08:38:07.165Z</time></trkpt><trkpt lat="41.1293533" lon="0.64463"><ele>38.0</ele><time>2026-03-31T08:38:08.165Z</time></trkpt><trkpt lat="41.1293017" lon="0.64435"><ele>37.0</ele><time>2026-03-31T08:38:09.165Z</time></trkpt><trkpt lat="41.1292417" lon="0.64409"><ele>36.0</ele><time>2026-03-31T08:38:10.165Z</time></trkpt><trkpt lat="41.1291783" lon="0.6438383"><ele>35.666666666666664</ele><time>2026-03-31T08:38:11.165Z</time></trkpt><trkpt lat="41.1290933" lon="0.64359"><ele>35.33333333333333</ele><time>2026-03-31T08:38:12.165Z</time></trkpt><trkpt lat="41.1290083" lon="0.6433433"><ele>35.0</ele><time>2026-03-31T08:38:13.165Z</time></trkpt><trkpt lat="41.1289133" lon="0.6431033"><ele>35.666666666666664</ele><time>2026-03-31T08:38:14.165Z</time></trkpt><trkpt lat="41.1288017" lon="0.64286"><ele>36.333333333333336</ele><time>2026-03-31T08:38:15.165Z</time></trkpt><trkpt lat="41.12869" lon="0.6426483"><ele>37.0</ele><time>2026-03-31T08:38:16.166Z</time></trkpt><trkpt lat="41.12856" lon="0.6424417"><ele>37.0</ele><time>2026-03-31T08:38:17.166Z</time></trkpt><trkpt lat="41.1284217" lon="0.6422517"><ele>37.0</ele><time>2026-03-31T08:38:18.165Z</time></trkpt><trkpt lat="41.128275" lon="0.6420717"><ele>37.0</ele><time>2026-03-31T08:38:19.165Z</time></trkpt><trkpt lat="41.1281083" lon="0.6419033"><ele>36.66666666666667</ele><time>2026-03-31T08:38:20.166Z</time></trkpt><trkpt lat="41.1279267" lon="0.6417667"><ele>36.333333333333336</ele><time>2026-03-31T08:38:21.166Z</time></trkpt><trkpt lat="41.1277467" lon="0.6416483"><ele>36.0</ele><time>2026-03-31T08:38:22.165Z</time></trkpt><trkpt lat="41.12756" lon="0.6415567"><ele>38.0</ele><time>2026-03-31T08:38:23.166Z</time></trkpt><trkpt lat="41.1273583" lon="0.641475"><ele>40.0</ele><time>2026-03-31T08:38:24.165Z</time></trkpt><trkpt lat="41.1271467" lon="0.6414117"><ele>42.0</ele><time>2026-03-31T08:38:25.165Z</time></trkpt><trkpt lat="41.12694" lon="0.6413617"><ele>42.0</ele><time>2026-03-31T08:38:26.166Z</time></trkpt><trkpt lat="41.1267283" lon="0.6413217"><ele>42.0</ele><time>2026-03-31T08:38:27.165Z</time></trkpt><trkpt lat="41.1265283" lon="0.6412867"><ele>42.0</ele><time>2026-03-31T08:38:28.165Z</time></trkpt><trkpt lat="41.126315" lon="0.6412483"><ele>42.0</ele><time>2026-03-31T08:38:29.165Z</time></trkpt><trkpt lat="41.1261083" lon="0.6412117"><ele>42.0</ele><time>2026-03-31T08:38:30.165Z</time></trkpt><trkpt lat="41.1258983" lon="0.6411817"><ele>42.0</ele><time>2026-03-31T08:38:31.165Z</time></trkpt><trkpt lat="41.1256867" lon="0.64115"><ele>40.333333333333336</ele><time>2026-03-31T08:38:32.166Z</time></trkpt><trkpt lat="41.125475" lon="0.6411133"><ele>38.66666666666667</ele><time>2026-03-31T08:38:33.165Z</time></trkpt><trkpt lat="41.1252667" lon="0.6410817"><ele>37.0</ele><time>2026-03-31T08:38:34.166Z</time></trkpt><trkpt lat="41.1250517" lon="0.6410483"><ele>37.66666666666667</ele><time>2026-03-31T08:38:35.166Z</time></trkpt><trkpt lat="41.1248283" lon="0.64101"><ele>38.333333333333336</ele><time>2026-03-31T08:38:36.165Z</time></trkpt><trkpt lat="41.1246167" lon="0.6409833"><ele>39.0</ele><time>2026-03-31T08:38:37.166Z</time></trkpt><trkpt lat="41.1244" lon="0.6409483"><ele>39.0</ele><time>2026-03-31T08:38:38.165Z</time></trkpt><trkpt lat="41.1241867" lon="0.6409117"><ele>39.0</ele><time>2026-03-31T08:38:39.166Z</time></trkpt><trkpt lat="41.123985" lon="0.6408817"><ele>39.0</ele><time>2026-03-31T08:38:40.166Z</time></trkpt><trkpt lat="41.1237883" lon="0.6408517"><ele>38.333333333333336</ele><time>2026-03-31T08:38:41.165Z</time></trkpt><trkpt lat="41.1235917" lon="0.6408217"><ele>37.66666666666667</ele><time>2026-03-31T08:38:42.165Z</time></trkpt><trkpt lat="41.1234" lon="0.6407883"><ele>37.0</ele><time>2026-03-31T08:38:43.165Z</time></trkpt><trkpt lat="41.1232183" lon="0.6407617"><ele>36.333333333333336</ele><time>2026-03-31T08:38:44.165Z</time></trkpt><trkpt lat="41.1230283" lon="0.6407267"><ele>35.666666666666664</ele><time>2026-03-31T08:38:45.165Z</time></trkpt><trkpt lat="41.1228483" lon="0.6406933"><ele>35.0</ele><time>2026-03-31T08:38:46.165Z</time></trkpt><trkpt lat="41.12268" lon="0.640665"><ele>35.0</ele><time>2026-03-31T08:38:47.165Z</time></trkpt><trkpt lat="41.1225133" lon="0.6406383"><ele>35.0</ele><time>2026-03-31T08:38:48.166Z</time></trkpt><trkpt lat="41.1223567" lon="0.6406133"><ele>35.0</ele><time>2026-03-31T08:38:49.166Z</time></trkpt><trkpt lat="41.122215" lon="0.6405833"><ele>35.33333333333333</ele><time>2026-03-31T08:38:50.165Z</time></trkpt><trkpt lat="41.12207" lon="0.6405583"><ele>35.666666666666664</ele><time>2026-03-31T08:38:51.166Z</time></trkpt><trkpt lat="41.1219167" lon="0.6405267"><ele>36.0</ele><time>2026-03-31T08:38:52.165Z</time></trkpt><trkpt lat="41.1217633" lon="0.6405017"><ele>36.0</ele><time>2026-03-31T08:38:53.165Z</time></trkpt><trkpt lat="41.12161" lon="0.64048"><ele>36.0</ele><time>2026-03-31T08:38:54.166Z</time></trkpt><trkpt lat="41.1214717" lon="0.6404567"><ele>36.0</ele><time>2026-03-31T08:38:55.165Z</time></trkpt><trkpt lat="41.12134" lon="0.6404367"><ele>36.0</ele><time>2026-03-31T08:38:56.165Z</time></trkpt><trkpt lat="41.121215" lon="0.6404217"><ele>36.0</ele><time>2026-03-31T08:38:57.166Z</time></trkpt><trkpt lat="41.1210833" lon="0.6404017"><ele>36.0</ele><time>2026-03-31T08:38:58.165Z</time></trkpt><trkpt lat="41.1209483" lon="0.6403767"><ele>36.0</ele><time>2026-03-31T08:38:59.166Z</time></trkpt><trkpt lat="41.1208133" lon="0.64036"><ele>36.0</ele><time>2026-03-31T08:39:00.165Z</time></trkpt><trkpt lat="41.120665" lon="0.6403367"><ele>36.25</ele><time>2026-03-31T08:39:01.165Z</time></trkpt><trkpt lat="41.1205233" lon="0.6403167"><ele>36.5</ele><time>2026-03-31T08:39:02.166Z</time></trkpt><trkpt lat="41.1203917" lon="0.6403017"><ele>36.75</ele><time>2026-03-31T08:39:03.166Z</time></trkpt><trkpt lat="41.1202767" lon="0.6402917"><ele>37.0</ele><time>2026-03-31T08:39:04.165Z</time></trkpt><trkpt lat="41.120165" lon="0.640295"><ele>37.0</ele><time>2026-03-31T08:39:05.166Z</time></trkpt><trkpt lat="41.1200417" lon="0.6402967"><ele>37.0</ele><time>2026-03-31T08:39:06.165Z</time></trkpt><trkpt lat="41.1199217" lon="0.6403033"><ele>37.0</ele><time>2026-03-31T08:39:07.166Z</time></trkpt><trkpt lat="41.1197983" lon="0.6403167"><ele>37.0</ele><time>2026-03-31T08:39:08.165Z</time></trkpt><trkpt lat="41.1196617" lon="0.64033"><ele>37.25</ele><time>2026-03-31T08:39:09.166Z</time></trkpt><trkpt lat="41.1195267" lon="0.6403433"><ele>37.5</ele><time>2026-03-31T08:39:10.165Z</time></trkpt><trkpt lat="41.1193933" lon="0.6403583"><ele>37.75</ele><time>2026-03-31T08:39:11.166Z</time></trkpt><trkpt lat="41.119265" lon="0.64037"><ele>38.0</ele><time>2026-03-31T08:39:12.166Z</time></trkpt><trkpt lat="41.1191333" lon="0.6403817"><ele>37.5</ele><time>2026-03-31T08:39:13.165Z</time></trkpt><trkpt lat="41.11899" lon="0.640395"><ele>37.0</ele><time>2026-03-31T08:39:14.165Z</time></trkpt><trkpt lat="41.1188517" lon="0.6404083"><ele>36.5</ele><time>2026-03-31T08:39:15.165Z</time></trkpt><trkpt lat="41.1187067" lon="0.640425"><ele>36.0</ele><time>2026-03-31T08:39:16.166Z</time></trkpt><trkpt lat="41.1185633" lon="0.6404417"><ele>36.0</ele><time>2026-03-31T08:39:17.166Z</time></trkpt><trkpt lat="41.11842" lon="0.6404567"><ele>36.0</ele><time>2026-03-31T08:39:18.165Z</time></trkpt><trkpt lat="41.1182817" lon="0.6404733"><ele>36.0</ele><time>2026-03-31T08:39:19.165Z</time></trkpt><trkpt lat="41.11814" lon="0.6404883"><ele>36.0</ele><time>2026-03-31T08:39:20.165Z</time></trkpt><trkpt lat="41.1179933" lon="0.64051"><ele>36.25</ele><time>2026-03-31T08:39:21.166Z</time></trkpt><trkpt lat="41.1178517" lon="0.6405233"><ele>36.5</ele><time>2026-03-31T08:39:22.165Z</time></trkpt><trkpt lat="41.117715" lon="0.640535"><ele>36.75</ele><time>2026-03-31T08:39:23.165Z</time></trkpt><trkpt lat="41.1175783" lon="0.6405517"><ele>37.0</ele><time>2026-03-31T08:39:24.166Z</time></trkpt><trkpt lat="41.1174333" lon="0.6405683"><ele>36.66666666666667</ele><time>2026-03-31T08:39:25.165Z</time></trkpt><trkpt lat="41.1172817" lon="0.6405867"><ele>36.333333333333336</ele><time>2026-03-31T08:39:26.166Z</time></trkpt><trkpt lat="41.1171183" lon="0.6406067"><ele>36.0</ele><time>2026-03-31T08:39:27.165Z</time></trkpt><trkpt lat="41.1169517" lon="0.6406333"><ele>36.0</ele><time>2026-03-31T08:39:28.165Z</time></trkpt><trkpt lat="41.1167733" lon="0.6406617"><ele>36.0</ele><time>2026-03-31T08:39:29.165Z</time></trkpt><trkpt lat="41.1165783" lon="0.6406767"><ele>36.0</ele><time>2026-03-31T08:39:30.166Z</time></trkpt><trkpt lat="41.116375" lon="0.6406867"><ele>35.666666666666664</ele><time>2026-03-31T08:39:31.165Z</time></trkpt><trkpt lat="41.11617" lon="0.6406933"><ele>35.33333333333333</ele><time>2026-03-31T08:39:32.166Z</time></trkpt><trkpt lat="41.1159667" lon="0.64071"><ele>35.0</ele><time>2026-03-31T08:39:33.166Z</time></trkpt><trkpt lat="41.1157517" lon="0.6407317"><ele>35.0</ele><time>2026-03-31T08:39:34.165Z</time></trkpt><trkpt lat="41.1155467" lon="0.640755"><ele>35.0</ele><time>2026-03-31T08:39:35.166Z</time></trkpt><trkpt lat="41.1153383" lon="0.6407783"><ele>35.0</ele><time>2026-03-31T08:39:36.166Z</time></trkpt><trkpt lat="41.1151233" lon="0.6408033"><ele>35.0</ele><time>2026-03-31T08:39:37.166Z</time></trkpt><trkpt lat="41.114905" lon="0.64083"><ele>35.0</ele><time>2026-03-31T08:39:38.165Z</time></trkpt><trkpt lat="41.1146883" lon="0.6408517"><ele>35.0</ele><time>2026-03-31T08:39:39.166Z</time></trkpt><trkpt lat="41.114465" lon="0.6408733"><ele>35.0</ele><time>2026-03-31T08:39:40.165Z</time></trkpt><trkpt lat="41.1142367" lon="0.6408967"><ele>35.0</ele><time>2026-03-31T08:39:41.165Z</time></trkpt><trkpt lat="41.1140183" lon="0.6409183"><ele>35.0</ele><time>2026-03-31T08:39:42.165Z</time></trkpt><trkpt lat="41.1137967" lon="0.640945"><ele>35.0</ele><time>2026-03-31T08:39:43.165Z</time></trkpt><trkpt lat="41.1135767" lon="0.64097"><ele>35.0</ele><time>2026-03-31T08:39:44.166Z</time></trkpt><trkpt lat="41.1133617" lon="0.640995"><ele>35.0</ele><time>2026-03-31T08:39:45.165Z</time></trkpt><trkpt lat="41.1131433" lon="0.641015"><ele>35.33333333333333</ele><time>2026-03-31T08:39:46.165Z</time></trkpt><trkpt lat="41.1129233" lon="0.6410367"><ele>35.666666666666664</ele><time>2026-03-31T08:39:47.165Z</time></trkpt><trkpt lat="41.1127067" lon="0.64106"><ele>36.0</ele><time>2026-03-31T08:39:48.165Z</time></trkpt><trkpt lat="41.1124933" lon="0.6410867"><ele>35.666666666666664</ele><time>2026-03-31T08:39:49.165Z</time></trkpt><trkpt lat="41.1122717" lon="0.6411033"><ele>35.33333333333333</ele><time>2026-03-31T08:39:50.166Z</time></trkpt><trkpt lat="41.1120567" lon="0.6411333"><ele>35.0</ele><time>2026-03-31T08:39:51.165Z</time></trkpt><trkpt lat="41.1118417" lon="0.6411617"><ele>34.666666666666664</ele><time>2026-03-31T08:39:52.165Z</time></trkpt><trkpt lat="41.1116167" lon="0.6411817"><ele>34.333333333333336</ele><time>2026-03-31T08:39:53.165Z</time></trkpt><trkpt lat="41.1114" lon="0.6412017"><ele>34.0</ele><time>2026-03-31T08:39:54.165Z</time></trkpt><trkpt lat="41.111175" lon="0.6412267"><ele>34.5</ele><time>2026-03-31T08:39:55.166Z</time></trkpt><trkpt lat="41.110945" lon="0.6412483"><ele>35.0</ele><time>2026-03-31T08:39:56.165Z</time></trkpt><trkpt lat="41.110725" lon="0.6412733"><ele>35.0</ele><time>2026-03-31T08:39:57.165Z</time></trkpt><trkpt lat="41.1105117" lon="0.6412983"><ele>35.0</ele><time>2026-03-31T08:39:58.165Z</time></trkpt><trkpt lat="41.1103" lon="0.6413333"><ele>35.0</ele><time>2026-03-31T08:39:59.165Z</time></trkpt><trkpt lat="41.110085" lon="0.6413733"><ele>35.0</ele><time>2026-03-31T08:40:00.165Z</time></trkpt><trkpt lat="41.10987" lon="0.6414183"><ele>35.0</ele><time>2026-03-31T08:40:01.166Z</time></trkpt><trkpt lat="41.109655" lon="0.6414617"><ele>35.0</ele><time>2026-03-31T08:40:02.166Z</time></trkpt><trkpt lat="41.1094383" lon="0.6415117"><ele>35.0</ele><time>2026-03-31T08:40:03.166Z</time></trkpt><trkpt lat="41.1092167" lon="0.6415583"><ele>35.0</ele><time>2026-03-31T08:40:04.166Z</time></trkpt><trkpt lat="41.109" lon="0.6416183"><ele>35.0</ele><time>2026-03-31T08:40:05.165Z</time></trkpt><trkpt lat="41.10878" lon="0.6416833"><ele>35.5</ele><time>2026-03-31T08:40:06.165Z</time></trkpt><trkpt lat="41.1085617" lon="0.6417633"><ele>36.0</ele><time>2026-03-31T08:40:07.165Z</time></trkpt><trkpt lat="41.10834" lon="0.6418467"><ele>36.0</ele><time>2026-03-31T08:40:08.165Z</time></trkpt><trkpt lat="41.1081133" lon="0.6419317"><ele>36.0</ele><time>2026-03-31T08:40:09.166Z</time></trkpt><trkpt lat="41.1078883" lon="0.642015"><ele>36.0</ele><time>2026-03-31T08:40:10.166Z</time></trkpt><trkpt lat="41.1076583" lon="0.6421033"><ele>36.0</ele><time>2026-03-31T08:40:11.166Z</time></trkpt><trkpt lat="41.1074217" lon="0.64219"><ele>36.5</ele><time>2026-03-31T08:40:12.165Z</time></trkpt><trkpt lat="41.1071867" lon="0.64228"><ele>37.0</ele><time>2026-03-31T08:40:13.165Z</time></trkpt><trkpt lat="41.1069483" lon="0.642375"><ele>37.0</ele><time>2026-03-31T08:40:14.166Z</time></trkpt><trkpt lat="41.1067117" lon="0.6424683"><ele>37.0</ele><time>2026-03-31T08:40:15.166Z</time></trkpt><trkpt lat="41.1064733" lon="0.64256"><ele>36.0</ele><time>2026-03-31T08:40:16.165Z</time></trkpt><trkpt lat="41.106235" lon="0.6426583"><ele>35.0</ele><time>2026-03-31T08:40:17.165Z</time></trkpt><trkpt lat="41.106" lon="0.64275"><ele>35.0</ele><time>2026-03-31T08:40:18.165Z</time></trkpt><trkpt lat="41.10576" lon="0.642835"><ele>35.0</ele><time>2026-03-31T08:40:19.166Z</time></trkpt><trkpt lat="41.1055233" lon="0.6429233"><ele>35.0</ele><time>2026-03-31T08:40:20.165Z</time></trkpt><trkpt lat="41.105295" lon="0.6430167"><ele>35.0</ele><time>2026-03-31T08:40:21.166Z</time></trkpt><trkpt lat="41.10506" lon="0.6431083"><ele>33.5</ele><time>2026-03-31T08:40:22.165Z</time></trkpt><trkpt lat="41.1048267" lon="0.6432033"><ele>32.0</ele><time>2026-03-31T08:40:23.165Z</time></trkpt><trkpt lat="41.1045867" lon="0.6432933"><ele>32.0</ele><time>2026-03-31T08:40:24.166Z</time></trkpt><trkpt lat="41.104345" lon="0.643385"><ele>32.0</ele><time>2026-03-31T08:40:25.165Z</time></trkpt><trkpt lat="41.1041117" lon="0.6434733"><ele>31.5</ele><time>2026-03-31T08:40:26.165Z</time></trkpt><trkpt lat="41.1038733" lon="0.643565"><ele>31.0</ele><time>2026-03-31T08:40:27.165Z</time></trkpt><trkpt lat="41.1036283" lon="0.64366"><ele>31.5</ele><time>2026-03-31T08:40:28.166Z</time></trkpt><trkpt lat="41.1033967" lon="0.6437517"><ele>32.0</ele><time>2026-03-31T08:40:29.166Z</time></trkpt><trkpt lat="41.1031583" lon="0.6438383"><ele>32.0</ele><time>2026-03-31T08:40:30.166Z</time></trkpt><trkpt lat="41.10292" lon="0.643925"><ele>32.0</ele><time>2026-03-31T08:40:31.165Z</time></trkpt><trkpt lat="41.102695" lon="0.6440267"><ele>32.0</ele><time>2026-03-31T08:40:32.165Z</time></trkpt><trkpt lat="41.1024567" lon="0.6441233"><ele>32.0</ele><time>2026-03-31T08:40:33.165Z</time></trkpt><trkpt lat="41.1022233" lon="0.6442183"><ele>30.5</ele><time>2026-03-31T08:40:34.165Z</time></trkpt><trkpt lat="41.10199" lon="0.6443183"><ele>29.0</ele><time>2026-03-31T08:40:35.166Z</time></trkpt><trkpt lat="41.101755" lon="0.6444267"><ele>28.5</ele><time>2026-03-31T08:40:36.166Z</time></trkpt><trkpt lat="41.1015033" lon="0.644535"><ele>28.0</ele><time>2026-03-31T08:40:37.166Z</time></trkpt><trkpt lat="41.101265" lon="0.6446517"><ele>28.0</ele><time>2026-03-31T08:40:38.166Z</time></trkpt><trkpt lat="41.101025" lon="0.64478"><ele>28.0</ele><time>2026-03-31T08:40:39.166Z</time></trkpt><trkpt lat="41.1007817" lon="0.64491"><ele>26.5</ele><time>2026-03-31T08:40:40.166Z</time></trkpt><trkpt lat="41.100545" lon="0.6450433"><ele>25.0</ele><time>2026-03-31T08:40:41.165Z</time></trkpt><trkpt lat="41.10032" lon="0.645175"><ele>25.5</ele><time>2026-03-31T08:40:42.165Z</time></trkpt><trkpt lat="41.1000833" lon="0.645315"><ele>26.0</ele><time>2026-03-31T08:40:43.165Z</time></trkpt><trkpt lat="41.0998567" lon="0.6454467"><ele>26.0</ele><time>2026-03-31T08:40:44.165Z</time></trkpt><trkpt lat="41.0996217" lon="0.6455733"><ele>26.0</ele><time>2026-03-31T08:40:45.166Z</time></trkpt><trkpt lat="41.0993933" lon="0.645705"><ele>26.0</ele><time>2026-03-31T08:40:46.166Z</time></trkpt><trkpt lat="41.0991667" lon="0.6458317"><ele>26.0</ele><time>2026-03-31T08:40:47.166Z</time></trkpt><trkpt lat="41.0989467" lon="0.6459633"><ele>26.0</ele><time>2026-03-31T08:40:48.166Z</time></trkpt><trkpt lat="41.0987267" lon="0.64609"><ele>26.0</ele><time>2026-03-31T08:40:49.166Z</time></trkpt><trkpt lat="41.0985083" lon="0.6462167"><ele>25.5</ele><time>2026-03-31T08:40:50.165Z</time></trkpt><trkpt lat="41.09829" lon="0.64635"><ele>25.0</ele><time>2026-03-31T08:40:51.165Z</time></trkpt><trkpt lat="41.0980717" lon="0.6464817"><ele>25.0</ele><time>2026-03-31T08:40:52.165Z</time></trkpt><trkpt lat="41.0978567" lon="0.6466183"><ele>25.0</ele><time>2026-03-31T08:40:53.166Z</time></trkpt><trkpt lat="41.0976433" lon="0.646745"><ele>25.0</ele><time>2026-03-31T08:40:54.166Z</time></trkpt><trkpt lat="41.097445" lon="0.6468633"><ele>25.0</ele><time>2026-03-31T08:40:55.165Z</time></trkpt><trkpt lat="41.0972533" lon="0.6469783"><ele>25.0</ele><time>2026-03-31T08:40:56.165Z</time></trkpt><trkpt lat="41.0970783" lon="0.6471033"><ele>25.666666666666668</ele><time>2026-03-31T08:40:57.166Z</time></trkpt><trkpt lat="41.0969167" lon="0.6472267"><ele>26.333333333333336</ele><time>2026-03-31T08:40:58.166Z</time></trkpt><trkpt lat="41.096775" lon="0.6473383"><ele>27.0</ele><time>2026-03-31T08:40:59.165Z</time></trkpt><trkpt lat="41.09666" lon="0.647455"><ele>26.8</ele><time>2026-03-31T08:41:00.165Z</time></trkpt><trkpt lat="41.0965683" lon="0.6475667"><ele>26.6</ele><time>2026-03-31T08:41:01.165Z</time></trkpt><trkpt lat="41.096495" lon="0.647665"><ele>26.400000000000002</ele><time>2026-03-31T08:41:02.166Z</time></trkpt><trkpt lat="41.0964267" lon="0.647755"><ele>26.200000000000003</ele><time>2026-03-31T08:41:03.165Z</time></trkpt><trkpt lat="41.0963717" lon="0.6478283"><ele>26.0</ele><time>2026-03-31T08:41:04.165Z</time></trkpt><trkpt lat="41.0963217" lon="0.6478817"><ele>26.0</ele><time>2026-03-31T08:41:05.165Z</time></trkpt><trkpt lat="41.09623" lon="0.6479583"><ele>26.0</ele><time>2026-03-31T08:41:07.166Z</time></trkpt><trkpt lat="41.0961617" lon="0.64799"><ele>26.0</ele><time>2026-03-31T08:41:08.166Z</time></trkpt><trkpt lat="41.0960783" lon="0.6480283"><ele>26.0</ele><time>2026-03-31T08:41:09.165Z</time></trkpt><trkpt lat="41.0959717" lon="0.648075"><ele>26.0</ele><time>2026-03-31T08:41:10.166Z</time></trkpt><trkpt lat="41.095855" lon="0.648105"><ele>26.25</ele><time>2026-03-31T08:41:11.165Z</time></trkpt><trkpt lat="41.0957233" lon="0.648095"><ele>26.5</ele><time>2026-03-31T08:41:12.165Z</time></trkpt><trkpt lat="41.0955967" lon="0.6480767"><ele>26.75</ele><time>2026-03-31T08:41:13.165Z</time></trkpt><trkpt lat="41.0954567" lon="0.6480433"><ele>27.0</ele><time>2026-03-31T08:41:14.166Z</time></trkpt><trkpt lat="41.0953133" lon="0.6480183"><ele>27.0</ele><time>2026-03-31T08:41:15.165Z</time></trkpt><trkpt lat="41.0951667" lon="0.6479833"><ele>27.0</ele><time>2026-03-31T08:41:16.165Z</time></trkpt><trkpt lat="41.09503" lon="0.647955"><ele>27.0</ele><time>2026-03-31T08:41:17.166Z</time></trkpt><trkpt lat="41.0948917" lon="0.6479317"><ele>27.0</ele><time>2026-03-31T08:41:18.165Z</time></trkpt><trkpt lat="41.09475" lon="0.6479067"><ele>26.75</ele><time>2026-03-31T08:41:19.165Z</time></trkpt><trkpt lat="41.09461" lon="0.6478783"><ele>26.5</ele><time>2026-03-31T08:41:20.165Z</time></trkpt><trkpt lat="41.0944717" lon="0.6478483"><ele>26.25</ele><time>2026-03-31T08:41:21.166Z</time></trkpt><trkpt lat="41.0943383" lon="0.6478183"><ele>26.0</ele><time>2026-03-31T08:41:22.165Z</time></trkpt><trkpt lat="41.0942067" lon="0.6477917"><ele>26.5</ele><time>2026-03-31T08:41:23.166Z</time></trkpt><trkpt lat="41.09408" lon="0.6477667"><ele>27.0</ele><time>2026-03-31T08:41:24.165Z</time></trkpt><trkpt lat="41.0939567" lon="0.6477383"><ele>27.5</ele><time>2026-03-31T08:41:25.166Z</time></trkpt><trkpt lat="41.0938317" lon="0.6477183"><ele>28.0</ele><time>2026-03-31T08:41:26.166Z</time></trkpt><trkpt lat="41.0937083" lon="0.6476933"><ele>28.0</ele><time>2026-03-31T08:41:27.166Z</time></trkpt><trkpt lat="41.0935817" lon="0.6476717"><ele>28.0</ele><time>2026-03-31T08:41:28.165Z</time></trkpt><trkpt lat="41.0934483" lon="0.6476483"><ele>28.0</ele><time>2026-03-31T08:41:29.165Z</time></trkpt><trkpt lat="41.0933183" lon="0.6476267"><ele>28.0</ele><time>2026-03-31T08:41:30.166Z</time></trkpt><trkpt lat="41.09319" lon="0.6476017"><ele>27.5</ele><time>2026-03-31T08:41:31.166Z</time></trkpt><trkpt lat="41.0930617" lon="0.64758"><ele>27.0</ele><time>2026-03-31T08:41:32.165Z</time></trkpt><trkpt lat="41.0929333" lon="0.6475567"><ele>26.5</ele><time>2026-03-31T08:41:33.166Z</time></trkpt><trkpt lat="41.09281" lon="0.6475317"><ele>26.0</ele><time>2026-03-31T08:41:34.166Z</time></trkpt><trkpt lat="41.0926767" lon="0.6475083"><ele>26.0</ele><time>2026-03-31T08:41:35.166Z</time></trkpt><trkpt lat="41.0925467" lon="0.6474733"><ele>26.0</ele><time>2026-03-31T08:41:36.165Z</time></trkpt><trkpt lat="41.09242" lon="0.64743"><ele>26.0</ele><time>2026-03-31T08:41:37.165Z</time></trkpt><trkpt lat="41.0922967" lon="0.6473767"><ele>26.0</ele><time>2026-03-31T08:41:38.165Z</time></trkpt><trkpt lat="41.0921767" lon="0.64731"><ele>26.0</ele><time>2026-03-31T08:41:39.165Z</time></trkpt><trkpt lat="41.0920617" lon="0.6472233"><ele>26.0</ele><time>2026-03-31T08:41:40.165Z</time></trkpt><trkpt lat="41.0919533" lon="0.64712"><ele>26.0</ele><time>2026-03-31T08:41:41.165Z</time></trkpt><trkpt lat="41.0918517" lon="0.6470033"><ele>26.0</ele><time>2026-03-31T08:41:42.166Z</time></trkpt><trkpt lat="41.091755" lon="0.64687"><ele>26.0</ele><time>2026-03-31T08:41:43.165Z</time></trkpt><trkpt lat="41.0916717" lon="0.64673"><ele>26.0</ele><time>2026-03-31T08:41:44.165Z</time></trkpt><trkpt lat="41.09159" lon="0.6466017"><ele>26.0</ele><time>2026-03-31T08:41:45.166Z</time></trkpt><trkpt lat="41.0915117" lon="0.6464667"><ele>26.0</ele><time>2026-03-31T08:41:46.166Z</time></trkpt><trkpt lat="41.09144" lon="0.6463383"><ele>25.75</ele><time>2026-03-31T08:41:47.165Z</time></trkpt><trkpt lat="41.0913567" lon="0.6462"><ele>25.5</ele><time>2026-03-31T08:41:48.165Z</time></trkpt><trkpt lat="41.0912833" lon="0.6460767"><ele>25.25</ele><time>2026-03-31T08:41:49.166Z</time></trkpt><trkpt lat="41.09122" lon="0.64595"><ele>25.0</ele><time>2026-03-31T08:41:50.166Z</time></trkpt><trkpt lat="41.0911533" lon="0.6458333"><ele>25.0</ele><time>2026-03-31T08:41:51.165Z</time></trkpt><trkpt lat="41.091085" lon="0.6457117"><ele>25.0</ele><time>2026-03-31T08:41:52.165Z</time></trkpt><trkpt lat="41.0910183" lon="0.645595"><ele>25.0</ele><time>2026-03-31T08:41:53.165Z</time></trkpt><trkpt lat="41.0909483" lon="0.6454833"><ele>25.0</ele><time>2026-03-31T08:41:54.165Z</time></trkpt><trkpt lat="41.090885" lon="0.6453683"><ele>25.0</ele><time>2026-03-31T08:41:55.165Z</time></trkpt><trkpt lat="41.09081" lon="0.645245"><ele>25.25</ele><time>2026-03-31T08:41:56.166Z</time></trkpt><trkpt lat="41.09074" lon="0.64513"><ele>25.5</ele><time>2026-03-31T08:41:57.165Z</time></trkpt><trkpt lat="41.0906583" lon="0.645005"><ele>25.75</ele><time>2026-03-31T08:41:58.165Z</time></trkpt><trkpt lat="41.0905867" lon="0.6448933"><ele>26.0</ele><time>2026-03-31T08:41:59.166Z</time></trkpt><trkpt lat="41.09052" lon="0.6447717"><ele>26.0</ele><time>2026-03-31T08:42:00.165Z</time></trkpt><trkpt lat="41.0904533" lon="0.6446533"><ele>26.0</ele><time>2026-03-31T08:42:01.165Z</time></trkpt><trkpt lat="41.0903833" lon="0.64453"><ele>26.0</ele><time>2026-03-31T08:42:02.165Z</time></trkpt><trkpt lat="41.090315" lon="0.6444217"><ele>26.0</ele><time>2026-03-31T08:42:03.166Z</time></trkpt><trkpt lat="41.0902467" lon="0.64431"><ele>26.0</ele><time>2026-03-31T08:42:04.165Z</time></trkpt><trkpt lat="41.090185" lon="0.6441983"><ele>26.999999999999996</ele><time>2026-03-31T08:42:05.165Z</time></trkpt><trkpt lat="41.090125" lon="0.6440983"><ele>28.0</ele><time>2026-03-31T08:42:06.165Z</time></trkpt><trkpt lat="41.0900683" lon="0.6440067"><ele>29.0</ele><time>2026-03-31T08:42:07.165Z</time></trkpt><trkpt lat="41.090015" lon="0.6439333"><ele>30.0</ele><time>2026-03-31T08:42:08.166Z</time></trkpt><trkpt lat="41.089965" lon="0.6438617"><ele>30.999999999999996</ele><time>2026-03-31T08:42:09.166Z</time></trkpt><trkpt lat="41.0899333" lon="0.6437883"><ele>32.0</ele><time>2026-03-31T08:42:10.165Z</time></trkpt><trkpt lat="41.0898717" lon="0.6436633"><ele>33.14285714285714</ele><time>2026-03-31T08:42:12.166Z</time></trkpt><trkpt lat="41.0898183" lon="0.6436"><ele>34.285714285714285</ele><time>2026-03-31T08:42:13.166Z</time></trkpt><trkpt lat="41.0897617" lon="0.643525"><ele>35.42857142857143</ele><time>2026-03-31T08:42:14.165Z</time></trkpt><trkpt lat="41.089705" lon="0.643445"><ele>36.57142857142857</ele><time>2026-03-31T08:42:15.166Z</time></trkpt><trkpt lat="41.0896583" lon="0.64337"><ele>37.714285714285715</ele><time>2026-03-31T08:42:16.166Z</time></trkpt><trkpt lat="41.0896167" lon="0.6432983"><ele>38.857142857142854</ele><time>2026-03-31T08:42:17.165Z</time></trkpt><trkpt lat="41.089575" lon="0.6432267"><ele>40.0</ele><time>2026-03-31T08:42:18.165Z</time></trkpt><trkpt lat="41.0895333" lon="0.6431617"><ele>40.0</ele><time>2026-03-31T08:42:19.165Z</time></trkpt><trkpt lat="41.0894917" lon="0.64309"><ele>40.0</ele><time>2026-03-31T08:42:20.166Z</time></trkpt><trkpt lat="41.0894533" lon="0.6430167"><ele>40.0</ele><time>2026-03-31T08:42:21.166Z</time></trkpt><trkpt lat="41.0893967" lon="0.642965"><ele>40.0</ele><time>2026-03-31T08:42:22.165Z</time></trkpt><trkpt lat="41.0893583" lon="0.6428933"><ele>40.0</ele><time>2026-03-31T08:42:23.165Z</time></trkpt><trkpt lat="41.08932" lon="0.6428267"><ele>40.0</ele><time>2026-03-31T08:42:24.165Z</time></trkpt><trkpt lat="41.08928" lon="0.6427483"><ele>40.0</ele><time>2026-03-31T08:42:25.166Z</time></trkpt><trkpt lat="41.0892483" lon="0.6426667"><ele>40.333333333333336</ele><time>2026-03-31T08:42:26.165Z</time></trkpt><trkpt lat="41.0892067" lon="0.6425767"><ele>40.66666666666667</ele><time>2026-03-31T08:42:27.166Z</time></trkpt><trkpt lat="41.0891667" lon="0.6424783"><ele>41.0</ele><time>2026-03-31T08:42:28.166Z</time></trkpt><trkpt lat="41.0891317" lon="0.6423917"><ele>41.333333333333336</ele><time>2026-03-31T08:42:29.165Z</time></trkpt><trkpt lat="41.089085" lon="0.642265"><ele>41.666666666666664</ele><time>2026-03-31T08:42:31.166Z</time></trkpt><trkpt lat="41.089045" lon="0.6421433"><ele>42.0</ele><time>2026-03-31T08:42:33.166Z</time></trkpt><trkpt lat="41.0890033" lon="0.6419883"><ele>42.42857142857143</ele><time>2026-03-31T08:42:35.165Z</time></trkpt><trkpt lat="41.08898" lon="0.6419067"><ele>42.85714285714286</ele><time>2026-03-31T08:42:36.165Z</time></trkpt><trkpt lat="41.0889583" lon="0.6418167"><ele>43.285714285714285</ele><time>2026-03-31T08:42:37.166Z</time></trkpt><trkpt lat="41.0889367" lon="0.6417233"><ele>43.714285714285715</ele><time>2026-03-31T08:42:38.165Z</time></trkpt><trkpt lat="41.0889133" lon="0.641635"><ele>44.142857142857146</ele><time>2026-03-31T08:42:39.166Z</time></trkpt><trkpt lat="41.0888917" lon="0.6415517"><ele>44.57142857142857</ele><time>2026-03-31T08:42:40.165Z</time></trkpt><trkpt lat="41.0888667" lon="0.6414683"><ele>45.0</ele><time>2026-03-31T08:42:41.165Z</time></trkpt><trkpt lat="41.0888467" lon="0.6413883"><ele>45.0</ele><time>2026-03-31T08:42:42.166Z</time></trkpt><trkpt lat="41.0888167" lon="0.6412517"><ele>45.0</ele><time>2026-03-31T08:42:44.165Z</time></trkpt><trkpt lat="41.0887917" lon="0.6411217"><ele>45.0</ele><time>2026-03-31T08:42:46.165Z</time></trkpt><trkpt lat="41.0887467" lon="0.6409733"><ele>45.0</ele><time>2026-03-31T08:42:48.166Z</time></trkpt><trkpt lat="41.0887333" lon="0.6408833"><ele>45.0</ele><time>2026-03-31T08:42:49.165Z</time></trkpt><trkpt lat="41.0887233" lon="0.640795"><ele>45.6</ele><time>2026-03-31T08:42:50.165Z</time></trkpt><trkpt lat="41.0887117" lon="0.64067"><ele>46.2</ele><time>2026-03-31T08:42:52.165Z</time></trkpt><trkpt lat="41.0886817" lon="0.6405467"><ele>46.8</ele><time>2026-03-31T08:42:54.166Z</time></trkpt><trkpt lat="41.088645" lon="0.6403817"><ele>47.4</ele><time>2026-03-31T08:42:56.166Z</time></trkpt><trkpt lat="41.088625" lon="0.6402817"><ele>48.0</ele><time>2026-03-31T08:42:57.166Z</time></trkpt><trkpt lat="41.0886083" lon="0.640185"><ele>48.166666666666664</ele><time>2026-03-31T08:42:58.166Z</time></trkpt><trkpt lat="41.0885967" lon="0.6400883"><ele>48.33333333333333</ele><time>2026-03-31T08:42:59.165Z</time></trkpt><trkpt lat="41.0885717" lon="0.6399967"><ele>48.5</ele><time>2026-03-31T08:43:00.165Z</time></trkpt><trkpt lat="41.0885533" lon="0.6398917"><ele>48.666666666666664</ele><time>2026-03-31T08:43:01.165Z</time></trkpt><trkpt lat="41.088535" lon="0.6397883"><ele>48.83333333333333</ele><time>2026-03-31T08:43:02.165Z</time></trkpt><trkpt lat="41.0885133" lon="0.6396833"><ele>49.0</ele><time>2026-03-31T08:43:03.165Z</time></trkpt><trkpt lat="41.0884817" lon="0.63958"><ele>49.0</ele><time>2026-03-31T08:43:04.166Z</time></trkpt><trkpt lat="41.0884517" lon="0.6394817"><ele>49.0</ele><time>2026-03-31T08:43:05.165Z</time></trkpt><trkpt lat="41.088425" lon="0.6393867"><ele>49.0</ele><time>2026-03-31T08:43:06.165Z</time></trkpt><trkpt lat="41.0884033" lon="0.639305"><ele>49.0</ele><time>2026-03-31T08:43:07.165Z</time></trkpt><trkpt lat="41.0883817" lon="0.6392233"><ele>49.0</ele><time>2026-03-31T08:43:08.166Z</time></trkpt><trkpt lat="41.088355" lon="0.6391467"><ele>49.0</ele><time>2026-03-31T08:43:09.166Z</time></trkpt><trkpt lat="41.08834" lon="0.6390567"><ele>49.0</ele><time>2026-03-31T08:43:10.165Z</time></trkpt><trkpt lat="41.0883183" lon="0.6389717"><ele>49.400000000000006</ele><time>2026-03-31T08:43:11.165Z</time></trkpt><trkpt lat="41.0882967" lon="0.638885"><ele>49.8</ele><time>2026-03-31T08:43:12.166Z</time></trkpt><trkpt lat="41.0882817" lon="0.63879"><ele>50.2</ele><time>2026-03-31T08:43:13.166Z</time></trkpt><trkpt lat="41.08825" lon="0.63866"><ele>50.599999999999994</ele><time>2026-03-31T08:43:14.165Z</time></trkpt><trkpt lat="41.0882117" lon="0.638525"><ele>51.0</ele><time>2026-03-31T08:43:15.166Z</time></trkpt><trkpt lat="41.0881733" lon="0.6383783"><ele>51.0</ele><time>2026-03-31T08:43:16.165Z</time></trkpt><trkpt lat="41.0881383" lon="0.6382317"><ele>51.0</ele><time>2026-03-31T08:43:17.165Z</time></trkpt><trkpt lat="41.0881067" lon="0.6380883"><ele>51.0</ele><time>2026-03-31T08:43:18.165Z</time></trkpt><trkpt lat="41.08807" lon="0.6379467"><ele>51.0</ele><time>2026-03-31T08:43:19.166Z</time></trkpt><trkpt lat="41.08803" lon="0.6378"><ele>51.199999999999996</ele><time>2026-03-31T08:43:20.166Z</time></trkpt><trkpt lat="41.08799" lon="0.637665"><ele>51.4</ele><time>2026-03-31T08:43:21.165Z</time></trkpt><trkpt lat="41.0879583" lon="0.6375283"><ele>51.6</ele><time>2026-03-31T08:43:22.166Z</time></trkpt><trkpt lat="41.08792" lon="0.6374017"><ele>51.8</ele><time>2026-03-31T08:43:23.166Z</time></trkpt><trkpt lat="41.08789" lon="0.6372867"><ele>52.0</ele><time>2026-03-31T08:43:24.165Z</time></trkpt><trkpt lat="41.0878633" lon="0.6371883"><ele>51.99999999999999</ele><time>2026-03-31T08:43:25.165Z</time></trkpt><trkpt lat="41.08784" lon="0.63709"><ele>52.0</ele><time>2026-03-31T08:43:26.165Z</time></trkpt><trkpt lat="41.0878167" lon="0.6369917"><ele>52.0</ele><time>2026-03-31T08:43:27.165Z</time></trkpt><trkpt lat="41.0877983" lon="0.6368867"><ele>52.0</ele><time>2026-03-31T08:43:28.166Z</time></trkpt><trkpt lat="41.0877717" lon="0.6367733"><ele>51.99999999999999</ele><time>2026-03-31T08:43:29.166Z</time></trkpt><trkpt lat="41.0877467" lon="0.63666"><ele>52.0</ele><time>2026-03-31T08:43:30.165Z</time></trkpt><trkpt lat="41.0877217" lon="0.63656"><ele>52.6</ele><time>2026-03-31T08:43:31.165Z</time></trkpt><trkpt lat="41.0876917" lon="0.636465"><ele>53.2</ele><time>2026-03-31T08:43:32.165Z</time></trkpt><trkpt lat="41.087665" lon="0.6363583"><ele>53.8</ele><time>2026-03-31T08:43:33.166Z</time></trkpt><trkpt lat="41.0876333" lon="0.6362467"><ele>54.4</ele><time>2026-03-31T08:43:34.165Z</time></trkpt><trkpt lat="41.0875867" lon="0.6361233"><ele>55.0</ele><time>2026-03-31T08:43:35.166Z</time></trkpt><trkpt lat="41.087535" lon="0.6359933"><ele>55.0</ele><time>2026-03-31T08:43:36.165Z</time></trkpt><trkpt lat="41.087495" lon="0.6358567"><ele>55.0</ele><time>2026-03-31T08:43:37.165Z</time></trkpt><trkpt lat="41.0874617" lon="0.6357267"><ele>55.0</ele><time>2026-03-31T08:43:38.166Z</time></trkpt><trkpt lat="41.0874233" lon="0.63559"><ele>55.0</ele><time>2026-03-31T08:43:39.165Z</time></trkpt><trkpt lat="41.0873833" lon="0.6354483"><ele>55.0</ele><time>2026-03-31T08:43:40.166Z</time></trkpt><trkpt lat="41.0873467" lon="0.6352933"><ele>55.0</ele><time>2026-03-31T08:43:41.165Z</time></trkpt><trkpt lat="41.0873" lon="0.63514"><ele>55.0</ele><time>2026-03-31T08:43:42.165Z</time></trkpt><trkpt lat="41.0872633" lon="0.6349883"><ele>55.0</ele><time>2026-03-31T08:43:43.165Z</time></trkpt><trkpt lat="41.087215" lon="0.634835"><ele>55.0</ele><time>2026-03-31T08:43:44.165Z</time></trkpt><trkpt lat="41.0871717" lon="0.6346783"><ele>55.0</ele><time>2026-03-31T08:43:45.165Z</time></trkpt><trkpt lat="41.0871267" lon="0.6345167"><ele>55.0</ele><time>2026-03-31T08:43:46.166Z</time></trkpt><trkpt lat="41.087085" lon="0.634355"><ele>55.0</ele><time>2026-03-31T08:43:47.166Z</time></trkpt><trkpt lat="41.0870417" lon="0.6342033"><ele>55.0</ele><time>2026-03-31T08:43:48.166Z</time></trkpt><trkpt lat="41.087005" lon="0.6340583"><ele>55.5</ele><time>2026-03-31T08:43:49.165Z</time></trkpt><trkpt lat="41.0869517" lon="0.633925"><ele>56.0</ele><time>2026-03-31T08:43:50.165Z</time></trkpt><trkpt lat="41.0869067" lon="0.6337817"><ele>56.5</ele><time>2026-03-31T08:43:51.165Z</time></trkpt><trkpt lat="41.08686" lon="0.6336467"><ele>57.0</ele><time>2026-03-31T08:43:52.166Z</time></trkpt><trkpt lat="41.0868217" lon="0.6335117"><ele>57.0</ele><time>2026-03-31T08:43:53.165Z</time></trkpt><trkpt lat="41.0867783" lon="0.6333767"><ele>57.0</ele><time>2026-03-31T08:43:54.166Z</time></trkpt><trkpt lat="41.0867433" lon="0.6332433"><ele>57.0</ele><time>2026-03-31T08:43:55.166Z</time></trkpt><trkpt lat="41.0867167" lon="0.6331133"><ele>57.0</ele><time>2026-03-31T08:43:56.165Z</time></trkpt><trkpt lat="41.0866817" lon="0.6329767"><ele>57.0</ele><time>2026-03-31T08:43:57.166Z</time></trkpt><trkpt lat="41.0866483" lon="0.6328433"><ele>57.0</ele><time>2026-03-31T08:43:58.165Z</time></trkpt><trkpt lat="41.0866233" lon="0.6327083"><ele>57.0</ele><time>2026-03-31T08:43:59.166Z</time></trkpt><trkpt lat="41.0865883" lon="0.632565"><ele>57.0</ele><time>2026-03-31T08:44:00.166Z</time></trkpt><trkpt lat="41.0865467" lon="0.6324133"><ele>57.0</ele><time>2026-03-31T08:44:01.165Z</time></trkpt><trkpt lat="41.08651" lon="0.63227"><ele>57.0</ele><time>2026-03-31T08:44:02.166Z</time></trkpt><trkpt lat="41.0864717" lon="0.6321283"><ele>57.0</ele><time>2026-03-31T08:44:03.166Z</time></trkpt><trkpt lat="41.086435" lon="0.6319833"><ele>57.0</ele><time>2026-03-31T08:44:04.166Z</time></trkpt><trkpt lat="41.086395" lon="0.631835"><ele>57.0</ele><time>2026-03-31T08:44:05.166Z</time></trkpt><trkpt lat="41.0863517" lon="0.6316783"><ele>57.25</ele><time>2026-03-31T08:44:06.165Z</time></trkpt><trkpt lat="41.0862967" lon="0.6315083"><ele>57.5</ele><time>2026-03-31T08:44:07.165Z</time></trkpt><trkpt lat="41.0862433" lon="0.631315"><ele>57.75</ele><time>2026-03-31T08:44:08.165Z</time></trkpt><trkpt lat="41.0861983" lon="0.6311233"><ele>58.0</ele><time>2026-03-31T08:44:09.165Z</time></trkpt><trkpt lat="41.0861483" lon="0.63093"><ele>58.666666666666664</ele><time>2026-03-31T08:44:10.165Z</time></trkpt><trkpt lat="41.0860967" lon="0.6307317"><ele>59.33333333333333</ele><time>2026-03-31T08:44:11.166Z</time></trkpt><trkpt lat="41.0860433" lon="0.6305333"><ele>60.0</ele><time>2026-03-31T08:44:12.166Z</time></trkpt><trkpt lat="41.0859883" lon="0.6303267"><ele>60.66666666666667</ele><time>2026-03-31T08:44:13.165Z</time></trkpt><trkpt lat="41.085935" lon="0.6301133"><ele>61.333333333333336</ele><time>2026-03-31T08:44:14.166Z</time></trkpt><trkpt lat="41.08588" lon="0.6299083"><ele>62.0</ele><time>2026-03-31T08:44:15.166Z</time></trkpt><trkpt lat="41.085835" lon="0.6297117"><ele>62.0</ele><time>2026-03-31T08:44:16.165Z</time></trkpt><trkpt lat="41.0857867" lon="0.6295183"><ele>62.0</ele><time>2026-03-31T08:44:17.165Z</time></trkpt><trkpt lat="41.0857333" lon="0.629315"><ele>62.0</ele><time>2026-03-31T08:44:18.165Z</time></trkpt><trkpt lat="41.0856767" lon="0.629125"><ele>62.0</ele><time>2026-03-31T08:44:19.165Z</time></trkpt><trkpt lat="41.0856267" lon="0.6289383"><ele>62.0</ele><time>2026-03-31T08:44:20.165Z</time></trkpt><trkpt lat="41.08558" lon="0.6287567"><ele>62.0</ele><time>2026-03-31T08:44:21.166Z</time></trkpt><trkpt lat="41.0855317" lon="0.6285733"><ele>62.0</ele><time>2026-03-31T08:44:22.165Z</time></trkpt><trkpt lat="41.0854817" lon="0.6283883"><ele>62.0</ele><time>2026-03-31T08:44:23.166Z</time></trkpt><trkpt lat="41.0854333" lon="0.6282067"><ele>62.0</ele><time>2026-03-31T08:44:24.165Z</time></trkpt><trkpt lat="41.08537" lon="0.6280217"><ele>62.0</ele><time>2026-03-31T08:44:25.164Z</time></trkpt><trkpt lat="41.0853133" lon="0.6278283"><ele>62.25</ele><time>2026-03-31T08:44:26.165Z</time></trkpt><trkpt lat="41.085255" lon="0.6276567"><ele>62.5</ele><time>2026-03-31T08:44:27.165Z</time></trkpt><trkpt lat="41.0852017" lon="0.6274733"><ele>62.75</ele><time>2026-03-31T08:44:28.165Z</time></trkpt><trkpt lat="41.0851567" lon="0.6273"><ele>63.0</ele><time>2026-03-31T08:44:29.165Z</time></trkpt><trkpt lat="41.085115" lon="0.6271333"><ele>63.0</ele><time>2026-03-31T08:44:30.165Z</time></trkpt><trkpt lat="41.0850817" lon="0.6269817"><ele>63.0</ele><time>2026-03-31T08:44:31.164Z</time></trkpt><trkpt lat="41.0850567" lon="0.6268283"><ele>63.0</ele><time>2026-03-31T08:44:32.165Z</time></trkpt><trkpt lat="41.085025" lon="0.626675"><ele>63.0</ele><time>2026-03-31T08:44:33.164Z</time></trkpt><trkpt lat="41.0849967" lon="0.6265367"><ele>63.166666666666664</ele><time>2026-03-31T08:44:34.164Z</time></trkpt><trkpt lat="41.08497" lon="0.626415"><ele>63.33333333333333</ele><time>2026-03-31T08:44:35.164Z</time></trkpt><trkpt lat="41.08496" lon="0.6262967"><ele>63.5</ele><time>2026-03-31T08:44:36.165Z</time></trkpt><trkpt lat="41.08496" lon="0.6261817"><ele>63.666666666666664</ele><time>2026-03-31T08:44:37.164Z</time></trkpt><trkpt lat="41.0849683" lon="0.6260617"><ele>63.83333333333333</ele><time>2026-03-31T08:44:38.164Z</time></trkpt><trkpt lat="41.0849633" lon="0.62595"><ele>64.0</ele><time>2026-03-31T08:44:39.164Z</time></trkpt><trkpt lat="41.0849567" lon="0.625845"><ele>64.0</ele><time>2026-03-31T08:44:40.165Z</time></trkpt><trkpt lat="41.0849433" lon="0.6257483"><ele>64.0</ele><time>2026-03-31T08:44:41.164Z</time></trkpt><trkpt lat="41.0849333" lon="0.62566"><ele>64.0</ele><time>2026-03-31T08:44:42.164Z</time></trkpt><trkpt lat="41.0849683" lon="0.625525"><ele>64.0</ele><time>2026-03-31T08:44:44.165Z</time></trkpt><trkpt lat="41.08506" lon="0.625445"><ele>64.0</ele><time>2026-03-31T08:44:46.165Z</time></trkpt><trkpt lat="41.0851283" lon="0.62534"><ele>63.99999999999999</ele><time>2026-03-31T08:44:48.165Z</time></trkpt><trkpt lat="41.0851483" lon="0.6252083"><ele>64.0</ele><time>2026-03-31T08:44:50.164Z</time></trkpt><trkpt lat="41.08513" lon="0.6250683"><ele>64.0</ele><time>2026-03-31T08:44:52.164Z</time></trkpt><trkpt lat="41.0851017" lon="0.624955"><ele>64.0</ele><time>2026-03-31T08:44:54.165Z</time></trkpt><trkpt lat="41.0850517" lon="0.6248983"><ele>63.99999999999999</ele><time>2026-03-31T08:44:56.164Z</time></trkpt><trkpt lat="41.0849917" lon="0.624865"><ele>64.0</ele><time>2026-03-31T08:44:58.164Z</time></trkpt><trkpt lat="41.0849" lon="0.624855"><ele>64.0</ele><time>2026-03-31T08:47:34.165Z</time></trkpt><trkpt lat="41.0848467" lon="0.6249183"><ele>64.0</ele><time>2026-03-31T08:47:41.164Z</time></trkpt><trkpt lat="41.0847983" lon="0.6250167"><ele>64.0</ele><time>2026-03-31T08:47:44.165Z</time></trkpt><trkpt lat="41.0847867" lon="0.6251217"><ele>64.0</ele><time>2026-03-31T08:47:46.164Z</time></trkpt><trkpt lat="41.084775" lon="0.6252383"><ele>64.0</ele><time>2026-03-31T08:47:48.165Z</time></trkpt></trkseg><trkseg><trkpt lat="41.0847867" lon="0.6254033"><ele>61.0</ele><time>2026-03-31T09:02:41.164Z</time></trkpt><trkpt lat="41.0848333" lon="0.625565"><ele>60.99999999999999</ele><time>2026-03-31T09:02:43.163Z</time></trkpt><trkpt lat="41.084845" lon="0.62567"><ele>60.99999999999999</ele><time>2026-03-31T09:02:44.163Z</time></trkpt><trkpt lat="41.0848683" lon="0.6257833"><ele>61.0</ele><time>2026-03-31T09:02:45.164Z</time></trkpt><trkpt lat="41.0848933" lon="0.6259083"><ele>61.0</ele><time>2026-03-31T09:02:46.164Z</time></trkpt><trkpt lat="41.0849067" lon="0.6260233"><ele>61.0</ele><time>2026-03-31T09:02:47.164Z</time></trkpt><trkpt lat="41.08491" lon="0.6261283"><ele>60.99999999999999</ele><time>2026-03-31T09:02:48.163Z</time></trkpt><trkpt lat="41.0849" lon="0.6262183"><ele>60.99999999999999</ele><time>2026-03-31T09:02:49.164Z</time></trkpt><trkpt lat="41.084885" lon="0.626335"><ele>61.0</ele><time>2026-03-31T09:02:51.163Z</time></trkpt><trkpt lat="41.08486" lon="0.6264467"><ele>61.0</ele><time>2026-03-31T09:02:54.164Z</time></trkpt><trkpt lat="41.08492" lon="0.626645"><ele>61.5</ele><time>2026-03-31T09:02:56.164Z</time></trkpt><trkpt lat="41.0849733" lon="0.6267767"><ele>62.0</ele><time>2026-03-31T09:02:57.164Z</time></trkpt><trkpt lat="41.0850083" lon="0.6269167"><ele>62.5</ele><time>2026-03-31T09:02:58.163Z</time></trkpt><trkpt lat="41.0850567" lon="0.6270717"><ele>63.0</ele><time>2026-03-31T09:02:59.163Z</time></trkpt><trkpt lat="41.0851" lon="0.6272283"><ele>63.0</ele><time>2026-03-31T09:03:00.164Z</time></trkpt><trkpt lat="41.0851417" lon="0.627385"><ele>63.0</ele><time>2026-03-31T09:03:01.164Z</time></trkpt><trkpt lat="41.0851833" lon="0.6275417"><ele>63.0</ele><time>2026-03-31T09:03:02.164Z</time></trkpt><trkpt lat="41.08522" lon="0.6277"><ele>63.0</ele><time>2026-03-31T09:03:03.163Z</time></trkpt><trkpt lat="41.08526" lon="0.62785"><ele>62.75</ele><time>2026-03-31T09:03:04.163Z</time></trkpt><trkpt lat="41.0853067" lon="0.628005"><ele>62.5</ele><time>2026-03-31T09:03:05.164Z</time></trkpt><trkpt lat="41.0853517" lon="0.6281533"><ele>62.25</ele><time>2026-03-31T09:03:06.164Z</time></trkpt><trkpt lat="41.085395" lon="0.628315"><ele>62.0</ele><time>2026-03-31T09:03:07.164Z</time></trkpt><trkpt lat="41.0854383" lon="0.6284683"><ele>62.0</ele><time>2026-03-31T09:03:08.163Z</time></trkpt><trkpt lat="41.0854833" lon="0.6286167"><ele>62.0</ele><time>2026-03-31T09:03:09.164Z</time></trkpt><trkpt lat="41.0855233" lon="0.628765"><ele>62.0</ele><time>2026-03-31T09:03:10.163Z</time></trkpt><trkpt lat="41.08557" lon="0.6289167"><ele>62.0</ele><time>2026-03-31T09:03:11.163Z</time></trkpt><trkpt lat="41.08562" lon="0.6290833"><ele>62.0</ele><time>2026-03-31T09:03:12.163Z</time></trkpt><trkpt lat="41.0856667" lon="0.629245"><ele>62.0</ele><time>2026-03-31T09:03:13.164Z</time></trkpt><trkpt lat="41.0857133" lon="0.62942"><ele>62.0</ele><time>2026-03-31T09:03:14.164Z</time></trkpt><trkpt lat="41.0857583" lon="0.6295867"><ele>62.0</ele><time>2026-03-31T09:03:15.163Z</time></trkpt><trkpt lat="41.085805" lon="0.6297533"><ele>62.0</ele><time>2026-03-31T09:03:16.163Z</time></trkpt><trkpt lat="41.0858483" lon="0.6299133"><ele>62.0</ele><time>2026-03-31T09:03:17.163Z</time></trkpt><trkpt lat="41.08589" lon="0.630075"><ele>62.0</ele><time>2026-03-31T09:03:18.164Z</time></trkpt><trkpt lat="41.0859417" lon="0.630235"><ele>62.0</ele><time>2026-03-31T09:03:19.164Z</time></trkpt><trkpt lat="41.0859867" lon="0.630395"><ele>61.5</ele><time>2026-03-31T09:03:20.163Z</time></trkpt><trkpt lat="41.0860233" lon="0.630555"><ele>61.0</ele><time>2026-03-31T09:03:21.163Z</time></trkpt><trkpt lat="41.086065" lon="0.6307117"><ele>60.5</ele><time>2026-03-31T09:03:22.163Z</time></trkpt><trkpt lat="41.0860967" lon="0.630865"><ele>60.0</ele><time>2026-03-31T09:03:23.163Z</time></trkpt><trkpt lat="41.0861283" lon="0.63102"><ele>59.5</ele><time>2026-03-31T09:03:24.163Z</time></trkpt><trkpt lat="41.0861817" lon="0.6311817"><ele>59.0</ele><time>2026-03-31T09:03:25.163Z</time></trkpt><trkpt lat="41.0862317" lon="0.63134"><ele>58.5</ele><time>2026-03-31T09:03:26.163Z</time></trkpt><trkpt lat="41.086275" lon="0.6314967"><ele>58.0</ele><time>2026-03-31T09:03:27.163Z</time></trkpt><trkpt lat="41.0863233" lon="0.631645"><ele>58.0</ele><time>2026-03-31T09:03:28.163Z</time></trkpt><trkpt lat="41.0863667" lon="0.6318"><ele>58.0</ele><time>2026-03-31T09:03:29.163Z</time></trkpt><trkpt lat="41.0864033" lon="0.631945"><ele>58.0</ele><time>2026-03-31T09:03:30.162Z</time></trkpt><trkpt lat="41.0864433" lon="0.632095"><ele>58.0</ele><time>2026-03-31T09:03:31.164Z</time></trkpt><trkpt lat="41.0864867" lon="0.63225"><ele>57.75</ele><time>2026-03-31T09:03:32.163Z</time></trkpt><trkpt lat="41.086535" lon="0.6324083"><ele>57.5</ele><time>2026-03-31T09:03:33.163Z</time></trkpt><trkpt lat="41.0865783" lon="0.632565"><ele>57.25</ele><time>2026-03-31T09:03:34.163Z</time></trkpt><trkpt lat="41.086615" lon="0.632715"><ele>57.0</ele><time>2026-03-31T09:03:35.163Z</time></trkpt><trkpt lat="41.0866533" lon="0.6328533"><ele>57.0</ele><time>2026-03-31T09:03:36.163Z</time></trkpt><trkpt lat="41.0866967" lon="0.6329917"><ele>57.0</ele><time>2026-03-31T09:03:37.163Z</time></trkpt><trkpt lat="41.086735" lon="0.6331367"><ele>57.0</ele><time>2026-03-31T09:03:38.163Z</time></trkpt><trkpt lat="41.08678" lon="0.63327"><ele>57.0</ele><time>2026-03-31T09:03:39.164Z</time></trkpt><trkpt lat="41.08682" lon="0.6334017"><ele>57.0</ele><time>2026-03-31T09:03:40.164Z</time></trkpt><trkpt lat="41.0868567" lon="0.633545"><ele>57.0</ele><time>2026-03-31T09:03:41.163Z</time></trkpt><trkpt lat="41.0868967" lon="0.6336867"><ele>57.0</ele><time>2026-03-31T09:03:42.163Z</time></trkpt><trkpt lat="41.08693" lon="0.6338167"><ele>57.0</ele><time>2026-03-31T09:03:43.163Z</time></trkpt><trkpt lat="41.0869683" lon="0.63395"><ele>57.0</ele><time>2026-03-31T09:03:44.164Z</time></trkpt><trkpt lat="41.0870167" lon="0.6340867"><ele>57.0</ele><time>2026-03-31T09:03:45.163Z</time></trkpt><trkpt lat="41.0870633" lon="0.6342367"><ele>57.0</ele><time>2026-03-31T09:03:46.163Z</time></trkpt><trkpt lat="41.0871067" lon="0.6343883"><ele>57.0</ele><time>2026-03-31T09:03:47.163Z</time></trkpt><trkpt lat="41.0871467" lon="0.6345467"><ele>57.0</ele><time>2026-03-31T09:03:48.164Z</time></trkpt><trkpt lat="41.08719" lon="0.6347083"><ele>57.0</ele><time>2026-03-31T09:03:49.163Z</time></trkpt><trkpt lat="41.0872267" lon="0.6348617"><ele>56.5</ele><time>2026-03-31T09:03:50.164Z</time></trkpt><trkpt lat="41.0872767" lon="0.6350267"><ele>56.0</ele><time>2026-03-31T09:03:51.163Z</time></trkpt><trkpt lat="41.087325" lon="0.6351883"><ele>55.5</ele><time>2026-03-31T09:03:52.163Z</time></trkpt><trkpt lat="41.0873633" lon="0.635335"><ele>55.0</ele><time>2026-03-31T09:03:53.164Z</time></trkpt><trkpt lat="41.08741" lon="0.6354817"><ele>54.99999999999999</ele><time>2026-03-31T09:03:54.163Z</time></trkpt><trkpt lat="41.087455" lon="0.635615"><ele>55.0</ele><time>2026-03-31T09:03:55.163Z</time></trkpt><trkpt lat="41.08749" lon="0.6357367"><ele>55.0</ele><time>2026-03-31T09:03:56.163Z</time></trkpt><trkpt lat="41.0875183" lon="0.6358467"><ele>55.0</ele><time>2026-03-31T09:03:57.163Z</time></trkpt><trkpt lat="41.0875417" lon="0.6359417"><ele>54.99999999999999</ele><time>2026-03-31T09:03:58.164Z</time></trkpt><trkpt lat="41.08756" lon="0.6360367"><ele>55.0</ele><time>2026-03-31T09:03:59.164Z</time></trkpt><trkpt lat="41.087565" lon="0.6361467"><ele>54.99999999999999</ele><time>2026-03-31T09:04:00.164Z</time></trkpt><trkpt lat="41.0875617" lon="0.6362483"><ele>55.0</ele><time>2026-03-31T09:04:01.164Z</time></trkpt><trkpt lat="41.0875767" lon="0.6363533"><ele>55.0</ele><time>2026-03-31T09:04:02.163Z</time></trkpt><trkpt lat="41.0876083" lon="0.63646"><ele>55.0</ele><time>2026-03-31T09:04:03.164Z</time></trkpt><trkpt lat="41.08766" lon="0.6365733"><ele>54.99999999999999</ele><time>2026-03-31T09:04:04.163Z</time></trkpt><trkpt lat="41.0877" lon="0.6366767"><ele>55.0</ele><time>2026-03-31T09:04:05.164Z</time></trkpt><trkpt lat="41.0877317" lon="0.636775"><ele>54.99999999999999</ele><time>2026-03-31T09:04:06.163Z</time></trkpt><trkpt lat="41.0877633" lon="0.6368667"><ele>55.0</ele><time>2026-03-31T09:04:07.163Z</time></trkpt><trkpt lat="41.0877933" lon="0.63695"><ele>55.0</ele><time>2026-03-31T09:04:08.164Z</time></trkpt><trkpt lat="41.0878183" lon="0.637035"><ele>55.0</ele><time>2026-03-31T09:04:09.164Z</time></trkpt><trkpt lat="41.08784" lon="0.6371367"><ele>54.99999999999999</ele><time>2026-03-31T09:04:10.163Z</time></trkpt><trkpt lat="41.0878717" lon="0.6372383"><ele>55.0</ele><time>2026-03-31T09:04:11.163Z</time></trkpt><trkpt lat="41.08791" lon="0.6373517"><ele>54.4</ele><time>2026-03-31T09:04:12.164Z</time></trkpt><trkpt lat="41.087945" lon="0.6374717"><ele>53.8</ele><time>2026-03-31T09:04:13.163Z</time></trkpt><trkpt lat="41.0879817" lon="0.637595"><ele>53.2</ele><time>2026-03-31T09:04:14.163Z</time></trkpt><trkpt lat="41.0880133" lon="0.63771"><ele>52.6</ele><time>2026-03-31T09:04:15.164Z</time></trkpt><trkpt lat="41.0880467" lon="0.637825"><ele>52.0</ele><time>2026-03-31T09:04:16.163Z</time></trkpt><trkpt lat="41.088075" lon="0.6379317"><ele>51.83333333333333</ele><time>2026-03-31T09:04:17.164Z</time></trkpt><trkpt lat="41.0880983" lon="0.63803"><ele>51.666666666666664</ele><time>2026-03-31T09:04:18.163Z</time></trkpt><trkpt lat="41.0881167" lon="0.638115"><ele>51.5</ele><time>2026-03-31T09:04:19.164Z</time></trkpt><trkpt lat="41.0881367" lon="0.6382183"><ele>51.33333333333333</ele><time>2026-03-31T09:04:21.164Z</time></trkpt><trkpt lat="41.0881683" lon="0.6383267"><ele>51.166666666666664</ele><time>2026-03-31T09:04:28.163Z</time></trkpt><trkpt lat="41.0881967" lon="0.638405"><ele>51.0</ele><time>2026-03-31T09:04:30.163Z</time></trkpt><trkpt lat="41.0882267" lon="0.6385367"><ele>51.0</ele><time>2026-03-31T09:04:32.163Z</time></trkpt><trkpt lat="41.0882333" lon="0.6386533"><ele>51.0</ele><time>2026-03-31T09:04:34.163Z</time></trkpt><trkpt lat="41.0881433" lon="0.6387017"><ele>51.0</ele><time>2026-03-31T09:04:36.164Z</time></trkpt><trkpt lat="41.0880633" lon="0.6387033"><ele>51.0</ele><time>2026-03-31T09:04:37.164Z</time></trkpt><trkpt lat="41.0879717" lon="0.63868"><ele>51.0</ele><time>2026-03-31T09:04:38.164Z</time></trkpt><trkpt lat="41.0878617" lon="0.63864"><ele>51.0</ele><time>2026-03-31T09:04:39.163Z</time></trkpt><trkpt lat="41.0877533" lon="0.6385917"><ele>51.0</ele><time>2026-03-31T09:04:40.163Z</time></trkpt><trkpt lat="41.0876433" lon="0.6385467"><ele>51.0</ele><time>2026-03-31T09:04:41.163Z</time></trkpt><trkpt lat="41.0875317" lon="0.6385"><ele>51.0</ele><time>2026-03-31T09:04:42.163Z</time></trkpt><trkpt lat="41.0874183" lon="0.6384567"><ele>51.0</ele><time>2026-03-31T09:04:43.164Z</time></trkpt><trkpt lat="41.0873117" lon="0.6384017"><ele>51.0</ele><time>2026-03-31T09:04:44.163Z</time></trkpt><trkpt lat="41.0871933" lon="0.6383617"><ele>51.0</ele><time>2026-03-31T09:04:45.163Z</time></trkpt><trkpt lat="41.0870683" lon="0.6383117"><ele>51.0</ele><time>2026-03-31T09:04:46.163Z</time></trkpt><trkpt lat="41.0869467" lon="0.6382583"><ele>51.0</ele><time>2026-03-31T09:04:47.163Z</time></trkpt><trkpt lat="41.0868267" lon="0.638195"><ele>51.0</ele><time>2026-03-31T09:04:48.163Z</time></trkpt><trkpt lat="41.0867017" lon="0.638145"><ele>51.0</ele><time>2026-03-31T09:04:49.163Z</time></trkpt><trkpt lat="41.0865767" lon="0.6381017"><ele>51.0</ele><time>2026-03-31T09:04:50.164Z</time></trkpt><trkpt lat="41.0864517" lon="0.6380517"><ele>50.0</ele><time>2026-03-31T09:04:51.164Z</time></trkpt><trkpt lat="41.0863267" lon="0.6380017"><ele>49.0</ele><time>2026-03-31T09:04:52.164Z</time></trkpt><trkpt lat="41.0861933" lon="0.6379583"><ele>48.0</ele><time>2026-03-31T09:04:53.163Z</time></trkpt><trkpt lat="41.0860617" lon="0.63793"><ele>47.0</ele><time>2026-03-31T09:04:54.163Z</time></trkpt><trkpt lat="41.0859417" lon="0.6379017"><ele>47.0</ele><time>2026-03-31T09:04:55.163Z</time></trkpt><trkpt lat="41.0858183" lon="0.6378717"><ele>47.0</ele><time>2026-03-31T09:04:56.164Z</time></trkpt><trkpt lat="41.0856933" lon="0.637855"><ele>47.0</ele><time>2026-03-31T09:04:57.164Z</time></trkpt><trkpt lat="41.0855633" lon="0.6378417"><ele>47.0</ele><time>2026-03-31T09:04:58.163Z</time></trkpt><trkpt lat="41.0854333" lon="0.6378183"><ele>47.25</ele><time>2026-03-31T09:04:59.163Z</time></trkpt><trkpt lat="41.0853083" lon="0.637795"><ele>47.5</ele><time>2026-03-31T09:05:00.163Z</time></trkpt><trkpt lat="41.085185" lon="0.63778"><ele>47.75</ele><time>2026-03-31T09:05:01.163Z</time></trkpt><trkpt lat="41.085055" lon="0.637765"><ele>48.0</ele><time>2026-03-31T09:05:02.163Z</time></trkpt><trkpt lat="41.0849267" lon="0.6377583"><ele>48.0</ele><time>2026-03-31T09:05:03.163Z</time></trkpt><trkpt lat="41.0847917" lon="0.6377517"><ele>48.0</ele><time>2026-03-31T09:05:04.163Z</time></trkpt><trkpt lat="41.0846683" lon="0.6377317"><ele>48.0</ele><time>2026-03-31T09:05:05.163Z</time></trkpt><trkpt lat="41.084555" lon="0.63772"><ele>48.0</ele><time>2026-03-31T09:05:06.163Z</time></trkpt><trkpt lat="41.084455" lon="0.6377233"><ele>48.0</ele><time>2026-03-31T09:05:07.163Z</time></trkpt><trkpt lat="41.0843667" lon="0.6377233"><ele>48.0</ele><time>2026-03-31T09:05:08.163Z</time></trkpt><trkpt lat="41.08428" lon="0.6377283"><ele>48.0</ele><time>2026-03-31T09:05:09.164Z</time></trkpt><trkpt lat="41.0841783" lon="0.6377383"><ele>48.0</ele><time>2026-03-31T09:05:10.164Z</time></trkpt><trkpt lat="41.0840717" lon="0.6377633"><ele>48.0</ele><time>2026-03-31T09:05:11.163Z</time></trkpt><trkpt lat="41.0839617" lon="0.6377833"><ele>47.75</ele><time>2026-03-31T09:05:12.164Z</time></trkpt><trkpt lat="41.0838467" lon="0.6377967"><ele>47.5</ele><time>2026-03-31T09:05:13.163Z</time></trkpt><trkpt lat="41.0837167" lon="0.6378083"><ele>47.25</ele><time>2026-03-31T09:05:14.164Z</time></trkpt><trkpt lat="41.083585" lon="0.6378017"><ele>47.0</ele><time>2026-03-31T09:05:15.163Z</time></trkpt><trkpt lat="41.0834483" lon="0.6377817"><ele>47.0</ele><time>2026-03-31T09:05:16.164Z</time></trkpt><trkpt lat="41.083305" lon="0.63776"><ele>47.0</ele><time>2026-03-31T09:05:17.163Z</time></trkpt><trkpt lat="41.0831733" lon="0.6377383"><ele>47.0</ele><time>2026-03-31T09:05:18.163Z</time></trkpt><trkpt lat="41.0830567" lon="0.6377167"><ele>47.0</ele><time>2026-03-31T09:05:19.164Z</time></trkpt><trkpt lat="41.08295" lon="0.6377"><ele>47.400000000000006</ele><time>2026-03-31T09:05:20.163Z</time></trkpt><trkpt lat="41.08286" lon="0.63768"><ele>47.800000000000004</ele><time>2026-03-31T09:05:21.164Z</time></trkpt><trkpt lat="41.0827817" lon="0.6376633"><ele>48.2</ele><time>2026-03-31T09:05:22.164Z</time></trkpt><trkpt lat="41.0826917" lon="0.6376383"><ele>48.6</ele><time>2026-03-31T09:05:23.163Z</time></trkpt><trkpt lat="41.082595" lon="0.6376133"><ele>49.0</ele><time>2026-03-31T09:05:24.163Z</time></trkpt><trkpt lat="41.0824983" lon="0.637585"><ele>48.800000000000004</ele><time>2026-03-31T09:05:25.163Z</time></trkpt><trkpt lat="41.0823933" lon="0.637555"><ele>48.6</ele><time>2026-03-31T09:05:26.164Z</time></trkpt><trkpt lat="41.0822867" lon="0.63752"><ele>48.4</ele><time>2026-03-31T09:05:27.163Z</time></trkpt><trkpt lat="41.0821817" lon="0.6374767"><ele>48.2</ele><time>2026-03-31T09:05:28.163Z</time></trkpt><trkpt lat="41.08208" lon="0.63744"><ele>48.0</ele><time>2026-03-31T09:05:29.164Z</time></trkpt><trkpt lat="41.081975" lon="0.6374"><ele>48.0</ele><time>2026-03-31T09:05:30.163Z</time></trkpt><trkpt lat="41.081875" lon="0.63737"><ele>48.0</ele><time>2026-03-31T09:05:31.163Z</time></trkpt><trkpt lat="41.0817867" lon="0.6373367"><ele>48.0</ele><time>2026-03-31T09:05:32.164Z</time></trkpt><trkpt lat="41.08171" lon="0.6373083"><ele>48.0</ele><time>2026-03-31T09:05:33.164Z</time></trkpt><trkpt lat="41.0816383" lon="0.63728"><ele>48.0</ele><time>2026-03-31T09:05:34.163Z</time></trkpt><trkpt lat="41.0815733" lon="0.63725"><ele>48.0</ele><time>2026-03-31T09:05:35.164Z</time></trkpt><trkpt lat="41.0814617" lon="0.637195"><ele>47.4</ele><time>2026-03-31T09:05:37.163Z</time></trkpt><trkpt lat="41.0813567" lon="0.6371517"><ele>46.8</ele><time>2026-03-31T09:05:39.163Z</time></trkpt><trkpt lat="41.0812633" lon="0.637075"><ele>46.2</ele><time>2026-03-31T09:05:41.164Z</time></trkpt><trkpt lat="41.0811967" lon="0.636975"><ele>45.6</ele><time>2026-03-31T09:05:43.163Z</time></trkpt><trkpt lat="41.0811233" lon="0.6368533"><ele>45.0</ele><time>2026-03-31T09:05:45.163Z</time></trkpt><trkpt lat="41.0810783" lon="0.6367933"><ele>45.0</ele><time>2026-03-31T09:05:46.164Z</time></trkpt><trkpt lat="41.081025" lon="0.636745"><ele>45.0</ele><time>2026-03-31T09:05:47.164Z</time></trkpt><trkpt lat="41.080905" lon="0.6367067"><ele>45.0</ele><time>2026-03-31T09:05:49.163Z</time></trkpt><trkpt lat="41.0808367" lon="0.6367167"><ele>45.0</ele><time>2026-03-31T09:05:50.164Z</time></trkpt><trkpt lat="41.080745" lon="0.63674"><ele>45.0</ele><time>2026-03-31T09:05:51.163Z</time></trkpt><trkpt lat="41.0806383" lon="0.6367417"><ele>44.75</ele><time>2026-03-31T09:05:52.164Z</time></trkpt><trkpt lat="41.0805333" lon="0.636705"><ele>44.5</ele><time>2026-03-31T09:05:53.163Z</time></trkpt><trkpt lat="41.080425" lon="0.6366333"><ele>44.25</ele><time>2026-03-31T09:05:54.164Z</time></trkpt><trkpt lat="41.0803117" lon="0.6365333"><ele>44.0</ele><time>2026-03-31T09:05:55.164Z</time></trkpt><trkpt lat="41.08019" lon="0.6364367"><ele>44.0</ele><time>2026-03-31T09:05:56.163Z</time></trkpt><trkpt lat="41.0800583" lon="0.6363317"><ele>44.0</ele><time>2026-03-31T09:05:57.163Z</time></trkpt><trkpt lat="41.079935" lon="0.6362333"><ele>44.0</ele><time>2026-03-31T09:05:58.163Z</time></trkpt><trkpt lat="41.0798317" lon="0.6361417"><ele>44.0</ele><time>2026-03-31T09:05:59.163Z</time></trkpt><trkpt lat="41.07974" lon="0.6360583"><ele>43.0</ele><time>2026-03-31T09:06:00.164Z</time></trkpt><trkpt lat="41.0796433" lon="0.6359767"><ele>42.0</ele><time>2026-03-31T09:06:01.163Z</time></trkpt><trkpt lat="41.0795417" lon="0.635915"><ele>41.0</ele><time>2026-03-31T09:06:02.164Z</time></trkpt><trkpt lat="41.0794383" lon="0.6358817"><ele>40.0</ele><time>2026-03-31T09:06:03.163Z</time></trkpt><trkpt lat="41.0793267" lon="0.6358667"><ele>39.0</ele><time>2026-03-31T09:06:04.163Z</time></trkpt><trkpt lat="41.07921" lon="0.6358783"><ele>38.5</ele><time>2026-03-31T09:06:05.163Z</time></trkpt><trkpt lat="41.0790917" lon="0.635905"><ele>38.0</ele><time>2026-03-31T09:06:06.164Z</time></trkpt><trkpt lat="41.0789717" lon="0.6359183"><ele>37.5</ele><time>2026-03-31T09:06:07.163Z</time></trkpt><trkpt lat="41.0788467" lon="0.63591"><ele>37.0</ele><time>2026-03-31T09:06:08.164Z</time></trkpt><trkpt lat="41.0787183" lon="0.635875"><ele>37.0</ele><time>2026-03-31T09:06:09.164Z</time></trkpt><trkpt lat="41.0785967" lon="0.6358233"><ele>37.0</ele><time>2026-03-31T09:06:10.163Z</time></trkpt><trkpt lat="41.0784867" lon="0.635755"><ele>37.0</ele><time>2026-03-31T09:06:11.164Z</time></trkpt><trkpt lat="41.0784" lon="0.6356767"><ele>37.0</ele><time>2026-03-31T09:06:12.163Z</time></trkpt><trkpt lat="41.0783517" lon="0.6356"><ele>37.0</ele><time>2026-03-31T09:06:13.163Z</time></trkpt><trkpt lat="41.0783233" lon="0.6355233"><ele>37.0</ele><time>2026-03-31T09:06:14.163Z</time></trkpt><trkpt lat="41.0782817" lon="0.635385"><ele>37.0</ele><time>2026-03-31T09:06:16.163Z</time></trkpt><trkpt lat="41.0782483" lon="0.6353133"><ele>37.0</ele><time>2026-03-31T09:06:17.163Z</time></trkpt><trkpt lat="41.0781983" lon="0.6352417"><ele>37.0</ele><time>2026-03-31T09:06:18.164Z</time></trkpt><trkpt lat="41.0781333" lon="0.635185"><ele>37.0</ele><time>2026-03-31T09:06:19.164Z</time></trkpt><trkpt lat="41.07806" lon="0.6351383"><ele>37.0</ele><time>2026-03-31T09:06:20.164Z</time></trkpt><trkpt lat="41.0779867" lon="0.635105"><ele>37.333333333333336</ele><time>2026-03-31T09:06:21.163Z</time></trkpt><trkpt lat="41.0779167" lon="0.6350783"><ele>37.66666666666667</ele><time>2026-03-31T09:06:22.163Z</time></trkpt><trkpt lat="41.0778417" lon="0.6350433"><ele>38.0</ele><time>2026-03-31T09:06:23.164Z</time></trkpt><trkpt lat="41.0777633" lon="0.6349967"><ele>38.333333333333336</ele><time>2026-03-31T09:06:24.163Z</time></trkpt><trkpt lat="41.0776767" lon="0.634955"><ele>38.666666666666664</ele><time>2026-03-31T09:06:25.163Z</time></trkpt><trkpt lat="41.0775817" lon="0.6349067"><ele>39.0</ele><time>2026-03-31T09:06:26.163Z</time></trkpt><trkpt lat="41.0774783" lon="0.6348617"><ele>40.4</ele><time>2026-03-31T09:06:27.163Z</time></trkpt><trkpt lat="41.07738" lon="0.6348333"><ele>41.8</ele><time>2026-03-31T09:06:28.164Z</time></trkpt><trkpt lat="41.0772717" lon="0.6348267"><ele>43.199999999999996</ele><time>2026-03-31T09:06:29.163Z</time></trkpt><trkpt lat="41.07717" lon="0.63486"><ele>44.599999999999994</ele><time>2026-03-31T09:06:30.163Z</time></trkpt><trkpt lat="41.0770817" lon="0.6349317"><ele>46.0</ele><time>2026-03-31T09:06:31.163Z</time></trkpt><trkpt lat="41.077015" lon="0.6350017"><ele>46.0</ele><time>2026-03-31T09:06:32.163Z</time></trkpt><trkpt lat="41.0769467" lon="0.6350983"><ele>46.0</ele><time>2026-03-31T09:06:33.163Z</time></trkpt><trkpt lat="41.0768817" lon="0.635185"><ele>46.0</ele><time>2026-03-31T09:06:34.164Z</time></trkpt><trkpt lat="41.0768067" lon="0.63526"><ele>46.0</ele><time>2026-03-31T09:06:35.163Z</time></trkpt><trkpt lat="41.076715" lon="0.6353033"><ele>46.0</ele><time>2026-03-31T09:06:36.164Z</time></trkpt><trkpt lat="41.0766167" lon="0.6353367"><ele>46.199999999999996</ele><time>2026-03-31T09:06:37.163Z</time></trkpt><trkpt lat="41.0765067" lon="0.635345"><ele>46.4</ele><time>2026-03-31T09:06:38.163Z</time></trkpt><trkpt lat="41.0763933" lon="0.6353433"><ele>46.6</ele><time>2026-03-31T09:06:39.164Z</time></trkpt><trkpt lat="41.0762833" lon="0.6353483"><ele>46.8</ele><time>2026-03-31T09:06:40.163Z</time></trkpt><trkpt lat="41.0761717" lon="0.6353467"><ele>47.0</ele><time>2026-03-31T09:06:41.163Z</time></trkpt><trkpt lat="41.0760533" lon="0.635325"><ele>47.0</ele><time>2026-03-31T09:06:42.164Z</time></trkpt><trkpt lat="41.07595" lon="0.6352817"><ele>47.0</ele><time>2026-03-31T09:06:43.163Z</time></trkpt><trkpt lat="41.075855" lon="0.6352467"><ele>47.0</ele><time>2026-03-31T09:06:44.163Z</time></trkpt><trkpt lat="41.075765" lon="0.635215"><ele>47.0</ele><time>2026-03-31T09:06:45.163Z</time></trkpt><trkpt lat="41.0756783" lon="0.63519"><ele>47.0</ele><time>2026-03-31T09:06:46.164Z</time></trkpt><trkpt lat="41.0755933" lon="0.6351633"><ele>47.0</ele><time>2026-03-31T09:06:47.163Z</time></trkpt><trkpt lat="41.0755067" lon="0.6351367"><ele>47.0</ele><time>2026-03-31T09:06:48.163Z</time></trkpt><trkpt lat="41.0754217" lon="0.63511"><ele>47.0</ele><time>2026-03-31T09:06:49.164Z</time></trkpt><trkpt lat="41.0753433" lon="0.6350833"><ele>47.0</ele><time>2026-03-31T09:06:50.163Z</time></trkpt><trkpt lat="41.075265" lon="0.63506"><ele>47.0</ele><time>2026-03-31T09:06:51.163Z</time></trkpt><trkpt lat="41.0752017" lon="0.6350467"><ele>47.0</ele><time>2026-03-31T09:06:52.163Z</time></trkpt><trkpt lat="41.0751333" lon="0.6350317"><ele>47.0</ele><time>2026-03-31T09:06:53.164Z</time></trkpt><trkpt lat="41.0750683" lon="0.6350233"><ele>47.0</ele><time>2026-03-31T09:06:54.163Z</time></trkpt><trkpt lat="41.075005" lon="0.635015"><ele>47.0</ele><time>2026-03-31T09:06:55.164Z</time></trkpt><trkpt lat="41.0748933" lon="0.6350017"><ele>47.0</ele><time>2026-03-31T09:06:57.164Z</time></trkpt><trkpt lat="41.0747633" lon="0.6349933"><ele>47.0</ele><time>2026-03-31T09:06:59.164Z</time></trkpt><trkpt lat="41.0746817" lon="0.6350017"><ele>47.0</ele><time>2026-03-31T09:07:00.164Z</time></trkpt><trkpt lat="41.0745967" lon="0.6350083"><ele>47.0</ele><time>2026-03-31T09:07:01.163Z</time></trkpt><trkpt lat="41.07449" lon="0.6350183"><ele>47.0</ele><time>2026-03-31T09:07:02.163Z</time></trkpt><trkpt lat="41.0743683" lon="0.635045"><ele>47.0</ele><time>2026-03-31T09:07:03.163Z</time></trkpt><trkpt lat="41.0742333" lon="0.6350717"><ele>46.75</ele><time>2026-03-31T09:07:04.163Z</time></trkpt><trkpt lat="41.074095" lon="0.6350883"><ele>46.5</ele><time>2026-03-31T09:07:05.163Z</time></trkpt><trkpt lat="41.0739483" lon="0.635095"><ele>46.25</ele><time>2026-03-31T09:07:06.164Z</time></trkpt><trkpt lat="41.0737967" lon="0.6351033"><ele>46.0</ele><time>2026-03-31T09:07:07.163Z</time></trkpt><trkpt lat="41.073645" lon="0.6351133"><ele>46.0</ele><time>2026-03-31T09:07:08.164Z</time></trkpt><trkpt lat="41.0734967" lon="0.6351283"><ele>46.0</ele><time>2026-03-31T09:07:09.163Z</time></trkpt><trkpt lat="41.073355" lon="0.635145"><ele>46.0</ele><time>2026-03-31T09:07:10.163Z</time></trkpt><trkpt lat="41.0732183" lon="0.6351567"><ele>46.0</ele><time>2026-03-31T09:07:11.163Z</time></trkpt><trkpt lat="41.07308" lon="0.6351667"><ele>45.66666666666667</ele><time>2026-03-31T09:07:12.164Z</time></trkpt><trkpt lat="41.0729367" lon="0.6351717"><ele>45.333333333333336</ele><time>2026-03-31T09:07:13.163Z</time></trkpt><trkpt lat="41.0727917" lon="0.6351917"><ele>45.0</ele><time>2026-03-31T09:07:14.163Z</time></trkpt><trkpt lat="41.0726317" lon="0.6352117"><ele>45.0</ele><time>2026-03-31T09:07:15.163Z</time></trkpt><trkpt lat="41.0724667" lon="0.6352317"><ele>45.0</ele><time>2026-03-31T09:07:16.163Z</time></trkpt><trkpt lat="41.07229" lon="0.635255"><ele>45.0</ele><time>2026-03-31T09:07:17.163Z</time></trkpt><trkpt lat="41.0721217" lon="0.6352833"><ele>44.0</ele><time>2026-03-31T09:07:18.164Z</time></trkpt><trkpt lat="41.0719467" lon="0.6353217"><ele>43.0</ele><time>2026-03-31T09:07:19.164Z</time></trkpt><trkpt lat="41.0717683" lon="0.6353533"><ele>42.0</ele><time>2026-03-31T09:07:20.163Z</time></trkpt><trkpt lat="41.0715883" lon="0.63539"><ele>41.666666666666664</ele><time>2026-03-31T09:07:21.163Z</time></trkpt><trkpt lat="41.0714117" lon="0.6354217"><ele>41.33333333333333</ele><time>2026-03-31T09:07:22.163Z</time></trkpt><trkpt lat="41.0712267" lon="0.63545"><ele>41.0</ele><time>2026-03-31T09:07:23.163Z</time></trkpt><trkpt lat="41.07105" lon="0.6354767"><ele>41.0</ele><time>2026-03-31T09:07:24.163Z</time></trkpt><trkpt lat="41.070875" lon="0.6354917"><ele>41.0</ele><time>2026-03-31T09:07:25.164Z</time></trkpt><trkpt lat="41.0706967" lon="0.6355183"><ele>41.0</ele><time>2026-03-31T09:07:26.164Z</time></trkpt><trkpt lat="41.0705183" lon="0.635565"><ele>41.666666666666664</ele><time>2026-03-31T09:07:27.163Z</time></trkpt><trkpt lat="41.07033" lon="0.6356267"><ele>42.333333333333336</ele><time>2026-03-31T09:07:28.163Z</time></trkpt><trkpt lat="41.07015" lon="0.6357117"><ele>43.0</ele><time>2026-03-31T09:07:29.164Z</time></trkpt><trkpt lat="41.0699833" lon="0.6358117"><ele>42.66666666666667</ele><time>2026-03-31T09:07:30.163Z</time></trkpt><trkpt lat="41.06982" lon="0.6359083"><ele>42.333333333333336</ele><time>2026-03-31T09:07:31.163Z</time></trkpt><trkpt lat="41.06966" lon="0.6359933"><ele>42.0</ele><time>2026-03-31T09:07:32.163Z</time></trkpt><trkpt lat="41.06949" lon="0.6360583"><ele>42.0</ele><time>2026-03-31T09:07:33.164Z</time></trkpt><trkpt lat="41.0693183" lon="0.6361033"><ele>42.0</ele><time>2026-03-31T09:07:34.164Z</time></trkpt><trkpt lat="41.069145" lon="0.6361333"><ele>42.0</ele><time>2026-03-31T09:07:35.164Z</time></trkpt><trkpt lat="41.0689667" lon="0.6361517"><ele>40.666666666666664</ele><time>2026-03-31T09:07:36.164Z</time></trkpt><trkpt lat="41.0687917" lon="0.6361683"><ele>39.33333333333333</ele><time>2026-03-31T09:07:37.164Z</time></trkpt><trkpt lat="41.0686267" lon="0.63619"><ele>38.0</ele><time>2026-03-31T09:07:38.163Z</time></trkpt><trkpt lat="41.0684617" lon="0.6362117"><ele>38.0</ele><time>2026-03-31T09:07:39.163Z</time></trkpt><trkpt lat="41.0682983" lon="0.6362367"><ele>38.0</ele><time>2026-03-31T09:07:40.163Z</time></trkpt><trkpt lat="41.0681317" lon="0.6362567"><ele>38.0</ele><time>2026-03-31T09:07:41.163Z</time></trkpt><trkpt lat="41.06797" lon="0.6362717"><ele>37.666666666666664</ele><time>2026-03-31T09:07:42.163Z</time></trkpt><trkpt lat="41.0678017" lon="0.6362917"><ele>37.333333333333336</ele><time>2026-03-31T09:07:43.164Z</time></trkpt><trkpt lat="41.067635" lon="0.636305"><ele>37.0</ele><time>2026-03-31T09:07:44.164Z</time></trkpt><trkpt lat="41.0674683" lon="0.6363283"><ele>37.0</ele><time>2026-03-31T09:07:45.164Z</time></trkpt><trkpt lat="41.0672983" lon="0.6363467"><ele>37.0</ele><time>2026-03-31T09:07:46.163Z</time></trkpt><trkpt lat="41.0671183" lon="0.636375"><ele>37.0</ele><time>2026-03-31T09:07:47.163Z</time></trkpt><trkpt lat="41.0669433" lon="0.6364067"><ele>37.0</ele><time>2026-03-31T09:07:48.163Z</time></trkpt><trkpt lat="41.0667717" lon="0.6364333"><ele>37.0</ele><time>2026-03-31T09:07:49.164Z</time></trkpt><trkpt lat="41.0665867" lon="0.63645"><ele>37.0</ele><time>2026-03-31T09:07:50.164Z</time></trkpt><trkpt lat="41.0664033" lon="0.6364767"><ele>36.333333333333336</ele><time>2026-03-31T09:07:51.164Z</time></trkpt><trkpt lat="41.0662167" lon="0.6365"><ele>35.666666666666664</ele><time>2026-03-31T09:07:52.164Z</time></trkpt><trkpt lat="41.0660233" lon="0.6365183"><ele>35.0</ele><time>2026-03-31T09:07:53.164Z</time></trkpt><trkpt lat="41.065835" lon="0.636535"><ele>35.0</ele><time>2026-03-31T09:07:54.163Z</time></trkpt><trkpt lat="41.0656467" lon="0.6365483"><ele>35.0</ele><time>2026-03-31T09:07:55.163Z</time></trkpt><trkpt lat="41.065465" lon="0.6365567"><ele>35.0</ele><time>2026-03-31T09:07:56.164Z</time></trkpt><trkpt lat="41.0652817" lon="0.6365633"><ele>35.0</ele><time>2026-03-31T09:07:57.163Z</time></trkpt><trkpt lat="41.0651" lon="0.63658"><ele>35.0</ele><time>2026-03-31T09:07:58.163Z</time></trkpt><trkpt lat="41.0649233" lon="0.6365983"><ele>35.0</ele><time>2026-03-31T09:07:59.163Z</time></trkpt><trkpt lat="41.06475" lon="0.6366033"><ele>35.33333333333333</ele><time>2026-03-31T09:08:00.164Z</time></trkpt><trkpt lat="41.0645867" lon="0.636595"><ele>35.666666666666664</ele><time>2026-03-31T09:08:01.163Z</time></trkpt><trkpt lat="41.0644117" lon="0.6365767"><ele>36.0</ele><time>2026-03-31T09:08:02.164Z</time></trkpt><trkpt lat="41.064235" lon="0.6365433"><ele>35.333333333333336</ele><time>2026-03-31T09:08:03.164Z</time></trkpt><trkpt lat="41.06407" lon="0.636495"><ele>34.66666666666667</ele><time>2026-03-31T09:08:04.163Z</time></trkpt><trkpt lat="41.0639033" lon="0.63645"><ele>34.0</ele><time>2026-03-31T09:08:05.163Z</time></trkpt><trkpt lat="41.0637433" lon="0.6364"><ele>34.0</ele><time>2026-03-31T09:08:06.163Z</time></trkpt><trkpt lat="41.0635833" lon="0.6363517"><ele>34.0</ele><time>2026-03-31T09:08:07.163Z</time></trkpt><trkpt lat="41.0634317" lon="0.6363117"><ele>34.0</ele><time>2026-03-31T09:08:08.164Z</time></trkpt><trkpt lat="41.063275" lon="0.6362683"><ele>33.0</ele><time>2026-03-31T09:08:09.163Z</time></trkpt><trkpt lat="41.06312" lon="0.6362333"><ele>32.0</ele><time>2026-03-31T09:08:10.164Z</time></trkpt><trkpt lat="41.0629717" lon="0.636195"><ele>31.0</ele><time>2026-03-31T09:08:11.163Z</time></trkpt><trkpt lat="41.062825" lon="0.6361567"><ele>31.333333333333336</ele><time>2026-03-31T09:08:12.164Z</time></trkpt><trkpt lat="41.0626733" lon="0.6361083"><ele>31.666666666666664</ele><time>2026-03-31T09:08:13.164Z</time></trkpt><trkpt lat="41.0625183" lon="0.63605"><ele>32.0</ele><time>2026-03-31T09:08:14.164Z</time></trkpt><trkpt lat="41.0623717" lon="0.6359833"><ele>32.0</ele><time>2026-03-31T09:08:15.163Z</time></trkpt><trkpt lat="41.0622333" lon="0.6359233"><ele>32.0</ele><time>2026-03-31T09:08:16.163Z</time></trkpt><trkpt lat="41.0620983" lon="0.6358583"><ele>32.0</ele><time>2026-03-31T09:08:17.163Z</time></trkpt><trkpt lat="41.0619633" lon="0.63579"><ele>32.0</ele><time>2026-03-31T09:08:18.163Z</time></trkpt><trkpt lat="41.0618283" lon="0.6357183"><ele>32.0</ele><time>2026-03-31T09:08:19.163Z</time></trkpt><trkpt lat="41.0617" lon="0.6356533"><ele>32.0</ele><time>2026-03-31T09:08:20.163Z</time></trkpt><trkpt lat="41.06156" lon="0.6355817"><ele>32.0</ele><time>2026-03-31T09:08:21.163Z</time></trkpt><trkpt lat="41.061425" lon="0.6355033"><ele>32.0</ele><time>2026-03-31T09:08:22.163Z</time></trkpt><trkpt lat="41.0612917" lon="0.6354267"><ele>31.75</ele><time>2026-03-31T09:08:23.163Z</time></trkpt><trkpt lat="41.0611617" lon="0.6353517"><ele>31.5</ele><time>2026-03-31T09:08:24.163Z</time></trkpt><trkpt lat="41.06104" lon="0.6352917"><ele>31.25</ele><time>2026-03-31T09:08:25.164Z</time></trkpt><trkpt lat="41.06092" lon="0.635245"><ele>31.0</ele><time>2026-03-31T09:08:26.163Z</time></trkpt><trkpt lat="41.0608167" lon="0.6352067"><ele>30.6</ele><time>2026-03-31T09:08:27.164Z</time></trkpt><trkpt lat="41.0607167" lon="0.63519"><ele>30.200000000000003</ele><time>2026-03-31T09:08:28.164Z</time></trkpt><trkpt lat="41.0606217" lon="0.6351783"><ele>29.799999999999997</ele><time>2026-03-31T09:08:29.163Z</time></trkpt><trkpt lat="41.060535" lon="0.63517"><ele>29.4</ele><time>2026-03-31T09:08:30.163Z</time></trkpt><trkpt lat="41.0604467" lon="0.63516"><ele>29.0</ele><time>2026-03-31T09:08:31.164Z</time></trkpt><trkpt lat="41.0603433" lon="0.6351483"><ele>29.0</ele><time>2026-03-31T09:08:32.163Z</time></trkpt><trkpt lat="41.0602467" lon="0.6351133"><ele>29.0</ele><time>2026-03-31T09:08:33.164Z</time></trkpt><trkpt lat="41.0601617" lon="0.635085"><ele>29.0</ele><time>2026-03-31T09:08:34.163Z</time></trkpt><trkpt lat="41.0600733" lon="0.6350433"><ele>29.0</ele><time>2026-03-31T09:08:35.163Z</time></trkpt><trkpt lat="41.0599883" lon="0.6350083"><ele>29.0</ele><time>2026-03-31T09:08:36.164Z</time></trkpt><trkpt lat="41.0598983" lon="0.6349633"><ele>29.0</ele><time>2026-03-31T09:08:37.164Z</time></trkpt><trkpt lat="41.059805" lon="0.6349183"><ele>29.0</ele><time>2026-03-31T09:08:38.163Z</time></trkpt><trkpt lat="41.059705" lon="0.6348767"><ele>29.0</ele><time>2026-03-31T09:08:39.163Z</time></trkpt><trkpt lat="41.059605" lon="0.6348383"><ele>29.0</ele><time>2026-03-31T09:08:40.163Z</time></trkpt><trkpt lat="41.0595117" lon="0.6347983"><ele>29.0</ele><time>2026-03-31T09:08:41.163Z</time></trkpt><trkpt lat="41.0594283" lon="0.634765"><ele>28.999999999999996</ele><time>2026-03-31T09:08:42.163Z</time></trkpt><trkpt lat="41.05935" lon="0.6347367"><ele>29.0</ele><time>2026-03-31T09:08:43.163Z</time></trkpt><trkpt lat="41.0592717" lon="0.6347033"><ele>29.0</ele><time>2026-03-31T09:08:44.163Z</time></trkpt><trkpt lat="41.0591967" lon="0.6346717"><ele>29.0</ele><time>2026-03-31T09:08:45.163Z</time></trkpt><trkpt lat="41.059125" lon="0.6346583"><ele>28.999999999999996</ele><time>2026-03-31T09:08:46.164Z</time></trkpt><trkpt lat="41.059055" lon="0.6346583"><ele>29.0</ele><time>2026-03-31T09:08:47.163Z</time></trkpt><trkpt lat="41.058975" lon="0.6346417"><ele>28.799999999999997</ele><time>2026-03-31T09:08:48.163Z</time></trkpt><trkpt lat="41.0588817" lon="0.634615"><ele>28.599999999999998</ele><time>2026-03-31T09:08:49.163Z</time></trkpt><trkpt lat="41.0587883" lon="0.6345983"><ele>28.4</ele><time>2026-03-31T09:08:50.163Z</time></trkpt><trkpt lat="41.0586933" lon="0.6345867"><ele>28.2</ele><time>2026-03-31T09:08:51.164Z</time></trkpt><trkpt lat="41.0585867" lon="0.6345767"><ele>28.0</ele><time>2026-03-31T09:08:52.163Z</time></trkpt><trkpt lat="41.0584933" lon="0.6345617"><ele>28.0</ele><time>2026-03-31T09:08:53.163Z</time></trkpt><trkpt lat="41.0584083" lon="0.6345533"><ele>27.999999999999996</ele><time>2026-03-31T09:08:54.164Z</time></trkpt><trkpt lat="41.058315" lon="0.634545"><ele>27.999999999999996</ele><time>2026-03-31T09:08:55.164Z</time></trkpt><trkpt lat="41.0582133" lon="0.6345367"><ele>28.0</ele><time>2026-03-31T09:08:56.163Z</time></trkpt><trkpt lat="41.0581167" lon="0.6345533"><ele>28.0</ele><time>2026-03-31T09:08:57.164Z</time></trkpt><trkpt lat="41.0580283" lon="0.6345733"><ele>28.333333333333336</ele><time>2026-03-31T09:08:58.164Z</time></trkpt><trkpt lat="41.05795" lon="0.6345867"><ele>28.666666666666668</ele><time>2026-03-31T09:08:59.164Z</time></trkpt><trkpt lat="41.0578783" lon="0.6345833"><ele>29.0</ele><time>2026-03-31T09:09:00.163Z</time></trkpt><trkpt lat="41.05779" lon="0.6345767"><ele>29.333333333333336</ele><time>2026-03-31T09:09:01.163Z</time></trkpt><trkpt lat="41.0576917" lon="0.6345667"><ele>29.666666666666668</ele><time>2026-03-31T09:09:02.163Z</time></trkpt><trkpt lat="41.05759" lon="0.6345733"><ele>30.0</ele><time>2026-03-31T09:09:03.164Z</time></trkpt><trkpt lat="41.0574917" lon="0.6345717"><ele>30.166666666666668</ele><time>2026-03-31T09:09:04.164Z</time></trkpt><trkpt lat="41.057395" lon="0.6345733"><ele>30.333333333333336</ele><time>2026-03-31T09:09:05.164Z</time></trkpt><trkpt lat="41.057305" lon="0.63459"><ele>30.5</ele><time>2026-03-31T09:09:06.164Z</time></trkpt><trkpt lat="41.057215" lon="0.6345967"><ele>30.666666666666668</ele><time>2026-03-31T09:09:07.163Z</time></trkpt><trkpt lat="41.0571333" lon="0.6345983"><ele>30.833333333333336</ele><time>2026-03-31T09:09:08.164Z</time></trkpt><trkpt lat="41.0570617" lon="0.6346133"><ele>31.0</ele><time>2026-03-31T09:09:09.163Z</time></trkpt><trkpt lat="41.056965" lon="0.6346083"><ele>31.0</ele><time>2026-03-31T09:09:11.164Z</time></trkpt><trkpt lat="41.0568967" lon="0.634565"><ele>31.0</ele><time>2026-03-31T09:09:13.163Z</time></trkpt><trkpt lat="41.05689" lon="0.634385"><ele>31.0</ele><time>2026-03-31T09:09:15.163Z</time></trkpt><trkpt lat="41.0569033" lon="0.6342567"><ele>31.0</ele><time>2026-03-31T09:09:16.163Z</time></trkpt><trkpt lat="41.0569267" lon="0.6341217"><ele>31.0</ele><time>2026-03-31T09:09:17.164Z</time></trkpt><trkpt lat="41.0569483" lon="0.6339883"><ele>31.0</ele><time>2026-03-31T09:09:18.163Z</time></trkpt><trkpt lat="41.0569767" lon="0.6338583"><ele>31.0</ele><time>2026-03-31T09:09:19.163Z</time></trkpt><trkpt lat="41.0570067" lon="0.633725"><ele>31.0</ele><time>2026-03-31T09:09:20.163Z</time></trkpt><trkpt lat="41.0570333" lon="0.6336033"><ele>31.0</ele><time>2026-03-31T09:09:21.163Z</time></trkpt><trkpt lat="41.0570583" lon="0.6334867"><ele>31.0</ele><time>2026-03-31T09:09:22.164Z</time></trkpt><trkpt lat="41.0570883" lon="0.63338"><ele>30.666666666666668</ele><time>2026-03-31T09:09:23.163Z</time></trkpt><trkpt lat="41.0571183" lon="0.6332867"><ele>30.333333333333336</ele><time>2026-03-31T09:09:24.163Z</time></trkpt><trkpt lat="41.05715" lon="0.6331883"><ele>30.0</ele><time>2026-03-31T09:09:25.163Z</time></trkpt><trkpt lat="41.0571917" lon="0.6331033"><ele>29.666666666666664</ele><time>2026-03-31T09:09:26.164Z</time></trkpt><trkpt lat="41.057215" lon="0.633015"><ele>29.333333333333332</ele><time>2026-03-31T09:09:27.164Z</time></trkpt><trkpt lat="41.0572283" lon="0.632925"><ele>29.0</ele><time>2026-03-31T09:09:28.163Z</time></trkpt><trkpt lat="41.0572583" lon="0.6327767"><ele>28.799999999999997</ele><time>2026-03-31T09:09:30.164Z</time></trkpt><trkpt lat="41.05731" lon="0.6326817"><ele>28.599999999999998</ele><time>2026-03-31T09:09:32.163Z</time></trkpt><trkpt lat="41.057365" lon="0.632565"><ele>28.4</ele><time>2026-03-31T09:09:34.164Z</time></trkpt><trkpt lat="41.0574217" lon="0.6324233"><ele>28.2</ele><time>2026-03-31T09:09:36.163Z</time></trkpt><trkpt lat="41.0574883" lon="0.6322833"><ele>28.0</ele><time>2026-03-31T09:09:38.164Z</time></trkpt><trkpt lat="41.0575267" lon="0.632205"><ele>28.0</ele><time>2026-03-31T09:09:39.164Z</time></trkpt><trkpt lat="41.0575583" lon="0.632125"><ele>27.999999999999996</ele><time>2026-03-31T09:09:40.164Z</time></trkpt><trkpt lat="41.05759" lon="0.632045"><ele>27.999999999999996</ele><time>2026-03-31T09:09:41.163Z</time></trkpt><trkpt lat="41.0576567" lon="0.6319083"><ele>28.0</ele><time>2026-03-31T09:09:43.163Z</time></trkpt><trkpt lat="41.057715" lon="0.6317817"><ele>28.0</ele><time>2026-03-31T09:09:45.163Z</time></trkpt><trkpt lat="41.057775" lon="0.6316467"><ele>27.714285714285715</ele><time>2026-03-31T09:09:47.164Z</time></trkpt><trkpt lat="41.0577983" lon="0.631565"><ele>27.42857142857143</ele><time>2026-03-31T09:09:48.163Z</time></trkpt><trkpt lat="41.0578233" lon="0.6314833"><ele>27.142857142857142</ele><time>2026-03-31T09:09:49.163Z</time></trkpt><trkpt lat="41.0578583" lon="0.6314017"><ele>26.857142857142858</ele><time>2026-03-31T09:09:50.163Z</time></trkpt><trkpt lat="41.0578983" lon="0.6313167"><ele>26.571428571428573</ele><time>2026-03-31T09:09:51.164Z</time></trkpt><trkpt lat="41.0579317" lon="0.6312233"><ele>26.285714285714285</ele><time>2026-03-31T09:09:52.164Z</time></trkpt><trkpt lat="41.0579667" lon="0.6311233"><ele>26.0</ele><time>2026-03-31T09:09:53.164Z</time></trkpt><trkpt lat="41.058005" lon="0.6310283"><ele>25.999999999999996</ele><time>2026-03-31T09:09:54.163Z</time></trkpt><trkpt lat="41.05805" lon="0.630945"><ele>26.0</ele><time>2026-03-31T09:09:55.163Z</time></trkpt><trkpt lat="41.05809" lon="0.6308533"><ele>26.0</ele><time>2026-03-31T09:09:56.163Z</time></trkpt><trkpt lat="41.0581217" lon="0.6307633"><ele>26.0</ele><time>2026-03-31T09:09:57.164Z</time></trkpt><trkpt lat="41.05816" lon="0.6306817"><ele>25.999999999999996</ele><time>2026-03-31T09:09:58.164Z</time></trkpt><trkpt lat="41.0581967" lon="0.6305917"><ele>26.0</ele><time>2026-03-31T09:09:59.163Z</time></trkpt><trkpt lat="41.0582333" lon="0.630495"><ele>26.0</ele><time>2026-03-31T09:10:00.164Z</time></trkpt><trkpt lat="41.0582717" lon="0.6303933"><ele>26.0</ele><time>2026-03-31T09:10:01.164Z</time></trkpt><trkpt lat="41.0583133" lon="0.6302817"><ele>26.0</ele><time>2026-03-31T09:10:02.164Z</time></trkpt><trkpt lat="41.0583583" lon="0.6301667"><ele>26.0</ele><time>2026-03-31T09:10:03.164Z</time></trkpt><trkpt lat="41.0584167" lon="0.6300483"><ele>26.0</ele><time>2026-03-31T09:10:04.163Z</time></trkpt><trkpt lat="41.05849" lon="0.6299317"><ele>26.25</ele><time>2026-03-31T09:10:05.164Z</time></trkpt><trkpt lat="41.05858" lon="0.6298167"><ele>26.5</ele><time>2026-03-31T09:10:06.164Z</time></trkpt><trkpt lat="41.0586733" lon="0.6297217"><ele>26.75</ele><time>2026-03-31T09:10:07.163Z</time></trkpt><trkpt lat="41.05877" lon="0.6296283"><ele>27.0</ele><time>2026-03-31T09:10:08.163Z</time></trkpt><trkpt lat="41.0588683" lon="0.6295283"><ele>27.0</ele><time>2026-03-31T09:10:09.163Z</time></trkpt><trkpt lat="41.0589617" lon="0.6294283"><ele>27.0</ele><time>2026-03-31T09:10:10.163Z</time></trkpt><trkpt lat="41.059055" lon="0.6293267"><ele>27.0</ele><time>2026-03-31T09:10:11.163Z</time></trkpt><trkpt lat="41.059135" lon="0.6292267"><ele>27.0</ele><time>2026-03-31T09:10:12.164Z</time></trkpt><trkpt lat="41.059205" lon="0.6291183"><ele>27.200000000000003</ele><time>2026-03-31T09:10:13.163Z</time></trkpt><trkpt lat="41.0592733" lon="0.6290033"><ele>27.400000000000002</ele><time>2026-03-31T09:10:14.163Z</time></trkpt><trkpt lat="41.0593333" lon="0.6288833"><ele>27.599999999999998</ele><time>2026-03-31T09:10:15.164Z</time></trkpt><trkpt lat="41.0593883" lon="0.6287783"><ele>27.799999999999997</ele><time>2026-03-31T09:10:16.164Z</time></trkpt><trkpt lat="41.0594417" lon="0.6286833"><ele>28.0</ele><time>2026-03-31T09:10:17.163Z</time></trkpt><trkpt lat="41.059495" lon="0.6285917"><ele>28.0</ele><time>2026-03-31T09:10:18.164Z</time></trkpt><trkpt lat="41.0595567" lon="0.628485"><ele>27.999999999999996</ele><time>2026-03-31T09:10:19.163Z</time></trkpt><trkpt lat="41.059625" lon="0.628365"><ele>27.999999999999996</ele><time>2026-03-31T09:10:20.164Z</time></trkpt><trkpt lat="41.0596933" lon="0.6282417"><ele>28.0</ele><time>2026-03-31T09:10:21.163Z</time></trkpt><trkpt lat="41.05976" lon="0.6281133"><ele>28.0</ele><time>2026-03-31T09:10:22.164Z</time></trkpt><trkpt lat="41.0598267" lon="0.627985"><ele>28.0</ele><time>2026-03-31T09:10:23.163Z</time></trkpt><trkpt lat="41.0598967" lon="0.62786"><ele>28.0</ele><time>2026-03-31T09:10:24.163Z</time></trkpt><trkpt lat="41.0599617" lon="0.6277317"><ele>28.0</ele><time>2026-03-31T09:10:25.164Z</time></trkpt><trkpt lat="41.06003" lon="0.6275967"><ele>28.0</ele><time>2026-03-31T09:10:26.163Z</time></trkpt><trkpt lat="41.0600967" lon="0.627455"><ele>28.5</ele><time>2026-03-31T09:10:27.164Z</time></trkpt><trkpt lat="41.06016" lon="0.62731"><ele>29.0</ele><time>2026-03-31T09:10:28.164Z</time></trkpt><trkpt lat="41.0602267" lon="0.62717"><ele>29.5</ele><time>2026-03-31T09:10:29.164Z</time></trkpt><trkpt lat="41.060295" lon="0.6270217"><ele>30.0</ele><time>2026-03-31T09:10:30.163Z</time></trkpt><trkpt lat="41.0603583" lon="0.6268767"><ele>30.0</ele><time>2026-03-31T09:10:31.163Z</time></trkpt><trkpt lat="41.0604167" lon="0.6267333"><ele>30.0</ele><time>2026-03-31T09:10:32.164Z</time></trkpt><trkpt lat="41.0604667" lon="0.6265967"><ele>30.0</ele><time>2026-03-31T09:10:33.164Z</time></trkpt><trkpt lat="41.0605183" lon="0.626475"><ele>30.0</ele><time>2026-03-31T09:10:34.163Z</time></trkpt><trkpt lat="41.0605717" lon="0.6263533"><ele>30.0</ele><time>2026-03-31T09:10:35.163Z</time></trkpt><trkpt lat="41.0606283" lon="0.6262217"><ele>30.0</ele><time>2026-03-31T09:10:36.163Z</time></trkpt><trkpt lat="41.0606817" lon="0.6260917"><ele>30.0</ele><time>2026-03-31T09:10:37.163Z</time></trkpt><trkpt lat="41.0607383" lon="0.62596"><ele>30.0</ele><time>2026-03-31T09:10:38.163Z</time></trkpt><trkpt lat="41.060795" lon="0.6258417"><ele>30.0</ele><time>2026-03-31T09:10:39.164Z</time></trkpt><trkpt lat="41.0608517" lon="0.6257233"><ele>30.0</ele><time>2026-03-31T09:10:40.164Z</time></trkpt><trkpt lat="41.0609067" lon="0.625605"><ele>30.4</ele><time>2026-03-31T09:10:41.163Z</time></trkpt><trkpt lat="41.060955" lon="0.62549"><ele>30.8</ele><time>2026-03-31T09:10:42.164Z</time></trkpt><trkpt lat="41.061005" lon="0.6253783"><ele>31.200000000000003</ele><time>2026-03-31T09:10:43.164Z</time></trkpt><trkpt lat="41.061055" lon="0.6252683"><ele>31.6</ele><time>2026-03-31T09:10:44.164Z</time></trkpt><trkpt lat="41.0610983" lon="0.6251683"><ele>32.0</ele><time>2026-03-31T09:10:45.164Z</time></trkpt><trkpt lat="41.0611367" lon="0.625065"><ele>32.6</ele><time>2026-03-31T09:10:46.163Z</time></trkpt><trkpt lat="41.06116" lon="0.624955"><ele>33.2</ele><time>2026-03-31T09:10:47.164Z</time></trkpt><trkpt lat="41.061175" lon="0.6248467"><ele>33.8</ele><time>2026-03-31T09:10:48.164Z</time></trkpt><trkpt lat="41.0611717" lon="0.62473"><ele>34.4</ele><time>2026-03-31T09:10:49.164Z</time></trkpt><trkpt lat="41.0611567" lon="0.6246017"><ele>35.0</ele><time>2026-03-31T09:10:50.163Z</time></trkpt><trkpt lat="41.0611267" lon="0.6244817"><ele>36.33333333333333</ele><time>2026-03-31T09:10:51.163Z</time></trkpt><trkpt lat="41.0610917" lon="0.6243583"><ele>37.666666666666664</ele><time>2026-03-31T09:10:52.163Z</time></trkpt><trkpt lat="41.0610717" lon="0.6242383"><ele>39.0</ele><time>2026-03-31T09:10:53.163Z</time></trkpt><trkpt lat="41.0610617" lon="0.6241383"><ele>40.333333333333336</ele><time>2026-03-31T09:10:54.163Z</time></trkpt><trkpt lat="41.0610583" lon="0.62404"><ele>41.66666666666667</ele><time>2026-03-31T09:10:55.163Z</time></trkpt><trkpt lat="41.0610633" lon="0.6239433"><ele>43.0</ele><time>2026-03-31T09:10:56.163Z</time></trkpt><trkpt lat="41.0610817" lon="0.6238483"><ele>43.0</ele><time>2026-03-31T09:10:57.164Z</time></trkpt><trkpt lat="41.0611117" lon="0.62375"><ele>43.0</ele><time>2026-03-31T09:10:58.164Z</time></trkpt><trkpt lat="41.061155" lon="0.6236633"><ele>43.0</ele><time>2026-03-31T09:10:59.164Z</time></trkpt><trkpt lat="41.0611933" lon="0.6235933"><ele>43.0</ele><time>2026-03-31T09:11:00.163Z</time></trkpt><trkpt lat="41.06127" lon="0.623455"><ele>43.0</ele><time>2026-03-31T09:11:02.163Z</time></trkpt><trkpt lat="41.06133" lon="0.6233483"><ele>44.25</ele><time>2026-03-31T09:11:03.164Z</time></trkpt><trkpt lat="41.0614067" lon="0.623245"><ele>45.5</ele><time>2026-03-31T09:11:04.163Z</time></trkpt><trkpt lat="41.0614917" lon="0.623135"><ele>46.75</ele><time>2026-03-31T09:11:05.164Z</time></trkpt><trkpt lat="41.0615767" lon="0.62301"><ele>48.0</ele><time>2026-03-31T09:11:06.163Z</time></trkpt><trkpt lat="41.0616617" lon="0.6228883"><ele>48.0</ele><time>2026-03-31T09:11:07.163Z</time></trkpt><trkpt lat="41.0617417" lon="0.6227483"><ele>48.0</ele><time>2026-03-31T09:11:08.164Z</time></trkpt><trkpt lat="41.0618217" lon="0.622595"><ele>48.0</ele><time>2026-03-31T09:11:09.164Z</time></trkpt><trkpt lat="41.0618917" lon="0.6224283"><ele>48.0</ele><time>2026-03-31T09:11:10.164Z</time></trkpt><trkpt lat="41.06196" lon="0.6222533"><ele>48.0</ele><time>2026-03-31T09:11:11.163Z</time></trkpt><trkpt lat="41.0620267" lon="0.6220767"><ele>48.0</ele><time>2026-03-31T09:11:12.163Z</time></trkpt><trkpt lat="41.0620917" lon="0.6218983"><ele>48.0</ele><time>2026-03-31T09:11:13.163Z</time></trkpt><trkpt lat="41.0621533" lon="0.62172"><ele>48.0</ele><time>2026-03-31T09:11:14.163Z</time></trkpt><trkpt lat="41.0622133" lon="0.6215433"><ele>48.5</ele><time>2026-03-31T09:11:15.163Z</time></trkpt><trkpt lat="41.0622717" lon="0.6213717"><ele>49.0</ele><time>2026-03-31T09:11:16.164Z</time></trkpt><trkpt lat="41.0623267" lon="0.6211983"><ele>49.5</ele><time>2026-03-31T09:11:17.164Z</time></trkpt><trkpt lat="41.062375" lon="0.6210217"><ele>50.0</ele><time>2026-03-31T09:11:18.163Z</time></trkpt><trkpt lat="41.0624267" lon="0.6208367"><ele>50.66666666666667</ele><time>2026-03-31T09:11:19.163Z</time></trkpt><trkpt lat="41.0624683" lon="0.6206517"><ele>51.33333333333333</ele><time>2026-03-31T09:11:20.164Z</time></trkpt><trkpt lat="41.0625167" lon="0.62046"><ele>52.0</ele><time>2026-03-31T09:11:21.164Z</time></trkpt><trkpt lat="41.0625617" lon="0.6202567"><ele>52.666666666666664</ele><time>2026-03-31T09:11:22.163Z</time></trkpt><trkpt lat="41.0626133" lon="0.62004"><ele>53.33333333333333</ele><time>2026-03-31T09:11:23.163Z</time></trkpt><trkpt lat="41.0626567" lon="0.6198217"><ele>54.0</ele><time>2026-03-31T09:11:24.163Z</time></trkpt><trkpt lat="41.0627033" lon="0.6196067"><ele>54.33333333333333</ele><time>2026-03-31T09:11:25.163Z</time></trkpt><trkpt lat="41.0627533" lon="0.61939"><ele>54.666666666666664</ele><time>2026-03-31T09:11:26.164Z</time></trkpt><trkpt lat="41.0628" lon="0.6191667"><ele>55.0</ele><time>2026-03-31T09:11:27.163Z</time></trkpt><trkpt lat="41.062845" lon="0.61894"><ele>55.0</ele><time>2026-03-31T09:11:28.164Z</time></trkpt><trkpt lat="41.0628833" lon="0.6187133"><ele>55.0</ele><time>2026-03-31T09:11:29.163Z</time></trkpt><trkpt lat="41.0629183" lon="0.6184833"><ele>55.0</ele><time>2026-03-31T09:11:30.163Z</time></trkpt><trkpt lat="41.062945" lon="0.6182567"><ele>55.33333333333333</ele><time>2026-03-31T09:11:31.164Z</time></trkpt><trkpt lat="41.062965" lon="0.6180267"><ele>55.66666666666667</ele><time>2026-03-31T09:11:32.164Z</time></trkpt><trkpt lat="41.06298" lon="0.6177883"><ele>56.0</ele><time>2026-03-31T09:11:33.164Z</time></trkpt><trkpt lat="41.0629967" lon="0.6175517"><ele>56.66666666666667</ele><time>2026-03-31T09:11:34.163Z</time></trkpt><trkpt lat="41.0630083" lon="0.6173233"><ele>57.33333333333333</ele><time>2026-03-31T09:11:35.163Z</time></trkpt><trkpt lat="41.0630183" lon="0.6170883"><ele>58.0</ele><time>2026-03-31T09:11:36.163Z</time></trkpt><trkpt lat="41.0630367" lon="0.6168483"><ele>58.0</ele><time>2026-03-31T09:11:37.163Z</time></trkpt><trkpt lat="41.063055" lon="0.6166033"><ele>58.0</ele><time>2026-03-31T09:11:38.164Z</time></trkpt><trkpt lat="41.0630683" lon="0.6163667"><ele>58.0</ele><time>2026-03-31T09:11:39.163Z</time></trkpt><trkpt lat="41.0630733" lon="0.6161383"><ele>58.33333333333333</ele><time>2026-03-31T09:11:40.163Z</time></trkpt><trkpt lat="41.0630783" lon="0.6159183"><ele>58.66666666666667</ele><time>2026-03-31T09:11:41.164Z</time></trkpt><trkpt lat="41.0630783" lon="0.6156917"><ele>59.0</ele><time>2026-03-31T09:11:42.163Z</time></trkpt><trkpt lat="41.0630683" lon="0.61546"><ele>59.5</ele><time>2026-03-31T09:11:43.163Z</time></trkpt><trkpt lat="41.0630533" lon="0.6152417"><ele>60.0</ele><time>2026-03-31T09:11:44.163Z</time></trkpt><trkpt lat="41.063045" lon="0.61505"><ele>60.5</ele><time>2026-03-31T09:11:45.164Z</time></trkpt><trkpt lat="41.0630317" lon="0.61489"><ele>61.0</ele><time>2026-03-31T09:11:46.164Z</time></trkpt><trkpt lat="41.0630117" lon="0.6147583"><ele>61.0</ele><time>2026-03-31T09:11:47.164Z</time></trkpt><trkpt lat="41.062985" lon="0.6146367"><ele>60.99999999999999</ele><time>2026-03-31T09:11:48.163Z</time></trkpt><trkpt lat="41.0629533" lon="0.6145033"><ele>60.99999999999999</ele><time>2026-03-31T09:11:49.163Z</time></trkpt><trkpt lat="41.0629217" lon="0.6143483"><ele>61.0</ele><time>2026-03-31T09:11:50.164Z</time></trkpt><trkpt lat="41.0628933" lon="0.6141933"><ele>61.0</ele><time>2026-03-31T09:11:51.164Z</time></trkpt><trkpt lat="41.06287" lon="0.614025"><ele>61.0</ele><time>2026-03-31T09:11:52.163Z</time></trkpt><trkpt lat="41.0628617" lon="0.61384"><ele>61.0</ele><time>2026-03-31T09:11:53.163Z</time></trkpt><trkpt lat="41.062855" lon="0.6136483"><ele>61.0</ele><time>2026-03-31T09:11:54.164Z</time></trkpt><trkpt lat="41.0628517" lon="0.6134467"><ele>61.0</ele><time>2026-03-31T09:11:55.163Z</time></trkpt><trkpt lat="41.0628467" lon="0.6132333"><ele>61.0</ele><time>2026-03-31T09:11:56.163Z</time></trkpt><trkpt lat="41.0628417" lon="0.6130167"><ele>61.0</ele><time>2026-03-31T09:11:57.164Z</time></trkpt><trkpt lat="41.0628367" lon="0.6127983"><ele>61.0</ele><time>2026-03-31T09:11:58.163Z</time></trkpt><trkpt lat="41.0628267" lon="0.61258"><ele>61.33333333333333</ele><time>2026-03-31T09:11:59.164Z</time></trkpt><trkpt lat="41.06281" lon="0.6123633"><ele>61.66666666666667</ele><time>2026-03-31T09:12:00.163Z</time></trkpt><trkpt lat="41.0627967" lon="0.6121467"><ele>62.0</ele><time>2026-03-31T09:12:01.163Z</time></trkpt><trkpt lat="41.0627867" lon="0.61193"><ele>62.0</ele><time>2026-03-31T09:12:02.163Z</time></trkpt><trkpt lat="41.0627717" lon="0.6117117"><ele>62.0</ele><time>2026-03-31T09:12:03.163Z</time></trkpt><trkpt lat="41.0627567" lon="0.6114833"><ele>62.0</ele><time>2026-03-31T09:12:04.164Z</time></trkpt><trkpt lat="41.0627383" lon="0.6112633"><ele>63.0</ele><time>2026-03-31T09:12:05.163Z</time></trkpt><trkpt lat="41.062715" lon="0.6110483"><ele>64.0</ele><time>2026-03-31T09:12:06.164Z</time></trkpt><trkpt lat="41.0626817" lon="0.61083"><ele>65.0</ele><time>2026-03-31T09:12:07.163Z</time></trkpt><trkpt lat="41.0626483" lon="0.6106283"><ele>65.0</ele><time>2026-03-31T09:12:08.164Z</time></trkpt><trkpt lat="41.0626167" lon="0.6104367"><ele>65.0</ele><time>2026-03-31T09:12:09.163Z</time></trkpt><trkpt lat="41.0625783" lon="0.6102417"><ele>65.0</ele><time>2026-03-31T09:12:10.163Z</time></trkpt><trkpt lat="41.0625467" lon="0.61005"><ele>65.0</ele><time>2026-03-31T09:12:11.164Z</time></trkpt><trkpt lat="41.0625167" lon="0.6098483"><ele>65.33333333333334</ele><time>2026-03-31T09:12:12.163Z</time></trkpt><trkpt lat="41.062495" lon="0.6096383"><ele>65.66666666666667</ele><time>2026-03-31T09:12:13.163Z</time></trkpt><trkpt lat="41.062485" lon="0.6094233"><ele>66.0</ele><time>2026-03-31T09:12:14.163Z</time></trkpt><trkpt lat="41.062485" lon="0.6092117"><ele>65.66666666666667</ele><time>2026-03-31T09:12:15.163Z</time></trkpt><trkpt lat="41.0624733" lon="0.6090033"><ele>65.33333333333334</ele><time>2026-03-31T09:12:16.164Z</time></trkpt><trkpt lat="41.0624483" lon="0.6087933"><ele>65.0</ele><time>2026-03-31T09:12:17.163Z</time></trkpt><trkpt lat="41.0624167" lon="0.60859"><ele>65.0</ele><time>2026-03-31T09:12:18.163Z</time></trkpt><trkpt lat="41.0624017" lon="0.608385"><ele>65.0</ele><time>2026-03-31T09:12:19.164Z</time></trkpt><trkpt lat="41.0623933" lon="0.6081783"><ele>65.0</ele><time>2026-03-31T09:12:20.164Z</time></trkpt><trkpt lat="41.0623833" lon="0.607975"><ele>65.66666666666667</ele><time>2026-03-31T09:12:21.163Z</time></trkpt><trkpt lat="41.06236" lon="0.607775"><ele>66.33333333333333</ele><time>2026-03-31T09:12:22.163Z</time></trkpt><trkpt lat="41.0623217" lon="0.607575"><ele>67.0</ele><time>2026-03-31T09:12:23.163Z</time></trkpt><trkpt lat="41.0622733" lon="0.6073867"><ele>67.0</ele><time>2026-03-31T09:12:24.163Z</time></trkpt><trkpt lat="41.0622233" lon="0.607195"><ele>67.0</ele><time>2026-03-31T09:12:25.164Z</time></trkpt><trkpt lat="41.0621767" lon="0.607"><ele>67.0</ele><time>2026-03-31T09:12:26.164Z</time></trkpt><trkpt lat="41.062135" lon="0.6068"><ele>68.0</ele><time>2026-03-31T09:12:27.163Z</time></trkpt><trkpt lat="41.062095" lon="0.6065983"><ele>69.0</ele><time>2026-03-31T09:12:28.163Z</time></trkpt><trkpt lat="41.06206" lon="0.6063867"><ele>70.0</ele><time>2026-03-31T09:12:29.163Z</time></trkpt><trkpt lat="41.0620217" lon="0.6061717"><ele>71.0</ele><time>2026-03-31T09:12:30.163Z</time></trkpt><trkpt lat="41.061985" lon="0.6059417"><ele>72.0</ele><time>2026-03-31T09:12:31.164Z</time></trkpt><trkpt lat="41.06195" lon="0.605715"><ele>73.0</ele><time>2026-03-31T09:12:32.163Z</time></trkpt><trkpt lat="41.0619217" lon="0.6054933"><ele>73.66666666666666</ele><time>2026-03-31T09:12:33.163Z</time></trkpt><trkpt lat="41.0618883" lon="0.605275"><ele>74.33333333333333</ele><time>2026-03-31T09:12:34.164Z</time></trkpt><trkpt lat="41.061855" lon="0.605065"><ele>75.0</ele><time>2026-03-31T09:12:35.164Z</time></trkpt><trkpt lat="41.06182" lon="0.6048683"><ele>75.0</ele><time>2026-03-31T09:12:36.163Z</time></trkpt><trkpt lat="41.061795" lon="0.6046717"><ele>75.0</ele><time>2026-03-31T09:12:37.163Z</time></trkpt><trkpt lat="41.0617667" lon="0.6044733"><ele>75.0</ele><time>2026-03-31T09:12:38.164Z</time></trkpt><trkpt lat="41.0617433" lon="0.6042767"><ele>75.33333333333333</ele><time>2026-03-31T09:12:39.164Z</time></trkpt><trkpt lat="41.0617217" lon="0.6040767"><ele>75.66666666666666</ele><time>2026-03-31T09:12:40.163Z</time></trkpt><trkpt lat="41.0617033" lon="0.6038767"><ele>76.0</ele><time>2026-03-31T09:12:41.163Z</time></trkpt><trkpt lat="41.0616817" lon="0.603675"><ele>74.66666666666666</ele><time>2026-03-31T09:12:42.164Z</time></trkpt><trkpt lat="41.061655" lon="0.603475"><ele>73.33333333333333</ele><time>2026-03-31T09:12:43.163Z</time></trkpt><trkpt lat="41.0616183" lon="0.6032767"><ele>72.0</ele><time>2026-03-31T09:12:44.163Z</time></trkpt><trkpt lat="41.061575" lon="0.6030883"><ele>72.0</ele><time>2026-03-31T09:12:45.163Z</time></trkpt><trkpt lat="41.061515" lon="0.6029083"><ele>72.0</ele><time>2026-03-31T09:12:46.164Z</time></trkpt><trkpt lat="41.0614617" lon="0.6027433"><ele>72.0</ele><time>2026-03-31T09:12:47.163Z</time></trkpt><trkpt lat="41.061425" lon="0.6025933"><ele>72.0</ele><time>2026-03-31T09:12:48.164Z</time></trkpt><trkpt lat="41.061405" lon="0.602455"><ele>72.75</ele><time>2026-03-31T09:12:49.164Z</time></trkpt><trkpt lat="41.0613917" lon="0.6023133"><ele>73.5</ele><time>2026-03-31T09:12:50.163Z</time></trkpt><trkpt lat="41.0614" lon="0.60217"><ele>74.25</ele><time>2026-03-31T09:12:51.164Z</time></trkpt><trkpt lat="41.0614183" lon="0.6020117"><ele>75.0</ele><time>2026-03-31T09:12:52.163Z</time></trkpt><trkpt lat="41.0614333" lon="0.601835"><ele>75.75</ele><time>2026-03-31T09:12:53.163Z</time></trkpt><trkpt lat="41.06145" lon="0.6016467"><ele>76.5</ele><time>2026-03-31T09:12:54.163Z</time></trkpt><trkpt lat="41.0614617" lon="0.6014583"><ele>77.25</ele><time>2026-03-31T09:12:55.162Z</time></trkpt><trkpt lat="41.061465" lon="0.6012633"><ele>78.0</ele><time>2026-03-31T09:12:56.162Z</time></trkpt><trkpt lat="41.0614667" lon="0.6010567"><ele>78.0</ele><time>2026-03-31T09:12:57.162Z</time></trkpt><trkpt lat="41.06148" lon="0.6008567"><ele>78.0</ele><time>2026-03-31T09:12:58.162Z</time></trkpt><trkpt lat="41.0614917" lon="0.60066"><ele>78.0</ele><time>2026-03-31T09:12:59.163Z</time></trkpt><trkpt lat="41.06148" lon="0.6004517"><ele>76.33333333333333</ele><time>2026-03-31T09:13:00.163Z</time></trkpt><trkpt lat="41.0614533" lon="0.6002517"><ele>74.66666666666666</ele><time>2026-03-31T09:13:01.163Z</time></trkpt><trkpt lat="41.061415" lon="0.6000617"><ele>73.0</ele><time>2026-03-31T09:13:02.163Z</time></trkpt><trkpt lat="41.0613733" lon="0.599865"><ele>73.0</ele><time>2026-03-31T09:13:03.162Z</time></trkpt><trkpt lat="41.06133" lon="0.5996867"><ele>73.0</ele><time>2026-03-31T09:13:04.163Z</time></trkpt><trkpt lat="41.0613017" lon="0.5995217"><ele>73.0</ele><time>2026-03-31T09:13:05.162Z</time></trkpt><trkpt lat="41.061285" lon="0.5993633"><ele>73.0</ele><time>2026-03-31T09:13:06.162Z</time></trkpt><trkpt lat="41.06128" lon="0.5991967"><ele>73.6</ele><time>2026-03-31T09:13:07.162Z</time></trkpt><trkpt lat="41.061295" lon="0.59904"><ele>74.19999999999999</ele><time>2026-03-31T09:13:08.162Z</time></trkpt><trkpt lat="41.0613217" lon="0.5988783"><ele>74.8</ele><time>2026-03-31T09:13:09.163Z</time></trkpt><trkpt lat="41.0613583" lon="0.59873"><ele>75.39999999999999</ele><time>2026-03-31T09:13:10.163Z</time></trkpt><trkpt lat="41.0613817" lon="0.59862"><ele>76.0</ele><time>2026-03-31T09:13:11.162Z</time></trkpt><trkpt lat="41.0613983" lon="0.5985283"><ele>76.39999999999999</ele><time>2026-03-31T09:13:13.162Z</time></trkpt><trkpt lat="41.061365" lon="0.5984083"><ele>76.8</ele><time>2026-03-31T09:13:18.162Z</time></trkpt><trkpt lat="41.0613717" lon="0.5982217"><ele>77.19999999999999</ele><time>2026-03-31T09:13:20.162Z</time></trkpt><trkpt lat="41.0613717" lon="0.5981033"><ele>77.6</ele><time>2026-03-31T09:13:21.163Z</time></trkpt><trkpt lat="41.0613717" lon="0.597975"><ele>78.0</ele><time>2026-03-31T09:13:22.162Z</time></trkpt><trkpt lat="41.06138" lon="0.5978267"><ele>76.5</ele><time>2026-03-31T09:13:23.162Z</time></trkpt><trkpt lat="41.061395" lon="0.5976683"><ele>75.0</ele><time>2026-03-31T09:13:24.162Z</time></trkpt><trkpt lat="41.0614133" lon="0.597515"><ele>73.5</ele><time>2026-03-31T09:13:25.162Z</time></trkpt><trkpt lat="41.0614283" lon="0.5973617"><ele>72.0</ele><time>2026-03-31T09:13:26.162Z</time></trkpt><trkpt lat="41.06144" lon="0.5971967"><ele>72.0</ele><time>2026-03-31T09:13:27.162Z</time></trkpt><trkpt lat="41.06144" lon="0.5970267"><ele>72.0</ele><time>2026-03-31T09:13:28.163Z</time></trkpt><trkpt lat="41.0614367" lon="0.596855"><ele>72.0</ele><time>2026-03-31T09:13:29.162Z</time></trkpt><trkpt lat="41.0614333" lon="0.5966867"><ele>72.0</ele><time>2026-03-31T09:13:30.163Z</time></trkpt><trkpt lat="41.0614233" lon="0.59652"><ele>71.8</ele><time>2026-03-31T09:13:31.163Z</time></trkpt><trkpt lat="41.061405" lon="0.5963733"><ele>71.6</ele><time>2026-03-31T09:13:32.162Z</time></trkpt><trkpt lat="41.0613667" lon="0.5962383"><ele>71.39999999999999</ele><time>2026-03-31T09:13:33.163Z</time></trkpt><trkpt lat="41.0613167" lon="0.5961067"><ele>71.2</ele><time>2026-03-31T09:13:34.163Z</time></trkpt><trkpt lat="41.0612633" lon="0.5959717"><ele>71.0</ele><time>2026-03-31T09:13:35.162Z</time></trkpt><trkpt lat="41.0612117" lon="0.5958383"><ele>71.6</ele><time>2026-03-31T09:13:36.162Z</time></trkpt><trkpt lat="41.0611683" lon="0.5957217"><ele>72.19999999999999</ele><time>2026-03-31T09:13:37.163Z</time></trkpt><trkpt lat="41.0611217" lon="0.5956067"><ele>72.80000000000001</ele><time>2026-03-31T09:13:38.162Z</time></trkpt><trkpt lat="41.0610917" lon="0.5954983"><ele>73.4</ele><time>2026-03-31T09:13:39.163Z</time></trkpt><trkpt lat="41.0610733" lon="0.5953833"><ele>74.0</ele><time>2026-03-31T09:13:40.162Z</time></trkpt><trkpt lat="41.0610617" lon="0.595265"><ele>75.66666666666667</ele><time>2026-03-31T09:13:41.163Z</time></trkpt><trkpt lat="41.0610617" lon="0.5951517"><ele>77.33333333333334</ele><time>2026-03-31T09:13:42.163Z</time></trkpt><trkpt lat="41.0610583" lon="0.5950467"><ele>79.0</ele><time>2026-03-31T09:13:43.162Z</time></trkpt><trkpt lat="41.0610667" lon="0.5949433"><ele>80.66666666666667</ele><time>2026-03-31T09:13:44.162Z</time></trkpt><trkpt lat="41.061075" lon="0.594845"><ele>82.33333333333333</ele><time>2026-03-31T09:13:45.162Z</time></trkpt><trkpt lat="41.061085" lon="0.5947517"><ele>84.0</ele><time>2026-03-31T09:13:46.162Z</time></trkpt><trkpt lat="41.061095" lon="0.594665"><ele>84.0</ele><time>2026-03-31T09:13:47.162Z</time></trkpt><trkpt lat="41.06112" lon="0.5945867"><ele>84.0</ele><time>2026-03-31T09:13:48.163Z</time></trkpt><trkpt lat="41.0611683" lon="0.594525"><ele>84.0</ele><time>2026-03-31T09:13:49.162Z</time></trkpt><trkpt lat="41.06123" lon="0.594485"><ele>84.0</ele><time>2026-03-31T09:13:50.163Z</time></trkpt><trkpt lat="41.0612817" lon="0.5944267"><ele>84.0</ele><time>2026-03-31T09:13:51.163Z</time></trkpt><trkpt lat="41.0613133" lon="0.5943533"><ele>84.0</ele><time>2026-03-31T09:13:52.162Z</time></trkpt><trkpt lat="41.0613033" lon="0.594225"><ele>84.0</ele><time>2026-03-31T09:13:54.162Z</time></trkpt><trkpt lat="41.0612567" lon="0.59407"><ele>84.83333333333333</ele><time>2026-03-31T09:13:56.163Z</time></trkpt><trkpt lat="41.0612617" lon="0.5939867"><ele>85.66666666666667</ele><time>2026-03-31T09:13:57.162Z</time></trkpt><trkpt lat="41.0612783" lon="0.5939"><ele>86.5</ele><time>2026-03-31T09:13:58.162Z</time></trkpt><trkpt lat="41.06129" lon="0.5938083"><ele>87.33333333333334</ele><time>2026-03-31T09:13:59.162Z</time></trkpt><trkpt lat="41.0612533" lon="0.5936683"><ele>88.16666666666667</ele><time>2026-03-31T09:14:01.162Z</time></trkpt><trkpt lat="41.0611367" lon="0.5935767"><ele>89.0</ele><time>2026-03-31T09:14:03.162Z</time></trkpt><trkpt lat="41.0610517" lon="0.5935367"><ele>89.4</ele><time>2026-03-31T09:14:04.163Z</time></trkpt><trkpt lat="41.0609617" lon="0.5934767"><ele>89.80000000000001</ele><time>2026-03-31T09:14:05.162Z</time></trkpt><trkpt lat="41.0608733" lon="0.5934067"><ele>90.19999999999999</ele><time>2026-03-31T09:14:06.162Z</time></trkpt><trkpt lat="41.0607917" lon="0.59333"><ele>90.6</ele><time>2026-03-31T09:14:07.163Z</time></trkpt><trkpt lat="41.0607017" lon="0.5932767"><ele>91.0</ele><time>2026-03-31T09:14:08.162Z</time></trkpt><trkpt lat="41.0606217" lon="0.59321"><ele>93.4</ele><time>2026-03-31T09:14:09.162Z</time></trkpt><trkpt lat="41.0605267" lon="0.59314"><ele>95.8</ele><time>2026-03-31T09:14:10.163Z</time></trkpt><trkpt lat="41.06044" lon="0.5930767"><ele>98.2</ele><time>2026-03-31T09:14:11.163Z</time></trkpt><trkpt lat="41.0603583" lon="0.5929983"><ele>100.60000000000001</ele><time>2026-03-31T09:14:12.163Z</time></trkpt><trkpt lat="41.0602867" lon="0.5929067"><ele>103.0</ele><time>2026-03-31T09:14:13.162Z</time></trkpt><trkpt lat="41.0602133" lon="0.592805"><ele>103.0</ele><time>2026-03-31T09:14:14.163Z</time></trkpt><trkpt lat="41.0601317" lon="0.5927133"><ele>103.0</ele><time>2026-03-31T09:14:15.163Z</time></trkpt><trkpt lat="41.060035" lon="0.592645"><ele>103.0</ele><time>2026-03-31T09:14:16.162Z</time></trkpt><trkpt lat="41.059945" lon="0.5925567"><ele>103.0</ele><time>2026-03-31T09:14:17.163Z</time></trkpt><trkpt lat="41.0598617" lon="0.59245"><ele>103.0</ele><time>2026-03-31T09:14:18.163Z</time></trkpt><trkpt lat="41.05979" lon="0.5923417"><ele>105.2</ele><time>2026-03-31T09:14:19.163Z</time></trkpt><trkpt lat="41.0597267" lon="0.5922283"><ele>107.4</ele><time>2026-03-31T09:14:20.162Z</time></trkpt><trkpt lat="41.0596683" lon="0.5921133"><ele>109.60000000000001</ele><time>2026-03-31T09:14:21.163Z</time></trkpt><trkpt lat="41.05962" lon="0.5919967"><ele>111.80000000000001</ele><time>2026-03-31T09:14:22.162Z</time></trkpt><trkpt lat="41.0596" lon="0.591905"><ele>114.0</ele><time>2026-03-31T09:14:23.163Z</time></trkpt><trkpt lat="41.05958" lon="0.591815"><ele>114.0</ele><time>2026-03-31T09:14:24.162Z</time></trkpt><trkpt lat="41.0595467" lon="0.59173"><ele>114.0</ele><time>2026-03-31T09:14:25.162Z</time></trkpt><trkpt lat="41.0594933" lon="0.5916417"><ele>114.0</ele><time>2026-03-31T09:14:26.163Z</time></trkpt><trkpt lat="41.0594383" lon="0.5915517"><ele>114.0</ele><time>2026-03-31T09:14:27.163Z</time></trkpt><trkpt lat="41.0593767" lon="0.5914533"><ele>114.0</ele><time>2026-03-31T09:14:28.163Z</time></trkpt><trkpt lat="41.0593267" lon="0.591365"><ele>114.0</ele><time>2026-03-31T09:14:29.163Z</time></trkpt><trkpt lat="41.0592833" lon="0.5912833"><ele>114.0</ele><time>2026-03-31T09:14:30.163Z</time></trkpt><trkpt lat="41.0592417" lon="0.5911867"><ele>114.0</ele><time>2026-03-31T09:14:31.162Z</time></trkpt><trkpt lat="41.0592" lon="0.591085"><ele>114.0</ele><time>2026-03-31T09:14:32.163Z</time></trkpt><trkpt lat="41.0591483" lon="0.5909833"><ele>114.0</ele><time>2026-03-31T09:14:33.162Z</time></trkpt><trkpt lat="41.0590883" lon="0.590885"><ele>114.0</ele><time>2026-03-31T09:14:34.162Z</time></trkpt><trkpt lat="41.0590083" lon="0.5907983"><ele>113.5</ele><time>2026-03-31T09:14:35.163Z</time></trkpt><trkpt lat="41.05893" lon="0.5907133"><ele>113.0</ele><time>2026-03-31T09:14:36.162Z</time></trkpt><trkpt lat="41.058855" lon="0.59064"><ele>112.5</ele><time>2026-03-31T09:14:37.162Z</time></trkpt><trkpt lat="41.0587933" lon="0.59056"><ele>112.0</ele><time>2026-03-31T09:14:38.163Z</time></trkpt><trkpt lat="41.058745" lon="0.5904833"><ele>111.5</ele><time>2026-03-31T09:14:39.162Z</time></trkpt><trkpt lat="41.0587067" lon="0.5903917"><ele>111.0</ele><time>2026-03-31T09:14:40.162Z</time></trkpt><trkpt lat="41.058685" lon="0.5902833"><ele>111.0</ele><time>2026-03-31T09:14:41.162Z</time></trkpt><trkpt lat="41.05867" lon="0.5901617"><ele>111.0</ele><time>2026-03-31T09:14:42.163Z</time></trkpt><trkpt lat="41.05866" lon="0.5900267"><ele>111.0</ele><time>2026-03-31T09:14:43.162Z</time></trkpt><trkpt lat="41.05864" lon="0.589895"><ele>111.0</ele><time>2026-03-31T09:14:44.162Z</time></trkpt><trkpt lat="41.0586033" lon="0.5897667"><ele>111.0</ele><time>2026-03-31T09:14:45.162Z</time></trkpt><trkpt lat="41.0585533" lon="0.5896533"><ele>111.0</ele><time>2026-03-31T09:14:46.163Z</time></trkpt><trkpt lat="41.058495" lon="0.5895433"><ele>111.0</ele><time>2026-03-31T09:14:47.163Z</time></trkpt><trkpt lat="41.0584383" lon="0.5894267"><ele>111.0</ele><time>2026-03-31T09:14:48.162Z</time></trkpt><trkpt lat="41.0583833" lon="0.5893017"><ele>111.0</ele><time>2026-03-31T09:14:49.163Z</time></trkpt><trkpt lat="41.058335" lon="0.5891767"><ele>111.0</ele><time>2026-03-31T09:14:50.162Z</time></trkpt><trkpt lat="41.058285" lon="0.5890567"><ele>110.25</ele><time>2026-03-31T09:14:51.163Z</time></trkpt><trkpt lat="41.05823" lon="0.5889267"><ele>109.5</ele><time>2026-03-31T09:14:52.163Z</time></trkpt><trkpt lat="41.0581733" lon="0.5887967"><ele>108.75</ele><time>2026-03-31T09:14:53.163Z</time></trkpt><trkpt lat="41.0581133" lon="0.5886567"><ele>108.0</ele><time>2026-03-31T09:14:54.163Z</time></trkpt><trkpt lat="41.0580483" lon="0.5885183"><ele>108.0</ele><time>2026-03-31T09:14:55.163Z</time></trkpt><trkpt lat="41.0579867" lon="0.5883867"><ele>108.00000000000001</ele><time>2026-03-31T09:14:56.162Z</time></trkpt><trkpt lat="41.0579317" lon="0.5882583"><ele>108.00000000000001</ele><time>2026-03-31T09:14:57.162Z</time></trkpt><trkpt lat="41.0578767" lon="0.58814"><ele>108.0</ele><time>2026-03-31T09:14:58.163Z</time></trkpt><trkpt lat="41.057835" lon="0.58804"><ele>108.0</ele><time>2026-03-31T09:14:59.162Z</time></trkpt><trkpt lat="41.0578017" lon="0.58794"><ele>108.0</ele><time>2026-03-31T09:15:00.162Z</time></trkpt><trkpt lat="41.0577717" lon="0.58785"><ele>108.0</ele><time>2026-03-31T09:15:01.162Z</time></trkpt><trkpt lat="41.0577567" lon="0.5877633"><ele>108.0</ele><time>2026-03-31T09:15:02.163Z</time></trkpt><trkpt lat="41.057755" lon="0.587675"><ele>108.0</ele><time>2026-03-31T09:15:03.163Z</time></trkpt><trkpt lat="41.0577617" lon="0.5875717"><ele>108.0</ele><time>2026-03-31T09:15:04.162Z</time></trkpt><trkpt lat="41.05777" lon="0.5874567"><ele>108.0</ele><time>2026-03-31T09:15:05.162Z</time></trkpt><trkpt lat="41.0577717" lon="0.5873417"><ele>107.60000000000001</ele><time>2026-03-31T09:15:06.163Z</time></trkpt><trkpt lat="41.0577783" lon="0.5871983"><ele>107.20000000000002</ele><time>2026-03-31T09:15:07.163Z</time></trkpt><trkpt lat="41.0577883" lon="0.5870517"><ele>106.8</ele><time>2026-03-31T09:15:08.163Z</time></trkpt><trkpt lat="41.057795" lon="0.5868983"><ele>106.4</ele><time>2026-03-31T09:15:09.162Z</time></trkpt><trkpt lat="41.0578067" lon="0.58675"><ele>106.0</ele><time>2026-03-31T09:15:10.163Z</time></trkpt><trkpt lat="41.0578133" lon="0.5866033"><ele>105.5</ele><time>2026-03-31T09:15:11.163Z</time></trkpt><trkpt lat="41.0578183" lon="0.5864567"><ele>105.0</ele><time>2026-03-31T09:15:12.163Z</time></trkpt><trkpt lat="41.0578133" lon="0.5863083"><ele>104.5</ele><time>2026-03-31T09:15:13.162Z</time></trkpt><trkpt lat="41.0578083" lon="0.5861533"><ele>104.0</ele><time>2026-03-31T09:15:14.163Z</time></trkpt><trkpt lat="41.0578033" lon="0.586005"><ele>103.6</ele><time>2026-03-31T09:15:15.162Z</time></trkpt><trkpt lat="41.0578067" lon="0.5858533"><ele>103.2</ele><time>2026-03-31T09:15:16.163Z</time></trkpt><trkpt lat="41.0578133" lon="0.5857067"><ele>102.8</ele><time>2026-03-31T09:15:17.162Z</time></trkpt><trkpt lat="41.0578167" lon="0.5855567"><ele>102.39999999999999</ele><time>2026-03-31T09:15:18.162Z</time></trkpt><trkpt lat="41.057825" lon="0.585415"><ele>102.0</ele><time>2026-03-31T09:15:19.162Z</time></trkpt><trkpt lat="41.0578317" lon="0.5852667"><ele>101.75</ele><time>2026-03-31T09:15:20.162Z</time></trkpt><trkpt lat="41.0578283" lon="0.5851167"><ele>101.5</ele><time>2026-03-31T09:15:21.163Z</time></trkpt><trkpt lat="41.05783" lon="0.5849683"><ele>101.25</ele><time>2026-03-31T09:15:22.162Z</time></trkpt><trkpt lat="41.0578317" lon="0.5848183"><ele>101.0</ele><time>2026-03-31T09:15:23.162Z</time></trkpt><trkpt lat="41.057825" lon="0.5846683"><ele>101.0</ele><time>2026-03-31T09:15:24.163Z</time></trkpt><trkpt lat="41.057815" lon="0.584525"><ele>101.0</ele><time>2026-03-31T09:15:25.162Z</time></trkpt><trkpt lat="41.057815" lon="0.584385"><ele>101.0</ele><time>2026-03-31T09:15:26.163Z</time></trkpt><trkpt lat="41.057815" lon="0.5842583"><ele>101.0</ele><time>2026-03-31T09:15:27.162Z</time></trkpt><trkpt lat="41.0578167" lon="0.5841217"><ele>101.0</ele><time>2026-03-31T09:15:28.163Z</time></trkpt><trkpt lat="41.05782" lon="0.5839817"><ele>101.0</ele><time>2026-03-31T09:15:29.163Z</time></trkpt><trkpt lat="41.05783" lon="0.583845"><ele>101.0</ele><time>2026-03-31T09:15:30.162Z</time></trkpt><trkpt lat="41.0578533" lon="0.58372"><ele>101.0</ele><time>2026-03-31T09:15:31.163Z</time></trkpt><trkpt lat="41.0578733" lon="0.583585"><ele>101.0</ele><time>2026-03-31T09:15:32.162Z</time></trkpt><trkpt lat="41.0578967" lon="0.58345"><ele>101.0</ele><time>2026-03-31T09:15:33.162Z</time></trkpt><trkpt lat="41.0579217" lon="0.5833167"><ele>100.8</ele><time>2026-03-31T09:15:34.163Z</time></trkpt><trkpt lat="41.0579567" lon="0.5832"><ele>100.6</ele><time>2026-03-31T09:15:35.163Z</time></trkpt><trkpt lat="41.058" lon="0.5830767"><ele>100.4</ele><time>2026-03-31T09:15:36.163Z</time></trkpt><trkpt lat="41.05804" lon="0.582945"><ele>100.2</ele><time>2026-03-31T09:15:37.163Z</time></trkpt><trkpt lat="41.0580833" lon="0.5828183"><ele>100.0</ele><time>2026-03-31T09:15:38.163Z</time></trkpt><trkpt lat="41.05813" lon="0.5826833"><ele>99.8</ele><time>2026-03-31T09:15:39.163Z</time></trkpt><trkpt lat="41.05819" lon="0.58256"><ele>99.6</ele><time>2026-03-31T09:15:40.163Z</time></trkpt><trkpt lat="41.05825" lon="0.5824283"><ele>99.4</ele><time>2026-03-31T09:15:41.162Z</time></trkpt><trkpt lat="41.0582983" lon="0.5822983"><ele>99.2</ele><time>2026-03-31T09:15:42.162Z</time></trkpt><trkpt lat="41.0583417" lon="0.5821733"><ele>99.0</ele><time>2026-03-31T09:15:43.162Z</time></trkpt><trkpt lat="41.0583717" lon="0.5820567"><ele>100.0</ele><time>2026-03-31T09:15:44.162Z</time></trkpt><trkpt lat="41.0584" lon="0.5819467"><ele>101.0</ele><time>2026-03-31T09:15:45.163Z</time></trkpt><trkpt lat="41.0584417" lon="0.581815"><ele>102.0</ele><time>2026-03-31T09:15:47.163Z</time></trkpt><trkpt lat="41.05846" lon="0.5816983"><ele>103.0</ele><time>2026-03-31T09:15:49.163Z</time></trkpt><trkpt lat="41.0584817" lon="0.5816017"><ele>104.0</ele><time>2026-03-31T09:15:50.162Z</time></trkpt><trkpt lat="41.0585167" lon="0.5814767"><ele>104.0</ele><time>2026-03-31T09:15:51.163Z</time></trkpt><trkpt lat="41.0585683" lon="0.5813283"><ele>104.0</ele><time>2026-03-31T09:15:52.162Z</time></trkpt><trkpt lat="41.0586217" lon="0.58116"><ele>104.0</ele><time>2026-03-31T09:15:53.162Z</time></trkpt><trkpt lat="41.058675" lon="0.5809783"><ele>104.0</ele><time>2026-03-31T09:15:54.163Z</time></trkpt><trkpt lat="41.0587283" lon="0.5807933"><ele>104.0</ele><time>2026-03-31T09:15:55.162Z</time></trkpt><trkpt lat="41.05878" lon="0.5806283"><ele>104.0</ele><time>2026-03-31T09:15:56.162Z</time></trkpt><trkpt lat="41.05882" lon="0.5804733"><ele>104.0</ele><time>2026-03-31T09:15:57.163Z</time></trkpt><trkpt lat="41.0588333" lon="0.5803183"><ele>104.0</ele><time>2026-03-31T09:15:58.162Z</time></trkpt><trkpt lat="41.05881" lon="0.58017"><ele>104.5</ele><time>2026-03-31T09:15:59.162Z</time></trkpt><trkpt lat="41.0587417" lon="0.5800217"><ele>105.0</ele><time>2026-03-31T09:16:00.162Z</time></trkpt><trkpt lat="41.0586317" lon="0.5799117"><ele>105.5</ele><time>2026-03-31T09:16:01.162Z</time></trkpt><trkpt lat="41.0584967" lon="0.5798383"><ele>106.0</ele><time>2026-03-31T09:16:02.162Z</time></trkpt><trkpt lat="41.05837" lon="0.5797417"><ele>107.5</ele><time>2026-03-31T09:16:03.162Z</time></trkpt><trkpt lat="41.058265" lon="0.579645"><ele>109.0</ele><time>2026-03-31T09:16:04.163Z</time></trkpt><trkpt lat="41.05819" lon="0.579505"><ele>110.5</ele><time>2026-03-31T09:16:05.162Z</time></trkpt><trkpt lat="41.0581517" lon="0.5793267"><ele>112.0</ele><time>2026-03-31T09:16:06.163Z</time></trkpt><trkpt lat="41.0581267" lon="0.5791283"><ele>112.0</ele><time>2026-03-31T09:16:07.162Z</time></trkpt><trkpt lat="41.0581067" lon="0.57892"><ele>112.0</ele><time>2026-03-31T09:16:08.163Z</time></trkpt><trkpt lat="41.0580817" lon="0.57871"><ele>112.0</ele><time>2026-03-31T09:16:09.162Z</time></trkpt><trkpt lat="41.05805" lon="0.5785"><ele>109.66666666666667</ele><time>2026-03-31T09:16:10.163Z</time></trkpt><trkpt lat="41.0580267" lon="0.5782917"><ele>107.33333333333334</ele><time>2026-03-31T09:16:11.163Z</time></trkpt><trkpt lat="41.0580217" lon="0.578075"><ele>105.0</ele><time>2026-03-31T09:16:12.162Z</time></trkpt><trkpt lat="41.0580267" lon="0.577855"><ele>106.33333333333334</ele><time>2026-03-31T09:16:13.162Z</time></trkpt><trkpt lat="41.0580367" lon="0.5776267"><ele>107.66666666666667</ele><time>2026-03-31T09:16:14.163Z</time></trkpt><trkpt lat="41.0580517" lon="0.5774033"><ele>109.0</ele><time>2026-03-31T09:16:15.162Z</time></trkpt><trkpt lat="41.058075" lon="0.5771967"><ele>109.75</ele><time>2026-03-31T09:16:16.162Z</time></trkpt><trkpt lat="41.0581067" lon="0.5769917"><ele>110.5</ele><time>2026-03-31T09:16:17.162Z</time></trkpt><trkpt lat="41.0581417" lon="0.5767933"><ele>111.25</ele><time>2026-03-31T09:16:18.163Z</time></trkpt><trkpt lat="41.0581683" lon="0.57662"><ele>112.0</ele><time>2026-03-31T09:16:19.162Z</time></trkpt><trkpt lat="41.0581983" lon="0.5764533"><ele>112.0</ele><time>2026-03-31T09:16:20.163Z</time></trkpt><trkpt lat="41.0582133" lon="0.576305"><ele>112.0</ele><time>2026-03-31T09:16:21.162Z</time></trkpt><trkpt lat="41.0581883" lon="0.5761533"><ele>112.0</ele><time>2026-03-31T09:16:22.162Z</time></trkpt><trkpt lat="41.05813" lon="0.57602"><ele>112.0</ele><time>2026-03-31T09:16:23.162Z</time></trkpt><trkpt lat="41.0580317" lon="0.5759167"><ele>113.25</ele><time>2026-03-31T09:16:24.162Z</time></trkpt><trkpt lat="41.0578967" lon="0.5758667"><ele>114.5</ele><time>2026-03-31T09:16:25.162Z</time></trkpt><trkpt lat="41.0577617" lon="0.575805"><ele>115.75</ele><time>2026-03-31T09:16:26.163Z</time></trkpt><trkpt lat="41.057625" lon="0.5757383"><ele>117.0</ele><time>2026-03-31T09:16:27.163Z</time></trkpt><trkpt lat="41.057495" lon="0.5756467"><ele>117.0</ele><time>2026-03-31T09:16:28.163Z</time></trkpt><trkpt lat="41.0573967" lon="0.5755183"><ele>117.0</ele><time>2026-03-31T09:16:29.163Z</time></trkpt><trkpt lat="41.0573317" lon="0.5753633"><ele>117.0</ele><time>2026-03-31T09:16:30.162Z</time></trkpt><trkpt lat="41.0573083" lon="0.5751967"><ele>117.0</ele><time>2026-03-31T09:16:31.162Z</time></trkpt><trkpt lat="41.0573167" lon="0.5750183"><ele>118.0</ele><time>2026-03-31T09:16:32.163Z</time></trkpt><trkpt lat="41.0573333" lon="0.57482"><ele>119.0</ele><time>2026-03-31T09:16:33.163Z</time></trkpt><trkpt lat="41.05734" lon="0.5746067"><ele>120.0</ele><time>2026-03-31T09:16:34.162Z</time></trkpt><trkpt lat="41.0573467" lon="0.5743933"><ele>122.33333333333334</ele><time>2026-03-31T09:16:35.163Z</time></trkpt><trkpt lat="41.057365" lon="0.5741833"><ele>124.66666666666667</ele><time>2026-03-31T09:16:36.162Z</time></trkpt><trkpt lat="41.05739" lon="0.5739583"><ele>127.0</ele><time>2026-03-31T09:16:37.163Z</time></trkpt><trkpt lat="41.0574233" lon="0.5737283"><ele>127.0</ele><time>2026-03-31T09:16:38.162Z</time></trkpt><trkpt lat="41.05746" lon="0.5734983"><ele>127.0</ele><time>2026-03-31T09:16:39.162Z</time></trkpt><trkpt lat="41.0574983" lon="0.5732733"><ele>127.0</ele><time>2026-03-31T09:16:40.162Z</time></trkpt><trkpt lat="41.0575283" lon="0.57305"><ele>129.33333333333334</ele><time>2026-03-31T09:16:41.163Z</time></trkpt><trkpt lat="41.0575467" lon="0.5728183"><ele>131.66666666666666</ele><time>2026-03-31T09:16:42.162Z</time></trkpt><trkpt lat="41.0575467" lon="0.5725833"><ele>134.0</ele><time>2026-03-31T09:16:43.163Z</time></trkpt><trkpt lat="41.0575283" lon="0.572345"><ele>134.0</ele><time>2026-03-31T09:16:44.163Z</time></trkpt><trkpt lat="41.057505" lon="0.572105"><ele>134.0</ele><time>2026-03-31T09:16:45.162Z</time></trkpt><trkpt lat="41.05749" lon="0.5718717"><ele>134.0</ele><time>2026-03-31T09:16:46.163Z</time></trkpt><trkpt lat="41.0574833" lon="0.5716517"><ele>134.66666666666666</ele><time>2026-03-31T09:16:47.162Z</time></trkpt><trkpt lat="41.057505" lon="0.5714217"><ele>135.33333333333334</ele><time>2026-03-31T09:16:48.163Z</time></trkpt><trkpt lat="41.0575417" lon="0.5712017"><ele>136.0</ele><time>2026-03-31T09:16:49.162Z</time></trkpt><trkpt lat="41.0576" lon="0.5710083"><ele>136.0</ele><time>2026-03-31T09:16:50.162Z</time></trkpt><trkpt lat="41.05767" lon="0.570815"><ele>136.0</ele><time>2026-03-31T09:16:51.163Z</time></trkpt><trkpt lat="41.05776" lon="0.570635"><ele>136.0</ele><time>2026-03-31T09:16:52.162Z</time></trkpt><trkpt lat="41.0578683" lon="0.5704583"><ele>136.66666666666669</ele><time>2026-03-31T09:16:53.162Z</time></trkpt><trkpt lat="41.0579817" lon="0.57028"><ele>137.33333333333334</ele><time>2026-03-31T09:16:54.162Z</time></trkpt><trkpt lat="41.0580983" lon="0.5701033"><ele>138.0</ele><time>2026-03-31T09:16:55.163Z</time></trkpt><trkpt lat="41.0582083" lon="0.569925"><ele>139.33333333333334</ele><time>2026-03-31T09:16:56.163Z</time></trkpt><trkpt lat="41.0583217" lon="0.569745"><ele>140.66666666666669</ele><time>2026-03-31T09:16:57.162Z</time></trkpt><trkpt lat="41.058445" lon="0.5695583"><ele>142.0</ele><time>2026-03-31T09:16:58.163Z</time></trkpt><trkpt lat="41.0585733" lon="0.5693833"><ele>142.0</ele><time>2026-03-31T09:16:59.162Z</time></trkpt><trkpt lat="41.05871" lon="0.5692383"><ele>142.0</ele><time>2026-03-31T09:17:00.162Z</time></trkpt><trkpt lat="41.0588567" lon="0.56909"><ele>142.0</ele><time>2026-03-31T09:17:01.163Z</time></trkpt><trkpt lat="41.0589867" lon="0.5689133"><ele>142.0</ele><time>2026-03-31T09:17:02.163Z</time></trkpt><trkpt lat="41.0590983" lon="0.56871"><ele>142.0</ele><time>2026-03-31T09:17:03.162Z</time></trkpt><trkpt lat="41.0592117" lon="0.568505"><ele>142.0</ele><time>2026-03-31T09:17:04.162Z</time></trkpt><trkpt lat="41.0593317" lon="0.5683067"><ele>143.0</ele><time>2026-03-31T09:17:05.162Z</time></trkpt><trkpt lat="41.05945" lon="0.568115"><ele>144.0</ele><time>2026-03-31T09:17:06.162Z</time></trkpt><trkpt lat="41.0595667" lon="0.56795"><ele>145.0</ele><time>2026-03-31T09:17:07.163Z</time></trkpt><trkpt lat="41.059645" lon="0.5677733"><ele>145.0</ele><time>2026-03-31T09:17:08.162Z</time></trkpt><trkpt lat="41.0596917" lon="0.567585"><ele>145.0</ele><time>2026-03-31T09:17:09.163Z</time></trkpt><trkpt lat="41.0597183" lon="0.56738"><ele>145.0</ele><time>2026-03-31T09:17:10.162Z</time></trkpt><trkpt lat="41.0597533" lon="0.5671767"><ele>146.0</ele><time>2026-03-31T09:17:11.162Z</time></trkpt><trkpt lat="41.059805" lon="0.5669683"><ele>147.0</ele><time>2026-03-31T09:17:12.162Z</time></trkpt><trkpt lat="41.059875" lon="0.5667567"><ele>148.0</ele><time>2026-03-31T09:17:13.162Z</time></trkpt><trkpt lat="41.0599417" lon="0.56654"><ele>149.66666666666669</ele><time>2026-03-31T09:17:14.163Z</time></trkpt><trkpt lat="41.0600033" lon="0.5663283"><ele>151.33333333333334</ele><time>2026-03-31T09:17:15.162Z</time></trkpt><trkpt lat="41.06007" lon="0.5661267"><ele>153.0</ele><time>2026-03-31T09:17:16.163Z</time></trkpt><trkpt lat="41.060135" lon="0.5659183"><ele>153.0</ele><time>2026-03-31T09:17:17.162Z</time></trkpt><trkpt lat="41.0601967" lon="0.5657117"><ele>153.0</ele><time>2026-03-31T09:17:18.163Z</time></trkpt><trkpt lat="41.0602467" lon="0.56552"><ele>153.0</ele><time>2026-03-31T09:17:19.163Z</time></trkpt><trkpt lat="41.0602633" lon="0.5653367"><ele>153.0</ele><time>2026-03-31T09:17:20.162Z</time></trkpt><trkpt lat="41.0602367" lon="0.5651583"><ele>153.0</ele><time>2026-03-31T09:17:21.163Z</time></trkpt><trkpt lat="41.0601817" lon="0.5649933"><ele>153.0</ele><time>2026-03-31T09:17:22.162Z</time></trkpt><trkpt lat="41.0601233" lon="0.5648283"><ele>153.0</ele><time>2026-03-31T09:17:23.163Z</time></trkpt><trkpt lat="41.0600833" lon="0.56463"><ele>153.75</ele><time>2026-03-31T09:17:24.163Z</time></trkpt><trkpt lat="41.0600617" lon="0.5644283"><ele>154.5</ele><time>2026-03-31T09:17:25.163Z</time></trkpt><trkpt lat="41.06007" lon="0.5642367"><ele>155.25</ele><time>2026-03-31T09:17:26.163Z</time></trkpt><trkpt lat="41.0600917" lon="0.5640533"><ele>156.0</ele><time>2026-03-31T09:17:27.163Z</time></trkpt><trkpt lat="41.060115" lon="0.56389"><ele>156.0</ele><time>2026-03-31T09:17:28.163Z</time></trkpt><trkpt lat="41.06012" lon="0.56374"><ele>156.0</ele><time>2026-03-31T09:17:29.163Z</time></trkpt><trkpt lat="41.060095" lon="0.5636067"><ele>156.0</ele><time>2026-03-31T09:17:30.162Z</time></trkpt><trkpt lat="41.060025" lon="0.5635017"><ele>156.0</ele><time>2026-03-31T09:17:31.162Z</time></trkpt><trkpt lat="41.05992" lon="0.5634367"><ele>156.0</ele><time>2026-03-31T09:17:32.162Z</time></trkpt><trkpt lat="41.0597983" lon="0.5633733"><ele>155.66666666666666</ele><time>2026-03-31T09:17:33.162Z</time></trkpt><trkpt lat="41.0596667" lon="0.5632967"><ele>155.33333333333331</ele><time>2026-03-31T09:17:34.162Z</time></trkpt><trkpt lat="41.0595367" lon="0.5631767"><ele>155.0</ele><time>2026-03-31T09:17:35.163Z</time></trkpt><trkpt lat="41.0593967" lon="0.56303"><ele>155.0</ele><time>2026-03-31T09:17:36.162Z</time></trkpt><trkpt lat="41.05926" lon="0.5628683"><ele>155.0</ele><time>2026-03-31T09:17:37.163Z</time></trkpt><trkpt lat="41.059125" lon="0.56271"><ele>155.0</ele><time>2026-03-31T09:17:38.163Z</time></trkpt><trkpt lat="41.05899" lon="0.5625467"><ele>156.66666666666666</ele><time>2026-03-31T09:17:39.163Z</time></trkpt><trkpt lat="41.05885" lon="0.5623833"><ele>158.33333333333334</ele><time>2026-03-31T09:17:40.162Z</time></trkpt><trkpt lat="41.0587017" lon="0.56222"><ele>160.0</ele><time>2026-03-31T09:17:41.162Z</time></trkpt><trkpt lat="41.058555" lon="0.5620583"><ele>161.66666666666669</ele><time>2026-03-31T09:17:42.162Z</time></trkpt><trkpt lat="41.0584" lon="0.5618917"><ele>163.33333333333334</ele><time>2026-03-31T09:17:43.162Z</time></trkpt><trkpt lat="41.0582483" lon="0.5617117"><ele>165.0</ele><time>2026-03-31T09:17:44.163Z</time></trkpt><trkpt lat="41.0581" lon="0.5615433"><ele>165.33333333333334</ele><time>2026-03-31T09:17:45.162Z</time></trkpt><trkpt lat="41.05795" lon="0.5613817"><ele>165.66666666666669</ele><time>2026-03-31T09:17:46.163Z</time></trkpt><trkpt lat="41.0578033" lon="0.5612167"><ele>166.0</ele><time>2026-03-31T09:17:47.163Z</time></trkpt><trkpt lat="41.0576567" lon="0.561055"><ele>166.75</ele><time>2026-03-31T09:17:48.162Z</time></trkpt><trkpt lat="41.0575333" lon="0.56093"><ele>167.5</ele><time>2026-03-31T09:17:49.162Z</time></trkpt><trkpt lat="41.057415" lon="0.5608117"><ele>168.25</ele><time>2026-03-31T09:17:50.162Z</time></trkpt><trkpt lat="41.0573183" lon="0.5606733"><ele>169.0</ele><time>2026-03-31T09:17:51.162Z</time></trkpt><trkpt lat="41.05725" lon="0.5605067"><ele>169.5</ele><time>2026-03-31T09:17:52.162Z</time></trkpt><trkpt lat="41.0572033" lon="0.5603317"><ele>170.0</ele><time>2026-03-31T09:17:53.162Z</time></trkpt><trkpt lat="41.05718" lon="0.560135"><ele>170.5</ele><time>2026-03-31T09:17:54.163Z</time></trkpt><trkpt lat="41.0571617" lon="0.5599533"><ele>171.0</ele><time>2026-03-31T09:17:55.162Z</time></trkpt><trkpt lat="41.0571333" lon="0.5598067"><ele>171.0</ele><time>2026-03-31T09:17:56.163Z</time></trkpt><trkpt lat="41.05708" lon="0.5596933"><ele>171.0</ele><time>2026-03-31T09:17:57.163Z</time></trkpt><trkpt lat="41.0570017" lon="0.5596267"><ele>171.0</ele><time>2026-03-31T09:17:58.163Z</time></trkpt><trkpt lat="41.0569067" lon="0.5595933"><ele>171.0</ele><time>2026-03-31T09:17:59.163Z</time></trkpt><trkpt lat="41.0567933" lon="0.5595967"><ele>171.0</ele><time>2026-03-31T09:18:00.163Z</time></trkpt><trkpt lat="41.0566833" lon="0.5595767"><ele>172.25</ele><time>2026-03-31T09:18:01.163Z</time></trkpt><trkpt lat="41.0565933" lon="0.5594917"><ele>173.5</ele><time>2026-03-31T09:18:02.163Z</time></trkpt><trkpt lat="41.0565283" lon="0.5593617"><ele>174.75</ele><time>2026-03-31T09:18:03.162Z</time></trkpt><trkpt lat="41.05649" lon="0.5591867"><ele>176.0</ele><time>2026-03-31T09:18:04.162Z</time></trkpt><trkpt lat="41.0564717" lon="0.558995"><ele>176.0</ele><time>2026-03-31T09:18:05.162Z</time></trkpt><trkpt lat="41.056445" lon="0.5587933"><ele>176.0</ele><time>2026-03-31T09:18:06.162Z</time></trkpt><trkpt lat="41.0564267" lon="0.5585917"><ele>176.0</ele><time>2026-03-31T09:18:07.162Z</time></trkpt><trkpt lat="41.0564133" lon="0.5584067"><ele>176.0</ele><time>2026-03-31T09:18:08.162Z</time></trkpt><trkpt lat="41.0564017" lon="0.5582367"><ele>177.20000000000002</ele><time>2026-03-31T09:18:09.163Z</time></trkpt><trkpt lat="41.0563683" lon="0.5580967"><ele>178.4</ele><time>2026-03-31T09:18:10.162Z</time></trkpt><trkpt lat="41.0563183" lon="0.5579933"><ele>179.6</ele><time>2026-03-31T09:18:11.162Z</time></trkpt><trkpt lat="41.05623" lon="0.5579183"><ele>180.8</ele><time>2026-03-31T09:18:12.162Z</time></trkpt><trkpt lat="41.0561467" lon="0.55789"><ele>182.0</ele><time>2026-03-31T09:18:13.162Z</time></trkpt><trkpt lat="41.0560633" lon="0.5578983"><ele>182.0</ele><time>2026-03-31T09:18:14.162Z</time></trkpt><trkpt lat="41.056005" lon="0.5579717"><ele>182.0</ele><time>2026-03-31T09:18:15.163Z</time></trkpt><trkpt lat="41.055965" lon="0.55811"><ele>182.0</ele><time>2026-03-31T09:18:16.163Z</time></trkpt><trkpt lat="41.0559267" lon="0.55827"><ele>182.0</ele><time>2026-03-31T09:18:17.163Z</time></trkpt><trkpt lat="41.0558617" lon="0.5583883"><ele>182.0</ele><time>2026-03-31T09:18:18.162Z</time></trkpt><trkpt lat="41.0557833" lon="0.55841"><ele>181.5</ele><time>2026-03-31T09:18:19.162Z</time></trkpt><trkpt lat="41.0557033" lon="0.5583733"><ele>181.0</ele><time>2026-03-31T09:18:20.162Z</time></trkpt><trkpt lat="41.055625" lon="0.558285"><ele>180.5</ele><time>2026-03-31T09:18:21.163Z</time></trkpt><trkpt lat="41.05554" lon="0.5581617"><ele>180.0</ele><time>2026-03-31T09:18:22.163Z</time></trkpt><trkpt lat="41.05545" lon="0.5579933"><ele>181.0</ele><time>2026-03-31T09:18:23.163Z</time></trkpt><trkpt lat="41.0553533" lon="0.5578183"><ele>182.0</ele><time>2026-03-31T09:18:24.163Z</time></trkpt><trkpt lat="41.0552633" lon="0.5576567"><ele>183.0</ele><time>2026-03-31T09:18:25.162Z</time></trkpt><trkpt lat="41.0551733" lon="0.557505"><ele>183.0</ele><time>2026-03-31T09:18:26.162Z</time></trkpt><trkpt lat="41.05509" lon="0.5573533"><ele>183.0</ele><time>2026-03-31T09:18:27.163Z</time></trkpt><trkpt lat="41.055055" lon="0.5571833"><ele>183.0</ele><time>2026-03-31T09:18:28.163Z</time></trkpt><trkpt lat="41.0550617" lon="0.5570133"><ele>183.0</ele><time>2026-03-31T09:18:29.162Z</time></trkpt><trkpt lat="41.0551067" lon="0.5568533"><ele>184.0</ele><time>2026-03-31T09:18:30.163Z</time></trkpt><trkpt lat="41.0551867" lon="0.55669"><ele>185.0</ele><time>2026-03-31T09:18:31.162Z</time></trkpt><trkpt lat="41.0552833" lon="0.5565333"><ele>186.0</ele><time>2026-03-31T09:18:32.163Z</time></trkpt><trkpt lat="41.0554" lon="0.5563833"><ele>186.0</ele><time>2026-03-31T09:18:33.162Z</time></trkpt><trkpt lat="41.0555217" lon="0.5562533"><ele>186.0</ele><time>2026-03-31T09:18:34.162Z</time></trkpt><trkpt lat="41.0556433" lon="0.5561067"><ele>186.0</ele><time>2026-03-31T09:18:35.163Z</time></trkpt><trkpt lat="41.0557483" lon="0.5559433"><ele>187.0</ele><time>2026-03-31T09:18:36.162Z</time></trkpt><trkpt lat="41.0558233" lon="0.5557667"><ele>188.0</ele><time>2026-03-31T09:18:37.163Z</time></trkpt><trkpt lat="41.055865" lon="0.555585"><ele>189.0</ele><time>2026-03-31T09:18:38.163Z</time></trkpt><trkpt lat="41.0558683" lon="0.5553883"><ele>190.0</ele><time>2026-03-31T09:18:39.162Z</time></trkpt><trkpt lat="41.0558317" lon="0.55519"><ele>190.0</ele><time>2026-03-31T09:18:40.162Z</time></trkpt><trkpt lat="41.0557917" lon="0.55498"><ele>190.0</ele><time>2026-03-31T09:18:41.163Z</time></trkpt><trkpt lat="41.0557383" lon="0.5547633"><ele>190.0</ele><time>2026-03-31T09:18:42.162Z</time></trkpt><trkpt lat="41.0556767" lon="0.5545433"><ele>190.0</ele><time>2026-03-31T09:18:43.162Z</time></trkpt><trkpt lat="41.055595" lon="0.55433"><ele>190.0</ele><time>2026-03-31T09:18:44.162Z</time></trkpt><trkpt lat="41.0554933" lon="0.55413"><ele>190.0</ele><time>2026-03-31T09:18:45.163Z</time></trkpt><trkpt lat="41.0553683" lon="0.5539583"><ele>190.0</ele><time>2026-03-31T09:18:46.163Z</time></trkpt><trkpt lat="41.0552383" lon="0.5537933"><ele>190.0</ele><time>2026-03-31T09:18:47.162Z</time></trkpt><trkpt lat="41.0551" lon="0.5536483"><ele>190.0</ele><time>2026-03-31T09:18:48.162Z</time></trkpt><trkpt lat="41.0549533" lon="0.55348"><ele>191.66666666666669</ele><time>2026-03-31T09:18:49.162Z</time></trkpt><trkpt lat="41.05481" lon="0.55331"><ele>193.33333333333334</ele><time>2026-03-31T09:18:50.162Z</time></trkpt><trkpt lat="41.0546633" lon="0.5531383"><ele>195.0</ele><time>2026-03-31T09:18:51.162Z</time></trkpt><trkpt lat="41.054515" lon="0.5529583"><ele>196.33333333333331</ele><time>2026-03-31T09:18:52.162Z</time></trkpt><trkpt lat="41.05438" lon="0.5527867"><ele>197.66666666666666</ele><time>2026-03-31T09:18:53.162Z</time></trkpt><trkpt lat="41.0542317" lon="0.552615"><ele>199.0</ele><time>2026-03-31T09:18:54.162Z</time></trkpt><trkpt lat="41.0540967" lon="0.5524567"><ele>199.0</ele><time>2026-03-31T09:18:55.163Z</time></trkpt><trkpt lat="41.05398" lon="0.5522983"><ele>199.0</ele><time>2026-03-31T09:18:56.163Z</time></trkpt><trkpt lat="41.0538833" lon="0.5521117"><ele>199.0</ele><time>2026-03-31T09:18:57.163Z</time></trkpt><trkpt lat="41.0538067" lon="0.5518967"><ele>199.0</ele><time>2026-03-31T09:18:58.163Z</time></trkpt><trkpt lat="41.05374" lon="0.5516833"><ele>199.0</ele><time>2026-03-31T09:18:59.163Z</time></trkpt><trkpt lat="41.0536667" lon="0.5514733"><ele>199.0</ele><time>2026-03-31T09:19:00.162Z</time></trkpt><trkpt lat="41.0535933" lon="0.5512733"><ele>200.33333333333331</ele><time>2026-03-31T09:19:01.163Z</time></trkpt><trkpt lat="41.0535183" lon="0.551065"><ele>201.66666666666669</ele><time>2026-03-31T09:19:02.163Z</time></trkpt><trkpt lat="41.0534567" lon="0.5508567"><ele>203.0</ele><time>2026-03-31T09:19:03.163Z</time></trkpt><trkpt lat="41.0534167" lon="0.5506283"><ele>203.0</ele><time>2026-03-31T09:19:04.162Z</time></trkpt><trkpt lat="41.0533917" lon="0.5504"><ele>203.0</ele><time>2026-03-31T09:19:05.162Z</time></trkpt><trkpt lat="41.05336" lon="0.5501683"><ele>203.0</ele><time>2026-03-31T09:19:06.162Z</time></trkpt><trkpt lat="41.05335" lon="0.5499483"><ele>203.66666666666669</ele><time>2026-03-31T09:19:07.162Z</time></trkpt><trkpt lat="41.05338" lon="0.5497367"><ele>204.33333333333331</ele><time>2026-03-31T09:19:08.163Z</time></trkpt><trkpt lat="41.0534267" lon="0.5495067"><ele>205.0</ele><time>2026-03-31T09:19:09.163Z</time></trkpt><trkpt lat="41.053485" lon="0.5492817"><ele>205.66666666666666</ele><time>2026-03-31T09:19:10.162Z</time></trkpt><trkpt lat="41.0535517" lon="0.5490583"><ele>206.33333333333331</ele><time>2026-03-31T09:19:11.162Z</time></trkpt><trkpt lat="41.0536117" lon="0.548825"><ele>207.0</ele><time>2026-03-31T09:19:12.162Z</time></trkpt><trkpt lat="41.0536683" lon="0.5485967"><ele>207.33333333333331</ele><time>2026-03-31T09:19:13.162Z</time></trkpt><trkpt lat="41.0537217" lon="0.5483733"><ele>207.66666666666666</ele><time>2026-03-31T09:19:14.162Z</time></trkpt><trkpt lat="41.0537717" lon="0.5481733"><ele>208.0</ele><time>2026-03-31T09:19:15.163Z</time></trkpt><trkpt lat="41.0538117" lon="0.5480133"><ele>209.0</ele><time>2026-03-31T09:19:16.163Z</time></trkpt><trkpt lat="41.053835" lon="0.5478667"><ele>210.0</ele><time>2026-03-31T09:19:17.163Z</time></trkpt><trkpt lat="41.0538133" lon="0.547725"><ele>211.0</ele><time>2026-03-31T09:19:18.162Z</time></trkpt><trkpt lat="41.0537617" lon="0.5476117"><ele>212.0</ele><time>2026-03-31T09:19:19.163Z</time></trkpt><trkpt lat="41.053665" lon="0.547525"><ele>213.0</ele><time>2026-03-31T09:19:20.163Z</time></trkpt><trkpt lat="41.0535467" lon="0.5474417"><ele>213.0</ele><time>2026-03-31T09:19:21.162Z</time></trkpt><trkpt lat="41.0534217" lon="0.54736"><ele>213.0</ele><time>2026-03-31T09:19:22.163Z</time></trkpt><trkpt lat="41.0533083" lon="0.54732"><ele>213.0</ele><time>2026-03-31T09:19:23.162Z</time></trkpt><trkpt lat="41.0532067" lon="0.54733"><ele>213.0</ele><time>2026-03-31T09:19:24.162Z</time></trkpt><trkpt lat="41.05311" lon="0.5473833"><ele>213.5</ele><time>2026-03-31T09:19:25.163Z</time></trkpt><trkpt lat="41.05303" lon="0.5474817"><ele>214.0</ele><time>2026-03-31T09:19:26.163Z</time></trkpt><trkpt lat="41.052975" lon="0.5476183"><ele>214.5</ele><time>2026-03-31T09:19:27.162Z</time></trkpt><trkpt lat="41.0529283" lon="0.5477883"><ele>215.0</ele><time>2026-03-31T09:19:28.162Z</time></trkpt><trkpt lat="41.05288" lon="0.54797"><ele>215.0</ele><time>2026-03-31T09:19:29.162Z</time></trkpt><trkpt lat="41.0528233" lon="0.5481217"><ele>215.0</ele><time>2026-03-31T09:19:30.162Z</time></trkpt><trkpt lat="41.052745" lon="0.5482167"><ele>215.0</ele><time>2026-03-31T09:19:31.162Z</time></trkpt><trkpt lat="41.0526533" lon="0.5482433"><ele>215.0</ele><time>2026-03-31T09:19:32.163Z</time></trkpt><trkpt lat="41.0525517" lon="0.5482067"><ele>215.0</ele><time>2026-03-31T09:19:33.162Z</time></trkpt><trkpt lat="41.0524533" lon="0.5481167"><ele>214.75</ele><time>2026-03-31T09:19:34.162Z</time></trkpt><trkpt lat="41.0523783" lon="0.547975"><ele>214.5</ele><time>2026-03-31T09:19:35.163Z</time></trkpt><trkpt lat="41.052305" lon="0.54782"><ele>214.25</ele><time>2026-03-31T09:19:36.162Z</time></trkpt><trkpt lat="41.0522317" lon="0.547665"><ele>214.0</ele><time>2026-03-31T09:19:37.163Z</time></trkpt><trkpt lat="41.0521783" lon="0.5475167"><ele>215.75</ele><time>2026-03-31T09:19:38.163Z</time></trkpt><trkpt lat="41.05211" lon="0.5473767"><ele>217.5</ele><time>2026-03-31T09:19:39.162Z</time></trkpt><trkpt lat="41.052015" lon="0.54725"><ele>219.25</ele><time>2026-03-31T09:19:40.162Z</time></trkpt><trkpt lat="41.0519" lon="0.54717"><ele>221.0</ele><time>2026-03-31T09:19:41.162Z</time></trkpt><trkpt lat="41.0517717" lon="0.54711"><ele>221.0</ele><time>2026-03-31T09:19:42.162Z</time></trkpt><trkpt lat="41.0516383" lon="0.5470467"><ele>221.0</ele><time>2026-03-31T09:19:43.163Z</time></trkpt><trkpt lat="41.0515033" lon="0.5469717"><ele>221.0</ele><time>2026-03-31T09:19:44.162Z</time></trkpt><trkpt lat="41.0513633" lon="0.5468867"><ele>221.0</ele><time>2026-03-31T09:19:45.163Z</time></trkpt><trkpt lat="41.051225" lon="0.5468033"><ele>223.0</ele><time>2026-03-31T09:19:46.162Z</time></trkpt><trkpt lat="41.0510817" lon="0.54674"><ele>225.0</ele><time>2026-03-31T09:19:47.162Z</time></trkpt><trkpt lat="41.0509283" lon="0.5467033"><ele>227.0</ele><time>2026-03-31T09:19:48.163Z</time></trkpt><trkpt lat="41.0507833" lon="0.54667"><ele>227.0</ele><time>2026-03-31T09:19:49.163Z</time></trkpt><trkpt lat="41.05065" lon="0.5465967"><ele>227.0</ele><time>2026-03-31T09:19:50.162Z</time></trkpt><trkpt lat="41.0505333" lon="0.54647"><ele>227.0</ele><time>2026-03-31T09:19:51.163Z</time></trkpt><trkpt lat="41.0504217" lon="0.54631"><ele>229.0</ele><time>2026-03-31T09:19:52.163Z</time></trkpt><trkpt lat="41.050315" lon="0.5461333"><ele>231.0</ele><time>2026-03-31T09:19:53.162Z</time></trkpt><trkpt lat="41.0501983" lon="0.545945"><ele>233.0</ele><time>2026-03-31T09:19:54.162Z</time></trkpt><trkpt lat="41.0500817" lon="0.54576"><ele>233.0</ele><time>2026-03-31T09:19:55.162Z</time></trkpt><trkpt lat="41.0499617" lon="0.5455883"><ele>233.0</ele><time>2026-03-31T09:19:56.163Z</time></trkpt><trkpt lat="41.04983" lon="0.545415"><ele>233.0</ele><time>2026-03-31T09:19:57.162Z</time></trkpt><trkpt lat="41.04969" lon="0.545255"><ele>233.33333333333334</ele><time>2026-03-31T09:19:58.162Z</time></trkpt><trkpt lat="41.049545" lon="0.5451033"><ele>233.66666666666669</ele><time>2026-03-31T09:19:59.162Z</time></trkpt><trkpt lat="41.049395" lon="0.5449467"><ele>234.0</ele><time>2026-03-31T09:20:00.162Z</time></trkpt><trkpt lat="41.0492383" lon="0.54479"><ele>234.33333333333331</ele><time>2026-03-31T09:20:01.162Z</time></trkpt><trkpt lat="41.04909" lon="0.54463"><ele>234.66666666666666</ele><time>2026-03-31T09:20:02.163Z</time></trkpt><trkpt lat="41.04894" lon="0.5444617"><ele>235.0</ele><time>2026-03-31T09:20:03.163Z</time></trkpt><trkpt lat="41.0487917" lon="0.54429"><ele>235.0</ele><time>2026-03-31T09:20:04.163Z</time></trkpt><trkpt lat="41.0486383" lon="0.5441283"><ele>235.0</ele><time>2026-03-31T09:20:05.163Z</time></trkpt><trkpt lat="41.0484833" lon="0.543995"><ele>235.0</ele><time>2026-03-31T09:20:06.163Z</time></trkpt><trkpt lat="41.048325" lon="0.543885"><ele>235.33333333333331</ele><time>2026-03-31T09:20:07.163Z</time></trkpt><trkpt lat="41.0481483" lon="0.54381"><ele>235.66666666666669</ele><time>2026-03-31T09:20:08.162Z</time></trkpt><trkpt lat="41.04796" lon="0.5437483"><ele>236.0</ele><time>2026-03-31T09:20:09.162Z</time></trkpt><trkpt lat="41.0477733" lon="0.5436767"><ele>235.66666666666669</ele><time>2026-03-31T09:20:10.162Z</time></trkpt><trkpt lat="41.047595" lon="0.5435783"><ele>235.33333333333331</ele><time>2026-03-31T09:20:11.163Z</time></trkpt><trkpt lat="41.0474333" lon="0.5434433"><ele>235.0</ele><time>2026-03-31T09:20:12.163Z</time></trkpt><trkpt lat="41.04727" lon="0.5432883"><ele>235.0</ele><time>2026-03-31T09:20:13.162Z</time></trkpt><trkpt lat="41.0471083" lon="0.5431133"><ele>235.0</ele><time>2026-03-31T09:20:14.163Z</time></trkpt><trkpt lat="41.046965" lon="0.5429517"><ele>235.0</ele><time>2026-03-31T09:20:15.162Z</time></trkpt><trkpt lat="41.0468317" lon="0.54281"><ele>234.25</ele><time>2026-03-31T09:20:16.162Z</time></trkpt><trkpt lat="41.0467" lon="0.54268"><ele>233.5</ele><time>2026-03-31T09:20:17.162Z</time></trkpt><trkpt lat="41.046585" lon="0.5425683"><ele>232.75</ele><time>2026-03-31T09:20:18.162Z</time></trkpt><trkpt lat="41.0464783" lon="0.5424933"><ele>232.0</ele><time>2026-03-31T09:20:19.163Z</time></trkpt><trkpt lat="41.04636" lon="0.5424567"><ele>231.0</ele><time>2026-03-31T09:20:20.163Z</time></trkpt><trkpt lat="41.046215" lon="0.5424667"><ele>230.0</ele><time>2026-03-31T09:20:21.163Z</time></trkpt><trkpt lat="41.0460683" lon="0.5425117"><ele>229.0</ele><time>2026-03-31T09:20:22.162Z</time></trkpt><trkpt lat="41.04592" lon="0.542565"><ele>228.0</ele><time>2026-03-31T09:20:23.162Z</time></trkpt><trkpt lat="41.0457617" lon="0.542625"><ele>225.33333333333331</ele><time>2026-03-31T09:20:24.163Z</time></trkpt><trkpt lat="41.04561" lon="0.542675"><ele>222.66666666666666</ele><time>2026-03-31T09:20:25.162Z</time></trkpt><trkpt lat="41.0454583" lon="0.5427083"><ele>220.0</ele><time>2026-03-31T09:20:26.163Z</time></trkpt><trkpt lat="41.0453083" lon="0.5427283"><ele>220.0</ele><time>2026-03-31T09:20:27.162Z</time></trkpt><trkpt lat="41.0451667" lon="0.5427083"><ele>220.0</ele><time>2026-03-31T09:20:28.162Z</time></trkpt><trkpt lat="41.0450333" lon="0.54265"><ele>220.0</ele><time>2026-03-31T09:20:29.163Z</time></trkpt><trkpt lat="41.0449117" lon="0.542545"><ele>220.0</ele><time>2026-03-31T09:20:30.162Z</time></trkpt><trkpt lat="41.0448067" lon="0.5423983"><ele>219.33333333333331</ele><time>2026-03-31T09:20:31.163Z</time></trkpt><trkpt lat="41.0447017" lon="0.5422233"><ele>218.66666666666669</ele><time>2026-03-31T09:20:32.162Z</time></trkpt><trkpt lat="41.0445867" lon="0.5420433"><ele>218.0</ele><time>2026-03-31T09:20:33.162Z</time></trkpt><trkpt lat="41.04447" lon="0.5418733"><ele>217.33333333333334</ele><time>2026-03-31T09:20:34.162Z</time></trkpt><trkpt lat="41.0443317" lon="0.5416967"><ele>216.66666666666669</ele><time>2026-03-31T09:20:35.162Z</time></trkpt><trkpt lat="41.0441817" lon="0.5415633"><ele>216.0</ele><time>2026-03-31T09:20:36.162Z</time></trkpt><trkpt lat="41.0440167" lon="0.54145"><ele>215.33333333333331</ele><time>2026-03-31T09:20:37.162Z</time></trkpt><trkpt lat="41.0438417" lon="0.5413483"><ele>214.66666666666666</ele><time>2026-03-31T09:20:38.163Z</time></trkpt><trkpt lat="41.0436617" lon="0.5412367"><ele>214.0</ele><time>2026-03-31T09:20:39.162Z</time></trkpt><trkpt lat="41.043485" lon="0.54114"><ele>213.0</ele><time>2026-03-31T09:20:40.163Z</time></trkpt><trkpt lat="41.0433133" lon="0.5410383"><ele>212.0</ele><time>2026-03-31T09:20:41.162Z</time></trkpt><trkpt lat="41.0431483" lon="0.5409417"><ele>211.0</ele><time>2026-03-31T09:20:42.163Z</time></trkpt><trkpt lat="41.0429833" lon="0.5408583"><ele>210.5</ele><time>2026-03-31T09:20:43.163Z</time></trkpt><trkpt lat="41.0428433" lon="0.5407617"><ele>210.0</ele><time>2026-03-31T09:20:44.163Z</time></trkpt><trkpt lat="41.0427383" lon="0.5406517"><ele>209.5</ele><time>2026-03-31T09:20:45.163Z</time></trkpt><trkpt lat="41.0426483" lon="0.5405017"><ele>209.0</ele><time>2026-03-31T09:20:46.163Z</time></trkpt><trkpt lat="41.0425533" lon="0.54035"><ele>208.33333333333334</ele><time>2026-03-31T09:20:47.162Z</time></trkpt><trkpt lat="41.04244" lon="0.5402"><ele>207.66666666666669</ele><time>2026-03-31T09:20:48.163Z</time></trkpt><trkpt lat="41.0423083" lon="0.540095"><ele>207.0</ele><time>2026-03-31T09:20:49.163Z</time></trkpt><trkpt lat="41.0421567" lon="0.540005"><ele>207.0</ele><time>2026-03-31T09:20:50.162Z</time></trkpt><trkpt lat="41.0419967" lon="0.5399183"><ele>207.0</ele><time>2026-03-31T09:20:51.162Z</time></trkpt><trkpt lat="41.0418317" lon="0.5398433"><ele>207.0</ele><time>2026-03-31T09:20:52.162Z</time></trkpt><trkpt lat="41.041665" lon="0.5397733"><ele>206.33333333333331</ele><time>2026-03-31T09:20:53.163Z</time></trkpt><trkpt lat="41.0415017" lon="0.5396883"><ele>205.66666666666666</ele><time>2026-03-31T09:20:54.162Z</time></trkpt><trkpt lat="41.0413383" lon="0.5395917"><ele>205.0</ele><time>2026-03-31T09:20:55.162Z</time></trkpt><trkpt lat="41.04118" lon="0.5394783"><ele>204.66666666666666</ele><time>2026-03-31T09:20:56.162Z</time></trkpt><trkpt lat="41.0410267" lon="0.53935"><ele>204.33333333333331</ele><time>2026-03-31T09:20:57.162Z</time></trkpt><trkpt lat="41.0408783" lon="0.539215"><ele>204.0</ele><time>2026-03-31T09:20:58.163Z</time></trkpt><trkpt lat="41.0407167" lon="0.53908"><ele>203.33333333333331</ele><time>2026-03-31T09:20:59.163Z</time></trkpt><trkpt lat="41.0405617" lon="0.5389283"><ele>202.66666666666666</ele><time>2026-03-31T09:21:00.163Z</time></trkpt><trkpt lat="41.0404067" lon="0.53876"><ele>202.0</ele><time>2026-03-31T09:21:01.163Z</time></trkpt><trkpt lat="41.0402617" lon="0.5385783"><ele>202.0</ele><time>2026-03-31T09:21:02.162Z</time></trkpt><trkpt lat="41.0401033" lon="0.5383733"><ele>202.0</ele><time>2026-03-31T09:21:03.162Z</time></trkpt><trkpt lat="41.0399467" lon="0.5381733"><ele>202.0</ele><time>2026-03-31T09:21:04.163Z</time></trkpt><trkpt lat="41.0397917" lon="0.5379867"><ele>201.0</ele><time>2026-03-31T09:21:05.163Z</time></trkpt><trkpt lat="41.0396317" lon="0.5378217"><ele>200.0</ele><time>2026-03-31T09:21:06.163Z</time></trkpt><trkpt lat="41.0394683" lon="0.537665"><ele>199.0</ele><time>2026-03-31T09:21:07.163Z</time></trkpt><trkpt lat="41.0393033" lon="0.5375017"><ele>199.0</ele><time>2026-03-31T09:21:08.162Z</time></trkpt><trkpt lat="41.0391417" lon="0.5373233"><ele>199.0</ele><time>2026-03-31T09:21:09.163Z</time></trkpt><trkpt lat="41.0389783" lon="0.53715"><ele>199.0</ele><time>2026-03-31T09:21:10.162Z</time></trkpt><trkpt lat="41.0388167" lon="0.5369833"><ele>200.66666666666666</ele><time>2026-03-31T09:21:11.162Z</time></trkpt><trkpt lat="41.0386533" lon="0.5368133"><ele>202.33333333333331</ele><time>2026-03-31T09:21:12.162Z</time></trkpt><trkpt lat="41.0385033" lon="0.5366617"><ele>204.0</ele><time>2026-03-31T09:21:13.163Z</time></trkpt><trkpt lat="41.03836" lon="0.536525"><ele>204.33333333333331</ele><time>2026-03-31T09:21:14.162Z</time></trkpt><trkpt lat="41.0382267" lon="0.5363933"><ele>204.66666666666666</ele><time>2026-03-31T09:21:15.162Z</time></trkpt><trkpt lat="41.0381133" lon="0.5362733"><ele>205.0</ele><time>2026-03-31T09:21:16.163Z</time></trkpt><trkpt lat="41.0379983" lon="0.5361717"><ele>205.0</ele><time>2026-03-31T09:21:17.162Z</time></trkpt><trkpt lat="41.0378767" lon="0.536115"><ele>205.0</ele><time>2026-03-31T09:21:18.163Z</time></trkpt><trkpt lat="41.03775" lon="0.5361117"><ele>205.0</ele><time>2026-03-31T09:21:19.162Z</time></trkpt><trkpt lat="41.03762" lon="0.53616"><ele>205.0</ele><time>2026-03-31T09:21:20.163Z</time></trkpt><trkpt lat="41.0375083" lon="0.53624"><ele>203.25</ele><time>2026-03-31T09:21:21.162Z</time></trkpt><trkpt lat="41.0373817" lon="0.536285"><ele>201.5</ele><time>2026-03-31T09:21:22.162Z</time></trkpt><trkpt lat="41.03728" lon="0.5363017"><ele>199.75</ele><time>2026-03-31T09:21:23.162Z</time></trkpt><trkpt lat="41.0371883" lon="0.536235"><ele>198.0</ele><time>2026-03-31T09:21:24.162Z</time></trkpt><trkpt lat="41.0371083" lon="0.5361017"><ele>196.66666666666669</ele><time>2026-03-31T09:21:25.163Z</time></trkpt><trkpt lat="41.037035" lon="0.53593"><ele>195.33333333333334</ele><time>2026-03-31T09:21:26.162Z</time></trkpt><trkpt lat="41.0369517" lon="0.5357433"><ele>194.0</ele><time>2026-03-31T09:21:27.162Z</time></trkpt><trkpt lat="41.0368583" lon="0.5355533"><ele>194.33333333333334</ele><time>2026-03-31T09:21:28.162Z</time></trkpt><trkpt lat="41.0367433" lon="0.5353617"><ele>194.66666666666669</ele><time>2026-03-31T09:21:29.163Z</time></trkpt><trkpt lat="41.0366133" lon="0.5351817"><ele>195.0</ele><time>2026-03-31T09:21:30.163Z</time></trkpt><trkpt lat="41.0364767" lon="0.5350167"><ele>194.33333333333331</ele><time>2026-03-31T09:21:31.162Z</time></trkpt><trkpt lat="41.036335" lon="0.5348567"><ele>193.66666666666666</ele><time>2026-03-31T09:21:32.163Z</time></trkpt><trkpt lat="41.0361833" lon="0.5346817"><ele>193.0</ele><time>2026-03-31T09:21:33.163Z</time></trkpt><trkpt lat="41.036025" lon="0.5345067"><ele>193.0</ele><time>2026-03-31T09:21:34.162Z</time></trkpt><trkpt lat="41.0358617" lon="0.5343217"><ele>193.0</ele><time>2026-03-31T09:21:35.163Z</time></trkpt><trkpt lat="41.0356917" lon="0.534135"><ele>193.0</ele><time>2026-03-31T09:21:36.162Z</time></trkpt><trkpt lat="41.035525" lon="0.53396"><ele>192.0</ele><time>2026-03-31T09:21:37.162Z</time></trkpt><trkpt lat="41.035355" lon="0.5337833"><ele>191.0</ele><time>2026-03-31T09:21:38.162Z</time></trkpt><trkpt lat="41.03519" lon="0.5335933"><ele>190.0</ele><time>2026-03-31T09:21:39.162Z</time></trkpt><trkpt lat="41.0350233" lon="0.5333983"><ele>189.0</ele><time>2026-03-31T09:21:40.163Z</time></trkpt><trkpt lat="41.0348567" lon="0.5331917"><ele>188.0</ele><time>2026-03-31T09:21:41.162Z</time></trkpt><trkpt lat="41.0346933" lon="0.532995"><ele>187.0</ele><time>2026-03-31T09:21:42.162Z</time></trkpt><trkpt lat="41.0345267" lon="0.5327967"><ele>186.33333333333334</ele><time>2026-03-31T09:21:43.162Z</time></trkpt><trkpt lat="41.0343617" lon="0.5326017"><ele>185.66666666666666</ele><time>2026-03-31T09:21:44.163Z</time></trkpt><trkpt lat="41.0341983" lon="0.532405"><ele>185.0</ele><time>2026-03-31T09:21:45.162Z</time></trkpt><trkpt lat="41.0340383" lon="0.5322167"><ele>185.33333333333331</ele><time>2026-03-31T09:21:46.163Z</time></trkpt><trkpt lat="41.0338817" lon="0.53203"><ele>185.66666666666666</ele><time>2026-03-31T09:21:47.162Z</time></trkpt><trkpt lat="41.0337233" lon="0.53183"><ele>186.0</ele><time>2026-03-31T09:21:48.163Z</time></trkpt><trkpt lat="41.0335583" lon="0.5316217"><ele>186.0</ele><time>2026-03-31T09:21:49.162Z</time></trkpt><trkpt lat="41.0334033" lon="0.531435"><ele>186.0</ele><time>2026-03-31T09:21:50.163Z</time></trkpt><trkpt lat="41.0332433" lon="0.5312533"><ele>186.0</ele><time>2026-03-31T09:21:51.162Z</time></trkpt><trkpt lat="41.0330883" lon="0.5310533"><ele>186.33333333333334</ele><time>2026-03-31T09:21:52.162Z</time></trkpt><trkpt lat="41.0329333" lon="0.5308783"><ele>186.66666666666669</ele><time>2026-03-31T09:21:53.162Z</time></trkpt><trkpt lat="41.03278" lon="0.5306867"><ele>187.0</ele><time>2026-03-31T09:21:54.163Z</time></trkpt><trkpt lat="41.0326367" lon="0.530485"><ele>187.0</ele><time>2026-03-31T09:21:55.163Z</time></trkpt><trkpt lat="41.0325083" lon="0.5302767"><ele>187.0</ele><time>2026-03-31T09:21:56.163Z</time></trkpt><trkpt lat="41.0323833" lon="0.53007"><ele>187.0</ele><time>2026-03-31T09:21:57.162Z</time></trkpt><trkpt lat="41.0322567" lon="0.529855"><ele>186.33333333333334</ele><time>2026-03-31T09:21:58.162Z</time></trkpt><trkpt lat="41.032135" lon="0.5296467"><ele>185.66666666666666</ele><time>2026-03-31T09:21:59.163Z</time></trkpt><trkpt lat="41.0320133" lon="0.5294467"><ele>185.0</ele><time>2026-03-31T09:22:00.163Z</time></trkpt><trkpt lat="41.0318867" lon="0.5292367"><ele>184.33333333333331</ele><time>2026-03-31T09:22:01.163Z</time></trkpt><trkpt lat="41.0317517" lon="0.52903"><ele>183.66666666666666</ele><time>2026-03-31T09:22:02.163Z</time></trkpt><trkpt lat="41.0316133" lon="0.5288383"><ele>183.0</ele><time>2026-03-31T09:22:03.163Z</time></trkpt><trkpt lat="41.0314683" lon="0.5286567"><ele>182.33333333333334</ele><time>2026-03-31T09:22:04.163Z</time></trkpt><trkpt lat="41.03132" lon="0.5284917"><ele>181.66666666666669</ele><time>2026-03-31T09:22:05.163Z</time></trkpt><trkpt lat="41.0311783" lon="0.5283533"><ele>181.0</ele><time>2026-03-31T09:22:06.162Z</time></trkpt><trkpt lat="41.0310317" lon="0.5282467"><ele>181.0</ele><time>2026-03-31T09:22:07.163Z</time></trkpt><trkpt lat="41.0308733" lon="0.528195"><ele>181.0</ele><time>2026-03-31T09:22:08.162Z</time></trkpt><trkpt lat="41.0307233" lon="0.52814"><ele>181.0</ele><time>2026-03-31T09:22:09.163Z</time></trkpt><trkpt lat="41.03059" lon="0.528075"><ele>181.0</ele><time>2026-03-31T09:22:10.162Z</time></trkpt><trkpt lat="41.0304733" lon="0.5279717"><ele>181.0</ele><time>2026-03-31T09:22:11.163Z</time></trkpt><trkpt lat="41.03037" lon="0.5278"><ele>181.0</ele><time>2026-03-31T09:22:12.163Z</time></trkpt><trkpt lat="41.0302683" lon="0.5276233"><ele>181.0</ele><time>2026-03-31T09:22:13.163Z</time></trkpt><trkpt lat="41.0301567" lon="0.527435"><ele>181.0</ele><time>2026-03-31T09:22:14.162Z</time></trkpt><trkpt lat="41.0300367" lon="0.5272367"><ele>181.0</ele><time>2026-03-31T09:22:15.163Z</time></trkpt><trkpt lat="41.0299117" lon="0.5270267"><ele>181.33333333333334</ele><time>2026-03-31T09:22:16.163Z</time></trkpt><trkpt lat="41.0297817" lon="0.5268267"><ele>181.66666666666666</ele><time>2026-03-31T09:22:17.162Z</time></trkpt><trkpt lat="41.0296433" lon="0.5266283"><ele>182.0</ele><time>2026-03-31T09:22:18.162Z</time></trkpt><trkpt lat="41.0295017" lon="0.5264383"><ele>182.0</ele><time>2026-03-31T09:22:19.162Z</time></trkpt><trkpt lat="41.0293567" lon="0.5262417"><ele>182.0</ele><time>2026-03-31T09:22:20.163Z</time></trkpt><trkpt lat="41.0292083" lon="0.5260433"><ele>182.0</ele><time>2026-03-31T09:22:21.163Z</time></trkpt><trkpt lat="41.029065" lon="0.5258533"><ele>183.33333333333331</ele><time>2026-03-31T09:22:22.162Z</time></trkpt><trkpt lat="41.0289133" lon="0.525675"><ele>184.66666666666666</ele><time>2026-03-31T09:22:23.162Z</time></trkpt><trkpt lat="41.02876" lon="0.525495"><ele>186.0</ele><time>2026-03-31T09:22:24.163Z</time></trkpt><trkpt lat="41.02861" lon="0.5253283"><ele>186.33333333333334</ele><time>2026-03-31T09:22:25.162Z</time></trkpt><trkpt lat="41.028455" lon="0.5251633"><ele>186.66666666666669</ele><time>2026-03-31T09:22:26.162Z</time></trkpt><trkpt lat="41.028295" lon="0.5250033"><ele>187.0</ele><time>2026-03-31T09:22:27.163Z</time></trkpt><trkpt lat="41.0281517" lon="0.5248483"><ele>186.33333333333334</ele><time>2026-03-31T09:22:28.162Z</time></trkpt><trkpt lat="41.02802" lon="0.5246667"><ele>185.66666666666666</ele><time>2026-03-31T09:22:29.162Z</time></trkpt><trkpt lat="41.027905" lon="0.5244667"><ele>185.0</ele><time>2026-03-31T09:22:30.162Z</time></trkpt><trkpt lat="41.0278067" lon="0.5242483"><ele>185.0</ele><time>2026-03-31T09:22:31.162Z</time></trkpt><trkpt lat="41.0277117" lon="0.52401"><ele>185.0</ele><time>2026-03-31T09:22:32.163Z</time></trkpt><trkpt lat="41.0276317" lon="0.5237617"><ele>185.0</ele><time>2026-03-31T09:22:33.163Z</time></trkpt><trkpt lat="41.0275483" lon="0.5235117"><ele>182.66666666666666</ele><time>2026-03-31T09:22:34.162Z</time></trkpt><trkpt lat="41.027455" lon="0.52326"><ele>180.33333333333334</ele><time>2026-03-31T09:22:35.162Z</time></trkpt><trkpt lat="41.0273567" lon="0.523015"><ele>178.0</ele><time>2026-03-31T09:22:36.163Z</time></trkpt><trkpt lat="41.0272667" lon="0.52278"><ele>178.0</ele><time>2026-03-31T09:22:37.162Z</time></trkpt><trkpt lat="41.027165" lon="0.5225333"><ele>178.0</ele><time>2026-03-31T09:22:38.163Z</time></trkpt><trkpt lat="41.0270633" lon="0.5222967"><ele>178.0</ele><time>2026-03-31T09:22:39.162Z</time></trkpt><trkpt lat="41.0269667" lon="0.5220617"><ele>177.66666666666669</ele><time>2026-03-31T09:22:40.162Z</time></trkpt><trkpt lat="41.02686" lon="0.5218267"><ele>177.33333333333334</ele><time>2026-03-31T09:22:41.162Z</time></trkpt><trkpt lat="41.0267517" lon="0.5215867"><ele>177.0</ele><time>2026-03-31T09:22:42.162Z</time></trkpt><trkpt lat="41.0266383" lon="0.52136"><ele>176.66666666666666</ele><time>2026-03-31T09:22:43.163Z</time></trkpt><trkpt lat="41.0265167" lon="0.5211367"><ele>176.33333333333331</ele><time>2026-03-31T09:22:44.162Z</time></trkpt><trkpt lat="41.0264" lon="0.5209267"><ele>176.0</ele><time>2026-03-31T09:22:45.162Z</time></trkpt><trkpt lat="41.0262783" lon="0.52072"><ele>176.0</ele><time>2026-03-31T09:22:46.162Z</time></trkpt><trkpt lat="41.026175" lon="0.520515"><ele>176.0</ele><time>2026-03-31T09:22:47.163Z</time></trkpt><trkpt lat="41.0260667" lon="0.5203333"><ele>176.0</ele><time>2026-03-31T09:22:48.162Z</time></trkpt><trkpt lat="41.0259483" lon="0.5202033"><ele>175.33333333333331</ele><time>2026-03-31T09:22:49.163Z</time></trkpt><trkpt lat="41.02581" lon="0.52011"><ele>174.66666666666666</ele><time>2026-03-31T09:22:50.162Z</time></trkpt><trkpt lat="41.0256633" lon="0.520015"><ele>174.0</ele><time>2026-03-31T09:22:51.162Z</time></trkpt><trkpt lat="41.025525" lon="0.5199017"><ele>174.0</ele><time>2026-03-31T09:22:52.162Z</time></trkpt><trkpt lat="41.0254083" lon="0.51975"><ele>174.0</ele><time>2026-03-31T09:22:53.162Z</time></trkpt><trkpt lat="41.0253117" lon="0.519565"><ele>174.0</ele><time>2026-03-31T09:22:54.162Z</time></trkpt><trkpt lat="41.0252217" lon="0.519355"><ele>174.66666666666666</ele><time>2026-03-31T09:22:55.162Z</time></trkpt><trkpt lat="41.02513" lon="0.51915"><ele>175.33333333333331</ele><time>2026-03-31T09:22:56.162Z</time></trkpt><trkpt lat="41.025035" lon="0.5189433"><ele>176.0</ele><time>2026-03-31T09:22:57.162Z</time></trkpt><trkpt lat="41.0249283" lon="0.5187667"><ele>176.33333333333331</ele><time>2026-03-31T09:22:58.163Z</time></trkpt><trkpt lat="41.0247967" lon="0.5186117"><ele>176.66666666666666</ele><time>2026-03-31T09:22:59.163Z</time></trkpt><trkpt lat="41.0246383" lon="0.5184617"><ele>177.0</ele><time>2026-03-31T09:23:00.162Z</time></trkpt><trkpt lat="41.0244683" lon="0.5183033"><ele>177.0</ele><time>2026-03-31T09:23:01.161Z</time></trkpt><trkpt lat="41.0242967" lon="0.51816"><ele>177.0</ele><time>2026-03-31T09:23:02.162Z</time></trkpt><trkpt lat="41.0241233" lon="0.5180033"><ele>177.0</ele><time>2026-03-31T09:23:03.162Z</time></trkpt><trkpt lat="41.0239517" lon="0.517855"><ele>176.33333333333334</ele><time>2026-03-31T09:23:04.163Z</time></trkpt><trkpt lat="41.02377" lon="0.5177017"><ele>175.66666666666669</ele><time>2026-03-31T09:23:05.162Z</time></trkpt><trkpt lat="41.0235933" lon="0.5175417"><ele>175.0</ele><time>2026-03-31T09:23:06.162Z</time></trkpt><trkpt lat="41.0234083" lon="0.517385"><ele>175.5</ele><time>2026-03-31T09:23:07.162Z</time></trkpt><trkpt lat="41.0232217" lon="0.517215"><ele>176.0</ele><time>2026-03-31T09:23:08.163Z</time></trkpt><trkpt lat="41.0230267" lon="0.5170383"><ele>176.0</ele><time>2026-03-31T09:23:09.162Z</time></trkpt><trkpt lat="41.02283" lon="0.5168633"><ele>176.0</ele><time>2026-03-31T09:23:10.163Z</time></trkpt><trkpt lat="41.0226317" lon="0.5166833"><ele>176.0</ele><time>2026-03-31T09:23:11.163Z</time></trkpt><trkpt lat="41.0224333" lon="0.516505"><ele>176.0</ele><time>2026-03-31T09:23:12.162Z</time></trkpt><trkpt lat="41.0222333" lon="0.5163283"><ele>178.0</ele><time>2026-03-31T09:23:13.162Z</time></trkpt><trkpt lat="41.02204" lon="0.51616"><ele>180.0</ele><time>2026-03-31T09:23:14.163Z</time></trkpt><trkpt lat="41.02185" lon="0.5159983"><ele>180.0</ele><time>2026-03-31T09:23:15.162Z</time></trkpt><trkpt lat="41.021685" lon="0.515845"><ele>180.0</ele><time>2026-03-31T09:23:16.162Z</time></trkpt><trkpt lat="41.02153" lon="0.5157"><ele>180.0</ele><time>2026-03-31T09:23:17.162Z</time></trkpt><trkpt lat="41.0213833" lon="0.5155683"><ele>181.33333333333334</ele><time>2026-03-31T09:23:18.163Z</time></trkpt><trkpt lat="41.0212533" lon="0.5154383"><ele>182.66666666666669</ele><time>2026-03-31T09:23:19.163Z</time></trkpt><trkpt lat="41.0211233" lon="0.5153183"><ele>184.0</ele><time>2026-03-31T09:23:20.162Z</time></trkpt><trkpt lat="41.021" lon="0.5152167"><ele>184.0</ele><time>2026-03-31T09:23:21.162Z</time></trkpt><trkpt lat="41.0208633" lon="0.5151483"><ele>184.0</ele><time>2026-03-31T09:23:22.162Z</time></trkpt><trkpt lat="41.02073" lon="0.5151133"><ele>184.0</ele><time>2026-03-31T09:23:23.163Z</time></trkpt><trkpt lat="41.0205933" lon="0.5150883"><ele>184.0</ele><time>2026-03-31T09:23:24.163Z</time></trkpt><trkpt lat="41.02046" lon="0.5150783"><ele>184.0</ele><time>2026-03-31T09:23:25.162Z</time></trkpt><trkpt lat="41.020335" lon="0.5150567"><ele>184.0</ele><time>2026-03-31T09:23:26.162Z</time></trkpt><trkpt lat="41.0202117" lon="0.5150117"><ele>184.0</ele><time>2026-03-31T09:23:27.163Z</time></trkpt><trkpt lat="41.02009" lon="0.5149383"><ele>184.0</ele><time>2026-03-31T09:23:28.162Z</time></trkpt><trkpt lat="41.01997" lon="0.5148533"><ele>182.75</ele><time>2026-03-31T09:23:29.162Z</time></trkpt><trkpt lat="41.01986" lon="0.514785"><ele>181.5</ele><time>2026-03-31T09:23:30.162Z</time></trkpt><trkpt lat="41.0197517" lon="0.514715"><ele>180.25</ele><time>2026-03-31T09:23:31.162Z</time></trkpt><trkpt lat="41.0196517" lon="0.5146583"><ele>179.0</ele><time>2026-03-31T09:23:32.162Z</time></trkpt><trkpt lat="41.0195567" lon="0.5145967"><ele>179.16666666666666</ele><time>2026-03-31T09:23:33.163Z</time></trkpt><trkpt lat="41.0194633" lon="0.5145467"><ele>179.33333333333331</ele><time>2026-03-31T09:23:34.162Z</time></trkpt><trkpt lat="41.019385" lon="0.51451"><ele>179.5</ele><time>2026-03-31T09:23:35.163Z</time></trkpt><trkpt lat="41.019305" lon="0.5145033"><ele>179.66666666666666</ele><time>2026-03-31T09:23:36.163Z</time></trkpt><trkpt lat="41.0192183" lon="0.5145233"><ele>179.83333333333334</ele><time>2026-03-31T09:23:37.162Z</time></trkpt><trkpt lat="41.0191367" lon="0.5145583"><ele>180.0</ele><time>2026-03-31T09:23:38.163Z</time></trkpt><trkpt lat="41.0190683" lon="0.5146033"><ele>179.33333333333334</ele><time>2026-03-31T09:23:39.162Z</time></trkpt><trkpt lat="41.0190017" lon="0.514655"><ele>178.66666666666666</ele><time>2026-03-31T09:23:40.162Z</time></trkpt><trkpt lat="41.0189317" lon="0.5147083"><ele>178.0</ele><time>2026-03-31T09:23:41.163Z</time></trkpt><trkpt lat="41.0188567" lon="0.5147617"><ele>177.33333333333331</ele><time>2026-03-31T09:23:42.163Z</time></trkpt><trkpt lat="41.0187767" lon="0.5148017"><ele>176.66666666666666</ele><time>2026-03-31T09:23:43.162Z</time></trkpt><trkpt lat="41.018695" lon="0.514845"><ele>176.0</ele><time>2026-03-31T09:23:44.162Z</time></trkpt><trkpt lat="41.0186133" lon="0.5148833"><ele>176.0</ele><time>2026-03-31T09:23:45.163Z</time></trkpt><trkpt lat="41.0185283" lon="0.5149317"><ele>176.0</ele><time>2026-03-31T09:23:46.162Z</time></trkpt><trkpt lat="41.01844" lon="0.5149817"><ele>176.0</ele><time>2026-03-31T09:23:47.162Z</time></trkpt><trkpt lat="41.0183567" lon="0.5150317"><ele>176.0</ele><time>2026-03-31T09:23:48.162Z</time></trkpt><trkpt lat="41.01827" lon="0.5150733"><ele>176.0</ele><time>2026-03-31T09:23:49.162Z</time></trkpt><trkpt lat="41.0181867" lon="0.51512"><ele>175.8</ele><time>2026-03-31T09:23:50.162Z</time></trkpt><trkpt lat="41.0180983" lon="0.515165"><ele>175.60000000000002</ele><time>2026-03-31T09:23:51.162Z</time></trkpt><trkpt lat="41.0180133" lon="0.51522"><ele>175.4</ele><time>2026-03-31T09:23:52.163Z</time></trkpt><trkpt lat="41.0179267" lon="0.5152733"><ele>175.2</ele><time>2026-03-31T09:23:53.163Z</time></trkpt><trkpt lat="41.01784" lon="0.5153233"><ele>175.0</ele><time>2026-03-31T09:23:54.163Z</time></trkpt><trkpt lat="41.0177533" lon="0.5153717"><ele>175.16666666666669</ele><time>2026-03-31T09:23:55.162Z</time></trkpt><trkpt lat="41.0176683" lon="0.515415"><ele>175.33333333333334</ele><time>2026-03-31T09:23:56.162Z</time></trkpt><trkpt lat="41.01758" lon="0.515445"><ele>175.5</ele><time>2026-03-31T09:23:57.162Z</time></trkpt><trkpt lat="41.01749" lon="0.5154567"><ele>175.66666666666666</ele><time>2026-03-31T09:23:58.163Z</time></trkpt><trkpt lat="41.0174033" lon="0.5154433"><ele>175.83333333333331</ele><time>2026-03-31T09:23:59.162Z</time></trkpt><trkpt lat="41.01732" lon="0.515405"><ele>176.0</ele><time>2026-03-31T09:24:00.163Z</time></trkpt><trkpt lat="41.017255" lon="0.5153133"><ele>177.75</ele><time>2026-03-31T09:24:01.163Z</time></trkpt><trkpt lat="41.0171933" lon="0.5152167"><ele>179.5</ele><time>2026-03-31T09:24:02.162Z</time></trkpt><trkpt lat="41.017155" lon="0.515065"><ele>181.25</ele><time>2026-03-31T09:24:03.162Z</time></trkpt><trkpt lat="41.01713" lon="0.5148933"><ele>183.0</ele><time>2026-03-31T09:24:04.163Z</time></trkpt><trkpt lat="41.0171167" lon="0.5147283"><ele>183.0</ele><time>2026-03-31T09:24:05.162Z</time></trkpt><trkpt lat="41.0170917" lon="0.5145817"><ele>183.0</ele><time>2026-03-31T09:24:06.162Z</time></trkpt><trkpt lat="41.01707" lon="0.514445"><ele>183.0</ele><time>2026-03-31T09:24:07.162Z</time></trkpt><trkpt lat="41.0170417" lon="0.51431"><ele>183.0</ele><time>2026-03-31T09:24:08.162Z</time></trkpt><trkpt lat="41.0170267" lon="0.5141833"><ele>183.0</ele><time>2026-03-31T09:24:09.163Z</time></trkpt><trkpt lat="41.0170217" lon="0.5140717"><ele>181.0</ele><time>2026-03-31T09:24:10.162Z</time></trkpt><trkpt lat="41.0170233" lon="0.5139683"><ele>179.0</ele><time>2026-03-31T09:24:11.162Z</time></trkpt><trkpt lat="41.0170217" lon="0.5138683"><ele>177.0</ele><time>2026-03-31T09:24:12.162Z</time></trkpt><trkpt lat="41.017015" lon="0.513765"><ele>175.0</ele><time>2026-03-31T09:24:13.162Z</time></trkpt><trkpt lat="41.0170117" lon="0.5136533"><ele>173.0</ele><time>2026-03-31T09:24:14.162Z</time></trkpt><trkpt lat="41.0170117" lon="0.5135333"><ele>171.0</ele><time>2026-03-31T09:24:15.162Z</time></trkpt><trkpt lat="41.017005" lon="0.5134083"><ele>170.0</ele><time>2026-03-31T09:24:16.163Z</time></trkpt><trkpt lat="41.0170067" lon="0.513275"><ele>169.0</ele><time>2026-03-31T09:24:17.162Z</time></trkpt><trkpt lat="41.0170033" lon="0.513135"><ele>168.0</ele><time>2026-03-31T09:24:18.163Z</time></trkpt><trkpt lat="41.017" lon="0.513"><ele>167.0</ele><time>2026-03-31T09:24:19.162Z</time></trkpt><trkpt lat="41.01699" lon="0.512865"><ele>166.0</ele><time>2026-03-31T09:24:20.163Z</time></trkpt><trkpt lat="41.0169817" lon="0.5127317"><ele>165.60000000000002</ele><time>2026-03-31T09:24:21.162Z</time></trkpt><trkpt lat="41.0169733" lon="0.5125983"><ele>165.2</ele><time>2026-03-31T09:24:22.163Z</time></trkpt><trkpt lat="41.0169683" lon="0.51247"><ele>164.8</ele><time>2026-03-31T09:24:23.163Z</time></trkpt><trkpt lat="41.0169633" lon="0.5123433"><ele>164.39999999999998</ele><time>2026-03-31T09:24:24.163Z</time></trkpt><trkpt lat="41.01696" lon="0.51221"><ele>164.0</ele><time>2026-03-31T09:24:25.163Z</time></trkpt><trkpt lat="41.0169533" lon="0.51208"><ele>163.79999999999998</ele><time>2026-03-31T09:24:26.162Z</time></trkpt><trkpt lat="41.0169467" lon="0.5119533"><ele>163.6</ele><time>2026-03-31T09:24:27.163Z</time></trkpt><trkpt lat="41.0169417" lon="0.51183"><ele>163.4</ele><time>2026-03-31T09:24:28.162Z</time></trkpt><trkpt lat="41.0169333" lon="0.5116983"><ele>163.2</ele><time>2026-03-31T09:24:29.162Z</time></trkpt><trkpt lat="41.0169333" lon="0.5115567"><ele>163.0</ele><time>2026-03-31T09:24:30.163Z</time></trkpt><trkpt lat="41.01692" lon="0.5114"><ele>162.75</ele><time>2026-03-31T09:24:31.162Z</time></trkpt><trkpt lat="41.0169067" lon="0.51124"><ele>162.5</ele><time>2026-03-31T09:24:32.163Z</time></trkpt><trkpt lat="41.016885" lon="0.5110733"><ele>162.25</ele><time>2026-03-31T09:24:33.163Z</time></trkpt><trkpt lat="41.0168667" lon="0.5109083"><ele>162.0</ele><time>2026-03-31T09:24:34.163Z</time></trkpt><trkpt lat="41.0168667" lon="0.5107333"><ele>162.0</ele><time>2026-03-31T09:24:35.162Z</time></trkpt><trkpt lat="41.016895" lon="0.51058"><ele>162.0</ele><time>2026-03-31T09:24:36.162Z</time></trkpt><trkpt lat="41.0169067" lon="0.5103817"><ele>162.0</ele><time>2026-03-31T09:24:37.162Z</time></trkpt><trkpt lat="41.016945" lon="0.5101783"><ele>162.0</ele><time>2026-03-31T09:24:38.163Z</time></trkpt><trkpt lat="41.0169783" lon="0.51"><ele>162.25</ele><time>2026-03-31T09:24:39.163Z</time></trkpt><trkpt lat="41.017005" lon="0.5098333"><ele>162.5</ele><time>2026-03-31T09:24:40.162Z</time></trkpt><trkpt lat="41.0170083" lon="0.50968"><ele>162.75</ele><time>2026-03-31T09:24:41.162Z</time></trkpt><trkpt lat="41.0169733" lon="0.509515"><ele>163.0</ele><time>2026-03-31T09:24:42.162Z</time></trkpt><trkpt lat="41.0168983" lon="0.509365"><ele>163.25</ele><time>2026-03-31T09:24:43.162Z</time></trkpt><trkpt lat="41.0167933" lon="0.5092517"><ele>163.5</ele><time>2026-03-31T09:24:44.162Z</time></trkpt><trkpt lat="41.0166717" lon="0.5091483"><ele>163.75</ele><time>2026-03-31T09:24:45.162Z</time></trkpt><trkpt lat="41.0165417" lon="0.5090567"><ele>164.0</ele><time>2026-03-31T09:24:46.162Z</time></trkpt><trkpt lat="41.016405" lon="0.5089667"><ele>164.0</ele><time>2026-03-31T09:24:47.162Z</time></trkpt><trkpt lat="41.0162533" lon="0.5088717"><ele>164.0</ele><time>2026-03-31T09:24:48.162Z</time></trkpt><trkpt lat="41.0160983" lon="0.5087767"><ele>164.0</ele><time>2026-03-31T09:24:49.163Z</time></trkpt><trkpt lat="41.0159333" lon="0.508675"><ele>165.0</ele><time>2026-03-31T09:24:50.163Z</time></trkpt><trkpt lat="41.0157617" lon="0.5085883"><ele>166.0</ele><time>2026-03-31T09:24:51.163Z</time></trkpt><trkpt lat="41.01559" lon="0.5085017"><ele>167.0</ele><time>2026-03-31T09:24:52.162Z</time></trkpt><trkpt lat="41.0154217" lon="0.5084117"><ele>167.0</ele><time>2026-03-31T09:24:53.163Z</time></trkpt><trkpt lat="41.015255" lon="0.5083133"><ele>167.0</ele><time>2026-03-31T09:24:54.163Z</time></trkpt><trkpt lat="41.0150933" lon="0.5082183"><ele>167.0</ele><time>2026-03-31T09:24:55.162Z</time></trkpt><trkpt lat="41.0149333" lon="0.5081283"><ele>168.33333333333331</ele><time>2026-03-31T09:24:56.162Z</time></trkpt><trkpt lat="41.0147867" lon="0.5080267"><ele>169.66666666666666</ele><time>2026-03-31T09:24:57.162Z</time></trkpt><trkpt lat="41.0146467" lon="0.5079"><ele>171.0</ele><time>2026-03-31T09:24:58.163Z</time></trkpt><trkpt lat="41.0145167" lon="0.507755"><ele>171.66666666666666</ele><time>2026-03-31T09:24:59.163Z</time></trkpt><trkpt lat="41.0144" lon="0.50761"><ele>172.33333333333331</ele><time>2026-03-31T09:25:00.162Z</time></trkpt><trkpt lat="41.0142917" lon="0.5074667"><ele>173.0</ele><time>2026-03-31T09:25:01.163Z</time></trkpt><trkpt lat="41.014195" lon="0.5073133"><ele>174.0</ele><time>2026-03-31T09:25:02.162Z</time></trkpt><trkpt lat="41.014105" lon="0.5071583"><ele>175.0</ele><time>2026-03-31T09:25:03.162Z</time></trkpt><trkpt lat="41.0140283" lon="0.5070033"><ele>176.0</ele><time>2026-03-31T09:25:04.162Z</time></trkpt><trkpt lat="41.0139533" lon="0.506835"><ele>177.0</ele><time>2026-03-31T09:25:05.163Z</time></trkpt><trkpt lat="41.01388" lon="0.5066517"><ele>177.0</ele><time>2026-03-31T09:25:06.163Z</time></trkpt><trkpt lat="41.0138167" lon="0.506475"><ele>177.0</ele><time>2026-03-31T09:25:07.162Z</time></trkpt><trkpt lat="41.0137583" lon="0.5062967"><ele>177.0</ele><time>2026-03-31T09:25:08.162Z</time></trkpt><trkpt lat="41.0137" lon="0.506125"><ele>177.0</ele><time>2026-03-31T09:25:09.163Z</time></trkpt><trkpt lat="41.0136517" lon="0.5059817"><ele>177.2</ele><time>2026-03-31T09:25:10.162Z</time></trkpt><trkpt lat="41.0136033" lon="0.5058533"><ele>177.39999999999998</ele><time>2026-03-31T09:25:11.163Z</time></trkpt><trkpt lat="41.0135617" lon="0.505735"><ele>177.60000000000002</ele><time>2026-03-31T09:25:12.162Z</time></trkpt><trkpt lat="41.013525" lon="0.5056283"><ele>177.8</ele><time>2026-03-31T09:25:13.163Z</time></trkpt><trkpt lat="41.0134883" lon="0.5055417"><ele>178.0</ele><time>2026-03-31T09:25:14.163Z</time></trkpt><trkpt lat="41.013455" lon="0.5054417"><ele>178.4</ele><time>2026-03-31T09:25:16.162Z</time></trkpt><trkpt lat="41.0134533" lon="0.5053467"><ele>178.8</ele><time>2026-03-31T09:25:21.163Z</time></trkpt><trkpt lat="41.0134533" lon="0.5052583"><ele>179.2</ele><time>2026-03-31T09:25:23.162Z</time></trkpt><trkpt lat="41.01344" lon="0.5050783"><ele>179.6</ele><time>2026-03-31T09:25:25.163Z</time></trkpt><trkpt lat="41.01341" lon="0.50498"><ele>180.0</ele><time>2026-03-31T09:25:26.162Z</time></trkpt><trkpt lat="41.0133533" lon="0.5048733"><ele>181.0</ele><time>2026-03-31T09:25:27.162Z</time></trkpt><trkpt lat="41.0132883" lon="0.504735"><ele>182.0</ele><time>2026-03-31T09:25:28.162Z</time></trkpt><trkpt lat="41.0132267" lon="0.5045833"><ele>183.0</ele><time>2026-03-31T09:25:29.162Z</time></trkpt><trkpt lat="41.013165" lon="0.5044167"><ele>184.0</ele><time>2026-03-31T09:25:30.162Z</time></trkpt><trkpt lat="41.013125" lon="0.5042383"><ele>184.33333333333334</ele><time>2026-03-31T09:25:31.162Z</time></trkpt><trkpt lat="41.0131033" lon="0.5040417"><ele>184.66666666666666</ele><time>2026-03-31T09:25:32.163Z</time></trkpt><trkpt lat="41.0130917" lon="0.5038417"><ele>185.0</ele><time>2026-03-31T09:25:33.162Z</time></trkpt><trkpt lat="41.0130983" lon="0.5036417"><ele>186.0</ele><time>2026-03-31T09:25:34.163Z</time></trkpt><trkpt lat="41.0130917" lon="0.5034383"><ele>187.0</ele><time>2026-03-31T09:25:35.162Z</time></trkpt><trkpt lat="41.013055" lon="0.5032317"><ele>188.0</ele><time>2026-03-31T09:25:36.163Z</time></trkpt><trkpt lat="41.0129967" lon="0.50303"><ele>188.66666666666666</ele><time>2026-03-31T09:25:37.162Z</time></trkpt><trkpt lat="41.0129217" lon="0.502835"><ele>189.33333333333334</ele><time>2026-03-31T09:25:38.162Z</time></trkpt><trkpt lat="41.0128483" lon="0.5026367"><ele>190.0</ele><time>2026-03-31T09:25:39.162Z</time></trkpt><trkpt lat="41.0127767" lon="0.502435"><ele>190.0</ele><time>2026-03-31T09:25:40.162Z</time></trkpt><trkpt lat="41.0127133" lon="0.5022217"><ele>190.0</ele><time>2026-03-31T09:25:41.162Z</time></trkpt><trkpt lat="41.01266" lon="0.5019933"><ele>190.0</ele><time>2026-03-31T09:25:42.162Z</time></trkpt><trkpt lat="41.012625" lon="0.50176"><ele>190.33333333333334</ele><time>2026-03-31T09:25:43.161Z</time></trkpt><trkpt lat="41.0125817" lon="0.50152"><ele>190.66666666666666</ele><time>2026-03-31T09:25:44.161Z</time></trkpt><trkpt lat="41.01254" lon="0.501275"><ele>191.0</ele><time>2026-03-31T09:25:45.162Z</time></trkpt><trkpt lat="41.0124983" lon="0.50103"><ele>193.0</ele><time>2026-03-31T09:25:46.162Z</time></trkpt><trkpt lat="41.0124583" lon="0.5007833"><ele>195.0</ele><time>2026-03-31T09:25:47.161Z</time></trkpt><trkpt lat="41.0124133" lon="0.50055"><ele>197.0</ele><time>2026-03-31T09:25:48.162Z</time></trkpt><trkpt lat="41.0123583" lon="0.500305"><ele>198.33333333333334</ele><time>2026-03-31T09:25:49.161Z</time></trkpt><trkpt lat="41.0122783" lon="0.5000667"><ele>199.66666666666669</ele><time>2026-03-31T09:25:50.161Z</time></trkpt><trkpt lat="41.0121817" lon="0.49984"><ele>201.0</ele><time>2026-03-31T09:25:51.162Z</time></trkpt><trkpt lat="41.0120767" lon="0.49961"><ele>202.66666666666669</ele><time>2026-03-31T09:25:52.162Z</time></trkpt><trkpt lat="41.0119683" lon="0.49938"><ele>204.33333333333334</ele><time>2026-03-31T09:25:53.161Z</time></trkpt><trkpt lat="41.01186" lon="0.4991483"><ele>206.0</ele><time>2026-03-31T09:25:54.162Z</time></trkpt><trkpt lat="41.011755" lon="0.4989217"><ele>206.0</ele><time>2026-03-31T09:25:55.162Z</time></trkpt><trkpt lat="41.0116517" lon="0.4986983"><ele>206.0</ele><time>2026-03-31T09:25:56.161Z</time></trkpt><trkpt lat="41.01155" lon="0.49848"><ele>206.0</ele><time>2026-03-31T09:25:57.161Z</time></trkpt><trkpt lat="41.0114633" lon="0.49826"><ele>206.0</ele><time>2026-03-31T09:25:58.162Z</time></trkpt><trkpt lat="41.0113883" lon="0.498025"><ele>206.0</ele><time>2026-03-31T09:25:59.161Z</time></trkpt><trkpt lat="41.0113367" lon="0.497775"><ele>206.0</ele><time>2026-03-31T09:26:00.162Z</time></trkpt><trkpt lat="41.0113083" lon="0.4975233"><ele>205.66666666666669</ele><time>2026-03-31T09:26:01.161Z</time></trkpt><trkpt lat="41.0112817" lon="0.4972617"><ele>205.33333333333331</ele><time>2026-03-31T09:26:02.161Z</time></trkpt><trkpt lat="41.0112683" lon="0.4969983"><ele>205.0</ele><time>2026-03-31T09:26:03.162Z</time></trkpt><trkpt lat="41.0112533" lon="0.496715"><ele>206.0</ele><time>2026-03-31T09:26:04.161Z</time></trkpt><trkpt lat="41.0112417" lon="0.496445"><ele>207.0</ele><time>2026-03-31T09:26:05.161Z</time></trkpt><trkpt lat="41.0112267" lon="0.49615"><ele>208.0</ele><time>2026-03-31T09:26:06.161Z</time></trkpt><trkpt lat="41.0112117" lon="0.4958783"><ele>208.33333333333331</ele><time>2026-03-31T09:26:07.161Z</time></trkpt><trkpt lat="41.0111917" lon="0.4956033"><ele>208.66666666666669</ele><time>2026-03-31T09:26:08.161Z</time></trkpt><trkpt lat="41.0111767" lon="0.4953383"><ele>209.0</ele><time>2026-03-31T09:26:09.162Z</time></trkpt><trkpt lat="41.011185" lon="0.4950783"><ele>210.0</ele><time>2026-03-31T09:26:10.161Z</time></trkpt><trkpt lat="41.011205" lon="0.494835"><ele>211.0</ele><time>2026-03-31T09:26:11.161Z</time></trkpt><trkpt lat="41.0112383" lon="0.4945933"><ele>212.0</ele><time>2026-03-31T09:26:12.162Z</time></trkpt><trkpt lat="41.0112833" lon="0.49435"><ele>212.66666666666669</ele><time>2026-03-31T09:26:13.161Z</time></trkpt><trkpt lat="41.0113367" lon="0.4940983"><ele>213.33333333333331</ele><time>2026-03-31T09:26:14.161Z</time></trkpt><trkpt lat="41.01139" lon="0.4938383"><ele>214.0</ele><time>2026-03-31T09:26:15.161Z</time></trkpt><trkpt lat="41.0114433" lon="0.49358"><ele>214.66666666666666</ele><time>2026-03-31T09:26:16.162Z</time></trkpt><trkpt lat="41.0114983" lon="0.493325"><ele>215.33333333333331</ele><time>2026-03-31T09:26:17.161Z</time></trkpt><trkpt lat="41.0115533" lon="0.49307"><ele>216.0</ele><time>2026-03-31T09:26:18.162Z</time></trkpt><trkpt lat="41.0116083" lon="0.49281"><ele>218.33333333333331</ele><time>2026-03-31T09:26:19.162Z</time></trkpt><trkpt lat="41.0116667" lon="0.492555"><ele>220.66666666666666</ele><time>2026-03-31T09:26:20.162Z</time></trkpt><trkpt lat="41.0117167" lon="0.492305"><ele>223.0</ele><time>2026-03-31T09:26:21.161Z</time></trkpt><trkpt lat="41.0117683" lon="0.4920467"><ele>223.0</ele><time>2026-03-31T09:26:22.162Z</time></trkpt><trkpt lat="41.0118183" lon="0.4917917"><ele>223.0</ele><time>2026-03-31T09:26:23.161Z</time></trkpt><trkpt lat="41.0118717" lon="0.4915167"><ele>223.0</ele><time>2026-03-31T09:26:24.162Z</time></trkpt><trkpt lat="41.011915" lon="0.4912433"><ele>222.66666666666666</ele><time>2026-03-31T09:26:25.162Z</time></trkpt><trkpt lat="41.0119367" lon="0.49096"><ele>222.33333333333331</ele><time>2026-03-31T09:26:26.161Z</time></trkpt><trkpt lat="41.01195" lon="0.4906667"><ele>222.0</ele><time>2026-03-31T09:26:27.161Z</time></trkpt><trkpt lat="41.0119717" lon="0.4903883"><ele>222.66666666666669</ele><time>2026-03-31T09:26:28.162Z</time></trkpt><trkpt lat="41.011975" lon="0.4900967"><ele>223.33333333333334</ele><time>2026-03-31T09:26:29.161Z</time></trkpt><trkpt lat="41.0119817" lon="0.4898383"><ele>224.0</ele><time>2026-03-31T09:26:30.161Z</time></trkpt><trkpt lat="41.0119917" lon="0.4895817"><ele>225.33333333333334</ele><time>2026-03-31T09:26:31.162Z</time></trkpt><trkpt lat="41.01199" lon="0.4893467"><ele>226.66666666666669</ele><time>2026-03-31T09:26:32.161Z</time></trkpt><trkpt lat="41.011975" lon="0.4891317"><ele>228.0</ele><time>2026-03-31T09:26:33.162Z</time></trkpt><trkpt lat="41.0119317" lon="0.4889433"><ele>228.0</ele><time>2026-03-31T09:26:34.162Z</time></trkpt><trkpt lat="41.0118617" lon="0.4887733"><ele>228.0</ele><time>2026-03-31T09:26:35.161Z</time></trkpt><trkpt lat="41.01177" lon="0.4886383"><ele>228.0</ele><time>2026-03-31T09:26:36.161Z</time></trkpt><trkpt lat="41.0116533" lon="0.48855"><ele>228.0</ele><time>2026-03-31T09:26:37.162Z</time></trkpt><trkpt lat="41.0115083" lon="0.4884933"><ele>226.33333333333331</ele><time>2026-03-31T09:26:38.162Z</time></trkpt><trkpt lat="41.0113417" lon="0.48844"><ele>224.66666666666666</ele><time>2026-03-31T09:26:39.162Z</time></trkpt><trkpt lat="41.01117" lon="0.48838"><ele>223.0</ele><time>2026-03-31T09:26:40.162Z</time></trkpt><trkpt lat="41.0109983" lon="0.488315"><ele>223.0</ele><time>2026-03-31T09:26:41.162Z</time></trkpt><trkpt lat="41.01081" lon="0.4882383"><ele>223.0</ele><time>2026-03-31T09:26:42.162Z</time></trkpt><trkpt lat="41.0106067" lon="0.4881533"><ele>223.0</ele><time>2026-03-31T09:26:43.161Z</time></trkpt><trkpt lat="41.0104033" lon="0.4880617"><ele>223.0</ele><time>2026-03-31T09:26:44.162Z</time></trkpt><trkpt lat="41.0102117" lon="0.4879533"><ele>223.0</ele><time>2026-03-31T09:26:45.162Z</time></trkpt><trkpt lat="41.0100367" lon="0.4878167"><ele>223.0</ele><time>2026-03-31T09:26:46.162Z</time></trkpt><trkpt lat="41.00989" lon="0.4876483"><ele>222.66666666666666</ele><time>2026-03-31T09:26:47.161Z</time></trkpt><trkpt lat="41.0097567" lon="0.4874383"><ele>222.33333333333331</ele><time>2026-03-31T09:26:48.162Z</time></trkpt><trkpt lat="41.0096417" lon="0.4872117"><ele>222.0</ele><time>2026-03-31T09:26:49.162Z</time></trkpt><trkpt lat="41.0095383" lon="0.486975"><ele>219.33333333333331</ele><time>2026-03-31T09:26:50.162Z</time></trkpt><trkpt lat="41.0094283" lon="0.4867367"><ele>216.66666666666666</ele><time>2026-03-31T09:26:51.162Z</time></trkpt><trkpt lat="41.00932" lon="0.4864983"><ele>214.0</ele><time>2026-03-31T09:26:52.162Z</time></trkpt><trkpt lat="41.0092117" lon="0.4862567"><ele>211.66666666666666</ele><time>2026-03-31T09:26:53.161Z</time></trkpt><trkpt lat="41.0090983" lon="0.4860167"><ele>209.33333333333331</ele><time>2026-03-31T09:26:54.162Z</time></trkpt><trkpt lat="41.0089833" lon="0.485775"><ele>207.0</ele><time>2026-03-31T09:26:55.161Z</time></trkpt><trkpt lat="41.0088733" lon="0.485535"><ele>207.0</ele><time>2026-03-31T09:26:56.161Z</time></trkpt><trkpt lat="41.0087583" lon="0.4852917"><ele>207.0</ele><time>2026-03-31T09:26:57.161Z</time></trkpt><trkpt lat="41.0086483" lon="0.4850633"><ele>207.0</ele><time>2026-03-31T09:26:58.161Z</time></trkpt><trkpt lat="41.0085183" lon="0.4848383"><ele>207.0</ele><time>2026-03-31T09:26:59.161Z</time></trkpt><trkpt lat="41.0083833" lon="0.4846367"><ele>207.0</ele><time>2026-03-31T09:27:00.161Z</time></trkpt><trkpt lat="41.0082433" lon="0.4844567"><ele>207.0</ele><time>2026-03-31T09:27:01.162Z</time></trkpt><trkpt lat="41.0080817" lon="0.4843083"><ele>205.33333333333331</ele><time>2026-03-31T09:27:02.161Z</time></trkpt><trkpt lat="41.007915" lon="0.4841717"><ele>203.66666666666666</ele><time>2026-03-31T09:27:03.162Z</time></trkpt><trkpt lat="41.0077283" lon="0.484055"><ele>202.0</ele><time>2026-03-31T09:27:04.161Z</time></trkpt><trkpt lat="41.0075417" lon="0.4839517"><ele>202.33333333333331</ele><time>2026-03-31T09:27:05.162Z</time></trkpt><trkpt lat="41.0073633" lon="0.483845"><ele>202.66666666666669</ele><time>2026-03-31T09:27:06.162Z</time></trkpt><trkpt lat="41.00718" lon="0.4837583"><ele>203.0</ele><time>2026-03-31T09:27:07.161Z</time></trkpt><trkpt lat="41.0069983" lon="0.483665"><ele>202.33333333333334</ele><time>2026-03-31T09:27:08.162Z</time></trkpt><trkpt lat="41.0068167" lon="0.4835517"><ele>201.66666666666669</ele><time>2026-03-31T09:27:09.162Z</time></trkpt><trkpt lat="41.0066483" lon="0.4834167"><ele>201.0</ele><time>2026-03-31T09:27:10.161Z</time></trkpt><trkpt lat="41.0064933" lon="0.483265"><ele>200.33333333333331</ele><time>2026-03-31T09:27:11.161Z</time></trkpt><trkpt lat="41.0063533" lon="0.4831117"><ele>199.66666666666666</ele><time>2026-03-31T09:27:12.161Z</time></trkpt><trkpt lat="41.00623" lon="0.4829633"><ele>199.0</ele><time>2026-03-31T09:27:13.161Z</time></trkpt><trkpt lat="41.0061267" lon="0.4828067"><ele>198.0</ele><time>2026-03-31T09:27:14.162Z</time></trkpt><trkpt lat="41.0060617" lon="0.4826317"><ele>197.0</ele><time>2026-03-31T09:27:15.161Z</time></trkpt><trkpt lat="41.0060183" lon="0.4824283"><ele>196.0</ele><time>2026-03-31T09:27:16.162Z</time></trkpt><trkpt lat="41.0059967" lon="0.4822067"><ele>195.75</ele><time>2026-03-31T09:27:17.162Z</time></trkpt><trkpt lat="41.0059833" lon="0.481995"><ele>195.5</ele><time>2026-03-31T09:27:18.161Z</time></trkpt><trkpt lat="41.0059833" lon="0.481805"><ele>195.25</ele><time>2026-03-31T09:27:19.162Z</time></trkpt><trkpt lat="41.005965" lon="0.4816133"><ele>195.0</ele><time>2026-03-31T09:27:20.161Z</time></trkpt><trkpt lat="41.00593" lon="0.4814433"><ele>195.0</ele><time>2026-03-31T09:27:21.162Z</time></trkpt><trkpt lat="41.0058667" lon="0.4813017"><ele>195.0</ele><time>2026-03-31T09:27:22.162Z</time></trkpt><trkpt lat="41.0057833" lon="0.4812033"><ele>195.0</ele><time>2026-03-31T09:27:23.162Z</time></trkpt><trkpt lat="41.0056717" lon="0.48116"><ele>195.0</ele><time>2026-03-31T09:27:24.161Z</time></trkpt><trkpt lat="41.005545" lon="0.4811767"><ele>194.25</ele><time>2026-03-31T09:27:25.161Z</time></trkpt><trkpt lat="41.0054017" lon="0.481195"><ele>193.5</ele><time>2026-03-31T09:27:26.162Z</time></trkpt><trkpt lat="41.0052667" lon="0.4811883"><ele>192.75</ele><time>2026-03-31T09:27:27.162Z</time></trkpt><trkpt lat="41.005155" lon="0.4811383"><ele>192.0</ele><time>2026-03-31T09:27:28.162Z</time></trkpt><trkpt lat="41.0050817" lon="0.4810467"><ele>192.0</ele><time>2026-03-31T09:27:29.162Z</time></trkpt><trkpt lat="41.005045" lon="0.4809117"><ele>192.0</ele><time>2026-03-31T09:27:30.162Z</time></trkpt><trkpt lat="41.0050367" lon="0.480745"><ele>192.0</ele><time>2026-03-31T09:27:31.161Z</time></trkpt><trkpt lat="41.00502" lon="0.4805717"><ele>192.0</ele><time>2026-03-31T09:27:32.161Z</time></trkpt><trkpt lat="41.0050083" lon="0.4803883"><ele>191.5</ele><time>2026-03-31T09:27:33.162Z</time></trkpt><trkpt lat="41.005015" lon="0.4802167"><ele>191.0</ele><time>2026-03-31T09:27:34.162Z</time></trkpt><trkpt lat="41.005035" lon="0.480045"><ele>190.5</ele><time>2026-03-31T09:27:35.162Z</time></trkpt><trkpt lat="41.00505" lon="0.4798817"><ele>190.0</ele><time>2026-03-31T09:27:36.162Z</time></trkpt><trkpt lat="41.0050333" lon="0.4797117"><ele>187.75</ele><time>2026-03-31T09:27:37.162Z</time></trkpt><trkpt lat="41.004985" lon="0.4795417"><ele>185.5</ele><time>2026-03-31T09:27:38.162Z</time></trkpt><trkpt lat="41.0048883" lon="0.4793983"><ele>183.25</ele><time>2026-03-31T09:27:39.161Z</time></trkpt><trkpt lat="41.0047933" lon="0.4792483"><ele>181.0</ele><time>2026-03-31T09:27:40.161Z</time></trkpt><trkpt lat="41.0046633" lon="0.479095"><ele>181.0</ele><time>2026-03-31T09:27:41.162Z</time></trkpt><trkpt lat="41.00455" lon="0.4789867"><ele>181.0</ele><time>2026-03-31T09:27:42.161Z</time></trkpt><trkpt lat="41.00444" lon="0.478885"><ele>181.0</ele><time>2026-03-31T09:27:43.161Z</time></trkpt><trkpt lat="41.0043433" lon="0.4787983"><ele>181.0</ele><time>2026-03-31T09:27:44.161Z</time></trkpt><trkpt lat="41.0042467" lon="0.4787267"><ele>182.25</ele><time>2026-03-31T09:27:45.162Z</time></trkpt><trkpt lat="41.00414" lon="0.47872"><ele>183.5</ele><time>2026-03-31T09:27:46.161Z</time></trkpt><trkpt lat="41.0040317" lon="0.47877"><ele>184.75</ele><time>2026-03-31T09:27:47.161Z</time></trkpt><trkpt lat="41.0039483" lon="0.4788783"><ele>186.0</ele><time>2026-03-31T09:27:48.162Z</time></trkpt><trkpt lat="41.0038917" lon="0.47902"><ele>183.8</ele><time>2026-03-31T09:27:49.162Z</time></trkpt><trkpt lat="41.00385" lon="0.4791633"><ele>181.60000000000002</ele><time>2026-03-31T09:27:50.161Z</time></trkpt><trkpt lat="41.0037983" lon="0.4793233"><ele>179.4</ele><time>2026-03-31T09:27:51.161Z</time></trkpt><trkpt lat="41.00373" lon="0.4794233"><ele>177.2</ele><time>2026-03-31T09:27:52.161Z</time></trkpt><trkpt lat="41.0036617" lon="0.4794783"><ele>175.0</ele><time>2026-03-31T09:27:53.162Z</time></trkpt><trkpt lat="41.0035933" lon="0.4795067"><ele>175.0</ele><time>2026-03-31T09:27:54.162Z</time></trkpt><trkpt lat="41.003515" lon="0.4794933"><ele>175.0</ele><time>2026-03-31T09:27:55.162Z</time></trkpt><trkpt lat="41.0034233" lon="0.47944"><ele>175.0</ele><time>2026-03-31T09:27:56.161Z</time></trkpt><trkpt lat="41.0033333" lon="0.479345"><ele>175.0</ele><time>2026-03-31T09:27:57.161Z</time></trkpt><trkpt lat="41.00326" lon="0.47919"><ele>175.0</ele><time>2026-03-31T09:27:58.161Z</time></trkpt><trkpt lat="41.00318" lon="0.479005"><ele>174.33333333333334</ele><time>2026-03-31T09:27:59.161Z</time></trkpt><trkpt lat="41.0031367" lon="0.478775"><ele>173.66666666666666</ele><time>2026-03-31T09:28:00.161Z</time></trkpt><trkpt lat="41.0030867" lon="0.478545"><ele>173.0</ele><time>2026-03-31T09:28:01.161Z</time></trkpt><trkpt lat="41.0030233" lon="0.4783533"><ele>173.0</ele><time>2026-03-31T09:28:02.162Z</time></trkpt><trkpt lat="41.0029367" lon="0.4781783"><ele>173.0</ele><time>2026-03-31T09:28:03.162Z</time></trkpt><trkpt lat="41.0028217" lon="0.4780417"><ele>173.0</ele><time>2026-03-31T09:28:04.162Z</time></trkpt><trkpt lat="41.00268" lon="0.47796"><ele>174.0</ele><time>2026-03-31T09:28:05.161Z</time></trkpt><trkpt lat="41.0025283" lon="0.4778933"><ele>175.0</ele><time>2026-03-31T09:28:06.161Z</time></trkpt><trkpt lat="41.0023617" lon="0.4778467"><ele>176.0</ele><time>2026-03-31T09:28:07.161Z</time></trkpt><trkpt lat="41.0021767" lon="0.4778133"><ele>176.0</ele><time>2026-03-31T09:28:08.161Z</time></trkpt><trkpt lat="41.0019883" lon="0.4777883"><ele>176.0</ele><time>2026-03-31T09:28:09.161Z</time></trkpt><trkpt lat="41.0018" lon="0.4777583"><ele>176.0</ele><time>2026-03-31T09:28:10.161Z</time></trkpt><trkpt lat="41.001625" lon="0.47777"><ele>172.0</ele><time>2026-03-31T09:28:11.161Z</time></trkpt><trkpt lat="41.0014667" lon="0.477775"><ele>168.0</ele><time>2026-03-31T09:28:12.162Z</time></trkpt><trkpt lat="41.0013017" lon="0.4777617"><ele>164.0</ele><time>2026-03-31T09:28:13.161Z</time></trkpt><trkpt lat="41.0011417" lon="0.47771"><ele>164.0</ele><time>2026-03-31T09:28:14.162Z</time></trkpt><trkpt lat="41.00097" lon="0.4776267"><ele>164.0</ele><time>2026-03-31T09:28:15.161Z</time></trkpt><trkpt lat="41.0008167" lon="0.4775183"><ele>164.0</ele><time>2026-03-31T09:28:16.161Z</time></trkpt><trkpt lat="41.0006683" lon="0.4773917"><ele>161.75</ele><time>2026-03-31T09:28:17.162Z</time></trkpt><trkpt lat="41.000545" lon="0.4773033"><ele>159.5</ele><time>2026-03-31T09:28:18.161Z</time></trkpt><trkpt lat="41.0004167" lon="0.477255"><ele>157.25</ele><time>2026-03-31T09:28:19.162Z</time></trkpt><trkpt lat="41.0002717" lon="0.4772917"><ele>155.0</ele><time>2026-03-31T09:28:20.162Z</time></trkpt><trkpt lat="41.0001567" lon="0.477365"><ele>155.0</ele><time>2026-03-31T09:28:21.162Z</time></trkpt><trkpt lat="41.0000717" lon="0.47747"><ele>155.0</ele><time>2026-03-31T09:28:22.161Z</time></trkpt><trkpt lat="40.9999983" lon="0.477555"><ele>155.0</ele><time>2026-03-31T09:28:23.161Z</time></trkpt><trkpt lat="40.9999233" lon="0.4775983"><ele>155.0</ele><time>2026-03-31T09:28:24.162Z</time></trkpt><trkpt lat="40.99984" lon="0.477585"><ele>155.0</ele><time>2026-03-31T09:28:25.162Z</time></trkpt><trkpt lat="40.9997683" lon="0.4775083"><ele>155.0</ele><time>2026-03-31T09:28:26.161Z</time></trkpt><trkpt lat="40.999705" lon="0.47737"><ele>155.0</ele><time>2026-03-31T09:28:27.161Z</time></trkpt><trkpt lat="40.9996233" lon="0.4771967"><ele>155.0</ele><time>2026-03-31T09:28:28.161Z</time></trkpt><trkpt lat="40.99952" lon="0.4770333"><ele>155.0</ele><time>2026-03-31T09:28:29.162Z</time></trkpt><trkpt lat="40.9993967" lon="0.4768867"><ele>156.0</ele><time>2026-03-31T09:28:30.162Z</time></trkpt><trkpt lat="40.9992533" lon="0.4767783"><ele>157.0</ele><time>2026-03-31T09:28:31.162Z</time></trkpt><trkpt lat="40.9990983" lon="0.476725"><ele>158.0</ele><time>2026-03-31T09:28:32.162Z</time></trkpt><trkpt lat="40.9989283" lon="0.47672"><ele>158.0</ele><time>2026-03-31T09:28:33.162Z</time></trkpt><trkpt lat="40.9987583" lon="0.4767333"><ele>158.0</ele><time>2026-03-31T09:28:34.161Z</time></trkpt><trkpt lat="40.99859" lon="0.47677"><ele>158.0</ele><time>2026-03-31T09:28:35.161Z</time></trkpt><trkpt lat="40.9984333" lon="0.47683"><ele>157.0</ele><time>2026-03-31T09:28:36.161Z</time></trkpt><trkpt lat="40.9982967" lon="0.4769117"><ele>156.0</ele><time>2026-03-31T09:28:37.162Z</time></trkpt><trkpt lat="40.99819" lon="0.4770117"><ele>155.0</ele><time>2026-03-31T09:28:38.161Z</time></trkpt><trkpt lat="40.9981017" lon="0.477105"><ele>154.0</ele><time>2026-03-31T09:28:39.161Z</time></trkpt><trkpt lat="40.9980267" lon="0.4771733"><ele>154.0</ele><time>2026-03-31T09:28:40.162Z</time></trkpt><trkpt lat="40.9979483" lon="0.4772083"><ele>154.0</ele><time>2026-03-31T09:28:41.161Z</time></trkpt><trkpt lat="40.9978767" lon="0.4771717"><ele>154.0</ele><time>2026-03-31T09:28:42.162Z</time></trkpt><trkpt lat="40.9978267" lon="0.4770783"><ele>154.0</ele><time>2026-03-31T09:28:43.161Z</time></trkpt><trkpt lat="40.997805" lon="0.4769233"><ele>154.0</ele><time>2026-03-31T09:28:44.162Z</time></trkpt><trkpt lat="40.9977917" lon="0.476745"><ele>154.0</ele><time>2026-03-31T09:28:45.161Z</time></trkpt><trkpt lat="40.9977833" lon="0.47651"><ele>154.0</ele><time>2026-03-31T09:28:46.162Z</time></trkpt><trkpt lat="40.9977667" lon="0.4762783"><ele>154.0</ele><time>2026-03-31T09:28:47.161Z</time></trkpt><trkpt lat="40.9977367" lon="0.4760383"><ele>157.0</ele><time>2026-03-31T09:28:48.161Z</time></trkpt><trkpt lat="40.9976967" lon="0.4757983"><ele>160.0</ele><time>2026-03-31T09:28:49.161Z</time></trkpt><trkpt lat="40.9976633" lon="0.4755467"><ele>163.0</ele><time>2026-03-31T09:28:50.162Z</time></trkpt><trkpt lat="40.9976483" lon="0.4753067"><ele>163.0</ele><time>2026-03-31T09:28:51.162Z</time></trkpt><trkpt lat="40.997635" lon="0.4750667"><ele>163.0</ele><time>2026-03-31T09:28:52.162Z</time></trkpt><trkpt lat="40.9976233" lon="0.4748383"><ele>163.0</ele><time>2026-03-31T09:28:53.161Z</time></trkpt><trkpt lat="40.9976283" lon="0.474645"><ele>158.75</ele><time>2026-03-31T09:28:54.162Z</time></trkpt><trkpt lat="40.9976567" lon="0.47448"><ele>154.5</ele><time>2026-03-31T09:28:55.161Z</time></trkpt><trkpt lat="40.9977033" lon="0.474345"><ele>150.25</ele><time>2026-03-31T09:28:56.161Z</time></trkpt><trkpt lat="40.997775" lon="0.474245"><ele>146.0</ele><time>2026-03-31T09:28:57.161Z</time></trkpt><trkpt lat="40.9978783" lon="0.4741817"><ele>146.0</ele><time>2026-03-31T09:28:58.161Z</time></trkpt><trkpt lat="40.9980017" lon="0.474125"><ele>146.0</ele><time>2026-03-31T09:28:59.162Z</time></trkpt><trkpt lat="40.9981183" lon="0.47404"><ele>146.0</ele><time>2026-03-31T09:29:00.161Z</time></trkpt><trkpt lat="40.99822" lon="0.4739267"><ele>146.0</ele><time>2026-03-31T09:29:01.162Z</time></trkpt><trkpt lat="40.998315" lon="0.4737833"><ele>146.25</ele><time>2026-03-31T09:29:02.161Z</time></trkpt><trkpt lat="40.9983933" lon="0.4736117"><ele>146.5</ele><time>2026-03-31T09:29:03.161Z</time></trkpt><trkpt lat="40.99844" lon="0.4734417"><ele>146.75</ele><time>2026-03-31T09:29:04.161Z</time></trkpt><trkpt lat="40.9984683" lon="0.4732533"><ele>147.0</ele><time>2026-03-31T09:29:05.162Z</time></trkpt><trkpt lat="40.99849" lon="0.47307"><ele>141.25</ele><time>2026-03-31T09:29:06.161Z</time></trkpt><trkpt lat="40.9985117" lon="0.4728917"><ele>135.5</ele><time>2026-03-31T09:29:07.161Z</time></trkpt><trkpt lat="40.99854" lon="0.4727367"><ele>129.75</ele><time>2026-03-31T09:29:08.162Z</time></trkpt><trkpt lat="40.9985983" lon="0.4726267"><ele>124.0</ele><time>2026-03-31T09:29:09.161Z</time></trkpt><trkpt lat="40.99867" lon="0.4725483"><ele>124.0</ele><time>2026-03-31T09:29:10.161Z</time></trkpt><trkpt lat="40.9987733" lon="0.4725083"><ele>124.0</ele><time>2026-03-31T09:29:11.161Z</time></trkpt><trkpt lat="40.9988917" lon="0.472495"><ele>124.0</ele><time>2026-03-31T09:29:12.161Z</time></trkpt><trkpt lat="40.99903" lon="0.47249"><ele>124.0</ele><time>2026-03-31T09:29:13.161Z</time></trkpt><trkpt lat="40.99917" lon="0.47247"><ele>124.66666666666667</ele><time>2026-03-31T09:29:14.161Z</time></trkpt><trkpt lat="40.9993083" lon="0.4723867"><ele>125.33333333333334</ele><time>2026-03-31T09:29:15.162Z</time></trkpt><trkpt lat="40.9994317" lon="0.47227"><ele>126.0</ele><time>2026-03-31T09:29:16.161Z</time></trkpt><trkpt lat="40.9995383" lon="0.4721167"><ele>126.0</ele><time>2026-03-31T09:29:17.161Z</time></trkpt><trkpt lat="40.9996217" lon="0.4719517"><ele>126.0</ele><time>2026-03-31T09:29:18.161Z</time></trkpt><trkpt lat="40.99969" lon="0.4717883"><ele>126.0</ele><time>2026-03-31T09:29:19.162Z</time></trkpt><trkpt lat="40.99973" lon="0.471615"><ele>126.0</ele><time>2026-03-31T09:29:20.161Z</time></trkpt><trkpt lat="40.99974" lon="0.4714367"><ele>126.75</ele><time>2026-03-31T09:29:21.162Z</time></trkpt><trkpt lat="40.9997117" lon="0.4712533"><ele>127.5</ele><time>2026-03-31T09:29:22.162Z</time></trkpt><trkpt lat="40.9996483" lon="0.47108"><ele>128.25</ele><time>2026-03-31T09:29:23.162Z</time></trkpt><trkpt lat="40.9995667" lon="0.47092"><ele>129.0</ele><time>2026-03-31T09:29:24.162Z</time></trkpt><trkpt lat="40.999465" lon="0.470765"><ele>129.0</ele><time>2026-03-31T09:29:25.161Z</time></trkpt><trkpt lat="40.999355" lon="0.47061"><ele>129.0</ele><time>2026-03-31T09:29:26.162Z</time></trkpt><trkpt lat="40.9992617" lon="0.4704667"><ele>129.0</ele><time>2026-03-31T09:29:27.161Z</time></trkpt><trkpt lat="40.9991733" lon="0.4703367"><ele>129.0</ele><time>2026-03-31T09:29:28.161Z</time></trkpt><trkpt lat="40.9990867" lon="0.47021"><ele>126.25</ele><time>2026-03-31T09:29:29.161Z</time></trkpt><trkpt lat="40.9990133" lon="0.4700783"><ele>123.5</ele><time>2026-03-31T09:29:30.161Z</time></trkpt><trkpt lat="40.99896" lon="0.46994"><ele>120.75</ele><time>2026-03-31T09:29:31.162Z</time></trkpt><trkpt lat="40.9989317" lon="0.469785"><ele>118.0</ele><time>2026-03-31T09:29:32.161Z</time></trkpt><trkpt lat="40.998925" lon="0.4696333"><ele>120.5</ele><time>2026-03-31T09:29:33.161Z</time></trkpt><trkpt lat="40.998915" lon="0.469475"><ele>123.0</ele><time>2026-03-31T09:29:34.161Z</time></trkpt><trkpt lat="40.998875" lon="0.4693183"><ele>125.5</ele><time>2026-03-31T09:29:35.162Z</time></trkpt><trkpt lat="40.9987917" lon="0.469175"><ele>128.0</ele><time>2026-03-31T09:29:36.161Z</time></trkpt><trkpt lat="40.9986683" lon="0.4690817"><ele>128.0</ele><time>2026-03-31T09:29:37.161Z</time></trkpt><trkpt lat="40.9985383" lon="0.4689983"><ele>128.0</ele><time>2026-03-31T09:29:38.162Z</time></trkpt><trkpt lat="40.9983917" lon="0.4689183"><ele>128.0</ele><time>2026-03-31T09:29:39.162Z</time></trkpt><trkpt lat="40.99825" lon="0.4688217"><ele>125.66666666666666</ele><time>2026-03-31T09:29:40.161Z</time></trkpt><trkpt lat="40.9981133" lon="0.4687067"><ele>123.33333333333334</ele><time>2026-03-31T09:29:41.162Z</time></trkpt><trkpt lat="40.9979683" lon="0.468575"><ele>121.0</ele><time>2026-03-31T09:29:42.161Z</time></trkpt><trkpt lat="40.99783" lon="0.4684217"><ele>121.0</ele><time>2026-03-31T09:29:43.161Z</time></trkpt><trkpt lat="40.99769" lon="0.468255"><ele>121.0</ele><time>2026-03-31T09:29:44.162Z</time></trkpt><trkpt lat="40.9975383" lon="0.46808"><ele>121.0</ele><time>2026-03-31T09:29:45.162Z</time></trkpt><trkpt lat="40.99739" lon="0.467915"><ele>116.66666666666667</ele><time>2026-03-31T09:29:46.162Z</time></trkpt><trkpt lat="40.99726" lon="0.4677583"><ele>112.33333333333334</ele><time>2026-03-31T09:29:47.161Z</time></trkpt><trkpt lat="40.9971367" lon="0.467605"><ele>108.0</ele><time>2026-03-31T09:29:48.161Z</time></trkpt><trkpt lat="40.9970183" lon="0.4674617"><ele>108.0</ele><time>2026-03-31T09:29:49.161Z</time></trkpt><trkpt lat="40.9969217" lon="0.4672883"><ele>108.0</ele><time>2026-03-31T09:29:50.162Z</time></trkpt><trkpt lat="40.9968267" lon="0.46712"><ele>108.0</ele><time>2026-03-31T09:29:51.161Z</time></trkpt><trkpt lat="40.99672" lon="0.4669783"><ele>103.5</ele><time>2026-03-31T09:29:52.162Z</time></trkpt><trkpt lat="40.9966" lon="0.4668567"><ele>99.0</ele><time>2026-03-31T09:29:53.161Z</time></trkpt><trkpt lat="40.99647" lon="0.46676"><ele>94.5</ele><time>2026-03-31T09:29:54.161Z</time></trkpt><trkpt lat="40.99634" lon="0.4666717"><ele>90.0</ele><time>2026-03-31T09:29:55.162Z</time></trkpt><trkpt lat="40.99622" lon="0.4665783"><ele>90.0</ele><time>2026-03-31T09:29:56.162Z</time></trkpt><trkpt lat="40.9961283" lon="0.466505"><ele>90.0</ele><time>2026-03-31T09:29:57.161Z</time></trkpt><trkpt lat="40.9960467" lon="0.4664583"><ele>90.0</ele><time>2026-03-31T09:29:58.162Z</time></trkpt><trkpt lat="40.99596" lon="0.4664983"><ele>90.0</ele><time>2026-03-31T09:29:59.162Z</time></trkpt><trkpt lat="40.995875" lon="0.466595"><ele>90.0</ele><time>2026-03-31T09:30:00.161Z</time></trkpt><trkpt lat="40.9957883" lon="0.466685"><ele>91.5</ele><time>2026-03-31T09:30:01.161Z</time></trkpt><trkpt lat="40.995695" lon="0.4667167"><ele>93.0</ele><time>2026-03-31T09:30:02.161Z</time></trkpt><trkpt lat="40.9955833" lon="0.4667033"><ele>94.5</ele><time>2026-03-31T09:30:03.162Z</time></trkpt><trkpt lat="40.9954783" lon="0.466635"><ele>96.0</ele><time>2026-03-31T09:30:04.161Z</time></trkpt><trkpt lat="40.99538" lon="0.4665117"><ele>96.0</ele><time>2026-03-31T09:30:05.162Z</time></trkpt><trkpt lat="40.9952783" lon="0.46638"><ele>96.0</ele><time>2026-03-31T09:30:06.161Z</time></trkpt><trkpt lat="40.995165" lon="0.466235"><ele>96.0</ele><time>2026-03-31T09:30:07.161Z</time></trkpt><trkpt lat="40.995045" lon="0.466085"><ele>100.33333333333334</ele><time>2026-03-31T09:30:08.161Z</time></trkpt><trkpt lat="40.99493" lon="0.4659383"><ele>104.66666666666667</ele><time>2026-03-31T09:30:09.161Z</time></trkpt><trkpt lat="40.9948067" lon="0.4657817"><ele>109.0</ele><time>2026-03-31T09:30:10.162Z</time></trkpt><trkpt lat="40.9946917" lon="0.4656333"><ele>109.0</ele><time>2026-03-31T09:30:11.161Z</time></trkpt><trkpt lat="40.9945717" lon="0.4654833"><ele>109.0</ele><time>2026-03-31T09:30:12.161Z</time></trkpt><trkpt lat="40.9944467" lon="0.4653283"><ele>109.0</ele><time>2026-03-31T09:30:13.161Z</time></trkpt><trkpt lat="40.9943017" lon="0.465165"><ele>111.33333333333334</ele><time>2026-03-31T09:30:14.161Z</time></trkpt><trkpt lat="40.9941467" lon="0.4650083"><ele>113.66666666666666</ele><time>2026-03-31T09:30:15.162Z</time></trkpt><trkpt lat="40.993995" lon="0.46486"><ele>116.0</ele><time>2026-03-31T09:30:16.162Z</time></trkpt><trkpt lat="40.9938433" lon="0.4647067"><ele>121.66666666666666</ele><time>2026-03-31T09:30:17.162Z</time></trkpt><trkpt lat="40.9936867" lon="0.464545"><ele>127.33333333333334</ele><time>2026-03-31T09:30:18.161Z</time></trkpt><trkpt lat="40.9935283" lon="0.464395"><ele>133.0</ele><time>2026-03-31T09:30:19.161Z</time></trkpt><trkpt lat="40.9933683" lon="0.4642483"><ele>128.66666666666669</ele><time>2026-03-31T09:30:20.162Z</time></trkpt><trkpt lat="40.9932033" lon="0.4641183"><ele>124.33333333333334</ele><time>2026-03-31T09:30:21.162Z</time></trkpt><trkpt lat="40.9930417" lon="0.4640033"><ele>120.0</ele><time>2026-03-31T09:30:22.161Z</time></trkpt><trkpt lat="40.9928833" lon="0.4638917"><ele>119.66666666666666</ele><time>2026-03-31T09:30:23.161Z</time></trkpt><trkpt lat="40.9927317" lon="0.463775"><ele>119.33333333333333</ele><time>2026-03-31T09:30:24.161Z</time></trkpt><trkpt lat="40.9925967" lon="0.4636567"><ele>119.0</ele><time>2026-03-31T09:30:25.161Z</time></trkpt><trkpt lat="40.992475" lon="0.463495"><ele>119.0</ele><time>2026-03-31T09:30:26.161Z</time></trkpt><trkpt lat="40.9923717" lon="0.4633033"><ele>119.0</ele><time>2026-03-31T09:30:27.161Z</time></trkpt><trkpt lat="40.992285" lon="0.46308"><ele>119.0</ele><time>2026-03-31T09:30:28.161Z</time></trkpt><trkpt lat="40.992205" lon="0.46285"><ele>123.0</ele><time>2026-03-31T09:30:29.161Z</time></trkpt><trkpt lat="40.992135" lon="0.4626233"><ele>127.0</ele><time>2026-03-31T09:30:30.161Z</time></trkpt><trkpt lat="40.9920817" lon="0.4623767"><ele>131.0</ele><time>2026-03-31T09:30:31.161Z</time></trkpt><trkpt lat="40.9920633" lon="0.46214"><ele>135.33333333333331</ele><time>2026-03-31T09:30:32.161Z</time></trkpt><trkpt lat="40.992045" lon="0.461895"><ele>139.66666666666666</ele><time>2026-03-31T09:30:33.161Z</time></trkpt><trkpt lat="40.9919917" lon="0.4616667"><ele>144.0</ele><time>2026-03-31T09:30:34.162Z</time></trkpt><trkpt lat="40.9919233" lon="0.4614583"><ele>140.66666666666666</ele><time>2026-03-31T09:30:35.162Z</time></trkpt><trkpt lat="40.9918433" lon="0.46127"><ele>137.33333333333331</ele><time>2026-03-31T09:30:36.161Z</time></trkpt><trkpt lat="40.991775" lon="0.4610883"><ele>134.0</ele><time>2026-03-31T09:30:37.161Z</time></trkpt><trkpt lat="40.9917333" lon="0.4608917"><ele>134.0</ele><time>2026-03-31T09:30:38.161Z</time></trkpt><trkpt lat="40.991685" lon="0.460715"><ele>134.0</ele><time>2026-03-31T09:30:39.161Z</time></trkpt><trkpt lat="40.9916083" lon="0.46055"><ele>134.0</ele><time>2026-03-31T09:30:40.161Z</time></trkpt><trkpt lat="40.99151" lon="0.4604067"><ele>134.0</ele><time>2026-03-31T09:30:41.161Z</time></trkpt><trkpt lat="40.9913983" lon="0.4603117"><ele>132.5</ele><time>2026-03-31T09:30:42.161Z</time></trkpt><trkpt lat="40.9912733" lon="0.4602617"><ele>131.0</ele><time>2026-03-31T09:30:43.161Z</time></trkpt><trkpt lat="40.99115" lon="0.4602233"><ele>129.5</ele><time>2026-03-31T09:30:44.161Z</time></trkpt><trkpt lat="40.991015" lon="0.460175"><ele>128.0</ele><time>2026-03-31T09:30:45.161Z</time></trkpt><trkpt lat="40.9908933" lon="0.4600867"><ele>130.33333333333331</ele><time>2026-03-31T09:30:46.162Z</time></trkpt><trkpt lat="40.9907583" lon="0.4599733"><ele>132.66666666666666</ele><time>2026-03-31T09:30:47.161Z</time></trkpt><trkpt lat="40.9906183" lon="0.4598417"><ele>135.0</ele><time>2026-03-31T09:30:48.161Z</time></trkpt><trkpt lat="40.990475" lon="0.45972"><ele>137.33333333333334</ele><time>2026-03-31T09:30:49.162Z</time></trkpt><trkpt lat="40.9903283" lon="0.4596033"><ele>139.66666666666669</ele><time>2026-03-31T09:30:50.162Z</time></trkpt><trkpt lat="40.9901883" lon="0.45948"><ele>142.0</ele><time>2026-03-31T09:30:51.162Z</time></trkpt><trkpt lat="40.99005" lon="0.4593217"><ele>140.66666666666669</ele><time>2026-03-31T09:30:52.162Z</time></trkpt><trkpt lat="40.9899217" lon="0.4591433"><ele>139.33333333333334</ele><time>2026-03-31T09:30:53.161Z</time></trkpt><trkpt lat="40.98981" lon="0.4589467"><ele>138.0</ele><time>2026-03-31T09:30:54.161Z</time></trkpt><trkpt lat="40.9896833" lon="0.45874"><ele>141.66666666666666</ele><time>2026-03-31T09:30:55.161Z</time></trkpt><trkpt lat="40.9895567" lon="0.45853"><ele>145.33333333333331</ele><time>2026-03-31T09:30:56.161Z</time></trkpt><trkpt lat="40.989435" lon="0.4583317"><ele>149.0</ele><time>2026-03-31T09:30:57.161Z</time></trkpt><trkpt lat="40.9893083" lon="0.4581317"><ele>149.33333333333331</ele><time>2026-03-31T09:30:58.162Z</time></trkpt><trkpt lat="40.98917" lon="0.4579283"><ele>149.66666666666666</ele><time>2026-03-31T09:30:59.162Z</time></trkpt><trkpt lat="40.9890367" lon="0.45772"><ele>150.0</ele><time>2026-03-31T09:31:00.161Z</time></trkpt><trkpt lat="40.988905" lon="0.4575067"><ele>150.0</ele><time>2026-03-31T09:31:01.162Z</time></trkpt><trkpt lat="40.9887833" lon="0.4572967"><ele>150.0</ele><time>2026-03-31T09:31:02.162Z</time></trkpt><trkpt lat="40.98865" lon="0.4570833"><ele>150.0</ele><time>2026-03-31T09:31:03.161Z</time></trkpt><trkpt lat="40.988525" lon="0.4568683"><ele>149.66666666666666</ele><time>2026-03-31T09:31:04.161Z</time></trkpt><trkpt lat="40.9883933" lon="0.456655"><ele>149.33333333333331</ele><time>2026-03-31T09:31:05.162Z</time></trkpt><trkpt lat="40.9882667" lon="0.456445"><ele>149.0</ele><time>2026-03-31T09:31:06.162Z</time></trkpt><trkpt lat="40.9881367" lon="0.4562333"><ele>153.0</ele><time>2026-03-31T09:31:07.162Z</time></trkpt><trkpt lat="40.9880133" lon="0.4560283"><ele>157.0</ele><time>2026-03-31T09:31:08.162Z</time></trkpt><trkpt lat="40.9878967" lon="0.45582"><ele>161.0</ele><time>2026-03-31T09:31:09.161Z</time></trkpt><trkpt lat="40.9877767" lon="0.4556067"><ele>161.66666666666666</ele><time>2026-03-31T09:31:10.162Z</time></trkpt><trkpt lat="40.98765" lon="0.4554067"><ele>162.33333333333334</ele><time>2026-03-31T09:31:11.161Z</time></trkpt><trkpt lat="40.9875267" lon="0.455205"><ele>163.0</ele><time>2026-03-31T09:31:12.162Z</time></trkpt><trkpt lat="40.987405" lon="0.45502"><ele>161.33333333333334</ele><time>2026-03-31T09:31:13.161Z</time></trkpt><trkpt lat="40.987295" lon="0.4548517"><ele>159.66666666666666</ele><time>2026-03-31T09:31:14.162Z</time></trkpt><trkpt lat="40.9871883" lon="0.4547067"><ele>158.0</ele><time>2026-03-31T09:31:15.161Z</time></trkpt><trkpt lat="40.9870883" lon="0.454595"><ele>159.0</ele><time>2026-03-31T09:31:16.161Z</time></trkpt><trkpt lat="40.986975" lon="0.45453"><ele>160.0</ele><time>2026-03-31T09:31:17.162Z</time></trkpt><trkpt lat="40.9868567" lon="0.4544983"><ele>161.0</ele><time>2026-03-31T09:31:18.161Z</time></trkpt><trkpt lat="40.986725" lon="0.4545167"><ele>162.0</ele><time>2026-03-31T09:31:19.162Z</time></trkpt><trkpt lat="40.9865933" lon="0.4545717"><ele>162.0</ele><time>2026-03-31T09:31:20.161Z</time></trkpt><trkpt lat="40.9864667" lon="0.454615"><ele>162.0</ele><time>2026-03-31T09:31:21.162Z</time></trkpt><trkpt lat="40.9863517" lon="0.4546267"><ele>162.0</ele><time>2026-03-31T09:31:22.161Z</time></trkpt><trkpt lat="40.9862383" lon="0.45454"><ele>162.0</ele><time>2026-03-31T09:31:23.161Z</time></trkpt><trkpt lat="40.9861333" lon="0.4544133"><ele>162.0</ele><time>2026-03-31T09:31:24.162Z</time></trkpt><trkpt lat="40.986035" lon="0.454265"><ele>162.0</ele><time>2026-03-31T09:31:25.161Z</time></trkpt><trkpt lat="40.9859383" lon="0.4541167"><ele>162.0</ele><time>2026-03-31T09:31:26.161Z</time></trkpt><trkpt lat="40.985855" lon="0.4539567"><ele>162.0</ele><time>2026-03-31T09:31:27.162Z</time></trkpt><trkpt lat="40.9857683" lon="0.4537833"><ele>159.0</ele><time>2026-03-31T09:31:28.161Z</time></trkpt><trkpt lat="40.9856833" lon="0.4536083"><ele>156.0</ele><time>2026-03-31T09:31:29.162Z</time></trkpt><trkpt lat="40.9855867" lon="0.4534333"><ele>153.0</ele><time>2026-03-31T09:31:30.161Z</time></trkpt><trkpt lat="40.9854867" lon="0.4532733"><ele>153.0</ele><time>2026-03-31T09:31:31.162Z</time></trkpt><trkpt lat="40.9853767" lon="0.4531183"><ele>153.0</ele><time>2026-03-31T09:31:32.161Z</time></trkpt><trkpt lat="40.9852683" lon="0.452975"><ele>153.0</ele><time>2026-03-31T09:31:33.162Z</time></trkpt><trkpt lat="40.9851517" lon="0.4528233"><ele>154.66666666666666</ele><time>2026-03-31T09:31:34.161Z</time></trkpt><trkpt lat="40.9850267" lon="0.4526817"><ele>156.33333333333331</ele><time>2026-03-31T09:31:35.161Z</time></trkpt><trkpt lat="40.9848767" lon="0.4525767"><ele>158.0</ele><time>2026-03-31T09:31:36.161Z</time></trkpt><trkpt lat="40.9847167" lon="0.452515"><ele>158.66666666666666</ele><time>2026-03-31T09:31:37.162Z</time></trkpt><trkpt lat="40.9845467" lon="0.4524883"><ele>159.33333333333334</ele><time>2026-03-31T09:31:38.161Z</time></trkpt><trkpt lat="40.9843767" lon="0.4524617"><ele>160.0</ele><time>2026-03-31T09:31:39.162Z</time></trkpt><trkpt lat="40.9842167" lon="0.4524217"><ele>160.33333333333334</ele><time>2026-03-31T09:31:40.162Z</time></trkpt><trkpt lat="40.9840633" lon="0.4523583"><ele>160.66666666666666</ele><time>2026-03-31T09:31:41.162Z</time></trkpt><trkpt lat="40.98392" lon="0.4522717"><ele>161.0</ele><time>2026-03-31T09:31:42.162Z</time></trkpt><trkpt lat="40.9837817" lon="0.4521383"><ele>166.0</ele><time>2026-03-31T09:31:43.161Z</time></trkpt><trkpt lat="40.983645" lon="0.4519783"><ele>171.0</ele><time>2026-03-31T09:31:44.161Z</time></trkpt><trkpt lat="40.9835017" lon="0.4518117"><ele>176.0</ele><time>2026-03-31T09:31:45.161Z</time></trkpt><trkpt lat="40.98337" lon="0.4516517"><ele>175.0</ele><time>2026-03-31T09:31:46.161Z</time></trkpt><trkpt lat="40.983235" lon="0.4514883"><ele>174.0</ele><time>2026-03-31T09:31:47.161Z</time></trkpt><trkpt lat="40.9831167" lon="0.451315"><ele>173.0</ele><time>2026-03-31T09:31:48.162Z</time></trkpt><trkpt lat="40.9830117" lon="0.4511317"><ele>173.0</ele><time>2026-03-31T09:31:49.162Z</time></trkpt><trkpt lat="40.9829483" lon="0.4509533"><ele>173.0</ele><time>2026-03-31T09:31:50.161Z</time></trkpt><trkpt lat="40.9829117" lon="0.45075"><ele>173.0</ele><time>2026-03-31T09:31:51.162Z</time></trkpt><trkpt lat="40.9829083" lon="0.4505617"><ele>173.0</ele><time>2026-03-31T09:31:52.162Z</time></trkpt><trkpt lat="40.9829333" lon="0.450385"><ele>174.5</ele><time>2026-03-31T09:31:53.162Z</time></trkpt><trkpt lat="40.9829883" lon="0.4502133"><ele>176.0</ele><time>2026-03-31T09:31:54.161Z</time></trkpt><trkpt lat="40.9830717" lon="0.4500617"><ele>177.5</ele><time>2026-03-31T09:31:55.161Z</time></trkpt><trkpt lat="40.98317" lon="0.4499333"><ele>179.0</ele><time>2026-03-31T09:31:56.161Z</time></trkpt><trkpt lat="40.98324" lon="0.4497867"><ele>179.0</ele><time>2026-03-31T09:31:57.161Z</time></trkpt><trkpt lat="40.98328" lon="0.4496317"><ele>179.0</ele><time>2026-03-31T09:31:58.162Z</time></trkpt><trkpt lat="40.9832667" lon="0.4494683"><ele>179.0</ele><time>2026-03-31T09:31:59.161Z</time></trkpt><trkpt lat="40.9832167" lon="0.44931"><ele>179.0</ele><time>2026-03-31T09:32:00.161Z</time></trkpt><trkpt lat="40.9831433" lon="0.4491483"><ele>180.75</ele><time>2026-03-31T09:32:01.162Z</time></trkpt><trkpt lat="40.98306" lon="0.449005"><ele>182.5</ele><time>2026-03-31T09:32:02.161Z</time></trkpt><trkpt lat="40.98298" lon="0.4488617"><ele>184.25</ele><time>2026-03-31T09:32:03.161Z</time></trkpt><trkpt lat="40.9828967" lon="0.4487267"><ele>186.0</ele><time>2026-03-31T09:32:04.162Z</time></trkpt><trkpt lat="40.982815" lon="0.44864"><ele>187.0</ele><time>2026-03-31T09:32:05.162Z</time></trkpt><trkpt lat="40.9827183" lon="0.448605"><ele>188.0</ele><time>2026-03-31T09:32:06.161Z</time></trkpt><trkpt lat="40.98261" lon="0.4486417"><ele>189.0</ele><time>2026-03-31T09:32:07.162Z</time></trkpt><trkpt lat="40.9825083" lon="0.448755"><ele>190.0</ele><time>2026-03-31T09:32:08.161Z</time></trkpt><trkpt lat="40.9824283" lon="0.4489317"><ele>184.33333333333334</ele><time>2026-03-31T09:32:09.162Z</time></trkpt><trkpt lat="40.98235" lon="0.4491167"><ele>178.66666666666666</ele><time>2026-03-31T09:32:10.162Z</time></trkpt><trkpt lat="40.9822717" lon="0.449315"><ele>173.0</ele><time>2026-03-31T09:32:11.162Z</time></trkpt><trkpt lat="40.98218" lon="0.4494883"><ele>171.0</ele><time>2026-03-31T09:32:12.162Z</time></trkpt><trkpt lat="40.9820917" lon="0.44966"><ele>169.0</ele><time>2026-03-31T09:32:13.161Z</time></trkpt><trkpt lat="40.9819917" lon="0.449785"><ele>167.0</ele><time>2026-03-31T09:32:14.161Z</time></trkpt><trkpt lat="40.98187" lon="0.4498783"><ele>165.0</ele><time>2026-03-31T09:32:15.162Z</time></trkpt><trkpt lat="40.9817133" lon="0.4499017"><ele>169.33333333333334</ele><time>2026-03-31T09:32:16.161Z</time></trkpt><trkpt lat="40.981555" lon="0.4498667"><ele>173.66666666666669</ele><time>2026-03-31T09:32:17.161Z</time></trkpt><trkpt lat="40.981405" lon="0.4498"><ele>178.0</ele><time>2026-03-31T09:32:18.161Z</time></trkpt><trkpt lat="40.9812483" lon="0.449725"><ele>178.0</ele><time>2026-03-31T09:32:19.161Z</time></trkpt><trkpt lat="40.9811033" lon="0.4496417"><ele>178.0</ele><time>2026-03-31T09:32:20.161Z</time></trkpt><trkpt lat="40.9809533" lon="0.449555"><ele>178.0</ele><time>2026-03-31T09:32:21.162Z</time></trkpt><trkpt lat="40.980805" lon="0.4494417"><ele>181.66666666666669</ele><time>2026-03-31T09:32:22.161Z</time></trkpt><trkpt lat="40.9806533" lon="0.449305"><ele>185.33333333333334</ele><time>2026-03-31T09:32:23.161Z</time></trkpt><trkpt lat="40.9805017" lon="0.44916"><ele>189.0</ele><time>2026-03-31T09:32:24.161Z</time></trkpt><trkpt lat="40.9803533" lon="0.449015"><ele>189.0</ele><time>2026-03-31T09:32:25.162Z</time></trkpt><trkpt lat="40.9801983" lon="0.44887"><ele>189.0</ele><time>2026-03-31T09:32:26.161Z</time></trkpt><trkpt lat="40.9800517" lon="0.4487233"><ele>189.0</ele><time>2026-03-31T09:32:27.161Z</time></trkpt><trkpt lat="40.9799033" lon="0.4485883"><ele>191.66666666666669</ele><time>2026-03-31T09:32:28.161Z</time></trkpt><trkpt lat="40.9797733" lon="0.44847"><ele>194.33333333333334</ele><time>2026-03-31T09:32:29.162Z</time></trkpt><trkpt lat="40.979655" lon="0.4483217"><ele>197.0</ele><time>2026-03-31T09:32:30.162Z</time></trkpt><trkpt lat="40.9795583" lon="0.448135"><ele>199.66666666666669</ele><time>2026-03-31T09:32:31.161Z</time></trkpt><trkpt lat="40.9794767" lon="0.44792"><ele>202.33333333333331</ele><time>2026-03-31T09:32:32.162Z</time></trkpt><trkpt lat="40.979395" lon="0.4476917"><ele>205.0</ele><time>2026-03-31T09:32:33.161Z</time></trkpt><trkpt lat="40.9793167" lon="0.4474717"><ele>205.0</ele><time>2026-03-31T09:32:34.161Z</time></trkpt><trkpt lat="40.9792283" lon="0.4472467"><ele>205.0</ele><time>2026-03-31T09:32:35.161Z</time></trkpt><trkpt lat="40.97914" lon="0.4470383"><ele>205.0</ele><time>2026-03-31T09:32:36.161Z</time></trkpt><trkpt lat="40.97905" lon="0.44685"><ele>204.0</ele><time>2026-03-31T09:32:37.161Z</time></trkpt><trkpt lat="40.978955" lon="0.4466983"><ele>203.0</ele><time>2026-03-31T09:32:38.161Z</time></trkpt><trkpt lat="40.97885" lon="0.4465883"><ele>202.0</ele><time>2026-03-31T09:32:39.162Z</time></trkpt><trkpt lat="40.9787183" lon="0.4465167"><ele>201.0</ele><time>2026-03-31T09:32:40.162Z</time></trkpt><trkpt lat="40.978585" lon="0.446495"><ele>201.0</ele><time>2026-03-31T09:32:41.162Z</time></trkpt><trkpt lat="40.9784533" lon="0.446505"><ele>201.0</ele><time>2026-03-31T09:32:42.162Z</time></trkpt><trkpt lat="40.9783167" lon="0.4465367"><ele>201.0</ele><time>2026-03-31T09:32:43.161Z</time></trkpt><trkpt lat="40.978185" lon="0.4466167"><ele>201.0</ele><time>2026-03-31T09:32:44.162Z</time></trkpt><trkpt lat="40.9780617" lon="0.446745"><ele>202.0</ele><time>2026-03-31T09:32:45.162Z</time></trkpt><trkpt lat="40.97795" lon="0.4468783"><ele>203.0</ele><time>2026-03-31T09:32:46.161Z</time></trkpt><trkpt lat="40.9778567" lon="0.447055"><ele>204.0</ele><time>2026-03-31T09:32:47.161Z</time></trkpt><trkpt lat="40.97778" lon="0.4472233"><ele>205.0</ele><time>2026-03-31T09:32:48.161Z</time></trkpt><trkpt lat="40.9777033" lon="0.44737"><ele>206.0</ele><time>2026-03-31T09:32:49.162Z</time></trkpt><trkpt lat="40.9776117" lon="0.447495"><ele>207.0</ele><time>2026-03-31T09:32:50.162Z</time></trkpt><trkpt lat="40.9774967" lon="0.4475983"><ele>208.0</ele><time>2026-03-31T09:32:51.161Z</time></trkpt><trkpt lat="40.9773583" lon="0.4476217"><ele>208.0</ele><time>2026-03-31T09:32:52.161Z</time></trkpt><trkpt lat="40.9772133" lon="0.44759"><ele>208.0</ele><time>2026-03-31T09:32:53.161Z</time></trkpt><trkpt lat="40.9770767" lon="0.44751"><ele>208.0</ele><time>2026-03-31T09:32:54.162Z</time></trkpt><trkpt lat="40.976945" lon="0.4473983"><ele>208.0</ele><time>2026-03-31T09:32:55.162Z</time></trkpt><trkpt lat="40.9768167" lon="0.44726"><ele>208.0</ele><time>2026-03-31T09:32:56.162Z</time></trkpt><trkpt lat="40.9766933" lon="0.4471083"><ele>208.0</ele><time>2026-03-31T09:32:57.162Z</time></trkpt><trkpt lat="40.976575" lon="0.4469467"><ele>213.66666666666666</ele><time>2026-03-31T09:32:58.161Z</time></trkpt><trkpt lat="40.9764717" lon="0.446775"><ele>219.33333333333331</ele><time>2026-03-31T09:32:59.161Z</time></trkpt><trkpt lat="40.976395" lon="0.446605"><ele>225.0</ele><time>2026-03-31T09:33:00.161Z</time></trkpt><trkpt lat="40.9763183" lon="0.4464567"><ele>225.0</ele><time>2026-03-31T09:33:01.162Z</time></trkpt><trkpt lat="40.9762333" lon="0.4463217"><ele>225.0</ele><time>2026-03-31T09:33:02.162Z</time></trkpt><trkpt lat="40.976135" lon="0.4462333"><ele>225.0</ele><time>2026-03-31T09:33:03.162Z</time></trkpt><trkpt lat="40.97602" lon="0.44619"><ele>225.0</ele><time>2026-03-31T09:33:04.161Z</time></trkpt><trkpt lat="40.9758967" lon="0.44625"><ele>224.25</ele><time>2026-03-31T09:33:05.161Z</time></trkpt><trkpt lat="40.97579" lon="0.44635"><ele>223.5</ele><time>2026-03-31T09:33:06.161Z</time></trkpt><trkpt lat="40.97568" lon="0.4464383"><ele>222.75</ele><time>2026-03-31T09:33:07.161Z</time></trkpt><trkpt lat="40.9755633" lon="0.44648"><ele>222.0</ele><time>2026-03-31T09:33:08.162Z</time></trkpt><trkpt lat="40.97544" lon="0.4464633"><ele>222.0</ele><time>2026-03-31T09:33:09.161Z</time></trkpt><trkpt lat="40.9753233" lon="0.4464117"><ele>222.0</ele><time>2026-03-31T09:33:10.162Z</time></trkpt><trkpt lat="40.9752" lon="0.4463383"><ele>222.0</ele><time>2026-03-31T09:33:11.162Z</time></trkpt><trkpt lat="40.97507" lon="0.4462567"><ele>222.0</ele><time>2026-03-31T09:33:12.161Z</time></trkpt><trkpt lat="40.97494" lon="0.44617"><ele>225.75</ele><time>2026-03-31T09:33:13.161Z</time></trkpt><trkpt lat="40.9748167" lon="0.44609"><ele>229.5</ele><time>2026-03-31T09:33:14.161Z</time></trkpt><trkpt lat="40.9746817" lon="0.446015"><ele>233.25</ele><time>2026-03-31T09:33:15.161Z</time></trkpt><trkpt lat="40.9745433" lon="0.44595"><ele>237.0</ele><time>2026-03-31T09:33:16.161Z</time></trkpt><trkpt lat="40.9744067" lon="0.4458917"><ele>237.0</ele><time>2026-03-31T09:33:17.161Z</time></trkpt><trkpt lat="40.9742667" lon="0.4458383"><ele>237.0</ele><time>2026-03-31T09:33:18.161Z</time></trkpt><trkpt lat="40.974125" lon="0.4457817"><ele>237.0</ele><time>2026-03-31T09:33:19.161Z</time></trkpt><trkpt lat="40.9739917" lon="0.4457317"><ele>237.0</ele><time>2026-03-31T09:33:20.161Z</time></trkpt><trkpt lat="40.973865" lon="0.445685"><ele>235.5</ele><time>2026-03-31T09:33:21.161Z</time></trkpt><trkpt lat="40.973755" lon="0.4456133"><ele>234.0</ele><time>2026-03-31T09:33:22.162Z</time></trkpt><trkpt lat="40.9736683" lon="0.44552"><ele>232.5</ele><time>2026-03-31T09:33:23.161Z</time></trkpt><trkpt lat="40.973605" lon="0.44539"><ele>231.0</ele><time>2026-03-31T09:33:24.162Z</time></trkpt><trkpt lat="40.9735533" lon="0.4452383"><ele>231.0</ele><time>2026-03-31T09:33:25.161Z</time></trkpt><trkpt lat="40.9735067" lon="0.445065"><ele>231.0</ele><time>2026-03-31T09:33:26.162Z</time></trkpt><trkpt lat="40.9734517" lon="0.4449033"><ele>231.0</ele><time>2026-03-31T09:33:27.161Z</time></trkpt><trkpt lat="40.9733717" lon="0.4447383"><ele>231.0</ele><time>2026-03-31T09:33:28.161Z</time></trkpt><trkpt lat="40.973265" lon="0.4445767"><ele>230.0</ele><time>2026-03-31T09:33:29.161Z</time></trkpt><trkpt lat="40.973145" lon="0.4444317"><ele>229.0</ele><time>2026-03-31T09:33:30.161Z</time></trkpt><trkpt lat="40.9730067" lon="0.4443083"><ele>228.0</ele><time>2026-03-31T09:33:31.161Z</time></trkpt><trkpt lat="40.9728683" lon="0.4441917"><ele>228.0</ele><time>2026-03-31T09:33:32.162Z</time></trkpt><trkpt lat="40.9727317" lon="0.4440617"><ele>228.0</ele><time>2026-03-31T09:33:33.162Z</time></trkpt><trkpt lat="40.9725917" lon="0.44393"><ele>228.0</ele><time>2026-03-31T09:33:34.161Z</time></trkpt><trkpt lat="40.9724667" lon="0.443775"><ele>225.66666666666669</ele><time>2026-03-31T09:33:35.161Z</time></trkpt><trkpt lat="40.9723533" lon="0.4436017"><ele>223.33333333333334</ele><time>2026-03-31T09:33:36.162Z</time></trkpt><trkpt lat="40.9722533" lon="0.443405"><ele>221.0</ele><time>2026-03-31T09:33:37.161Z</time></trkpt><trkpt lat="40.9721633" lon="0.4431983"><ele>226.33333333333334</ele><time>2026-03-31T09:33:38.161Z</time></trkpt><trkpt lat="40.9720817" lon="0.4429583"><ele>231.66666666666669</ele><time>2026-03-31T09:33:39.162Z</time></trkpt><trkpt lat="40.9720367" lon="0.4427117"><ele>237.0</ele><time>2026-03-31T09:33:40.162Z</time></trkpt><trkpt lat="40.97201" lon="0.44246"><ele>237.0</ele><time>2026-03-31T09:33:41.162Z</time></trkpt><trkpt lat="40.972" lon="0.442195"><ele>237.0</ele><time>2026-03-31T09:33:42.161Z</time></trkpt><trkpt lat="40.9720083" lon="0.44194"><ele>237.0</ele><time>2026-03-31T09:33:43.162Z</time></trkpt><trkpt lat="40.97203" lon="0.4416933"><ele>237.0</ele><time>2026-03-31T09:33:44.162Z</time></trkpt><trkpt lat="40.972055" lon="0.4414517"><ele>237.0</ele><time>2026-03-31T09:33:45.162Z</time></trkpt><trkpt lat="40.9720717" lon="0.4412083"><ele>237.0</ele><time>2026-03-31T09:33:46.162Z</time></trkpt><trkpt lat="40.97207" lon="0.440955"><ele>240.66666666666669</ele><time>2026-03-31T09:33:47.162Z</time></trkpt><trkpt lat="40.97205" lon="0.4407183"><ele>244.33333333333334</ele><time>2026-03-31T09:33:48.162Z</time></trkpt><trkpt lat="40.9719983" lon="0.4404883"><ele>248.0</ele><time>2026-03-31T09:33:49.162Z</time></trkpt><trkpt lat="40.971915" lon="0.4402633"><ele>249.33333333333334</ele><time>2026-03-31T09:33:50.161Z</time></trkpt><trkpt lat="40.9718317" lon="0.440035"><ele>250.66666666666669</ele><time>2026-03-31T09:33:51.161Z</time></trkpt><trkpt lat="40.9717433" lon="0.4398033"><ele>252.0</ele><time>2026-03-31T09:33:52.161Z</time></trkpt><trkpt lat="40.9716783" lon="0.4395717"><ele>244.66666666666669</ele><time>2026-03-31T09:33:53.162Z</time></trkpt><trkpt lat="40.9716483" lon="0.4393433"><ele>237.33333333333334</ele><time>2026-03-31T09:33:54.161Z</time></trkpt><trkpt lat="40.971635" lon="0.439115"><ele>230.0</ele><time>2026-03-31T09:33:55.161Z</time></trkpt><trkpt lat="40.9716283" lon="0.4388883"><ele>233.0</ele><time>2026-03-31T09:33:56.162Z</time></trkpt><trkpt lat="40.971625" lon="0.4386583"><ele>236.0</ele><time>2026-03-31T09:33:57.161Z</time></trkpt><trkpt lat="40.971625" lon="0.4384367"><ele>239.0</ele><time>2026-03-31T09:33:58.162Z</time></trkpt><trkpt lat="40.9716217" lon="0.4382233"><ele>239.0</ele><time>2026-03-31T09:33:59.161Z</time></trkpt><trkpt lat="40.9715983" lon="0.43805"><ele>239.0</ele><time>2026-03-31T09:34:00.161Z</time></trkpt><trkpt lat="40.9715817" lon="0.4378517"><ele>239.0</ele><time>2026-03-31T09:34:01.162Z</time></trkpt><trkpt lat="40.971535" lon="0.4376817"><ele>239.0</ele><time>2026-03-31T09:34:02.162Z</time></trkpt><trkpt lat="40.971415" lon="0.4375267"><ele>239.33333333333334</ele><time>2026-03-31T09:34:03.162Z</time></trkpt><trkpt lat="40.9712917" lon="0.43736"><ele>239.66666666666669</ele><time>2026-03-31T09:34:04.161Z</time></trkpt><trkpt lat="40.971155" lon="0.4372033"><ele>240.0</ele><time>2026-03-31T09:34:05.161Z</time></trkpt><trkpt lat="40.971045" lon="0.4370367"><ele>244.66666666666669</ele><time>2026-03-31T09:34:06.161Z</time></trkpt><trkpt lat="40.9709583" lon="0.4368583"><ele>249.33333333333334</ele><time>2026-03-31T09:34:07.162Z</time></trkpt><trkpt lat="40.970895" lon="0.43665"><ele>254.0</ele><time>2026-03-31T09:34:08.161Z</time></trkpt><trkpt lat="40.9708717" lon="0.436425"><ele>255.33333333333334</ele><time>2026-03-31T09:34:09.161Z</time></trkpt><trkpt lat="40.970895" lon="0.436195"><ele>256.6666666666667</ele><time>2026-03-31T09:34:10.161Z</time></trkpt><trkpt lat="40.9709567" lon="0.4359633"><ele>258.0</ele><time>2026-03-31T09:34:11.162Z</time></trkpt><trkpt lat="40.97105" lon="0.4357617"><ele>258.0</ele><time>2026-03-31T09:34:12.162Z</time></trkpt><trkpt lat="40.9711633" lon="0.43559"><ele>258.0</ele><time>2026-03-31T09:34:13.161Z</time></trkpt><trkpt lat="40.9713017" lon="0.4354417"><ele>258.0</ele><time>2026-03-31T09:34:14.162Z</time></trkpt><trkpt lat="40.9714433" lon="0.4353133"><ele>259.3333333333333</ele><time>2026-03-31T09:34:15.161Z</time></trkpt><trkpt lat="40.9715983" lon="0.4351917"><ele>260.66666666666663</ele><time>2026-03-31T09:34:16.161Z</time></trkpt><trkpt lat="40.971765" lon="0.4350817"><ele>262.0</ele><time>2026-03-31T09:34:17.162Z</time></trkpt><trkpt lat="40.9719383" lon="0.43499"><ele>262.0</ele><time>2026-03-31T09:34:18.162Z</time></trkpt><trkpt lat="40.97211" lon="0.434905"><ele>262.0</ele><time>2026-03-31T09:34:19.161Z</time></trkpt><trkpt lat="40.97229" lon="0.43483"><ele>262.0</ele><time>2026-03-31T09:34:20.162Z</time></trkpt><trkpt lat="40.9724517" lon="0.434745"><ele>266.3333333333333</ele><time>2026-03-31T09:34:21.161Z</time></trkpt><trkpt lat="40.9726067" lon="0.4346383"><ele>270.6666666666667</ele><time>2026-03-31T09:34:22.161Z</time></trkpt><trkpt lat="40.9727417" lon="0.4345133"><ele>275.0</ele><time>2026-03-31T09:34:23.162Z</time></trkpt><trkpt lat="40.9728433" lon="0.4343483"><ele>275.0</ele><time>2026-03-31T09:34:24.161Z</time></trkpt><trkpt lat="40.972945" lon="0.43418"><ele>275.0</ele><time>2026-03-31T09:34:25.161Z</time></trkpt><trkpt lat="40.9730367" lon="0.4340133"><ele>275.0</ele><time>2026-03-31T09:34:26.161Z</time></trkpt><trkpt lat="40.973105" lon="0.4338433"><ele>278.5</ele><time>2026-03-31T09:34:27.161Z</time></trkpt><trkpt lat="40.9730367" lon="0.4335617"><ele>282.0</ele><time>2026-03-31T09:34:28.161Z</time></trkpt><trkpt lat="40.9729517" lon="0.43328"><ele>282.0</ele><time>2026-03-31T09:34:29.162Z</time></trkpt><trkpt lat="40.97285" lon="0.43304"><ele>282.0</ele><time>2026-03-31T09:34:30.161Z</time></trkpt><trkpt lat="40.97273" lon="0.4328233"><ele>282.0</ele><time>2026-03-31T09:34:31.161Z</time></trkpt><trkpt lat="40.972585" lon="0.4326633"><ele>275.3333333333333</ele><time>2026-03-31T09:34:32.161Z</time></trkpt><trkpt lat="40.97241" lon="0.4325633"><ele>268.66666666666663</ele><time>2026-03-31T09:34:33.162Z</time></trkpt><trkpt lat="40.9722333" lon="0.4325183"><ele>262.0</ele><time>2026-03-31T09:34:34.161Z</time></trkpt><trkpt lat="40.97205" lon="0.4325033"><ele>262.0</ele><time>2026-03-31T09:34:35.162Z</time></trkpt><trkpt lat="40.9718733" lon="0.4325233"><ele>262.0</ele><time>2026-03-31T09:34:36.162Z</time></trkpt><trkpt lat="40.9716883" lon="0.4325717"><ele>262.0</ele><time>2026-03-31T09:34:37.162Z</time></trkpt><trkpt lat="40.9715" lon="0.43262"><ele>258.0</ele><time>2026-03-31T09:34:38.161Z</time></trkpt><trkpt lat="40.9713133" lon="0.432645"><ele>254.0</ele><time>2026-03-31T09:34:39.162Z</time></trkpt><trkpt lat="40.9711283" lon="0.4326217"><ele>250.0</ele><time>2026-03-31T09:34:40.162Z</time></trkpt><trkpt lat="40.9709567" lon="0.4325433"><ele>248.66666666666666</ele><time>2026-03-31T09:34:41.161Z</time></trkpt><trkpt lat="40.9708067" lon="0.43241"><ele>247.33333333333331</ele><time>2026-03-31T09:34:42.161Z</time></trkpt><trkpt lat="40.970685" lon="0.43225"><ele>246.0</ele><time>2026-03-31T09:34:43.161Z</time></trkpt><trkpt lat="40.9705717" lon="0.43208"><ele>250.0</ele><time>2026-03-31T09:34:44.161Z</time></trkpt><trkpt lat="40.9704783" lon="0.43191"><ele>254.0</ele><time>2026-03-31T09:34:45.162Z</time></trkpt><trkpt lat="40.9704033" lon="0.4317333"><ele>258.0</ele><time>2026-03-31T09:34:46.161Z</time></trkpt><trkpt lat="40.970355" lon="0.43153"><ele>258.0</ele><time>2026-03-31T09:34:47.162Z</time></trkpt><trkpt lat="40.970335" lon="0.4313233"><ele>258.0</ele><time>2026-03-31T09:34:48.161Z</time></trkpt><trkpt lat="40.9703333" lon="0.4311133"><ele>258.0</ele><time>2026-03-31T09:34:49.161Z</time></trkpt><trkpt lat="40.9703633" lon="0.4309133"><ele>255.33333333333331</ele><time>2026-03-31T09:34:50.161Z</time></trkpt><trkpt lat="40.9704133" lon="0.4307233"><ele>252.66666666666666</ele><time>2026-03-31T09:34:51.162Z</time></trkpt><trkpt lat="40.9704983" lon="0.430555"><ele>250.0</ele><time>2026-03-31T09:34:52.161Z</time></trkpt><trkpt lat="40.9706033" lon="0.4303983"><ele>250.66666666666666</ele><time>2026-03-31T09:34:53.161Z</time></trkpt><trkpt lat="40.9707317" lon="0.4302617"><ele>251.33333333333331</ele><time>2026-03-31T09:34:54.162Z</time></trkpt><trkpt lat="40.97085" lon="0.4301333"><ele>252.0</ele><time>2026-03-31T09:34:55.161Z</time></trkpt><trkpt lat="40.97097" lon="0.4300033"><ele>252.0</ele><time>2026-03-31T09:34:56.161Z</time></trkpt><trkpt lat="40.971085" lon="0.4298617"><ele>252.0</ele><time>2026-03-31T09:34:57.161Z</time></trkpt><trkpt lat="40.971205" lon="0.4297283"><ele>252.0</ele><time>2026-03-31T09:34:58.161Z</time></trkpt><trkpt lat="40.97133" lon="0.4296033"><ele>252.33333333333331</ele><time>2026-03-31T09:34:59.161Z</time></trkpt><trkpt lat="40.9714567" lon="0.4295"><ele>252.66666666666666</ele><time>2026-03-31T09:35:00.161Z</time></trkpt><trkpt lat="40.9716067" lon="0.4294067"><ele>253.0</ele><time>2026-03-31T09:35:01.162Z</time></trkpt><trkpt lat="40.9717617" lon="0.4293517"><ele>253.0</ele><time>2026-03-31T09:35:02.162Z</time></trkpt><trkpt lat="40.9719133" lon="0.4293217"><ele>253.0</ele><time>2026-03-31T09:35:03.162Z</time></trkpt><trkpt lat="40.9720733" lon="0.429285"><ele>253.0</ele><time>2026-03-31T09:35:04.161Z</time></trkpt><trkpt lat="40.9722317" lon="0.4292483"><ele>253.0</ele><time>2026-03-31T09:35:05.162Z</time></trkpt><trkpt lat="40.9723967" lon="0.4291967"><ele>253.0</ele><time>2026-03-31T09:35:06.162Z</time></trkpt><trkpt lat="40.972545" lon="0.4291383"><ele>253.0</ele><time>2026-03-31T09:35:07.162Z</time></trkpt><trkpt lat="40.9726833" lon="0.4290567"><ele>253.66666666666666</ele><time>2026-03-31T09:35:08.161Z</time></trkpt><trkpt lat="40.9728183" lon="0.428955"><ele>254.33333333333331</ele><time>2026-03-31T09:35:09.161Z</time></trkpt><trkpt lat="40.97295" lon="0.42885"><ele>255.0</ele><time>2026-03-31T09:35:10.161Z</time></trkpt><trkpt lat="40.9730817" lon="0.428735"><ele>255.0</ele><time>2026-03-31T09:35:11.162Z</time></trkpt><trkpt lat="40.9732217" lon="0.4286"><ele>255.0</ele><time>2026-03-31T09:35:12.161Z</time></trkpt><trkpt lat="40.9733733" lon="0.428455"><ele>255.0</ele><time>2026-03-31T09:35:13.161Z</time></trkpt><trkpt lat="40.973525" lon="0.4282717"><ele>259.0</ele><time>2026-03-31T09:35:14.162Z</time></trkpt><trkpt lat="40.9736667" lon="0.4280717"><ele>263.0</ele><time>2026-03-31T09:35:15.162Z</time></trkpt><trkpt lat="40.9737933" lon="0.42785"><ele>267.0</ele><time>2026-03-31T09:35:16.162Z</time></trkpt><trkpt lat="40.9739017" lon="0.4276083"><ele>267.0</ele><time>2026-03-31T09:35:17.161Z</time></trkpt><trkpt lat="40.97399" lon="0.427355"><ele>267.0</ele><time>2026-03-31T09:35:18.161Z</time></trkpt><trkpt lat="40.9740667" lon="0.4270917"><ele>267.0</ele><time>2026-03-31T09:35:19.162Z</time></trkpt><trkpt lat="40.9741217" lon="0.4268233"><ele>270.3333333333333</ele><time>2026-03-31T09:35:20.161Z</time></trkpt><trkpt lat="40.9741667" lon="0.4265483"><ele>273.66666666666663</ele><time>2026-03-31T09:35:21.162Z</time></trkpt><trkpt lat="40.97421" lon="0.4262833"><ele>277.0</ele><time>2026-03-31T09:35:22.162Z</time></trkpt><trkpt lat="40.9742617" lon="0.4260167"><ele>277.0</ele><time>2026-03-31T09:35:23.162Z</time></trkpt><trkpt lat="40.9743117" lon="0.4257517"><ele>277.0</ele><time>2026-03-31T09:35:24.161Z</time></trkpt><trkpt lat="40.9743767" lon="0.4254933"><ele>277.0</ele><time>2026-03-31T09:35:25.162Z</time></trkpt><trkpt lat="40.9744333" lon="0.4252417"><ele>276.66666666666663</ele><time>2026-03-31T09:35:26.162Z</time></trkpt><trkpt lat="40.974505" lon="0.4249817"><ele>276.3333333333333</ele><time>2026-03-31T09:35:27.161Z</time></trkpt><trkpt lat="40.9746" lon="0.4247483"><ele>276.0</ele><time>2026-03-31T09:35:28.162Z</time></trkpt><trkpt lat="40.9747083" lon="0.4245233"><ele>273.6666666666667</ele><time>2026-03-31T09:35:29.161Z</time></trkpt><trkpt lat="40.9748317" lon="0.42432"><ele>271.33333333333337</ele><time>2026-03-31T09:35:30.162Z</time></trkpt><trkpt lat="40.9749583" lon="0.4241183"><ele>269.0</ele><time>2026-03-31T09:35:31.161Z</time></trkpt><trkpt lat="40.9750867" lon="0.4239083"><ele>272.6666666666667</ele><time>2026-03-31T09:35:32.161Z</time></trkpt><trkpt lat="40.9752117" lon="0.4237017"><ele>276.3333333333333</ele><time>2026-03-31T09:35:33.162Z</time></trkpt><trkpt lat="40.9753367" lon="0.4234983"><ele>280.0</ele><time>2026-03-31T09:35:34.162Z</time></trkpt><trkpt lat="40.975455" lon="0.4232867"><ele>280.0</ele><time>2026-03-31T09:35:35.161Z</time></trkpt><trkpt lat="40.9755683" lon="0.4230567"><ele>280.0</ele><time>2026-03-31T09:35:36.161Z</time></trkpt><trkpt lat="40.9756733" lon="0.4228117"><ele>280.0</ele><time>2026-03-31T09:35:37.161Z</time></trkpt><trkpt lat="40.9757583" lon="0.4225583"><ele>278.66666666666663</ele><time>2026-03-31T09:35:38.161Z</time></trkpt><trkpt lat="40.9758167" lon="0.42229"><ele>277.3333333333333</ele><time>2026-03-31T09:35:39.161Z</time></trkpt><trkpt lat="40.9758883" lon="0.422025"><ele>276.0</ele><time>2026-03-31T09:35:40.161Z</time></trkpt><trkpt lat="40.97597" lon="0.42177"><ele>277.3333333333333</ele><time>2026-03-31T09:35:41.161Z</time></trkpt><trkpt lat="40.9760783" lon="0.4215483"><ele>278.66666666666663</ele><time>2026-03-31T09:35:42.162Z</time></trkpt><trkpt lat="40.97619" lon="0.4213433"><ele>280.0</ele><time>2026-03-31T09:35:43.161Z</time></trkpt><trkpt lat="40.9763267" lon="0.4211633"><ele>280.0</ele><time>2026-03-31T09:35:44.162Z</time></trkpt><trkpt lat="40.9764717" lon="0.4209933"><ele>280.0</ele><time>2026-03-31T09:35:45.161Z</time></trkpt><trkpt lat="40.97661" lon="0.420825"><ele>280.0</ele><time>2026-03-31T09:35:46.161Z</time></trkpt><trkpt lat="40.9767467" lon="0.42064"><ele>284.66666666666663</ele><time>2026-03-31T09:35:47.162Z</time></trkpt><trkpt lat="40.9768717" lon="0.420445"><ele>289.3333333333333</ele><time>2026-03-31T09:35:48.162Z</time></trkpt><trkpt lat="40.976975" lon="0.4202333"><ele>294.0</ele><time>2026-03-31T09:35:49.161Z</time></trkpt><trkpt lat="40.9770383" lon="0.4199933"><ele>294.0</ele><time>2026-03-31T09:35:50.161Z</time></trkpt><trkpt lat="40.9770983" lon="0.4197533"><ele>294.0</ele><time>2026-03-31T09:35:51.161Z</time></trkpt><trkpt lat="40.9771683" lon="0.4195367"><ele>294.0</ele><time>2026-03-31T09:35:52.162Z</time></trkpt><trkpt lat="40.97725" lon="0.41934"><ele>292.0</ele><time>2026-03-31T09:35:53.162Z</time></trkpt><trkpt lat="40.97736" lon="0.419185"><ele>290.0</ele><time>2026-03-31T09:35:54.161Z</time></trkpt><trkpt lat="40.977485" lon="0.419055"><ele>288.0</ele><time>2026-03-31T09:35:55.162Z</time></trkpt><trkpt lat="40.9776383" lon="0.418975"><ele>293.6666666666667</ele><time>2026-03-31T09:35:56.162Z</time></trkpt><trkpt lat="40.9777917" lon="0.41891"><ele>299.33333333333337</ele><time>2026-03-31T09:35:57.161Z</time></trkpt><trkpt lat="40.9779433" lon="0.41887"><ele>305.0</ele><time>2026-03-31T09:35:58.162Z</time></trkpt><trkpt lat="40.9781067" lon="0.4188467"><ele>305.0</ele><time>2026-03-31T09:35:59.162Z</time></trkpt><trkpt lat="40.9782783" lon="0.4188217"><ele>305.0</ele><time>2026-03-31T09:36:00.161Z</time></trkpt><trkpt lat="40.9784417" lon="0.41878"><ele>305.0</ele><time>2026-03-31T09:36:01.162Z</time></trkpt><trkpt lat="40.978595" lon="0.4186967"><ele>302.0</ele><time>2026-03-31T09:36:02.162Z</time></trkpt><trkpt lat="40.9787167" lon="0.4185617"><ele>299.0</ele><time>2026-03-31T09:36:03.162Z</time></trkpt><trkpt lat="40.9788117" lon="0.41838"><ele>296.0</ele><time>2026-03-31T09:36:04.161Z</time></trkpt><trkpt lat="40.9788833" lon="0.4181633"><ele>296.0</ele><time>2026-03-31T09:36:05.161Z</time></trkpt><trkpt lat="40.9789333" lon="0.4179233"><ele>296.0</ele><time>2026-03-31T09:36:06.162Z</time></trkpt><trkpt lat="40.9789683" lon="0.4176717"><ele>296.0</ele><time>2026-03-31T09:36:07.162Z</time></trkpt><trkpt lat="40.9790067" lon="0.417425"><ele>296.0</ele><time>2026-03-31T09:36:08.161Z</time></trkpt><trkpt lat="40.9790267" lon="0.4171717"><ele>296.0</ele><time>2026-03-31T09:36:09.161Z</time></trkpt><trkpt lat="40.979075" lon="0.4169217"><ele>296.0</ele><time>2026-03-31T09:36:10.161Z</time></trkpt><trkpt lat="40.9791183" lon="0.4166667"><ele>296.6666666666667</ele><time>2026-03-31T09:36:11.162Z</time></trkpt><trkpt lat="40.9791733" lon="0.4164133"><ele>297.3333333333333</ele><time>2026-03-31T09:36:12.162Z</time></trkpt><trkpt lat="40.9792233" lon="0.4161483"><ele>298.0</ele><time>2026-03-31T09:36:13.162Z</time></trkpt><trkpt lat="40.979275" lon="0.4158867"><ele>303.0</ele><time>2026-03-31T09:36:14.161Z</time></trkpt><trkpt lat="40.9793317" lon="0.4156217"><ele>308.0</ele><time>2026-03-31T09:36:15.161Z</time></trkpt><trkpt lat="40.97938" lon="0.415355"><ele>313.0</ele><time>2026-03-31T09:36:16.162Z</time></trkpt><trkpt lat="40.9794183" lon="0.4150883"><ele>313.0</ele><time>2026-03-31T09:36:17.162Z</time></trkpt><trkpt lat="40.9794633" lon="0.41481"><ele>313.0</ele><time>2026-03-31T09:36:18.161Z</time></trkpt><trkpt lat="40.979485" lon="0.4145233"><ele>313.0</ele><time>2026-03-31T09:36:19.162Z</time></trkpt><trkpt lat="40.9794817" lon="0.4142317"><ele>318.5</ele><time>2026-03-31T09:36:20.161Z</time></trkpt><trkpt lat="40.9794833" lon="0.413935"><ele>324.0</ele><time>2026-03-31T09:36:21.162Z</time></trkpt><trkpt lat="40.979465" lon="0.4136333"><ele>325.5</ele><time>2026-03-31T09:36:22.161Z</time></trkpt><trkpt lat="40.9794517" lon="0.4133367"><ele>327.0</ele><time>2026-03-31T09:36:23.162Z</time></trkpt><trkpt lat="40.9794417" lon="0.4130383"><ele>328.3333333333333</ele><time>2026-03-31T09:36:24.162Z</time></trkpt><trkpt lat="40.9794367" lon="0.4127467"><ele>329.66666666666663</ele><time>2026-03-31T09:36:25.162Z</time></trkpt><trkpt lat="40.9794283" lon="0.4124683"><ele>331.0</ele><time>2026-03-31T09:36:26.161Z</time></trkpt><trkpt lat="40.9794333" lon="0.412215"><ele>334.0</ele><time>2026-03-31T09:36:27.161Z</time></trkpt><trkpt lat="40.9794333" lon="0.411955"><ele>337.0</ele><time>2026-03-31T09:36:28.162Z</time></trkpt><trkpt lat="40.9794333" lon="0.4117283"><ele>340.0</ele><time>2026-03-31T09:36:29.161Z</time></trkpt><trkpt lat="40.9794233" lon="0.4114867"><ele>344.0</ele><time>2026-03-31T09:36:30.161Z</time></trkpt><trkpt lat="40.9794117" lon="0.4112483"><ele>348.0</ele><time>2026-03-31T09:36:31.162Z</time></trkpt><trkpt lat="40.9794" lon="0.4110117"><ele>352.0</ele><time>2026-03-31T09:36:32.161Z</time></trkpt><trkpt lat="40.979395" lon="0.41079"><ele>352.0</ele><time>2026-03-31T09:36:33.161Z</time></trkpt><trkpt lat="40.9793983" lon="0.4105467"><ele>352.0</ele><time>2026-03-31T09:36:34.162Z</time></trkpt><trkpt lat="40.9793967" lon="0.4103117"><ele>352.0</ele><time>2026-03-31T09:36:35.162Z</time></trkpt><trkpt lat="40.979385" lon="0.4100883"><ele>356.0</ele><time>2026-03-31T09:36:36.161Z</time></trkpt><trkpt lat="40.9793667" lon="0.4098417"><ele>360.0</ele><time>2026-03-31T09:36:37.161Z</time></trkpt><trkpt lat="40.979335" lon="0.4096083"><ele>364.0</ele><time>2026-03-31T09:36:38.161Z</time></trkpt><trkpt lat="40.9792867" lon="0.40937"><ele>365.66666666666663</ele><time>2026-03-31T09:36:39.161Z</time></trkpt><trkpt lat="40.9792417" lon="0.4091333"><ele>367.3333333333333</ele><time>2026-03-31T09:36:40.161Z</time></trkpt><trkpt lat="40.97918" lon="0.4088967"><ele>369.0</ele><time>2026-03-31T09:36:41.161Z</time></trkpt><trkpt lat="40.9791283" lon="0.408685"><ele>357.5</ele><time>2026-03-31T09:36:42.162Z</time></trkpt><trkpt lat="40.97909" lon="0.4084917"><ele>346.0</ele><time>2026-03-31T09:36:43.161Z</time></trkpt><trkpt lat="40.97907" lon="0.408295"><ele>334.5</ele><time>2026-03-31T09:36:44.161Z</time></trkpt><trkpt lat="40.9790633" lon="0.4081033"><ele>323.0</ele><time>2026-03-31T09:36:45.161Z</time></trkpt><trkpt lat="40.9790783" lon="0.407925"><ele>322.25</ele><time>2026-03-31T09:36:46.162Z</time></trkpt><trkpt lat="40.9791017" lon="0.40774"><ele>321.5</ele><time>2026-03-31T09:36:47.161Z</time></trkpt><trkpt lat="40.9791533" lon="0.4075633"><ele>320.75</ele><time>2026-03-31T09:36:48.161Z</time></trkpt><trkpt lat="40.979215" lon="0.4074183"><ele>320.0</ele><time>2026-03-31T09:36:49.161Z</time></trkpt><trkpt lat="40.9793033" lon="0.407305"><ele>322.5</ele><time>2026-03-31T09:36:50.162Z</time></trkpt><trkpt lat="40.979405" lon="0.40721"><ele>325.0</ele><time>2026-03-31T09:36:51.161Z</time></trkpt><trkpt lat="40.9795317" lon="0.4071417"><ele>327.5</ele><time>2026-03-31T09:36:52.161Z</time></trkpt><trkpt lat="40.9796667" lon="0.4070883"><ele>330.0</ele><time>2026-03-31T09:36:53.161Z</time></trkpt><trkpt lat="40.9798183" lon="0.4070483"><ele>330.0</ele><time>2026-03-31T09:36:54.162Z</time></trkpt><trkpt lat="40.9799633" lon="0.4070333"><ele>330.0</ele><time>2026-03-31T09:36:55.161Z</time></trkpt><trkpt lat="40.9801317" lon="0.4070133"><ele>330.0</ele><time>2026-03-31T09:36:56.161Z</time></trkpt><trkpt lat="40.98029" lon="0.407035"><ele>330.25</ele><time>2026-03-31T09:36:57.161Z</time></trkpt><trkpt lat="40.98043" lon="0.40709"><ele>330.5</ele><time>2026-03-31T09:36:58.161Z</time></trkpt><trkpt lat="40.9805567" lon="0.4071733"><ele>330.75</ele><time>2026-03-31T09:36:59.162Z</time></trkpt><trkpt lat="40.9806767" lon="0.4072767"><ele>331.0</ele><time>2026-03-31T09:37:00.162Z</time></trkpt><trkpt lat="40.9807717" lon="0.4073567"><ele>330.8333333333333</ele><time>2026-03-31T09:37:01.162Z</time></trkpt><trkpt lat="40.9808567" lon="0.407425"><ele>330.66666666666663</ele><time>2026-03-31T09:37:02.161Z</time></trkpt><trkpt lat="40.9809317" lon="0.4074817"><ele>330.5</ele><time>2026-03-31T09:37:03.161Z</time></trkpt><trkpt lat="40.9810033" lon="0.4075367"><ele>330.3333333333333</ele><time>2026-03-31T09:37:04.162Z</time></trkpt><trkpt lat="40.981065" lon="0.4075817"><ele>330.1666666666667</ele><time>2026-03-31T09:37:05.161Z</time></trkpt><trkpt lat="40.9811283" lon="0.4076017"><ele>330.0</ele><time>2026-03-31T09:37:06.162Z</time></trkpt><trkpt lat="40.9812267" lon="0.4075667"><ele>330.0</ele><time>2026-03-31T09:37:08.162Z</time></trkpt><trkpt lat="40.9812483" lon="0.40748"><ele>330.0</ele><time>2026-03-31T09:37:09.161Z</time></trkpt><trkpt lat="40.9812783" lon="0.4073767"><ele>330.0</ele><time>2026-03-31T09:37:10.161Z</time></trkpt><trkpt lat="40.98133" lon="0.407255"><ele>330.0</ele><time>2026-03-31T09:37:11.162Z</time></trkpt><trkpt lat="40.9814067" lon="0.407125"><ele>330.0</ele><time>2026-03-31T09:37:12.162Z</time></trkpt><trkpt lat="40.98151" lon="0.4069883"><ele>329.0</ele><time>2026-03-31T09:37:13.161Z</time></trkpt><trkpt lat="40.9816117" lon="0.4068433"><ele>328.0</ele><time>2026-03-31T09:37:14.161Z</time></trkpt><trkpt lat="40.9817083" lon="0.4067"><ele>327.0</ele><time>2026-03-31T09:37:15.162Z</time></trkpt><trkpt lat="40.981805" lon="0.4065717"><ele>326.0</ele><time>2026-03-31T09:37:16.161Z</time></trkpt><trkpt lat="40.9819017" lon="0.4064367"><ele>329.25</ele><time>2026-03-31T09:37:17.161Z</time></trkpt><trkpt lat="40.9819983" lon="0.4063117"><ele>332.5</ele><time>2026-03-31T09:37:18.161Z</time></trkpt><trkpt lat="40.9820733" lon="0.40618"><ele>335.75</ele><time>2026-03-31T09:37:19.162Z</time></trkpt><trkpt lat="40.9821317" lon="0.4060483"><ele>339.0</ele><time>2026-03-31T09:37:20.161Z</time></trkpt><trkpt lat="40.9821667" lon="0.4059"><ele>339.0</ele><time>2026-03-31T09:37:21.161Z</time></trkpt><trkpt lat="40.9821717" lon="0.4057383"><ele>339.0</ele><time>2026-03-31T09:37:22.161Z</time></trkpt><trkpt lat="40.9821617" lon="0.4055633"><ele>339.0</ele><time>2026-03-31T09:37:23.161Z</time></trkpt><trkpt lat="40.9821417" lon="0.4053867"><ele>339.0</ele><time>2026-03-31T09:37:24.161Z</time></trkpt><trkpt lat="40.9821117" lon="0.405215"><ele>339.0</ele><time>2026-03-31T09:37:25.161Z</time></trkpt><trkpt lat="40.9820867" lon="0.405035"><ele>339.0</ele><time>2026-03-31T09:37:26.162Z</time></trkpt><trkpt lat="40.9820567" lon="0.4048433"><ele>339.0</ele><time>2026-03-31T09:37:27.161Z</time></trkpt><trkpt lat="40.982025" lon="0.4046433"><ele>339.0</ele><time>2026-03-31T09:37:28.161Z</time></trkpt><trkpt lat="40.9819967" lon="0.4044417"><ele>338.6666666666667</ele><time>2026-03-31T09:37:29.161Z</time></trkpt><trkpt lat="40.9819717" lon="0.4042383"><ele>338.33333333333337</ele><time>2026-03-31T09:37:30.161Z</time></trkpt><trkpt lat="40.981955" lon="0.404035"><ele>338.0</ele><time>2026-03-31T09:37:31.161Z</time></trkpt><trkpt lat="40.9819383" lon="0.4038433"><ele>338.25</ele><time>2026-03-31T09:37:32.161Z</time></trkpt><trkpt lat="40.9819233" lon="0.4036517"><ele>338.5</ele><time>2026-03-31T09:37:33.161Z</time></trkpt><trkpt lat="40.9819117" lon="0.4034667"><ele>338.75</ele><time>2026-03-31T09:37:34.161Z</time></trkpt><trkpt lat="40.981895" lon="0.4032833"><ele>339.0</ele><time>2026-03-31T09:37:35.162Z</time></trkpt><trkpt lat="40.9818783" lon="0.4031033"><ele>339.0</ele><time>2026-03-31T09:37:36.162Z</time></trkpt><trkpt lat="40.9818517" lon="0.4029117"><ele>339.0</ele><time>2026-03-31T09:37:37.161Z</time></trkpt><trkpt lat="40.981825" lon="0.4026983"><ele>339.0</ele><time>2026-03-31T09:37:38.161Z</time></trkpt><trkpt lat="40.9817967" lon="0.4024817"><ele>339.0</ele><time>2026-03-31T09:37:39.162Z</time></trkpt><trkpt lat="40.9817683" lon="0.40226"><ele>339.0</ele><time>2026-03-31T09:37:40.161Z</time></trkpt><trkpt lat="40.9817317" lon="0.40201"><ele>339.0</ele><time>2026-03-31T09:37:41.161Z</time></trkpt><trkpt lat="40.9817" lon="0.4017517"><ele>338.6666666666667</ele><time>2026-03-31T09:37:42.162Z</time></trkpt><trkpt lat="40.9816667" lon="0.4014867"><ele>338.33333333333337</ele><time>2026-03-31T09:37:43.161Z</time></trkpt><trkpt lat="40.9816367" lon="0.4012167"><ele>338.0</ele><time>2026-03-31T09:37:44.161Z</time></trkpt><trkpt lat="40.98161" lon="0.4009367"><ele>338.6666666666667</ele><time>2026-03-31T09:37:45.162Z</time></trkpt><trkpt lat="40.9815783" lon="0.4006483"><ele>339.3333333333333</ele><time>2026-03-31T09:37:46.162Z</time></trkpt><trkpt lat="40.981545" lon="0.4003617"><ele>340.0</ele><time>2026-03-31T09:37:47.162Z</time></trkpt><trkpt lat="40.98151" lon="0.4000717"><ele>340.66666666666663</ele><time>2026-03-31T09:37:48.161Z</time></trkpt><trkpt lat="40.98147" lon="0.39978"><ele>341.3333333333333</ele><time>2026-03-31T09:37:49.161Z</time></trkpt><trkpt lat="40.9814267" lon="0.3994867"><ele>342.0</ele><time>2026-03-31T09:37:50.161Z</time></trkpt><trkpt lat="40.9813933" lon="0.3991917"><ele>343.3333333333333</ele><time>2026-03-31T09:37:51.161Z</time></trkpt><trkpt lat="40.9813583" lon="0.398895"><ele>344.66666666666663</ele><time>2026-03-31T09:37:52.162Z</time></trkpt><trkpt lat="40.9813317" lon="0.398605"><ele>346.0</ele><time>2026-03-31T09:37:53.161Z</time></trkpt><trkpt lat="40.9813" lon="0.3983167"><ele>348.66666666666663</ele><time>2026-03-31T09:37:54.161Z</time></trkpt><trkpt lat="40.9812633" lon="0.398025"><ele>351.3333333333333</ele><time>2026-03-31T09:37:55.162Z</time></trkpt><trkpt lat="40.9812117" lon="0.3977333"><ele>354.0</ele><time>2026-03-31T09:37:56.162Z</time></trkpt><trkpt lat="40.98116" lon="0.3974417"><ele>357.3333333333333</ele><time>2026-03-31T09:37:57.162Z</time></trkpt><trkpt lat="40.9810967" lon="0.39715"><ele>360.66666666666663</ele><time>2026-03-31T09:37:58.162Z</time></trkpt><trkpt lat="40.9810283" lon="0.396875"><ele>364.0</ele><time>2026-03-31T09:37:59.161Z</time></trkpt><trkpt lat="40.9809367" lon="0.396595"><ele>360.5</ele><time>2026-03-31T09:38:00.161Z</time></trkpt><trkpt lat="40.98083" lon="0.3963167"><ele>357.0</ele><time>2026-03-31T09:38:01.162Z</time></trkpt><trkpt lat="40.980725" lon="0.3960467"><ele>357.0</ele><time>2026-03-31T09:38:02.162Z</time></trkpt><trkpt lat="40.9806067" lon="0.3957833"><ele>357.0</ele><time>2026-03-31T09:38:03.162Z</time></trkpt><trkpt lat="40.980485" lon="0.395535"><ele>359.5</ele><time>2026-03-31T09:38:04.161Z</time></trkpt><trkpt lat="40.9803483" lon="0.3952867"><ele>362.0</ele><time>2026-03-31T09:38:05.161Z</time></trkpt><trkpt lat="40.9802117" lon="0.3950533"><ele>362.0</ele><time>2026-03-31T09:38:06.162Z</time></trkpt><trkpt lat="40.9800683" lon="0.3948333"><ele>362.0</ele><time>2026-03-31T09:38:07.161Z</time></trkpt><trkpt lat="40.9799267" lon="0.3946217"><ele>362.0</ele><time>2026-03-31T09:38:08.162Z</time></trkpt><trkpt lat="40.9797783" lon="0.39441"><ele>361.33333333333337</ele><time>2026-03-31T09:38:09.162Z</time></trkpt><trkpt lat="40.9796333" lon="0.3941817"><ele>360.6666666666667</ele><time>2026-03-31T09:38:10.162Z</time></trkpt><trkpt lat="40.9794867" lon="0.393965"><ele>360.0</ele><time>2026-03-31T09:38:11.162Z</time></trkpt><trkpt lat="40.979345" lon="0.3937417"><ele>360.0</ele><time>2026-03-31T09:38:12.161Z</time></trkpt><trkpt lat="40.9792067" lon="0.39353"><ele>360.0</ele><time>2026-03-31T09:38:13.161Z</time></trkpt><trkpt lat="40.9790883" lon="0.3933333"><ele>360.0</ele><time>2026-03-31T09:38:14.161Z</time></trkpt><trkpt lat="40.9789717" lon="0.3931533"><ele>360.5</ele><time>2026-03-31T09:38:15.162Z</time></trkpt><trkpt lat="40.9788633" lon="0.3929967"><ele>361.0</ele><time>2026-03-31T09:38:16.162Z</time></trkpt><trkpt lat="40.97876" lon="0.39285"><ele>361.5</ele><time>2026-03-31T09:38:17.162Z</time></trkpt><trkpt lat="40.9786667" lon="0.3927183"><ele>362.0</ele><time>2026-03-31T09:38:18.161Z</time></trkpt><trkpt lat="40.9785917" lon="0.392585"><ele>362.0</ele><time>2026-03-31T09:38:19.161Z</time></trkpt><trkpt lat="40.9785467" lon="0.3924683"><ele>362.0</ele><time>2026-03-31T09:38:20.162Z</time></trkpt><trkpt lat="40.97851" lon="0.39236"><ele>362.0</ele><time>2026-03-31T09:38:21.162Z</time></trkpt><trkpt lat="40.9785033" lon="0.39226"><ele>362.0</ele><time>2026-03-31T09:38:22.161Z</time></trkpt><trkpt lat="40.9785267" lon="0.3921767"><ele>362.0</ele><time>2026-03-31T09:38:23.162Z</time></trkpt><trkpt lat="40.9785817" lon="0.3921"><ele>362.0</ele><time>2026-03-31T09:38:24.161Z</time></trkpt><trkpt lat="40.9786833" lon="0.3920233"><ele>362.0</ele><time>2026-03-31T09:38:25.161Z</time></trkpt><trkpt lat="40.9788083" lon="0.3919583"><ele>362.0</ele><time>2026-03-31T09:38:26.161Z</time></trkpt><trkpt lat="40.9789533" lon="0.39189"><ele>362.0</ele><time>2026-03-31T09:38:27.161Z</time></trkpt><trkpt lat="40.9791167" lon="0.391815"><ele>364.6666666666667</ele><time>2026-03-31T09:38:28.161Z</time></trkpt><trkpt lat="40.9792767" lon="0.3917233"><ele>367.3333333333333</ele><time>2026-03-31T09:38:29.161Z</time></trkpt><trkpt lat="40.97942" lon="0.3916433"><ele>370.0</ele><time>2026-03-31T09:38:30.162Z</time></trkpt><trkpt lat="40.979555" lon="0.39157"><ele>370.0</ele><time>2026-03-31T09:38:31.161Z</time></trkpt><trkpt lat="40.9796567" lon="0.3915033"><ele>370.0</ele><time>2026-03-31T09:38:32.162Z</time></trkpt><trkpt lat="40.979725" lon="0.39142"><ele>370.0</ele><time>2026-03-31T09:38:33.161Z</time></trkpt><trkpt lat="40.9797617" lon="0.3913233"><ele>370.0</ele><time>2026-03-31T09:38:34.161Z</time></trkpt><trkpt lat="40.97977" lon="0.3912083"><ele>370.0</ele><time>2026-03-31T09:38:35.161Z</time></trkpt><trkpt lat="40.9797433" lon="0.3910967"><ele>373.0</ele><time>2026-03-31T09:38:36.162Z</time></trkpt><trkpt lat="40.9797033" lon="0.39098"><ele>376.0</ele><time>2026-03-31T09:38:37.161Z</time></trkpt><trkpt lat="40.97962" lon="0.390875"><ele>379.0</ele><time>2026-03-31T09:38:38.161Z</time></trkpt><trkpt lat="40.9795233" lon="0.39076"><ele>382.0</ele><time>2026-03-31T09:38:39.162Z</time></trkpt><trkpt lat="40.979415" lon="0.3906383"><ele>382.0</ele><time>2026-03-31T09:38:40.161Z</time></trkpt><trkpt lat="40.9793217" lon="0.3905217"><ele>382.0</ele><time>2026-03-31T09:38:41.162Z</time></trkpt><trkpt lat="40.9792333" lon="0.3903767"><ele>382.0</ele><time>2026-03-31T09:38:42.162Z</time></trkpt><trkpt lat="40.9791733" lon="0.3902217"><ele>382.0</ele><time>2026-03-31T09:38:43.161Z</time></trkpt><trkpt lat="40.9791267" lon="0.3900667"><ele>381.20000000000005</ele><time>2026-03-31T09:38:44.161Z</time></trkpt><trkpt lat="40.979075" lon="0.3899117"><ele>380.4</ele><time>2026-03-31T09:38:45.161Z</time></trkpt><trkpt lat="40.9790233" lon="0.3897783"><ele>379.6</ele><time>2026-03-31T09:38:46.162Z</time></trkpt><trkpt lat="40.9789833" lon="0.38966"><ele>378.79999999999995</ele><time>2026-03-31T09:38:47.162Z</time></trkpt><trkpt lat="40.9789567" lon="0.3895567"><ele>378.0</ele><time>2026-03-31T09:38:48.161Z</time></trkpt><trkpt lat="40.9789567" lon="0.3894667"><ele>379.59999999999997</ele><time>2026-03-31T09:38:49.162Z</time></trkpt><trkpt lat="40.9789833" lon="0.389375"><ele>381.2</ele><time>2026-03-31T09:38:50.162Z</time></trkpt><trkpt lat="40.979075" lon="0.3892967"><ele>382.8</ele><time>2026-03-31T09:38:52.161Z</time></trkpt><trkpt lat="40.97914" lon="0.38933"><ele>384.4</ele><time>2026-03-31T09:38:53.161Z</time></trkpt><trkpt lat="40.9792183" lon="0.3894133"><ele>386.0</ele><time>2026-03-31T09:38:54.161Z</time></trkpt><trkpt lat="40.9793067" lon="0.3895583"><ele>388.0</ele><time>2026-03-31T09:38:55.161Z</time></trkpt><trkpt lat="40.9793933" lon="0.3897167"><ele>390.0</ele><time>2026-03-31T09:38:56.161Z</time></trkpt><trkpt lat="40.97948" lon="0.38988"><ele>392.0</ele><time>2026-03-31T09:38:57.162Z</time></trkpt><trkpt lat="40.9795667" lon="0.3900217"><ele>394.0</ele><time>2026-03-31T09:38:58.162Z</time></trkpt><trkpt lat="40.979635" lon="0.390135"><ele>394.0</ele><time>2026-03-31T09:38:59.161Z</time></trkpt><trkpt lat="40.979705" lon="0.3902167"><ele>394.0</ele><time>2026-03-31T09:39:00.161Z</time></trkpt><trkpt lat="40.97978" lon="0.3902533"><ele>394.0</ele><time>2026-03-31T09:39:01.161Z</time></trkpt><trkpt lat="40.979865" lon="0.390255"><ele>394.0</ele><time>2026-03-31T09:39:02.162Z</time></trkpt><trkpt lat="40.9799633" lon="0.3902217"><ele>394.0</ele><time>2026-03-31T09:39:03.161Z</time></trkpt><trkpt lat="40.98006" lon="0.3902217"><ele>396.6666666666667</ele><time>2026-03-31T09:39:04.161Z</time></trkpt><trkpt lat="40.980145" lon="0.39026"><ele>399.33333333333337</ele><time>2026-03-31T09:39:05.161Z</time></trkpt><trkpt lat="40.98021" lon="0.3903433"><ele>402.0</ele><time>2026-03-31T09:39:06.162Z</time></trkpt><trkpt lat="40.9802267" lon="0.390455"><ele>404.66666666666663</ele><time>2026-03-31T09:39:07.162Z</time></trkpt><trkpt lat="40.9802117" lon="0.390545"><ele>407.3333333333333</ele><time>2026-03-31T09:39:08.161Z</time></trkpt><trkpt lat="40.98017" lon="0.390645"><ele>410.0</ele><time>2026-03-31T09:39:09.161Z</time></trkpt><trkpt lat="40.98012" lon="0.3907283"><ele>410.0</ele><time>2026-03-31T09:39:10.161Z</time></trkpt><trkpt lat="40.9800983" lon="0.3908167"><ele>410.0</ele><time>2026-03-31T09:39:11.161Z</time></trkpt><trkpt lat="40.980095" lon="0.3909017"><ele>410.0</ele><time>2026-03-31T09:39:12.161Z</time></trkpt><trkpt lat="40.98017" lon="0.3910317"><ele>410.0</ele><time>2026-03-31T09:39:14.161Z</time></trkpt><trkpt lat="40.98026" lon="0.391075"><ele>410.0</ele><time>2026-03-31T09:39:15.162Z</time></trkpt><trkpt lat="40.9803783" lon="0.3910933"><ele>410.0</ele><time>2026-03-31T09:39:16.162Z</time></trkpt><trkpt lat="40.9804883" lon="0.3910833"><ele>410.0</ele><time>2026-03-31T09:39:17.162Z</time></trkpt><trkpt lat="40.9806283" lon="0.391055"><ele>410.0</ele><time>2026-03-31T09:39:18.162Z</time></trkpt><trkpt lat="40.980735" lon="0.39105"><ele>410.0</ele><time>2026-03-31T09:39:19.162Z</time></trkpt><trkpt lat="40.9808133" lon="0.3911017"><ele>410.0</ele><time>2026-03-31T09:39:20.162Z</time></trkpt><trkpt lat="40.980885" lon="0.3912033"><ele>415.0</ele><time>2026-03-31T09:39:21.161Z</time></trkpt><trkpt lat="40.9809433" lon="0.39136"><ele>420.0</ele><time>2026-03-31T09:39:22.162Z</time></trkpt><trkpt lat="40.98099" lon="0.3915167"><ele>425.0</ele><time>2026-03-31T09:39:23.162Z</time></trkpt><trkpt lat="40.981005" lon="0.3916817"><ele>430.0</ele><time>2026-03-31T09:39:24.161Z</time></trkpt><trkpt lat="40.9810017" lon="0.3918533"><ele>430.0</ele><time>2026-03-31T09:39:25.162Z</time></trkpt><trkpt lat="40.9810017" lon="0.39202"><ele>430.0</ele><time>2026-03-31T09:39:26.161Z</time></trkpt><trkpt lat="40.9810067" lon="0.3921667"><ele>430.0</ele><time>2026-03-31T09:39:27.161Z</time></trkpt><trkpt lat="40.9810367" lon="0.3923033"><ele>430.0</ele><time>2026-03-31T09:39:28.162Z</time></trkpt><trkpt lat="40.9810817" lon="0.3924333"><ele>426.0</ele><time>2026-03-31T09:39:29.162Z</time></trkpt><trkpt lat="40.9811417" lon="0.3925283"><ele>422.0</ele><time>2026-03-31T09:39:30.162Z</time></trkpt><trkpt lat="40.98121" lon="0.3925783"><ele>418.0</ele><time>2026-03-31T09:39:31.161Z</time></trkpt><trkpt lat="40.9812917" lon="0.3926017"><ele>414.0</ele><time>2026-03-31T09:39:32.161Z</time></trkpt><trkpt lat="40.9813817" lon="0.3925783"><ele>410.0</ele><time>2026-03-31T09:39:33.161Z</time></trkpt><trkpt lat="40.98149" lon="0.39252"><ele>410.0</ele><time>2026-03-31T09:39:34.162Z</time></trkpt><trkpt lat="40.9816" lon="0.3924517"><ele>410.0</ele><time>2026-03-31T09:39:35.162Z</time></trkpt><trkpt lat="40.9817133" lon="0.392395"><ele>410.0</ele><time>2026-03-31T09:39:36.161Z</time></trkpt><trkpt lat="40.98182" lon="0.3923833"><ele>410.0</ele><time>2026-03-31T09:39:37.162Z</time></trkpt><trkpt lat="40.9819117" lon="0.3924367"><ele>414.6</ele><time>2026-03-31T09:39:38.162Z</time></trkpt><trkpt lat="40.9819767" lon="0.3925367"><ele>419.2</ele><time>2026-03-31T09:39:39.162Z</time></trkpt><trkpt lat="40.9820217" lon="0.3926533"><ele>423.79999999999995</ele><time>2026-03-31T09:39:40.162Z</time></trkpt><trkpt lat="40.9820733" lon="0.3927683"><ele>428.4</ele><time>2026-03-31T09:39:41.161Z</time></trkpt><trkpt lat="40.98212" lon="0.3928567"><ele>433.0</ele><time>2026-03-31T09:39:42.162Z</time></trkpt><trkpt lat="40.9821833" lon="0.3928933"><ele>433.0</ele><time>2026-03-31T09:39:43.162Z</time></trkpt><trkpt lat="40.9822617" lon="0.3929033"><ele>432.99999999999994</ele><time>2026-03-31T09:39:44.161Z</time></trkpt><trkpt lat="40.98235" lon="0.3928983"><ele>432.99999999999994</ele><time>2026-03-31T09:39:45.161Z</time></trkpt><trkpt lat="40.98244" lon="0.3929067"><ele>433.0</ele><time>2026-03-31T09:39:46.162Z</time></trkpt><trkpt lat="40.9825117" lon="0.39294"><ele>433.0</ele><time>2026-03-31T09:39:47.161Z</time></trkpt><trkpt lat="40.9825683" lon="0.3930817"><ele>430.0</ele><time>2026-03-31T09:39:49.161Z</time></trkpt><trkpt lat="40.9825483" lon="0.3932"><ele>427.0</ele><time>2026-03-31T09:39:50.162Z</time></trkpt><trkpt lat="40.9825083" lon="0.393355"><ele>424.0</ele><time>2026-03-31T09:39:51.162Z</time></trkpt><trkpt lat="40.9824767" lon="0.393535"><ele>421.0</ele><time>2026-03-31T09:39:52.162Z</time></trkpt><trkpt lat="40.9824667" lon="0.3937183"><ele>421.50000000000006</ele><time>2026-03-31T09:39:53.161Z</time></trkpt><trkpt lat="40.9824583" lon="0.3938633"><ele>422.0</ele><time>2026-03-31T09:39:54.161Z</time></trkpt><trkpt lat="40.9824767" lon="0.3939967"><ele>422.5</ele><time>2026-03-31T09:39:55.161Z</time></trkpt><trkpt lat="40.9825167" lon="0.3941033"><ele>423.0</ele><time>2026-03-31T09:39:56.162Z</time></trkpt><trkpt lat="40.9825617" lon="0.39418"><ele>423.50000000000006</ele><time>2026-03-31T09:39:57.161Z</time></trkpt><trkpt lat="40.9826333" lon="0.3941967"><ele>424.0</ele><time>2026-03-31T09:39:58.161Z</time></trkpt><trkpt lat="40.9827117" lon="0.394165"><ele>424.0</ele><time>2026-03-31T09:39:59.162Z</time></trkpt><trkpt lat="40.9828117" lon="0.394095"><ele>424.0</ele><time>2026-03-31T09:40:00.162Z</time></trkpt><trkpt lat="40.9829283" lon="0.3940033"><ele>424.0</ele><time>2026-03-31T09:40:01.162Z</time></trkpt><trkpt lat="40.98304" lon="0.3939233"><ele>424.0</ele><time>2026-03-31T09:40:02.162Z</time></trkpt><trkpt lat="40.9831517" lon="0.393865"><ele>424.0</ele><time>2026-03-31T09:40:03.162Z</time></trkpt><trkpt lat="40.983265" lon="0.393845"><ele>424.0</ele><time>2026-03-31T09:40:04.161Z</time></trkpt><trkpt lat="40.9833683" lon="0.3938383"><ele>424.0</ele><time>2026-03-31T09:40:05.161Z</time></trkpt><trkpt lat="40.9834683" lon="0.3938367"><ele>424.0</ele><time>2026-03-31T09:40:06.161Z</time></trkpt><trkpt lat="40.98357" lon="0.393845"><ele>424.0</ele><time>2026-03-31T09:40:07.162Z</time></trkpt><trkpt lat="40.9836617" lon="0.3938817"><ele>429.79999999999995</ele><time>2026-03-31T09:40:08.161Z</time></trkpt><trkpt lat="40.9837217" lon="0.3939483"><ele>435.59999999999997</ele><time>2026-03-31T09:40:09.162Z</time></trkpt><trkpt lat="40.9837567" lon="0.3940417"><ele>441.4</ele><time>2026-03-31T09:40:10.161Z</time></trkpt><trkpt lat="40.9837567" lon="0.3941533"><ele>447.2</ele><time>2026-03-31T09:40:11.161Z</time></trkpt><trkpt lat="40.98371" lon="0.39428"><ele>453.0</ele><time>2026-03-31T09:40:12.162Z</time></trkpt><trkpt lat="40.98367" lon="0.3944183"><ele>453.0</ele><time>2026-03-31T09:40:13.162Z</time></trkpt><trkpt lat="40.9836433" lon="0.3945467"><ele>453.0</ele><time>2026-03-31T09:40:14.161Z</time></trkpt><trkpt lat="40.9836383" lon="0.3946667"><ele>453.0</ele><time>2026-03-31T09:40:15.162Z</time></trkpt><trkpt lat="40.9836517" lon="0.3947683"><ele>453.0</ele><time>2026-03-31T09:40:16.162Z</time></trkpt><trkpt lat="40.9836883" lon="0.3948383"><ele>453.0</ele><time>2026-03-31T09:40:17.162Z</time></trkpt><trkpt lat="40.983745" lon="0.3949017"><ele>453.0</ele><time>2026-03-31T09:40:18.161Z</time></trkpt><trkpt lat="40.9838183" lon="0.3949517"><ele>451.5</ele><time>2026-03-31T09:40:19.161Z</time></trkpt><trkpt lat="40.9839" lon="0.3950033"><ele>450.0</ele><time>2026-03-31T09:40:20.161Z</time></trkpt><trkpt lat="40.9839683" lon="0.3950933"><ele>448.5</ele><time>2026-03-31T09:40:21.161Z</time></trkpt><trkpt lat="40.9839883" lon="0.395195"><ele>447.0</ele><time>2026-03-31T09:40:22.162Z</time></trkpt><trkpt lat="40.9839817" lon="0.3953"><ele>445.5</ele><time>2026-03-31T09:40:23.161Z</time></trkpt><trkpt lat="40.9839567" lon="0.3954117"><ele>444.0</ele><time>2026-03-31T09:40:24.162Z</time></trkpt><trkpt lat="40.9839467" lon="0.3955083"><ele>444.0</ele><time>2026-03-31T09:40:25.162Z</time></trkpt><trkpt lat="40.9839733" lon="0.39559"><ele>444.0</ele><time>2026-03-31T09:40:26.162Z</time></trkpt><trkpt lat="40.984045" lon="0.3956633"><ele>444.0</ele><time>2026-03-31T09:40:27.162Z</time></trkpt><trkpt lat="40.9841217" lon="0.3957383"><ele>444.0</ele><time>2026-03-31T09:40:28.161Z</time></trkpt><trkpt lat="40.984185" lon="0.39582"><ele>444.0</ele><time>2026-03-31T09:40:29.161Z</time></trkpt><trkpt lat="40.984235" lon="0.3958933"><ele>444.0</ele><time>2026-03-31T09:40:30.161Z</time></trkpt><trkpt lat="40.9842933" lon="0.39593"><ele>444.0</ele><time>2026-03-31T09:40:31.161Z</time></trkpt><trkpt lat="40.9843567" lon="0.395915"><ele>444.0</ele><time>2026-03-31T09:40:32.161Z</time></trkpt><trkpt lat="40.9844333" lon="0.3958717"><ele>444.0</ele><time>2026-03-31T09:40:33.161Z</time></trkpt><trkpt lat="40.98453" lon="0.39579"><ele>444.0</ele><time>2026-03-31T09:40:34.162Z</time></trkpt><trkpt lat="40.984635" lon="0.3957067"><ele>444.0</ele><time>2026-03-31T09:40:35.161Z</time></trkpt><trkpt lat="40.9847367" lon="0.395645"><ele>444.0</ele><time>2026-03-31T09:40:36.162Z</time></trkpt><trkpt lat="40.984835" lon="0.39561"><ele>444.0</ele><time>2026-03-31T09:40:37.162Z</time></trkpt><trkpt lat="40.98492" lon="0.395635"><ele>444.0</ele><time>2026-03-31T09:40:38.162Z</time></trkpt><trkpt lat="40.984995" lon="0.3957117"><ele>444.0</ele><time>2026-03-31T09:40:39.162Z</time></trkpt><trkpt lat="40.9850683" lon="0.39582"><ele>444.0</ele><time>2026-03-31T09:40:40.162Z</time></trkpt><trkpt lat="40.9851417" lon="0.3959417"><ele>445.0</ele><time>2026-03-31T09:40:41.161Z</time></trkpt><trkpt lat="40.985235" lon="0.39605"><ele>446.0</ele><time>2026-03-31T09:40:42.162Z</time></trkpt><trkpt lat="40.98532" lon="0.3961717"><ele>447.0</ele><time>2026-03-31T09:40:43.161Z</time></trkpt><trkpt lat="40.985385" lon="0.3963033"><ele>448.0</ele><time>2026-03-31T09:40:44.162Z</time></trkpt><trkpt lat="40.9854317" lon="0.3964217"><ele>448.0</ele><time>2026-03-31T09:40:45.161Z</time></trkpt><trkpt lat="40.9854883" lon="0.3965117"><ele>447.99999999999994</ele><time>2026-03-31T09:40:46.161Z</time></trkpt><trkpt lat="40.9855517" lon="0.3965783"><ele>447.99999999999994</ele><time>2026-03-31T09:40:47.161Z</time></trkpt><trkpt lat="40.98564" lon="0.3966367"><ele>448.0</ele><time>2026-03-31T09:40:48.161Z</time></trkpt><trkpt lat="40.98573" lon="0.3967067"><ele>448.0</ele><time>2026-03-31T09:40:49.161Z</time></trkpt><trkpt lat="40.9858017" lon="0.3968083"><ele>448.00000000000006</ele><time>2026-03-31T09:40:50.162Z</time></trkpt><trkpt lat="40.9858417" lon="0.3969333"><ele>448.0</ele><time>2026-03-31T09:40:51.162Z</time></trkpt><trkpt lat="40.9858617" lon="0.3970433"><ele>448.0</ele><time>2026-03-31T09:40:52.162Z</time></trkpt><trkpt lat="40.9858867" lon="0.397145"><ele>448.0</ele><time>2026-03-31T09:40:53.161Z</time></trkpt><trkpt lat="40.9859333" lon="0.3972133"><ele>448.00000000000006</ele><time>2026-03-31T09:40:54.162Z</time></trkpt><trkpt lat="40.9860017" lon="0.39725"><ele>448.0</ele><time>2026-03-31T09:40:55.162Z</time></trkpt><trkpt lat="40.9860967" lon="0.3972767"><ele>451.0</ele><time>2026-03-31T09:40:56.162Z</time></trkpt><trkpt lat="40.9861983" lon="0.39732"><ele>454.0</ele><time>2026-03-31T09:40:57.162Z</time></trkpt><trkpt lat="40.9863033" lon="0.397395"><ele>457.0</ele><time>2026-03-31T09:40:58.161Z</time></trkpt><trkpt lat="40.9863983" lon="0.3974867"><ele>460.0</ele><time>2026-03-31T09:40:59.161Z</time></trkpt><trkpt lat="40.9864767" lon="0.3976183"><ele>460.0</ele><time>2026-03-31T09:41:00.162Z</time></trkpt><trkpt lat="40.9865283" lon="0.3977633"><ele>460.0</ele><time>2026-03-31T09:41:01.162Z</time></trkpt><trkpt lat="40.9865783" lon="0.39793"><ele>460.0</ele><time>2026-03-31T09:41:02.161Z</time></trkpt><trkpt lat="40.9866317" lon="0.39809"><ele>460.0</ele><time>2026-03-31T09:41:03.162Z</time></trkpt><trkpt lat="40.9866867" lon="0.398245"><ele>463.2</ele><time>2026-03-31T09:41:04.161Z</time></trkpt><trkpt lat="40.98675" lon="0.3983967"><ele>466.4</ele><time>2026-03-31T09:41:05.161Z</time></trkpt><trkpt lat="40.98679" lon="0.3985433"><ele>469.6</ele><time>2026-03-31T09:41:06.161Z</time></trkpt><trkpt lat="40.98679" lon="0.3986683"><ele>472.8</ele><time>2026-03-31T09:41:07.161Z</time></trkpt><trkpt lat="40.986745" lon="0.3987883"><ele>476.0</ele><time>2026-03-31T09:41:08.161Z</time></trkpt><trkpt lat="40.9866933" lon="0.3989183"><ele>476.0</ele><time>2026-03-31T09:41:09.161Z</time></trkpt><trkpt lat="40.9866667" lon="0.399035"><ele>476.0</ele><time>2026-03-31T09:41:10.162Z</time></trkpt><trkpt lat="40.9866833" lon="0.39916"><ele>476.0</ele><time>2026-03-31T09:41:11.162Z</time></trkpt><trkpt lat="40.9867367" lon="0.3992733"><ele>476.0</ele><time>2026-03-31T09:41:12.161Z</time></trkpt><trkpt lat="40.98682" lon="0.3993467"><ele>476.0</ele><time>2026-03-31T09:41:13.161Z</time></trkpt><trkpt lat="40.986935" lon="0.3993717"><ele>476.0</ele><time>2026-03-31T09:41:14.161Z</time></trkpt><trkpt lat="40.9870467" lon="0.3993533"><ele>476.0</ele><time>2026-03-31T09:41:15.161Z</time></trkpt><trkpt lat="40.9871517" lon="0.3992983"><ele>476.0</ele><time>2026-03-31T09:41:16.162Z</time></trkpt><trkpt lat="40.9872233" lon="0.3992083"><ele>476.0</ele><time>2026-03-31T09:41:17.162Z</time></trkpt><trkpt lat="40.9872483" lon="0.3990517"><ele>476.0</ele><time>2026-03-31T09:41:18.162Z</time></trkpt><trkpt lat="40.9872583" lon="0.3988783"><ele>477.0</ele><time>2026-03-31T09:41:19.161Z</time></trkpt><trkpt lat="40.9872533" lon="0.3986983"><ele>478.0</ele><time>2026-03-31T09:41:20.161Z</time></trkpt><trkpt lat="40.9872233" lon="0.3985083"><ele>479.0</ele><time>2026-03-31T09:41:21.162Z</time></trkpt><trkpt lat="40.9871683" lon="0.398315"><ele>480.0</ele><time>2026-03-31T09:41:22.162Z</time></trkpt><trkpt lat="40.9870983" lon="0.3981167"><ele>477.33333333333337</ele><time>2026-03-31T09:41:23.162Z</time></trkpt><trkpt lat="40.987025" lon="0.397905"><ele>474.6666666666667</ele><time>2026-03-31T09:41:24.161Z</time></trkpt><trkpt lat="40.9869633" lon="0.3977033"><ele>472.0</ele><time>2026-03-31T09:41:25.161Z</time></trkpt><trkpt lat="40.9869017" lon="0.3975033"><ele>472.0</ele><time>2026-03-31T09:41:26.161Z</time></trkpt><trkpt lat="40.9868317" lon="0.3973183"><ele>472.0</ele><time>2026-03-31T09:41:27.161Z</time></trkpt><trkpt lat="40.9867667" lon="0.3971467"><ele>472.0</ele><time>2026-03-31T09:41:28.161Z</time></trkpt><trkpt lat="40.9867117" lon="0.3969767"><ele>472.0</ele><time>2026-03-31T09:41:29.161Z</time></trkpt><trkpt lat="40.986655" lon="0.3968333"><ele>471.8</ele><time>2026-03-31T09:41:30.162Z</time></trkpt><trkpt lat="40.9865983" lon="0.396705"><ele>471.6</ele><time>2026-03-31T09:41:31.161Z</time></trkpt><trkpt lat="40.98655" lon="0.3965817"><ele>471.40000000000003</ele><time>2026-03-31T09:41:32.161Z</time></trkpt><trkpt lat="40.986535" lon="0.396475"><ele>471.20000000000005</ele><time>2026-03-31T09:41:33.161Z</time></trkpt><trkpt lat="40.98654" lon="0.39637"><ele>471.0</ele><time>2026-03-31T09:41:34.161Z</time></trkpt><trkpt lat="40.9865467" lon="0.3962567"><ele>470.20000000000005</ele><time>2026-03-31T09:41:35.161Z</time></trkpt><trkpt lat="40.9865667" lon="0.3961433"><ele>469.40000000000003</ele><time>2026-03-31T09:41:36.161Z</time></trkpt><trkpt lat="40.9865867" lon="0.396055"><ele>468.6</ele><time>2026-03-31T09:41:37.161Z</time></trkpt><trkpt lat="40.98667" lon="0.3959883"><ele>467.8</ele><time>2026-03-31T09:41:39.162Z</time></trkpt><trkpt lat="40.9867467" lon="0.3960117"><ele>467.0</ele><time>2026-03-31T09:41:40.161Z</time></trkpt><trkpt lat="40.9868533" lon="0.3960933"><ele>465.16666666666663</ele><time>2026-03-31T09:41:41.161Z</time></trkpt><trkpt lat="40.986915" lon="0.3961467"><ele>463.3333333333333</ele><time>2026-03-31T09:41:42.161Z</time></trkpt><trkpt lat="40.9869683" lon="0.396225"><ele>461.5</ele><time>2026-03-31T09:41:43.162Z</time></trkpt><trkpt lat="40.9869983" lon="0.3963233"><ele>459.66666666666663</ele><time>2026-03-31T09:41:44.162Z</time></trkpt><trkpt lat="40.9870183" lon="0.396435"><ele>457.8333333333333</ele><time>2026-03-31T09:41:45.162Z</time></trkpt><trkpt lat="40.987045" lon="0.3965567"><ele>456.0</ele><time>2026-03-31T09:41:46.161Z</time></trkpt><trkpt lat="40.9870783" lon="0.3966733"><ele>456.0</ele><time>2026-03-31T09:41:47.161Z</time></trkpt><trkpt lat="40.9871233" lon="0.3967967"><ele>456.0</ele><time>2026-03-31T09:41:48.162Z</time></trkpt><trkpt lat="40.9871767" lon="0.39692"><ele>456.0</ele><time>2026-03-31T09:41:49.162Z</time></trkpt><trkpt lat="40.9872367" lon="0.39706"><ele>456.0</ele><time>2026-03-31T09:41:50.161Z</time></trkpt><trkpt lat="40.9873033" lon="0.397195"><ele>457.75</ele><time>2026-03-31T09:41:51.162Z</time></trkpt><trkpt lat="40.9873767" lon="0.3973283"><ele>459.5</ele><time>2026-03-31T09:41:52.162Z</time></trkpt><trkpt lat="40.98746" lon="0.397465"><ele>461.25</ele><time>2026-03-31T09:41:53.162Z</time></trkpt><trkpt lat="40.9875683" lon="0.397565"><ele>463.0</ele><time>2026-03-31T09:41:54.16Z</time></trkpt><trkpt lat="40.9876933" lon="0.3976083"><ele>463.0</ele><time>2026-03-31T09:41:55.161Z</time></trkpt><trkpt lat="40.987825" lon="0.397625"><ele>463.0</ele><time>2026-03-31T09:41:56.16Z</time></trkpt><trkpt lat="40.9879567" lon="0.397645"><ele>463.0</ele><time>2026-03-31T09:41:57.16Z</time></trkpt><trkpt lat="40.9880867" lon="0.39768"><ele>463.0</ele><time>2026-03-31T09:41:58.16Z</time></trkpt><trkpt lat="40.9882117" lon="0.3977033"><ele>463.0</ele><time>2026-03-31T09:41:59.161Z</time></trkpt><trkpt lat="40.9883333" lon="0.3977183"><ele>463.0</ele><time>2026-03-31T09:42:00.16Z</time></trkpt><trkpt lat="40.9884633" lon="0.3977267"><ele>463.0</ele><time>2026-03-31T09:42:01.161Z</time></trkpt><trkpt lat="40.988585" lon="0.3977533"><ele>463.0</ele><time>2026-03-31T09:42:02.161Z</time></trkpt><trkpt lat="40.988705" lon="0.3977783"><ele>460.75</ele><time>2026-03-31T09:42:03.161Z</time></trkpt><trkpt lat="40.9888283" lon="0.3977983"><ele>458.5</ele><time>2026-03-31T09:42:04.16Z</time></trkpt><trkpt lat="40.9889467" lon="0.3977917"><ele>456.25</ele><time>2026-03-31T09:42:05.161Z</time></trkpt><trkpt lat="40.98906" lon="0.3977567"><ele>454.0</ele><time>2026-03-31T09:42:06.161Z</time></trkpt><trkpt lat="40.989165" lon="0.3977133"><ele>455.0</ele><time>2026-03-31T09:42:07.16Z</time></trkpt><trkpt lat="40.9892617" lon="0.397685"><ele>456.0</ele><time>2026-03-31T09:42:08.161Z</time></trkpt><trkpt lat="40.9893567" lon="0.3976867"><ele>457.0</ele><time>2026-03-31T09:42:09.161Z</time></trkpt><trkpt lat="40.98945" lon="0.3977517"><ele>458.0</ele><time>2026-03-31T09:42:10.16Z</time></trkpt><trkpt lat="40.9895567" lon="0.39783"><ele>459.0</ele><time>2026-03-31T09:42:11.16Z</time></trkpt><trkpt lat="40.98967" lon="0.3979267"><ele>461.0</ele><time>2026-03-31T09:42:12.16Z</time></trkpt><trkpt lat="40.98979" lon="0.398005"><ele>463.0</ele><time>2026-03-31T09:42:13.161Z</time></trkpt><trkpt lat="40.9899083" lon="0.3980767"><ele>465.0</ele><time>2026-03-31T09:42:14.16Z</time></trkpt><trkpt lat="40.9900183" lon="0.3981417"><ele>467.0</ele><time>2026-03-31T09:42:15.16Z</time></trkpt><trkpt lat="40.9901217" lon="0.3981783"><ele>469.6</ele><time>2026-03-31T09:42:16.161Z</time></trkpt><trkpt lat="40.9902167" lon="0.3981883"><ele>472.20000000000005</ele><time>2026-03-31T09:42:17.161Z</time></trkpt><trkpt lat="40.9903067" lon="0.39816"><ele>474.8</ele><time>2026-03-31T09:42:18.16Z</time></trkpt><trkpt lat="40.990375" lon="0.3981"><ele>477.4</ele><time>2026-03-31T09:42:19.161Z</time></trkpt><trkpt lat="40.9904117" lon="0.3980017"><ele>480.0</ele><time>2026-03-31T09:42:20.16Z</time></trkpt><trkpt lat="40.9904283" lon="0.3978633"><ele>483.5</ele><time>2026-03-31T09:42:21.16Z</time></trkpt><trkpt lat="40.9904133" lon="0.3977083"><ele>487.0</ele><time>2026-03-31T09:42:22.16Z</time></trkpt><trkpt lat="40.99039" lon="0.3975383"><ele>490.5</ele><time>2026-03-31T09:42:23.16Z</time></trkpt><trkpt lat="40.9903533" lon="0.39737"><ele>494.0</ele><time>2026-03-31T09:42:24.16Z</time></trkpt><trkpt lat="40.9903083" lon="0.3972033"><ele>491.79999999999995</ele><time>2026-03-31T09:42:25.16Z</time></trkpt><trkpt lat="40.990245" lon="0.3970617"><ele>489.59999999999997</ele><time>2026-03-31T09:42:26.16Z</time></trkpt><trkpt lat="40.9901933" lon="0.3969283"><ele>487.4</ele><time>2026-03-31T09:42:27.16Z</time></trkpt><trkpt lat="40.99018" lon="0.3968"><ele>485.2</ele><time>2026-03-31T09:42:28.161Z</time></trkpt><trkpt lat="40.9901817" lon="0.39666"><ele>483.0</ele><time>2026-03-31T09:42:29.161Z</time></trkpt><trkpt lat="40.99017" lon="0.3965033"><ele>483.0</ele><time>2026-03-31T09:42:30.161Z</time></trkpt><trkpt lat="40.990145" lon="0.39634"><ele>483.0</ele><time>2026-03-31T09:42:31.16Z</time></trkpt><trkpt lat="40.9901067" lon="0.3961817"><ele>483.0</ele><time>2026-03-31T09:42:32.16Z</time></trkpt><trkpt lat="40.9900467" lon="0.3960333"><ele>483.0</ele><time>2026-03-31T09:42:33.161Z</time></trkpt><trkpt lat="40.9899833" lon="0.3958967"><ele>477.59999999999997</ele><time>2026-03-31T09:42:34.16Z</time></trkpt><trkpt lat="40.9899233" lon="0.3957717"><ele>472.19999999999993</ele><time>2026-03-31T09:42:35.161Z</time></trkpt><trkpt lat="40.9898683" lon="0.3956867"><ele>466.8</ele><time>2026-03-31T09:42:36.16Z</time></trkpt><trkpt lat="40.9898267" lon="0.3955517"><ele>461.4</ele><time>2026-03-31T09:42:38.16Z</time></trkpt><trkpt lat="40.9898667" lon="0.39548"><ele>456.0</ele><time>2026-03-31T09:42:40.16Z</time></trkpt><trkpt lat="40.9899817" lon="0.39548"><ele>457.20000000000005</ele><time>2026-03-31T09:42:42.161Z</time></trkpt><trkpt lat="40.990075" lon="0.3955333"><ele>458.40000000000003</ele><time>2026-03-31T09:42:43.161Z</time></trkpt><trkpt lat="40.9901683" lon="0.3955583"><ele>459.6</ele><time>2026-03-31T09:42:44.161Z</time></trkpt><trkpt lat="40.9902433" lon="0.39558"><ele>460.8</ele><time>2026-03-31T09:42:45.16Z</time></trkpt><trkpt lat="40.9903067" lon="0.3956017"><ele>462.0</ele><time>2026-03-31T09:42:46.16Z</time></trkpt><trkpt lat="40.9904067" lon="0.3956867"><ele>462.0</ele><time>2026-03-31T09:42:48.161Z</time></trkpt><trkpt lat="40.9904467" lon="0.395825"><ele>462.0</ele><time>2026-03-31T09:42:50.161Z</time></trkpt><trkpt lat="40.9904533" lon="0.3959133"><ele>462.0</ele><time>2026-03-31T09:42:51.16Z</time></trkpt><trkpt lat="40.9904717" lon="0.3960217"><ele>462.0</ele><time>2026-03-31T09:42:52.16Z</time></trkpt><trkpt lat="40.9904917" lon="0.3961167"><ele>462.0</ele><time>2026-03-31T09:42:53.161Z</time></trkpt><trkpt lat="40.9905333" lon="0.3962067"><ele>462.0</ele><time>2026-03-31T09:42:54.16Z</time></trkpt><trkpt lat="40.9905917" lon="0.3962683"><ele>462.0</ele><time>2026-03-31T09:42:55.16Z</time></trkpt><trkpt lat="40.9906567" lon="0.3962933"><ele>462.0</ele><time>2026-03-31T09:42:56.16Z</time></trkpt><trkpt lat="40.990725" lon="0.396295"><ele>462.0</ele><time>2026-03-31T09:42:57.161Z</time></trkpt><trkpt lat="40.9907983" lon="0.3962767"><ele>462.0</ele><time>2026-03-31T09:42:58.161Z</time></trkpt><trkpt lat="40.9908617" lon="0.3962667"><ele>462.0</ele><time>2026-03-31T09:42:59.16Z</time></trkpt><trkpt lat="40.9909833" lon="0.39627"><ele>462.0</ele><time>2026-03-31T09:43:01.161Z</time></trkpt><trkpt lat="40.991055" lon="0.3961733"><ele>467.6</ele><time>2026-03-31T09:43:03.161Z</time></trkpt><trkpt lat="40.9910583" lon="0.3960883"><ele>473.20000000000005</ele><time>2026-03-31T09:43:04.16Z</time></trkpt><trkpt lat="40.9910517" lon="0.3959833"><ele>478.8</ele><time>2026-03-31T09:43:05.16Z</time></trkpt><trkpt lat="40.991035" lon="0.3958517"><ele>484.4</ele><time>2026-03-31T09:43:06.16Z</time></trkpt><trkpt lat="40.9910217" lon="0.3957167"><ele>490.0</ele><time>2026-03-31T09:43:07.161Z</time></trkpt><trkpt lat="40.9910117" lon="0.3955817"><ele>483.2</ele><time>2026-03-31T09:43:08.161Z</time></trkpt><trkpt lat="40.9909967" lon="0.3954417"><ele>476.4</ele><time>2026-03-31T09:43:09.16Z</time></trkpt><trkpt lat="40.9910083" lon="0.3953117"><ele>469.6</ele><time>2026-03-31T09:43:10.16Z</time></trkpt><trkpt lat="40.9910433" lon="0.3952033"><ele>462.8</ele><time>2026-03-31T09:43:11.16Z</time></trkpt><trkpt lat="40.9911067" lon="0.3951167"><ele>456.0</ele><time>2026-03-31T09:43:12.161Z</time></trkpt><trkpt lat="40.991195" lon="0.39505"><ele>456.0</ele><time>2026-03-31T09:43:13.16Z</time></trkpt><trkpt lat="40.991295" lon="0.394995"><ele>456.0</ele><time>2026-03-31T09:43:14.161Z</time></trkpt><trkpt lat="40.991385" lon="0.3949383"><ele>456.0</ele><time>2026-03-31T09:43:15.16Z</time></trkpt><trkpt lat="40.991475" lon="0.3948733"><ele>456.0</ele><time>2026-03-31T09:43:16.161Z</time></trkpt><trkpt lat="40.9915483" lon="0.39478"><ele>456.0</ele><time>2026-03-31T09:43:17.16Z</time></trkpt><trkpt lat="40.991625" lon="0.3947067"><ele>457.20000000000005</ele><time>2026-03-31T09:43:18.161Z</time></trkpt><trkpt lat="40.9917117" lon="0.3946383"><ele>458.40000000000003</ele><time>2026-03-31T09:43:19.16Z</time></trkpt><trkpt lat="40.9917933" lon="0.3946133"><ele>459.6</ele><time>2026-03-31T09:43:20.16Z</time></trkpt><trkpt lat="40.9918833" lon="0.3946283"><ele>460.8</ele><time>2026-03-31T09:43:21.161Z</time></trkpt><trkpt lat="40.99197" lon="0.3946483"><ele>462.0</ele><time>2026-03-31T09:43:22.161Z</time></trkpt><trkpt lat="40.9920583" lon="0.3946667"><ele>462.0</ele><time>2026-03-31T09:43:23.16Z</time></trkpt><trkpt lat="40.992145" lon="0.39465"><ele>462.0</ele><time>2026-03-31T09:43:24.16Z</time></trkpt><trkpt lat="40.9922167" lon="0.394595"><ele>462.0</ele><time>2026-03-31T09:43:25.161Z</time></trkpt><trkpt lat="40.992255" lon="0.3945083"><ele>462.0</ele><time>2026-03-31T09:43:26.16Z</time></trkpt><trkpt lat="40.9922717" lon="0.3944083"><ele>462.0</ele><time>2026-03-31T09:43:27.161Z</time></trkpt><trkpt lat="40.99224" lon="0.3943167"><ele>462.0</ele><time>2026-03-31T09:43:28.16Z</time></trkpt><trkpt lat="40.9921817" lon="0.3942233"><ele>462.0</ele><time>2026-03-31T09:43:29.16Z</time></trkpt><trkpt lat="40.9921133" lon="0.3941167"><ele>462.00000000000006</ele><time>2026-03-31T09:43:30.161Z</time></trkpt><trkpt lat="40.9920617" lon="0.394"><ele>462.00000000000006</ele><time>2026-03-31T09:43:31.161Z</time></trkpt><trkpt lat="40.9920267" lon="0.3938783"><ele>462.0</ele><time>2026-03-31T09:43:32.16Z</time></trkpt><trkpt lat="40.9920267" lon="0.3937783"><ele>462.0</ele><time>2026-03-31T09:43:33.16Z</time></trkpt><trkpt lat="40.9921" lon="0.3936817"><ele>460.0</ele><time>2026-03-31T09:43:35.16Z</time></trkpt><trkpt lat="40.9922417" lon="0.3936967"><ele>458.00000000000006</ele><time>2026-03-31T09:43:37.16Z</time></trkpt><trkpt lat="40.9923367" lon="0.3936967"><ele>456.00000000000006</ele><time>2026-03-31T09:43:38.161Z</time></trkpt><trkpt lat="40.9924333" lon="0.3936783"><ele>454.0</ele><time>2026-03-31T09:43:39.161Z</time></trkpt><trkpt lat="40.992525" lon="0.3936333"><ele>452.0</ele><time>2026-03-31T09:43:40.16Z</time></trkpt><trkpt lat="40.9926033" lon="0.393565"><ele>451.99999999999994</ele><time>2026-03-31T09:43:41.161Z</time></trkpt><trkpt lat="40.99267" lon="0.3934667"><ele>452.0</ele><time>2026-03-31T09:43:42.16Z</time></trkpt><trkpt lat="40.9927133" lon="0.393345"><ele>452.0</ele><time>2026-03-31T09:43:43.161Z</time></trkpt><trkpt lat="40.9927317" lon="0.3932217"><ele>452.0</ele><time>2026-03-31T09:43:44.161Z</time></trkpt><trkpt lat="40.992765" lon="0.3931267"><ele>451.99999999999994</ele><time>2026-03-31T09:43:45.161Z</time></trkpt><trkpt lat="40.99281" lon="0.3930667"><ele>452.0</ele><time>2026-03-31T09:43:46.161Z</time></trkpt><trkpt lat="40.99294" lon="0.3930833"><ele>452.0</ele><time>2026-03-31T09:43:48.16Z</time></trkpt><trkpt lat="40.9930383" lon="0.393145"><ele>452.00000000000006</ele><time>2026-03-31T09:43:49.16Z</time></trkpt><trkpt lat="40.9931217" lon="0.393195"><ele>452.00000000000006</ele><time>2026-03-31T09:43:50.161Z</time></trkpt><trkpt lat="40.9932067" lon="0.3932383"><ele>452.0</ele><time>2026-03-31T09:43:51.161Z</time></trkpt><trkpt lat="40.9932833" lon="0.39325"><ele>452.0</ele><time>2026-03-31T09:43:52.16Z</time></trkpt><trkpt lat="40.9933717" lon="0.3931967"><ele>452.0</ele><time>2026-03-31T09:43:54.16Z</time></trkpt><trkpt lat="40.9933617" lon="0.39311"><ele>452.00000000000006</ele><time>2026-03-31T09:43:56.16Z</time></trkpt><trkpt lat="40.9932267" lon="0.3930517"><ele>452.00000000000006</ele><time>2026-03-31T09:43:58.16Z</time></trkpt><trkpt lat="40.9931417" lon="0.3930217"><ele>452.0</ele><time>2026-03-31T09:43:59.161Z</time></trkpt><trkpt lat="40.9930533" lon="0.392985"><ele>452.0</ele><time>2026-03-31T09:44:00.161Z</time></trkpt><trkpt lat="40.992965" lon="0.3929333"><ele>447.3333333333333</ele><time>2026-03-31T09:44:01.16Z</time></trkpt><trkpt lat="40.99288" lon="0.3928667"><ele>442.66666666666663</ele><time>2026-03-31T09:44:02.16Z</time></trkpt><trkpt lat="40.9928017" lon="0.3928"><ele>438.0</ele><time>2026-03-31T09:44:03.16Z</time></trkpt><trkpt lat="40.9927233" lon="0.392745"><ele>433.33333333333337</ele><time>2026-03-31T09:44:04.161Z</time></trkpt><trkpt lat="40.9926533" lon="0.392725"><ele>428.6666666666667</ele><time>2026-03-31T09:44:05.161Z</time></trkpt><trkpt lat="40.9925817" lon="0.39275"><ele>424.0</ele><time>2026-03-31T09:44:06.161Z</time></trkpt><trkpt lat="40.99253" lon="0.3928133"><ele>423.1666666666667</ele><time>2026-03-31T09:44:07.16Z</time></trkpt><trkpt lat="40.992495" lon="0.39292"><ele>422.33333333333337</ele><time>2026-03-31T09:44:08.16Z</time></trkpt><trkpt lat="40.9924633" lon="0.3930467"><ele>421.5</ele><time>2026-03-31T09:44:09.161Z</time></trkpt><trkpt lat="40.9924117" lon="0.393145"><ele>420.66666666666663</ele><time>2026-03-31T09:44:10.16Z</time></trkpt><trkpt lat="40.9923467" lon="0.3932083"><ele>419.8333333333333</ele><time>2026-03-31T09:44:11.161Z</time></trkpt><trkpt lat="40.9922717" lon="0.39324"><ele>419.0</ele><time>2026-03-31T09:44:12.16Z</time></trkpt><trkpt lat="40.9921933" lon="0.39322"><ele>419.0</ele><time>2026-03-31T09:44:13.16Z</time></trkpt><trkpt lat="40.992105" lon="0.3931583"><ele>419.0</ele><time>2026-03-31T09:44:14.161Z</time></trkpt><trkpt lat="40.9920117" lon="0.3930633"><ele>419.0</ele><time>2026-03-31T09:44:15.16Z</time></trkpt><trkpt lat="40.991915" lon="0.39297"><ele>419.0</ele><time>2026-03-31T09:44:16.16Z</time></trkpt><trkpt lat="40.9918233" lon="0.39289"><ele>419.0</ele><time>2026-03-31T09:44:17.16Z</time></trkpt><trkpt lat="40.9917483" lon="0.392835"><ele>419.0</ele><time>2026-03-31T09:44:18.16Z</time></trkpt><trkpt lat="40.9917" lon="0.3927683"><ele>419.0</ele><time>2026-03-31T09:44:19.161Z</time></trkpt><trkpt lat="40.9917033" lon="0.3926317"><ele>419.0</ele><time>2026-03-31T09:44:21.161Z</time></trkpt><trkpt lat="40.9918083" lon="0.3926317"><ele>419.0</ele><time>2026-03-31T09:44:23.161Z</time></trkpt><trkpt lat="40.991875" lon="0.392695"><ele>419.0</ele><time>2026-03-31T09:44:24.16Z</time></trkpt><trkpt lat="40.9919583" lon="0.3927817"><ele>419.0</ele><time>2026-03-31T09:44:25.16Z</time></trkpt><trkpt lat="40.9920567" lon="0.39288"><ele>419.0</ele><time>2026-03-31T09:44:26.16Z</time></trkpt><trkpt lat="40.9921433" lon="0.392945"><ele>419.0</ele><time>2026-03-31T09:44:27.161Z</time></trkpt><trkpt lat="40.992235" lon="0.3929733"><ele>419.0</ele><time>2026-03-31T09:44:28.16Z</time></trkpt><trkpt lat="40.9923233" lon="0.3929583"><ele>419.0</ele><time>2026-03-31T09:44:29.16Z</time></trkpt><trkpt lat="40.992385" lon="0.3929"><ele>419.0</ele><time>2026-03-31T09:44:30.161Z</time></trkpt><trkpt lat="40.9924083" lon="0.3927833"><ele>419.0</ele><time>2026-03-31T09:44:31.161Z</time></trkpt><trkpt lat="40.9924217" lon="0.392635"><ele>419.0</ele><time>2026-03-31T09:44:32.161Z</time></trkpt><trkpt lat="40.992435" lon="0.3924633"><ele>419.0</ele><time>2026-03-31T09:44:33.16Z</time></trkpt><trkpt lat="40.9924583" lon="0.3922983"><ele>415.79999999999995</ele><time>2026-03-31T09:44:34.161Z</time></trkpt><trkpt lat="40.9924817" lon="0.392145"><ele>412.59999999999997</ele><time>2026-03-31T09:44:35.16Z</time></trkpt><trkpt lat="40.9925017" lon="0.39201"><ele>409.4</ele><time>2026-03-31T09:44:36.16Z</time></trkpt><trkpt lat="40.9925183" lon="0.3918783"><ele>406.2</ele><time>2026-03-31T09:44:37.16Z</time></trkpt><trkpt lat="40.99255" lon="0.3917817"><ele>403.0</ele><time>2026-03-31T09:44:38.16Z</time></trkpt><trkpt lat="40.992645" lon="0.39171"><ele>403.0</ele><time>2026-03-31T09:44:40.161Z</time></trkpt><trkpt lat="40.992765" lon="0.3918433"><ele>403.0</ele><time>2026-03-31T09:44:42.16Z</time></trkpt><trkpt lat="40.9928483" lon="0.3919783"><ele>403.0</ele><time>2026-03-31T09:44:43.16Z</time></trkpt><trkpt lat="40.9929433" lon="0.39213"><ele>403.0</ele><time>2026-03-31T09:44:44.16Z</time></trkpt><trkpt lat="40.9930367" lon="0.39226"><ele>407.2</ele><time>2026-03-31T09:44:45.16Z</time></trkpt><trkpt lat="40.9931233" lon="0.3923667"><ele>411.4</ele><time>2026-03-31T09:44:46.16Z</time></trkpt><trkpt lat="40.9932" lon="0.39245"><ele>415.59999999999997</ele><time>2026-03-31T09:44:47.16Z</time></trkpt><trkpt lat="40.9932983" lon="0.3925083"><ele>419.79999999999995</ele><time>2026-03-31T09:44:48.16Z</time></trkpt><trkpt lat="40.9933917" lon="0.3925183"><ele>424.0</ele><time>2026-03-31T09:44:49.161Z</time></trkpt><trkpt lat="40.9934867" lon="0.3924683"><ele>425.5</ele><time>2026-03-31T09:44:50.16Z</time></trkpt><trkpt lat="40.9935583" lon="0.3923417"><ele>427.0</ele><time>2026-03-31T09:44:51.16Z</time></trkpt><trkpt lat="40.9936033" lon="0.3921767"><ele>428.5</ele><time>2026-03-31T09:44:52.16Z</time></trkpt><trkpt lat="40.9936317" lon="0.3919817"><ele>430.0</ele><time>2026-03-31T09:44:53.16Z</time></trkpt><trkpt lat="40.9936483" lon="0.3917683"><ele>425.33333333333337</ele><time>2026-03-31T09:44:54.16Z</time></trkpt><trkpt lat="40.9936683" lon="0.3915467"><ele>420.66666666666663</ele><time>2026-03-31T09:44:55.16Z</time></trkpt><trkpt lat="40.9936683" lon="0.3913183"><ele>416.0</ele><time>2026-03-31T09:44:56.161Z</time></trkpt><trkpt lat="40.993655" lon="0.3911117"><ele>412.75</ele><time>2026-03-31T09:44:57.161Z</time></trkpt><trkpt lat="40.9936483" lon="0.3909083"><ele>409.5</ele><time>2026-03-31T09:44:58.161Z</time></trkpt><trkpt lat="40.9936533" lon="0.390715"><ele>406.25</ele><time>2026-03-31T09:44:59.16Z</time></trkpt><trkpt lat="40.9936533" lon="0.39053"><ele>403.0</ele><time>2026-03-31T09:45:00.161Z</time></trkpt><trkpt lat="40.9936367" lon="0.39035"><ele>398.75</ele><time>2026-03-31T09:45:01.16Z</time></trkpt><trkpt lat="40.9935867" lon="0.3901817"><ele>394.5</ele><time>2026-03-31T09:45:02.16Z</time></trkpt><trkpt lat="40.993505" lon="0.3900517"><ele>390.25</ele><time>2026-03-31T09:45:03.161Z</time></trkpt><trkpt lat="40.993425" lon="0.38994"><ele>386.0</ele><time>2026-03-31T09:45:04.16Z</time></trkpt><trkpt lat="40.99336" lon="0.389805"><ele>387.0</ele><time>2026-03-31T09:45:05.161Z</time></trkpt><trkpt lat="40.99332" lon="0.3896467"><ele>388.0</ele><time>2026-03-31T09:45:06.161Z</time></trkpt><trkpt lat="40.99328" lon="0.3894767"><ele>389.0</ele><time>2026-03-31T09:45:07.161Z</time></trkpt><trkpt lat="40.99321" lon="0.3893117"><ele>390.0</ele><time>2026-03-31T09:45:08.161Z</time></trkpt><trkpt lat="40.9931267" lon="0.3891533"><ele>390.0</ele><time>2026-03-31T09:45:09.161Z</time></trkpt><trkpt lat="40.993045" lon="0.3889933"><ele>390.0</ele><time>2026-03-31T09:45:10.161Z</time></trkpt><trkpt lat="40.9929817" lon="0.3888333"><ele>390.0</ele><time>2026-03-31T09:45:11.16Z</time></trkpt><trkpt lat="40.99292" lon="0.38866"><ele>390.0</ele><time>2026-03-31T09:45:12.161Z</time></trkpt><trkpt lat="40.9928733" lon="0.38852"><ele>388.2</ele><time>2026-03-31T09:45:13.16Z</time></trkpt><trkpt lat="40.9928483" lon="0.38841"><ele>386.4</ele><time>2026-03-31T09:45:14.16Z</time></trkpt><trkpt lat="40.9928467" lon="0.3883067"><ele>384.6</ele><time>2026-03-31T09:45:15.161Z</time></trkpt><trkpt lat="40.9928683" lon="0.38819"><ele>382.8</ele><time>2026-03-31T09:45:16.161Z</time></trkpt><trkpt lat="40.99289" lon="0.3880667"><ele>381.0</ele><time>2026-03-31T09:45:17.161Z</time></trkpt><trkpt lat="40.9929033" lon="0.3879083"><ele>378.6</ele><time>2026-03-31T09:45:18.16Z</time></trkpt><trkpt lat="40.9928933" lon="0.3877683"><ele>376.20000000000005</ele><time>2026-03-31T09:45:19.16Z</time></trkpt><trkpt lat="40.9928783" lon="0.3876417"><ele>373.79999999999995</ele><time>2026-03-31T09:45:20.161Z</time></trkpt><trkpt lat="40.9928983" lon="0.387525"><ele>371.4</ele><time>2026-03-31T09:45:21.161Z</time></trkpt><trkpt lat="40.9929383" lon="0.38744"><ele>369.0</ele><time>2026-03-31T09:45:22.161Z</time></trkpt><trkpt lat="40.9930433" lon="0.3874"><ele>369.0</ele><time>2026-03-31T09:45:24.161Z</time></trkpt><trkpt lat="40.9931183" lon="0.3874667"><ele>369.0</ele><time>2026-03-31T09:45:25.161Z</time></trkpt><trkpt lat="40.993195" lon="0.38758"><ele>369.0</ele><time>2026-03-31T09:45:26.16Z</time></trkpt><trkpt lat="40.9932783" lon="0.3877217"><ele>369.0</ele><time>2026-03-31T09:45:27.16Z</time></trkpt><trkpt lat="40.9933683" lon="0.38789"><ele>369.25</ele><time>2026-03-31T09:45:28.16Z</time></trkpt><trkpt lat="40.99346" lon="0.38803"><ele>369.5</ele><time>2026-03-31T09:45:29.16Z</time></trkpt><trkpt lat="40.9935533" lon="0.3881433"><ele>369.75</ele><time>2026-03-31T09:45:30.16Z</time></trkpt><trkpt lat="40.9936517" lon="0.3882233"><ele>370.0</ele><time>2026-03-31T09:45:31.16Z</time></trkpt><trkpt lat="40.993755" lon="0.3882617"><ele>370.0</ele><time>2026-03-31T09:45:32.161Z</time></trkpt><trkpt lat="40.9938467" lon="0.3882433"><ele>370.0</ele><time>2026-03-31T09:45:33.16Z</time></trkpt><trkpt lat="40.993925" lon="0.3881733"><ele>370.0</ele><time>2026-03-31T09:45:34.16Z</time></trkpt><trkpt lat="40.99397" lon="0.3880583"><ele>370.0</ele><time>2026-03-31T09:45:35.16Z</time></trkpt><trkpt lat="40.9939833" lon="0.3879017"><ele>370.0</ele><time>2026-03-31T09:45:36.16Z</time></trkpt><trkpt lat="40.9940033" lon="0.3877333"><ele>367.75</ele><time>2026-03-31T09:45:37.161Z</time></trkpt><trkpt lat="40.994025" lon="0.387565"><ele>365.5</ele><time>2026-03-31T09:45:38.161Z</time></trkpt><trkpt lat="40.9940617" lon="0.3873933"><ele>363.25</ele><time>2026-03-31T09:45:39.16Z</time></trkpt><trkpt lat="40.9940983" lon="0.3872383"><ele>361.0</ele><time>2026-03-31T09:45:40.16Z</time></trkpt><trkpt lat="40.9941317" lon="0.3871083"><ele>357.6</ele><time>2026-03-31T09:45:41.16Z</time></trkpt><trkpt lat="40.9941833" lon="0.387035"><ele>354.20000000000005</ele><time>2026-03-31T09:45:42.161Z</time></trkpt><trkpt lat="40.994285" lon="0.3870033"><ele>350.79999999999995</ele><time>2026-03-31T09:45:44.16Z</time></trkpt><trkpt lat="40.9943333" lon="0.38715"><ele>347.4</ele><time>2026-03-31T09:45:46.161Z</time></trkpt><trkpt lat="40.9943417" lon="0.387285"><ele>344.0</ele><time>2026-03-31T09:45:47.16Z</time></trkpt><trkpt lat="40.9943333" lon="0.387465"><ele>344.0</ele><time>2026-03-31T09:45:48.16Z</time></trkpt><trkpt lat="40.9943533" lon="0.3876233"><ele>344.0</ele><time>2026-03-31T09:45:49.16Z</time></trkpt><trkpt lat="40.99439" lon="0.3877533"><ele>344.0</ele><time>2026-03-31T09:45:50.161Z</time></trkpt><trkpt lat="40.99443" lon="0.3878567"><ele>344.0</ele><time>2026-03-31T09:45:51.161Z</time></trkpt><trkpt lat="40.9944817" lon="0.3879267"><ele>344.0</ele><time>2026-03-31T09:45:52.16Z</time></trkpt><trkpt lat="40.9945917" lon="0.3879533"><ele>344.0</ele><time>2026-03-31T09:45:54.161Z</time></trkpt><trkpt lat="40.9946117" lon="0.3878033"><ele>344.0</ele><time>2026-03-31T09:45:56.16Z</time></trkpt><trkpt lat="40.99458" lon="0.3876867"><ele>344.0</ele><time>2026-03-31T09:45:57.161Z</time></trkpt><trkpt lat="40.9945383" lon="0.387545"><ele>344.0</ele><time>2026-03-31T09:45:58.161Z</time></trkpt><trkpt lat="40.99452" lon="0.3873917"><ele>344.0</ele><time>2026-03-31T09:45:59.16Z</time></trkpt><trkpt lat="40.9945217" lon="0.3872267"><ele>342.5</ele><time>2026-03-31T09:46:00.161Z</time></trkpt><trkpt lat="40.9945417" lon="0.3870683"><ele>341.0</ele><time>2026-03-31T09:46:01.16Z</time></trkpt><trkpt lat="40.99456" lon="0.386905"><ele>339.5</ele><time>2026-03-31T09:46:02.16Z</time></trkpt><trkpt lat="40.99457" lon="0.3867283"><ele>338.0</ele><time>2026-03-31T09:46:03.161Z</time></trkpt><trkpt lat="40.9945667" lon="0.38656"><ele>338.0</ele><time>2026-03-31T09:46:04.161Z</time></trkpt><trkpt lat="40.99458" lon="0.3863933"><ele>338.0</ele><time>2026-03-31T09:46:05.161Z</time></trkpt><trkpt lat="40.9946067" lon="0.38625"><ele>338.0</ele><time>2026-03-31T09:46:06.161Z</time></trkpt><trkpt lat="40.994625" lon="0.3861417"><ele>338.0</ele><time>2026-03-31T09:46:07.16Z</time></trkpt><trkpt lat="40.99463" lon="0.386025"><ele>338.0</ele><time>2026-03-31T09:46:08.161Z</time></trkpt><trkpt lat="40.9946083" lon="0.3859333"><ele>339.0</ele><time>2026-03-31T09:46:09.161Z</time></trkpt><trkpt lat="40.9945533" lon="0.3858833"><ele>340.0</ele><time>2026-03-31T09:46:10.161Z</time></trkpt><trkpt lat="40.99447" lon="0.3858767"><ele>341.0</ele><time>2026-03-31T09:46:11.16Z</time></trkpt><trkpt lat="40.994355" lon="0.3858883"><ele>342.0</ele><time>2026-03-31T09:46:12.16Z</time></trkpt><trkpt lat="40.9942333" lon="0.385925"><ele>343.0</ele><time>2026-03-31T09:46:13.161Z</time></trkpt><trkpt lat="40.99412" lon="0.385945"><ele>343.0</ele><time>2026-03-31T09:46:14.16Z</time></trkpt><trkpt lat="40.9940183" lon="0.3859383"><ele>343.0</ele><time>2026-03-31T09:46:15.16Z</time></trkpt><trkpt lat="40.9939317" lon="0.385925"><ele>343.0</ele><time>2026-03-31T09:46:16.16Z</time></trkpt><trkpt lat="40.9938633" lon="0.3858783"><ele>343.0</ele><time>2026-03-31T09:46:17.16Z</time></trkpt><trkpt lat="40.9938317" lon="0.3858033"><ele>343.0</ele><time>2026-03-31T09:46:18.161Z</time></trkpt><trkpt lat="40.993845" lon="0.3857017"><ele>343.0</ele><time>2026-03-31T09:46:19.16Z</time></trkpt><trkpt lat="40.9938917" lon="0.385575"><ele>340.75</ele><time>2026-03-31T09:46:20.161Z</time></trkpt><trkpt lat="40.9939833" lon="0.3854333"><ele>338.5</ele><time>2026-03-31T09:46:21.16Z</time></trkpt><trkpt lat="40.9941067" lon="0.3852933"><ele>336.25</ele><time>2026-03-31T09:46:22.161Z</time></trkpt><trkpt lat="40.9941967" lon="0.3851683"><ele>334.0</ele><time>2026-03-31T09:46:23.16Z</time></trkpt><trkpt lat="40.9942867" lon="0.3850483"><ele>332.0</ele><time>2026-03-31T09:46:24.161Z</time></trkpt><trkpt lat="40.9943617" lon="0.3849333"><ele>330.0</ele><time>2026-03-31T09:46:25.16Z</time></trkpt><trkpt lat="40.9944433" lon="0.3848383"><ele>328.0</ele><time>2026-03-31T09:46:26.16Z</time></trkpt><trkpt lat="40.9945333" lon="0.3847717"><ele>326.0</ele><time>2026-03-31T09:46:27.16Z</time></trkpt><trkpt lat="40.9945983" lon="0.3846983"><ele>324.0</ele><time>2026-03-31T09:46:28.16Z</time></trkpt><trkpt lat="40.9946467" lon="0.3846083"><ele>322.6666666666667</ele><time>2026-03-31T09:46:29.16Z</time></trkpt><trkpt lat="40.9946617" lon="0.3845083"><ele>321.3333333333333</ele><time>2026-03-31T09:46:30.161Z</time></trkpt><trkpt lat="40.9946517" lon="0.384425"><ele>320.0</ele><time>2026-03-31T09:46:31.16Z</time></trkpt><trkpt lat="40.9945917" lon="0.38437"><ele>318.66666666666663</ele><time>2026-03-31T09:46:32.16Z</time></trkpt><trkpt lat="40.994525" lon="0.3843433"><ele>317.3333333333333</ele><time>2026-03-31T09:46:33.16Z</time></trkpt><trkpt lat="40.9944417" lon="0.3843583"><ele>316.0</ele><time>2026-03-31T09:46:34.16Z</time></trkpt><trkpt lat="40.994335" lon="0.3844233"><ele>316.0</ele><time>2026-03-31T09:46:35.161Z</time></trkpt><trkpt lat="40.9942133" lon="0.3844967"><ele>316.0</ele><time>2026-03-31T09:46:36.16Z</time></trkpt><trkpt lat="40.9940783" lon="0.384545"><ele>316.0</ele><time>2026-03-31T09:46:37.161Z</time></trkpt><trkpt lat="40.9939483" lon="0.38454"><ele>316.0</ele><time>2026-03-31T09:46:38.161Z</time></trkpt><trkpt lat="40.99382" lon="0.384515"><ele>316.2</ele><time>2026-03-31T09:46:39.16Z</time></trkpt><trkpt lat="40.9937017" lon="0.3844717"><ele>316.40000000000003</ele><time>2026-03-31T09:46:40.16Z</time></trkpt><trkpt lat="40.9936017" lon="0.384445"><ele>316.6</ele><time>2026-03-31T09:46:41.161Z</time></trkpt><trkpt lat="40.99353" lon="0.3844267"><ele>316.8</ele><time>2026-03-31T09:46:42.16Z</time></trkpt><trkpt lat="40.99347" lon="0.3843833"><ele>317.0</ele><time>2026-03-31T09:46:43.16Z</time></trkpt><trkpt lat="40.993445" lon="0.3842417"><ele>317.0</ele><time>2026-03-31T09:46:45.16Z</time></trkpt><trkpt lat="40.99349" lon="0.3841817"><ele>317.0</ele><time>2026-03-31T09:46:46.16Z</time></trkpt><trkpt lat="40.9935617" lon="0.3841683"><ele>317.0</ele><time>2026-03-31T09:46:47.16Z</time></trkpt><trkpt lat="40.9936533" lon="0.384205"><ele>317.0</ele><time>2026-03-31T09:46:48.161Z</time></trkpt><trkpt lat="40.9937583" lon="0.38426"><ele>317.0</ele><time>2026-03-31T09:46:49.16Z</time></trkpt><trkpt lat="40.993875" lon="0.38432"><ele>317.0</ele><time>2026-03-31T09:46:50.161Z</time></trkpt><trkpt lat="40.9939917" lon="0.384345"><ele>317.0</ele><time>2026-03-31T09:46:51.161Z</time></trkpt><trkpt lat="40.9941033" lon="0.3843417"><ele>317.0</ele><time>2026-03-31T09:46:52.16Z</time></trkpt><trkpt lat="40.9942" lon="0.3842983"><ele>317.0</ele><time>2026-03-31T09:46:53.161Z</time></trkpt><trkpt lat="40.9942717" lon="0.3842083"><ele>317.0</ele><time>2026-03-31T09:46:54.161Z</time></trkpt><trkpt lat="40.994315" lon="0.3840767"><ele>316.8</ele><time>2026-03-31T09:46:55.161Z</time></trkpt><trkpt lat="40.99436" lon="0.3839533"><ele>316.6</ele><time>2026-03-31T09:46:56.161Z</time></trkpt><trkpt lat="40.99442" lon="0.383855"><ele>316.40000000000003</ele><time>2026-03-31T09:46:57.16Z</time></trkpt><trkpt lat="40.9945033" lon="0.3837867"><ele>316.2</ele><time>2026-03-31T09:46:58.16Z</time></trkpt><trkpt lat="40.9946033" lon="0.3837317"><ele>316.0</ele><time>2026-03-31T09:46:59.16Z</time></trkpt><trkpt lat="40.9947133" lon="0.383675"><ele>310.5</ele><time>2026-03-31T09:47:00.16Z</time></trkpt><trkpt lat="40.9948283" lon="0.3836433"><ele>305.0</ele><time>2026-03-31T09:47:01.16Z</time></trkpt><trkpt lat="40.994955" lon="0.3836433"><ele>299.5</ele><time>2026-03-31T09:47:02.16Z</time></trkpt><trkpt lat="40.995085" lon="0.3836633"><ele>294.0</ele><time>2026-03-31T09:47:03.161Z</time></trkpt><trkpt lat="40.995215" lon="0.3837233"><ele>292.75</ele><time>2026-03-31T09:47:04.16Z</time></trkpt><trkpt lat="40.9953367" lon="0.3837933"><ele>291.5</ele><time>2026-03-31T09:47:05.16Z</time></trkpt><trkpt lat="40.9954567" lon="0.38388"><ele>290.25</ele><time>2026-03-31T09:47:06.16Z</time></trkpt><trkpt lat="40.9955783" lon="0.3839967"><ele>289.0</ele><time>2026-03-31T09:47:07.161Z</time></trkpt><trkpt lat="40.995695" lon="0.384135"><ele>290.25</ele><time>2026-03-31T09:47:08.16Z</time></trkpt><trkpt lat="40.995795" lon="0.3842767"><ele>291.5</ele><time>2026-03-31T09:47:09.161Z</time></trkpt><trkpt lat="40.9959" lon="0.3844017"><ele>292.75</ele><time>2026-03-31T09:47:10.16Z</time></trkpt><trkpt lat="40.9960083" lon="0.3845183"><ele>294.0</ele><time>2026-03-31T09:47:11.161Z</time></trkpt><trkpt lat="40.9961217" lon="0.3846283"><ele>295.25</ele><time>2026-03-31T09:47:12.16Z</time></trkpt><trkpt lat="40.9962433" lon="0.3847283"><ele>296.5</ele><time>2026-03-31T09:47:13.16Z</time></trkpt><trkpt lat="40.9963583" lon="0.3848"><ele>297.75</ele><time>2026-03-31T09:47:14.16Z</time></trkpt><trkpt lat="40.9964883" lon="0.3848317"><ele>299.0</ele><time>2026-03-31T09:47:15.16Z</time></trkpt><trkpt lat="40.9966233" lon="0.38483"><ele>299.0</ele><time>2026-03-31T09:47:16.161Z</time></trkpt><trkpt lat="40.9967667" lon="0.3848017"><ele>299.0</ele><time>2026-03-31T09:47:17.161Z</time></trkpt><trkpt lat="40.996905" lon="0.38477"><ele>299.0</ele><time>2026-03-31T09:47:18.16Z</time></trkpt><trkpt lat="40.9970433" lon="0.3847617"><ele>299.0</ele><time>2026-03-31T09:47:19.16Z</time></trkpt><trkpt lat="40.9971617" lon="0.384805"><ele>299.0</ele><time>2026-03-31T09:47:20.16Z</time></trkpt><trkpt lat="40.997275" lon="0.3848967"><ele>299.0</ele><time>2026-03-31T09:47:21.16Z</time></trkpt><trkpt lat="40.9973817" lon="0.3849917"><ele>299.0</ele><time>2026-03-31T09:47:22.16Z</time></trkpt><trkpt lat="40.9975033" lon="0.3850733"><ele>299.0</ele><time>2026-03-31T09:47:23.16Z</time></trkpt><trkpt lat="40.99763" lon="0.3851283"><ele>297.25</ele><time>2026-03-31T09:47:24.161Z</time></trkpt><trkpt lat="40.9977567" lon="0.3851583"><ele>295.5</ele><time>2026-03-31T09:47:25.161Z</time></trkpt><trkpt lat="40.997885" lon="0.385205"><ele>293.75</ele><time>2026-03-31T09:47:26.16Z</time></trkpt><trkpt lat="40.998" lon="0.3852383"><ele>292.0</ele><time>2026-03-31T09:47:27.161Z</time></trkpt><trkpt lat="40.9981133" lon="0.3852533"><ele>292.0</ele><time>2026-03-31T09:47:28.16Z</time></trkpt><trkpt lat="40.9982267" lon="0.3852667"><ele>292.0</ele><time>2026-03-31T09:47:29.16Z</time></trkpt><trkpt lat="40.998335" lon="0.385255"><ele>292.0</ele><time>2026-03-31T09:47:30.16Z</time></trkpt><trkpt lat="40.9984283" lon="0.3852133"><ele>292.0</ele><time>2026-03-31T09:47:31.16Z</time></trkpt><trkpt lat="40.998505" lon="0.3851483"><ele>292.0</ele><time>2026-03-31T09:47:32.16Z</time></trkpt><trkpt lat="40.9985583" lon="0.385065"><ele>287.6</ele><time>2026-03-31T09:47:33.16Z</time></trkpt><trkpt lat="40.99858" lon="0.38497"><ele>283.2</ele><time>2026-03-31T09:47:34.16Z</time></trkpt><trkpt lat="40.9985767" lon="0.384865"><ele>278.8</ele><time>2026-03-31T09:47:35.161Z</time></trkpt><trkpt lat="40.9985417" lon="0.384745"><ele>274.4</ele><time>2026-03-31T09:47:36.16Z</time></trkpt><trkpt lat="40.99849" lon="0.3846383"><ele>270.0</ele><time>2026-03-31T09:47:37.161Z</time></trkpt><trkpt lat="40.9984117" lon="0.3845317"><ele>272.5</ele><time>2026-03-31T09:47:38.16Z</time></trkpt><trkpt lat="40.9983033" lon="0.3844167"><ele>275.0</ele><time>2026-03-31T09:47:39.16Z</time></trkpt><trkpt lat="40.9981817" lon="0.3843"><ele>277.5</ele><time>2026-03-31T09:47:40.16Z</time></trkpt><trkpt lat="40.9980567" lon="0.3842067"><ele>280.0</ele><time>2026-03-31T09:47:41.161Z</time></trkpt><trkpt lat="40.9979283" lon="0.3841467"><ele>280.0</ele><time>2026-03-31T09:47:42.16Z</time></trkpt><trkpt lat="40.9977967" lon="0.3840917"><ele>280.0</ele><time>2026-03-31T09:47:43.16Z</time></trkpt><trkpt lat="40.9976617" lon="0.3840367"><ele>280.0</ele><time>2026-03-31T09:47:44.161Z</time></trkpt><trkpt lat="40.9975533" lon="0.3839633"><ele>280.0</ele><time>2026-03-31T09:47:45.161Z</time></trkpt><trkpt lat="40.9974733" lon="0.3838433"><ele>279.5</ele><time>2026-03-31T09:47:46.16Z</time></trkpt><trkpt lat="40.9974017" lon="0.38369"><ele>279.0</ele><time>2026-03-31T09:47:47.161Z</time></trkpt><trkpt lat="40.9973383" lon="0.3835217"><ele>278.5</ele><time>2026-03-31T09:47:48.161Z</time></trkpt><trkpt lat="40.997265" lon="0.3833467"><ele>278.0</ele><time>2026-03-31T09:47:49.16Z</time></trkpt><trkpt lat="40.99719" lon="0.3831833"><ele>278.0</ele><time>2026-03-31T09:47:50.16Z</time></trkpt><trkpt lat="40.997135" lon="0.383035"><ele>278.0</ele><time>2026-03-31T09:47:51.161Z</time></trkpt><trkpt lat="40.99712" lon="0.38287"><ele>278.0</ele><time>2026-03-31T09:47:52.16Z</time></trkpt><trkpt lat="40.997145" lon="0.38271"><ele>278.0</ele><time>2026-03-31T09:47:53.161Z</time></trkpt><trkpt lat="40.9971933" lon="0.3825633"><ele>276.6</ele><time>2026-03-31T09:47:54.16Z</time></trkpt><trkpt lat="40.9972483" lon="0.38243"><ele>275.20000000000005</ele><time>2026-03-31T09:47:55.16Z</time></trkpt><trkpt lat="40.9972767" lon="0.3823217"><ele>273.8</ele><time>2026-03-31T09:47:56.16Z</time></trkpt><trkpt lat="40.99728" lon="0.382235"><ele>272.40000000000003</ele><time>2026-03-31T09:47:57.16Z</time></trkpt><trkpt lat="40.9972017" lon="0.3821433"><ele>271.0</ele><time>2026-03-31T09:47:59.16Z</time></trkpt><trkpt lat="40.9971167" lon="0.3821583"><ele>271.0</ele><time>2026-03-31T09:48:00.161Z</time></trkpt><trkpt lat="40.9970183" lon="0.382215"><ele>271.0</ele><time>2026-03-31T09:48:01.16Z</time></trkpt><trkpt lat="40.99689" lon="0.3822783"><ele>271.0</ele><time>2026-03-31T09:48:02.16Z</time></trkpt><trkpt lat="40.996765" lon="0.3823133"><ele>271.0</ele><time>2026-03-31T09:48:03.16Z</time></trkpt><trkpt lat="40.9966667" lon="0.3823033"><ele>271.66666666666663</ele><time>2026-03-31T09:48:04.16Z</time></trkpt><trkpt lat="40.996585" lon="0.382245"><ele>272.3333333333333</ele><time>2026-03-31T09:48:05.161Z</time></trkpt><trkpt lat="40.9965467" lon="0.3821617"><ele>273.0</ele><time>2026-03-31T09:48:06.161Z</time></trkpt><trkpt lat="40.9965133" lon="0.382065"><ele>273.6666666666667</ele><time>2026-03-31T09:48:07.16Z</time></trkpt><trkpt lat="40.9964667" lon="0.381975"><ele>274.33333333333337</ele><time>2026-03-31T09:48:08.161Z</time></trkpt><trkpt lat="40.9964" lon="0.3819333"><ele>275.0</ele><time>2026-03-31T09:48:09.161Z</time></trkpt><trkpt lat="40.996315" lon="0.381915"><ele>271.75</ele><time>2026-03-31T09:48:10.16Z</time></trkpt><trkpt lat="40.9962117" lon="0.38191"><ele>268.5</ele><time>2026-03-31T09:48:11.161Z</time></trkpt><trkpt lat="40.9961" lon="0.381925"><ele>265.25</ele><time>2026-03-31T09:48:12.16Z</time></trkpt><trkpt lat="40.9959817" lon="0.3819417"><ele>262.0</ele><time>2026-03-31T09:48:13.161Z</time></trkpt><trkpt lat="40.99586" lon="0.3819567"><ele>262.4</ele><time>2026-03-31T09:48:14.16Z</time></trkpt><trkpt lat="40.9957567" lon="0.3819967"><ele>262.79999999999995</ele><time>2026-03-31T09:48:15.161Z</time></trkpt><trkpt lat="40.9956717" lon="0.3820717"><ele>263.2</ele><time>2026-03-31T09:48:16.16Z</time></trkpt><trkpt lat="40.995585" lon="0.38215"><ele>263.59999999999997</ele><time>2026-03-31T09:48:17.16Z</time></trkpt><trkpt lat="40.995515" lon="0.3822067"><ele>264.0</ele><time>2026-03-31T09:48:18.16Z</time></trkpt><trkpt lat="40.9954317" lon="0.38224"><ele>265.5</ele><time>2026-03-31T09:48:19.16Z</time></trkpt><trkpt lat="40.9953567" lon="0.3822417"><ele>267.0</ele><time>2026-03-31T09:48:20.16Z</time></trkpt><trkpt lat="40.99528" lon="0.38224"><ele>268.5</ele><time>2026-03-31T09:48:21.161Z</time></trkpt><trkpt lat="40.9951983" lon="0.3822817"><ele>270.0</ele><time>2026-03-31T09:48:22.161Z</time></trkpt><trkpt lat="40.995135" lon="0.382355"><ele>271.5</ele><time>2026-03-31T09:48:23.16Z</time></trkpt><trkpt lat="40.9950667" lon="0.3824283"><ele>273.0</ele><time>2026-03-31T09:48:24.161Z</time></trkpt><trkpt lat="40.99499" lon="0.382465"><ele>273.0</ele><time>2026-03-31T09:48:25.161Z</time></trkpt><trkpt lat="40.99491" lon="0.3824533"><ele>273.0</ele><time>2026-03-31T09:48:26.161Z</time></trkpt><trkpt lat="40.9948483" lon="0.382395"><ele>273.0</ele><time>2026-03-31T09:48:27.161Z</time></trkpt><trkpt lat="40.9948017" lon="0.3822483"><ele>273.0</ele><time>2026-03-31T09:48:29.16Z</time></trkpt><trkpt lat="40.9948333" lon="0.38216"><ele>273.0</ele><time>2026-03-31T09:48:30.16Z</time></trkpt><trkpt lat="40.99489" lon="0.3820833"><ele>273.0</ele><time>2026-03-31T09:48:31.161Z</time></trkpt><trkpt lat="40.994995" lon="0.3820133"><ele>270.75</ele><time>2026-03-31T09:48:32.161Z</time></trkpt><trkpt lat="40.9951417" lon="0.3819267"><ele>268.5</ele><time>2026-03-31T09:48:33.16Z</time></trkpt><trkpt lat="40.995265" lon="0.3818283"><ele>266.25</ele><time>2026-03-31T09:48:34.16Z</time></trkpt><trkpt lat="40.9953617" lon="0.3817133"><ele>264.0</ele><time>2026-03-31T09:48:35.16Z</time></trkpt><trkpt lat="40.9954383" lon="0.3815817"><ele>264.0</ele><time>2026-03-31T09:48:36.161Z</time></trkpt><trkpt lat="40.9955217" lon="0.3814567"><ele>264.0</ele><time>2026-03-31T09:48:37.16Z</time></trkpt><trkpt lat="40.9956267" lon="0.3813667"><ele>264.0</ele><time>2026-03-31T09:48:38.16Z</time></trkpt><trkpt lat="40.99575" lon="0.3812917"><ele>264.0</ele><time>2026-03-31T09:48:39.16Z</time></trkpt><trkpt lat="40.9958867" lon="0.38124"><ele>259.0</ele><time>2026-03-31T09:48:40.161Z</time></trkpt><trkpt lat="40.9960233" lon="0.381185"><ele>254.0</ele><time>2026-03-31T09:48:41.16Z</time></trkpt><trkpt lat="40.99616" lon="0.3811283"><ele>249.0</ele><time>2026-03-31T09:48:42.16Z</time></trkpt><trkpt lat="40.9962983" lon="0.3810733"><ele>244.0</ele><time>2026-03-31T09:48:43.161Z</time></trkpt><trkpt lat="40.9964333" lon="0.381025"><ele>244.0</ele><time>2026-03-31T09:48:44.161Z</time></trkpt><trkpt lat="40.9965683" lon="0.3810217"><ele>244.0</ele><time>2026-03-31T09:48:45.161Z</time></trkpt><trkpt lat="40.9967117" lon="0.3810183"><ele>244.0</ele><time>2026-03-31T09:48:46.161Z</time></trkpt><trkpt lat="40.99684" lon="0.380985"><ele>244.0</ele><time>2026-03-31T09:48:47.16Z</time></trkpt><trkpt lat="40.99695" lon="0.3809367"><ele>244.2</ele><time>2026-03-31T09:48:48.16Z</time></trkpt><trkpt lat="40.997065" lon="0.3808967"><ele>244.39999999999998</ele><time>2026-03-31T09:48:49.161Z</time></trkpt><trkpt lat="40.9971767" lon="0.3808583"><ele>244.6</ele><time>2026-03-31T09:48:50.16Z</time></trkpt><trkpt lat="40.9972817" lon="0.3808133"><ele>244.8</ele><time>2026-03-31T09:48:51.161Z</time></trkpt><trkpt lat="40.9973683" lon="0.38074"><ele>245.0</ele><time>2026-03-31T09:48:52.16Z</time></trkpt><trkpt lat="40.9974417" lon="0.380635"><ele>244.75</ele><time>2026-03-31T09:48:53.161Z</time></trkpt><trkpt lat="40.9975267" lon="0.3805533"><ele>244.5</ele><time>2026-03-31T09:48:54.16Z</time></trkpt><trkpt lat="40.99762" lon="0.380505"><ele>244.25</ele><time>2026-03-31T09:48:55.161Z</time></trkpt><trkpt lat="40.9977367" lon="0.380475"><ele>244.0</ele><time>2026-03-31T09:48:56.161Z</time></trkpt><trkpt lat="40.997875" lon="0.380445"><ele>241.0</ele><time>2026-03-31T09:48:57.161Z</time></trkpt><trkpt lat="40.9980233" lon="0.3804017"><ele>238.0</ele><time>2026-03-31T09:48:58.16Z</time></trkpt><trkpt lat="40.9981833" lon="0.3803633"><ele>235.0</ele><time>2026-03-31T09:48:59.16Z</time></trkpt><trkpt lat="40.9983483" lon="0.380325"><ele>233.33333333333331</ele><time>2026-03-31T09:49:00.16Z</time></trkpt><trkpt lat="40.998515" lon="0.3802883"><ele>231.66666666666669</ele><time>2026-03-31T09:49:01.161Z</time></trkpt><trkpt lat="40.99869" lon="0.3802467"><ele>230.0</ele><time>2026-03-31T09:49:02.161Z</time></trkpt><trkpt lat="40.9988683" lon="0.3802"><ele>230.0</ele><time>2026-03-31T09:49:03.16Z</time></trkpt><trkpt lat="40.9990633" lon="0.3801383"><ele>230.0</ele><time>2026-03-31T09:49:04.161Z</time></trkpt><trkpt lat="40.9992567" lon="0.380075"><ele>230.0</ele><time>2026-03-31T09:49:05.16Z</time></trkpt><trkpt lat="40.9994417" lon="0.3800083"><ele>230.0</ele><time>2026-03-31T09:49:06.161Z</time></trkpt><trkpt lat="40.9996217" lon="0.3799183"><ele>230.0</ele><time>2026-03-31T09:49:07.16Z</time></trkpt><trkpt lat="40.9998" lon="0.37983"><ele>230.0</ele><time>2026-03-31T09:49:08.161Z</time></trkpt><trkpt lat="40.9999717" lon="0.3797567"><ele>230.0</ele><time>2026-03-31T09:49:09.16Z</time></trkpt><trkpt lat="41.000125" lon="0.3796867"><ele>230.0</ele><time>2026-03-31T09:49:10.161Z</time></trkpt><trkpt lat="41.0002733" lon="0.3796217"><ele>230.0</ele><time>2026-03-31T09:49:11.16Z</time></trkpt><trkpt lat="41.0004233" lon="0.3795567"><ele>230.0</ele><time>2026-03-31T09:49:12.161Z</time></trkpt><trkpt lat="41.0005767" lon="0.3794917"><ele>230.0</ele><time>2026-03-31T09:49:13.16Z</time></trkpt><trkpt lat="41.000715" lon="0.3794233"><ele>230.0</ele><time>2026-03-31T09:49:14.16Z</time></trkpt><trkpt lat="41.0008517" lon="0.3793667"><ele>230.75</ele><time>2026-03-31T09:49:15.161Z</time></trkpt><trkpt lat="41.0009767" lon="0.3793167"><ele>231.5</ele><time>2026-03-31T09:49:16.161Z</time></trkpt><trkpt lat="41.0010867" lon="0.379275"><ele>232.25</ele><time>2026-03-31T09:49:17.16Z</time></trkpt><trkpt lat="41.0011917" lon="0.3792283"><ele>233.0</ele><time>2026-03-31T09:49:18.161Z</time></trkpt><trkpt lat="41.0012917" lon="0.379195"><ele>233.0</ele><time>2026-03-31T09:49:19.161Z</time></trkpt><trkpt lat="41.0013783" lon="0.3791817"><ele>233.0</ele><time>2026-03-31T09:49:20.16Z</time></trkpt><trkpt lat="41.00147" lon="0.3792083"><ele>233.0</ele><time>2026-03-31T09:49:21.16Z</time></trkpt><trkpt lat="41.0015517" lon="0.3792617"><ele>233.0</ele><time>2026-03-31T09:49:22.16Z</time></trkpt><trkpt lat="41.0016417" lon="0.37934"><ele>233.0</ele><time>2026-03-31T09:49:23.16Z</time></trkpt><trkpt lat="41.0017367" lon="0.3794333"><ele>234.5</ele><time>2026-03-31T09:49:24.161Z</time></trkpt><trkpt lat="41.00183" lon="0.37952"><ele>236.0</ele><time>2026-03-31T09:49:25.16Z</time></trkpt><trkpt lat="41.0019083" lon="0.3796417"><ele>237.5</ele><time>2026-03-31T09:49:26.161Z</time></trkpt><trkpt lat="41.0019733" lon="0.3798017"><ele>239.0</ele><time>2026-03-31T09:49:27.16Z</time></trkpt><trkpt lat="41.0020283" lon="0.3799783"><ele>239.0</ele><time>2026-03-31T09:49:28.161Z</time></trkpt><trkpt lat="41.002075" lon="0.3801583"><ele>239.0</ele><time>2026-03-31T09:49:29.161Z</time></trkpt><trkpt lat="41.00213" lon="0.38034"><ele>239.0</ele><time>2026-03-31T09:49:30.16Z</time></trkpt><trkpt lat="41.0021817" lon="0.3805083"><ele>239.0</ele><time>2026-03-31T09:49:31.16Z</time></trkpt><trkpt lat="41.002235" lon="0.3806767"><ele>238.5</ele><time>2026-03-31T09:49:32.161Z</time></trkpt><trkpt lat="41.0022783" lon="0.3808367"><ele>238.0</ele><time>2026-03-31T09:49:33.161Z</time></trkpt><trkpt lat="41.0023617" lon="0.3809667"><ele>237.5</ele><time>2026-03-31T09:49:34.161Z</time></trkpt><trkpt lat="41.0024733" lon="0.3810767"><ele>237.0</ele><time>2026-03-31T09:49:35.16Z</time></trkpt><trkpt lat="41.0026083" lon="0.3811883"><ele>238.0</ele><time>2026-03-31T09:49:36.161Z</time></trkpt><trkpt lat="41.0027433" lon="0.381315"><ele>239.0</ele><time>2026-03-31T09:49:37.16Z</time></trkpt><trkpt lat="41.00288" lon="0.3814483"><ele>240.0</ele><time>2026-03-31T09:49:38.161Z</time></trkpt><trkpt lat="41.0030167" lon="0.38158"><ele>240.0</ele><time>2026-03-31T09:49:39.16Z</time></trkpt><trkpt lat="41.003155" lon="0.3817117"><ele>240.0</ele><time>2026-03-31T09:49:40.16Z</time></trkpt><trkpt lat="41.0032567" lon="0.3818667"><ele>240.0</ele><time>2026-03-31T09:49:41.161Z</time></trkpt><trkpt lat="41.0033433" lon="0.38204"><ele>241.25</ele><time>2026-03-31T09:49:42.161Z</time></trkpt><trkpt lat="41.0034267" lon="0.3822067"><ele>242.5</ele><time>2026-03-31T09:49:43.16Z</time></trkpt><trkpt lat="41.0035033" lon="0.382355"><ele>243.75</ele><time>2026-03-31T09:49:44.16Z</time></trkpt><trkpt lat="41.0035833" lon="0.3824817"><ele>245.0</ele><time>2026-03-31T09:49:45.16Z</time></trkpt><trkpt lat="41.0036633" lon="0.382585"><ele>245.0</ele><time>2026-03-31T09:49:46.16Z</time></trkpt><trkpt lat="41.00375" lon="0.382645"><ele>245.0</ele><time>2026-03-31T09:49:47.16Z</time></trkpt><trkpt lat="41.0038267" lon="0.3826683"><ele>245.0</ele><time>2026-03-31T09:49:48.161Z</time></trkpt><trkpt lat="41.003915" lon="0.3826533"><ele>245.0</ele><time>2026-03-31T09:49:49.161Z</time></trkpt><trkpt lat="41.0039983" lon="0.3826017"><ele>245.0</ele><time>2026-03-31T09:49:50.16Z</time></trkpt><trkpt lat="41.004065" lon="0.3825033"><ele>245.0</ele><time>2026-03-31T09:49:51.161Z</time></trkpt><trkpt lat="41.00413" lon="0.382365"><ele>245.0</ele><time>2026-03-31T09:49:52.16Z</time></trkpt><trkpt lat="41.0041733" lon="0.3821667"><ele>245.0</ele><time>2026-03-31T09:49:53.161Z</time></trkpt><trkpt lat="41.0042117" lon="0.3819717"><ele>245.0</ele><time>2026-03-31T09:49:54.16Z</time></trkpt><trkpt lat="41.004235" lon="0.3817833"><ele>246.25</ele><time>2026-03-31T09:49:55.161Z</time></trkpt><trkpt lat="41.00427" lon="0.3815917"><ele>247.5</ele><time>2026-03-31T09:49:56.161Z</time></trkpt><trkpt lat="41.0042967" lon="0.381405"><ele>248.75</ele><time>2026-03-31T09:49:57.16Z</time></trkpt><trkpt lat="41.0043133" lon="0.3812167"><ele>250.0</ele><time>2026-03-31T09:49:58.161Z</time></trkpt><trkpt lat="41.0043467" lon="0.3810517"><ele>251.75</ele><time>2026-03-31T09:49:59.16Z</time></trkpt><trkpt lat="41.0044067" lon="0.38092"><ele>253.5</ele><time>2026-03-31T09:50:00.161Z</time></trkpt><trkpt lat="41.00451" lon="0.3808183"><ele>255.25</ele><time>2026-03-31T09:50:01.16Z</time></trkpt><trkpt lat="41.004635" lon="0.3807433"><ele>257.0</ele><time>2026-03-31T09:50:02.161Z</time></trkpt><trkpt lat="41.004775" lon="0.3806867"><ele>257.0</ele><time>2026-03-31T09:50:03.16Z</time></trkpt><trkpt lat="41.004915" lon="0.3806217"><ele>257.0</ele><time>2026-03-31T09:50:04.16Z</time></trkpt><trkpt lat="41.005055" lon="0.3805433"><ele>257.0</ele><time>2026-03-31T09:50:05.16Z</time></trkpt><trkpt lat="41.005195" lon="0.3804583"><ele>258.33333333333337</ele><time>2026-03-31T09:50:06.161Z</time></trkpt><trkpt lat="41.0053367" lon="0.380355"><ele>259.6666666666667</ele><time>2026-03-31T09:50:07.16Z</time></trkpt><trkpt lat="41.0054567" lon="0.38023"><ele>261.0</ele><time>2026-03-31T09:50:08.16Z</time></trkpt><trkpt lat="41.0055667" lon="0.3800967"><ele>261.0</ele><time>2026-03-31T09:50:09.161Z</time></trkpt><trkpt lat="41.0056583" lon="0.3799783"><ele>261.0</ele><time>2026-03-31T09:50:10.161Z</time></trkpt><trkpt lat="41.0057583" lon="0.37989"><ele>261.0</ele><time>2026-03-31T09:50:11.16Z</time></trkpt><trkpt lat="41.0058733" lon="0.3798583"><ele>261.0</ele><time>2026-03-31T09:50:12.16Z</time></trkpt><trkpt lat="41.005995" lon="0.3798583"><ele>259.2</ele><time>2026-03-31T09:50:13.16Z</time></trkpt><trkpt lat="41.0061067" lon="0.3798867"><ele>257.40000000000003</ele><time>2026-03-31T09:50:14.161Z</time></trkpt><trkpt lat="41.0062217" lon="0.3799217"><ele>255.6</ele><time>2026-03-31T09:50:15.16Z</time></trkpt><trkpt lat="41.0063267" lon="0.3799417"><ele>253.8</ele><time>2026-03-31T09:50:16.16Z</time></trkpt><trkpt lat="41.0064217" lon="0.3799117"><ele>252.0</ele><time>2026-03-31T09:50:17.161Z</time></trkpt><trkpt lat="41.006515" lon="0.3798383"><ele>252.0</ele><time>2026-03-31T09:50:18.161Z</time></trkpt><trkpt lat="41.0066083" lon="0.37974"><ele>252.0</ele><time>2026-03-31T09:50:19.161Z</time></trkpt><trkpt lat="41.0067017" lon="0.3796267"><ele>252.0</ele><time>2026-03-31T09:50:20.161Z</time></trkpt><trkpt lat="41.006805" lon="0.3794967"><ele>252.0</ele><time>2026-03-31T09:50:21.16Z</time></trkpt><trkpt lat="41.0069183" lon="0.3793617"><ele>253.66666666666669</ele><time>2026-03-31T09:50:22.161Z</time></trkpt><trkpt lat="41.00703" lon="0.3792117"><ele>255.33333333333334</ele><time>2026-03-31T09:50:23.16Z</time></trkpt><trkpt lat="41.0071467" lon="0.3790583"><ele>257.0</ele><time>2026-03-31T09:50:24.161Z</time></trkpt><trkpt lat="41.0072617" lon="0.37891"><ele>257.5</ele><time>2026-03-31T09:50:25.161Z</time></trkpt><trkpt lat="41.0073683" lon="0.3787517"><ele>258.0</ele><time>2026-03-31T09:50:26.161Z</time></trkpt><trkpt lat="41.0074733" lon="0.3786167"><ele>258.5</ele><time>2026-03-31T09:50:27.16Z</time></trkpt><trkpt lat="41.0075733" lon="0.378495"><ele>259.0</ele><time>2026-03-31T09:50:28.161Z</time></trkpt><trkpt lat="41.0076783" lon="0.3783967"><ele>259.0</ele><time>2026-03-31T09:50:29.16Z</time></trkpt><trkpt lat="41.0077733" lon="0.3783133"><ele>259.0</ele><time>2026-03-31T09:50:30.16Z</time></trkpt><trkpt lat="41.00788" lon="0.3782267"><ele>259.0</ele><time>2026-03-31T09:50:31.161Z</time></trkpt><trkpt lat="41.007995" lon="0.3781533"><ele>259.0</ele><time>2026-03-31T09:50:32.161Z</time></trkpt><trkpt lat="41.00811" lon="0.378075"><ele>259.0</ele><time>2026-03-31T09:50:33.161Z</time></trkpt><trkpt lat="41.0082567" lon="0.3780217"><ele>259.0</ele><time>2026-03-31T09:50:34.16Z</time></trkpt><trkpt lat="41.0083117" lon="0.377875"><ele>259.0</ele><time>2026-03-31T09:50:35.16Z</time></trkpt><trkpt lat="41.008355" lon="0.37772"><ele>259.0</ele><time>2026-03-31T09:50:36.161Z</time></trkpt><trkpt lat="41.0083917" lon="0.3775517"><ele>259.0</ele><time>2026-03-31T09:50:37.16Z</time></trkpt><trkpt lat="41.008435" lon="0.37737"><ele>259.0</ele><time>2026-03-31T09:50:38.16Z</time></trkpt><trkpt lat="41.0084733" lon="0.3772067"><ele>259.0</ele><time>2026-03-31T09:50:39.16Z</time></trkpt><trkpt lat="41.00851" lon="0.3770367"><ele>259.0</ele><time>2026-03-31T09:50:40.161Z</time></trkpt><trkpt lat="41.0085317" lon="0.3768733"><ele>259.0</ele><time>2026-03-31T09:50:41.161Z</time></trkpt><trkpt lat="41.00856" lon="0.3767067"><ele>259.0</ele><time>2026-03-31T09:50:42.16Z</time></trkpt><trkpt lat="41.008575" lon="0.37655"><ele>259.0</ele><time>2026-03-31T09:50:43.161Z</time></trkpt><trkpt lat="41.0085967" lon="0.3764183"><ele>259.0</ele><time>2026-03-31T09:50:44.16Z</time></trkpt><trkpt lat="41.0086233" lon="0.3763033"><ele>259.0</ele><time>2026-03-31T09:50:45.16Z</time></trkpt><trkpt lat="41.0086667" lon="0.37621"><ele>260.8</ele><time>2026-03-31T09:50:46.16Z</time></trkpt><trkpt lat="41.0087233" lon="0.3761183"><ele>262.59999999999997</ele><time>2026-03-31T09:50:47.16Z</time></trkpt><trkpt lat="41.0087967" lon="0.3760233"><ele>264.4</ele><time>2026-03-31T09:50:48.16Z</time></trkpt><trkpt lat="41.008875" lon="0.3759367"><ele>266.2</ele><time>2026-03-31T09:50:49.16Z</time></trkpt><trkpt lat="41.0089533" lon="0.3758517"><ele>268.0</ele><time>2026-03-31T09:50:50.16Z</time></trkpt><trkpt lat="41.0090083" lon="0.3757917"><ele>268.0</ele><time>2026-03-31T09:50:51.161Z</time></trkpt><trkpt lat="41.0090667" lon="0.3757283"><ele>268.0</ele><time>2026-03-31T09:50:53.16Z</time></trkpt><trkpt lat="41.00905" lon="0.375615"><ele>268.0</ele><time>2026-03-31T09:50:56.161Z</time></trkpt><trkpt lat="41.0089333" lon="0.3755233"><ele>268.0</ele><time>2026-03-31T09:50:58.161Z</time></trkpt><trkpt lat="41.00884" lon="0.3754983"><ele>268.0</ele><time>2026-03-31T09:50:59.16Z</time></trkpt><trkpt lat="41.008745" lon="0.3755233"><ele>268.0</ele><time>2026-03-31T09:51:00.16Z</time></trkpt><trkpt lat="41.0086667" lon="0.3755783"><ele>268.0</ele><time>2026-03-31T09:51:01.16Z</time></trkpt><trkpt lat="41.0085917" lon="0.3756717"><ele>268.0</ele><time>2026-03-31T09:51:02.161Z</time></trkpt><trkpt lat="41.0085317" lon="0.3758033"><ele>268.0</ele><time>2026-03-31T09:51:03.16Z</time></trkpt><trkpt lat="41.0084667" lon="0.3759433"><ele>268.0</ele><time>2026-03-31T09:51:04.161Z</time></trkpt><trkpt lat="41.008385" lon="0.376085"><ele>270.0</ele><time>2026-03-31T09:51:05.161Z</time></trkpt><trkpt lat="41.008295" lon="0.37619"><ele>272.0</ele><time>2026-03-31T09:51:06.16Z</time></trkpt><trkpt lat="41.0081733" lon="0.376245"><ele>274.0</ele><time>2026-03-31T09:51:07.161Z</time></trkpt><trkpt lat="41.0080433" lon="0.3762567"><ele>276.0</ele><time>2026-03-31T09:51:08.161Z</time></trkpt><trkpt lat="41.007895" lon="0.37622"><ele>276.0</ele><time>2026-03-31T09:51:09.16Z</time></trkpt><trkpt lat="41.0077417" lon="0.3761733"><ele>276.0</ele><time>2026-03-31T09:51:10.16Z</time></trkpt><trkpt lat="41.007585" lon="0.3761317"><ele>276.0</ele><time>2026-03-31T09:51:11.16Z</time></trkpt><trkpt lat="41.0074217" lon="0.3760917"><ele>278.6666666666667</ele><time>2026-03-31T09:51:12.16Z</time></trkpt><trkpt lat="41.00726" lon="0.37604"><ele>281.33333333333337</ele><time>2026-03-31T09:51:13.161Z</time></trkpt><trkpt lat="41.0070933" lon="0.375975"><ele>284.0</ele><time>2026-03-31T09:51:14.16Z</time></trkpt><trkpt lat="41.0069333" lon="0.3758883"><ele>284.0</ele><time>2026-03-31T09:51:15.161Z</time></trkpt><trkpt lat="41.0067767" lon="0.3757767"><ele>284.0</ele><time>2026-03-31T09:51:16.16Z</time></trkpt><trkpt lat="41.006635" lon="0.3756567"><ele>284.0</ele><time>2026-03-31T09:51:17.161Z</time></trkpt><trkpt lat="41.0065" lon="0.3755133"><ele>288.33333333333337</ele><time>2026-03-31T09:51:18.16Z</time></trkpt><trkpt lat="41.0063667" lon="0.37536"><ele>292.6666666666667</ele><time>2026-03-31T09:51:19.16Z</time></trkpt><trkpt lat="41.00625" lon="0.3751783"><ele>297.0</ele><time>2026-03-31T09:51:20.16Z</time></trkpt><trkpt lat="41.0061517" lon="0.3749833"><ele>297.0</ele><time>2026-03-31T09:51:21.161Z</time></trkpt><trkpt lat="41.0060683" lon="0.3747783"><ele>297.0</ele><time>2026-03-31T09:51:22.16Z</time></trkpt><trkpt lat="41.006" lon="0.3745667"><ele>297.0</ele><time>2026-03-31T09:51:23.16Z</time></trkpt><trkpt lat="41.0059683" lon="0.37435"><ele>297.6666666666667</ele><time>2026-03-31T09:51:24.161Z</time></trkpt><trkpt lat="41.0059533" lon="0.3741217"><ele>298.33333333333337</ele><time>2026-03-31T09:51:25.16Z</time></trkpt><trkpt lat="41.0059517" lon="0.373885"><ele>299.0</ele><time>2026-03-31T09:51:26.161Z</time></trkpt><trkpt lat="41.005955" lon="0.373635"><ele>299.0</ele><time>2026-03-31T09:51:27.16Z</time></trkpt><trkpt lat="41.0059783" lon="0.3734017"><ele>299.0</ele><time>2026-03-31T09:51:28.161Z</time></trkpt><trkpt lat="41.0060267" lon="0.3731833"><ele>299.0</ele><time>2026-03-31T09:51:29.161Z</time></trkpt><trkpt lat="41.0060933" lon="0.37298"><ele>299.33333333333337</ele><time>2026-03-31T09:51:30.16Z</time></trkpt><trkpt lat="41.0061767" lon="0.372785"><ele>299.6666666666667</ele><time>2026-03-31T09:51:31.161Z</time></trkpt><trkpt lat="41.00626" lon="0.37259"><ele>300.0</ele><time>2026-03-31T09:51:32.16Z</time></trkpt><trkpt lat="41.0063433" lon="0.3723967"><ele>300.0</ele><time>2026-03-31T09:51:33.16Z</time></trkpt><trkpt lat="41.0064283" lon="0.3722133"><ele>300.0</ele><time>2026-03-31T09:51:34.161Z</time></trkpt><trkpt lat="41.0065167" lon="0.37203"><ele>300.0</ele><time>2026-03-31T09:51:35.161Z</time></trkpt><trkpt lat="41.00659" lon="0.3718383"><ele>302.0</ele><time>2026-03-31T09:51:36.161Z</time></trkpt><trkpt lat="41.0066517" lon="0.3716383"><ele>304.0</ele><time>2026-03-31T09:51:37.16Z</time></trkpt><trkpt lat="41.00668" lon="0.371415"><ele>306.0</ele><time>2026-03-31T09:51:38.161Z</time></trkpt><trkpt lat="41.0066817" lon="0.3712017"><ele>308.6666666666667</ele><time>2026-03-31T09:51:39.16Z</time></trkpt><trkpt lat="41.0066617" lon="0.37098"><ele>311.33333333333337</ele><time>2026-03-31T09:51:40.16Z</time></trkpt><trkpt lat="41.0066383" lon="0.3707517"><ele>314.0</ele><time>2026-03-31T09:51:41.161Z</time></trkpt><trkpt lat="41.0066033" lon="0.3705183"><ele>315.33333333333337</ele><time>2026-03-31T09:51:42.161Z</time></trkpt><trkpt lat="41.0065517" lon="0.37028"><ele>316.6666666666667</ele><time>2026-03-31T09:51:43.16Z</time></trkpt><trkpt lat="41.0064767" lon="0.3700583"><ele>318.0</ele><time>2026-03-31T09:51:44.161Z</time></trkpt><trkpt lat="41.006375" lon="0.3698367"><ele>320.0</ele><time>2026-03-31T09:51:45.161Z</time></trkpt><trkpt lat="41.006275" lon="0.36962"><ele>322.0</ele><time>2026-03-31T09:51:46.16Z</time></trkpt><trkpt lat="41.0061783" lon="0.3694083"><ele>324.0</ele><time>2026-03-31T09:51:47.161Z</time></trkpt><trkpt lat="41.0060833" lon="0.3691983"><ele>324.0</ele><time>2026-03-31T09:51:48.161Z</time></trkpt><trkpt lat="41.0059917" lon="0.3689917"><ele>324.0</ele><time>2026-03-31T09:51:49.16Z</time></trkpt><trkpt lat="41.0058967" lon="0.3687883"><ele>324.0</ele><time>2026-03-31T09:51:50.161Z</time></trkpt><trkpt lat="41.0058183" lon="0.3685817"><ele>323.6666666666667</ele><time>2026-03-31T09:51:51.16Z</time></trkpt><trkpt lat="41.0057633" lon="0.3683467"><ele>323.33333333333337</ele><time>2026-03-31T09:51:52.16Z</time></trkpt><trkpt lat="41.0057217" lon="0.3680933"><ele>323.0</ele><time>2026-03-31T09:51:53.161Z</time></trkpt><trkpt lat="41.00569" lon="0.36784"><ele>323.0</ele><time>2026-03-31T09:51:54.161Z</time></trkpt><trkpt lat="41.0056533" lon="0.36759"><ele>323.0</ele><time>2026-03-31T09:51:55.16Z</time></trkpt><trkpt lat="41.0056133" lon="0.36734"><ele>323.0</ele><time>2026-03-31T09:51:56.161Z</time></trkpt><trkpt lat="41.0055767" lon="0.36709"><ele>325.0</ele><time>2026-03-31T09:51:57.161Z</time></trkpt><trkpt lat="41.0055417" lon="0.36683"><ele>327.0</ele><time>2026-03-31T09:51:58.16Z</time></trkpt><trkpt lat="41.0055083" lon="0.3665817"><ele>329.0</ele><time>2026-03-31T09:51:59.16Z</time></trkpt><trkpt lat="41.005465" lon="0.3663283"><ele>331.33333333333337</ele><time>2026-03-31T09:52:00.16Z</time></trkpt><trkpt lat="41.0054233" lon="0.3660733"><ele>333.6666666666667</ele><time>2026-03-31T09:52:01.16Z</time></trkpt><trkpt lat="41.00537" lon="0.36582"><ele>336.0</ele><time>2026-03-31T09:52:02.16Z</time></trkpt><trkpt lat="41.0053" lon="0.3655533"><ele>338.6666666666667</ele><time>2026-03-31T09:52:03.16Z</time></trkpt><trkpt lat="41.0052167" lon="0.3653"><ele>341.33333333333337</ele><time>2026-03-31T09:52:04.161Z</time></trkpt><trkpt lat="41.005115" lon="0.3650533"><ele>344.0</ele><time>2026-03-31T09:52:05.16Z</time></trkpt><trkpt lat="41.0050117" lon="0.364815"><ele>344.33333333333337</ele><time>2026-03-31T09:52:06.161Z</time></trkpt><trkpt lat="41.0049183" lon="0.3645683"><ele>344.6666666666667</ele><time>2026-03-31T09:52:07.161Z</time></trkpt><trkpt lat="41.00482" lon="0.36432"><ele>345.0</ele><time>2026-03-31T09:52:08.161Z</time></trkpt><trkpt lat="41.0047333" lon="0.3640817"><ele>348.0</ele><time>2026-03-31T09:52:09.16Z</time></trkpt><trkpt lat="41.0046433" lon="0.3638567"><ele>351.0</ele><time>2026-03-31T09:52:10.16Z</time></trkpt><trkpt lat="41.0045567" lon="0.363655"><ele>354.0</ele><time>2026-03-31T09:52:11.16Z</time></trkpt><trkpt lat="41.00446" lon="0.3634917"><ele>354.0</ele><time>2026-03-31T09:52:12.161Z</time></trkpt><trkpt lat="41.0043567" lon="0.3633583"><ele>354.0</ele><time>2026-03-31T09:52:13.161Z</time></trkpt><trkpt lat="41.0042283" lon="0.36327"><ele>354.0</ele><time>2026-03-31T09:52:14.16Z</time></trkpt><trkpt lat="41.0040833" lon="0.3632433"><ele>354.0</ele><time>2026-03-31T09:52:15.16Z</time></trkpt><trkpt lat="41.003915" lon="0.3632283"><ele>355.0</ele><time>2026-03-31T09:52:16.16Z</time></trkpt><trkpt lat="41.0037583" lon="0.3632033"><ele>356.0</ele><time>2026-03-31T09:52:17.16Z</time></trkpt><trkpt lat="41.003595" lon="0.3631467"><ele>357.0</ele><time>2026-03-31T09:52:18.16Z</time></trkpt><trkpt lat="41.0034533" lon="0.36304"><ele>358.3333333333333</ele><time>2026-03-31T09:52:19.161Z</time></trkpt><trkpt lat="41.003355" lon="0.362895"><ele>359.66666666666663</ele><time>2026-03-31T09:52:20.16Z</time></trkpt><trkpt lat="41.0033017" lon="0.3627183"><ele>361.0</ele><time>2026-03-31T09:52:21.16Z</time></trkpt><trkpt lat="41.00328" lon="0.3625083"><ele>359.3333333333333</ele><time>2026-03-31T09:52:22.161Z</time></trkpt><trkpt lat="41.0033033" lon="0.362295"><ele>357.6666666666667</ele><time>2026-03-31T09:52:23.161Z</time></trkpt><trkpt lat="41.0033633" lon="0.3620867"><ele>356.0</ele><time>2026-03-31T09:52:24.16Z</time></trkpt><trkpt lat="41.0034417" lon="0.3618883"><ele>356.0</ele><time>2026-03-31T09:52:25.161Z</time></trkpt><trkpt lat="41.0035283" lon="0.3616717"><ele>356.0</ele><time>2026-03-31T09:52:26.16Z</time></trkpt><trkpt lat="41.0036283" lon="0.3614383"><ele>356.0</ele><time>2026-03-31T09:52:27.16Z</time></trkpt><trkpt lat="41.00374" lon="0.3611917"><ele>354.6666666666667</ele><time>2026-03-31T09:52:28.16Z</time></trkpt><trkpt lat="41.0038417" lon="0.3609483"><ele>353.3333333333333</ele><time>2026-03-31T09:52:29.161Z</time></trkpt><trkpt lat="41.003935" lon="0.36071"><ele>352.0</ele><time>2026-03-31T09:52:30.16Z</time></trkpt><trkpt lat="41.0040233" lon="0.3604717"><ele>351.0</ele><time>2026-03-31T09:52:31.161Z</time></trkpt><trkpt lat="41.0041117" lon="0.3602333"><ele>350.0</ele><time>2026-03-31T09:52:32.161Z</time></trkpt><trkpt lat="41.0042067" lon="0.3599983"><ele>349.0</ele><time>2026-03-31T09:52:33.16Z</time></trkpt><trkpt lat="41.0043" lon="0.3597733"><ele>353.66666666666663</ele><time>2026-03-31T09:52:34.16Z</time></trkpt><trkpt lat="41.0043817" lon="0.3595483"><ele>358.3333333333333</ele><time>2026-03-31T09:52:35.16Z</time></trkpt><trkpt lat="41.00444" lon="0.3593317"><ele>363.0</ele><time>2026-03-31T09:52:36.16Z</time></trkpt><trkpt lat="41.0044683" lon="0.3590917"><ele>363.0</ele><time>2026-03-31T09:52:37.16Z</time></trkpt><trkpt lat="41.0044717" lon="0.3588433"><ele>363.0</ele><time>2026-03-31T09:52:38.16Z</time></trkpt><trkpt lat="41.0044517" lon="0.3585967"><ele>363.0</ele><time>2026-03-31T09:52:39.161Z</time></trkpt><trkpt lat="41.0044367" lon="0.3583367"><ele>363.0</ele><time>2026-03-31T09:52:40.16Z</time></trkpt><trkpt lat="41.004445" lon="0.3580783"><ele>363.0</ele><time>2026-03-31T09:52:41.16Z</time></trkpt><trkpt lat="41.0044617" lon="0.3578183"><ele>363.0</ele><time>2026-03-31T09:52:42.16Z</time></trkpt><trkpt lat="41.004495" lon="0.3575517"><ele>362.6666666666667</ele><time>2026-03-31T09:52:43.16Z</time></trkpt><trkpt lat="41.0045217" lon="0.3572767"><ele>362.33333333333337</ele><time>2026-03-31T09:52:44.161Z</time></trkpt><trkpt lat="41.00454" lon="0.357"><ele>362.0</ele><time>2026-03-31T09:52:45.16Z</time></trkpt><trkpt lat="41.0045633" lon="0.35672"><ele>361.6666666666667</ele><time>2026-03-31T09:52:46.161Z</time></trkpt><trkpt lat="41.0045917" lon="0.3564383"><ele>361.3333333333333</ele><time>2026-03-31T09:52:47.16Z</time></trkpt><trkpt lat="41.0045917" lon="0.3561667"><ele>361.0</ele><time>2026-03-31T09:52:48.161Z</time></trkpt><trkpt lat="41.0045683" lon="0.3558783"><ele>361.66666666666663</ele><time>2026-03-31T09:52:49.161Z</time></trkpt><trkpt lat="41.0045317" lon="0.3556017"><ele>362.3333333333333</ele><time>2026-03-31T09:52:50.161Z</time></trkpt><trkpt lat="41.0044617" lon="0.3553317"><ele>363.0</ele><time>2026-03-31T09:52:51.161Z</time></trkpt><trkpt lat="41.004365" lon="0.3550667"><ele>363.0</ele><time>2026-03-31T09:52:52.16Z</time></trkpt><trkpt lat="41.00425" lon="0.35481"><ele>363.0</ele><time>2026-03-31T09:52:53.16Z</time></trkpt><trkpt lat="41.004115" lon="0.35457"><ele>364.0</ele><time>2026-03-31T09:52:54.161Z</time></trkpt><trkpt lat="41.003975" lon="0.3543567"><ele>365.0</ele><time>2026-03-31T09:52:55.16Z</time></trkpt><trkpt lat="41.003825" lon="0.3541817"><ele>366.0</ele><time>2026-03-31T09:52:56.16Z</time></trkpt><trkpt lat="41.0036767" lon="0.354"><ele>367.6666666666667</ele><time>2026-03-31T09:52:57.161Z</time></trkpt><trkpt lat="41.003535" lon="0.3538133"><ele>369.33333333333337</ele><time>2026-03-31T09:52:58.16Z</time></trkpt><trkpt lat="41.0034217" lon="0.3536083"><ele>371.0</ele><time>2026-03-31T09:52:59.16Z</time></trkpt><trkpt lat="41.0033233" lon="0.3533733"><ele>371.0</ele><time>2026-03-31T09:53:00.16Z</time></trkpt><trkpt lat="41.00325" lon="0.3531217"><ele>371.0</ele><time>2026-03-31T09:53:01.161Z</time></trkpt><trkpt lat="41.0031983" lon="0.3528617"><ele>371.0</ele><time>2026-03-31T09:53:02.16Z</time></trkpt><trkpt lat="41.0031533" lon="0.35259"><ele>372.0</ele><time>2026-03-31T09:53:03.16Z</time></trkpt><trkpt lat="41.0031133" lon="0.3523133"><ele>373.0</ele><time>2026-03-31T09:53:04.16Z</time></trkpt><trkpt lat="41.0030767" lon="0.35204"><ele>374.0</ele><time>2026-03-31T09:53:05.16Z</time></trkpt><trkpt lat="41.0030383" lon="0.3517717"><ele>374.0</ele><time>2026-03-31T09:53:06.161Z</time></trkpt><trkpt lat="41.0030067" lon="0.3515217"><ele>374.0</ele><time>2026-03-31T09:53:07.16Z</time></trkpt><trkpt lat="41.0029767" lon="0.3512933"><ele>374.0</ele><time>2026-03-31T09:53:08.16Z</time></trkpt><trkpt lat="41.0029517" lon="0.35107"><ele>374.0</ele><time>2026-03-31T09:53:09.16Z</time></trkpt><trkpt lat="41.0029217" lon="0.3508417"><ele>374.0</ele><time>2026-03-31T09:53:10.161Z</time></trkpt><trkpt lat="41.0029" lon="0.3506067"><ele>374.0</ele><time>2026-03-31T09:53:11.161Z</time></trkpt><trkpt lat="41.0028767" lon="0.3503733"><ele>373.6666666666667</ele><time>2026-03-31T09:53:12.16Z</time></trkpt><trkpt lat="41.0028583" lon="0.3501333"><ele>373.3333333333333</ele><time>2026-03-31T09:53:13.161Z</time></trkpt><trkpt lat="41.00284" lon="0.349895"><ele>373.0</ele><time>2026-03-31T09:53:14.161Z</time></trkpt><trkpt lat="41.002815" lon="0.3496633"><ele>371.3333333333333</ele><time>2026-03-31T09:53:15.161Z</time></trkpt><trkpt lat="41.002795" lon="0.349435"><ele>369.6666666666667</ele><time>2026-03-31T09:53:16.16Z</time></trkpt><trkpt lat="41.0027883" lon="0.3492267"><ele>368.0</ele><time>2026-03-31T09:53:17.16Z</time></trkpt><trkpt lat="41.0027833" lon="0.3490267"><ele>367.33333333333337</ele><time>2026-03-31T09:53:18.161Z</time></trkpt><trkpt lat="41.002795" lon="0.3488117"><ele>366.6666666666667</ele><time>2026-03-31T09:53:19.161Z</time></trkpt><trkpt lat="41.0028383" lon="0.34859"><ele>366.0</ele><time>2026-03-31T09:53:20.161Z</time></trkpt><trkpt lat="41.00289" lon="0.34837"><ele>366.0</ele><time>2026-03-31T09:53:21.16Z</time></trkpt><trkpt lat="41.00294" lon="0.3481517"><ele>366.0</ele><time>2026-03-31T09:53:22.16Z</time></trkpt><trkpt lat="41.00298" lon="0.347945"><ele>366.0</ele><time>2026-03-31T09:53:23.16Z</time></trkpt><trkpt lat="41.002995" lon="0.3477433"><ele>365.0</ele><time>2026-03-31T09:53:24.16Z</time></trkpt><trkpt lat="41.0029883" lon="0.34752"><ele>364.0</ele><time>2026-03-31T09:53:25.16Z</time></trkpt><trkpt lat="41.002965" lon="0.3473067"><ele>363.0</ele><time>2026-03-31T09:53:26.161Z</time></trkpt><trkpt lat="41.0029117" lon="0.3471167"><ele>362.6666666666667</ele><time>2026-03-31T09:53:27.16Z</time></trkpt><trkpt lat="41.002825" lon="0.34692"><ele>362.33333333333337</ele><time>2026-03-31T09:53:28.161Z</time></trkpt><trkpt lat="41.0027183" lon="0.34674"><ele>362.0</ele><time>2026-03-31T09:53:29.16Z</time></trkpt><trkpt lat="41.002595" lon="0.3465617"><ele>362.6666666666667</ele><time>2026-03-31T09:53:30.16Z</time></trkpt><trkpt lat="41.0024483" lon="0.3463933"><ele>363.3333333333333</ele><time>2026-03-31T09:53:31.161Z</time></trkpt><trkpt lat="41.0022917" lon="0.3462617"><ele>364.0</ele><time>2026-03-31T09:53:32.161Z</time></trkpt><trkpt lat="41.00212" lon="0.34616"><ele>364.0</ele><time>2026-03-31T09:53:33.161Z</time></trkpt><trkpt lat="41.0019483" lon="0.3460617"><ele>364.0</ele><time>2026-03-31T09:53:34.161Z</time></trkpt><trkpt lat="41.0017767" lon="0.3459717"><ele>364.0</ele><time>2026-03-31T09:53:35.161Z</time></trkpt><trkpt lat="41.001595" lon="0.3459167"><ele>365.0</ele><time>2026-03-31T09:53:36.16Z</time></trkpt><trkpt lat="41.0014217" lon="0.3458767"><ele>366.0</ele><time>2026-03-31T09:53:37.161Z</time></trkpt><trkpt lat="41.0012433" lon="0.3458417"><ele>367.0</ele><time>2026-03-31T09:53:38.16Z</time></trkpt><trkpt lat="41.0010733" lon="0.3458133"><ele>367.0</ele><time>2026-03-31T09:53:39.16Z</time></trkpt><trkpt lat="41.0009083" lon="0.3458133"><ele>367.0</ele><time>2026-03-31T09:53:40.16Z</time></trkpt><trkpt lat="41.0007467" lon="0.3458517"><ele>367.0</ele><time>2026-03-31T09:53:41.16Z</time></trkpt><trkpt lat="41.000585" lon="0.34589"><ele>368.66666666666663</ele><time>2026-03-31T09:53:42.161Z</time></trkpt><trkpt lat="41.0004267" lon="0.3459133"><ele>370.3333333333333</ele><time>2026-03-31T09:53:43.16Z</time></trkpt><trkpt lat="41.0002817" lon="0.34592"><ele>372.0</ele><time>2026-03-31T09:53:44.16Z</time></trkpt><trkpt lat="41.0001333" lon="0.3459"><ele>372.0</ele><time>2026-03-31T09:53:45.16Z</time></trkpt><trkpt lat="40.9999917" lon="0.3458433"><ele>372.0</ele><time>2026-03-31T09:53:46.161Z</time></trkpt><trkpt lat="40.999865" lon="0.345745"><ele>372.0</ele><time>2026-03-31T09:53:47.161Z</time></trkpt><trkpt lat="40.9997533" lon="0.3456117"><ele>372.0</ele><time>2026-03-31T09:53:48.161Z</time></trkpt><trkpt lat="40.9996433" lon="0.345445"><ele>374.3333333333333</ele><time>2026-03-31T09:53:49.16Z</time></trkpt><trkpt lat="40.99955" lon="0.3452717"><ele>376.66666666666663</ele><time>2026-03-31T09:53:50.161Z</time></trkpt><trkpt lat="40.99947" lon="0.345075"><ele>379.0</ele><time>2026-03-31T09:53:51.16Z</time></trkpt><trkpt lat="40.9993883" lon="0.3448767"><ele>381.0</ele><time>2026-03-31T09:53:52.161Z</time></trkpt><trkpt lat="40.9993033" lon="0.3446833"><ele>383.0</ele><time>2026-03-31T09:53:53.16Z</time></trkpt><trkpt lat="40.9992083" lon="0.3444933"><ele>385.0</ele><time>2026-03-31T09:53:54.161Z</time></trkpt><trkpt lat="40.9990883" lon="0.3443217"><ele>380.6666666666667</ele><time>2026-03-31T09:53:55.16Z</time></trkpt><trkpt lat="40.99896" lon="0.3441767"><ele>376.33333333333337</ele><time>2026-03-31T09:53:56.161Z</time></trkpt><trkpt lat="40.9988133" lon="0.34407"><ele>372.0</ele><time>2026-03-31T09:53:57.161Z</time></trkpt><trkpt lat="40.998645" lon="0.344005"><ele>372.0</ele><time>2026-03-31T09:53:58.161Z</time></trkpt><trkpt lat="40.9984683" lon="0.34396"><ele>372.0</ele><time>2026-03-31T09:53:59.16Z</time></trkpt><trkpt lat="40.9982783" lon="0.3439283"><ele>372.0</ele><time>2026-03-31T09:54:00.161Z</time></trkpt><trkpt lat="40.99808" lon="0.3439"><ele>373.0</ele><time>2026-03-31T09:54:01.16Z</time></trkpt><trkpt lat="40.9978883" lon="0.3438633"><ele>374.0</ele><time>2026-03-31T09:54:02.16Z</time></trkpt><trkpt lat="40.9977083" lon="0.3438083"><ele>375.0</ele><time>2026-03-31T09:54:03.16Z</time></trkpt><trkpt lat="40.99755" lon="0.3437117"><ele>373.6666666666667</ele><time>2026-03-31T09:54:04.161Z</time></trkpt><trkpt lat="40.997405" lon="0.34359"><ele>372.33333333333337</ele><time>2026-03-31T09:54:05.16Z</time></trkpt><trkpt lat="40.9972833" lon="0.343435"><ele>371.0</ele><time>2026-03-31T09:54:06.16Z</time></trkpt><trkpt lat="40.9971517" lon="0.34326"><ele>371.0</ele><time>2026-03-31T09:54:07.161Z</time></trkpt><trkpt lat="40.9970183" lon="0.3430833"><ele>371.0</ele><time>2026-03-31T09:54:08.161Z</time></trkpt><trkpt lat="40.9968783" lon="0.3429067"><ele>371.0</ele><time>2026-03-31T09:54:09.161Z</time></trkpt><trkpt lat="40.996745" lon="0.34273"><ele>369.6666666666667</ele><time>2026-03-31T09:54:10.16Z</time></trkpt><trkpt lat="40.9966117" lon="0.3425583"><ele>368.3333333333333</ele><time>2026-03-31T09:54:11.16Z</time></trkpt><trkpt lat="40.9964983" lon="0.3423933"><ele>367.0</ele><time>2026-03-31T09:54:12.16Z</time></trkpt><trkpt lat="40.99639" lon="0.3422167"><ele>367.0</ele><time>2026-03-31T09:54:13.16Z</time></trkpt><trkpt lat="40.9962983" lon="0.342015"><ele>367.0</ele><time>2026-03-31T09:54:14.16Z</time></trkpt><trkpt lat="40.996215" lon="0.3418117"><ele>367.0</ele><time>2026-03-31T09:54:15.161Z</time></trkpt><trkpt lat="40.9961217" lon="0.34161"><ele>367.0</ele><time>2026-03-31T09:54:16.161Z</time></trkpt><trkpt lat="40.9960317" lon="0.3414233"><ele>367.0</ele><time>2026-03-31T09:54:17.16Z</time></trkpt><trkpt lat="40.9959233" lon="0.3412583"><ele>367.0</ele><time>2026-03-31T09:54:18.16Z</time></trkpt><trkpt lat="40.9958067" lon="0.3411233"><ele>365.3333333333333</ele><time>2026-03-31T09:54:19.16Z</time></trkpt><trkpt lat="40.995665" lon="0.3410383"><ele>363.6666666666667</ele><time>2026-03-31T09:54:20.16Z</time></trkpt><trkpt lat="40.9955133" lon="0.3409633"><ele>362.0</ele><time>2026-03-31T09:54:21.16Z</time></trkpt><trkpt lat="40.9953617" lon="0.3409"><ele>362.0</ele><time>2026-03-31T09:54:22.161Z</time></trkpt><trkpt lat="40.995215" lon="0.3408367"><ele>362.0</ele><time>2026-03-31T09:54:23.16Z</time></trkpt><trkpt lat="40.9950633" lon="0.3408017"><ele>362.0</ele><time>2026-03-31T09:54:24.16Z</time></trkpt><trkpt lat="40.9949083" lon="0.3407983"><ele>361.33333333333337</ele><time>2026-03-31T09:54:25.161Z</time></trkpt><trkpt lat="40.9947533" lon="0.340855"><ele>360.6666666666667</ele><time>2026-03-31T09:54:26.16Z</time></trkpt><trkpt lat="40.99461" lon="0.340965"><ele>360.0</ele><time>2026-03-31T09:54:27.16Z</time></trkpt><trkpt lat="40.9944767" lon="0.341105"><ele>360.0</ele><time>2026-03-31T09:54:28.161Z</time></trkpt><trkpt lat="40.994345" lon="0.3412733"><ele>360.0</ele><time>2026-03-31T09:54:29.16Z</time></trkpt><trkpt lat="40.99422" lon="0.3414233"><ele>360.0</ele><time>2026-03-31T09:54:30.16Z</time></trkpt><trkpt lat="40.99409" lon="0.3415667"><ele>361.5</ele><time>2026-03-31T09:54:31.16Z</time></trkpt><trkpt lat="40.9939683" lon="0.341695"><ele>363.0</ele><time>2026-03-31T09:54:32.161Z</time></trkpt><trkpt lat="40.993845" lon="0.34179"><ele>364.5</ele><time>2026-03-31T09:54:33.16Z</time></trkpt><trkpt lat="40.993715" lon="0.3418517"><ele>366.0</ele><time>2026-03-31T09:54:34.16Z</time></trkpt><trkpt lat="40.9935733" lon="0.3418767"><ele>366.0</ele><time>2026-03-31T09:54:35.16Z</time></trkpt><trkpt lat="40.9934283" lon="0.341885"><ele>366.0</ele><time>2026-03-31T09:54:36.16Z</time></trkpt><trkpt lat="40.9932683" lon="0.3418917"><ele>366.0</ele><time>2026-03-31T09:54:37.16Z</time></trkpt><trkpt lat="40.99311" lon="0.34189"><ele>368.6666666666667</ele><time>2026-03-31T09:54:38.161Z</time></trkpt><trkpt lat="40.992955" lon="0.3418933"><ele>371.33333333333337</ele><time>2026-03-31T09:54:39.161Z</time></trkpt><trkpt lat="40.9927983" lon="0.3418983"><ele>374.0</ele><time>2026-03-31T09:54:40.161Z</time></trkpt><trkpt lat="40.9926417" lon="0.3419183"><ele>375.0</ele><time>2026-03-31T09:54:41.161Z</time></trkpt><trkpt lat="40.9924817" lon="0.3419783"><ele>376.0</ele><time>2026-03-31T09:54:42.16Z</time></trkpt><trkpt lat="40.9923367" lon="0.34207"><ele>377.0</ele><time>2026-03-31T09:54:43.161Z</time></trkpt><trkpt lat="40.99219" lon="0.3421683"><ele>375.0</ele><time>2026-03-31T09:54:44.16Z</time></trkpt><trkpt lat="40.9920483" lon="0.3422533"><ele>373.0</ele><time>2026-03-31T09:54:45.16Z</time></trkpt><trkpt lat="40.9918983" lon="0.3422817"><ele>371.0</ele><time>2026-03-31T09:54:46.16Z</time></trkpt><trkpt lat="40.9917467" lon="0.3422717"><ele>373.0</ele><time>2026-03-31T09:54:47.161Z</time></trkpt><trkpt lat="40.9915867" lon="0.34225"><ele>375.0</ele><time>2026-03-31T09:54:48.16Z</time></trkpt><trkpt lat="40.9914267" lon="0.342215"><ele>377.0</ele><time>2026-03-31T09:54:49.16Z</time></trkpt><trkpt lat="40.9912667" lon="0.3421717"><ele>379.33333333333337</ele><time>2026-03-31T09:54:50.161Z</time></trkpt><trkpt lat="40.9911133" lon="0.3420967"><ele>381.6666666666667</ele><time>2026-03-31T09:54:51.16Z</time></trkpt><trkpt lat="40.9909617" lon="0.3419967"><ele>384.0</ele><time>2026-03-31T09:54:52.16Z</time></trkpt><trkpt lat="40.99082" lon="0.3418767"><ele>384.33333333333337</ele><time>2026-03-31T09:54:53.161Z</time></trkpt><trkpt lat="40.99068" lon="0.34175"><ele>384.6666666666667</ele><time>2026-03-31T09:54:54.16Z</time></trkpt><trkpt lat="40.9905317" lon="0.34162"><ele>385.0</ele><time>2026-03-31T09:54:55.16Z</time></trkpt><trkpt lat="40.9903767" lon="0.341495"><ele>385.0</ele><time>2026-03-31T09:54:56.16Z</time></trkpt><trkpt lat="40.99023" lon="0.34139"><ele>385.0</ele><time>2026-03-31T09:54:57.16Z</time></trkpt><trkpt lat="40.9900933" lon="0.3413133"><ele>385.0</ele><time>2026-03-31T09:54:58.16Z</time></trkpt><trkpt lat="40.98995" lon="0.3412867"><ele>384.6666666666667</ele><time>2026-03-31T09:54:59.16Z</time></trkpt><trkpt lat="40.9897933" lon="0.3412817"><ele>384.33333333333337</ele><time>2026-03-31T09:55:00.16Z</time></trkpt><trkpt lat="40.9896267" lon="0.341295"><ele>384.0</ele><time>2026-03-31T09:55:01.16Z</time></trkpt><trkpt lat="40.9894617" lon="0.3413233"><ele>384.0</ele><time>2026-03-31T09:55:02.16Z</time></trkpt><trkpt lat="40.9892833" lon="0.34136"><ele>384.0</ele><time>2026-03-31T09:55:03.161Z</time></trkpt><trkpt lat="40.98911" lon="0.3413967"><ele>384.0</ele><time>2026-03-31T09:55:04.16Z</time></trkpt><trkpt lat="40.9889333" lon="0.34141"><ele>385.0</ele><time>2026-03-31T09:55:05.16Z</time></trkpt><trkpt lat="40.988775" lon="0.3414083"><ele>386.0</ele><time>2026-03-31T09:55:06.161Z</time></trkpt><trkpt lat="40.988625" lon="0.3413817"><ele>387.0</ele><time>2026-03-31T09:55:07.161Z</time></trkpt><trkpt lat="40.988475" lon="0.3413133"><ele>389.66666666666663</ele><time>2026-03-31T09:55:08.161Z</time></trkpt><trkpt lat="40.988335" lon="0.3412133"><ele>392.3333333333333</ele><time>2026-03-31T09:55:09.161Z</time></trkpt><trkpt lat="40.9882" lon="0.3410817"><ele>395.0</ele><time>2026-03-31T09:55:10.16Z</time></trkpt><trkpt lat="40.988085" lon="0.3409267"><ele>395.0</ele><time>2026-03-31T09:55:11.16Z</time></trkpt><trkpt lat="40.9879767" lon="0.3407383"><ele>395.0</ele><time>2026-03-31T09:55:12.16Z</time></trkpt><trkpt lat="40.9878783" lon="0.34053"><ele>395.0</ele><time>2026-03-31T09:55:13.161Z</time></trkpt><trkpt lat="40.9877717" lon="0.3403183"><ele>394.3333333333333</ele><time>2026-03-31T09:55:14.16Z</time></trkpt><trkpt lat="40.9876583" lon="0.3401083"><ele>393.66666666666663</ele><time>2026-03-31T09:55:15.161Z</time></trkpt><trkpt lat="40.987535" lon="0.33989"><ele>393.0</ele><time>2026-03-31T09:55:16.16Z</time></trkpt><trkpt lat="40.9874183" lon="0.339665"><ele>393.0</ele><time>2026-03-31T09:55:17.16Z</time></trkpt><trkpt lat="40.9873133" lon="0.3394333"><ele>393.0</ele><time>2026-03-31T09:55:18.16Z</time></trkpt><trkpt lat="40.9872233" lon="0.3392033"><ele>393.0</ele><time>2026-03-31T09:55:19.16Z</time></trkpt><trkpt lat="40.9871433" lon="0.3389817"><ele>394.33333333333337</ele><time>2026-03-31T09:55:20.16Z</time></trkpt><trkpt lat="40.9870583" lon="0.3387733"><ele>395.6666666666667</ele><time>2026-03-31T09:55:21.16Z</time></trkpt><trkpt lat="40.9869583" lon="0.33858"><ele>397.0</ele><time>2026-03-31T09:55:22.161Z</time></trkpt><trkpt lat="40.9868383" lon="0.33841"><ele>397.0</ele><time>2026-03-31T09:55:23.161Z</time></trkpt><trkpt lat="40.986695" lon="0.3382817"><ele>397.0</ele><time>2026-03-31T09:55:24.161Z</time></trkpt><trkpt lat="40.9865217" lon="0.3382"><ele>397.0</ele><time>2026-03-31T09:55:25.16Z</time></trkpt><trkpt lat="40.9863317" lon="0.3381533"><ele>396.33333333333337</ele><time>2026-03-31T09:55:26.16Z</time></trkpt><trkpt lat="40.9861367" lon="0.3381267"><ele>395.66666666666663</ele><time>2026-03-31T09:55:27.161Z</time></trkpt><trkpt lat="40.9859467" lon="0.3380783"><ele>395.0</ele><time>2026-03-31T09:55:28.16Z</time></trkpt><trkpt lat="40.98576" lon="0.3380233"><ele>395.0</ele><time>2026-03-31T09:55:29.16Z</time></trkpt><trkpt lat="40.985595" lon="0.3379233"><ele>395.0</ele><time>2026-03-31T09:55:30.16Z</time></trkpt><trkpt lat="40.9854533" lon="0.3378"><ele>395.0</ele><time>2026-03-31T09:55:31.16Z</time></trkpt><trkpt lat="40.9853333" lon="0.3376267"><ele>395.0</ele><time>2026-03-31T09:55:32.161Z</time></trkpt><trkpt lat="40.9852483" lon="0.3374517"><ele>395.0</ele><time>2026-03-31T09:55:33.161Z</time></trkpt><trkpt lat="40.98519" lon="0.33725"><ele>395.0</ele><time>2026-03-31T09:55:34.161Z</time></trkpt><trkpt lat="40.9851583" lon="0.337035"><ele>398.0</ele><time>2026-03-31T09:55:35.161Z</time></trkpt><trkpt lat="40.985135" lon="0.3368083"><ele>401.0</ele><time>2026-03-31T09:55:36.161Z</time></trkpt><trkpt lat="40.985105" lon="0.3365767"><ele>404.0</ele><time>2026-03-31T09:55:37.161Z</time></trkpt><trkpt lat="40.9850733" lon="0.3363417"><ele>402.66666666666663</ele><time>2026-03-31T09:55:38.16Z</time></trkpt><trkpt lat="40.9850467" lon="0.3361033"><ele>401.33333333333337</ele><time>2026-03-31T09:55:39.16Z</time></trkpt><trkpt lat="40.985005" lon="0.3358683"><ele>400.0</ele><time>2026-03-31T09:55:40.16Z</time></trkpt><trkpt lat="40.98498" lon="0.3356333"><ele>404.6666666666667</ele><time>2026-03-31T09:55:41.161Z</time></trkpt><trkpt lat="40.9849483" lon="0.3353983"><ele>409.33333333333337</ele><time>2026-03-31T09:55:42.161Z</time></trkpt><trkpt lat="40.9849067" lon="0.3351667"><ele>414.0</ele><time>2026-03-31T09:55:43.16Z</time></trkpt><trkpt lat="40.9848483" lon="0.3349467"><ele>414.0</ele><time>2026-03-31T09:55:44.161Z</time></trkpt><trkpt lat="40.9847683" lon="0.334745"><ele>414.0</ele><time>2026-03-31T09:55:45.161Z</time></trkpt><trkpt lat="40.984675" lon="0.33456"><ele>414.0</ele><time>2026-03-31T09:55:46.16Z</time></trkpt><trkpt lat="40.9845883" lon="0.3343717"><ele>420.33333333333337</ele><time>2026-03-31T09:55:47.16Z</time></trkpt><trkpt lat="40.984505" lon="0.3341783"><ele>426.6666666666667</ele><time>2026-03-31T09:55:48.16Z</time></trkpt><trkpt lat="40.9844133" lon="0.33399"><ele>433.0</ele><time>2026-03-31T09:55:49.161Z</time></trkpt><trkpt lat="40.9843033" lon="0.333815"><ele>429.6666666666667</ele><time>2026-03-31T09:55:50.161Z</time></trkpt><trkpt lat="40.9841733" lon="0.333665"><ele>426.33333333333337</ele><time>2026-03-31T09:55:51.161Z</time></trkpt><trkpt lat="40.984025" lon="0.3335683"><ele>423.0</ele><time>2026-03-31T09:55:52.16Z</time></trkpt><trkpt lat="40.983855" lon="0.3335183"><ele>423.0</ele><time>2026-03-31T09:55:53.161Z</time></trkpt><trkpt lat="40.983665" lon="0.3335333"><ele>423.0</ele><time>2026-03-31T09:55:54.16Z</time></trkpt><trkpt lat="40.9834883" lon="0.3335717"><ele>423.0</ele><time>2026-03-31T09:55:55.16Z</time></trkpt><trkpt lat="40.9833117" lon="0.333625"><ele>423.0</ele><time>2026-03-31T09:55:56.16Z</time></trkpt><trkpt lat="40.983135" lon="0.3336517"><ele>423.0</ele><time>2026-03-31T09:55:57.161Z</time></trkpt><trkpt lat="40.9829683" lon="0.333645"><ele>423.0</ele><time>2026-03-31T09:55:58.16Z</time></trkpt><trkpt lat="40.9828067" lon="0.3335733"><ele>423.0</ele><time>2026-03-31T09:55:59.16Z</time></trkpt><trkpt lat="40.9826783" lon="0.33346"><ele>423.0</ele><time>2026-03-31T09:56:00.161Z</time></trkpt><trkpt lat="40.9825683" lon="0.3333067"><ele>423.0</ele><time>2026-03-31T09:56:01.161Z</time></trkpt><trkpt lat="40.9824717" lon="0.33313"><ele>426.66666666666663</ele><time>2026-03-31T09:56:02.16Z</time></trkpt><trkpt lat="40.9823817" lon="0.332925"><ele>430.3333333333333</ele><time>2026-03-31T09:56:03.16Z</time></trkpt><trkpt lat="40.9822867" lon="0.33271"><ele>434.0</ele><time>2026-03-31T09:56:04.16Z</time></trkpt><trkpt lat="40.98219" lon="0.3324867"><ele>434.0</ele><time>2026-03-31T09:56:05.16Z</time></trkpt><trkpt lat="40.98209" lon="0.332265"><ele>434.0</ele><time>2026-03-31T09:56:06.161Z</time></trkpt><trkpt lat="40.9819833" lon="0.33203"><ele>434.0</ele><time>2026-03-31T09:56:07.16Z</time></trkpt><trkpt lat="40.9818783" lon="0.331795"><ele>440.3333333333333</ele><time>2026-03-31T09:56:08.161Z</time></trkpt><trkpt lat="40.9817767" lon="0.33156"><ele>446.66666666666663</ele><time>2026-03-31T09:56:09.16Z</time></trkpt><trkpt lat="40.9816717" lon="0.3313433"><ele>453.0</ele><time>2026-03-31T09:56:10.16Z</time></trkpt><trkpt lat="40.9815817" lon="0.3311283"><ele>453.0</ele><time>2026-03-31T09:56:11.161Z</time></trkpt><trkpt lat="40.9814817" lon="0.33094"><ele>453.0</ele><time>2026-03-31T09:56:12.16Z</time></trkpt><trkpt lat="40.9813817" lon="0.3307683"><ele>453.0</ele><time>2026-03-31T09:56:13.16Z</time></trkpt><trkpt lat="40.98126" lon="0.330655"><ele>453.0</ele><time>2026-03-31T09:56:14.16Z</time></trkpt><trkpt lat="40.981105" lon="0.3305683"><ele>453.0</ele><time>2026-03-31T09:56:15.16Z</time></trkpt><trkpt lat="40.980935" lon="0.3305083"><ele>453.0</ele><time>2026-03-31T09:56:16.161Z</time></trkpt><trkpt lat="40.9807633" lon="0.3304433"><ele>455.33333333333337</ele><time>2026-03-31T09:56:17.16Z</time></trkpt><trkpt lat="40.9805933" lon="0.3303917"><ele>457.6666666666667</ele><time>2026-03-31T09:56:18.16Z</time></trkpt><trkpt lat="40.980435" lon="0.3303233"><ele>460.0</ele><time>2026-03-31T09:56:19.161Z</time></trkpt><trkpt lat="40.980275" lon="0.3302667"><ele>460.0</ele><time>2026-03-31T09:56:20.16Z</time></trkpt><trkpt lat="40.9801217" lon="0.3302433"><ele>460.0</ele><time>2026-03-31T09:56:21.16Z</time></trkpt><trkpt lat="40.9799783" lon="0.3302733"><ele>460.0</ele><time>2026-03-31T09:56:22.161Z</time></trkpt><trkpt lat="40.9798283" lon="0.3303367"><ele>460.6666666666667</ele><time>2026-03-31T09:56:23.16Z</time></trkpt><trkpt lat="40.9796733" lon="0.3303917"><ele>461.33333333333337</ele><time>2026-03-31T09:56:24.161Z</time></trkpt><trkpt lat="40.9795133" lon="0.3304383"><ele>462.0</ele><time>2026-03-31T09:56:25.16Z</time></trkpt><trkpt lat="40.9793483" lon="0.3304583"><ele>462.0</ele><time>2026-03-31T09:56:26.16Z</time></trkpt><trkpt lat="40.9791883" lon="0.3304617"><ele>462.0</ele><time>2026-03-31T09:56:27.16Z</time></trkpt><trkpt lat="40.9790217" lon="0.3304567"><ele>462.0</ele><time>2026-03-31T09:56:28.161Z</time></trkpt><trkpt lat="40.97887" lon="0.33048"><ele>462.75</ele><time>2026-03-31T09:56:29.16Z</time></trkpt><trkpt lat="40.9787367" lon="0.33052"><ele>463.5</ele><time>2026-03-31T09:56:30.16Z</time></trkpt><trkpt lat="40.9786283" lon="0.3305717"><ele>464.25</ele><time>2026-03-31T09:56:31.16Z</time></trkpt><trkpt lat="40.9785383" lon="0.33067"><ele>465.0</ele><time>2026-03-31T09:56:32.16Z</time></trkpt><trkpt lat="40.9784483" lon="0.3308083"><ele>464.25</ele><time>2026-03-31T09:56:33.161Z</time></trkpt><trkpt lat="40.9783767" lon="0.3309767"><ele>463.5</ele><time>2026-03-31T09:56:34.161Z</time></trkpt><trkpt lat="40.9782917" lon="0.3311383"><ele>462.75</ele><time>2026-03-31T09:56:35.16Z</time></trkpt><trkpt lat="40.9781867" lon="0.3312783"><ele>462.0</ele><time>2026-03-31T09:56:36.161Z</time></trkpt><trkpt lat="40.9780467" lon="0.33136"><ele>457.66666666666663</ele><time>2026-03-31T09:56:37.16Z</time></trkpt><trkpt lat="40.9778917" lon="0.331395"><ele>453.3333333333333</ele><time>2026-03-31T09:56:38.161Z</time></trkpt><trkpt lat="40.9777433" lon="0.3314183"><ele>449.0</ele><time>2026-03-31T09:56:39.161Z</time></trkpt><trkpt lat="40.9775733" lon="0.33146"><ele>455.66666666666663</ele><time>2026-03-31T09:56:40.16Z</time></trkpt><trkpt lat="40.9774433" lon="0.3315683"><ele>462.33333333333337</ele><time>2026-03-31T09:56:41.161Z</time></trkpt><trkpt lat="40.977325" lon="0.3316967"><ele>469.0</ele><time>2026-03-31T09:56:42.16Z</time></trkpt><trkpt lat="40.9772083" lon="0.3318317"><ele>469.0</ele><time>2026-03-31T09:56:43.161Z</time></trkpt><trkpt lat="40.9771083" lon="0.3319783"><ele>469.0</ele><time>2026-03-31T09:56:44.16Z</time></trkpt><trkpt lat="40.9770183" lon="0.3321"><ele>469.0</ele><time>2026-03-31T09:56:45.16Z</time></trkpt><trkpt lat="40.9769117" lon="0.332175"><ele>469.0</ele><time>2026-03-31T09:56:46.161Z</time></trkpt><trkpt lat="40.9767917" lon="0.3321933"><ele>469.75</ele><time>2026-03-31T09:56:47.16Z</time></trkpt><trkpt lat="40.9766617" lon="0.33216"><ele>470.5</ele><time>2026-03-31T09:56:48.161Z</time></trkpt><trkpt lat="40.976525" lon="0.3321233"><ele>471.25</ele><time>2026-03-31T09:56:49.16Z</time></trkpt><trkpt lat="40.9763783" lon="0.3321067"><ele>472.0</ele><time>2026-03-31T09:56:50.161Z</time></trkpt><trkpt lat="40.9762183" lon="0.3321067"><ele>472.0</ele><time>2026-03-31T09:56:51.16Z</time></trkpt><trkpt lat="40.9760717" lon="0.3321117"><ele>472.0</ele><time>2026-03-31T09:56:52.16Z</time></trkpt><trkpt lat="40.97592" lon="0.3320933"><ele>472.0</ele><time>2026-03-31T09:56:53.16Z</time></trkpt><trkpt lat="40.9757733" lon="0.3320317"><ele>467.6666666666667</ele><time>2026-03-31T09:56:54.161Z</time></trkpt><trkpt lat="40.9756217" lon="0.331925"><ele>463.33333333333337</ele><time>2026-03-31T09:56:55.161Z</time></trkpt><trkpt lat="40.9754917" lon="0.3317867"><ele>459.0</ele><time>2026-03-31T09:56:56.16Z</time></trkpt><trkpt lat="40.9753917" lon="0.3316083"><ele>459.0</ele><time>2026-03-31T09:56:57.161Z</time></trkpt><trkpt lat="40.9753083" lon="0.3313917"><ele>459.0</ele><time>2026-03-31T09:56:58.161Z</time></trkpt><trkpt lat="40.9752467" lon="0.3311683"><ele>459.0</ele><time>2026-03-31T09:56:59.161Z</time></trkpt><trkpt lat="40.9751833" lon="0.3309233"><ele>458.33333333333337</ele><time>2026-03-31T09:57:00.16Z</time></trkpt><trkpt lat="40.9751167" lon="0.3306933"><ele>457.6666666666667</ele><time>2026-03-31T09:57:01.161Z</time></trkpt><trkpt lat="40.9750367" lon="0.330455"><ele>457.0</ele><time>2026-03-31T09:57:02.16Z</time></trkpt><trkpt lat="40.9749433" lon="0.330225"><ele>455.0</ele><time>2026-03-31T09:57:03.16Z</time></trkpt><trkpt lat="40.9748517" lon="0.330005"><ele>453.0</ele><time>2026-03-31T09:57:04.16Z</time></trkpt><trkpt lat="40.9747667" lon="0.3297883"><ele>451.0</ele><time>2026-03-31T09:57:05.16Z</time></trkpt><trkpt lat="40.974695" lon="0.32958"><ele>450.33333333333337</ele><time>2026-03-31T09:57:06.16Z</time></trkpt><trkpt lat="40.9746017" lon="0.3293767"><ele>449.66666666666663</ele><time>2026-03-31T09:57:07.16Z</time></trkpt><trkpt lat="40.97449" lon="0.3291883"><ele>449.0</ele><time>2026-03-31T09:57:08.161Z</time></trkpt><trkpt lat="40.974365" lon="0.3290167"><ele>448.66666666666663</ele><time>2026-03-31T09:57:09.161Z</time></trkpt><trkpt lat="40.9742233" lon="0.3288567"><ele>448.33333333333337</ele><time>2026-03-31T09:57:10.16Z</time></trkpt><trkpt lat="40.9740917" lon="0.3286683"><ele>448.0</ele><time>2026-03-31T09:57:11.16Z</time></trkpt><trkpt lat="40.97395" lon="0.3284917"><ele>446.6666666666667</ele><time>2026-03-31T09:57:12.16Z</time></trkpt><trkpt lat="40.9738067" lon="0.328305"><ele>445.33333333333337</ele><time>2026-03-31T09:57:13.161Z</time></trkpt><trkpt lat="40.97366" lon="0.3281167"><ele>444.0</ele><time>2026-03-31T09:57:14.16Z</time></trkpt><trkpt lat="40.97352" lon="0.3279267"><ele>443.66666666666663</ele><time>2026-03-31T09:57:15.16Z</time></trkpt><trkpt lat="40.973385" lon="0.3277417"><ele>443.3333333333333</ele><time>2026-03-31T09:57:16.161Z</time></trkpt><trkpt lat="40.9732417" lon="0.3275517"><ele>443.0</ele><time>2026-03-31T09:57:17.161Z</time></trkpt><trkpt lat="40.973095" lon="0.3273717"><ele>442.0</ele><time>2026-03-31T09:57:18.16Z</time></trkpt><trkpt lat="40.97294" lon="0.327205"><ele>441.0</ele><time>2026-03-31T09:57:19.161Z</time></trkpt><trkpt lat="40.9727833" lon="0.3270467"><ele>440.0</ele><time>2026-03-31T09:57:20.16Z</time></trkpt><trkpt lat="40.972615" lon="0.3268883"><ele>439.0</ele><time>2026-03-31T09:57:21.161Z</time></trkpt><trkpt lat="40.9724433" lon="0.32672"><ele>438.0</ele><time>2026-03-31T09:57:22.161Z</time></trkpt><trkpt lat="40.972275" lon="0.3265533"><ele>437.0</ele><time>2026-03-31T09:57:23.161Z</time></trkpt><trkpt lat="40.9721217" lon="0.32637"><ele>436.66666666666663</ele><time>2026-03-31T09:57:24.161Z</time></trkpt><trkpt lat="40.9719583" lon="0.3261833"><ele>436.33333333333337</ele><time>2026-03-31T09:57:25.16Z</time></trkpt><trkpt lat="40.9718" lon="0.3259967"><ele>436.0</ele><time>2026-03-31T09:57:26.161Z</time></trkpt><trkpt lat="40.9716417" lon="0.32581"><ele>436.0</ele><time>2026-03-31T09:57:27.16Z</time></trkpt><trkpt lat="40.9714883" lon="0.3256233"><ele>436.0</ele><time>2026-03-31T09:57:28.16Z</time></trkpt><trkpt lat="40.97134" lon="0.3254433"><ele>436.0</ele><time>2026-03-31T09:57:29.16Z</time></trkpt><trkpt lat="40.97121" lon="0.32526"><ele>436.0</ele><time>2026-03-31T09:57:30.16Z</time></trkpt><trkpt lat="40.9710767" lon="0.3250633"><ele>436.0</ele><time>2026-03-31T09:57:31.161Z</time></trkpt><trkpt lat="40.9709433" lon="0.3248667"><ele>436.0</ele><time>2026-03-31T09:57:32.161Z</time></trkpt><trkpt lat="40.970805" lon="0.3246967"><ele>435.33333333333337</ele><time>2026-03-31T09:57:33.161Z</time></trkpt><trkpt lat="40.9706617" lon="0.3245367"><ele>434.66666666666663</ele><time>2026-03-31T09:57:34.161Z</time></trkpt><trkpt lat="40.9705167" lon="0.3244133"><ele>434.0</ele><time>2026-03-31T09:57:35.161Z</time></trkpt><trkpt lat="40.9703517" lon="0.3243133"><ele>434.0</ele><time>2026-03-31T09:57:36.16Z</time></trkpt><trkpt lat="40.9701867" lon="0.3242117"><ele>434.0</ele><time>2026-03-31T09:57:37.16Z</time></trkpt><trkpt lat="40.9700417" lon="0.3240583"><ele>434.0</ele><time>2026-03-31T09:57:38.16Z</time></trkpt><trkpt lat="40.9699183" lon="0.3238617"><ele>433.66666666666663</ele><time>2026-03-31T09:57:39.16Z</time></trkpt><trkpt lat="40.9698117" lon="0.32365"><ele>433.33333333333337</ele><time>2026-03-31T09:57:40.161Z</time></trkpt><trkpt lat="40.9697133" lon="0.3234333"><ele>433.0</ele><time>2026-03-31T09:57:41.161Z</time></trkpt><trkpt lat="40.9696217" lon="0.3232167"><ele>431.6666666666667</ele><time>2026-03-31T09:57:42.16Z</time></trkpt><trkpt lat="40.9695383" lon="0.323015"><ele>430.33333333333337</ele><time>2026-03-31T09:57:43.16Z</time></trkpt><trkpt lat="40.9694467" lon="0.3228283"><ele>429.0</ele><time>2026-03-31T09:57:44.16Z</time></trkpt><trkpt lat="40.9693283" lon="0.322675"><ele>429.0</ele><time>2026-03-31T09:57:45.161Z</time></trkpt><trkpt lat="40.969195" lon="0.32252"><ele>429.0</ele><time>2026-03-31T09:57:46.161Z</time></trkpt><trkpt lat="40.9690483" lon="0.32236"><ele>429.0</ele><time>2026-03-31T09:57:47.161Z</time></trkpt><trkpt lat="40.968895" lon="0.3222033"><ele>427.66666666666663</ele><time>2026-03-31T09:57:48.161Z</time></trkpt><trkpt lat="40.9687367" lon="0.322045"><ele>426.3333333333333</ele><time>2026-03-31T09:57:49.16Z</time></trkpt><trkpt lat="40.9685783" lon="0.32188"><ele>425.0</ele><time>2026-03-31T09:57:50.161Z</time></trkpt><trkpt lat="40.9684133" lon="0.321715"><ele>425.66666666666663</ele><time>2026-03-31T09:57:51.161Z</time></trkpt><trkpt lat="40.9682583" lon="0.3215333"><ele>426.33333333333337</ele><time>2026-03-31T09:57:52.161Z</time></trkpt><trkpt lat="40.9681133" lon="0.321335"><ele>427.0</ele><time>2026-03-31T09:57:53.16Z</time></trkpt><trkpt lat="40.9679733" lon="0.3211217"><ele>425.6666666666667</ele><time>2026-03-31T09:57:54.16Z</time></trkpt><trkpt lat="40.9678333" lon="0.3209083"><ele>424.33333333333337</ele><time>2026-03-31T09:57:55.16Z</time></trkpt><trkpt lat="40.967695" lon="0.320695"><ele>423.0</ele><time>2026-03-31T09:57:56.161Z</time></trkpt><trkpt lat="40.9675533" lon="0.3204983"><ele>423.0</ele><time>2026-03-31T09:57:57.161Z</time></trkpt><trkpt lat="40.967415" lon="0.32028"><ele>423.0</ele><time>2026-03-31T09:57:58.16Z</time></trkpt><trkpt lat="40.96727" lon="0.3200817"><ele>423.0</ele><time>2026-03-31T09:57:59.16Z</time></trkpt><trkpt lat="40.9671233" lon="0.3198867"><ele>422.66666666666663</ele><time>2026-03-31T09:58:00.16Z</time></trkpt><trkpt lat="40.9669783" lon="0.3196883"><ele>422.3333333333333</ele><time>2026-03-31T09:58:01.16Z</time></trkpt><trkpt lat="40.9668417" lon="0.3194883"><ele>422.0</ele><time>2026-03-31T09:58:02.161Z</time></trkpt><trkpt lat="40.9667033" lon="0.31929"><ele>422.0</ele><time>2026-03-31T09:58:03.161Z</time></trkpt><trkpt lat="40.9665633" lon="0.3190983"><ele>422.0</ele><time>2026-03-31T09:58:04.161Z</time></trkpt><trkpt lat="40.9664233" lon="0.3189133"><ele>422.0</ele><time>2026-03-31T09:58:05.16Z</time></trkpt><trkpt lat="40.9662783" lon="0.3187417"><ele>422.0</ele><time>2026-03-31T09:58:06.16Z</time></trkpt><trkpt lat="40.9661333" lon="0.318575"><ele>422.0</ele><time>2026-03-31T09:58:07.161Z</time></trkpt><trkpt lat="40.9659867" lon="0.31842"><ele>422.0</ele><time>2026-03-31T09:58:08.161Z</time></trkpt><trkpt lat="40.9658283" lon="0.3182833"><ele>423.0</ele><time>2026-03-31T09:58:09.161Z</time></trkpt><trkpt lat="40.96568" lon="0.31815"><ele>424.0</ele><time>2026-03-31T09:58:10.16Z</time></trkpt><trkpt lat="40.9655417" lon="0.318015"><ele>425.0</ele><time>2026-03-31T09:58:11.16Z</time></trkpt><trkpt lat="40.9654083" lon="0.3178733"><ele>425.0</ele><time>2026-03-31T09:58:12.161Z</time></trkpt><trkpt lat="40.9652817" lon="0.317755"><ele>425.0</ele><time>2026-03-31T09:58:13.16Z</time></trkpt><trkpt lat="40.965165" lon="0.317635"><ele>425.0</ele><time>2026-03-31T09:58:14.16Z</time></trkpt><trkpt lat="40.9650717" lon="0.3175017"><ele>425.0</ele><time>2026-03-31T09:58:15.161Z</time></trkpt><trkpt lat="40.9649967" lon="0.317355"><ele>427.0</ele><time>2026-03-31T09:58:16.16Z</time></trkpt><trkpt lat="40.9649567" lon="0.3171867"><ele>429.0</ele><time>2026-03-31T09:58:17.16Z</time></trkpt><trkpt lat="40.9649417" lon="0.3169933"><ele>431.0</ele><time>2026-03-31T09:58:18.16Z</time></trkpt><trkpt lat="40.964935" lon="0.31679"><ele>433.0</ele><time>2026-03-31T09:58:19.161Z</time></trkpt><trkpt lat="40.9649283" lon="0.3165767"><ele>434.33333333333337</ele><time>2026-03-31T09:58:20.16Z</time></trkpt><trkpt lat="40.96492" lon="0.3163617"><ele>435.66666666666663</ele><time>2026-03-31T09:58:21.161Z</time></trkpt><trkpt lat="40.9649117" lon="0.31615"><ele>437.0</ele><time>2026-03-31T09:58:22.161Z</time></trkpt><trkpt lat="40.9649" lon="0.315935"><ele>437.0</ele><time>2026-03-31T09:58:23.161Z</time></trkpt><trkpt lat="40.9648833" lon="0.3157267"><ele>437.0</ele><time>2026-03-31T09:58:24.16Z</time></trkpt><trkpt lat="40.9648767" lon="0.31554"><ele>437.0</ele><time>2026-03-31T09:58:25.16Z</time></trkpt><trkpt lat="40.9648483" lon="0.31537"><ele>437.0</ele><time>2026-03-31T09:58:26.16Z</time></trkpt><trkpt lat="40.9648067" lon="0.3152033"><ele>437.25</ele><time>2026-03-31T09:58:27.16Z</time></trkpt><trkpt lat="40.964735" lon="0.315085"><ele>437.5</ele><time>2026-03-31T09:58:28.161Z</time></trkpt><trkpt lat="40.9646233" lon="0.3149883"><ele>437.75</ele><time>2026-03-31T09:58:29.16Z</time></trkpt><trkpt lat="40.9644883" lon="0.3149083"><ele>438.0</ele><time>2026-03-31T09:58:30.16Z</time></trkpt><trkpt lat="40.96436" lon="0.31483"><ele>438.0</ele><time>2026-03-31T09:58:31.16Z</time></trkpt><trkpt lat="40.9642317" lon="0.3147383"><ele>438.0</ele><time>2026-03-31T09:58:32.16Z</time></trkpt><trkpt lat="40.9641067" lon="0.3146433"><ele>438.0</ele><time>2026-03-31T09:58:33.16Z</time></trkpt><trkpt lat="40.9639717" lon="0.3145367"><ele>438.0</ele><time>2026-03-31T09:58:34.161Z</time></trkpt><trkpt lat="40.963845" lon="0.3144283"><ele>439.33333333333337</ele><time>2026-03-31T09:58:35.161Z</time></trkpt><trkpt lat="40.963715" lon="0.3143267"><ele>440.6666666666667</ele><time>2026-03-31T09:58:36.161Z</time></trkpt><trkpt lat="40.9635817" lon="0.3142167"><ele>442.0</ele><time>2026-03-31T09:58:37.161Z</time></trkpt><trkpt lat="40.96346" lon="0.3141017"><ele>443.5</ele><time>2026-03-31T09:58:38.16Z</time></trkpt><trkpt lat="40.963335" lon="0.3139783"><ele>445.0</ele><time>2026-03-31T09:58:39.161Z</time></trkpt><trkpt lat="40.9632183" lon="0.3138733"><ele>446.5</ele><time>2026-03-31T09:58:40.161Z</time></trkpt><trkpt lat="40.9631217" lon="0.3137717"><ele>448.0</ele><time>2026-03-31T09:58:41.16Z</time></trkpt><trkpt lat="40.9630183" lon="0.3136783"><ele>448.0</ele><time>2026-03-31T09:58:42.16Z</time></trkpt><trkpt lat="40.9629083" lon="0.3136217"><ele>447.99999999999994</ele><time>2026-03-31T09:58:43.16Z</time></trkpt><trkpt lat="40.9628" lon="0.3136017"><ele>447.99999999999994</ele><time>2026-03-31T09:58:44.161Z</time></trkpt><trkpt lat="40.962705" lon="0.313635"><ele>448.0</ele><time>2026-03-31T09:58:45.16Z</time></trkpt><trkpt lat="40.962615" lon="0.313725"><ele>448.0</ele><time>2026-03-31T09:58:46.16Z</time></trkpt><trkpt lat="40.962545" lon="0.3138683"><ele>450.0</ele><time>2026-03-31T09:58:47.16Z</time></trkpt><trkpt lat="40.9625133" lon="0.3140233"><ele>452.0</ele><time>2026-03-31T09:58:48.16Z</time></trkpt><trkpt lat="40.9625383" lon="0.3141783"><ele>454.0</ele><time>2026-03-31T09:58:49.16Z</time></trkpt><trkpt lat="40.9625883" lon="0.314355"><ele>456.0</ele><time>2026-03-31T09:58:50.161Z</time></trkpt><trkpt lat="40.962625" lon="0.314545"><ele>457.66666666666663</ele><time>2026-03-31T09:58:51.16Z</time></trkpt><trkpt lat="40.96263" lon="0.314755"><ele>459.3333333333333</ele><time>2026-03-31T09:58:52.16Z</time></trkpt><trkpt lat="40.9626167" lon="0.3149667"><ele>461.0</ele><time>2026-03-31T09:58:53.16Z</time></trkpt><trkpt lat="40.9625883" lon="0.3151767"><ele>461.0</ele><time>2026-03-31T09:58:54.16Z</time></trkpt><trkpt lat="40.962565" lon="0.315385"><ele>461.0</ele><time>2026-03-31T09:58:55.16Z</time></trkpt><trkpt lat="40.9625483" lon="0.3155883"><ele>461.0</ele><time>2026-03-31T09:58:56.161Z</time></trkpt><trkpt lat="40.9625233" lon="0.3157767"><ele>461.75</ele><time>2026-03-31T09:58:57.16Z</time></trkpt><trkpt lat="40.9624533" lon="0.3159167"><ele>462.5</ele><time>2026-03-31T09:58:58.161Z</time></trkpt><trkpt lat="40.9623433" lon="0.3159917"><ele>463.25</ele><time>2026-03-31T09:58:59.16Z</time></trkpt><trkpt lat="40.9622283" lon="0.31603"><ele>464.0</ele><time>2026-03-31T09:59:00.161Z</time></trkpt><trkpt lat="40.9621183" lon="0.3160683"><ele>464.0</ele><time>2026-03-31T09:59:01.16Z</time></trkpt><trkpt lat="40.96204" lon="0.31615"><ele>464.0</ele><time>2026-03-31T09:59:02.16Z</time></trkpt><trkpt lat="40.9619717" lon="0.316275"><ele>464.0</ele><time>2026-03-31T09:59:03.16Z</time></trkpt><trkpt lat="40.9619267" lon="0.3164317"><ele>464.0</ele><time>2026-03-31T09:59:04.16Z</time></trkpt><trkpt lat="40.9618983" lon="0.316605"><ele>466.0</ele><time>2026-03-31T09:59:05.161Z</time></trkpt><trkpt lat="40.9618717" lon="0.3167867"><ele>468.0</ele><time>2026-03-31T09:59:06.161Z</time></trkpt><trkpt lat="40.9618383" lon="0.31698"><ele>470.0</ele><time>2026-03-31T09:59:07.16Z</time></trkpt><trkpt lat="40.9618033" lon="0.3171733"><ele>472.0</ele><time>2026-03-31T09:59:08.16Z</time></trkpt><trkpt lat="40.9617633" lon="0.317345"><ele>474.0</ele><time>2026-03-31T09:59:09.161Z</time></trkpt><trkpt lat="40.9616717" lon="0.3174883"><ele>476.0</ele><time>2026-03-31T09:59:10.16Z</time></trkpt><trkpt lat="40.9615483" lon="0.3175983"><ele>478.0</ele><time>2026-03-31T09:59:11.16Z</time></trkpt><trkpt lat="40.9614133" lon="0.3176767"><ele>480.0</ele><time>2026-03-31T09:59:12.16Z</time></trkpt><trkpt lat="40.9612633" lon="0.31776"><ele>480.0</ele><time>2026-03-31T09:59:13.16Z</time></trkpt><trkpt lat="40.9611233" lon="0.3178467"><ele>480.0</ele><time>2026-03-31T09:59:14.16Z</time></trkpt><trkpt lat="40.9609817" lon="0.317935"><ele>480.0</ele><time>2026-03-31T09:59:15.16Z</time></trkpt><trkpt lat="40.960835" lon="0.3180133"><ele>480.66666666666663</ele><time>2026-03-31T09:59:16.161Z</time></trkpt><trkpt lat="40.9606867" lon="0.3180433"><ele>481.3333333333333</ele><time>2026-03-31T09:59:17.16Z</time></trkpt><trkpt lat="40.9605333" lon="0.318035"><ele>482.0</ele><time>2026-03-31T09:59:18.16Z</time></trkpt><trkpt lat="40.9603817" lon="0.3180033"><ele>482.0</ele><time>2026-03-31T09:59:19.161Z</time></trkpt><trkpt lat="40.9602317" lon="0.3179733"><ele>482.0</ele><time>2026-03-31T09:59:20.16Z</time></trkpt><trkpt lat="40.9600783" lon="0.3179633"><ele>482.0</ele><time>2026-03-31T09:59:21.16Z</time></trkpt><trkpt lat="40.9599317" lon="0.317995"><ele>483.5</ele><time>2026-03-31T09:59:22.16Z</time></trkpt><trkpt lat="40.9597883" lon="0.3180583"><ele>485.0</ele><time>2026-03-31T09:59:23.161Z</time></trkpt><trkpt lat="40.95965" lon="0.3181333"><ele>486.5</ele><time>2026-03-31T09:59:24.16Z</time></trkpt><trkpt lat="40.9595233" lon="0.318205"><ele>488.0</ele><time>2026-03-31T09:59:25.16Z</time></trkpt><trkpt lat="40.959405" lon="0.3182783"><ele>488.0</ele><time>2026-03-31T09:59:26.16Z</time></trkpt><trkpt lat="40.9592983" lon="0.3183333"><ele>487.99999999999994</ele><time>2026-03-31T09:59:27.161Z</time></trkpt><trkpt lat="40.9591933" lon="0.3183867"><ele>487.99999999999994</ele><time>2026-03-31T09:59:28.161Z</time></trkpt><trkpt lat="40.9591067" lon="0.3184283"><ele>488.0</ele><time>2026-03-31T09:59:29.16Z</time></trkpt><trkpt lat="40.9590267" lon="0.31845"><ele>488.0</ele><time>2026-03-31T09:59:30.161Z</time></trkpt><trkpt lat="40.95893" lon="0.3184583"><ele>489.4</ele><time>2026-03-31T09:59:31.16Z</time></trkpt><trkpt lat="40.95883" lon="0.318455"><ele>490.79999999999995</ele><time>2026-03-31T09:59:32.16Z</time></trkpt><trkpt lat="40.958715" lon="0.3184283"><ele>492.2</ele><time>2026-03-31T09:59:33.16Z</time></trkpt><trkpt lat="40.9586067" lon="0.3183917"><ele>493.6</ele><time>2026-03-31T09:59:34.16Z</time></trkpt><trkpt lat="40.95851" lon="0.3183317"><ele>495.0</ele><time>2026-03-31T09:59:35.16Z</time></trkpt><trkpt lat="40.9584317" lon="0.318255"><ele>495.0</ele><time>2026-03-31T09:59:36.161Z</time></trkpt><trkpt lat="40.9583683" lon="0.31814"><ele>495.0</ele><time>2026-03-31T09:59:37.16Z</time></trkpt><trkpt lat="40.95832" lon="0.318015"><ele>495.0</ele><time>2026-03-31T09:59:38.16Z</time></trkpt><trkpt lat="40.9582867" lon="0.3178867"><ele>495.0</ele><time>2026-03-31T09:59:39.16Z</time></trkpt><trkpt lat="40.95824" lon="0.3177617"><ele>495.0</ele><time>2026-03-31T09:59:40.16Z</time></trkpt><trkpt lat="40.9581883" lon="0.3176467"><ele>496.8</ele><time>2026-03-31T09:59:41.161Z</time></trkpt><trkpt lat="40.9581333" lon="0.3175367"><ele>498.6</ele><time>2026-03-31T09:59:42.161Z</time></trkpt><trkpt lat="40.9580717" lon="0.3174217"><ele>500.4</ele><time>2026-03-31T09:59:43.161Z</time></trkpt><trkpt lat="40.9580017" lon="0.3173083"><ele>502.2</ele><time>2026-03-31T09:59:44.16Z</time></trkpt><trkpt lat="40.9579283" lon="0.3171933"><ele>504.0</ele><time>2026-03-31T09:59:45.16Z</time></trkpt><trkpt lat="40.9578617" lon="0.3170867"><ele>504.0</ele><time>2026-03-31T09:59:46.16Z</time></trkpt><trkpt lat="40.95779" lon="0.316985"><ele>504.0</ele><time>2026-03-31T09:59:47.16Z</time></trkpt><trkpt lat="40.9577283" lon="0.3168833"><ele>504.0</ele><time>2026-03-31T09:59:48.161Z</time></trkpt><trkpt lat="40.9576617" lon="0.31677"><ele>504.0</ele><time>2026-03-31T09:59:49.161Z</time></trkpt><trkpt lat="40.9576017" lon="0.3166617"><ele>504.0</ele><time>2026-03-31T09:59:50.16Z</time></trkpt><trkpt lat="40.957535" lon="0.3165567"><ele>504.6</ele><time>2026-03-31T09:59:51.16Z</time></trkpt><trkpt lat="40.9574717" lon="0.3164467"><ele>505.2</ele><time>2026-03-31T09:59:52.161Z</time></trkpt><trkpt lat="40.95742" lon="0.3163367"><ele>505.80000000000007</ele><time>2026-03-31T09:59:53.16Z</time></trkpt><trkpt lat="40.9573683" lon="0.3162283"><ele>506.40000000000003</ele><time>2026-03-31T09:59:54.16Z</time></trkpt><trkpt lat="40.9573167" lon="0.31611"><ele>507.0</ele><time>2026-03-31T09:59:55.161Z</time></trkpt><trkpt lat="40.95726" lon="0.3160017"><ele>508.40000000000003</ele><time>2026-03-31T09:59:56.161Z</time></trkpt><trkpt lat="40.9571983" lon="0.315895"><ele>509.80000000000007</ele><time>2026-03-31T09:59:57.16Z</time></trkpt><trkpt lat="40.9571383" lon="0.315805"><ele>511.2</ele><time>2026-03-31T09:59:58.16Z</time></trkpt><trkpt lat="40.9570733" lon="0.3157167"><ele>512.6</ele><time>2026-03-31T09:59:59.161Z</time></trkpt><trkpt lat="40.9570017" lon="0.31563"><ele>514.0</ele><time>2026-03-31T10:00:00.161Z</time></trkpt><trkpt lat="40.9569267" lon="0.3155783"><ele>514.2</ele><time>2026-03-31T10:00:01.161Z</time></trkpt><trkpt lat="40.95683" lon="0.31556"><ele>514.4</ele><time>2026-03-31T10:00:02.16Z</time></trkpt><trkpt lat="40.95673" lon="0.3155533"><ele>514.6</ele><time>2026-03-31T10:00:03.16Z</time></trkpt><trkpt lat="40.956625" lon="0.3155717"><ele>514.8</ele><time>2026-03-31T10:00:04.161Z</time></trkpt><trkpt lat="40.9565217" lon="0.3156"><ele>515.0</ele><time>2026-03-31T10:00:05.16Z</time></trkpt><trkpt lat="40.9564217" lon="0.3156167"><ele>515.2</ele><time>2026-03-31T10:00:06.161Z</time></trkpt><trkpt lat="40.9563317" lon="0.31562"><ele>515.4</ele><time>2026-03-31T10:00:07.161Z</time></trkpt><trkpt lat="40.9562383" lon="0.3156033"><ele>515.6</ele><time>2026-03-31T10:00:08.16Z</time></trkpt><trkpt lat="40.95615" lon="0.3155833"><ele>515.8</ele><time>2026-03-31T10:00:09.161Z</time></trkpt><trkpt lat="40.9560633" lon="0.3155467"><ele>516.0</ele><time>2026-03-31T10:00:10.161Z</time></trkpt><trkpt lat="40.9559733" lon="0.3154983"><ele>517.3333333333334</ele><time>2026-03-31T10:00:11.161Z</time></trkpt><trkpt lat="40.9558767" lon="0.31545"><ele>518.6666666666666</ele><time>2026-03-31T10:00:12.16Z</time></trkpt><trkpt lat="40.955785" lon="0.31541"><ele>520.0</ele><time>2026-03-31T10:00:13.16Z</time></trkpt><trkpt lat="40.9557017" lon="0.3153617"><ele>521.3333333333333</ele><time>2026-03-31T10:00:14.16Z</time></trkpt><trkpt lat="40.95564" lon="0.3152967"><ele>522.6666666666666</ele><time>2026-03-31T10:00:15.161Z</time></trkpt><trkpt lat="40.9555883" lon="0.3152267"><ele>524.0</ele><time>2026-03-31T10:00:16.16Z</time></trkpt><trkpt lat="40.9555383" lon="0.3151483"><ele>524.2857142857143</ele><time>2026-03-31T10:00:17.16Z</time></trkpt><trkpt lat="40.9555033" lon="0.315065"><ele>524.5714285714287</ele><time>2026-03-31T10:00:18.16Z</time></trkpt><trkpt lat="40.9554767" lon="0.3149767"><ele>524.8571428571429</ele><time>2026-03-31T10:00:19.161Z</time></trkpt><trkpt lat="40.955435" lon="0.3148983"><ele>525.1428571428571</ele><time>2026-03-31T10:00:20.16Z</time></trkpt><trkpt lat="40.9553867" lon="0.31482"><ele>525.4285714285713</ele><time>2026-03-31T10:00:21.161Z</time></trkpt><trkpt lat="40.95534" lon="0.3147483"><ele>525.7142857142857</ele><time>2026-03-31T10:00:22.16Z</time></trkpt><trkpt lat="40.9552817" lon="0.314685"><ele>526.0</ele><time>2026-03-31T10:00:23.16Z</time></trkpt><trkpt lat="40.95522" lon="0.3146417"><ele>526.6</ele><time>2026-03-31T10:00:24.161Z</time></trkpt><trkpt lat="40.9551583" lon="0.314625"><ele>527.2</ele><time>2026-03-31T10:00:25.16Z</time></trkpt><trkpt lat="40.9550833" lon="0.3146183"><ele>527.8</ele><time>2026-03-31T10:00:26.161Z</time></trkpt><trkpt lat="40.9549967" lon="0.3146467"><ele>528.4</ele><time>2026-03-31T10:00:27.161Z</time></trkpt><trkpt lat="40.954895" lon="0.3147033"><ele>529.0</ele><time>2026-03-31T10:00:28.161Z</time></trkpt><trkpt lat="40.95479" lon="0.31476"><ele>529.0</ele><time>2026-03-31T10:00:29.16Z</time></trkpt><trkpt lat="40.954685" lon="0.3148083"><ele>529.0</ele><time>2026-03-31T10:00:30.16Z</time></trkpt><trkpt lat="40.9545817" lon="0.31484"><ele>529.0</ele><time>2026-03-31T10:00:31.161Z</time></trkpt><trkpt lat="40.9544767" lon="0.3148633"><ele>529.0</ele><time>2026-03-31T10:00:32.16Z</time></trkpt><trkpt lat="40.9543683" lon="0.314895"><ele>529.0</ele><time>2026-03-31T10:00:33.161Z</time></trkpt><trkpt lat="40.95427" lon="0.31491"><ele>527.8</ele><time>2026-03-31T10:00:34.161Z</time></trkpt><trkpt lat="40.9541583" lon="0.314925"><ele>526.5999999999999</ele><time>2026-03-31T10:00:35.16Z</time></trkpt><trkpt lat="40.9540533" lon="0.3149533"><ele>525.4</ele><time>2026-03-31T10:00:36.16Z</time></trkpt><trkpt lat="40.9539467" lon="0.3149633"><ele>524.1999999999999</ele><time>2026-03-31T10:00:37.16Z</time></trkpt><trkpt lat="40.9538283" lon="0.3149683"><ele>523.0</ele><time>2026-03-31T10:00:38.161Z</time></trkpt><trkpt lat="40.95371" lon="0.314985"><ele>523.0</ele><time>2026-03-31T10:00:39.16Z</time></trkpt><trkpt lat="40.953595" lon="0.3150083"><ele>523.0</ele><time>2026-03-31T10:00:40.161Z</time></trkpt><trkpt lat="40.9534833" lon="0.3150367"><ele>523.0</ele><time>2026-03-31T10:00:41.16Z</time></trkpt><trkpt lat="40.953375" lon="0.3150617"><ele>523.0</ele><time>2026-03-31T10:00:42.161Z</time></trkpt><trkpt lat="40.95326" lon="0.31508"><ele>519.4</ele><time>2026-03-31T10:00:43.161Z</time></trkpt><trkpt lat="40.9531483" lon="0.3150983"><ele>515.8</ele><time>2026-03-31T10:00:44.16Z</time></trkpt><trkpt lat="40.95304" lon="0.31512"><ele>512.2</ele><time>2026-03-31T10:00:45.16Z</time></trkpt><trkpt lat="40.9529383" lon="0.3151633"><ele>508.6</ele><time>2026-03-31T10:00:46.16Z</time></trkpt><trkpt lat="40.9528567" lon="0.3152783"><ele>505.0</ele><time>2026-03-31T10:00:47.161Z</time></trkpt><trkpt lat="40.95275" lon="0.315345"><ele>505.0</ele><time>2026-03-31T10:00:48.16Z</time></trkpt><trkpt lat="40.9526567" lon="0.315435"><ele>505.0</ele><time>2026-03-31T10:00:49.161Z</time></trkpt><trkpt lat="40.9525617" lon="0.3155367"><ele>505.0</ele><time>2026-03-31T10:00:50.16Z</time></trkpt><trkpt lat="40.95247" lon="0.3156517"><ele>505.0</ele><time>2026-03-31T10:00:51.16Z</time></trkpt><trkpt lat="40.952385" lon="0.315775"><ele>505.25</ele><time>2026-03-31T10:00:52.16Z</time></trkpt><trkpt lat="40.9522867" lon="0.3159083"><ele>505.5</ele><time>2026-03-31T10:00:53.161Z</time></trkpt><trkpt lat="40.9522017" lon="0.3160483"><ele>505.75</ele><time>2026-03-31T10:00:54.161Z</time></trkpt><trkpt lat="40.95212" lon="0.3162017"><ele>506.0</ele><time>2026-03-31T10:00:55.161Z</time></trkpt><trkpt lat="40.9520533" lon="0.31637"><ele>508.5</ele><time>2026-03-31T10:00:56.161Z</time></trkpt><trkpt lat="40.95199" lon="0.31653"><ele>511.0</ele><time>2026-03-31T10:00:57.16Z</time></trkpt><trkpt lat="40.9519217" lon="0.3166867"><ele>513.5</ele><time>2026-03-31T10:00:58.16Z</time></trkpt><trkpt lat="40.9518533" lon="0.3168533"><ele>516.0</ele><time>2026-03-31T10:00:59.16Z</time></trkpt><trkpt lat="40.951785" lon="0.3170133"><ele>516.0</ele><time>2026-03-31T10:01:00.161Z</time></trkpt><trkpt lat="40.9517183" lon="0.3171717"><ele>516.0</ele><time>2026-03-31T10:01:01.16Z</time></trkpt><trkpt lat="40.951665" lon="0.3173217"><ele>516.0</ele><time>2026-03-31T10:01:02.161Z</time></trkpt><trkpt lat="40.951605" lon="0.317475"><ele>516.0</ele><time>2026-03-31T10:01:03.16Z</time></trkpt><trkpt lat="40.951545" lon="0.31762"><ele>512.5</ele><time>2026-03-31T10:01:04.16Z</time></trkpt><trkpt lat="40.9514783" lon="0.31776"><ele>509.0</ele><time>2026-03-31T10:01:05.161Z</time></trkpt><trkpt lat="40.951415" lon="0.3179017"><ele>505.5</ele><time>2026-03-31T10:01:06.16Z</time></trkpt><trkpt lat="40.9513433" lon="0.3180467"><ele>502.0</ele><time>2026-03-31T10:01:07.161Z</time></trkpt><trkpt lat="40.9512733" lon="0.3181867"><ele>502.0</ele><time>2026-03-31T10:01:08.158Z</time></trkpt><trkpt lat="40.9511983" lon="0.31833"><ele>502.0</ele><time>2026-03-31T10:01:09.161Z</time></trkpt><trkpt lat="40.9511283" lon="0.318475"><ele>502.0</ele><time>2026-03-31T10:01:10.161Z</time></trkpt><trkpt lat="40.9510483" lon="0.3186217"><ele>502.0</ele><time>2026-03-31T10:01:11.161Z</time></trkpt><trkpt lat="40.950975" lon="0.3187617"><ele>500.75</ele><time>2026-03-31T10:01:12.16Z</time></trkpt><trkpt lat="40.9508983" lon="0.3189067"><ele>499.5</ele><time>2026-03-31T10:01:13.16Z</time></trkpt><trkpt lat="40.95082" lon="0.3190517"><ele>498.25</ele><time>2026-03-31T10:01:14.161Z</time></trkpt><trkpt lat="40.9507483" lon="0.3191933"><ele>497.0</ele><time>2026-03-31T10:01:15.16Z</time></trkpt><trkpt lat="40.95067" lon="0.31933"><ele>495.25</ele><time>2026-03-31T10:01:16.16Z</time></trkpt><trkpt lat="40.9505917" lon="0.3194633"><ele>493.5</ele><time>2026-03-31T10:01:17.16Z</time></trkpt><trkpt lat="40.9505117" lon="0.3196017"><ele>491.75</ele><time>2026-03-31T10:01:18.16Z</time></trkpt><trkpt lat="40.950435" lon="0.3197383"><ele>490.0</ele><time>2026-03-31T10:01:19.16Z</time></trkpt><trkpt lat="40.9503583" lon="0.3198733"><ele>490.0</ele><time>2026-03-31T10:01:20.16Z</time></trkpt><trkpt lat="40.9502817" lon="0.320015"><ele>490.0</ele><time>2026-03-31T10:01:21.161Z</time></trkpt><trkpt lat="40.9501933" lon="0.3201617"><ele>490.0</ele><time>2026-03-31T10:01:22.16Z</time></trkpt><trkpt lat="40.950085" lon="0.3203"><ele>490.0</ele><time>2026-03-31T10:01:23.16Z</time></trkpt><trkpt lat="40.9499683" lon="0.3204417"><ele>489.5</ele><time>2026-03-31T10:01:24.16Z</time></trkpt><trkpt lat="40.949845" lon="0.3205683"><ele>489.0</ele><time>2026-03-31T10:01:25.161Z</time></trkpt><trkpt lat="40.9497267" lon="0.3206917"><ele>488.5</ele><time>2026-03-31T10:01:26.161Z</time></trkpt><trkpt lat="40.9496133" lon="0.3207833"><ele>488.0</ele><time>2026-03-31T10:01:27.16Z</time></trkpt><trkpt lat="40.94949" lon="0.320835"><ele>488.0</ele><time>2026-03-31T10:01:28.16Z</time></trkpt><trkpt lat="40.9493617" lon="0.3208367"><ele>488.0</ele><time>2026-03-31T10:01:29.161Z</time></trkpt><trkpt lat="40.9492283" lon="0.3207983"><ele>488.0</ele><time>2026-03-31T10:01:30.16Z</time></trkpt><trkpt lat="40.9490983" lon="0.3207067"><ele>488.0</ele><time>2026-03-31T10:01:31.161Z</time></trkpt><trkpt lat="40.948975" lon="0.3206083"><ele>486.3333333333333</ele><time>2026-03-31T10:01:32.16Z</time></trkpt><trkpt lat="40.9488333" lon="0.320495"><ele>484.66666666666663</ele><time>2026-03-31T10:01:33.161Z</time></trkpt><trkpt lat="40.9486867" lon="0.3203783"><ele>483.0</ele><time>2026-03-31T10:01:34.16Z</time></trkpt><trkpt lat="40.9485417" lon="0.32024"><ele>483.0</ele><time>2026-03-31T10:01:35.16Z</time></trkpt><trkpt lat="40.948405" lon="0.3201017"><ele>483.0</ele><time>2026-03-31T10:01:36.161Z</time></trkpt><trkpt lat="40.9482683" lon="0.3199383"><ele>483.0</ele><time>2026-03-31T10:01:37.16Z</time></trkpt><trkpt lat="40.9481217" lon="0.3197617"><ele>480.0</ele><time>2026-03-31T10:01:38.16Z</time></trkpt><trkpt lat="40.9479617" lon="0.3195983"><ele>477.0</ele><time>2026-03-31T10:01:39.16Z</time></trkpt><trkpt lat="40.947805" lon="0.3194333"><ele>474.0</ele><time>2026-03-31T10:01:40.161Z</time></trkpt><trkpt lat="40.9476533" lon="0.31927"><ele>474.0</ele><time>2026-03-31T10:01:41.16Z</time></trkpt><trkpt lat="40.9475017" lon="0.31909"><ele>474.0</ele><time>2026-03-31T10:01:42.16Z</time></trkpt><trkpt lat="40.9473517" lon="0.3189033"><ele>474.0</ele><time>2026-03-31T10:01:43.16Z</time></trkpt><trkpt lat="40.9472083" lon="0.3187017"><ele>473.0</ele><time>2026-03-31T10:01:44.161Z</time></trkpt><trkpt lat="40.947065" lon="0.3185"><ele>472.0</ele><time>2026-03-31T10:01:45.16Z</time></trkpt><trkpt lat="40.946915" lon="0.3182967"><ele>471.0</ele><time>2026-03-31T10:01:46.16Z</time></trkpt><trkpt lat="40.9467633" lon="0.3180967"><ele>470.0</ele><time>2026-03-31T10:01:47.16Z</time></trkpt><trkpt lat="40.946615" lon="0.3178983"><ele>469.0</ele><time>2026-03-31T10:01:48.161Z</time></trkpt><trkpt lat="40.946475" lon="0.31772"><ele>468.0</ele><time>2026-03-31T10:01:49.16Z</time></trkpt><trkpt lat="40.946335" lon="0.3175633"><ele>468.0</ele><time>2026-03-31T10:01:50.161Z</time></trkpt><trkpt lat="40.9461683" lon="0.3174267"><ele>468.0</ele><time>2026-03-31T10:01:51.161Z</time></trkpt><trkpt lat="40.945995" lon="0.3173267"><ele>468.0</ele><time>2026-03-31T10:01:52.16Z</time></trkpt><trkpt lat="40.945805" lon="0.317245"><ele>468.0</ele><time>2026-03-31T10:01:53.16Z</time></trkpt><trkpt lat="40.94561" lon="0.3171567"><ele>468.0</ele><time>2026-03-31T10:01:54.161Z</time></trkpt><trkpt lat="40.945415" lon="0.3170817"><ele>468.0</ele><time>2026-03-31T10:01:55.16Z</time></trkpt><trkpt lat="40.9452167" lon="0.31701"><ele>469.0</ele><time>2026-03-31T10:01:56.16Z</time></trkpt><trkpt lat="40.9450083" lon="0.3169467"><ele>470.0</ele><time>2026-03-31T10:01:57.161Z</time></trkpt><trkpt lat="40.9448033" lon="0.3168883"><ele>471.0</ele><time>2026-03-31T10:01:58.16Z</time></trkpt><trkpt lat="40.9445917" lon="0.3168267"><ele>471.0</ele><time>2026-03-31T10:01:59.161Z</time></trkpt><trkpt lat="40.9443883" lon="0.3167733"><ele>471.0</ele><time>2026-03-31T10:02:00.16Z</time></trkpt><trkpt lat="40.9441817" lon="0.31672"><ele>471.0</ele><time>2026-03-31T10:02:01.161Z</time></trkpt><trkpt lat="40.9439683" lon="0.316665"><ele>471.66666666666663</ele><time>2026-03-31T10:02:02.161Z</time></trkpt><trkpt lat="40.9437567" lon="0.316615"><ele>472.3333333333333</ele><time>2026-03-31T10:02:03.161Z</time></trkpt><trkpt lat="40.9435533" lon="0.3165567"><ele>473.0</ele><time>2026-03-31T10:02:04.16Z</time></trkpt><trkpt lat="40.9433483" lon="0.316505"><ele>473.3333333333333</ele><time>2026-03-31T10:02:05.16Z</time></trkpt><trkpt lat="40.9431467" lon="0.3164617"><ele>473.66666666666663</ele><time>2026-03-31T10:02:06.16Z</time></trkpt><trkpt lat="40.9429483" lon="0.3164133"><ele>474.0</ele><time>2026-03-31T10:02:07.16Z</time></trkpt><trkpt lat="40.9427467" lon="0.3163667"><ele>472.33333333333337</ele><time>2026-03-31T10:02:08.16Z</time></trkpt><trkpt lat="40.94255" lon="0.3163167"><ele>470.6666666666667</ele><time>2026-03-31T10:02:09.161Z</time></trkpt><trkpt lat="40.942365" lon="0.316265"><ele>469.0</ele><time>2026-03-31T10:02:10.161Z</time></trkpt><trkpt lat="40.94218" lon="0.3162283"><ele>469.0</ele><time>2026-03-31T10:02:11.16Z</time></trkpt><trkpt lat="40.9419983" lon="0.3162017"><ele>469.0</ele><time>2026-03-31T10:02:12.16Z</time></trkpt><trkpt lat="40.9418067" lon="0.3162067"><ele>469.0</ele><time>2026-03-31T10:02:13.16Z</time></trkpt><trkpt lat="40.9416283" lon="0.3162483"><ele>471.33333333333337</ele><time>2026-03-31T10:02:14.16Z</time></trkpt><trkpt lat="40.9414467" lon="0.3163183"><ele>473.66666666666663</ele><time>2026-03-31T10:02:15.16Z</time></trkpt><trkpt lat="40.941275" lon="0.3163817"><ele>476.0</ele><time>2026-03-31T10:02:16.16Z</time></trkpt><trkpt lat="40.9410983" lon="0.31644"><ele>477.0</ele><time>2026-03-31T10:02:17.161Z</time></trkpt><trkpt lat="40.9409267" lon="0.3164917"><ele>478.0</ele><time>2026-03-31T10:02:18.16Z</time></trkpt><trkpt lat="40.9407517" lon="0.3165383"><ele>479.0</ele><time>2026-03-31T10:02:19.161Z</time></trkpt><trkpt lat="40.94057" lon="0.316555"><ele>479.0</ele><time>2026-03-31T10:02:20.16Z</time></trkpt><trkpt lat="40.9403933" lon="0.3165317"><ele>479.0</ele><time>2026-03-31T10:02:21.161Z</time></trkpt><trkpt lat="40.940215" lon="0.3164917"><ele>479.0</ele><time>2026-03-31T10:02:22.16Z</time></trkpt><trkpt lat="40.940045" lon="0.316445"><ele>477.0</ele><time>2026-03-31T10:02:23.16Z</time></trkpt><trkpt lat="40.93988" lon="0.316395"><ele>475.0</ele><time>2026-03-31T10:02:24.161Z</time></trkpt><trkpt lat="40.9397233" lon="0.31631"><ele>473.0</ele><time>2026-03-31T10:02:25.16Z</time></trkpt><trkpt lat="40.9395767" lon="0.3162083"><ele>473.0</ele><time>2026-03-31T10:02:26.161Z</time></trkpt><trkpt lat="40.939435" lon="0.3161"><ele>473.0</ele><time>2026-03-31T10:02:27.161Z</time></trkpt><trkpt lat="40.9393017" lon="0.31601"><ele>473.0</ele><time>2026-03-31T10:02:28.16Z</time></trkpt><trkpt lat="40.9391767" lon="0.3159267"><ele>472.75</ele><time>2026-03-31T10:02:29.16Z</time></trkpt><trkpt lat="40.9390533" lon="0.3158633"><ele>472.5</ele><time>2026-03-31T10:02:30.161Z</time></trkpt><trkpt lat="40.9389233" lon="0.3158067"><ele>472.25</ele><time>2026-03-31T10:02:31.161Z</time></trkpt><trkpt lat="40.9388067" lon="0.3157717"><ele>472.0</ele><time>2026-03-31T10:02:32.161Z</time></trkpt><trkpt lat="40.9386967" lon="0.3157417"><ele>472.0</ele><time>2026-03-31T10:02:33.16Z</time></trkpt><trkpt lat="40.9385867" lon="0.3157017"><ele>472.00000000000006</ele><time>2026-03-31T10:02:34.16Z</time></trkpt><trkpt lat="40.9384883" lon="0.3156517"><ele>472.00000000000006</ele><time>2026-03-31T10:02:35.161Z</time></trkpt><trkpt lat="40.9383933" lon="0.3155933"><ele>472.0</ele><time>2026-03-31T10:02:36.16Z</time></trkpt><trkpt lat="40.9383067" lon="0.3155217"><ele>472.0</ele><time>2026-03-31T10:02:37.16Z</time></trkpt><trkpt lat="40.938225" lon="0.3154233"><ele>471.5</ele><time>2026-03-31T10:02:38.161Z</time></trkpt><trkpt lat="40.9381467" lon="0.3153117"><ele>471.0</ele><time>2026-03-31T10:02:39.16Z</time></trkpt><trkpt lat="40.9380717" lon="0.315175"><ele>470.5</ele><time>2026-03-31T10:02:40.16Z</time></trkpt><trkpt lat="40.9380033" lon="0.3150033"><ele>470.0</ele><time>2026-03-31T10:02:41.16Z</time></trkpt><trkpt lat="40.937935" lon="0.3148117"><ele>468.3333333333333</ele><time>2026-03-31T10:02:42.161Z</time></trkpt><trkpt lat="40.9378617" lon="0.31461"><ele>466.66666666666663</ele><time>2026-03-31T10:02:43.16Z</time></trkpt><trkpt lat="40.9377767" lon="0.314415"><ele>465.0</ele><time>2026-03-31T10:02:44.16Z</time></trkpt><trkpt lat="40.9376733" lon="0.3142217"><ele>465.0</ele><time>2026-03-31T10:02:45.16Z</time></trkpt><trkpt lat="40.9375717" lon="0.314025"><ele>465.0</ele><time>2026-03-31T10:02:46.16Z</time></trkpt><trkpt lat="40.9374733" lon="0.313815"><ele>465.0</ele><time>2026-03-31T10:02:47.16Z</time></trkpt><trkpt lat="40.93737" lon="0.3136033"><ele>464.66666666666663</ele><time>2026-03-31T10:02:48.16Z</time></trkpt><trkpt lat="40.9372583" lon="0.3133933"><ele>464.3333333333333</ele><time>2026-03-31T10:02:49.161Z</time></trkpt><trkpt lat="40.9371583" lon="0.3131783"><ele>464.0</ele><time>2026-03-31T10:02:50.161Z</time></trkpt><trkpt lat="40.93705" lon="0.3129683"><ele>464.0</ele><time>2026-03-31T10:02:51.16Z</time></trkpt><trkpt lat="40.9369483" lon="0.3127517"><ele>464.0</ele><time>2026-03-31T10:02:52.161Z</time></trkpt><trkpt lat="40.9368417" lon="0.3125333"><ele>464.0</ele><time>2026-03-31T10:02:53.16Z</time></trkpt><trkpt lat="40.9367333" lon="0.3123117"><ele>462.66666666666663</ele><time>2026-03-31T10:02:54.16Z</time></trkpt><trkpt lat="40.9366117" lon="0.3120967"><ele>461.33333333333337</ele><time>2026-03-31T10:02:55.16Z</time></trkpt><trkpt lat="40.93649" lon="0.3118817"><ele>460.0</ele><time>2026-03-31T10:02:56.161Z</time></trkpt><trkpt lat="40.9363617" lon="0.3116667"><ele>460.0</ele><time>2026-03-31T10:02:57.16Z</time></trkpt><trkpt lat="40.936245" lon="0.311445"><ele>460.0</ele><time>2026-03-31T10:02:58.161Z</time></trkpt><trkpt lat="40.93612" lon="0.3112317"><ele>460.0</ele><time>2026-03-31T10:02:59.16Z</time></trkpt><trkpt lat="40.936" lon="0.3110033"><ele>459.6666666666667</ele><time>2026-03-31T10:03:00.16Z</time></trkpt><trkpt lat="40.9358917" lon="0.3107867"><ele>459.33333333333337</ele><time>2026-03-31T10:03:01.16Z</time></trkpt><trkpt lat="40.9357933" lon="0.310585"><ele>459.0</ele><time>2026-03-31T10:03:02.16Z</time></trkpt><trkpt lat="40.9357" lon="0.310395"><ele>460.0</ele><time>2026-03-31T10:03:03.161Z</time></trkpt><trkpt lat="40.9356117" lon="0.3102217"><ele>461.0</ele><time>2026-03-31T10:03:04.16Z</time></trkpt><trkpt lat="40.93553" lon="0.31005"><ele>462.0</ele><time>2026-03-31T10:03:05.16Z</time></trkpt><trkpt lat="40.935445" lon="0.3098933"><ele>462.0</ele><time>2026-03-31T10:03:06.161Z</time></trkpt><trkpt lat="40.93537" lon="0.3097517"><ele>462.0</ele><time>2026-03-31T10:03:07.161Z</time></trkpt><trkpt lat="40.9352967" lon="0.3096117"><ele>462.0</ele><time>2026-03-31T10:03:08.16Z</time></trkpt><trkpt lat="40.9352283" lon="0.30948"><ele>462.0</ele><time>2026-03-31T10:03:09.16Z</time></trkpt><trkpt lat="40.9351767" lon="0.3093667"><ele>462.20000000000005</ele><time>2026-03-31T10:03:10.161Z</time></trkpt><trkpt lat="40.93513" lon="0.3092817"><ele>462.40000000000003</ele><time>2026-03-31T10:03:11.16Z</time></trkpt><trkpt lat="40.9350867" lon="0.309195"><ele>462.59999999999997</ele><time>2026-03-31T10:03:12.161Z</time></trkpt><trkpt lat="40.9350367" lon="0.3090917"><ele>462.79999999999995</ele><time>2026-03-31T10:03:13.16Z</time></trkpt><trkpt lat="40.9349717" lon="0.30897"><ele>463.0</ele><time>2026-03-31T10:03:14.16Z</time></trkpt><trkpt lat="40.9348983" lon="0.3088183"><ele>464.0</ele><time>2026-03-31T10:03:15.161Z</time></trkpt><trkpt lat="40.934815" lon="0.3086467"><ele>465.0</ele><time>2026-03-31T10:03:16.16Z</time></trkpt><trkpt lat="40.9347167" lon="0.308465"><ele>466.0</ele><time>2026-03-31T10:03:17.161Z</time></trkpt><trkpt lat="40.9346233" lon="0.3082783"><ele>466.0</ele><time>2026-03-31T10:03:18.16Z</time></trkpt><trkpt lat="40.9345233" lon="0.308085"><ele>466.0</ele><time>2026-03-31T10:03:19.16Z</time></trkpt><trkpt lat="40.934425" lon="0.3078867"><ele>466.0</ele><time>2026-03-31T10:03:20.16Z</time></trkpt><trkpt lat="40.9343333" lon="0.3076783"><ele>466.33333333333337</ele><time>2026-03-31T10:03:21.16Z</time></trkpt><trkpt lat="40.9342317" lon="0.307465"><ele>466.66666666666663</ele><time>2026-03-31T10:03:22.16Z</time></trkpt><trkpt lat="40.934125" lon="0.3072467"><ele>467.0</ele><time>2026-03-31T10:03:23.161Z</time></trkpt><trkpt lat="40.9340017" lon="0.30702"><ele>467.3333333333333</ele><time>2026-03-31T10:03:24.16Z</time></trkpt><trkpt lat="40.9338817" lon="0.3067833"><ele>467.66666666666663</ele><time>2026-03-31T10:03:25.161Z</time></trkpt><trkpt lat="40.9337633" lon="0.3065483"><ele>468.0</ele><time>2026-03-31T10:03:26.161Z</time></trkpt><trkpt lat="40.933645" lon="0.306315"><ele>467.33333333333337</ele><time>2026-03-31T10:03:27.161Z</time></trkpt><trkpt lat="40.9335183" lon="0.3060733"><ele>466.6666666666667</ele><time>2026-03-31T10:03:28.161Z</time></trkpt><trkpt lat="40.9333967" lon="0.3058267"><ele>466.0</ele><time>2026-03-31T10:03:29.16Z</time></trkpt><trkpt lat="40.9332683" lon="0.305585"><ele>465.0</ele><time>2026-03-31T10:03:30.16Z</time></trkpt><trkpt lat="40.93314" lon="0.305335"><ele>464.0</ele><time>2026-03-31T10:03:31.16Z</time></trkpt><trkpt lat="40.93301" lon="0.305085"><ele>464.0</ele><time>2026-03-31T10:03:32.16Z</time></trkpt><trkpt lat="40.932885" lon="0.30484"><ele>464.0</ele><time>2026-03-31T10:03:33.161Z</time></trkpt><trkpt lat="40.932755" lon="0.3045817"><ele>463.5</ele><time>2026-03-31T10:03:34.16Z</time></trkpt><trkpt lat="40.9326283" lon="0.3043233"><ele>463.0</ele><time>2026-03-31T10:03:35.161Z</time></trkpt><trkpt lat="40.932495" lon="0.3040633"><ele>465.0</ele><time>2026-03-31T10:03:36.16Z</time></trkpt><trkpt lat="40.93236" lon="0.3037983"><ele>467.0</ele><time>2026-03-31T10:03:37.16Z</time></trkpt><trkpt lat="40.9322233" lon="0.3035283"><ele>467.0</ele><time>2026-03-31T10:03:38.161Z</time></trkpt><trkpt lat="40.93209" lon="0.3032633"><ele>467.0</ele><time>2026-03-31T10:03:39.161Z</time></trkpt><trkpt lat="40.93195" lon="0.3029867"><ele>469.5</ele><time>2026-03-31T10:03:40.16Z</time></trkpt><trkpt lat="40.93181" lon="0.302705"><ele>472.0</ele><time>2026-03-31T10:03:41.16Z</time></trkpt><trkpt lat="40.931675" lon="0.3024333"><ele>472.5</ele><time>2026-03-31T10:03:42.161Z</time></trkpt><trkpt lat="40.9315383" lon="0.30216"><ele>473.0</ele><time>2026-03-31T10:03:43.161Z</time></trkpt><trkpt lat="40.93141" lon="0.30188"><ele>473.0</ele><time>2026-03-31T10:03:44.161Z</time></trkpt><trkpt lat="40.9312783" lon="0.3016117"><ele>473.0</ele><time>2026-03-31T10:03:45.161Z</time></trkpt><trkpt lat="40.93114" lon="0.3013383"><ele>473.0</ele><time>2026-03-31T10:03:46.16Z</time></trkpt><trkpt lat="40.9310033" lon="0.301075"><ele>473.0</ele><time>2026-03-31T10:03:47.16Z</time></trkpt><trkpt lat="40.93087" lon="0.3008117"><ele>469.5</ele><time>2026-03-31T10:03:48.161Z</time></trkpt><trkpt lat="40.9307417" lon="0.3005517"><ele>466.0</ele><time>2026-03-31T10:03:49.161Z</time></trkpt><trkpt lat="40.930605" lon="0.30028"><ele>466.0</ele><time>2026-03-31T10:03:50.16Z</time></trkpt><trkpt lat="40.93047" lon="0.300015"><ele>466.0</ele><time>2026-03-31T10:03:51.16Z</time></trkpt><trkpt lat="40.930335" lon="0.299755"><ele>467.0</ele><time>2026-03-31T10:03:52.161Z</time></trkpt><trkpt lat="40.9301967" lon="0.2994933"><ele>468.0</ele><time>2026-03-31T10:03:53.16Z</time></trkpt><trkpt lat="40.93006" lon="0.2992317"><ele>468.5</ele><time>2026-03-31T10:03:54.161Z</time></trkpt><trkpt lat="40.9299217" lon="0.29896"><ele>469.0</ele><time>2026-03-31T10:03:55.161Z</time></trkpt><trkpt lat="40.9297883" lon="0.2986867"><ele>469.0</ele><time>2026-03-31T10:03:56.161Z</time></trkpt><trkpt lat="40.9296533" lon="0.2984167"><ele>469.0</ele><time>2026-03-31T10:03:57.16Z</time></trkpt><trkpt lat="40.9295167" lon="0.2981417"><ele>467.0</ele><time>2026-03-31T10:03:58.16Z</time></trkpt><trkpt lat="40.9293767" lon="0.29786"><ele>465.0</ele><time>2026-03-31T10:03:59.161Z</time></trkpt><trkpt lat="40.92924" lon="0.2975783"><ele>466.0</ele><time>2026-03-31T10:04:00.16Z</time></trkpt><trkpt lat="40.9291017" lon="0.2972983"><ele>467.0</ele><time>2026-03-31T10:04:01.161Z</time></trkpt><trkpt lat="40.9289633" lon="0.2970283"><ele>465.0</ele><time>2026-03-31T10:04:02.16Z</time></trkpt><trkpt lat="40.92882" lon="0.2967517"><ele>463.0</ele><time>2026-03-31T10:04:03.161Z</time></trkpt><trkpt lat="40.92868" lon="0.2964767"><ele>462.0</ele><time>2026-03-31T10:04:04.16Z</time></trkpt><trkpt lat="40.928535" lon="0.2962"><ele>461.0</ele><time>2026-03-31T10:04:05.16Z</time></trkpt><trkpt lat="40.928395" lon="0.2959283"><ele>461.0</ele><time>2026-03-31T10:04:06.16Z</time></trkpt><trkpt lat="40.9282567" lon="0.295655"><ele>461.0</ele><time>2026-03-31T10:04:07.16Z</time></trkpt><trkpt lat="40.9281183" lon="0.2953817"><ele>461.0</ele><time>2026-03-31T10:04:08.161Z</time></trkpt><trkpt lat="40.9279917" lon="0.2951133"><ele>461.0</ele><time>2026-03-31T10:04:09.16Z</time></trkpt><trkpt lat="40.9278567" lon="0.2948467"><ele>460.5</ele><time>2026-03-31T10:04:10.16Z</time></trkpt><trkpt lat="40.927715" lon="0.2945717"><ele>460.0</ele><time>2026-03-31T10:04:11.161Z</time></trkpt><trkpt lat="40.9275783" lon="0.294305"><ele>460.5</ele><time>2026-03-31T10:04:12.16Z</time></trkpt><trkpt lat="40.9274383" lon="0.2940417"><ele>461.0</ele><time>2026-03-31T10:04:13.161Z</time></trkpt><trkpt lat="40.927305" lon="0.2937767"><ele>461.0</ele><time>2026-03-31T10:04:14.161Z</time></trkpt><trkpt lat="40.9271683" lon="0.293515"><ele>461.0</ele><time>2026-03-31T10:04:15.16Z</time></trkpt><trkpt lat="40.9270367" lon="0.2932483"><ele>459.5</ele><time>2026-03-31T10:04:16.161Z</time></trkpt><trkpt lat="40.926905" lon="0.292985"><ele>458.0</ele><time>2026-03-31T10:04:17.161Z</time></trkpt><trkpt lat="40.9267733" lon="0.29272"><ele>459.0</ele><time>2026-03-31T10:04:18.16Z</time></trkpt><trkpt lat="40.926635" lon="0.292465"><ele>460.0</ele><time>2026-03-31T10:04:19.161Z</time></trkpt><trkpt lat="40.9265067" lon="0.2922083"><ele>460.0</ele><time>2026-03-31T10:04:20.16Z</time></trkpt><trkpt lat="40.926385" lon="0.29195"><ele>460.0</ele><time>2026-03-31T10:04:21.16Z</time></trkpt><trkpt lat="40.92626" lon="0.2916917"><ele>460.0</ele><time>2026-03-31T10:04:22.161Z</time></trkpt><trkpt lat="40.926135" lon="0.29143"><ele>460.0</ele><time>2026-03-31T10:04:23.16Z</time></trkpt><trkpt lat="40.92601" lon="0.2911683"><ele>462.0</ele><time>2026-03-31T10:04:24.16Z</time></trkpt><trkpt lat="40.9258783" lon="0.2909083"><ele>464.0</ele><time>2026-03-31T10:04:25.16Z</time></trkpt><trkpt lat="40.92575" lon="0.29065"><ele>463.0</ele><time>2026-03-31T10:04:26.161Z</time></trkpt><trkpt lat="40.92562" lon="0.290395"><ele>462.0</ele><time>2026-03-31T10:04:27.161Z</time></trkpt><trkpt lat="40.9254883" lon="0.2901433"><ele>462.0</ele><time>2026-03-31T10:04:28.16Z</time></trkpt><trkpt lat="40.9253567" lon="0.2898933"><ele>462.0</ele><time>2026-03-31T10:04:29.16Z</time></trkpt><trkpt lat="40.9252267" lon="0.2896383"><ele>462.0</ele><time>2026-03-31T10:04:30.161Z</time></trkpt><trkpt lat="40.9250933" lon="0.2893833"><ele>462.0</ele><time>2026-03-31T10:04:31.16Z</time></trkpt><trkpt lat="40.9249517" lon="0.2891267"><ele>462.0</ele><time>2026-03-31T10:04:32.161Z</time></trkpt><trkpt lat="40.9248217" lon="0.288865"><ele>462.0</ele><time>2026-03-31T10:04:33.16Z</time></trkpt><trkpt lat="40.9246883" lon="0.2886017"><ele>462.0</ele><time>2026-03-31T10:04:34.16Z</time></trkpt><trkpt lat="40.9245517" lon="0.2883467"><ele>462.0</ele><time>2026-03-31T10:04:35.16Z</time></trkpt><trkpt lat="40.9244233" lon="0.28809"><ele>461.5</ele><time>2026-03-31T10:04:36.161Z</time></trkpt><trkpt lat="40.9242933" lon="0.2878317"><ele>461.0</ele><time>2026-03-31T10:04:37.16Z</time></trkpt><trkpt lat="40.9241617" lon="0.28757"><ele>461.5</ele><time>2026-03-31T10:04:38.161Z</time></trkpt><trkpt lat="40.924025" lon="0.2872933"><ele>462.0</ele><time>2026-03-31T10:04:39.16Z</time></trkpt><trkpt lat="40.923885" lon="0.2870217"><ele>462.0</ele><time>2026-03-31T10:04:40.16Z</time></trkpt><trkpt lat="40.923755" lon="0.2867533"><ele>462.0</ele><time>2026-03-31T10:04:41.16Z</time></trkpt><trkpt lat="40.9236183" lon="0.286475"><ele>462.5</ele><time>2026-03-31T10:04:42.161Z</time></trkpt><trkpt lat="40.9234783" lon="0.2862017"><ele>463.0</ele><time>2026-03-31T10:04:43.16Z</time></trkpt><trkpt lat="40.9233433" lon="0.2859283"><ele>464.5</ele><time>2026-03-31T10:04:44.16Z</time></trkpt><trkpt lat="40.9232033" lon="0.2856667"><ele>466.0</ele><time>2026-03-31T10:04:45.16Z</time></trkpt><trkpt lat="40.9230683" lon="0.285405"><ele>466.5</ele><time>2026-03-31T10:04:46.16Z</time></trkpt><trkpt lat="40.922935" lon="0.28515"><ele>467.0</ele><time>2026-03-31T10:04:47.161Z</time></trkpt><trkpt lat="40.9228117" lon="0.2848767"><ele>467.5</ele><time>2026-03-31T10:04:48.161Z</time></trkpt><trkpt lat="40.9226967" lon="0.2845983"><ele>468.0</ele><time>2026-03-31T10:04:49.16Z</time></trkpt><trkpt lat="40.9225917" lon="0.284315"><ele>467.0</ele><time>2026-03-31T10:04:50.161Z</time></trkpt><trkpt lat="40.9225183" lon="0.2840417"><ele>466.0</ele><time>2026-03-31T10:04:51.16Z</time></trkpt><trkpt lat="40.9224683" lon="0.2837483"><ele>465.0</ele><time>2026-03-31T10:04:52.161Z</time></trkpt><trkpt lat="40.9224417" lon="0.2834517"><ele>465.0</ele><time>2026-03-31T10:04:53.161Z</time></trkpt><trkpt lat="40.92244" lon="0.28315"><ele>465.0</ele><time>2026-03-31T10:04:54.16Z</time></trkpt><trkpt lat="40.9224617" lon="0.2828433"><ele>462.5</ele><time>2026-03-31T10:04:55.16Z</time></trkpt><trkpt lat="40.9224983" lon="0.282545"><ele>460.0</ele><time>2026-03-31T10:04:56.161Z</time></trkpt><trkpt lat="40.9225667" lon="0.2822433"><ele>460.0</ele><time>2026-03-31T10:04:57.161Z</time></trkpt><trkpt lat="40.9226583" lon="0.281945"><ele>460.0</ele><time>2026-03-31T10:04:58.16Z</time></trkpt><trkpt lat="40.922775" lon="0.2816617"><ele>457.0</ele><time>2026-03-31T10:04:59.16Z</time></trkpt><trkpt lat="40.9229117" lon="0.2813983"><ele>454.0</ele><time>2026-03-31T10:05:00.16Z</time></trkpt><trkpt lat="40.9230633" lon="0.281155"><ele>454.0</ele><time>2026-03-31T10:05:01.16Z</time></trkpt><trkpt lat="40.9232083" lon="0.2809083"><ele>454.0</ele><time>2026-03-31T10:05:02.161Z</time></trkpt><trkpt lat="40.9233517" lon="0.2806567"><ele>452.0</ele><time>2026-03-31T10:05:03.16Z</time></trkpt><trkpt lat="40.92346" lon="0.28039"><ele>450.0</ele><time>2026-03-31T10:05:04.16Z</time></trkpt><trkpt lat="40.9235433" lon="0.2801033"><ele>450.0</ele><time>2026-03-31T10:05:05.16Z</time></trkpt><trkpt lat="40.9235917" lon="0.2798"><ele>450.0</ele><time>2026-03-31T10:05:06.161Z</time></trkpt><trkpt lat="40.9236133" lon="0.27948"><ele>449.5</ele><time>2026-03-31T10:05:07.161Z</time></trkpt><trkpt lat="40.9236033" lon="0.2791683"><ele>449.0</ele><time>2026-03-31T10:05:08.161Z</time></trkpt><trkpt lat="40.92356" lon="0.2788583"><ele>445.5</ele><time>2026-03-31T10:05:09.161Z</time></trkpt><trkpt lat="40.9234883" lon="0.2785567"><ele>442.0</ele><time>2026-03-31T10:05:10.161Z</time></trkpt><trkpt lat="40.9233867" lon="0.2782717"><ele>441.5</ele><time>2026-03-31T10:05:11.16Z</time></trkpt><trkpt lat="40.9232617" lon="0.2779917"><ele>441.0</ele><time>2026-03-31T10:05:12.16Z</time></trkpt><trkpt lat="40.9231217" lon="0.27772"><ele>441.0</ele><time>2026-03-31T10:05:13.161Z</time></trkpt><trkpt lat="40.9229717" lon="0.277465"><ele>441.0</ele><time>2026-03-31T10:05:14.16Z</time></trkpt><trkpt lat="40.922815" lon="0.27721"><ele>441.0</ele><time>2026-03-31T10:05:15.161Z</time></trkpt><trkpt lat="40.9226717" lon="0.2769467"><ele>441.0</ele><time>2026-03-31T10:05:16.16Z</time></trkpt><trkpt lat="40.9225283" lon="0.2766983"><ele>445.0</ele><time>2026-03-31T10:05:17.161Z</time></trkpt><trkpt lat="40.9223967" lon="0.2764367"><ele>449.0</ele><time>2026-03-31T10:05:18.161Z</time></trkpt><trkpt lat="40.922275" lon="0.27616"><ele>453.5</ele><time>2026-03-31T10:05:19.161Z</time></trkpt><trkpt lat="40.9221783" lon="0.27587"><ele>458.0</ele><time>2026-03-31T10:05:20.16Z</time></trkpt><trkpt lat="40.9221083" lon="0.2755683"><ele>458.0</ele><time>2026-03-31T10:05:21.161Z</time></trkpt><trkpt lat="40.9220533" lon="0.275265"><ele>458.0</ele><time>2026-03-31T10:05:22.16Z</time></trkpt><trkpt lat="40.9220133" lon="0.2749567"><ele>459.0</ele><time>2026-03-31T10:05:23.16Z</time></trkpt><trkpt lat="40.9219767" lon="0.274645"><ele>460.0</ele><time>2026-03-31T10:05:24.16Z</time></trkpt><trkpt lat="40.9219267" lon="0.2743417"><ele>460.0</ele><time>2026-03-31T10:05:25.16Z</time></trkpt><trkpt lat="40.9218517" lon="0.27406"><ele>460.0</ele><time>2026-03-31T10:05:26.161Z</time></trkpt><trkpt lat="40.9217583" lon="0.2737867"><ele>460.33333333333337</ele><time>2026-03-31T10:05:27.161Z</time></trkpt><trkpt lat="40.9216517" lon="0.2735267"><ele>460.66666666666663</ele><time>2026-03-31T10:05:28.16Z</time></trkpt><trkpt lat="40.9215267" lon="0.2732783"><ele>461.0</ele><time>2026-03-31T10:05:29.16Z</time></trkpt><trkpt lat="40.9213983" lon="0.2730417"><ele>461.0</ele><time>2026-03-31T10:05:30.16Z</time></trkpt><trkpt lat="40.9212783" lon="0.2727983"><ele>461.0</ele><time>2026-03-31T10:05:31.161Z</time></trkpt><trkpt lat="40.92115" lon="0.2725533"><ele>461.0</ele><time>2026-03-31T10:05:32.16Z</time></trkpt><trkpt lat="40.9210167" lon="0.2723017"><ele>462.0</ele><time>2026-03-31T10:05:33.161Z</time></trkpt><trkpt lat="40.9208867" lon="0.2720367"><ele>463.0</ele><time>2026-03-31T10:05:34.16Z</time></trkpt><trkpt lat="40.9207533" lon="0.271775"><ele>463.0</ele><time>2026-03-31T10:05:35.16Z</time></trkpt><trkpt lat="40.9206133" lon="0.2715033"><ele>463.0</ele><time>2026-03-31T10:05:36.161Z</time></trkpt><trkpt lat="40.9204783" lon="0.2712283"><ele>463.5</ele><time>2026-03-31T10:05:37.161Z</time></trkpt><trkpt lat="40.9203383" lon="0.2709467"><ele>464.0</ele><time>2026-03-31T10:05:38.16Z</time></trkpt><trkpt lat="40.92019" lon="0.2706733"><ele>463.0</ele><time>2026-03-31T10:05:39.16Z</time></trkpt><trkpt lat="40.920045" lon="0.2704083"><ele>462.0</ele><time>2026-03-31T10:05:40.16Z</time></trkpt><trkpt lat="40.9199083" lon="0.2701433"><ele>462.0</ele><time>2026-03-31T10:05:41.16Z</time></trkpt><trkpt lat="40.919775" lon="0.2698767"><ele>462.0</ele><time>2026-03-31T10:05:42.161Z</time></trkpt><trkpt lat="40.91964" lon="0.26961"><ele>461.5</ele><time>2026-03-31T10:05:43.161Z</time></trkpt><trkpt lat="40.9195033" lon="0.2693383"><ele>461.0</ele><time>2026-03-31T10:05:44.16Z</time></trkpt><trkpt lat="40.919365" lon="0.2690833"><ele>462.0</ele><time>2026-03-31T10:05:45.16Z</time></trkpt><trkpt lat="40.9192283" lon="0.2688217"><ele>463.0</ele><time>2026-03-31T10:05:46.16Z</time></trkpt><trkpt lat="40.9191017" lon="0.2685667"><ele>463.0</ele><time>2026-03-31T10:05:47.16Z</time></trkpt><trkpt lat="40.91898" lon="0.268325"><ele>463.0</ele><time>2026-03-31T10:05:48.161Z</time></trkpt><trkpt lat="40.9188617" lon="0.2680967"><ele>463.0</ele><time>2026-03-31T10:05:49.16Z</time></trkpt><trkpt lat="40.91875" lon="0.2678783"><ele>463.0</ele><time>2026-03-31T10:05:50.161Z</time></trkpt><trkpt lat="40.9186383" lon="0.267665"><ele>463.0</ele><time>2026-03-31T10:05:51.161Z</time></trkpt><trkpt lat="40.9185283" lon="0.2674417"><ele>463.0</ele><time>2026-03-31T10:05:52.16Z</time></trkpt><trkpt lat="40.9184133" lon="0.2672083"><ele>464.33333333333337</ele><time>2026-03-31T10:05:53.161Z</time></trkpt><trkpt lat="40.9182967" lon="0.26698"><ele>465.66666666666663</ele><time>2026-03-31T10:05:54.161Z</time></trkpt><trkpt lat="40.91817" lon="0.2667483"><ele>467.0</ele><time>2026-03-31T10:05:55.16Z</time></trkpt><trkpt lat="40.9180433" lon="0.2665167"><ele>466.3333333333333</ele><time>2026-03-31T10:05:56.161Z</time></trkpt><trkpt lat="40.917915" lon="0.26628"><ele>465.66666666666663</ele><time>2026-03-31T10:05:57.161Z</time></trkpt><trkpt lat="40.9177883" lon="0.2660383"><ele>465.0</ele><time>2026-03-31T10:05:58.161Z</time></trkpt><trkpt lat="40.9176617" lon="0.2657983"><ele>465.0</ele><time>2026-03-31T10:05:59.161Z</time></trkpt><trkpt lat="40.9175417" lon="0.2655483"><ele>465.0</ele><time>2026-03-31T10:06:00.161Z</time></trkpt><trkpt lat="40.9174267" lon="0.2652933"><ele>465.0</ele><time>2026-03-31T10:06:01.16Z</time></trkpt><trkpt lat="40.91731" lon="0.26505"><ele>465.0</ele><time>2026-03-31T10:06:02.16Z</time></trkpt><trkpt lat="40.917185" lon="0.2647967"><ele>465.0</ele><time>2026-03-31T10:06:03.16Z</time></trkpt><trkpt lat="40.9170483" lon="0.264545"><ele>465.5</ele><time>2026-03-31T10:06:04.16Z</time></trkpt><trkpt lat="40.9169167" lon="0.264295"><ele>466.0</ele><time>2026-03-31T10:06:05.16Z</time></trkpt><trkpt lat="40.916785" lon="0.2640383"><ele>468.0</ele><time>2026-03-31T10:06:06.161Z</time></trkpt><trkpt lat="40.9166567" lon="0.2637867"><ele>470.0</ele><time>2026-03-31T10:06:07.16Z</time></trkpt><trkpt lat="40.9165267" lon="0.263525"><ele>470.0</ele><time>2026-03-31T10:06:08.16Z</time></trkpt><trkpt lat="40.9163967" lon="0.2632567"><ele>470.0</ele><time>2026-03-31T10:06:09.16Z</time></trkpt><trkpt lat="40.91626" lon="0.2629867"><ele>471.0</ele><time>2026-03-31T10:06:10.161Z</time></trkpt><trkpt lat="40.916125" lon="0.26273"><ele>472.0</ele><time>2026-03-31T10:06:11.161Z</time></trkpt><trkpt lat="40.9159983" lon="0.262475"><ele>472.5</ele><time>2026-03-31T10:06:12.161Z</time></trkpt><trkpt lat="40.9158633" lon="0.262215"><ele>473.0</ele><time>2026-03-31T10:06:13.16Z</time></trkpt><trkpt lat="40.9157367" lon="0.26195"><ele>473.0</ele><time>2026-03-31T10:06:14.16Z</time></trkpt><trkpt lat="40.9156133" lon="0.2617017"><ele>473.0</ele><time>2026-03-31T10:06:15.161Z</time></trkpt><trkpt lat="40.9154967" lon="0.2614717"><ele>473.0</ele><time>2026-03-31T10:06:16.16Z</time></trkpt><trkpt lat="40.915375" lon="0.2612417"><ele>474.3333333333333</ele><time>2026-03-31T10:06:17.16Z</time></trkpt><trkpt lat="40.9152583" lon="0.2610183"><ele>475.66666666666663</ele><time>2026-03-31T10:06:18.16Z</time></trkpt><trkpt lat="40.91514" lon="0.2607983"><ele>477.0</ele><time>2026-03-31T10:06:19.161Z</time></trkpt><trkpt lat="40.9150283" lon="0.2605817"><ele>478.0</ele><time>2026-03-31T10:06:20.16Z</time></trkpt><trkpt lat="40.91492" lon="0.26036"><ele>479.0</ele><time>2026-03-31T10:06:21.161Z</time></trkpt><trkpt lat="40.914815" lon="0.2601367"><ele>480.0</ele><time>2026-03-31T10:06:22.16Z</time></trkpt><trkpt lat="40.9147067" lon="0.259915"><ele>480.0</ele><time>2026-03-31T10:06:23.161Z</time></trkpt><trkpt lat="40.914595" lon="0.2596983"><ele>480.0</ele><time>2026-03-31T10:06:24.16Z</time></trkpt><trkpt lat="40.9144883" lon="0.2594767"><ele>480.0</ele><time>2026-03-31T10:06:25.16Z</time></trkpt><trkpt lat="40.9143783" lon="0.25925"><ele>480.0</ele><time>2026-03-31T10:06:26.161Z</time></trkpt><trkpt lat="40.91426" lon="0.259025"><ele>480.0</ele><time>2026-03-31T10:06:27.16Z</time></trkpt><trkpt lat="40.9141417" lon="0.25879"><ele>480.0</ele><time>2026-03-31T10:06:28.161Z</time></trkpt><trkpt lat="40.9140233" lon="0.2585483"><ele>479.0</ele><time>2026-03-31T10:06:29.16Z</time></trkpt><trkpt lat="40.9139067" lon="0.2583067"><ele>478.0</ele><time>2026-03-31T10:06:30.161Z</time></trkpt><trkpt lat="40.9137783" lon="0.2580567"><ele>477.0</ele><time>2026-03-31T10:06:31.161Z</time></trkpt><trkpt lat="40.913635" lon="0.2578183"><ele>477.0</ele><time>2026-03-31T10:06:32.16Z</time></trkpt><trkpt lat="40.9134867" lon="0.2575867"><ele>477.0</ele><time>2026-03-31T10:06:33.16Z</time></trkpt><trkpt lat="40.9133433" lon="0.2573467"><ele>476.0</ele><time>2026-03-31T10:06:34.16Z</time></trkpt><trkpt lat="40.9131883" lon="0.25711"><ele>475.0</ele><time>2026-03-31T10:06:35.16Z</time></trkpt><trkpt lat="40.91303" lon="0.2568717"><ele>475.0</ele><time>2026-03-31T10:06:36.16Z</time></trkpt><trkpt lat="40.9128817" lon="0.256635"><ele>475.0</ele><time>2026-03-31T10:06:37.16Z</time></trkpt><trkpt lat="40.912735" lon="0.256405"><ele>475.0</ele><time>2026-03-31T10:06:38.161Z</time></trkpt><trkpt lat="40.91259" lon="0.2561783"><ele>475.0</ele><time>2026-03-31T10:06:39.16Z</time></trkpt><trkpt lat="40.912445" lon="0.255955"><ele>475.0</ele><time>2026-03-31T10:06:40.161Z</time></trkpt><trkpt lat="40.9123017" lon="0.25574"><ele>471.0</ele><time>2026-03-31T10:06:41.161Z</time></trkpt><trkpt lat="40.9121533" lon="0.25553"><ele>467.0</ele><time>2026-03-31T10:06:42.16Z</time></trkpt><trkpt lat="40.9120033" lon="0.2553217"><ele>463.0</ele><time>2026-03-31T10:06:43.16Z</time></trkpt><trkpt lat="40.91184" lon="0.2551167"><ele>462.6666666666667</ele><time>2026-03-31T10:06:44.161Z</time></trkpt><trkpt lat="40.91166" lon="0.25495"><ele>462.33333333333337</ele><time>2026-03-31T10:06:45.16Z</time></trkpt><trkpt lat="40.9114567" lon="0.254815"><ele>462.0</ele><time>2026-03-31T10:06:46.16Z</time></trkpt><trkpt lat="40.911255" lon="0.2546917"><ele>462.0</ele><time>2026-03-31T10:06:47.161Z</time></trkpt><trkpt lat="40.91104" lon="0.25458"><ele>462.0</ele><time>2026-03-31T10:06:48.161Z</time></trkpt><trkpt lat="40.9108267" lon="0.2544767"><ele>464.66666666666663</ele><time>2026-03-31T10:06:49.161Z</time></trkpt><trkpt lat="40.9106167" lon="0.25437"><ele>467.3333333333333</ele><time>2026-03-31T10:06:50.16Z</time></trkpt><trkpt lat="40.9104183" lon="0.2542367"><ele>470.0</ele><time>2026-03-31T10:06:51.16Z</time></trkpt><trkpt lat="40.9102367" lon="0.2540733"><ele>471.0</ele><time>2026-03-31T10:06:52.161Z</time></trkpt><trkpt lat="40.9100733" lon="0.25388"><ele>472.0</ele><time>2026-03-31T10:06:53.16Z</time></trkpt><trkpt lat="40.90993" lon="0.2536667"><ele>473.0</ele><time>2026-03-31T10:06:54.16Z</time></trkpt><trkpt lat="40.909795" lon="0.2534417"><ele>473.0</ele><time>2026-03-31T10:06:55.16Z</time></trkpt><trkpt lat="40.909665" lon="0.2532333"><ele>473.0</ele><time>2026-03-31T10:06:56.16Z</time></trkpt><trkpt lat="40.9095567" lon="0.253015"><ele>473.0</ele><time>2026-03-31T10:06:57.16Z</time></trkpt><trkpt lat="40.9094667" lon="0.2527633"><ele>471.3333333333333</ele><time>2026-03-31T10:06:58.161Z</time></trkpt><trkpt lat="40.9094217" lon="0.2525083"><ele>469.66666666666663</ele><time>2026-03-31T10:06:59.16Z</time></trkpt><trkpt lat="40.9093983" lon="0.252255"><ele>468.0</ele><time>2026-03-31T10:07:00.161Z</time></trkpt><trkpt lat="40.9093767" lon="0.2520033"><ele>468.0</ele><time>2026-03-31T10:07:01.16Z</time></trkpt><trkpt lat="40.909355" lon="0.2517533"><ele>468.0</ele><time>2026-03-31T10:07:02.161Z</time></trkpt><trkpt lat="40.9093217" lon="0.2515083"><ele>468.0</ele><time>2026-03-31T10:07:03.16Z</time></trkpt><trkpt lat="40.9092883" lon="0.25126"><ele>468.0</ele><time>2026-03-31T10:07:04.161Z</time></trkpt><trkpt lat="40.9092483" lon="0.251025"><ele>468.0</ele><time>2026-03-31T10:07:05.161Z</time></trkpt><trkpt lat="40.9091967" lon="0.250785"><ele>468.0</ele><time>2026-03-31T10:07:06.16Z</time></trkpt><trkpt lat="40.90912" lon="0.2505533"><ele>468.0</ele><time>2026-03-31T10:07:07.161Z</time></trkpt><trkpt lat="40.909035" lon="0.2503233"><ele>468.0</ele><time>2026-03-31T10:07:08.16Z</time></trkpt><trkpt lat="40.9089533" lon="0.250095"><ele>468.0</ele><time>2026-03-31T10:07:09.16Z</time></trkpt><trkpt lat="40.9088667" lon="0.2498517"><ele>467.66666666666663</ele><time>2026-03-31T10:07:10.161Z</time></trkpt><trkpt lat="40.908775" lon="0.249605"><ele>467.3333333333333</ele><time>2026-03-31T10:07:11.161Z</time></trkpt><trkpt lat="40.9086767" lon="0.24936"><ele>467.0</ele><time>2026-03-31T10:07:12.16Z</time></trkpt><trkpt lat="40.9085617" lon="0.2491283"><ele>466.66666666666663</ele><time>2026-03-31T10:07:13.16Z</time></trkpt><trkpt lat="40.9084583" lon="0.248885"><ele>466.33333333333337</ele><time>2026-03-31T10:07:14.161Z</time></trkpt><trkpt lat="40.90836" lon="0.24864"><ele>466.0</ele><time>2026-03-31T10:07:15.16Z</time></trkpt><trkpt lat="40.9082683" lon="0.2484083"><ele>467.0</ele><time>2026-03-31T10:07:16.16Z</time></trkpt><trkpt lat="40.9081733" lon="0.24816"><ele>468.0</ele><time>2026-03-31T10:07:17.161Z</time></trkpt><trkpt lat="40.90808" lon="0.24792"><ele>469.0</ele><time>2026-03-31T10:07:18.161Z</time></trkpt><trkpt lat="40.90797" lon="0.247695"><ele>470.6666666666667</ele><time>2026-03-31T10:07:19.16Z</time></trkpt><trkpt lat="40.9078483" lon="0.24749"><ele>472.33333333333337</ele><time>2026-03-31T10:07:20.161Z</time></trkpt><trkpt lat="40.9077067" lon="0.24731"><ele>474.0</ele><time>2026-03-31T10:07:21.161Z</time></trkpt><trkpt lat="40.9075433" lon="0.2471467"><ele>474.66666666666663</ele><time>2026-03-31T10:07:22.16Z</time></trkpt><trkpt lat="40.9073633" lon="0.24701"><ele>475.3333333333333</ele><time>2026-03-31T10:07:23.161Z</time></trkpt><trkpt lat="40.9071767" lon="0.2468967"><ele>476.0</ele><time>2026-03-31T10:07:24.161Z</time></trkpt><trkpt lat="40.9069683" lon="0.2467933"><ele>476.0</ele><time>2026-03-31T10:07:25.16Z</time></trkpt><trkpt lat="40.90675" lon="0.2467133"><ele>476.0</ele><time>2026-03-31T10:07:26.16Z</time></trkpt><trkpt lat="40.9065417" lon="0.2466333"><ele>476.0</ele><time>2026-03-31T10:07:27.161Z</time></trkpt><trkpt lat="40.9063217" lon="0.2465583"><ele>479.0</ele><time>2026-03-31T10:07:28.16Z</time></trkpt><trkpt lat="40.9061083" lon="0.2464867"><ele>482.0</ele><time>2026-03-31T10:07:29.161Z</time></trkpt><trkpt lat="40.905905" lon="0.2464"><ele>485.0</ele><time>2026-03-31T10:07:30.16Z</time></trkpt><trkpt lat="40.9056983" lon="0.2462967"><ele>485.66666666666663</ele><time>2026-03-31T10:07:31.16Z</time></trkpt><trkpt lat="40.9054983" lon="0.24617"><ele>486.33333333333337</ele><time>2026-03-31T10:07:32.16Z</time></trkpt><trkpt lat="40.905305" lon="0.2460167"><ele>487.0</ele><time>2026-03-31T10:07:33.161Z</time></trkpt><trkpt lat="40.9051217" lon="0.2458533"><ele>487.0</ele><time>2026-03-31T10:07:34.16Z</time></trkpt><trkpt lat="40.9049333" lon="0.24568"><ele>487.0</ele><time>2026-03-31T10:07:35.16Z</time></trkpt><trkpt lat="40.9047583" lon="0.2454767"><ele>487.0</ele><time>2026-03-31T10:07:36.16Z</time></trkpt><trkpt lat="40.904595" lon="0.2452583"><ele>487.0</ele><time>2026-03-31T10:07:37.161Z</time></trkpt><trkpt lat="40.9044417" lon="0.24503"><ele>487.0</ele><time>2026-03-31T10:07:38.16Z</time></trkpt><trkpt lat="40.9043" lon="0.2447817"><ele>487.0</ele><time>2026-03-31T10:07:39.16Z</time></trkpt><trkpt lat="40.90418" lon="0.24451"><ele>489.0</ele><time>2026-03-31T10:07:40.161Z</time></trkpt><trkpt lat="40.904075" lon="0.2442333"><ele>491.0</ele><time>2026-03-31T10:07:41.16Z</time></trkpt><trkpt lat="40.9039867" lon="0.24394"><ele>491.0</ele><time>2026-03-31T10:07:42.16Z</time></trkpt><trkpt lat="40.9039233" lon="0.243655"><ele>491.0</ele><time>2026-03-31T10:07:43.16Z</time></trkpt><trkpt lat="40.9038633" lon="0.24335"><ele>490.5</ele><time>2026-03-31T10:07:44.16Z</time></trkpt><trkpt lat="40.9038167" lon="0.2430467"><ele>490.0</ele><time>2026-03-31T10:07:45.161Z</time></trkpt><trkpt lat="40.9037733" lon="0.24274"><ele>490.0</ele><time>2026-03-31T10:07:46.161Z</time></trkpt><trkpt lat="40.9037217" lon="0.2424383"><ele>490.0</ele><time>2026-03-31T10:07:47.16Z</time></trkpt><trkpt lat="40.903675" lon="0.24214"><ele>490.5</ele><time>2026-03-31T10:07:48.16Z</time></trkpt><trkpt lat="40.9036133" lon="0.2418517"><ele>491.0</ele><time>2026-03-31T10:07:49.161Z</time></trkpt><trkpt lat="40.9035383" lon="0.2415683"><ele>491.0</ele><time>2026-03-31T10:07:50.161Z</time></trkpt><trkpt lat="40.903435" lon="0.2412933"><ele>491.0</ele><time>2026-03-31T10:07:51.16Z</time></trkpt><trkpt lat="40.9033133" lon="0.2410333"><ele>493.0</ele><time>2026-03-31T10:07:52.161Z</time></trkpt><trkpt lat="40.90318" lon="0.2407883"><ele>495.0</ele><time>2026-03-31T10:07:53.16Z</time></trkpt><trkpt lat="40.9030217" lon="0.240575"><ele>495.0</ele><time>2026-03-31T10:07:54.16Z</time></trkpt><trkpt lat="40.9028533" lon="0.240375"><ele>495.0</ele><time>2026-03-31T10:07:55.161Z</time></trkpt><trkpt lat="40.9026717" lon="0.2401933"><ele>495.66666666666663</ele><time>2026-03-31T10:07:56.161Z</time></trkpt><trkpt lat="40.9025017" lon="0.24"><ele>496.3333333333333</ele><time>2026-03-31T10:07:57.16Z</time></trkpt><trkpt lat="40.9023433" lon="0.2398017"><ele>497.0</ele><time>2026-03-31T10:07:58.161Z</time></trkpt><trkpt lat="40.9021917" lon="0.2396083"><ele>497.0</ele><time>2026-03-31T10:07:59.161Z</time></trkpt><trkpt lat="40.9020483" lon="0.23941"><ele>497.0</ele><time>2026-03-31T10:08:00.16Z</time></trkpt><trkpt lat="40.9019217" lon="0.2391983"><ele>497.0</ele><time>2026-03-31T10:08:01.16Z</time></trkpt><trkpt lat="40.9018017" lon="0.23897"><ele>497.3333333333333</ele><time>2026-03-31T10:08:02.161Z</time></trkpt><trkpt lat="40.9016817" lon="0.238745"><ele>497.66666666666663</ele><time>2026-03-31T10:08:03.161Z</time></trkpt><trkpt lat="40.9015567" lon="0.2385183"><ele>498.0</ele><time>2026-03-31T10:08:04.16Z</time></trkpt><trkpt lat="40.9014333" lon="0.2382867"><ele>498.0</ele><time>2026-03-31T10:08:05.16Z</time></trkpt><trkpt lat="40.9013117" lon="0.2380417"><ele>498.0</ele><time>2026-03-31T10:08:06.16Z</time></trkpt><trkpt lat="40.9011883" lon="0.2378"><ele>498.0</ele><time>2026-03-31T10:08:07.16Z</time></trkpt><trkpt lat="40.90107" lon="0.2375617"><ele>498.0</ele><time>2026-03-31T10:08:08.16Z</time></trkpt><trkpt lat="40.9009483" lon="0.2373233"><ele>498.0</ele><time>2026-03-31T10:08:09.161Z</time></trkpt><trkpt lat="40.9008267" lon="0.2370833"><ele>498.0</ele><time>2026-03-31T10:08:10.16Z</time></trkpt><trkpt lat="40.900705" lon="0.2368383"><ele>498.66666666666663</ele><time>2026-03-31T10:08:11.161Z</time></trkpt><trkpt lat="40.9005833" lon="0.2365983"><ele>499.3333333333333</ele><time>2026-03-31T10:08:12.16Z</time></trkpt><trkpt lat="40.900465" lon="0.2363583"><ele>500.0</ele><time>2026-03-31T10:08:13.16Z</time></trkpt><trkpt lat="40.9003517" lon="0.236125"><ele>500.0</ele><time>2026-03-31T10:08:14.161Z</time></trkpt><trkpt lat="40.900235" lon="0.2358933"><ele>500.0</ele><time>2026-03-31T10:08:15.16Z</time></trkpt><trkpt lat="40.9001183" lon="0.2356717"><ele>500.0</ele><time>2026-03-31T10:08:16.161Z</time></trkpt><trkpt lat="40.9000167" lon="0.2354717"><ele>501.3333333333333</ele><time>2026-03-31T10:08:17.161Z</time></trkpt><trkpt lat="40.89992" lon="0.2352867"><ele>502.66666666666663</ele><time>2026-03-31T10:08:18.161Z</time></trkpt><trkpt lat="40.8998333" lon="0.2351183"><ele>504.0</ele><time>2026-03-31T10:08:19.16Z</time></trkpt><trkpt lat="40.8997567" lon="0.23497"><ele>504.0</ele><time>2026-03-31T10:08:20.16Z</time></trkpt><trkpt lat="40.8996967" lon="0.2348383"><ele>504.0</ele><time>2026-03-31T10:08:21.161Z</time></trkpt><trkpt lat="40.899645" lon="0.2347233"><ele>504.0</ele><time>2026-03-31T10:08:22.16Z</time></trkpt><trkpt lat="40.8996" lon="0.2346333"><ele>504.0</ele><time>2026-03-31T10:08:23.16Z</time></trkpt><trkpt lat="40.8995567" lon="0.2345633"><ele>504.0</ele><time>2026-03-31T10:08:24.16Z</time></trkpt><trkpt lat="40.899515" lon="0.2345"><ele>504.0</ele><time>2026-03-31T10:08:25.16Z</time></trkpt><trkpt lat="40.8994617" lon="0.2343817"><ele>504.79999999999995</ele><time>2026-03-31T10:08:27.161Z</time></trkpt><trkpt lat="40.899415" lon="0.234275"><ele>505.59999999999997</ele><time>2026-03-31T10:08:29.16Z</time></trkpt><trkpt lat="40.8993717" lon="0.23419"><ele>506.4</ele><time>2026-03-31T10:08:32.16Z</time></trkpt><trkpt lat="40.8993167" lon="0.2340667"><ele>507.2</ele><time>2026-03-31T10:08:46.16Z</time></trkpt><trkpt lat="40.89923" lon="0.233925"><ele>508.0</ele><time>2026-03-31T10:08:48.16Z</time></trkpt><trkpt lat="40.8991783" lon="0.2338333"><ele>508.2</ele><time>2026-03-31T10:08:49.161Z</time></trkpt><trkpt lat="40.899125" lon="0.2337317"><ele>508.4</ele><time>2026-03-31T10:08:50.16Z</time></trkpt><trkpt lat="40.89907" lon="0.2336333"><ele>508.59999999999997</ele><time>2026-03-31T10:08:51.16Z</time></trkpt><trkpt lat="40.8990117" lon="0.2335283"><ele>508.79999999999995</ele><time>2026-03-31T10:08:52.161Z</time></trkpt><trkpt lat="40.8989517" lon="0.2334167"><ele>509.0</ele><time>2026-03-31T10:08:53.161Z</time></trkpt><trkpt lat="40.8988967" lon="0.233305"><ele>509.0</ele><time>2026-03-31T10:08:54.161Z</time></trkpt><trkpt lat="40.89884" lon="0.2331933"><ele>509.0</ele><time>2026-03-31T10:08:55.16Z</time></trkpt><trkpt lat="40.8987833" lon="0.23309"><ele>509.0</ele><time>2026-03-31T10:08:56.16Z</time></trkpt><trkpt lat="40.8987317" lon="0.232985"><ele>509.0</ele><time>2026-03-31T10:08:57.16Z</time></trkpt><trkpt lat="40.8986767" lon="0.23288"><ele>509.0</ele><time>2026-03-31T10:08:58.161Z</time></trkpt><trkpt lat="40.8986167" lon="0.2327717"><ele>509.0</ele><time>2026-03-31T10:08:59.16Z</time></trkpt><trkpt lat="40.8985483" lon="0.232665"><ele>509.0</ele><time>2026-03-31T10:09:00.16Z</time></trkpt><trkpt lat="40.8984683" lon="0.2325633"><ele>509.0</ele><time>2026-03-31T10:09:01.16Z</time></trkpt><trkpt lat="40.89838" lon="0.23245"><ele>509.0</ele><time>2026-03-31T10:09:02.16Z</time></trkpt><trkpt lat="40.8982833" lon="0.2323383"><ele>510.0</ele><time>2026-03-31T10:09:03.16Z</time></trkpt><trkpt lat="40.8981867" lon="0.2322283"><ele>511.0</ele><time>2026-03-31T10:09:04.161Z</time></trkpt><trkpt lat="40.8980833" lon="0.2321283"><ele>512.0</ele><time>2026-03-31T10:09:05.161Z</time></trkpt><trkpt lat="40.8979817" lon="0.23203"><ele>513.0</ele><time>2026-03-31T10:09:06.161Z</time></trkpt><trkpt lat="40.8978733" lon="0.23193"><ele>513.0</ele><time>2026-03-31T10:09:07.16Z</time></trkpt><trkpt lat="40.89776" lon="0.2318317"><ele>513.0</ele><time>2026-03-31T10:09:08.161Z</time></trkpt><trkpt lat="40.8976417" lon="0.23174"><ele>513.0</ele><time>2026-03-31T10:09:09.16Z</time></trkpt><trkpt lat="40.8975283" lon="0.2316383"><ele>513.0</ele><time>2026-03-31T10:09:10.16Z</time></trkpt><trkpt lat="40.89741" lon="0.2315367"><ele>513.75</ele><time>2026-03-31T10:09:11.16Z</time></trkpt><trkpt lat="40.8972933" lon="0.231435"><ele>514.5</ele><time>2026-03-31T10:09:12.16Z</time></trkpt><trkpt lat="40.8971767" lon="0.2313367"><ele>515.25</ele><time>2026-03-31T10:09:13.16Z</time></trkpt><trkpt lat="40.897055" lon="0.231245"><ele>516.0</ele><time>2026-03-31T10:09:14.161Z</time></trkpt><trkpt lat="40.8969383" lon="0.2311467"><ele>516.0</ele><time>2026-03-31T10:09:15.16Z</time></trkpt><trkpt lat="40.8968317" lon="0.2310483"><ele>516.0</ele><time>2026-03-31T10:09:16.161Z</time></trkpt><trkpt lat="40.8967267" lon="0.23094"><ele>516.0</ele><time>2026-03-31T10:09:17.161Z</time></trkpt><trkpt lat="40.8966267" lon="0.2308367"><ele>516.0</ele><time>2026-03-31T10:09:18.161Z</time></trkpt><trkpt lat="40.8965233" lon="0.23072"><ele>516.75</ele><time>2026-03-31T10:09:19.161Z</time></trkpt><trkpt lat="40.89643" lon="0.2306"><ele>517.5</ele><time>2026-03-31T10:09:20.161Z</time></trkpt><trkpt lat="40.8963433" lon="0.2304733"><ele>518.25</ele><time>2026-03-31T10:09:21.161Z</time></trkpt><trkpt lat="40.8962567" lon="0.2303367"><ele>519.0</ele><time>2026-03-31T10:09:22.16Z</time></trkpt><trkpt lat="40.8961717" lon="0.2301933"><ele>519.0</ele><time>2026-03-31T10:09:23.16Z</time></trkpt><trkpt lat="40.896085" lon="0.2300417"><ele>519.0</ele><time>2026-03-31T10:09:24.16Z</time></trkpt><trkpt lat="40.8960017" lon="0.2298767"><ele>519.0</ele><time>2026-03-31T10:09:25.161Z</time></trkpt><trkpt lat="40.8959083" lon="0.2297033"><ele>518.6666666666666</ele><time>2026-03-31T10:09:26.16Z</time></trkpt><trkpt lat="40.8958117" lon="0.2295283"><ele>518.3333333333333</ele><time>2026-03-31T10:09:27.16Z</time></trkpt><trkpt lat="40.8957267" lon="0.229335"><ele>518.0</ele><time>2026-03-31T10:09:28.161Z</time></trkpt><trkpt lat="40.8956383" lon="0.2291467"><ele>518.3333333333333</ele><time>2026-03-31T10:09:29.161Z</time></trkpt><trkpt lat="40.8955533" lon="0.2289583"><ele>518.6666666666666</ele><time>2026-03-31T10:09:30.16Z</time></trkpt><trkpt lat="40.8954683" lon="0.2287783"><ele>519.0</ele><time>2026-03-31T10:09:31.16Z</time></trkpt><trkpt lat="40.8953833" lon="0.2286"><ele>519.0</ele><time>2026-03-31T10:09:32.16Z</time></trkpt><trkpt lat="40.8952967" lon="0.2284233"><ele>519.0</ele><time>2026-03-31T10:09:33.16Z</time></trkpt><trkpt lat="40.895215" lon="0.22824"><ele>519.0</ele><time>2026-03-31T10:09:34.161Z</time></trkpt><trkpt lat="40.8951283" lon="0.22805"><ele>521.0</ele><time>2026-03-31T10:09:35.16Z</time></trkpt><trkpt lat="40.8950433" lon="0.2278633"><ele>523.0</ele><time>2026-03-31T10:09:36.16Z</time></trkpt><trkpt lat="40.89496" lon="0.2276733"><ele>525.0</ele><time>2026-03-31T10:09:37.16Z</time></trkpt><trkpt lat="40.8948717" lon="0.2274817"><ele>527.0</ele><time>2026-03-31T10:09:38.16Z</time></trkpt><trkpt lat="40.8947833" lon="0.2273"><ele>529.0</ele><time>2026-03-31T10:09:39.161Z</time></trkpt><trkpt lat="40.8946983" lon="0.22711"><ele>531.0</ele><time>2026-03-31T10:09:40.16Z</time></trkpt><trkpt lat="40.894615" lon="0.226915"><ele>531.0</ele><time>2026-03-31T10:09:41.161Z</time></trkpt><trkpt lat="40.894525" lon="0.2267183"><ele>531.0</ele><time>2026-03-31T10:09:42.16Z</time></trkpt><trkpt lat="40.89444" lon="0.2265133"><ele>531.0</ele><time>2026-03-31T10:09:43.161Z</time></trkpt><trkpt lat="40.8943617" lon="0.2263183"><ele>531.0</ele><time>2026-03-31T10:09:44.16Z</time></trkpt><trkpt lat="40.89429" lon="0.2261133"><ele>531.0</ele><time>2026-03-31T10:09:45.161Z</time></trkpt><trkpt lat="40.8942267" lon="0.2259"><ele>531.0</ele><time>2026-03-31T10:09:46.16Z</time></trkpt><trkpt lat="40.894165" lon="0.2256783"><ele>531.3333333333334</ele><time>2026-03-31T10:09:47.16Z</time></trkpt><trkpt lat="40.894115" lon="0.22544"><ele>531.6666666666667</ele><time>2026-03-31T10:09:48.16Z</time></trkpt><trkpt lat="40.89407" lon="0.2252017"><ele>532.0</ele><time>2026-03-31T10:09:49.161Z</time></trkpt><trkpt lat="40.8940383" lon="0.224955"><ele>531.6666666666667</ele><time>2026-03-31T10:09:50.161Z</time></trkpt><trkpt lat="40.89401" lon="0.22469"><ele>531.3333333333334</ele><time>2026-03-31T10:09:51.161Z</time></trkpt><trkpt lat="40.89399" lon="0.2244083"><ele>531.0</ele><time>2026-03-31T10:09:52.161Z</time></trkpt><trkpt lat="40.8939767" lon="0.2241283"><ele>531.3333333333334</ele><time>2026-03-31T10:09:53.161Z</time></trkpt><trkpt lat="40.8939733" lon="0.2238467"><ele>531.6666666666667</ele><time>2026-03-31T10:09:54.16Z</time></trkpt><trkpt lat="40.8939583" lon="0.22356"><ele>532.0</ele><time>2026-03-31T10:09:55.16Z</time></trkpt><trkpt lat="40.89394" lon="0.2232683"><ele>533.0</ele><time>2026-03-31T10:09:56.16Z</time></trkpt><trkpt lat="40.8939217" lon="0.22297"><ele>534.0</ele><time>2026-03-31T10:09:57.16Z</time></trkpt><trkpt lat="40.8939083" lon="0.222665"><ele>534.0</ele><time>2026-03-31T10:09:58.161Z</time></trkpt><trkpt lat="40.8938983" lon="0.2223483"><ele>534.0</ele><time>2026-03-31T10:09:59.16Z</time></trkpt><trkpt lat="40.8938967" lon="0.2220317"><ele>534.5</ele><time>2026-03-31T10:10:00.161Z</time></trkpt><trkpt lat="40.8938983" lon="0.221715"><ele>535.0</ele><time>2026-03-31T10:10:01.16Z</time></trkpt><trkpt lat="40.8938967" lon="0.2213917"><ele>537.0</ele><time>2026-03-31T10:10:02.161Z</time></trkpt><trkpt lat="40.8938967" lon="0.2210567"><ele>539.0</ele><time>2026-03-31T10:10:03.161Z</time></trkpt><trkpt lat="40.8939033" lon="0.22072"><ele>539.5</ele><time>2026-03-31T10:10:04.16Z</time></trkpt><trkpt lat="40.893915" lon="0.220385"><ele>540.0</ele><time>2026-03-31T10:10:05.161Z</time></trkpt><trkpt lat="40.8939167" lon="0.2200517"><ele>539.5</ele><time>2026-03-31T10:10:06.16Z</time></trkpt><trkpt lat="40.893905" lon="0.2197217"><ele>539.0</ele><time>2026-03-31T10:10:07.16Z</time></trkpt><trkpt lat="40.89389" lon="0.2193967"><ele>539.0</ele><time>2026-03-31T10:10:08.16Z</time></trkpt><trkpt lat="40.89388" lon="0.2190767"><ele>539.0</ele><time>2026-03-31T10:10:09.161Z</time></trkpt><trkpt lat="40.8938717" lon="0.2187583"><ele>541.5</ele><time>2026-03-31T10:10:10.161Z</time></trkpt><trkpt lat="40.89387" lon="0.218435"><ele>544.0</ele><time>2026-03-31T10:10:11.161Z</time></trkpt><trkpt lat="40.8938667" lon="0.2181067"><ele>547.0</ele><time>2026-03-31T10:10:12.16Z</time></trkpt><trkpt lat="40.8938633" lon="0.2177833"><ele>550.0</ele><time>2026-03-31T10:10:13.16Z</time></trkpt><trkpt lat="40.893855" lon="0.21747"><ele>549.5</ele><time>2026-03-31T10:10:14.16Z</time></trkpt><trkpt lat="40.8938467" lon="0.2171417"><ele>549.0</ele><time>2026-03-31T10:10:15.16Z</time></trkpt><trkpt lat="40.893825" lon="0.2168067"><ele>549.5</ele><time>2026-03-31T10:10:16.161Z</time></trkpt><trkpt lat="40.8937917" lon="0.2164733"><ele>550.0</ele><time>2026-03-31T10:10:17.16Z</time></trkpt><trkpt lat="40.893755" lon="0.2161517"><ele>550.0</ele><time>2026-03-31T10:10:18.16Z</time></trkpt><trkpt lat="40.89372" lon="0.215835"><ele>550.0</ele><time>2026-03-31T10:10:19.16Z</time></trkpt><trkpt lat="40.8936783" lon="0.2155117"><ele>553.0</ele><time>2026-03-31T10:10:20.16Z</time></trkpt><trkpt lat="40.8936433" lon="0.21518"><ele>556.0</ele><time>2026-03-31T10:10:21.16Z</time></trkpt><trkpt lat="40.893605" lon="0.2148583"><ele>556.5</ele><time>2026-03-31T10:10:22.16Z</time></trkpt><trkpt lat="40.89356" lon="0.2145383"><ele>557.0</ele><time>2026-03-31T10:10:23.16Z</time></trkpt><trkpt lat="40.893515" lon="0.2142133"><ele>555.0</ele><time>2026-03-31T10:10:24.161Z</time></trkpt><trkpt lat="40.8934717" lon="0.2139"><ele>553.0</ele><time>2026-03-31T10:10:25.16Z</time></trkpt><trkpt lat="40.89342" lon="0.2135833"><ele>553.0</ele><time>2026-03-31T10:10:26.16Z</time></trkpt><trkpt lat="40.8933733" lon="0.2132667"><ele>553.0</ele><time>2026-03-31T10:10:27.16Z</time></trkpt><trkpt lat="40.8933267" lon="0.2129433"><ele>553.0</ele><time>2026-03-31T10:10:28.16Z</time></trkpt><trkpt lat="40.89328" lon="0.21262"><ele>553.0</ele><time>2026-03-31T10:10:29.161Z</time></trkpt><trkpt lat="40.8932367" lon="0.2122917"><ele>555.0</ele><time>2026-03-31T10:10:30.161Z</time></trkpt><trkpt lat="40.8932" lon="0.21196"><ele>557.0</ele><time>2026-03-31T10:10:31.16Z</time></trkpt><trkpt lat="40.893165" lon="0.2116267"><ele>558.0</ele><time>2026-03-31T10:10:32.161Z</time></trkpt><trkpt lat="40.89312" lon="0.2112983"><ele>559.0</ele><time>2026-03-31T10:10:33.16Z</time></trkpt><trkpt lat="40.893085" lon="0.21096"><ele>559.5</ele><time>2026-03-31T10:10:34.161Z</time></trkpt><trkpt lat="40.8930617" lon="0.2106283"><ele>560.0</ele><time>2026-03-31T10:10:35.16Z</time></trkpt><trkpt lat="40.89306" lon="0.2102933"><ele>560.0</ele><time>2026-03-31T10:10:36.16Z</time></trkpt><trkpt lat="40.8930633" lon="0.209965"><ele>560.0</ele><time>2026-03-31T10:10:37.161Z</time></trkpt><trkpt lat="40.8930917" lon="0.209625"><ele>561.0</ele><time>2026-03-31T10:10:38.16Z</time></trkpt><trkpt lat="40.893125" lon="0.2092933"><ele>562.0</ele><time>2026-03-31T10:10:39.16Z</time></trkpt><trkpt lat="40.8931617" lon="0.2089667"><ele>563.0</ele><time>2026-03-31T10:10:40.16Z</time></trkpt><trkpt lat="40.893215" lon="0.208655"><ele>564.0</ele><time>2026-03-31T10:10:41.16Z</time></trkpt><trkpt lat="40.8932717" lon="0.2083433"><ele>566.5</ele><time>2026-03-31T10:10:42.161Z</time></trkpt><trkpt lat="40.8933433" lon="0.2080233"><ele>569.0</ele><time>2026-03-31T10:10:43.16Z</time></trkpt><trkpt lat="40.8934133" lon="0.2077083"><ele>573.0</ele><time>2026-03-31T10:10:44.16Z</time></trkpt><trkpt lat="40.8934733" lon="0.2073917"><ele>577.0</ele><time>2026-03-31T10:10:45.16Z</time></trkpt><trkpt lat="40.8935283" lon="0.207075"><ele>578.0</ele><time>2026-03-31T10:10:46.161Z</time></trkpt><trkpt lat="40.8935817" lon="0.2067617"><ele>579.0</ele><time>2026-03-31T10:10:47.16Z</time></trkpt><trkpt lat="40.89362" lon="0.2064433"><ele>580.0</ele><time>2026-03-31T10:10:48.161Z</time></trkpt><trkpt lat="40.893645" lon="0.2061267"><ele>581.0</ele><time>2026-03-31T10:10:49.16Z</time></trkpt><trkpt lat="40.8936517" lon="0.2058033"><ele>580.5</ele><time>2026-03-31T10:10:50.161Z</time></trkpt><trkpt lat="40.8936433" lon="0.205475"><ele>580.0</ele><time>2026-03-31T10:10:51.161Z</time></trkpt><trkpt lat="40.8936117" lon="0.2051533"><ele>580.0</ele><time>2026-03-31T10:10:52.161Z</time></trkpt><trkpt lat="40.8935717" lon="0.204845"><ele>580.0</ele><time>2026-03-31T10:10:53.161Z</time></trkpt><trkpt lat="40.8935167" lon="0.2045367"><ele>580.5</ele><time>2026-03-31T10:10:54.161Z</time></trkpt><trkpt lat="40.8934433" lon="0.2042383"><ele>581.0</ele><time>2026-03-31T10:10:55.16Z</time></trkpt><trkpt lat="40.893355" lon="0.20396"><ele>582.5</ele><time>2026-03-31T10:10:56.16Z</time></trkpt><trkpt lat="40.89326" lon="0.2036917"><ele>584.0</ele><time>2026-03-31T10:10:57.16Z</time></trkpt><trkpt lat="40.8931433" lon="0.203425"><ele>584.0</ele><time>2026-03-31T10:10:58.16Z</time></trkpt><trkpt lat="40.8930217" lon="0.203165"><ele>584.0</ele><time>2026-03-31T10:10:59.161Z</time></trkpt><trkpt lat="40.8928783" lon="0.2029183"><ele>585.0</ele><time>2026-03-31T10:11:00.16Z</time></trkpt><trkpt lat="40.8927233" lon="0.2026833"><ele>586.0</ele><time>2026-03-31T10:11:01.16Z</time></trkpt><trkpt lat="40.89256" lon="0.2024683"><ele>589.5</ele><time>2026-03-31T10:11:02.16Z</time></trkpt><trkpt lat="40.8923883" lon="0.202275"><ele>593.0</ele><time>2026-03-31T10:11:03.16Z</time></trkpt><trkpt lat="40.8922033" lon="0.2020867"><ele>593.0</ele><time>2026-03-31T10:11:04.16Z</time></trkpt><trkpt lat="40.8920183" lon="0.2019217"><ele>593.0</ele><time>2026-03-31T10:11:05.161Z</time></trkpt><trkpt lat="40.8918317" lon="0.2017717"><ele>593.0</ele><time>2026-03-31T10:11:06.16Z</time></trkpt><trkpt lat="40.89164" lon="0.2016367"><ele>596.0</ele><time>2026-03-31T10:11:07.161Z</time></trkpt><trkpt lat="40.8914433" lon="0.2015167"><ele>599.0</ele><time>2026-03-31T10:11:08.16Z</time></trkpt><trkpt lat="40.8912567" lon="0.2014017"><ele>602.0</ele><time>2026-03-31T10:11:09.16Z</time></trkpt><trkpt lat="40.8910567" lon="0.2013183"><ele>605.0</ele><time>2026-03-31T10:11:10.16Z</time></trkpt><trkpt lat="40.89085" lon="0.2012467"><ele>608.0</ele><time>2026-03-31T10:11:11.161Z</time></trkpt><trkpt lat="40.8906467" lon="0.20121"><ele>611.0</ele><time>2026-03-31T10:11:12.16Z</time></trkpt><trkpt lat="40.8904483" lon="0.2011667"><ele>611.0</ele><time>2026-03-31T10:11:13.16Z</time></trkpt><trkpt lat="40.8902517" lon="0.2011317"><ele>611.0</ele><time>2026-03-31T10:11:14.161Z</time></trkpt><trkpt lat="40.8900533" lon="0.2011"><ele>611.0</ele><time>2026-03-31T10:11:15.161Z</time></trkpt><trkpt lat="40.8898683" lon="0.2010717"><ele>613.0</ele><time>2026-03-31T10:11:16.16Z</time></trkpt><trkpt lat="40.889685" lon="0.201045"><ele>615.0</ele><time>2026-03-31T10:11:17.16Z</time></trkpt><trkpt lat="40.88951" lon="0.2010317"><ele>617.0</ele><time>2026-03-31T10:11:18.161Z</time></trkpt><trkpt lat="40.8893383" lon="0.2010033"><ele>616.0</ele><time>2026-03-31T10:11:19.161Z</time></trkpt><trkpt lat="40.8891633" lon="0.20098"><ele>615.0</ele><time>2026-03-31T10:11:20.161Z</time></trkpt><trkpt lat="40.8889883" lon="0.2009583"><ele>614.0</ele><time>2026-03-31T10:11:21.161Z</time></trkpt><trkpt lat="40.8888167" lon="0.2009333"><ele>614.0</ele><time>2026-03-31T10:11:22.16Z</time></trkpt><trkpt lat="40.8886417" lon="0.2009167"><ele>614.0</ele><time>2026-03-31T10:11:23.16Z</time></trkpt><trkpt lat="40.8884633" lon="0.2008883"><ele>614.0</ele><time>2026-03-31T10:11:24.16Z</time></trkpt><trkpt lat="40.8882783" lon="0.2008683"><ele>615.0</ele><time>2026-03-31T10:11:25.161Z</time></trkpt><trkpt lat="40.8880917" lon="0.20086"><ele>616.0</ele><time>2026-03-31T10:11:26.16Z</time></trkpt><trkpt lat="40.8879033" lon="0.2008483"><ele>617.0</ele><time>2026-03-31T10:11:27.161Z</time></trkpt><trkpt lat="40.8877267" lon="0.2008367"><ele>618.3333333333333</ele><time>2026-03-31T10:11:28.161Z</time></trkpt><trkpt lat="40.8875417" lon="0.200815"><ele>619.6666666666666</ele><time>2026-03-31T10:11:29.16Z</time></trkpt><trkpt lat="40.8873517" lon="0.20077"><ele>621.0</ele><time>2026-03-31T10:11:30.16Z</time></trkpt><trkpt lat="40.8871617" lon="0.2007083"><ele>621.3333333333334</ele><time>2026-03-31T10:11:31.16Z</time></trkpt><trkpt lat="40.88698" lon="0.20063"><ele>621.6666666666667</ele><time>2026-03-31T10:11:32.16Z</time></trkpt><trkpt lat="40.886805" lon="0.2005283"><ele>622.0</ele><time>2026-03-31T10:11:33.16Z</time></trkpt><trkpt lat="40.8866367" lon="0.200405"><ele>622.0</ele><time>2026-03-31T10:11:34.161Z</time></trkpt><trkpt lat="40.88647" lon="0.2002733"><ele>622.0</ele><time>2026-03-31T10:11:35.16Z</time></trkpt><trkpt lat="40.886305" lon="0.200125"><ele>622.0</ele><time>2026-03-31T10:11:36.16Z</time></trkpt><trkpt lat="40.8861467" lon="0.19996"><ele>621.0</ele><time>2026-03-31T10:11:37.161Z</time></trkpt><trkpt lat="40.8860033" lon="0.1997733"><ele>620.0</ele><time>2026-03-31T10:11:38.16Z</time></trkpt><trkpt lat="40.885875" lon="0.1995767"><ele>619.0</ele><time>2026-03-31T10:11:39.16Z</time></trkpt><trkpt lat="40.885755" lon="0.1993683"><ele>618.6666666666667</ele><time>2026-03-31T10:11:40.161Z</time></trkpt><trkpt lat="40.8856367" lon="0.19914"><ele>618.3333333333334</ele><time>2026-03-31T10:11:41.16Z</time></trkpt><trkpt lat="40.8855283" lon="0.1989"><ele>618.0</ele><time>2026-03-31T10:11:42.161Z</time></trkpt><trkpt lat="40.8854333" lon="0.1986517"><ele>616.3333333333334</ele><time>2026-03-31T10:11:43.16Z</time></trkpt><trkpt lat="40.8853583" lon="0.198375"><ele>614.6666666666667</ele><time>2026-03-31T10:11:44.16Z</time></trkpt><trkpt lat="40.8852917" lon="0.1980933"><ele>613.0</ele><time>2026-03-31T10:11:45.16Z</time></trkpt><trkpt lat="40.8852467" lon="0.1977983"><ele>611.3333333333334</ele><time>2026-03-31T10:11:46.161Z</time></trkpt><trkpt lat="40.8852133" lon="0.1975117"><ele>609.6666666666666</ele><time>2026-03-31T10:11:47.16Z</time></trkpt><trkpt lat="40.8851817" lon="0.1972183"><ele>608.0</ele><time>2026-03-31T10:11:48.16Z</time></trkpt><trkpt lat="40.885135" lon="0.19693"><ele>606.0</ele><time>2026-03-31T10:11:49.16Z</time></trkpt><trkpt lat="40.8850833" lon="0.19665"><ele>604.0</ele><time>2026-03-31T10:11:50.16Z</time></trkpt><trkpt lat="40.885025" lon="0.1963783"><ele>602.0</ele><time>2026-03-31T10:11:51.16Z</time></trkpt><trkpt lat="40.8849483" lon="0.1961267"><ele>601.6666666666666</ele><time>2026-03-31T10:11:52.161Z</time></trkpt><trkpt lat="40.88486" lon="0.19589"><ele>601.3333333333334</ele><time>2026-03-31T10:11:53.161Z</time></trkpt><trkpt lat="40.884755" lon="0.19566"><ele>601.0</ele><time>2026-03-31T10:11:54.161Z</time></trkpt><trkpt lat="40.8846317" lon="0.1954417"><ele>599.6666666666667</ele><time>2026-03-31T10:11:55.161Z</time></trkpt><trkpt lat="40.8845167" lon="0.1952217"><ele>598.3333333333334</ele><time>2026-03-31T10:11:56.16Z</time></trkpt><trkpt lat="40.8844083" lon="0.194995"><ele>597.0</ele><time>2026-03-31T10:11:57.16Z</time></trkpt><trkpt lat="40.88432" lon="0.1947583"><ele>597.3333333333334</ele><time>2026-03-31T10:11:58.161Z</time></trkpt><trkpt lat="40.8842667" lon="0.1944967"><ele>597.6666666666667</ele><time>2026-03-31T10:11:59.16Z</time></trkpt><trkpt lat="40.8842217" lon="0.1942283"><ele>598.0</ele><time>2026-03-31T10:12:00.161Z</time></trkpt><trkpt lat="40.8841833" lon="0.1939567"><ele>598.3333333333334</ele><time>2026-03-31T10:12:01.161Z</time></trkpt><trkpt lat="40.8841467" lon="0.1936733"><ele>598.6666666666666</ele><time>2026-03-31T10:12:02.16Z</time></trkpt><trkpt lat="40.8841117" lon="0.1933883"><ele>599.0</ele><time>2026-03-31T10:12:03.16Z</time></trkpt><trkpt lat="40.8840783" lon="0.1931"><ele>598.0</ele><time>2026-03-31T10:12:04.16Z</time></trkpt><trkpt lat="40.8840367" lon="0.1928133"><ele>597.0</ele><time>2026-03-31T10:12:05.161Z</time></trkpt><trkpt lat="40.883995" lon="0.19252"><ele>596.0</ele><time>2026-03-31T10:12:06.16Z</time></trkpt><trkpt lat="40.8839567" lon="0.19223"><ele>596.0</ele><time>2026-03-31T10:12:07.16Z</time></trkpt><trkpt lat="40.8839133" lon="0.1919283"><ele>596.0</ele><time>2026-03-31T10:12:08.16Z</time></trkpt><trkpt lat="40.8838667" lon="0.1916133"><ele>597.0</ele><time>2026-03-31T10:12:09.16Z</time></trkpt><trkpt lat="40.883815" lon="0.1912933"><ele>598.0</ele><time>2026-03-31T10:12:10.161Z</time></trkpt><trkpt lat="40.883765" lon="0.190975"><ele>597.5</ele><time>2026-03-31T10:12:11.161Z</time></trkpt><trkpt lat="40.88372" lon="0.1906533"><ele>597.0</ele><time>2026-03-31T10:12:12.16Z</time></trkpt><trkpt lat="40.883675" lon="0.19033"><ele>597.0</ele><time>2026-03-31T10:12:13.16Z</time></trkpt><trkpt lat="40.8836383" lon="0.1900083"><ele>597.0</ele><time>2026-03-31T10:12:14.16Z</time></trkpt><trkpt lat="40.883605" lon="0.189685"><ele>596.0</ele><time>2026-03-31T10:12:15.16Z</time></trkpt><trkpt lat="40.8835667" lon="0.1893467"><ele>595.0</ele><time>2026-03-31T10:12:16.161Z</time></trkpt><trkpt lat="40.8835283" lon="0.1890083"><ele>595.0</ele><time>2026-03-31T10:12:17.161Z</time></trkpt><trkpt lat="40.88348" lon="0.1886683"><ele>595.0</ele><time>2026-03-31T10:12:18.161Z</time></trkpt><trkpt lat="40.8834267" lon="0.188335"><ele>593.0</ele><time>2026-03-31T10:12:19.16Z</time></trkpt><trkpt lat="40.8833817" lon="0.1880017"><ele>591.0</ele><time>2026-03-31T10:12:20.16Z</time></trkpt><trkpt lat="40.8833367" lon="0.1876733"><ele>590.0</ele><time>2026-03-31T10:12:21.16Z</time></trkpt><trkpt lat="40.883305" lon="0.1873433"><ele>589.0</ele><time>2026-03-31T10:12:22.16Z</time></trkpt><trkpt lat="40.883265" lon="0.1870183"><ele>589.0</ele><time>2026-03-31T10:12:23.16Z</time></trkpt><trkpt lat="40.8832183" lon="0.1866867"><ele>589.0</ele><time>2026-03-31T10:12:24.161Z</time></trkpt><trkpt lat="40.883175" lon="0.186365"><ele>589.5</ele><time>2026-03-31T10:12:25.161Z</time></trkpt><trkpt lat="40.883125" lon="0.18604"><ele>590.0</ele><time>2026-03-31T10:12:26.16Z</time></trkpt><trkpt lat="40.88308" lon="0.1857233"><ele>588.5</ele><time>2026-03-31T10:12:27.161Z</time></trkpt><trkpt lat="40.8830383" lon="0.1854"><ele>587.0</ele><time>2026-03-31T10:12:28.161Z</time></trkpt><trkpt lat="40.8829933" lon="0.185075"><ele>587.0</ele><time>2026-03-31T10:12:29.16Z</time></trkpt><trkpt lat="40.88295" lon="0.1847567"><ele>587.0</ele><time>2026-03-31T10:12:30.16Z</time></trkpt><trkpt lat="40.8829083" lon="0.184445"><ele>587.0</ele><time>2026-03-31T10:12:31.161Z</time></trkpt><trkpt lat="40.8828633" lon="0.184145"><ele>587.0</ele><time>2026-03-31T10:12:32.16Z</time></trkpt><trkpt lat="40.882815" lon="0.1838517"><ele>586.5</ele><time>2026-03-31T10:12:33.161Z</time></trkpt><trkpt lat="40.882755" lon="0.1835583"><ele>586.0</ele><time>2026-03-31T10:12:34.16Z</time></trkpt><trkpt lat="40.8826717" lon="0.1832817"><ele>586.5</ele><time>2026-03-31T10:12:35.16Z</time></trkpt><trkpt lat="40.8825717" lon="0.1830183"><ele>587.0</ele><time>2026-03-31T10:12:36.161Z</time></trkpt><trkpt lat="40.8824567" lon="0.1827517"><ele>587.0</ele><time>2026-03-31T10:12:37.16Z</time></trkpt><trkpt lat="40.8823267" lon="0.1824967"><ele>587.0</ele><time>2026-03-31T10:12:38.161Z</time></trkpt><trkpt lat="40.8821783" lon="0.1822467"><ele>584.5</ele><time>2026-03-31T10:12:39.161Z</time></trkpt><trkpt lat="40.88203" lon="0.1819883"><ele>582.0</ele><time>2026-03-31T10:12:40.161Z</time></trkpt><trkpt lat="40.88188" lon="0.18172"><ele>583.0</ele><time>2026-03-31T10:12:41.16Z</time></trkpt><trkpt lat="40.8817183" lon="0.1814567"><ele>584.0</ele><time>2026-03-31T10:12:42.16Z</time></trkpt><trkpt lat="40.881565" lon="0.1811917"><ele>584.0</ele><time>2026-03-31T10:12:43.16Z</time></trkpt><trkpt lat="40.8814083" lon="0.1809267"><ele>584.0</ele><time>2026-03-31T10:12:44.161Z</time></trkpt><trkpt lat="40.8812617" lon="0.1806617"><ele>581.5</ele><time>2026-03-31T10:12:45.16Z</time></trkpt><trkpt lat="40.881115" lon="0.1803933"><ele>579.0</ele><time>2026-03-31T10:12:46.16Z</time></trkpt><trkpt lat="40.88097" lon="0.1801217"><ele>578.5</ele><time>2026-03-31T10:12:47.161Z</time></trkpt><trkpt lat="40.8808183" lon="0.1798633"><ele>578.0</ele><time>2026-03-31T10:12:48.16Z</time></trkpt><trkpt lat="40.8806683" lon="0.1796033"><ele>578.0</ele><time>2026-03-31T10:12:49.16Z</time></trkpt><trkpt lat="40.8805233" lon="0.1793383"><ele>578.0</ele><time>2026-03-31T10:12:50.161Z</time></trkpt><trkpt lat="40.880375" lon="0.1790717"><ele>575.5</ele><time>2026-03-31T10:12:51.161Z</time></trkpt><trkpt lat="40.880235" lon="0.178815"><ele>573.0</ele><time>2026-03-31T10:12:52.16Z</time></trkpt><trkpt lat="40.8801017" lon="0.1785767"><ele>573.6666666666666</ele><time>2026-03-31T10:12:53.161Z</time></trkpt><trkpt lat="40.879955" lon="0.1783633"><ele>574.3333333333333</ele><time>2026-03-31T10:12:54.16Z</time></trkpt><trkpt lat="40.8797883" lon="0.1781517"><ele>575.0</ele><time>2026-03-31T10:12:55.16Z</time></trkpt><trkpt lat="40.87961" lon="0.177965"><ele>574.0</ele><time>2026-03-31T10:12:56.161Z</time></trkpt><trkpt lat="40.8794117" lon="0.1778"><ele>573.0</ele><time>2026-03-31T10:12:57.16Z</time></trkpt><trkpt lat="40.8792" lon="0.1776683"><ele>573.0</ele><time>2026-03-31T10:12:58.16Z</time></trkpt><trkpt lat="40.8789833" lon="0.17755"><ele>573.0</ele><time>2026-03-31T10:12:59.16Z</time></trkpt><trkpt lat="40.8787517" lon="0.1774383"><ele>573.0</ele><time>2026-03-31T10:13:00.16Z</time></trkpt><trkpt lat="40.8785167" lon="0.1773433"><ele>573.0</ele><time>2026-03-31T10:13:01.161Z</time></trkpt><trkpt lat="40.8782833" lon="0.1772383"><ele>573.0</ele><time>2026-03-31T10:13:02.161Z</time></trkpt><trkpt lat="40.8780483" lon="0.177125"><ele>573.0</ele><time>2026-03-31T10:13:03.16Z</time></trkpt><trkpt lat="40.877825" lon="0.1770033"><ele>573.0</ele><time>2026-03-31T10:13:04.161Z</time></trkpt><trkpt lat="40.8776033" lon="0.1768567"><ele>573.0</ele><time>2026-03-31T10:13:05.161Z</time></trkpt><trkpt lat="40.8774" lon="0.176675"><ele>570.5</ele><time>2026-03-31T10:13:06.16Z</time></trkpt><trkpt lat="40.877225" lon="0.1764717"><ele>568.0</ele><time>2026-03-31T10:13:07.16Z</time></trkpt><trkpt lat="40.8770617" lon="0.1762583"><ele>568.0</ele><time>2026-03-31T10:13:08.161Z</time></trkpt><trkpt lat="40.8769067" lon="0.1760167"><ele>568.0</ele><time>2026-03-31T10:13:09.161Z</time></trkpt><trkpt lat="40.87677" lon="0.17577"><ele>563.5</ele><time>2026-03-31T10:13:10.16Z</time></trkpt><trkpt lat="40.8766483" lon="0.175515"><ele>559.0</ele><time>2026-03-31T10:13:11.16Z</time></trkpt><trkpt lat="40.87655" lon="0.1752383"><ele>559.0</ele><time>2026-03-31T10:13:12.161Z</time></trkpt><trkpt lat="40.87647" lon="0.17495"><ele>559.0</ele><time>2026-03-31T10:13:13.16Z</time></trkpt><trkpt lat="40.8764033" lon="0.1746517"><ele>560.0</ele><time>2026-03-31T10:13:14.161Z</time></trkpt><trkpt lat="40.8763283" lon="0.1743533"><ele>561.0</ele><time>2026-03-31T10:13:15.16Z</time></trkpt><trkpt lat="40.8762667" lon="0.1740683"><ele>560.6666666666666</ele><time>2026-03-31T10:13:16.16Z</time></trkpt><trkpt lat="40.8762017" lon="0.173795"><ele>560.3333333333333</ele><time>2026-03-31T10:13:17.161Z</time></trkpt><trkpt lat="40.8761483" lon="0.1735283"><ele>560.0</ele><time>2026-03-31T10:13:18.16Z</time></trkpt><trkpt lat="40.87609" lon="0.1732467"><ele>558.0</ele><time>2026-03-31T10:13:19.161Z</time></trkpt><trkpt lat="40.8760667" lon="0.1729683"><ele>556.0</ele><time>2026-03-31T10:13:20.161Z</time></trkpt><trkpt lat="40.876085" lon="0.1726917"><ele>554.0</ele><time>2026-03-31T10:13:21.161Z</time></trkpt><trkpt lat="40.876135" lon="0.1724067"><ele>552.6666666666666</ele><time>2026-03-31T10:13:22.16Z</time></trkpt><trkpt lat="40.8761767" lon="0.17214"><ele>551.3333333333334</ele><time>2026-03-31T10:13:23.16Z</time></trkpt><trkpt lat="40.876215" lon="0.1718667"><ele>550.0</ele><time>2026-03-31T10:13:24.161Z</time></trkpt><trkpt lat="40.87624" lon="0.171595"><ele>549.6666666666667</ele><time>2026-03-31T10:13:25.161Z</time></trkpt><trkpt lat="40.8762317" lon="0.1713133"><ele>549.3333333333334</ele><time>2026-03-31T10:13:26.16Z</time></trkpt><trkpt lat="40.8761967" lon="0.171035"><ele>549.0</ele><time>2026-03-31T10:13:27.16Z</time></trkpt><trkpt lat="40.8761417" lon="0.170765"><ele>548.0</ele><time>2026-03-31T10:13:28.161Z</time></trkpt><trkpt lat="40.8760667" lon="0.1704933"><ele>547.0</ele><time>2026-03-31T10:13:29.16Z</time></trkpt><trkpt lat="40.8759883" lon="0.1702217"><ele>546.0</ele><time>2026-03-31T10:13:30.16Z</time></trkpt><trkpt lat="40.8759183" lon="0.16994"><ele>541.5</ele><time>2026-03-31T10:13:31.16Z</time></trkpt><trkpt lat="40.8758567" lon="0.1696567"><ele>537.0</ele><time>2026-03-31T10:13:32.161Z</time></trkpt><trkpt lat="40.8757883" lon="0.1693633"><ele>537.0</ele><time>2026-03-31T10:13:33.16Z</time></trkpt><trkpt lat="40.8757333" lon="0.1690717"><ele>537.0</ele><time>2026-03-31T10:13:34.16Z</time></trkpt><trkpt lat="40.8757017" lon="0.1687783"><ele>537.6666666666666</ele><time>2026-03-31T10:13:35.161Z</time></trkpt><trkpt lat="40.8757" lon="0.16849"><ele>538.3333333333333</ele><time>2026-03-31T10:13:36.161Z</time></trkpt><trkpt lat="40.8757083" lon="0.1682"><ele>539.0</ele><time>2026-03-31T10:13:37.161Z</time></trkpt><trkpt lat="40.875735" lon="0.1679083"><ele>540.6666666666666</ele><time>2026-03-31T10:13:38.161Z</time></trkpt><trkpt lat="40.875775" lon="0.167625"><ele>542.3333333333334</ele><time>2026-03-31T10:13:39.161Z</time></trkpt><trkpt lat="40.8758167" lon="0.1673333"><ele>544.0</ele><time>2026-03-31T10:13:40.16Z</time></trkpt><trkpt lat="40.875845" lon="0.1670433"><ele>544.0</ele><time>2026-03-31T10:13:41.161Z</time></trkpt><trkpt lat="40.8758667" lon="0.1667617"><ele>544.0</ele><time>2026-03-31T10:13:42.16Z</time></trkpt><trkpt lat="40.87587" lon="0.1664683"><ele>544.0</ele><time>2026-03-31T10:13:43.16Z</time></trkpt><trkpt lat="40.8758583" lon="0.166175"><ele>543.3333333333334</ele><time>2026-03-31T10:13:44.16Z</time></trkpt><trkpt lat="40.87582" lon="0.165895"><ele>542.6666666666666</ele><time>2026-03-31T10:13:45.16Z</time></trkpt><trkpt lat="40.8757467" lon="0.1656233"><ele>542.0</ele><time>2026-03-31T10:13:46.161Z</time></trkpt><trkpt lat="40.8756617" lon="0.1653517"><ele>541.6666666666666</ele><time>2026-03-31T10:13:47.161Z</time></trkpt><trkpt lat="40.8755517" lon="0.165095"><ele>541.3333333333334</ele><time>2026-03-31T10:13:48.161Z</time></trkpt><trkpt lat="40.8754233" lon="0.1648617"><ele>541.0</ele><time>2026-03-31T10:13:49.16Z</time></trkpt><trkpt lat="40.8752733" lon="0.16464"><ele>541.0</ele><time>2026-03-31T10:13:50.161Z</time></trkpt><trkpt lat="40.8751083" lon="0.1644367"><ele>541.0</ele><time>2026-03-31T10:13:51.16Z</time></trkpt><trkpt lat="40.8749283" lon="0.164265"><ele>541.0</ele><time>2026-03-31T10:13:52.16Z</time></trkpt><trkpt lat="40.87473" lon="0.1641167"><ele>536.0</ele><time>2026-03-31T10:13:53.16Z</time></trkpt><trkpt lat="40.8745267" lon="0.1639867"><ele>531.0</ele><time>2026-03-31T10:13:54.16Z</time></trkpt><trkpt lat="40.874305" lon="0.163875"><ele>529.5</ele><time>2026-03-31T10:13:55.16Z</time></trkpt><trkpt lat="40.8740883" lon="0.163775"><ele>528.0</ele><time>2026-03-31T10:13:56.161Z</time></trkpt><trkpt lat="40.873865" lon="0.1636967"><ele>528.0</ele><time>2026-03-31T10:13:57.16Z</time></trkpt><trkpt lat="40.87365" lon="0.163635"><ele>528.0</ele><time>2026-03-31T10:13:58.16Z</time></trkpt><trkpt lat="40.87343" lon="0.1635567"><ele>528.0</ele><time>2026-03-31T10:13:59.16Z</time></trkpt><trkpt lat="40.8732217" lon="0.1634533"><ele>527.6666666666666</ele><time>2026-03-31T10:14:00.161Z</time></trkpt><trkpt lat="40.8730333" lon="0.1633183"><ele>527.3333333333333</ele><time>2026-03-31T10:14:01.16Z</time></trkpt><trkpt lat="40.87287" lon="0.16316"><ele>527.0</ele><time>2026-03-31T10:14:02.16Z</time></trkpt><trkpt lat="40.8727217" lon="0.163"><ele>524.6666666666666</ele><time>2026-03-31T10:14:03.16Z</time></trkpt><trkpt lat="40.872585" lon="0.16284"><ele>522.3333333333334</ele><time>2026-03-31T10:14:04.161Z</time></trkpt><trkpt lat="40.87246" lon="0.1626967"><ele>520.0</ele><time>2026-03-31T10:14:05.16Z</time></trkpt><trkpt lat="40.87235" lon="0.162555"><ele>520.0</ele><time>2026-03-31T10:14:06.16Z</time></trkpt><trkpt lat="40.87225" lon="0.16243"><ele>520.0</ele><time>2026-03-31T10:14:07.16Z</time></trkpt><trkpt lat="40.8721617" lon="0.162315"><ele>520.0</ele><time>2026-03-31T10:14:08.16Z</time></trkpt><trkpt lat="40.8720783" lon="0.1622217"><ele>520.0</ele><time>2026-03-31T10:14:09.161Z</time></trkpt><trkpt lat="40.8720167" lon="0.1621367"><ele>520.3333333333334</ele><time>2026-03-31T10:14:10.16Z</time></trkpt><trkpt lat="40.871965" lon="0.1620517"><ele>520.6666666666667</ele><time>2026-03-31T10:14:11.161Z</time></trkpt><trkpt lat="40.871915" lon="0.161955"><ele>521.0</ele><time>2026-03-31T10:14:12.161Z</time></trkpt><trkpt lat="40.8718817" lon="0.161855"><ele>521.3333333333334</ele><time>2026-03-31T10:14:13.161Z</time></trkpt><trkpt lat="40.8718733" lon="0.1617517"><ele>521.6666666666666</ele><time>2026-03-31T10:14:14.161Z</time></trkpt><trkpt lat="40.8718733" lon="0.1616367"><ele>522.0</ele><time>2026-03-31T10:14:15.161Z</time></trkpt><trkpt lat="40.8718517" lon="0.16151"><ele>522.2</ele><time>2026-03-31T10:14:16.161Z</time></trkpt><trkpt lat="40.8718" lon="0.1613967"><ele>522.4000000000001</ele><time>2026-03-31T10:14:17.16Z</time></trkpt><trkpt lat="40.8717517" lon="0.1612717"><ele>522.5999999999999</ele><time>2026-03-31T10:14:18.161Z</time></trkpt><trkpt lat="40.8717233" lon="0.16112"><ele>522.8</ele><time>2026-03-31T10:14:19.161Z</time></trkpt><trkpt lat="40.87172" lon="0.1609633"><ele>523.0</ele><time>2026-03-31T10:14:20.16Z</time></trkpt><trkpt lat="40.8717283" lon="0.1607867"><ele>520.75</ele><time>2026-03-31T10:14:21.161Z</time></trkpt><trkpt lat="40.8717417" lon="0.1606067"><ele>518.5</ele><time>2026-03-31T10:14:22.16Z</time></trkpt><trkpt lat="40.871755" lon="0.1604317"><ele>516.25</ele><time>2026-03-31T10:14:23.161Z</time></trkpt><trkpt lat="40.8717767" lon="0.1602583"><ele>514.0</ele><time>2026-03-31T10:14:24.16Z</time></trkpt><trkpt lat="40.8718117" lon="0.1600967"><ele>514.0</ele><time>2026-03-31T10:14:25.16Z</time></trkpt><trkpt lat="40.8718717" lon="0.1599383"><ele>514.0</ele><time>2026-03-31T10:14:26.161Z</time></trkpt><trkpt lat="40.8719417" lon="0.1598"><ele>514.0</ele><time>2026-03-31T10:14:27.161Z</time></trkpt><trkpt lat="40.872025" lon="0.1596783"><ele>514.0</ele><time>2026-03-31T10:14:28.16Z</time></trkpt><trkpt lat="40.8721167" lon="0.15957"><ele>509.75</ele><time>2026-03-31T10:14:29.161Z</time></trkpt><trkpt lat="40.872215" lon="0.15947"><ele>505.5</ele><time>2026-03-31T10:14:30.16Z</time></trkpt><trkpt lat="40.8723183" lon="0.1593767"><ele>501.25</ele><time>2026-03-31T10:14:31.16Z</time></trkpt><trkpt lat="40.872425" lon="0.159275"><ele>497.0</ele><time>2026-03-31T10:14:32.16Z</time></trkpt><trkpt lat="40.8725367" lon="0.15918"><ele>496.0</ele><time>2026-03-31T10:14:33.16Z</time></trkpt><trkpt lat="40.8726533" lon="0.1590833"><ele>495.0</ele><time>2026-03-31T10:14:34.161Z</time></trkpt><trkpt lat="40.8727667" lon="0.1589917"><ele>494.0</ele><time>2026-03-31T10:14:35.161Z</time></trkpt><trkpt lat="40.872875" lon="0.1588833"><ele>493.0</ele><time>2026-03-31T10:14:36.16Z</time></trkpt><trkpt lat="40.8729733" lon="0.1587633"><ele>493.0</ele><time>2026-03-31T10:14:37.161Z</time></trkpt><trkpt lat="40.8730633" lon="0.1586283"><ele>493.0</ele><time>2026-03-31T10:14:38.161Z</time></trkpt><trkpt lat="40.8731467" lon="0.15849"><ele>493.0</ele><time>2026-03-31T10:14:39.16Z</time></trkpt><trkpt lat="40.873235" lon="0.1583533"><ele>493.0</ele><time>2026-03-31T10:14:40.16Z</time></trkpt><trkpt lat="40.8733117" lon="0.1582167"><ele>493.0</ele><time>2026-03-31T10:14:41.161Z</time></trkpt><trkpt lat="40.8733883" lon="0.1580967"><ele>493.0</ele><time>2026-03-31T10:14:42.16Z</time></trkpt><trkpt lat="40.8734633" lon="0.157975"><ele>493.0</ele><time>2026-03-31T10:14:43.16Z</time></trkpt><trkpt lat="40.8735433" lon="0.157855"><ele>493.0</ele><time>2026-03-31T10:14:44.16Z</time></trkpt><trkpt lat="40.87362" lon="0.1577283"><ele>493.00000000000006</ele><time>2026-03-31T10:14:45.161Z</time></trkpt><trkpt lat="40.8736933" lon="0.157615"><ele>493.0</ele><time>2026-03-31T10:14:46.16Z</time></trkpt><trkpt lat="40.8737583" lon="0.157505"><ele>493.0</ele><time>2026-03-31T10:14:47.16Z</time></trkpt><trkpt lat="40.873815" lon="0.1574133"><ele>493.0</ele><time>2026-03-31T10:14:48.161Z</time></trkpt><trkpt lat="40.8738517" lon="0.157335"><ele>493.00000000000006</ele><time>2026-03-31T10:14:49.16Z</time></trkpt><trkpt lat="40.8738733" lon="0.1572517"><ele>493.0</ele><time>2026-03-31T10:14:50.16Z</time></trkpt><trkpt lat="40.87384" lon="0.1571217"><ele>492.4</ele><time>2026-03-31T10:14:52.16Z</time></trkpt><trkpt lat="40.873735" lon="0.15702"><ele>491.79999999999995</ele><time>2026-03-31T10:14:54.16Z</time></trkpt><trkpt lat="40.8736683" lon="0.15695"><ele>491.2</ele><time>2026-03-31T10:14:55.161Z</time></trkpt><trkpt lat="40.8735933" lon="0.1568617"><ele>490.6</ele><time>2026-03-31T10:14:56.161Z</time></trkpt><trkpt lat="40.873515" lon="0.1567783"><ele>490.0</ele><time>2026-03-31T10:14:57.16Z</time></trkpt><trkpt lat="40.87344" lon="0.15669"><ele>489.8</ele><time>2026-03-31T10:14:58.161Z</time></trkpt><trkpt lat="40.87336" lon="0.1565883"><ele>489.6</ele><time>2026-03-31T10:14:59.16Z</time></trkpt><trkpt lat="40.8732733" lon="0.1564933"><ele>489.4</ele><time>2026-03-31T10:15:00.161Z</time></trkpt><trkpt lat="40.873195" lon="0.1563883"><ele>489.2</ele><time>2026-03-31T10:15:01.16Z</time></trkpt><trkpt lat="40.8731267" lon="0.1562833"><ele>489.0</ele><time>2026-03-31T10:15:02.16Z</time></trkpt><trkpt lat="40.873065" lon="0.15618"><ele>489.0</ele><time>2026-03-31T10:15:03.16Z</time></trkpt><trkpt lat="40.8729933" lon="0.156085"><ele>489.0</ele><time>2026-03-31T10:15:04.16Z</time></trkpt><trkpt lat="40.8729233" lon="0.156005"><ele>489.0</ele><time>2026-03-31T10:15:05.16Z</time></trkpt><trkpt lat="40.872855" lon="0.1559117"><ele>489.0</ele><time>2026-03-31T10:15:06.161Z</time></trkpt><trkpt lat="40.872795" lon="0.155825"><ele>489.0</ele><time>2026-03-31T10:15:07.16Z</time></trkpt><trkpt lat="40.8727283" lon="0.15575"><ele>489.0</ele><time>2026-03-31T10:15:08.161Z</time></trkpt><trkpt lat="40.87267" lon="0.15567"><ele>489.0</ele><time>2026-03-31T10:15:09.161Z</time></trkpt><trkpt lat="40.8726083" lon="0.155585"><ele>489.0</ele><time>2026-03-31T10:15:10.16Z</time></trkpt><trkpt lat="40.8725467" lon="0.1555133"><ele>489.0</ele><time>2026-03-31T10:15:11.16Z</time></trkpt><trkpt lat="40.8724933" lon="0.1554233"><ele>489.0</ele><time>2026-03-31T10:15:12.16Z</time></trkpt><trkpt lat="40.8724383" lon="0.15533"><ele>489.0</ele><time>2026-03-31T10:15:13.16Z</time></trkpt><trkpt lat="40.8723917" lon="0.155225"><ele>490.6</ele><time>2026-03-31T10:15:14.161Z</time></trkpt><trkpt lat="40.8723533" lon="0.155115"><ele>492.2</ele><time>2026-03-31T10:15:15.161Z</time></trkpt><trkpt lat="40.8723333" lon="0.1550117"><ele>493.80000000000007</ele><time>2026-03-31T10:15:16.16Z</time></trkpt><trkpt lat="40.8723367" lon="0.1548833"><ele>495.40000000000003</ele><time>2026-03-31T10:15:17.161Z</time></trkpt><trkpt lat="40.87236" lon="0.1547567"><ele>497.0</ele><time>2026-03-31T10:15:18.161Z</time></trkpt><trkpt lat="40.8723917" lon="0.1546517"><ele>497.1428571428571</ele><time>2026-03-31T10:15:19.161Z</time></trkpt><trkpt lat="40.8724183" lon="0.1545733"><ele>497.2857142857143</ele><time>2026-03-31T10:15:20.161Z</time></trkpt><trkpt lat="40.8724517" lon="0.1544967"><ele>497.42857142857144</ele><time>2026-03-31T10:15:22.161Z</time></trkpt><trkpt lat="40.8724983" lon="0.154415"><ele>497.57142857142856</ele><time>2026-03-31T10:15:25.16Z</time></trkpt><trkpt lat="40.8725333" lon="0.1543217"><ele>497.71428571428567</ele><time>2026-03-31T10:15:27.16Z</time></trkpt><trkpt lat="40.87258" lon="0.1542117"><ele>497.85714285714283</ele><time>2026-03-31T10:15:29.161Z</time></trkpt><trkpt lat="40.8726" lon="0.15413"><ele>498.0</ele><time>2026-03-31T10:15:32.161Z</time></trkpt><trkpt lat="40.87264" lon="0.1540233"><ele>497.0</ele><time>2026-03-31T10:15:36.161Z</time></trkpt><trkpt lat="40.8726733" lon="0.1539267"><ele>496.0</ele><time>2026-03-31T10:15:39.16Z</time></trkpt><trkpt lat="40.8727117" lon="0.1538033"><ele>495.0</ele><time>2026-03-31T10:15:42.16Z</time></trkpt><trkpt lat="40.8727367" lon="0.1537033"><ele>494.0</ele><time>2026-03-31T10:15:44.161Z</time></trkpt><trkpt lat="40.8727617" lon="0.1535917"><ele>493.0</ele><time>2026-03-31T10:15:46.161Z</time></trkpt><trkpt lat="40.87278" lon="0.1534767"><ele>492.0</ele><time>2026-03-31T10:15:48.16Z</time></trkpt><trkpt lat="40.872775" lon="0.1533417"><ele>491.3333333333333</ele><time>2026-03-31T10:15:50.161Z</time></trkpt><trkpt lat="40.872765" lon="0.1531817"><ele>490.66666666666663</ele><time>2026-03-31T10:15:52.161Z</time></trkpt><trkpt lat="40.872765" lon="0.1530967"><ele>490.0</ele><time>2026-03-31T10:15:53.16Z</time></trkpt><trkpt lat="40.8727633" lon="0.1530033"><ele>489.3333333333333</ele><time>2026-03-31T10:15:54.16Z</time></trkpt><trkpt lat="40.8727567" lon="0.1528967"><ele>488.66666666666663</ele><time>2026-03-31T10:15:55.16Z</time></trkpt><trkpt lat="40.8727533" lon="0.15279"><ele>488.0</ele><time>2026-03-31T10:15:56.16Z</time></trkpt><trkpt lat="40.8727533" lon="0.1526917"><ele>487.99999999999994</ele><time>2026-03-31T10:15:57.161Z</time></trkpt><trkpt lat="40.8727383" lon="0.1525883"><ele>488.0</ele><time>2026-03-31T10:15:58.16Z</time></trkpt><trkpt lat="40.8727333" lon="0.152485"><ele>488.0</ele><time>2026-03-31T10:15:59.161Z</time></trkpt><trkpt lat="40.8727117" lon="0.1523667"><ele>488.0</ele><time>2026-03-31T10:16:00.161Z</time></trkpt><trkpt lat="40.8726917" lon="0.1522467"><ele>487.99999999999994</ele><time>2026-03-31T10:16:01.16Z</time></trkpt><trkpt lat="40.87268" lon="0.152145"><ele>488.0</ele><time>2026-03-31T10:16:02.161Z</time></trkpt><trkpt lat="40.8726683" lon="0.1520517"><ele>487.42857142857133</ele><time>2026-03-31T10:16:03.161Z</time></trkpt><trkpt lat="40.8726633" lon="0.15195"><ele>486.85714285714283</ele><time>2026-03-31T10:16:04.16Z</time></trkpt><trkpt lat="40.8726567" lon="0.15186"><ele>486.2857142857142</ele><time>2026-03-31T10:16:05.16Z</time></trkpt><trkpt lat="40.8726517" lon="0.15177"><ele>485.71428571428567</ele><time>2026-03-31T10:16:06.16Z</time></trkpt><trkpt lat="40.8726533" lon="0.151675"><ele>485.1428571428571</ele><time>2026-03-31T10:16:07.16Z</time></trkpt><trkpt lat="40.8726433" lon="0.1515717"><ele>484.57142857142856</ele><time>2026-03-31T10:16:08.16Z</time></trkpt><trkpt lat="40.8726333" lon="0.151465"><ele>484.0</ele><time>2026-03-31T10:16:09.16Z</time></trkpt><trkpt lat="40.8726267" lon="0.15135"><ele>483.0</ele><time>2026-03-31T10:16:10.161Z</time></trkpt><trkpt lat="40.8726183" lon="0.1512233"><ele>482.0</ele><time>2026-03-31T10:16:11.161Z</time></trkpt><trkpt lat="40.8726133" lon="0.1510883"><ele>481.0</ele><time>2026-03-31T10:16:12.16Z</time></trkpt><trkpt lat="40.8726117" lon="0.150955"><ele>480.0</ele><time>2026-03-31T10:16:13.161Z</time></trkpt><trkpt lat="40.8726117" lon="0.1508167"><ele>479.0</ele><time>2026-03-31T10:16:14.161Z</time></trkpt><trkpt lat="40.872595" lon="0.1506817"><ele>481.4</ele><time>2026-03-31T10:16:15.16Z</time></trkpt><trkpt lat="40.872585" lon="0.1505383"><ele>483.79999999999995</ele><time>2026-03-31T10:16:16.16Z</time></trkpt><trkpt lat="40.87257" lon="0.1503933"><ele>486.20000000000005</ele><time>2026-03-31T10:16:17.16Z</time></trkpt><trkpt lat="40.8725567" lon="0.1502583"><ele>488.6</ele><time>2026-03-31T10:16:18.16Z</time></trkpt><trkpt lat="40.872545" lon="0.1501217"><ele>491.0</ele><time>2026-03-31T10:16:19.16Z</time></trkpt><trkpt lat="40.87253" lon="0.1499833"><ele>490.8</ele><time>2026-03-31T10:16:20.16Z</time></trkpt><trkpt lat="40.872525" lon="0.1498467"><ele>490.6</ele><time>2026-03-31T10:16:21.16Z</time></trkpt><trkpt lat="40.87252" lon="0.14972"><ele>490.4</ele><time>2026-03-31T10:16:22.161Z</time></trkpt><trkpt lat="40.87251" lon="0.1496"><ele>490.2</ele><time>2026-03-31T10:16:23.16Z</time></trkpt><trkpt lat="40.8725067" lon="0.1494867"><ele>490.0</ele><time>2026-03-31T10:16:24.161Z</time></trkpt><trkpt lat="40.872495" lon="0.1493883"><ele>490.0</ele><time>2026-03-31T10:16:25.161Z</time></trkpt><trkpt lat="40.8724817" lon="0.1493067"><ele>490.0</ele><time>2026-03-31T10:16:26.161Z</time></trkpt><trkpt lat="40.872475" lon="0.1491367"><ele>490.0</ele><time>2026-03-31T10:16:28.16Z</time></trkpt><trkpt lat="40.872485" lon="0.1490367"><ele>490.0</ele><time>2026-03-31T10:16:29.16Z</time></trkpt><trkpt lat="40.8724883" lon="0.1489383"><ele>490.0</ele><time>2026-03-31T10:16:30.16Z</time></trkpt><trkpt lat="40.872485" lon="0.148775"><ele>490.33333333333337</ele><time>2026-03-31T10:16:32.161Z</time></trkpt><trkpt lat="40.8724767" lon="0.1486833"><ele>490.6666666666667</ele><time>2026-03-31T10:16:33.16Z</time></trkpt><trkpt lat="40.8724617" lon="0.1485733"><ele>491.0</ele><time>2026-03-31T10:16:34.16Z</time></trkpt><trkpt lat="40.872455" lon="0.1484583"><ele>491.33333333333337</ele><time>2026-03-31T10:16:35.161Z</time></trkpt><trkpt lat="40.8724617" lon="0.1483417"><ele>491.6666666666667</ele><time>2026-03-31T10:16:36.16Z</time></trkpt><trkpt lat="40.8724517" lon="0.14822"><ele>492.0</ele><time>2026-03-31T10:16:37.161Z</time></trkpt><trkpt lat="40.8724367" lon="0.1481"><ele>492.20000000000005</ele><time>2026-03-31T10:16:38.16Z</time></trkpt><trkpt lat="40.872425" lon="0.1479683"><ele>492.40000000000003</ele><time>2026-03-31T10:16:39.16Z</time></trkpt><trkpt lat="40.87241" lon="0.14782"><ele>492.59999999999997</ele><time>2026-03-31T10:16:40.16Z</time></trkpt><trkpt lat="40.8724017" lon="0.1476667"><ele>492.79999999999995</ele><time>2026-03-31T10:16:41.161Z</time></trkpt><trkpt lat="40.8723967" lon="0.1475083"><ele>493.0</ele><time>2026-03-31T10:16:42.16Z</time></trkpt><trkpt lat="40.8723817" lon="0.1473433"><ele>492.25</ele><time>2026-03-31T10:16:43.161Z</time></trkpt><trkpt lat="40.8723733" lon="0.1471783"><ele>491.5</ele><time>2026-03-31T10:16:44.161Z</time></trkpt><trkpt lat="40.8723633" lon="0.147015"><ele>490.75</ele><time>2026-03-31T10:16:45.16Z</time></trkpt><trkpt lat="40.87235" lon="0.146855"><ele>490.0</ele><time>2026-03-31T10:16:46.16Z</time></trkpt><trkpt lat="40.87234" lon="0.1466967"><ele>489.75</ele><time>2026-03-31T10:16:47.161Z</time></trkpt><trkpt lat="40.8723217" lon="0.1465383"><ele>489.5</ele><time>2026-03-31T10:16:48.161Z</time></trkpt><trkpt lat="40.87231" lon="0.1463917"><ele>489.25</ele><time>2026-03-31T10:16:49.161Z</time></trkpt><trkpt lat="40.8723033" lon="0.1462517"><ele>489.0</ele><time>2026-03-31T10:16:50.161Z</time></trkpt><trkpt lat="40.8723017" lon="0.146105"><ele>489.0</ele><time>2026-03-31T10:16:51.161Z</time></trkpt><trkpt lat="40.8723017" lon="0.1459683"><ele>489.0</ele><time>2026-03-31T10:16:52.161Z</time></trkpt><trkpt lat="40.872315" lon="0.1458333"><ele>489.0</ele><time>2026-03-31T10:16:53.16Z</time></trkpt><trkpt lat="40.87233" lon="0.1456933"><ele>489.0</ele><time>2026-03-31T10:16:54.161Z</time></trkpt><trkpt lat="40.8723417" lon="0.1455467"><ele>489.0</ele><time>2026-03-31T10:16:55.161Z</time></trkpt><trkpt lat="40.8723583" lon="0.1454133"><ele>489.6</ele><time>2026-03-31T10:16:56.16Z</time></trkpt><trkpt lat="40.8723783" lon="0.1452917"><ele>490.2</ele><time>2026-03-31T10:16:57.16Z</time></trkpt><trkpt lat="40.8723933" lon="0.1451883"><ele>490.80000000000007</ele><time>2026-03-31T10:16:58.161Z</time></trkpt><trkpt lat="40.8724317" lon="0.1450317"><ele>491.40000000000003</ele><time>2026-03-31T10:17:00.16Z</time></trkpt><trkpt lat="40.8724567" lon="0.144935"><ele>492.0</ele><time>2026-03-31T10:17:01.161Z</time></trkpt><trkpt lat="40.8724817" lon="0.1448117"><ele>493.25</ele><time>2026-03-31T10:17:02.161Z</time></trkpt><trkpt lat="40.8725117" lon="0.1446717"><ele>494.5</ele><time>2026-03-31T10:17:03.16Z</time></trkpt><trkpt lat="40.8725367" lon="0.14451"><ele>495.75</ele><time>2026-03-31T10:17:04.161Z</time></trkpt><trkpt lat="40.872565" lon="0.1443333"><ele>497.0</ele><time>2026-03-31T10:17:05.16Z</time></trkpt><trkpt lat="40.8726117" lon="0.1441367"><ele>491.3333333333333</ele><time>2026-03-31T10:17:06.161Z</time></trkpt><trkpt lat="40.8726633" lon="0.1439367"><ele>485.66666666666663</ele><time>2026-03-31T10:17:07.16Z</time></trkpt><trkpt lat="40.8727117" lon="0.14373"><ele>480.0</ele><time>2026-03-31T10:17:08.161Z</time></trkpt><trkpt lat="40.87276" lon="0.1435083"><ele>480.0</ele><time>2026-03-31T10:17:09.161Z</time></trkpt><trkpt lat="40.872815" lon="0.1432833"><ele>480.0</ele><time>2026-03-31T10:17:10.16Z</time></trkpt><trkpt lat="40.8728767" lon="0.1430567"><ele>480.0</ele><time>2026-03-31T10:17:11.16Z</time></trkpt><trkpt lat="40.87294" lon="0.14283"><ele>482.33333333333337</ele><time>2026-03-31T10:17:12.16Z</time></trkpt><trkpt lat="40.8730067" lon="0.1426017"><ele>484.6666666666667</ele><time>2026-03-31T10:17:13.16Z</time></trkpt><trkpt lat="40.8730717" lon="0.1423633"><ele>487.0</ele><time>2026-03-31T10:17:14.16Z</time></trkpt><trkpt lat="40.8731283" lon="0.1421283"><ele>489.0</ele><time>2026-03-31T10:17:15.16Z</time></trkpt><trkpt lat="40.8731783" lon="0.1418933"><ele>491.0</ele><time>2026-03-31T10:17:16.16Z</time></trkpt><trkpt lat="40.8732217" lon="0.1416417"><ele>493.0</ele><time>2026-03-31T10:17:17.161Z</time></trkpt><trkpt lat="40.8732667" lon="0.14139"><ele>494.6666666666667</ele><time>2026-03-31T10:17:18.16Z</time></trkpt><trkpt lat="40.87331" lon="0.141125"><ele>496.33333333333337</ele><time>2026-03-31T10:17:19.161Z</time></trkpt><trkpt lat="40.8733567" lon="0.1408567"><ele>498.0</ele><time>2026-03-31T10:17:20.161Z</time></trkpt><trkpt lat="40.8733933" lon="0.1405983"><ele>493.0</ele><time>2026-03-31T10:17:21.16Z</time></trkpt><trkpt lat="40.873445" lon="0.14033"><ele>488.0</ele><time>2026-03-31T10:17:22.16Z</time></trkpt><trkpt lat="40.8734917" lon="0.1400617"><ele>483.0</ele><time>2026-03-31T10:17:23.161Z</time></trkpt><trkpt lat="40.8735383" lon="0.1397983"><ele>483.0</ele><time>2026-03-31T10:17:24.16Z</time></trkpt><trkpt lat="40.8735883" lon="0.139535"><ele>483.0</ele><time>2026-03-31T10:17:25.16Z</time></trkpt><trkpt lat="40.873645" lon="0.1392633"><ele>483.0</ele><time>2026-03-31T10:17:26.161Z</time></trkpt><trkpt lat="40.8737083" lon="0.1389933"><ele>486.0</ele><time>2026-03-31T10:17:27.16Z</time></trkpt><trkpt lat="40.8737867" lon="0.1387233"><ele>489.0</ele><time>2026-03-31T10:17:28.16Z</time></trkpt><trkpt lat="40.8739067" lon="0.13848"><ele>492.0</ele><time>2026-03-31T10:17:29.161Z</time></trkpt><trkpt lat="40.8740417" lon="0.1382567"><ele>489.0</ele><time>2026-03-31T10:17:30.16Z</time></trkpt><trkpt lat="40.8742" lon="0.1380517"><ele>486.0</ele><time>2026-03-31T10:17:31.161Z</time></trkpt><trkpt lat="40.8743617" lon="0.137845"><ele>483.0</ele><time>2026-03-31T10:17:32.161Z</time></trkpt><trkpt lat="40.8745283" lon="0.1376333"><ele>483.0</ele><time>2026-03-31T10:17:33.16Z</time></trkpt><trkpt lat="40.8746933" lon="0.1374283"><ele>483.0</ele><time>2026-03-31T10:17:34.16Z</time></trkpt><trkpt lat="40.8748633" lon="0.137225"><ele>481.0</ele><time>2026-03-31T10:17:35.161Z</time></trkpt><trkpt lat="40.8750317" lon="0.1370117"><ele>479.0</ele><time>2026-03-31T10:17:36.161Z</time></trkpt><trkpt lat="40.8751967" lon="0.1368133"><ele>479.0</ele><time>2026-03-31T10:17:37.16Z</time></trkpt><trkpt lat="40.8753617" lon="0.1366133"><ele>479.0</ele><time>2026-03-31T10:17:38.16Z</time></trkpt><trkpt lat="40.87553" lon="0.1364117"><ele>484.5</ele><time>2026-03-31T10:17:39.161Z</time></trkpt><trkpt lat="40.8756983" lon="0.1362033"><ele>490.0</ele><time>2026-03-31T10:17:40.161Z</time></trkpt><trkpt lat="40.875865" lon="0.1359917"><ele>488.5</ele><time>2026-03-31T10:17:41.161Z</time></trkpt><trkpt lat="40.8760333" lon="0.1357833"><ele>487.0</ele><time>2026-03-31T10:17:42.161Z</time></trkpt><trkpt lat="40.8762017" lon="0.1355817"><ele>487.0</ele><time>2026-03-31T10:17:43.16Z</time></trkpt><trkpt lat="40.8763667" lon="0.1353833"><ele>487.0</ele><time>2026-03-31T10:17:44.16Z</time></trkpt><trkpt lat="40.8765483" lon="0.1352033"><ele>487.0</ele><time>2026-03-31T10:17:45.161Z</time></trkpt><trkpt lat="40.8767417" lon="0.13505"><ele>487.0</ele><time>2026-03-31T10:17:46.16Z</time></trkpt><trkpt lat="40.8769433" lon="0.1349217"><ele>487.0</ele><time>2026-03-31T10:17:47.161Z</time></trkpt><trkpt lat="40.8771633" lon="0.1348133"><ele>488.0</ele><time>2026-03-31T10:17:48.161Z</time></trkpt><trkpt lat="40.877395" lon="0.1347217"><ele>489.0</ele><time>2026-03-31T10:17:49.16Z</time></trkpt><trkpt lat="40.8776317" lon="0.1346267"><ele>489.0</ele><time>2026-03-31T10:17:50.16Z</time></trkpt><trkpt lat="40.877865" lon="0.1345333"><ele>489.0</ele><time>2026-03-31T10:17:51.161Z</time></trkpt><trkpt lat="40.8781067" lon="0.1344417"><ele>489.0</ele><time>2026-03-31T10:17:52.16Z</time></trkpt><trkpt lat="40.8783467" lon="0.134345"><ele>489.0</ele><time>2026-03-31T10:17:53.16Z</time></trkpt><trkpt lat="40.8785817" lon="0.134245"><ele>485.0</ele><time>2026-03-31T10:17:54.161Z</time></trkpt><trkpt lat="40.8788167" lon="0.13415"><ele>481.0</ele><time>2026-03-31T10:17:55.161Z</time></trkpt><trkpt lat="40.8790433" lon="0.1340617"><ele>484.0</ele><time>2026-03-31T10:17:56.16Z</time></trkpt><trkpt lat="40.8792633" lon="0.1339567"><ele>487.0</ele><time>2026-03-31T10:17:57.161Z</time></trkpt><trkpt lat="40.8794717" lon="0.1338417"><ele>487.0</ele><time>2026-03-31T10:17:58.16Z</time></trkpt><trkpt lat="40.8796817" lon="0.133705"><ele>487.0</ele><time>2026-03-31T10:17:59.161Z</time></trkpt><trkpt lat="40.87989" lon="0.1335383"><ele>486.0</ele><time>2026-03-31T10:18:00.16Z</time></trkpt><trkpt lat="40.880105" lon="0.13337"><ele>485.0</ele><time>2026-03-31T10:18:01.161Z</time></trkpt><trkpt lat="40.880305" lon="0.1331867"><ele>485.0</ele><time>2026-03-31T10:18:02.161Z</time></trkpt><trkpt lat="40.8805083" lon="0.1330017"><ele>485.0</ele><time>2026-03-31T10:18:03.16Z</time></trkpt><trkpt lat="40.88071" lon="0.1328233"><ele>485.0</ele><time>2026-03-31T10:18:04.161Z</time></trkpt><trkpt lat="40.8809" lon="0.1326183"><ele>485.0</ele><time>2026-03-31T10:18:05.161Z</time></trkpt><trkpt lat="40.8810917" lon="0.13241"><ele>483.0</ele><time>2026-03-31T10:18:06.16Z</time></trkpt><trkpt lat="40.8812717" lon="0.13219"><ele>481.0</ele><time>2026-03-31T10:18:07.16Z</time></trkpt><trkpt lat="40.8814433" lon="0.13194"><ele>481.0</ele><time>2026-03-31T10:18:08.16Z</time></trkpt><trkpt lat="40.8816017" lon="0.1316783"><ele>481.0</ele><time>2026-03-31T10:18:09.161Z</time></trkpt><trkpt lat="40.8817583" lon="0.131435"><ele>480.5</ele><time>2026-03-31T10:18:10.161Z</time></trkpt><trkpt lat="40.88192" lon="0.1311867"><ele>480.0</ele><time>2026-03-31T10:18:11.16Z</time></trkpt><trkpt lat="40.8820767" lon="0.1309383"><ele>481.5</ele><time>2026-03-31T10:18:12.16Z</time></trkpt><trkpt lat="40.8822167" lon="0.1306867"><ele>483.0</ele><time>2026-03-31T10:18:13.16Z</time></trkpt><trkpt lat="40.882345" lon="0.1304167"><ele>483.0</ele><time>2026-03-31T10:18:14.161Z</time></trkpt><trkpt lat="40.88246" lon="0.130135"><ele>483.0</ele><time>2026-03-31T10:18:15.161Z</time></trkpt><trkpt lat="40.8825567" lon="0.1298333"><ele>475.0</ele><time>2026-03-31T10:18:16.16Z</time></trkpt><trkpt lat="40.8826367" lon="0.1295217"><ele>467.0</ele><time>2026-03-31T10:18:17.16Z</time></trkpt><trkpt lat="40.8826967" lon="0.1292033"><ele>468.5</ele><time>2026-03-31T10:18:18.16Z</time></trkpt><trkpt lat="40.8827383" lon="0.12888"><ele>470.0</ele><time>2026-03-31T10:18:19.16Z</time></trkpt><trkpt lat="40.8827717" lon="0.1285467"><ele>470.5</ele><time>2026-03-31T10:18:20.16Z</time></trkpt><trkpt lat="40.8827983" lon="0.1282133"><ele>471.0</ele><time>2026-03-31T10:18:21.16Z</time></trkpt><trkpt lat="40.88283" lon="0.1278817"><ele>471.0</ele><time>2026-03-31T10:18:22.161Z</time></trkpt><trkpt lat="40.8828583" lon="0.1275483"><ele>471.0</ele><time>2026-03-31T10:18:23.16Z</time></trkpt><trkpt lat="40.88288" lon="0.1272183"><ele>470.0</ele><time>2026-03-31T10:18:24.16Z</time></trkpt><trkpt lat="40.882895" lon="0.12688"><ele>469.0</ele><time>2026-03-31T10:18:25.161Z</time></trkpt><trkpt lat="40.8829083" lon="0.12654"><ele>469.0</ele><time>2026-03-31T10:18:26.16Z</time></trkpt><trkpt lat="40.88292" lon="0.1262133"><ele>469.0</ele><time>2026-03-31T10:18:27.16Z</time></trkpt><trkpt lat="40.8829267" lon="0.1258967"><ele>470.5</ele><time>2026-03-31T10:18:28.16Z</time></trkpt><trkpt lat="40.8829267" lon="0.1255733"><ele>472.0</ele><time>2026-03-31T10:18:29.16Z</time></trkpt><trkpt lat="40.882915" lon="0.12524"><ele>472.0</ele><time>2026-03-31T10:18:30.161Z</time></trkpt><trkpt lat="40.8829" lon="0.1249033"><ele>472.0</ele><time>2026-03-31T10:18:31.16Z</time></trkpt><trkpt lat="40.8828983" lon="0.1245617"><ele>471.5</ele><time>2026-03-31T10:18:32.161Z</time></trkpt><trkpt lat="40.8829033" lon="0.12422"><ele>471.0</ele><time>2026-03-31T10:18:33.16Z</time></trkpt><trkpt lat="40.8829083" lon="0.1238717"><ele>471.0</ele><time>2026-03-31T10:18:34.161Z</time></trkpt><trkpt lat="40.8829083" lon="0.1235217"><ele>471.0</ele><time>2026-03-31T10:18:35.16Z</time></trkpt><trkpt lat="40.882915" lon="0.1231833"><ele>472.5</ele><time>2026-03-31T10:18:36.161Z</time></trkpt><trkpt lat="40.88293" lon="0.1228433"><ele>474.0</ele><time>2026-03-31T10:18:37.16Z</time></trkpt><trkpt lat="40.8829467" lon="0.1225"><ele>474.0</ele><time>2026-03-31T10:18:38.16Z</time></trkpt><trkpt lat="40.88296" lon="0.122175"><ele>474.0</ele><time>2026-03-31T10:18:39.16Z</time></trkpt><trkpt lat="40.8829817" lon="0.1218283"><ele>474.0</ele><time>2026-03-31T10:18:40.161Z</time></trkpt><trkpt lat="40.882995" lon="0.12149"><ele>474.0</ele><time>2026-03-31T10:18:41.161Z</time></trkpt><trkpt lat="40.8830067" lon="0.1211467"><ele>474.0</ele><time>2026-03-31T10:18:42.161Z</time></trkpt><trkpt lat="40.8830233" lon="0.1208167"><ele>474.0</ele><time>2026-03-31T10:18:43.16Z</time></trkpt><trkpt lat="40.883035" lon="0.1204717"><ele>476.0</ele><time>2026-03-31T10:18:44.161Z</time></trkpt><trkpt lat="40.8830483" lon="0.1201317"><ele>478.0</ele><time>2026-03-31T10:18:45.161Z</time></trkpt><trkpt lat="40.883055" lon="0.1198"><ele>478.5</ele><time>2026-03-31T10:18:46.16Z</time></trkpt><trkpt lat="40.8830583" lon="0.1194717"><ele>479.0</ele><time>2026-03-31T10:18:47.16Z</time></trkpt><trkpt lat="40.8830717" lon="0.1191433"><ele>480.0</ele><time>2026-03-31T10:18:48.161Z</time></trkpt><trkpt lat="40.88308" lon="0.1188283"><ele>481.0</ele><time>2026-03-31T10:18:49.16Z</time></trkpt><trkpt lat="40.883105" lon="0.1185167"><ele>489.0</ele><time>2026-03-31T10:18:50.16Z</time></trkpt><trkpt lat="40.8831417" lon="0.11821"><ele>497.0</ele><time>2026-03-31T10:18:51.16Z</time></trkpt><trkpt lat="40.8832117" lon="0.1179267"><ele>497.0</ele><time>2026-03-31T10:18:52.161Z</time></trkpt><trkpt lat="40.8833117" lon="0.1176533"><ele>497.0</ele><time>2026-03-31T10:18:53.161Z</time></trkpt><trkpt lat="40.883425" lon="0.1173983"><ele>488.5</ele><time>2026-03-31T10:18:54.16Z</time></trkpt><trkpt lat="40.8835633" lon="0.11715"><ele>480.0</ele><time>2026-03-31T10:18:55.161Z</time></trkpt><trkpt lat="40.8837183" lon="0.116925"><ele>480.0</ele><time>2026-03-31T10:18:56.16Z</time></trkpt><trkpt lat="40.88388" lon="0.1167017"><ele>480.0</ele><time>2026-03-31T10:18:57.161Z</time></trkpt><trkpt lat="40.8840483" lon="0.1164667"><ele>476.5</ele><time>2026-03-31T10:18:58.161Z</time></trkpt><trkpt lat="40.8842117" lon="0.1162383"><ele>473.0</ele><time>2026-03-31T10:18:59.161Z</time></trkpt><trkpt lat="40.884385" lon="0.1160133"><ele>473.0</ele><time>2026-03-31T10:19:00.16Z</time></trkpt><trkpt lat="40.884565" lon="0.1157883"><ele>473.0</ele><time>2026-03-31T10:19:01.161Z</time></trkpt><trkpt lat="40.884755" lon="0.115585"><ele>473.5</ele><time>2026-03-31T10:19:02.16Z</time></trkpt><trkpt lat="40.8849667" lon="0.1154167"><ele>474.0</ele><time>2026-03-31T10:19:03.16Z</time></trkpt><trkpt lat="40.8852033" lon="0.1152567"><ele>474.0</ele><time>2026-03-31T10:19:04.16Z</time></trkpt><trkpt lat="40.8854433" lon="0.1151183"><ele>474.0</ele><time>2026-03-31T10:19:05.16Z</time></trkpt><trkpt lat="40.8856817" lon="0.1149867"><ele>476.5</ele><time>2026-03-31T10:19:06.16Z</time></trkpt><trkpt lat="40.8859133" lon="0.1148333"><ele>479.0</ele><time>2026-03-31T10:19:07.16Z</time></trkpt><trkpt lat="40.8861467" lon="0.114675"><ele>479.0</ele><time>2026-03-31T10:19:08.16Z</time></trkpt><trkpt lat="40.8863633" lon="0.1144983"><ele>479.0</ele><time>2026-03-31T10:19:09.161Z</time></trkpt><trkpt lat="40.8865783" lon="0.11434"><ele>481.0</ele><time>2026-03-31T10:19:10.16Z</time></trkpt><trkpt lat="40.8867833" lon="0.114165"><ele>483.0</ele><time>2026-03-31T10:19:11.16Z</time></trkpt><trkpt lat="40.8869933" lon="0.113985"><ele>483.0</ele><time>2026-03-31T10:19:12.161Z</time></trkpt><trkpt lat="40.8871983" lon="0.1138117"><ele>483.0</ele><time>2026-03-31T10:19:13.161Z</time></trkpt><trkpt lat="40.8873917" lon="0.1136383"><ele>483.0</ele><time>2026-03-31T10:19:14.161Z</time></trkpt><trkpt lat="40.8875833" lon="0.11347"><ele>483.0</ele><time>2026-03-31T10:19:15.161Z</time></trkpt><trkpt lat="40.8877683" lon="0.1133017"><ele>480.33333333333337</ele><time>2026-03-31T10:19:16.16Z</time></trkpt><trkpt lat="40.8879467" lon="0.1131317"><ele>477.6666666666667</ele><time>2026-03-31T10:19:17.161Z</time></trkpt><trkpt lat="40.88812" lon="0.1129467"><ele>475.0</ele><time>2026-03-31T10:19:18.16Z</time></trkpt><trkpt lat="40.888285" lon="0.1127633"><ele>475.0</ele><time>2026-03-31T10:19:19.161Z</time></trkpt><trkpt lat="40.888445" lon="0.112575"><ele>475.0</ele><time>2026-03-31T10:19:20.16Z</time></trkpt><trkpt lat="40.8886" lon="0.1123717"><ele>475.0</ele><time>2026-03-31T10:19:21.161Z</time></trkpt><trkpt lat="40.8887533" lon="0.112175"><ele>475.0</ele><time>2026-03-31T10:19:22.161Z</time></trkpt><trkpt lat="40.8889" lon="0.1119933"><ele>475.0</ele><time>2026-03-31T10:19:23.16Z</time></trkpt><trkpt lat="40.8890383" lon="0.11181"><ele>475.0</ele><time>2026-03-31T10:19:24.161Z</time></trkpt><trkpt lat="40.8891683" lon="0.111635"><ele>472.75</ele><time>2026-03-31T10:19:25.161Z</time></trkpt><trkpt lat="40.8892683" lon="0.11148"><ele>470.5</ele><time>2026-03-31T10:19:26.16Z</time></trkpt><trkpt lat="40.889345" lon="0.1113333"><ele>468.25</ele><time>2026-03-31T10:19:27.16Z</time></trkpt><trkpt lat="40.8894" lon="0.1112133"><ele>466.0</ele><time>2026-03-31T10:19:28.161Z</time></trkpt><trkpt lat="40.889435" lon="0.1111217"><ele>466.0</ele><time>2026-03-31T10:19:29.16Z</time></trkpt><trkpt lat="40.8894717" lon="0.1110183"><ele>466.0</ele><time>2026-03-31T10:19:31.16Z</time></trkpt><trkpt lat="40.88948" lon="0.11091"><ele>466.0</ele><time>2026-03-31T10:22:43.159Z</time></trkpt><trkpt lat="40.889495" lon="0.1107767"><ele>466.0</ele><time>2026-03-31T10:22:44.159Z</time></trkpt><trkpt lat="40.8895033" lon="0.1106283"><ele>466.0</ele><time>2026-03-31T10:22:45.16Z</time></trkpt><trkpt lat="40.8894983" lon="0.1104667"><ele>464.75</ele><time>2026-03-31T10:22:46.16Z</time></trkpt><trkpt lat="40.88949" lon="0.110305"><ele>463.5</ele><time>2026-03-31T10:22:47.159Z</time></trkpt><trkpt lat="40.8894767" lon="0.1101283"><ele>462.25</ele><time>2026-03-31T10:22:48.159Z</time></trkpt><trkpt lat="40.889465" lon="0.1099667"><ele>461.0</ele><time>2026-03-31T10:22:49.16Z</time></trkpt><trkpt lat="40.8894517" lon="0.1097817"><ele>459.3333333333333</ele><time>2026-03-31T10:22:50.159Z</time></trkpt><trkpt lat="40.8894517" lon="0.109585"><ele>457.66666666666663</ele><time>2026-03-31T10:22:51.159Z</time></trkpt><trkpt lat="40.8894667" lon="0.10938"><ele>456.0</ele><time>2026-03-31T10:22:52.16Z</time></trkpt><trkpt lat="40.8895083" lon="0.109165"><ele>455.33333333333337</ele><time>2026-03-31T10:22:53.16Z</time></trkpt><trkpt lat="40.88957" lon="0.108965"><ele>454.6666666666667</ele><time>2026-03-31T10:22:54.159Z</time></trkpt><trkpt lat="40.8896483" lon="0.1087817"><ele>454.0</ele><time>2026-03-31T10:22:55.159Z</time></trkpt><trkpt lat="40.8897483" lon="0.1086083"><ele>454.0</ele><time>2026-03-31T10:22:56.159Z</time></trkpt><trkpt lat="40.8898817" lon="0.108465"><ele>454.0</ele><time>2026-03-31T10:22:57.159Z</time></trkpt><trkpt lat="40.89002" lon="0.1083333"><ele>454.0</ele><time>2026-03-31T10:22:58.16Z</time></trkpt><trkpt lat="40.8901533" lon="0.1081967"><ele>455.6666666666667</ele><time>2026-03-31T10:22:59.159Z</time></trkpt><trkpt lat="40.8902883" lon="0.10804"><ele>457.33333333333337</ele><time>2026-03-31T10:23:00.16Z</time></trkpt><trkpt lat="40.8904317" lon="0.1078917"><ele>459.0</ele><time>2026-03-31T10:23:01.159Z</time></trkpt><trkpt lat="40.8905717" lon="0.1077483"><ele>459.0</ele><time>2026-03-31T10:23:02.16Z</time></trkpt><trkpt lat="40.8907317" lon="0.10759"><ele>459.0</ele><time>2026-03-31T10:23:03.159Z</time></trkpt><trkpt lat="40.8908917" lon="0.1074333"><ele>459.0</ele><time>2026-03-31T10:23:04.16Z</time></trkpt><trkpt lat="40.8910617" lon="0.1072917"><ele>462.33333333333337</ele><time>2026-03-31T10:23:05.16Z</time></trkpt><trkpt lat="40.8912433" lon="0.1071817"><ele>465.6666666666667</ele><time>2026-03-31T10:23:06.159Z</time></trkpt><trkpt lat="40.8914433" lon="0.1070867"><ele>469.0</ele><time>2026-03-31T10:23:07.16Z</time></trkpt><trkpt lat="40.8916333" lon="0.1070117"><ele>469.6666666666667</ele><time>2026-03-31T10:23:08.159Z</time></trkpt><trkpt lat="40.8918333" lon="0.1069633"><ele>470.33333333333337</ele><time>2026-03-31T10:23:09.159Z</time></trkpt><trkpt lat="40.89205" lon="0.1069317"><ele>471.0</ele><time>2026-03-31T10:23:10.159Z</time></trkpt><trkpt lat="40.8922683" lon="0.10692"><ele>471.0</ele><time>2026-03-31T10:23:11.159Z</time></trkpt><trkpt lat="40.8924817" lon="0.106915"><ele>471.0</ele><time>2026-03-31T10:23:12.159Z</time></trkpt><trkpt lat="40.89269" lon="0.106915"><ele>471.0</ele><time>2026-03-31T10:23:13.16Z</time></trkpt><trkpt lat="40.8929033" lon="0.1068983"><ele>469.66666666666663</ele><time>2026-03-31T10:23:14.159Z</time></trkpt><trkpt lat="40.8931067" lon="0.1068683"><ele>468.3333333333333</ele><time>2026-03-31T10:23:15.16Z</time></trkpt><trkpt lat="40.893305" lon="0.1068117"><ele>467.0</ele><time>2026-03-31T10:23:16.159Z</time></trkpt><trkpt lat="40.8934967" lon="0.1067367"><ele>468.3333333333333</ele><time>2026-03-31T10:23:17.159Z</time></trkpt><trkpt lat="40.8936883" lon="0.106635"><ele>469.66666666666663</ele><time>2026-03-31T10:23:18.159Z</time></trkpt><trkpt lat="40.8938833" lon="0.1065117"><ele>471.0</ele><time>2026-03-31T10:23:19.16Z</time></trkpt><trkpt lat="40.894095" lon="0.1063917"><ele>467.5</ele><time>2026-03-31T10:23:20.159Z</time></trkpt><trkpt lat="40.8943117" lon="0.1062667"><ele>464.0</ele><time>2026-03-31T10:23:21.159Z</time></trkpt><trkpt lat="40.89453" lon="0.106135"><ele>464.0</ele><time>2026-03-31T10:23:22.16Z</time></trkpt><trkpt lat="40.894745" lon="0.10601"><ele>464.0</ele><time>2026-03-31T10:23:23.16Z</time></trkpt><trkpt lat="40.8949617" lon="0.10587"><ele>464.0</ele><time>2026-03-31T10:23:24.16Z</time></trkpt><trkpt lat="40.8951717" lon="0.1057233"><ele>464.0</ele><time>2026-03-31T10:23:25.159Z</time></trkpt><trkpt lat="40.8953867" lon="0.105555"><ele>464.0</ele><time>2026-03-31T10:23:26.16Z</time></trkpt><trkpt lat="40.89561" lon="0.1053967"><ele>464.0</ele><time>2026-03-31T10:23:27.159Z</time></trkpt><trkpt lat="40.895815" lon="0.105215"><ele>464.5</ele><time>2026-03-31T10:23:28.16Z</time></trkpt><trkpt lat="40.89603" lon="0.105025"><ele>465.0</ele><time>2026-03-31T10:23:29.16Z</time></trkpt><trkpt lat="40.8962483" lon="0.10484"><ele>465.0</ele><time>2026-03-31T10:23:30.159Z</time></trkpt><trkpt lat="40.8964633" lon="0.104645"><ele>465.0</ele><time>2026-03-31T10:23:31.16Z</time></trkpt><trkpt lat="40.8966717" lon="0.1044533"><ele>462.0</ele><time>2026-03-31T10:23:32.159Z</time></trkpt><trkpt lat="40.8968883" lon="0.1042467"><ele>459.0</ele><time>2026-03-31T10:23:33.16Z</time></trkpt><trkpt lat="40.897105" lon="0.1040517"><ele>467.5</ele><time>2026-03-31T10:23:34.159Z</time></trkpt><trkpt lat="40.8973133" lon="0.103855"><ele>476.0</ele><time>2026-03-31T10:23:35.159Z</time></trkpt><trkpt lat="40.8975283" lon="0.1036717"><ele>469.5</ele><time>2026-03-31T10:23:36.16Z</time></trkpt><trkpt lat="40.8977333" lon="0.1034917"><ele>463.0</ele><time>2026-03-31T10:23:37.16Z</time></trkpt><trkpt lat="40.89794" lon="0.1033067"><ele>470.5</ele><time>2026-03-31T10:23:38.159Z</time></trkpt><trkpt lat="40.8981317" lon="0.1031033"><ele>478.0</ele><time>2026-03-31T10:23:39.159Z</time></trkpt><trkpt lat="40.8983067" lon="0.1028667"><ele>470.0</ele><time>2026-03-31T10:23:40.16Z</time></trkpt><trkpt lat="40.89847" lon="0.1026117"><ele>462.0</ele><time>2026-03-31T10:23:41.159Z</time></trkpt><trkpt lat="40.8986317" lon="0.1023433"><ele>462.0</ele><time>2026-03-31T10:23:42.159Z</time></trkpt><trkpt lat="40.898785" lon="0.1020683"><ele>462.0</ele><time>2026-03-31T10:23:43.16Z</time></trkpt><trkpt lat="40.8989383" lon="0.101785"><ele>462.0</ele><time>2026-03-31T10:23:44.159Z</time></trkpt><trkpt lat="40.89911" lon="0.1015217"><ele>462.0</ele><time>2026-03-31T10:23:45.16Z</time></trkpt><trkpt lat="40.8992867" lon="0.1012733"><ele>462.0</ele><time>2026-03-31T10:23:46.16Z</time></trkpt><trkpt lat="40.899505" lon="0.1010567"><ele>462.0</ele><time>2026-03-31T10:23:47.159Z</time></trkpt><trkpt lat="40.8997333" lon="0.1008683"><ele>463.0</ele><time>2026-03-31T10:23:48.159Z</time></trkpt><trkpt lat="40.8999667" lon="0.1006833"><ele>464.0</ele><time>2026-03-31T10:23:49.159Z</time></trkpt><trkpt lat="40.9002033" lon="0.100485"><ele>464.0</ele><time>2026-03-31T10:23:50.16Z</time></trkpt><trkpt lat="40.9004317" lon="0.100285"><ele>464.0</ele><time>2026-03-31T10:23:51.159Z</time></trkpt><trkpt lat="40.90066" lon="0.1000917"><ele>462.5</ele><time>2026-03-31T10:23:52.16Z</time></trkpt><trkpt lat="40.9008817" lon="0.0998917"><ele>461.0</ele><time>2026-03-31T10:23:53.16Z</time></trkpt><trkpt lat="40.9010967" lon="0.0996833"><ele>461.0</ele><time>2026-03-31T10:23:54.16Z</time></trkpt><trkpt lat="40.9012967" lon="0.0994717"><ele>461.0</ele><time>2026-03-31T10:23:55.159Z</time></trkpt><trkpt lat="40.901485" lon="0.09926"><ele>470.0</ele><time>2026-03-31T10:23:56.159Z</time></trkpt><trkpt lat="40.9016917" lon="0.0990817"><ele>479.0</ele><time>2026-03-31T10:23:57.159Z</time></trkpt><trkpt lat="40.901915" lon="0.0989533"><ele>481.5</ele><time>2026-03-31T10:23:58.16Z</time></trkpt><trkpt lat="40.9021467" lon="0.0988617"><ele>484.0</ele><time>2026-03-31T10:23:59.159Z</time></trkpt><trkpt lat="40.90239" lon="0.0988067"><ele>480.5</ele><time>2026-03-31T10:24:00.159Z</time></trkpt><trkpt lat="40.9026467" lon="0.098775"><ele>477.0</ele><time>2026-03-31T10:24:01.16Z</time></trkpt><trkpt lat="40.902905" lon="0.0987367"><ele>477.0</ele><time>2026-03-31T10:24:02.159Z</time></trkpt><trkpt lat="40.9031517" lon="0.0987"><ele>477.0</ele><time>2026-03-31T10:24:03.159Z</time></trkpt><trkpt lat="40.9033983" lon="0.09866"><ele>470.5</ele><time>2026-03-31T10:24:04.159Z</time></trkpt><trkpt lat="40.903645" lon="0.0986167"><ele>464.0</ele><time>2026-03-31T10:24:05.159Z</time></trkpt><trkpt lat="40.90389" lon="0.0985633"><ele>464.0</ele><time>2026-03-31T10:24:06.16Z</time></trkpt><trkpt lat="40.9041333" lon="0.0985033"><ele>464.0</ele><time>2026-03-31T10:24:07.159Z</time></trkpt><trkpt lat="40.9043767" lon="0.09843"><ele>459.5</ele><time>2026-03-31T10:24:08.159Z</time></trkpt><trkpt lat="40.9046067" lon="0.09834"><ele>455.0</ele><time>2026-03-31T10:24:09.16Z</time></trkpt><trkpt lat="40.904815" lon="0.098205"><ele>455.0</ele><time>2026-03-31T10:24:10.16Z</time></trkpt><trkpt lat="40.9050033" lon="0.0980317"><ele>455.0</ele><time>2026-03-31T10:24:11.159Z</time></trkpt><trkpt lat="40.9051667" lon="0.0978283"><ele>453.3333333333333</ele><time>2026-03-31T10:24:12.16Z</time></trkpt><trkpt lat="40.90531" lon="0.0976083"><ele>451.66666666666663</ele><time>2026-03-31T10:24:13.159Z</time></trkpt><trkpt lat="40.9054417" lon="0.0973683"><ele>450.0</ele><time>2026-03-31T10:24:14.159Z</time></trkpt><trkpt lat="40.9055417" lon="0.097095"><ele>454.0</ele><time>2026-03-31T10:24:15.159Z</time></trkpt><trkpt lat="40.9056217" lon="0.0968183"><ele>458.0</ele><time>2026-03-31T10:24:16.16Z</time></trkpt><trkpt lat="40.90568" lon="0.0965467"><ele>462.0</ele><time>2026-03-31T10:24:17.16Z</time></trkpt><trkpt lat="40.9057" lon="0.09626"><ele>463.0</ele><time>2026-03-31T10:24:18.16Z</time></trkpt><trkpt lat="40.9057033" lon="0.0959833"><ele>464.0</ele><time>2026-03-31T10:24:19.159Z</time></trkpt><trkpt lat="40.9056867" lon="0.0956967"><ele>465.0</ele><time>2026-03-31T10:24:20.16Z</time></trkpt><trkpt lat="40.90565" lon="0.0954067"><ele>467.0</ele><time>2026-03-31T10:24:21.159Z</time></trkpt><trkpt lat="40.9056017" lon="0.095135"><ele>469.0</ele><time>2026-03-31T10:24:22.16Z</time></trkpt><trkpt lat="40.9055533" lon="0.0948567"><ele>471.0</ele><time>2026-03-31T10:24:23.159Z</time></trkpt><trkpt lat="40.90551" lon="0.09459"><ele>472.66666666666663</ele><time>2026-03-31T10:24:24.16Z</time></trkpt><trkpt lat="40.9054617" lon="0.0943233"><ele>474.3333333333333</ele><time>2026-03-31T10:24:25.159Z</time></trkpt><trkpt lat="40.905425" lon="0.0940533"><ele>476.0</ele><time>2026-03-31T10:24:26.16Z</time></trkpt><trkpt lat="40.9053967" lon="0.0937717"><ele>476.66666666666663</ele><time>2026-03-31T10:24:27.159Z</time></trkpt><trkpt lat="40.9053783" lon="0.093485"><ele>477.33333333333337</ele><time>2026-03-31T10:24:28.159Z</time></trkpt><trkpt lat="40.9053717" lon="0.0931883"><ele>478.0</ele><time>2026-03-31T10:24:29.16Z</time></trkpt><trkpt lat="40.9053883" lon="0.09289"><ele>479.5</ele><time>2026-03-31T10:24:30.159Z</time></trkpt><trkpt lat="40.90542" lon="0.0925833"><ele>481.0</ele><time>2026-03-31T10:24:31.16Z</time></trkpt><trkpt lat="40.90546" lon="0.0922767"><ele>481.0</ele><time>2026-03-31T10:24:32.16Z</time></trkpt><trkpt lat="40.905515" lon="0.0919817"><ele>481.0</ele><time>2026-03-31T10:24:33.159Z</time></trkpt><trkpt lat="40.9055933" lon="0.0916867"><ele>480.5</ele><time>2026-03-31T10:24:34.159Z</time></trkpt><trkpt lat="40.90567" lon="0.091395"><ele>480.0</ele><time>2026-03-31T10:24:35.159Z</time></trkpt><trkpt lat="40.9057533" lon="0.0911083"><ele>480.0</ele><time>2026-03-31T10:24:36.159Z</time></trkpt><trkpt lat="40.90584" lon="0.09081"><ele>480.0</ele><time>2026-03-31T10:24:37.16Z</time></trkpt><trkpt lat="40.9059383" lon="0.0905283"><ele>483.0</ele><time>2026-03-31T10:24:38.159Z</time></trkpt><trkpt lat="40.906035" lon="0.0902367"><ele>486.0</ele><time>2026-03-31T10:24:39.159Z</time></trkpt><trkpt lat="40.90612" lon="0.0899417"><ele>487.0</ele><time>2026-03-31T10:24:40.16Z</time></trkpt><trkpt lat="40.9062117" lon="0.089655"><ele>488.0</ele><time>2026-03-31T10:24:41.159Z</time></trkpt><trkpt lat="40.9063033" lon="0.08937"><ele>489.0</ele><time>2026-03-31T10:24:42.159Z</time></trkpt><trkpt lat="40.90639" lon="0.0890917"><ele>490.0</ele><time>2026-03-31T10:24:43.16Z</time></trkpt><trkpt lat="40.9064767" lon="0.0888033"><ele>490.0</ele><time>2026-03-31T10:24:44.159Z</time></trkpt><trkpt lat="40.906565" lon="0.0885317"><ele>490.0</ele><time>2026-03-31T10:24:45.159Z</time></trkpt><trkpt lat="40.9066633" lon="0.0882683"><ele>490.0</ele><time>2026-03-31T10:24:46.159Z</time></trkpt><trkpt lat="40.9067783" lon="0.088015"><ele>495.0</ele><time>2026-03-31T10:24:47.16Z</time></trkpt><trkpt lat="40.906915" lon="0.087775"><ele>500.0</ele><time>2026-03-31T10:24:48.159Z</time></trkpt><trkpt lat="40.9070683" lon="0.087545"><ele>499.0</ele><time>2026-03-31T10:24:49.16Z</time></trkpt><trkpt lat="40.9072367" lon="0.0873467"><ele>498.0</ele><time>2026-03-31T10:24:50.159Z</time></trkpt><trkpt lat="40.9074133" lon="0.0871867"><ele>497.0</ele><time>2026-03-31T10:24:51.158Z</time></trkpt><trkpt lat="40.90759" lon="0.0870217"><ele>500.0</ele><time>2026-03-31T10:24:52.159Z</time></trkpt><trkpt lat="40.9077517" lon="0.0868383"><ele>503.0</ele><time>2026-03-31T10:24:53.159Z</time></trkpt><trkpt lat="40.907895" lon="0.08664"><ele>506.0</ele><time>2026-03-31T10:24:54.159Z</time></trkpt><trkpt lat="40.9080133" lon="0.0864"><ele>506.0</ele><time>2026-03-31T10:24:55.16Z</time></trkpt><trkpt lat="40.9081217" lon="0.0861567"><ele>506.0</ele><time>2026-03-31T10:24:56.159Z</time></trkpt><trkpt lat="40.9082217" lon="0.0859117"><ele>506.0</ele><time>2026-03-31T10:24:57.16Z</time></trkpt><trkpt lat="40.9083167" lon="0.0856467"><ele>504.66666666666663</ele><time>2026-03-31T10:24:58.159Z</time></trkpt><trkpt lat="40.9084067" lon="0.0853867"><ele>503.33333333333337</ele><time>2026-03-31T10:24:59.159Z</time></trkpt><trkpt lat="40.9084933" lon="0.0851433"><ele>502.0</ele><time>2026-03-31T10:25:00.159Z</time></trkpt><trkpt lat="40.9085717" lon="0.084915"><ele>506.0</ele><time>2026-03-31T10:25:01.159Z</time></trkpt><trkpt lat="40.9086533" lon="0.0847033"><ele>510.0</ele><time>2026-03-31T10:25:02.16Z</time></trkpt><trkpt lat="40.908735" lon="0.0845117"><ele>514.0</ele><time>2026-03-31T10:25:03.159Z</time></trkpt><trkpt lat="40.908835" lon="0.0843233"><ele>514.0</ele><time>2026-03-31T10:25:04.159Z</time></trkpt><trkpt lat="40.9089583" lon="0.084165"><ele>514.0</ele><time>2026-03-31T10:25:05.159Z</time></trkpt><trkpt lat="40.90909" lon="0.08402"><ele>514.0</ele><time>2026-03-31T10:25:06.16Z</time></trkpt><trkpt lat="40.9092383" lon="0.08389"><ele>515.0</ele><time>2026-03-31T10:25:07.16Z</time></trkpt><trkpt lat="40.9094017" lon="0.0837933"><ele>516.0</ele><time>2026-03-31T10:25:08.159Z</time></trkpt><trkpt lat="40.9095817" lon="0.0837083"><ele>517.0</ele><time>2026-03-31T10:25:09.16Z</time></trkpt><trkpt lat="40.909765" lon="0.0836383"><ele>517.0</ele><time>2026-03-31T10:25:10.16Z</time></trkpt><trkpt lat="40.9099467" lon="0.0835567"><ele>517.0</ele><time>2026-03-31T10:25:11.16Z</time></trkpt><trkpt lat="40.9101283" lon="0.0834883"><ele>517.0</ele><time>2026-03-31T10:25:12.159Z</time></trkpt><trkpt lat="40.9102933" lon="0.0834233"><ele>518.0</ele><time>2026-03-31T10:25:13.16Z</time></trkpt><trkpt lat="40.9104433" lon="0.0833683"><ele>519.0</ele><time>2026-03-31T10:25:14.159Z</time></trkpt><trkpt lat="40.9105767" lon="0.0833183"><ele>520.0</ele><time>2026-03-31T10:25:15.16Z</time></trkpt><trkpt lat="40.9106767" lon="0.08329"><ele>521.0</ele><time>2026-03-31T10:25:16.16Z</time></trkpt><trkpt lat="40.9107533" lon="0.0832733"><ele>521.0</ele><time>2026-03-31T10:25:17.159Z</time></trkpt><trkpt lat="40.91085" lon="0.08324"><ele>521.0</ele><time>2026-03-31T10:25:19.159Z</time></trkpt><trkpt lat="40.9109217" lon="0.08313"><ele>521.0</ele><time>2026-03-31T10:25:21.159Z</time></trkpt><trkpt lat="40.9109683" lon="0.0830533"><ele>521.0</ele><time>2026-03-31T10:25:22.16Z</time></trkpt><trkpt lat="40.9110433" lon="0.082965"><ele>521.0</ele><time>2026-03-31T10:25:23.16Z</time></trkpt><trkpt lat="40.9111333" lon="0.082865"><ele>522.25</ele><time>2026-03-31T10:25:24.16Z</time></trkpt><trkpt lat="40.9112283" lon="0.0827633"><ele>523.5</ele><time>2026-03-31T10:25:25.16Z</time></trkpt><trkpt lat="40.9113283" lon="0.0826467"><ele>524.75</ele><time>2026-03-31T10:25:26.159Z</time></trkpt><trkpt lat="40.9114283" lon="0.0825317"><ele>526.0</ele><time>2026-03-31T10:25:27.159Z</time></trkpt><trkpt lat="40.9115267" lon="0.0823983"><ele>526.25</ele><time>2026-03-31T10:25:28.16Z</time></trkpt><trkpt lat="40.911625" lon="0.08225"><ele>526.5</ele><time>2026-03-31T10:25:29.159Z</time></trkpt><trkpt lat="40.9117117" lon="0.082095"><ele>526.75</ele><time>2026-03-31T10:25:30.159Z</time></trkpt><trkpt lat="40.9117983" lon="0.08193"><ele>527.0</ele><time>2026-03-31T10:25:31.159Z</time></trkpt><trkpt lat="40.9118817" lon="0.0817583"><ele>529.6666666666666</ele><time>2026-03-31T10:25:32.16Z</time></trkpt><trkpt lat="40.9119517" lon="0.08159"><ele>532.3333333333334</ele><time>2026-03-31T10:25:33.159Z</time></trkpt><trkpt lat="40.9120183" lon="0.08141"><ele>535.0</ele><time>2026-03-31T10:25:34.16Z</time></trkpt><trkpt lat="40.912065" lon="0.0812133"><ele>535.0</ele><time>2026-03-31T10:25:35.16Z</time></trkpt><trkpt lat="40.9121" lon="0.08102"><ele>535.0</ele><time>2026-03-31T10:25:36.159Z</time></trkpt><trkpt lat="40.9121383" lon="0.0808283"><ele>535.0</ele><time>2026-03-31T10:25:37.159Z</time></trkpt><trkpt lat="40.9121617" lon="0.080625"><ele>535.0</ele><time>2026-03-31T10:25:38.16Z</time></trkpt><trkpt lat="40.9121717" lon="0.080415"><ele>535.0</ele><time>2026-03-31T10:25:39.159Z</time></trkpt><trkpt lat="40.9121683" lon="0.0801983"><ele>535.0</ele><time>2026-03-31T10:25:40.16Z</time></trkpt><trkpt lat="40.9121433" lon="0.0799633"><ele>536.6666666666667</ele><time>2026-03-31T10:25:41.16Z</time></trkpt><trkpt lat="40.9121117" lon="0.0797283"><ele>538.3333333333334</ele><time>2026-03-31T10:25:42.16Z</time></trkpt><trkpt lat="40.912065" lon="0.0795083"><ele>540.0</ele><time>2026-03-31T10:25:43.159Z</time></trkpt><trkpt lat="40.9120117" lon="0.0792967"><ele>540.6666666666666</ele><time>2026-03-31T10:25:44.159Z</time></trkpt><trkpt lat="40.91196" lon="0.0790917"><ele>541.3333333333333</ele><time>2026-03-31T10:25:45.159Z</time></trkpt><trkpt lat="40.9119" lon="0.0788883"><ele>542.0</ele><time>2026-03-31T10:25:46.159Z</time></trkpt><trkpt lat="40.9118583" lon="0.0786717"><ele>542.0</ele><time>2026-03-31T10:25:47.16Z</time></trkpt><trkpt lat="40.9118367" lon="0.07845"><ele>542.0</ele><time>2026-03-31T10:25:48.16Z</time></trkpt><trkpt lat="40.9118417" lon="0.0782283"><ele>542.0</ele><time>2026-03-31T10:25:49.159Z</time></trkpt><trkpt lat="40.91187" lon="0.0780017"><ele>542.3333333333333</ele><time>2026-03-31T10:25:50.16Z</time></trkpt><trkpt lat="40.9119183" lon="0.0777833"><ele>542.6666666666666</ele><time>2026-03-31T10:25:51.159Z</time></trkpt><trkpt lat="40.9119667" lon="0.07756"><ele>543.0</ele><time>2026-03-31T10:25:52.16Z</time></trkpt><trkpt lat="40.9120267" lon="0.0773533"><ele>543.0</ele><time>2026-03-31T10:25:53.159Z</time></trkpt><trkpt lat="40.9120867" lon="0.0771367"><ele>543.0</ele><time>2026-03-31T10:25:54.16Z</time></trkpt><trkpt lat="40.91214" lon="0.0769333"><ele>543.0</ele><time>2026-03-31T10:25:55.159Z</time></trkpt><trkpt lat="40.912215" lon="0.0767233"><ele>542.3333333333334</ele><time>2026-03-31T10:25:56.159Z</time></trkpt><trkpt lat="40.912315" lon="0.07651"><ele>541.6666666666667</ele><time>2026-03-31T10:25:57.159Z</time></trkpt><trkpt lat="40.9124267" lon="0.0763083"><ele>541.0</ele><time>2026-03-31T10:25:58.159Z</time></trkpt><trkpt lat="40.9125467" lon="0.0761033"><ele>541.3333333333334</ele><time>2026-03-31T10:25:59.159Z</time></trkpt><trkpt lat="40.9126733" lon="0.075895"><ele>541.6666666666666</ele><time>2026-03-31T10:26:00.159Z</time></trkpt><trkpt lat="40.9128" lon="0.0756967"><ele>542.0</ele><time>2026-03-31T10:26:01.159Z</time></trkpt><trkpt lat="40.9129333" lon="0.0754833"><ele>542.0</ele><time>2026-03-31T10:26:02.16Z</time></trkpt><trkpt lat="40.91307" lon="0.0752817"><ele>542.0</ele><time>2026-03-31T10:26:03.16Z</time></trkpt><trkpt lat="40.9131983" lon="0.0750683"><ele>542.0</ele><time>2026-03-31T10:26:04.159Z</time></trkpt><trkpt lat="40.9133183" lon="0.074855"><ele>541.3333333333333</ele><time>2026-03-31T10:26:05.159Z</time></trkpt><trkpt lat="40.9134517" lon="0.07466"><ele>540.6666666666666</ele><time>2026-03-31T10:26:06.16Z</time></trkpt><trkpt lat="40.9135733" lon="0.074465"><ele>540.0</ele><time>2026-03-31T10:26:07.159Z</time></trkpt><trkpt lat="40.9136933" lon="0.074275"><ele>540.3333333333334</ele><time>2026-03-31T10:26:08.159Z</time></trkpt><trkpt lat="40.91381" lon="0.07409"><ele>540.6666666666667</ele><time>2026-03-31T10:26:09.16Z</time></trkpt><trkpt lat="40.91394" lon="0.073915"><ele>541.0</ele><time>2026-03-31T10:26:10.159Z</time></trkpt><trkpt lat="40.9140783" lon="0.073745"><ele>541.0</ele><time>2026-03-31T10:26:11.16Z</time></trkpt><trkpt lat="40.9142317" lon="0.0735967"><ele>541.0</ele><time>2026-03-31T10:26:12.159Z</time></trkpt><trkpt lat="40.9143933" lon="0.07346"><ele>541.0</ele><time>2026-03-31T10:26:13.159Z</time></trkpt><trkpt lat="40.9145717" lon="0.07335"><ele>540.6666666666667</ele><time>2026-03-31T10:26:14.16Z</time></trkpt><trkpt lat="40.9147467" lon="0.073255"><ele>540.3333333333334</ele><time>2026-03-31T10:26:15.16Z</time></trkpt><trkpt lat="40.9149317" lon="0.0731767"><ele>540.0</ele><time>2026-03-31T10:26:16.16Z</time></trkpt><trkpt lat="40.9151333" lon="0.0731117"><ele>540.0</ele><time>2026-03-31T10:26:17.159Z</time></trkpt><trkpt lat="40.91533" lon="0.07306"><ele>540.0</ele><time>2026-03-31T10:26:18.159Z</time></trkpt><trkpt lat="40.9155267" lon="0.0730267"><ele>540.0</ele><time>2026-03-31T10:26:19.16Z</time></trkpt><trkpt lat="40.915725" lon="0.0730033"><ele>539.6666666666666</ele><time>2026-03-31T10:26:20.16Z</time></trkpt><trkpt lat="40.91593" lon="0.0729833"><ele>539.3333333333333</ele><time>2026-03-31T10:26:21.16Z</time></trkpt><trkpt lat="40.9161267" lon="0.0729433"><ele>539.0</ele><time>2026-03-31T10:26:22.16Z</time></trkpt><trkpt lat="40.9163183" lon="0.0728783"><ele>539.0</ele><time>2026-03-31T10:26:23.159Z</time></trkpt><trkpt lat="40.9165067" lon="0.0727967"><ele>539.0</ele><time>2026-03-31T10:26:24.159Z</time></trkpt><trkpt lat="40.9167033" lon="0.07271"><ele>539.0</ele><time>2026-03-31T10:26:25.159Z</time></trkpt><trkpt lat="40.9169017" lon="0.0726133"><ele>538.6666666666666</ele><time>2026-03-31T10:26:26.159Z</time></trkpt><trkpt lat="40.9171" lon="0.0725233"><ele>538.3333333333334</ele><time>2026-03-31T10:26:27.16Z</time></trkpt><trkpt lat="40.9173033" lon="0.0724433"><ele>538.0</ele><time>2026-03-31T10:26:28.16Z</time></trkpt><trkpt lat="40.91751" lon="0.0723883"><ele>539.6666666666667</ele><time>2026-03-31T10:26:29.159Z</time></trkpt><trkpt lat="40.91772" lon="0.0723433"><ele>541.3333333333334</ele><time>2026-03-31T10:26:30.159Z</time></trkpt><trkpt lat="40.9179417" lon="0.072325"><ele>543.0</ele><time>2026-03-31T10:26:31.16Z</time></trkpt><trkpt lat="40.9181583" lon="0.0723367"><ele>543.0</ele><time>2026-03-31T10:26:32.16Z</time></trkpt><trkpt lat="40.9183783" lon="0.0723583"><ele>543.0</ele><time>2026-03-31T10:26:33.159Z</time></trkpt><trkpt lat="40.91859" lon="0.07238"><ele>543.0</ele><time>2026-03-31T10:26:34.159Z</time></trkpt><trkpt lat="40.9188067" lon="0.0724017"><ele>542.3333333333334</ele><time>2026-03-31T10:26:35.159Z</time></trkpt><trkpt lat="40.9190267" lon="0.0724167"><ele>541.6666666666667</ele><time>2026-03-31T10:26:36.16Z</time></trkpt><trkpt lat="40.9192483" lon="0.07241"><ele>541.0</ele><time>2026-03-31T10:26:37.159Z</time></trkpt><trkpt lat="40.9194767" lon="0.0724117"><ele>541.0</ele><time>2026-03-31T10:26:38.159Z</time></trkpt><trkpt lat="40.9197017" lon="0.0724133"><ele>541.0</ele><time>2026-03-31T10:26:39.16Z</time></trkpt><trkpt lat="40.9199167" lon="0.0724183"><ele>541.0</ele><time>2026-03-31T10:26:40.16Z</time></trkpt><trkpt lat="40.92014" lon="0.0724467"><ele>539.3333333333334</ele><time>2026-03-31T10:26:41.16Z</time></trkpt><trkpt lat="40.9203517" lon="0.0725033"><ele>537.6666666666666</ele><time>2026-03-31T10:26:42.159Z</time></trkpt><trkpt lat="40.92056" lon="0.0725867"><ele>536.0</ele><time>2026-03-31T10:26:43.16Z</time></trkpt><trkpt lat="40.9207633" lon="0.0726767"><ele>537.0</ele><time>2026-03-31T10:26:44.16Z</time></trkpt><trkpt lat="40.92098" lon="0.0727783"><ele>538.0</ele><time>2026-03-31T10:26:45.159Z</time></trkpt><trkpt lat="40.9211933" lon="0.0728733"><ele>538.0</ele><time>2026-03-31T10:26:46.16Z</time></trkpt><trkpt lat="40.9214067" lon="0.0729583"><ele>538.0</ele><time>2026-03-31T10:26:47.159Z</time></trkpt><trkpt lat="40.9216117" lon="0.0730533"><ele>538.0</ele><time>2026-03-31T10:26:48.16Z</time></trkpt><trkpt lat="40.9218133" lon="0.0731333"><ele>538.3333333333334</ele><time>2026-03-31T10:26:49.159Z</time></trkpt><trkpt lat="40.922" lon="0.073225"><ele>538.6666666666666</ele><time>2026-03-31T10:26:50.16Z</time></trkpt><trkpt lat="40.92218" lon="0.0733383"><ele>539.0</ele><time>2026-03-31T10:26:51.159Z</time></trkpt><trkpt lat="40.9223467" lon="0.0734833"><ele>538.0</ele><time>2026-03-31T10:26:52.16Z</time></trkpt><trkpt lat="40.9225017" lon="0.073635"><ele>537.0</ele><time>2026-03-31T10:26:53.16Z</time></trkpt><trkpt lat="40.92265" lon="0.073785"><ele>536.0</ele><time>2026-03-31T10:26:54.16Z</time></trkpt><trkpt lat="40.922795" lon="0.0739467"><ele>535.3333333333333</ele><time>2026-03-31T10:26:55.159Z</time></trkpt><trkpt lat="40.9229317" lon="0.0741133"><ele>534.6666666666666</ele><time>2026-03-31T10:26:56.159Z</time></trkpt><trkpt lat="40.923065" lon="0.0742767"><ele>534.0</ele><time>2026-03-31T10:26:57.16Z</time></trkpt><trkpt lat="40.923195" lon="0.0744267"><ele>534.0</ele><time>2026-03-31T10:26:58.16Z</time></trkpt><trkpt lat="40.9233217" lon="0.074565"><ele>534.0</ele><time>2026-03-31T10:26:59.16Z</time></trkpt><trkpt lat="40.9234433" lon="0.0747033"><ele>534.0</ele><time>2026-03-31T10:27:00.159Z</time></trkpt><trkpt lat="40.9235567" lon="0.0748283"><ele>534.5</ele><time>2026-03-31T10:27:01.16Z</time></trkpt><trkpt lat="40.9236717" lon="0.0749333"><ele>535.0</ele><time>2026-03-31T10:27:02.159Z</time></trkpt><trkpt lat="40.9237917" lon="0.0750417"><ele>535.5</ele><time>2026-03-31T10:27:03.159Z</time></trkpt><trkpt lat="40.923925" lon="0.0751317"><ele>536.0</ele><time>2026-03-31T10:27:04.16Z</time></trkpt><trkpt lat="40.92406" lon="0.0752067"><ele>535.75</ele><time>2026-03-31T10:27:05.16Z</time></trkpt><trkpt lat="40.9242067" lon="0.075265"><ele>535.5</ele><time>2026-03-31T10:27:06.159Z</time></trkpt><trkpt lat="40.924345" lon="0.0753233"><ele>535.25</ele><time>2026-03-31T10:27:07.159Z</time></trkpt><trkpt lat="40.9244817" lon="0.0753867"><ele>535.0</ele><time>2026-03-31T10:27:08.16Z</time></trkpt><trkpt lat="40.9246067" lon="0.07545"><ele>535.0</ele><time>2026-03-31T10:27:09.16Z</time></trkpt><trkpt lat="40.9247217" lon="0.07551"><ele>535.0</ele><time>2026-03-31T10:27:10.159Z</time></trkpt><trkpt lat="40.92483" lon="0.0755517"><ele>535.0</ele><time>2026-03-31T10:27:11.159Z</time></trkpt><trkpt lat="40.9249383" lon="0.075605"><ele>535.0</ele><time>2026-03-31T10:27:12.16Z</time></trkpt><trkpt lat="40.9250467" lon="0.0756567"><ele>535.8</ele><time>2026-03-31T10:27:13.16Z</time></trkpt><trkpt lat="40.92515" lon="0.07571"><ele>536.6</ele><time>2026-03-31T10:27:14.16Z</time></trkpt><trkpt lat="40.92525" lon="0.0757633"><ele>537.4</ele><time>2026-03-31T10:27:15.16Z</time></trkpt><trkpt lat="40.9253517" lon="0.0758067"><ele>538.2</ele><time>2026-03-31T10:27:16.159Z</time></trkpt><trkpt lat="40.9254467" lon="0.0758367"><ele>539.0</ele><time>2026-03-31T10:27:17.159Z</time></trkpt><trkpt lat="40.925535" lon="0.0758567"><ele>539.0</ele><time>2026-03-31T10:27:18.159Z</time></trkpt><trkpt lat="40.92563" lon="0.0758817"><ele>539.0</ele><time>2026-03-31T10:27:19.16Z</time></trkpt><trkpt lat="40.9257283" lon="0.0759"><ele>539.0</ele><time>2026-03-31T10:27:20.16Z</time></trkpt><trkpt lat="40.9258333" lon="0.0758717"><ele>539.0</ele><time>2026-03-31T10:27:21.16Z</time></trkpt><trkpt lat="40.9259283" lon="0.0758433"><ele>539.0</ele><time>2026-03-31T10:27:22.16Z</time></trkpt><trkpt lat="40.926015" lon="0.0758317"><ele>539.1666666666666</ele><time>2026-03-31T10:27:23.159Z</time></trkpt><trkpt lat="40.9260967" lon="0.0758117"><ele>539.3333333333333</ele><time>2026-03-31T10:27:24.159Z</time></trkpt><trkpt lat="40.926185" lon="0.0758033"><ele>539.5</ele><time>2026-03-31T10:27:25.159Z</time></trkpt><trkpt lat="40.9262683" lon="0.0758017"><ele>539.6666666666666</ele><time>2026-03-31T10:27:26.159Z</time></trkpt><trkpt lat="40.9263517" lon="0.0757967"><ele>539.8333333333334</ele><time>2026-03-31T10:27:27.159Z</time></trkpt><trkpt lat="40.9264367" lon="0.07579"><ele>540.0</ele><time>2026-03-31T10:27:28.16Z</time></trkpt><trkpt lat="40.92652" lon="0.0757783"><ele>540.0</ele><time>2026-03-31T10:27:29.16Z</time></trkpt><trkpt lat="40.926605" lon="0.0757817"><ele>540.0</ele><time>2026-03-31T10:27:30.159Z</time></trkpt><trkpt lat="40.9266967" lon="0.075785"><ele>540.0</ele><time>2026-03-31T10:27:31.16Z</time></trkpt><trkpt lat="40.92679" lon="0.07578"><ele>540.0</ele><time>2026-03-31T10:27:32.16Z</time></trkpt><trkpt lat="40.9268817" lon="0.0757733"><ele>540.0</ele><time>2026-03-31T10:27:33.16Z</time></trkpt><trkpt lat="40.926975" lon="0.07577"><ele>541.6</ele><time>2026-03-31T10:27:34.16Z</time></trkpt><trkpt lat="40.9270667" lon="0.075765"><ele>543.2</ele><time>2026-03-31T10:27:35.159Z</time></trkpt><trkpt lat="40.92716" lon="0.0757617"><ele>544.8</ele><time>2026-03-31T10:27:36.16Z</time></trkpt><trkpt lat="40.9272583" lon="0.0757467"><ele>546.4</ele><time>2026-03-31T10:27:37.16Z</time></trkpt><trkpt lat="40.92736" lon="0.0757367"><ele>548.0</ele><time>2026-03-31T10:27:38.159Z</time></trkpt><trkpt lat="40.9274633" lon="0.07572"><ele>549.0</ele><time>2026-03-31T10:27:39.159Z</time></trkpt><trkpt lat="40.9275717" lon="0.0757233"><ele>550.0</ele><time>2026-03-31T10:27:40.159Z</time></trkpt><trkpt lat="40.9276817" lon="0.075715"><ele>551.0</ele><time>2026-03-31T10:27:41.159Z</time></trkpt><trkpt lat="40.9277833" lon="0.07572"><ele>552.0</ele><time>2026-03-31T10:27:42.16Z</time></trkpt><trkpt lat="40.9278783" lon="0.0757233"><ele>553.0</ele><time>2026-03-31T10:27:43.159Z</time></trkpt><trkpt lat="40.9279817" lon="0.075755"><ele>551.8</ele><time>2026-03-31T10:27:44.159Z</time></trkpt><trkpt lat="40.9280817" lon="0.0757767"><ele>550.5999999999999</ele><time>2026-03-31T10:27:45.159Z</time></trkpt><trkpt lat="40.9281717" lon="0.0758133"><ele>549.4000000000001</ele><time>2026-03-31T10:27:46.159Z</time></trkpt><trkpt lat="40.9282683" lon="0.0758483"><ele>548.2</ele><time>2026-03-31T10:27:47.159Z</time></trkpt><trkpt lat="40.92837" lon="0.0758817"><ele>547.0</ele><time>2026-03-31T10:27:48.16Z</time></trkpt><trkpt lat="40.9284683" lon="0.0759117"><ele>547.0</ele><time>2026-03-31T10:27:49.159Z</time></trkpt><trkpt lat="40.9285683" lon="0.07595"><ele>547.0</ele><time>2026-03-31T10:27:50.159Z</time></trkpt><trkpt lat="40.9286683" lon="0.0759733"><ele>547.0</ele><time>2026-03-31T10:27:51.159Z</time></trkpt><trkpt lat="40.92876" lon="0.075995"><ele>547.0</ele><time>2026-03-31T10:27:52.159Z</time></trkpt><trkpt lat="40.9288483" lon="0.0760217"><ele>547.0</ele><time>2026-03-31T10:27:53.16Z</time></trkpt><trkpt lat="40.9289367" lon="0.076035"><ele>547.0</ele><time>2026-03-31T10:27:54.16Z</time></trkpt><trkpt lat="40.92903" lon="0.0760633"><ele>547.0</ele><time>2026-03-31T10:27:55.16Z</time></trkpt><trkpt lat="40.92912" lon="0.07609"><ele>547.0</ele><time>2026-03-31T10:27:56.16Z</time></trkpt><trkpt lat="40.9292083" lon="0.0761033"><ele>547.0</ele><time>2026-03-31T10:27:57.159Z</time></trkpt><trkpt lat="40.9292933" lon="0.0761233"><ele>547.0</ele><time>2026-03-31T10:27:58.159Z</time></trkpt><trkpt lat="40.929385" lon="0.076135"><ele>546.4</ele><time>2026-03-31T10:27:59.159Z</time></trkpt><trkpt lat="40.92947" lon="0.0761283"><ele>545.8000000000001</ele><time>2026-03-31T10:28:00.159Z</time></trkpt><trkpt lat="40.9295567" lon="0.07612"><ele>545.2</ele><time>2026-03-31T10:28:01.159Z</time></trkpt><trkpt lat="40.9296483" lon="0.0760983"><ele>544.6</ele><time>2026-03-31T10:28:02.159Z</time></trkpt><trkpt lat="40.9297533" lon="0.0760733"><ele>544.0</ele><time>2026-03-31T10:28:03.16Z</time></trkpt><trkpt lat="40.92985" lon="0.07605"><ele>544.0</ele><time>2026-03-31T10:28:04.16Z</time></trkpt><trkpt lat="40.929945" lon="0.0760217"><ele>544.0</ele><time>2026-03-31T10:28:05.16Z</time></trkpt><trkpt lat="40.93003" lon="0.0759717"><ele>544.0</ele><time>2026-03-31T10:28:06.159Z</time></trkpt><trkpt lat="40.9301117" lon="0.0759417"><ele>544.0</ele><time>2026-03-31T10:28:07.159Z</time></trkpt><trkpt lat="40.9302" lon="0.07588"><ele>544.0</ele><time>2026-03-31T10:28:08.159Z</time></trkpt><trkpt lat="40.93029" lon="0.0758033"><ele>542.4</ele><time>2026-03-31T10:28:09.16Z</time></trkpt><trkpt lat="40.9303567" lon="0.0757067"><ele>540.8</ele><time>2026-03-31T10:28:10.159Z</time></trkpt><trkpt lat="40.9304083" lon="0.0755983"><ele>539.2</ele><time>2026-03-31T10:28:11.159Z</time></trkpt><trkpt lat="40.9304567" lon="0.075495"><ele>537.6</ele><time>2026-03-31T10:28:12.16Z</time></trkpt><trkpt lat="40.93051" lon="0.07539"><ele>536.0</ele><time>2026-03-31T10:28:13.159Z</time></trkpt><trkpt lat="40.9305567" lon="0.0752833"><ele>536.0</ele><time>2026-03-31T10:28:14.16Z</time></trkpt><trkpt lat="40.9306183" lon="0.0751717"><ele>536.0</ele><time>2026-03-31T10:28:15.159Z</time></trkpt><trkpt lat="40.930685" lon="0.0750533"><ele>536.0</ele><time>2026-03-31T10:28:16.16Z</time></trkpt><trkpt lat="40.9307667" lon="0.0749467"><ele>536.0</ele><time>2026-03-31T10:28:17.159Z</time></trkpt><trkpt lat="40.930855" lon="0.0748433"><ele>536.0</ele><time>2026-03-31T10:28:18.159Z</time></trkpt><trkpt lat="40.93095" lon="0.0747567"><ele>532.75</ele><time>2026-03-31T10:28:19.159Z</time></trkpt><trkpt lat="40.9310483" lon="0.0746567"><ele>529.5</ele><time>2026-03-31T10:28:20.159Z</time></trkpt><trkpt lat="40.9311583" lon="0.0745533"><ele>526.25</ele><time>2026-03-31T10:28:21.159Z</time></trkpt><trkpt lat="40.9312733" lon="0.0744583"><ele>523.0</ele><time>2026-03-31T10:28:22.159Z</time></trkpt><trkpt lat="40.9313983" lon="0.0743733"><ele>523.0</ele><time>2026-03-31T10:28:23.16Z</time></trkpt><trkpt lat="40.931525" lon="0.0742983"><ele>523.0</ele><time>2026-03-31T10:28:24.159Z</time></trkpt><trkpt lat="40.9316717" lon="0.07424"><ele>523.0</ele><time>2026-03-31T10:28:25.159Z</time></trkpt><trkpt lat="40.9318267" lon="0.074195"><ele>520.3333333333334</ele><time>2026-03-31T10:28:26.159Z</time></trkpt><trkpt lat="40.931985" lon="0.0741633"><ele>517.6666666666666</ele><time>2026-03-31T10:28:27.159Z</time></trkpt><trkpt lat="40.93214" lon="0.0741367"><ele>515.0</ele><time>2026-03-31T10:28:28.159Z</time></trkpt><trkpt lat="40.9323033" lon="0.07411"><ele>515.6666666666666</ele><time>2026-03-31T10:28:29.16Z</time></trkpt><trkpt lat="40.9324683" lon="0.0740883"><ele>516.3333333333334</ele><time>2026-03-31T10:28:30.16Z</time></trkpt><trkpt lat="40.9326367" lon="0.07406"><ele>517.0</ele><time>2026-03-31T10:28:31.159Z</time></trkpt><trkpt lat="40.9328033" lon="0.074035"><ele>515.3333333333334</ele><time>2026-03-31T10:28:32.159Z</time></trkpt><trkpt lat="40.93297" lon="0.074005"><ele>513.6666666666666</ele><time>2026-03-31T10:28:33.16Z</time></trkpt><trkpt lat="40.9331367" lon="0.073975"><ele>512.0</ele><time>2026-03-31T10:28:34.159Z</time></trkpt><trkpt lat="40.9333067" lon="0.0739367"><ele>510.0</ele><time>2026-03-31T10:28:35.159Z</time></trkpt><trkpt lat="40.9334683" lon="0.07391"><ele>508.0</ele><time>2026-03-31T10:28:36.16Z</time></trkpt><trkpt lat="40.93363" lon="0.0738917"><ele>506.0</ele><time>2026-03-31T10:28:37.159Z</time></trkpt><trkpt lat="40.9337833" lon="0.0738783"><ele>506.0</ele><time>2026-03-31T10:28:38.16Z</time></trkpt><trkpt lat="40.9339383" lon="0.0738583"><ele>506.0</ele><time>2026-03-31T10:28:39.16Z</time></trkpt><trkpt lat="40.9340983" lon="0.0738483"><ele>506.0</ele><time>2026-03-31T10:28:40.16Z</time></trkpt><trkpt lat="40.9342617" lon="0.0738567"><ele>504.3333333333333</ele><time>2026-03-31T10:28:41.159Z</time></trkpt><trkpt lat="40.9344217" lon="0.07388"><ele>502.66666666666663</ele><time>2026-03-31T10:28:42.159Z</time></trkpt><trkpt lat="40.9345833" lon="0.0739117"><ele>501.0</ele><time>2026-03-31T10:28:43.16Z</time></trkpt><trkpt lat="40.93473" lon="0.073945"><ele>501.0</ele><time>2026-03-31T10:28:44.159Z</time></trkpt><trkpt lat="40.934855" lon="0.073975"><ele>501.0</ele><time>2026-03-31T10:28:45.16Z</time></trkpt><trkpt lat="40.9349517" lon="0.0740083"><ele>501.0</ele><time>2026-03-31T10:28:46.16Z</time></trkpt><trkpt lat="40.93502" lon="0.0740433"><ele>501.0</ele><time>2026-03-31T10:28:47.159Z</time></trkpt><trkpt lat="40.9351117" lon="0.0741033"><ele>501.0</ele><time>2026-03-31T10:28:49.16Z</time></trkpt><trkpt lat="40.93521" lon="0.07417"><ele>500.20000000000005</ele><time>2026-03-31T10:29:10.159Z</time></trkpt><trkpt lat="40.9352867" lon="0.0741717"><ele>499.40000000000003</ele><time>2026-03-31T10:29:12.159Z</time></trkpt><trkpt lat="40.93537" lon="0.0741133"><ele>498.6</ele><time>2026-03-31T10:29:14.159Z</time></trkpt><trkpt lat="40.9354483" lon="0.074005"><ele>497.8</ele><time>2026-03-31T10:29:16.16Z</time></trkpt><trkpt lat="40.9355433" lon="0.0738883"><ele>497.0</ele><time>2026-03-31T10:29:18.16Z</time></trkpt><trkpt lat="40.9356067" lon="0.0738267"><ele>496.99999999999994</ele><time>2026-03-31T10:29:19.159Z</time></trkpt><trkpt lat="40.9356683" lon="0.0737567"><ele>497.0</ele><time>2026-03-31T10:29:20.159Z</time></trkpt><trkpt lat="40.93573" lon="0.0736833"><ele>497.0</ele><time>2026-03-31T10:29:21.159Z</time></trkpt><trkpt lat="40.9357983" lon="0.0736033"><ele>497.0</ele><time>2026-03-31T10:29:22.16Z</time></trkpt><trkpt lat="40.9358633" lon="0.073525"><ele>496.99999999999994</ele><time>2026-03-31T10:29:23.159Z</time></trkpt><trkpt lat="40.9359267" lon="0.0734233"><ele>497.0</ele><time>2026-03-31T10:29:24.16Z</time></trkpt><trkpt lat="40.9359967" lon="0.0733267"><ele>496.0</ele><time>2026-03-31T10:29:25.16Z</time></trkpt><trkpt lat="40.93607" lon="0.0732133"><ele>495.0</ele><time>2026-03-31T10:29:26.16Z</time></trkpt><trkpt lat="40.9361433" lon="0.0730917"><ele>494.0</ele><time>2026-03-31T10:29:27.16Z</time></trkpt><trkpt lat="40.93622" lon="0.072955"><ele>493.0</ele><time>2026-03-31T10:29:28.159Z</time></trkpt><trkpt lat="40.936295" lon="0.0728117"><ele>493.0</ele><time>2026-03-31T10:29:29.159Z</time></trkpt><trkpt lat="40.936365" lon="0.0726567"><ele>493.0</ele><time>2026-03-31T10:29:30.159Z</time></trkpt><trkpt lat="40.9364317" lon="0.0724917"><ele>493.0</ele><time>2026-03-31T10:29:31.16Z</time></trkpt><trkpt lat="40.936495" lon="0.0723317"><ele>493.0</ele><time>2026-03-31T10:29:32.16Z</time></trkpt><trkpt lat="40.9365617" lon="0.07218"><ele>492.0</ele><time>2026-03-31T10:29:33.16Z</time></trkpt><trkpt lat="40.93662" lon="0.072035"><ele>491.0</ele><time>2026-03-31T10:29:34.16Z</time></trkpt><trkpt lat="40.9366717" lon="0.071895"><ele>490.0</ele><time>2026-03-31T10:29:35.16Z</time></trkpt><trkpt lat="40.93672" lon="0.0717433"><ele>489.0</ele><time>2026-03-31T10:29:36.159Z</time></trkpt><trkpt lat="40.9367717" lon="0.0715817"><ele>486.25</ele><time>2026-03-31T10:29:37.16Z</time></trkpt><trkpt lat="40.9368333" lon="0.0714267"><ele>483.5</ele><time>2026-03-31T10:29:38.159Z</time></trkpt><trkpt lat="40.9369083" lon="0.0712767"><ele>480.75</ele><time>2026-03-31T10:29:39.159Z</time></trkpt><trkpt lat="40.9370017" lon="0.07114"><ele>478.0</ele><time>2026-03-31T10:29:40.159Z</time></trkpt><trkpt lat="40.9371067" lon="0.0710083"><ele>478.0</ele><time>2026-03-31T10:29:41.159Z</time></trkpt><trkpt lat="40.937225" lon="0.07087"><ele>478.0</ele><time>2026-03-31T10:29:42.16Z</time></trkpt><trkpt lat="40.93735" lon="0.0707367"><ele>478.0</ele><time>2026-03-31T10:29:43.159Z</time></trkpt><trkpt lat="40.9374783" lon="0.0706167"><ele>475.0</ele><time>2026-03-31T10:29:44.16Z</time></trkpt><trkpt lat="40.9376133" lon="0.07052"><ele>472.0</ele><time>2026-03-31T10:29:45.16Z</time></trkpt><trkpt lat="40.9377717" lon="0.0704367"><ele>469.0</ele><time>2026-03-31T10:29:46.159Z</time></trkpt><trkpt lat="40.9379367" lon="0.0703683"><ele>469.0</ele><time>2026-03-31T10:29:47.159Z</time></trkpt><trkpt lat="40.9381" lon="0.0703133"><ele>469.0</ele><time>2026-03-31T10:29:48.16Z</time></trkpt><trkpt lat="40.93826" lon="0.0702617"><ele>469.0</ele><time>2026-03-31T10:29:49.16Z</time></trkpt><trkpt lat="40.938415" lon="0.0702267"><ele>467.0</ele><time>2026-03-31T10:29:50.159Z</time></trkpt><trkpt lat="40.93857" lon="0.0701867"><ele>465.0</ele><time>2026-03-31T10:29:51.159Z</time></trkpt><trkpt lat="40.93872" lon="0.0701417"><ele>463.0</ele><time>2026-03-31T10:29:52.16Z</time></trkpt><trkpt lat="40.9388667" lon="0.0701017"><ele>463.0</ele><time>2026-03-31T10:29:53.16Z</time></trkpt><trkpt lat="40.9389933" lon="0.0700667"><ele>463.0</ele><time>2026-03-31T10:29:54.159Z</time></trkpt><trkpt lat="40.9390733" lon="0.0700467"><ele>463.0</ele><time>2026-03-31T10:29:55.16Z</time></trkpt><trkpt lat="40.9391467" lon="0.07007"><ele>463.0</ele><time>2026-03-31T10:29:58.159Z</time></trkpt></trkseg><trkseg><trkpt lat="40.9394583" lon="0.0704"><ele>460.00000000000006</ele><time>2026-03-31T10:40:25.158Z</time></trkpt><trkpt lat="40.939385" lon="0.070355"><ele>460.0</ele><time>2026-03-31T10:40:41.159Z</time></trkpt><trkpt lat="40.939315" lon="0.07028"><ele>460.0</ele><time>2026-03-31T10:40:43.158Z</time></trkpt><trkpt lat="40.93924" lon="0.0701767"><ele>460.0</ele><time>2026-03-31T10:40:45.158Z</time></trkpt><trkpt lat="40.9391967" lon="0.0700933"><ele>460.00000000000006</ele><time>2026-03-31T10:40:47.158Z</time></trkpt><trkpt lat="40.9391317" lon="0.07004"><ele>460.0</ele><time>2026-03-31T10:40:52.159Z</time></trkpt><trkpt lat="40.9389983" lon="0.070045"><ele>460.75</ele><time>2026-03-31T10:40:54.158Z</time></trkpt><trkpt lat="40.9389067" lon="0.0700733"><ele>461.5</ele><time>2026-03-31T10:40:55.159Z</time></trkpt><trkpt lat="40.9388" lon="0.0701133"><ele>462.25</ele><time>2026-03-31T10:40:56.159Z</time></trkpt><trkpt lat="40.93868" lon="0.070145"><ele>463.0</ele><time>2026-03-31T10:40:57.158Z</time></trkpt><trkpt lat="40.9385467" lon="0.0701733"><ele>463.0</ele><time>2026-03-31T10:40:58.159Z</time></trkpt><trkpt lat="40.9384067" lon="0.0702133"><ele>463.0</ele><time>2026-03-31T10:40:59.158Z</time></trkpt><trkpt lat="40.938265" lon="0.0702417"><ele>463.0</ele><time>2026-03-31T10:41:00.158Z</time></trkpt><trkpt lat="40.9381167" lon="0.07028"><ele>463.0</ele><time>2026-03-31T10:41:01.158Z</time></trkpt><trkpt lat="40.9379667" lon="0.0703283"><ele>465.0</ele><time>2026-03-31T10:41:02.158Z</time></trkpt><trkpt lat="40.9378117" lon="0.07038"><ele>467.0</ele><time>2026-03-31T10:41:03.158Z</time></trkpt><trkpt lat="40.937655" lon="0.070455"><ele>469.0</ele><time>2026-03-31T10:41:04.158Z</time></trkpt><trkpt lat="40.93751" lon="0.0705517"><ele>472.0</ele><time>2026-03-31T10:41:05.159Z</time></trkpt><trkpt lat="40.9373667" lon="0.0706667"><ele>475.0</ele><time>2026-03-31T10:41:06.158Z</time></trkpt><trkpt lat="40.9372333" lon="0.0707983"><ele>478.0</ele><time>2026-03-31T10:41:07.158Z</time></trkpt><trkpt lat="40.937095" lon="0.0709533"><ele>478.0</ele><time>2026-03-31T10:41:08.158Z</time></trkpt><trkpt lat="40.93697" lon="0.0711283"><ele>478.0</ele><time>2026-03-31T10:41:09.158Z</time></trkpt><trkpt lat="40.936845" lon="0.071315"><ele>478.0</ele><time>2026-03-31T10:41:10.158Z</time></trkpt><trkpt lat="40.936745" lon="0.0715317"><ele>481.6666666666667</ele><time>2026-03-31T10:41:11.159Z</time></trkpt><trkpt lat="40.9366617" lon="0.0717533"><ele>485.33333333333337</ele><time>2026-03-31T10:41:12.159Z</time></trkpt><trkpt lat="40.9365883" lon="0.0719817"><ele>489.0</ele><time>2026-03-31T10:41:13.159Z</time></trkpt><trkpt lat="40.936515" lon="0.072215"><ele>489.0</ele><time>2026-03-31T10:41:14.158Z</time></trkpt><trkpt lat="40.936435" lon="0.0724383"><ele>489.0</ele><time>2026-03-31T10:41:15.159Z</time></trkpt><trkpt lat="40.936355" lon="0.0726567"><ele>489.0</ele><time>2026-03-31T10:41:16.158Z</time></trkpt><trkpt lat="40.9362533" lon="0.0728767"><ele>490.33333333333337</ele><time>2026-03-31T10:41:17.159Z</time></trkpt><trkpt lat="40.9361367" lon="0.0730833"><ele>491.6666666666667</ele><time>2026-03-31T10:41:18.158Z</time></trkpt><trkpt lat="40.936005" lon="0.0732867"><ele>493.0</ele><time>2026-03-31T10:41:19.158Z</time></trkpt><trkpt lat="40.9358667" lon="0.0734883"><ele>494.33333333333337</ele><time>2026-03-31T10:41:20.159Z</time></trkpt><trkpt lat="40.9357117" lon="0.0736783"><ele>495.66666666666663</ele><time>2026-03-31T10:41:21.158Z</time></trkpt><trkpt lat="40.93557" lon="0.0738683"><ele>497.0</ele><time>2026-03-31T10:41:22.158Z</time></trkpt><trkpt lat="40.935425" lon="0.074055"><ele>497.0</ele><time>2026-03-31T10:41:23.158Z</time></trkpt><trkpt lat="40.9352767" lon="0.0742417"><ele>497.0</ele><time>2026-03-31T10:41:24.158Z</time></trkpt><trkpt lat="40.935125" lon="0.0744333"><ele>497.0</ele><time>2026-03-31T10:41:25.158Z</time></trkpt><trkpt lat="40.9349783" lon="0.0746367"><ele>497.3333333333333</ele><time>2026-03-31T10:41:26.158Z</time></trkpt><trkpt lat="40.93482" lon="0.0748333"><ele>497.66666666666663</ele><time>2026-03-31T10:41:27.159Z</time></trkpt><trkpt lat="40.9346583" lon="0.0750483"><ele>498.0</ele><time>2026-03-31T10:41:28.159Z</time></trkpt><trkpt lat="40.9344933" lon="0.0752533"><ele>497.0</ele><time>2026-03-31T10:41:29.159Z</time></trkpt><trkpt lat="40.9343317" lon="0.0754567"><ele>496.0</ele><time>2026-03-31T10:41:30.158Z</time></trkpt><trkpt lat="40.9341667" lon="0.0756683"><ele>496.0</ele><time>2026-03-31T10:41:31.159Z</time></trkpt><trkpt lat="40.933995" lon="0.0758767"><ele>496.0</ele><time>2026-03-31T10:41:32.158Z</time></trkpt><trkpt lat="40.93383" lon="0.076085"><ele>496.0</ele><time>2026-03-31T10:41:33.158Z</time></trkpt><trkpt lat="40.9336617" lon="0.076295"><ele>496.0</ele><time>2026-03-31T10:41:34.158Z</time></trkpt><trkpt lat="40.9334933" lon="0.076505"><ele>498.0</ele><time>2026-03-31T10:41:35.159Z</time></trkpt><trkpt lat="40.9333233" lon="0.07672"><ele>500.0</ele><time>2026-03-31T10:41:36.158Z</time></trkpt><trkpt lat="40.9331633" lon="0.0769367"><ele>500.0</ele><time>2026-03-31T10:41:37.159Z</time></trkpt><trkpt lat="40.9329867" lon="0.07715"><ele>500.0</ele><time>2026-03-31T10:41:38.158Z</time></trkpt><trkpt lat="40.9328133" lon="0.077365"><ele>500.0</ele><time>2026-03-31T10:41:39.159Z</time></trkpt><trkpt lat="40.932645" lon="0.0775767"><ele>500.0</ele><time>2026-03-31T10:41:40.159Z</time></trkpt><trkpt lat="40.9324733" lon="0.0777983"><ele>501.5</ele><time>2026-03-31T10:41:41.158Z</time></trkpt><trkpt lat="40.9323067" lon="0.0780183"><ele>503.0</ele><time>2026-03-31T10:41:42.159Z</time></trkpt><trkpt lat="40.93214" lon="0.0782317"><ele>501.5</ele><time>2026-03-31T10:41:43.158Z</time></trkpt><trkpt lat="40.9319733" lon="0.078445"><ele>500.0</ele><time>2026-03-31T10:41:44.158Z</time></trkpt><trkpt lat="40.9318117" lon="0.078655"><ele>506.5</ele><time>2026-03-31T10:41:45.159Z</time></trkpt><trkpt lat="40.9316383" lon="0.0788633"><ele>513.0</ele><time>2026-03-31T10:41:46.159Z</time></trkpt><trkpt lat="40.93147" lon="0.07907"><ele>510.5</ele><time>2026-03-31T10:41:47.158Z</time></trkpt><trkpt lat="40.931305" lon="0.079285"><ele>508.0</ele><time>2026-03-31T10:41:48.158Z</time></trkpt><trkpt lat="40.9311433" lon="0.0795067"><ele>508.0</ele><time>2026-03-31T10:41:49.158Z</time></trkpt><trkpt lat="40.9309833" lon="0.079715"><ele>508.0</ele><time>2026-03-31T10:41:50.159Z</time></trkpt><trkpt lat="40.930835" lon="0.0799167"><ele>508.0</ele><time>2026-03-31T10:41:51.159Z</time></trkpt><trkpt lat="40.9306867" lon="0.080105"><ele>508.6666666666667</ele><time>2026-03-31T10:41:52.159Z</time></trkpt><trkpt lat="40.9305433" lon="0.0802883"><ele>509.33333333333337</ele><time>2026-03-31T10:41:53.158Z</time></trkpt><trkpt lat="40.9304" lon="0.080475"><ele>510.0</ele><time>2026-03-31T10:41:54.158Z</time></trkpt><trkpt lat="40.93026" lon="0.0806583"><ele>511.33333333333337</ele><time>2026-03-31T10:41:55.158Z</time></trkpt><trkpt lat="40.9301233" lon="0.0808367"><ele>512.6666666666667</ele><time>2026-03-31T10:41:56.158Z</time></trkpt><trkpt lat="40.9299867" lon="0.0810133"><ele>514.0</ele><time>2026-03-31T10:41:57.158Z</time></trkpt><trkpt lat="40.92986" lon="0.0811817"><ele>514.0</ele><time>2026-03-31T10:41:58.159Z</time></trkpt><trkpt lat="40.9297283" lon="0.0813383"><ele>514.0</ele><time>2026-03-31T10:41:59.159Z</time></trkpt><trkpt lat="40.9296067" lon="0.0815"><ele>514.0</ele><time>2026-03-31T10:42:00.158Z</time></trkpt><trkpt lat="40.9294883" lon="0.0816467"><ele>513.6666666666667</ele><time>2026-03-31T10:42:01.159Z</time></trkpt><trkpt lat="40.92936" lon="0.08177"><ele>513.3333333333334</ele><time>2026-03-31T10:42:02.158Z</time></trkpt><trkpt lat="40.9292283" lon="0.08189"><ele>513.0</ele><time>2026-03-31T10:42:03.158Z</time></trkpt><trkpt lat="40.9291033" lon="0.0819917"><ele>513.0</ele><time>2026-03-31T10:42:04.158Z</time></trkpt><trkpt lat="40.9289667" lon="0.08207"><ele>513.0</ele><time>2026-03-31T10:42:05.158Z</time></trkpt><trkpt lat="40.928825" lon="0.0821467"><ele>513.0</ele><time>2026-03-31T10:42:06.159Z</time></trkpt><trkpt lat="40.9286967" lon="0.082205"><ele>513.0</ele><time>2026-03-31T10:42:07.159Z</time></trkpt><trkpt lat="40.92859" lon="0.0822383"><ele>513.0</ele><time>2026-03-31T10:42:08.159Z</time></trkpt><trkpt lat="40.9285067" lon="0.0822517"><ele>513.0</ele><time>2026-03-31T10:42:09.158Z</time></trkpt><trkpt lat="40.9284417" lon="0.08225"><ele>513.0</ele><time>2026-03-31T10:42:10.158Z</time></trkpt><trkpt lat="40.928345" lon="0.0823183"><ele>513.0</ele><time>2026-03-31T10:42:12.157Z</time></trkpt><trkpt lat="40.928305" lon="0.0824917"><ele>513.0</ele><time>2026-03-31T10:42:14.158Z</time></trkpt><trkpt lat="40.9283067" lon="0.0826333"><ele>512.5</ele><time>2026-03-31T10:42:15.158Z</time></trkpt><trkpt lat="40.9283167" lon="0.0828033"><ele>512.0</ele><time>2026-03-31T10:42:16.157Z</time></trkpt><trkpt lat="40.928335" lon="0.0829867"><ele>511.5</ele><time>2026-03-31T10:42:17.157Z</time></trkpt><trkpt lat="40.9283783" lon="0.08317"><ele>511.0</ele><time>2026-03-31T10:42:18.158Z</time></trkpt><trkpt lat="40.92846" lon="0.0833483"><ele>509.33333333333337</ele><time>2026-03-31T10:42:19.158Z</time></trkpt><trkpt lat="40.9285517" lon="0.0835317"><ele>507.66666666666663</ele><time>2026-03-31T10:42:20.157Z</time></trkpt><trkpt lat="40.9286517" lon="0.0837183"><ele>506.0</ele><time>2026-03-31T10:42:21.158Z</time></trkpt><trkpt lat="40.9287483" lon="0.0839167"><ele>506.0</ele><time>2026-03-31T10:42:22.158Z</time></trkpt><trkpt lat="40.9288533" lon="0.0841117"><ele>506.0</ele><time>2026-03-31T10:42:23.158Z</time></trkpt><trkpt lat="40.92896" lon="0.0843167"><ele>506.0</ele><time>2026-03-31T10:42:24.157Z</time></trkpt><trkpt lat="40.929055" lon="0.084525"><ele>506.0</ele><time>2026-03-31T10:42:25.157Z</time></trkpt><trkpt lat="40.9291433" lon="0.0847267"><ele>506.0</ele><time>2026-03-31T10:42:26.157Z</time></trkpt><trkpt lat="40.9292317" lon="0.0849367"><ele>506.0</ele><time>2026-03-31T10:42:27.157Z</time></trkpt><trkpt lat="40.9293033" lon="0.08515"><ele>505.3333333333333</ele><time>2026-03-31T10:42:28.157Z</time></trkpt><trkpt lat="40.9293833" lon="0.0853633"><ele>504.66666666666663</ele><time>2026-03-31T10:42:29.158Z</time></trkpt><trkpt lat="40.9294667" lon="0.0855817"><ele>504.0</ele><time>2026-03-31T10:42:30.157Z</time></trkpt><trkpt lat="40.929545" lon="0.0857983"><ele>503.33333333333337</ele><time>2026-03-31T10:42:31.158Z</time></trkpt><trkpt lat="40.929615" lon="0.0860183"><ele>502.6666666666667</ele><time>2026-03-31T10:42:32.157Z</time></trkpt><trkpt lat="40.9296667" lon="0.086245"><ele>502.0</ele><time>2026-03-31T10:42:33.157Z</time></trkpt><trkpt lat="40.929695" lon="0.0864933"><ele>500.6666666666667</ele><time>2026-03-31T10:42:34.157Z</time></trkpt><trkpt lat="40.9297167" lon="0.0867433"><ele>499.33333333333337</ele><time>2026-03-31T10:42:35.157Z</time></trkpt><trkpt lat="40.92973" lon="0.0870117"><ele>498.0</ele><time>2026-03-31T10:42:36.157Z</time></trkpt><trkpt lat="40.92974" lon="0.0872817"><ele>498.0</ele><time>2026-03-31T10:42:37.157Z</time></trkpt><trkpt lat="40.9297583" lon="0.0875517"><ele>498.0</ele><time>2026-03-31T10:42:38.158Z</time></trkpt><trkpt lat="40.9297733" lon="0.0878183"><ele>498.0</ele><time>2026-03-31T10:42:39.158Z</time></trkpt><trkpt lat="40.92978" lon="0.0880883"><ele>498.0</ele><time>2026-03-31T10:42:40.157Z</time></trkpt><trkpt lat="40.9297817" lon="0.08836"><ele>498.0</ele><time>2026-03-31T10:42:41.157Z</time></trkpt><trkpt lat="40.929775" lon="0.088625"><ele>498.0</ele><time>2026-03-31T10:42:42.158Z</time></trkpt><trkpt lat="40.9297733" lon="0.0888883"><ele>499.0</ele><time>2026-03-31T10:42:43.157Z</time></trkpt><trkpt lat="40.9297633" lon="0.089155"><ele>500.0</ele><time>2026-03-31T10:42:44.158Z</time></trkpt><trkpt lat="40.929755" lon="0.08941"><ele>501.0</ele><time>2026-03-31T10:42:45.158Z</time></trkpt><trkpt lat="40.9297483" lon="0.0896667"><ele>501.0</ele><time>2026-03-31T10:42:46.157Z</time></trkpt><trkpt lat="40.9297283" lon="0.0899067"><ele>501.0</ele><time>2026-03-31T10:42:47.157Z</time></trkpt><trkpt lat="40.9296817" lon="0.090145"><ele>501.0</ele><time>2026-03-31T10:42:48.157Z</time></trkpt><trkpt lat="40.92962" lon="0.0903683"><ele>500.66666666666663</ele><time>2026-03-31T10:42:49.157Z</time></trkpt><trkpt lat="40.9295417" lon="0.0905933"><ele>500.3333333333333</ele><time>2026-03-31T10:42:50.158Z</time></trkpt><trkpt lat="40.9294633" lon="0.0908183"><ele>500.0</ele><time>2026-03-31T10:42:51.157Z</time></trkpt><trkpt lat="40.929385" lon="0.091055"><ele>500.66666666666663</ele><time>2026-03-31T10:42:52.158Z</time></trkpt><trkpt lat="40.9293133" lon="0.0912817"><ele>501.33333333333337</ele><time>2026-03-31T10:42:53.158Z</time></trkpt><trkpt lat="40.92925" lon="0.0915217"><ele>502.0</ele><time>2026-03-31T10:42:54.158Z</time></trkpt><trkpt lat="40.92919" lon="0.09177"><ele>502.0</ele><time>2026-03-31T10:42:55.158Z</time></trkpt><trkpt lat="40.9291267" lon="0.0920067"><ele>502.0</ele><time>2026-03-31T10:42:56.158Z</time></trkpt><trkpt lat="40.929065" lon="0.0922317"><ele>502.0</ele><time>2026-03-31T10:42:57.157Z</time></trkpt><trkpt lat="40.9290017" lon="0.0924483"><ele>501.6666666666667</ele><time>2026-03-31T10:42:58.157Z</time></trkpt><trkpt lat="40.9289483" lon="0.0926567"><ele>501.33333333333337</ele><time>2026-03-31T10:42:59.157Z</time></trkpt><trkpt lat="40.9289" lon="0.0928617"><ele>501.0</ele><time>2026-03-31T10:43:00.157Z</time></trkpt><trkpt lat="40.9288683" lon="0.093075"><ele>499.33333333333337</ele><time>2026-03-31T10:43:01.157Z</time></trkpt><trkpt lat="40.9288633" lon="0.0932933"><ele>497.6666666666667</ele><time>2026-03-31T10:43:02.157Z</time></trkpt><trkpt lat="40.9288717" lon="0.0935233"><ele>496.0</ele><time>2026-03-31T10:43:03.157Z</time></trkpt><trkpt lat="40.9289067" lon="0.0937483"><ele>496.0</ele><time>2026-03-31T10:43:04.157Z</time></trkpt><trkpt lat="40.9289583" lon="0.093975"><ele>496.0</ele><time>2026-03-31T10:43:05.157Z</time></trkpt><trkpt lat="40.9290383" lon="0.094195"><ele>496.0</ele><time>2026-03-31T10:43:06.158Z</time></trkpt><trkpt lat="40.9291383" lon="0.0943933"><ele>494.6666666666667</ele><time>2026-03-31T10:43:07.157Z</time></trkpt><trkpt lat="40.929245" lon="0.094585"><ele>493.33333333333337</ele><time>2026-03-31T10:43:08.157Z</time></trkpt><trkpt lat="40.9293583" lon="0.09476"><ele>492.0</ele><time>2026-03-31T10:43:09.157Z</time></trkpt><trkpt lat="40.9294583" lon="0.09494"><ele>491.5</ele><time>2026-03-31T10:43:10.158Z</time></trkpt><trkpt lat="40.9295083" lon="0.0951167"><ele>491.0</ele><time>2026-03-31T10:43:11.158Z</time></trkpt><trkpt lat="40.9295117" lon="0.0952933"><ele>490.5</ele><time>2026-03-31T10:43:12.158Z</time></trkpt><trkpt lat="40.929475" lon="0.0954667"><ele>490.0</ele><time>2026-03-31T10:43:13.157Z</time></trkpt><trkpt lat="40.929405" lon="0.0956483"><ele>491.0</ele><time>2026-03-31T10:43:14.157Z</time></trkpt><trkpt lat="40.929325" lon="0.09584"><ele>492.0</ele><time>2026-03-31T10:43:15.158Z</time></trkpt><trkpt lat="40.9292533" lon="0.0960283"><ele>493.0</ele><time>2026-03-31T10:43:16.157Z</time></trkpt><trkpt lat="40.929185" lon="0.0962217"><ele>488.33333333333337</ele><time>2026-03-31T10:43:17.158Z</time></trkpt><trkpt lat="40.9291083" lon="0.096405"><ele>483.66666666666663</ele><time>2026-03-31T10:43:18.157Z</time></trkpt><trkpt lat="40.92903" lon="0.09659"><ele>479.0</ele><time>2026-03-31T10:43:19.158Z</time></trkpt><trkpt lat="40.928945" lon="0.0967417"><ele>479.0</ele><time>2026-03-31T10:43:20.158Z</time></trkpt><trkpt lat="40.9288333" lon="0.096875"><ele>479.0</ele><time>2026-03-31T10:43:21.158Z</time></trkpt><trkpt lat="40.9287167" lon="0.0969983"><ele>479.0</ele><time>2026-03-31T10:43:22.157Z</time></trkpt><trkpt lat="40.9286017" lon="0.0971167"><ele>479.0</ele><time>2026-03-31T10:43:23.157Z</time></trkpt><trkpt lat="40.9285067" lon="0.0972583"><ele>481.66666666666663</ele><time>2026-03-31T10:43:24.157Z</time></trkpt><trkpt lat="40.9284367" lon="0.0974283"><ele>484.33333333333337</ele><time>2026-03-31T10:43:25.158Z</time></trkpt><trkpt lat="40.92839" lon="0.0976233"><ele>487.0</ele><time>2026-03-31T10:43:26.158Z</time></trkpt><trkpt lat="40.9283717" lon="0.0978417"><ele>480.33333333333337</ele><time>2026-03-31T10:43:27.158Z</time></trkpt><trkpt lat="40.9283667" lon="0.09807"><ele>473.66666666666663</ele><time>2026-03-31T10:43:28.158Z</time></trkpt><trkpt lat="40.92835" lon="0.098305"><ele>467.0</ele><time>2026-03-31T10:43:29.158Z</time></trkpt><trkpt lat="40.9283267" lon="0.0985433"><ele>466.66666666666663</ele><time>2026-03-31T10:43:30.158Z</time></trkpt><trkpt lat="40.9283133" lon="0.0987867"><ele>466.33333333333337</ele><time>2026-03-31T10:43:31.157Z</time></trkpt><trkpt lat="40.9283033" lon="0.0990133"><ele>466.0</ele><time>2026-03-31T10:43:32.157Z</time></trkpt><trkpt lat="40.928305" lon="0.09924"><ele>464.33333333333337</ele><time>2026-03-31T10:43:33.157Z</time></trkpt><trkpt lat="40.92833" lon="0.0994717"><ele>462.66666666666663</ele><time>2026-03-31T10:43:34.157Z</time></trkpt><trkpt lat="40.9283733" lon="0.099695"><ele>461.0</ele><time>2026-03-31T10:43:35.158Z</time></trkpt><trkpt lat="40.928425" lon="0.0999233"><ele>465.3333333333333</ele><time>2026-03-31T10:43:36.158Z</time></trkpt><trkpt lat="40.9284733" lon="0.1001467"><ele>469.66666666666663</ele><time>2026-03-31T10:43:37.158Z</time></trkpt><trkpt lat="40.9285283" lon="0.10038"><ele>474.0</ele><time>2026-03-31T10:43:38.157Z</time></trkpt><trkpt lat="40.9285733" lon="0.1005767"><ele>474.0</ele><time>2026-03-31T10:43:39.158Z</time></trkpt><trkpt lat="40.9286167" lon="0.1007217"><ele>474.0</ele><time>2026-03-31T10:43:40.158Z</time></trkpt><trkpt lat="40.928675" lon="0.10086"><ele>474.0</ele><time>2026-03-31T10:43:41.158Z</time></trkpt><trkpt lat="40.92875" lon="0.1009517"><ele>474.0</ele><time>2026-03-31T10:43:42.157Z</time></trkpt><trkpt lat="40.9288667" lon="0.1010233"><ele>471.75</ele><time>2026-03-31T10:43:43.157Z</time></trkpt><trkpt lat="40.92899" lon="0.1010967"><ele>469.5</ele><time>2026-03-31T10:43:44.158Z</time></trkpt><trkpt lat="40.929125" lon="0.1011717"><ele>467.25</ele><time>2026-03-31T10:43:45.158Z</time></trkpt><trkpt lat="40.9292467" lon="0.1012517"><ele>465.0</ele><time>2026-03-31T10:43:46.158Z</time></trkpt><trkpt lat="40.9293633" lon="0.1013133"><ele>468.8</ele><time>2026-03-31T10:43:47.157Z</time></trkpt><trkpt lat="40.9294467" lon="0.1013833"><ele>472.6</ele><time>2026-03-31T10:43:48.157Z</time></trkpt><trkpt lat="40.9295033" lon="0.10147"><ele>476.4</ele><time>2026-03-31T10:43:49.158Z</time></trkpt><trkpt lat="40.9295433" lon="0.1015817"><ele>480.2</ele><time>2026-03-31T10:43:50.158Z</time></trkpt><trkpt lat="40.9295567" lon="0.1017133"><ele>484.0</ele><time>2026-03-31T10:43:51.157Z</time></trkpt><trkpt lat="40.929555" lon="0.1018667"><ele>474.5</ele><time>2026-03-31T10:43:52.157Z</time></trkpt><trkpt lat="40.92954" lon="0.1020283"><ele>465.0</ele><time>2026-03-31T10:43:53.157Z</time></trkpt><trkpt lat="40.9295417" lon="0.1022017"><ele>455.5</ele><time>2026-03-31T10:43:54.157Z</time></trkpt><trkpt lat="40.929535" lon="0.1023867"><ele>446.0</ele><time>2026-03-31T10:43:55.157Z</time></trkpt><trkpt lat="40.929535" lon="0.1025733"><ele>442.25</ele><time>2026-03-31T10:43:56.157Z</time></trkpt><trkpt lat="40.92954" lon="0.1027517"><ele>438.5</ele><time>2026-03-31T10:43:57.157Z</time></trkpt><trkpt lat="40.9295517" lon="0.102925"><ele>434.75</ele><time>2026-03-31T10:43:58.158Z</time></trkpt><trkpt lat="40.929555" lon="0.1031"><ele>431.0</ele><time>2026-03-31T10:43:59.158Z</time></trkpt><trkpt lat="40.9295667" lon="0.10329"><ele>429.66666666666663</ele><time>2026-03-31T10:44:00.157Z</time></trkpt><trkpt lat="40.9295683" lon="0.1034933"><ele>428.33333333333337</ele><time>2026-03-31T10:44:01.157Z</time></trkpt><trkpt lat="40.9295733" lon="0.1037033"><ele>427.0</ele><time>2026-03-31T10:44:02.157Z</time></trkpt><trkpt lat="40.929575" lon="0.1039183"><ele>426.0</ele><time>2026-03-31T10:44:03.158Z</time></trkpt><trkpt lat="40.9295783" lon="0.1041283"><ele>425.0</ele><time>2026-03-31T10:44:04.158Z</time></trkpt><trkpt lat="40.9295817" lon="0.1043417"><ele>424.0</ele><time>2026-03-31T10:44:05.157Z</time></trkpt><trkpt lat="40.92959" lon="0.1045483"><ele>424.0</ele><time>2026-03-31T10:44:06.157Z</time></trkpt><trkpt lat="40.9295883" lon="0.104755"><ele>424.0</ele><time>2026-03-31T10:44:07.158Z</time></trkpt><trkpt lat="40.9295967" lon="0.1049517"><ele>424.0</ele><time>2026-03-31T10:44:08.157Z</time></trkpt><trkpt lat="40.9295967" lon="0.10513"><ele>424.0</ele><time>2026-03-31T10:44:09.157Z</time></trkpt><trkpt lat="40.9296017" lon="0.10529"><ele>424.4</ele><time>2026-03-31T10:44:10.157Z</time></trkpt><trkpt lat="40.9296083" lon="0.10544"><ele>424.79999999999995</ele><time>2026-03-31T10:44:11.158Z</time></trkpt><trkpt lat="40.9296367" lon="0.1055717"><ele>425.20000000000005</ele><time>2026-03-31T10:44:12.157Z</time></trkpt><trkpt lat="40.9296767" lon="0.1056983"><ele>425.6</ele><time>2026-03-31T10:44:13.157Z</time></trkpt><trkpt lat="40.9297483" lon="0.105805"><ele>426.0</ele><time>2026-03-31T10:44:14.157Z</time></trkpt><trkpt lat="40.9298417" lon="0.1058883"><ele>428.0</ele><time>2026-03-31T10:44:15.158Z</time></trkpt><trkpt lat="40.9299533" lon="0.1059633"><ele>430.0</ele><time>2026-03-31T10:44:16.157Z</time></trkpt><trkpt lat="40.93007" lon="0.106035"><ele>432.0</ele><time>2026-03-31T10:44:17.157Z</time></trkpt><trkpt lat="40.9301833" lon="0.1061133"><ele>434.0</ele><time>2026-03-31T10:44:18.157Z</time></trkpt><trkpt lat="40.930295" lon="0.106195"><ele>434.0</ele><time>2026-03-31T10:44:19.158Z</time></trkpt><trkpt lat="40.9304167" lon="0.106275"><ele>434.0</ele><time>2026-03-31T10:44:20.157Z</time></trkpt><trkpt lat="40.9305433" lon="0.1063583"><ele>434.0</ele><time>2026-03-31T10:44:21.158Z</time></trkpt><trkpt lat="40.930675" lon="0.1064467"><ele>434.0</ele><time>2026-03-31T10:44:22.157Z</time></trkpt><trkpt lat="40.9308017" lon="0.10654"><ele>435.0</ele><time>2026-03-31T10:44:23.157Z</time></trkpt><trkpt lat="40.9309317" lon="0.1066367"><ele>436.0</ele><time>2026-03-31T10:44:24.158Z</time></trkpt><trkpt lat="40.93106" lon="0.1067367"><ele>437.0</ele><time>2026-03-31T10:44:25.158Z</time></trkpt><trkpt lat="40.931185" lon="0.1068233"><ele>438.0</ele><time>2026-03-31T10:44:26.157Z</time></trkpt><trkpt lat="40.9313117" lon="0.1069167"><ele>438.0</ele><time>2026-03-31T10:44:27.158Z</time></trkpt><trkpt lat="40.9314317" lon="0.106995"><ele>438.0</ele><time>2026-03-31T10:44:28.157Z</time></trkpt><trkpt lat="40.9315483" lon="0.1070917"><ele>438.0</ele><time>2026-03-31T10:44:29.157Z</time></trkpt><trkpt lat="40.9316433" lon="0.1072017"><ele>438.0</ele><time>2026-03-31T10:44:30.157Z</time></trkpt><trkpt lat="40.931695" lon="0.10734"><ele>441.5</ele><time>2026-03-31T10:44:31.157Z</time></trkpt><trkpt lat="40.9317017" lon="0.1074883"><ele>445.0</ele><time>2026-03-31T10:44:32.158Z</time></trkpt><trkpt lat="40.9316917" lon="0.1076517"><ele>448.5</ele><time>2026-03-31T10:44:33.158Z</time></trkpt><trkpt lat="40.9316633" lon="0.1078333"><ele>452.0</ele><time>2026-03-31T10:44:34.158Z</time></trkpt><trkpt lat="40.9316233" lon="0.10801"><ele>452.0</ele><time>2026-03-31T10:44:35.157Z</time></trkpt><trkpt lat="40.9315667" lon="0.1081883"><ele>452.0</ele><time>2026-03-31T10:44:36.157Z</time></trkpt><trkpt lat="40.9315017" lon="0.10837"><ele>452.0</ele><time>2026-03-31T10:44:37.158Z</time></trkpt><trkpt lat="40.93143" lon="0.1085317"><ele>452.0</ele><time>2026-03-31T10:44:38.157Z</time></trkpt><trkpt lat="40.9313617" lon="0.1087017"><ele>453.5</ele><time>2026-03-31T10:44:39.158Z</time></trkpt><trkpt lat="40.9312967" lon="0.1088667"><ele>455.0</ele><time>2026-03-31T10:44:40.157Z</time></trkpt><trkpt lat="40.9312433" lon="0.1090383"><ele>456.5</ele><time>2026-03-31T10:44:41.158Z</time></trkpt><trkpt lat="40.931235" lon="0.1092117"><ele>458.0</ele><time>2026-03-31T10:44:42.158Z</time></trkpt><trkpt lat="40.9312533" lon="0.1094017"><ele>458.0</ele><time>2026-03-31T10:44:43.157Z</time></trkpt><trkpt lat="40.9312983" lon="0.1095767"><ele>458.0</ele><time>2026-03-31T10:44:44.158Z</time></trkpt><trkpt lat="40.931395" lon="0.1097417"><ele>458.0</ele><time>2026-03-31T10:44:45.158Z</time></trkpt><trkpt lat="40.93149" lon="0.10992"><ele>460.0</ele><time>2026-03-31T10:44:46.158Z</time></trkpt><trkpt lat="40.9315883" lon="0.1100867"><ele>462.0</ele><time>2026-03-31T10:44:47.157Z</time></trkpt><trkpt lat="40.9317033" lon="0.110235"><ele>464.0</ele><time>2026-03-31T10:44:48.157Z</time></trkpt><trkpt lat="40.9318267" lon="0.1103433"><ele>464.75</ele><time>2026-03-31T10:44:49.157Z</time></trkpt><trkpt lat="40.9319617" lon="0.1104267"><ele>465.5</ele><time>2026-03-31T10:44:50.158Z</time></trkpt><trkpt lat="40.9320917" lon="0.11048"><ele>466.25</ele><time>2026-03-31T10:44:51.158Z</time></trkpt><trkpt lat="40.932235" lon="0.1105283"><ele>467.0</ele><time>2026-03-31T10:44:52.158Z</time></trkpt><trkpt lat="40.93237" lon="0.1105883"><ele>467.0</ele><time>2026-03-31T10:44:53.157Z</time></trkpt><trkpt lat="40.932505" lon="0.110655"><ele>467.0</ele><time>2026-03-31T10:44:54.157Z</time></trkpt><trkpt lat="40.9326417" lon="0.1107167"><ele>467.0</ele><time>2026-03-31T10:44:55.157Z</time></trkpt><trkpt lat="40.9327817" lon="0.1107767"><ele>467.0</ele><time>2026-03-31T10:44:56.157Z</time></trkpt><trkpt lat="40.932915" lon="0.1108417"><ele>472.25</ele><time>2026-03-31T10:44:57.158Z</time></trkpt><trkpt lat="40.93304" lon="0.1109017"><ele>477.5</ele><time>2026-03-31T10:44:58.158Z</time></trkpt><trkpt lat="40.933165" lon="0.1109433"><ele>482.75</ele><time>2026-03-31T10:44:59.158Z</time></trkpt><trkpt lat="40.93329" lon="0.110955"><ele>488.0</ele><time>2026-03-31T10:45:00.158Z</time></trkpt><trkpt lat="40.93341" lon="0.1109117"><ele>489.75</ele><time>2026-03-31T10:45:01.158Z</time></trkpt><trkpt lat="40.9335117" lon="0.1108233"><ele>491.5</ele><time>2026-03-31T10:45:02.157Z</time></trkpt><trkpt lat="40.9335817" lon="0.110685"><ele>493.25</ele><time>2026-03-31T10:45:03.157Z</time></trkpt><trkpt lat="40.9336483" lon="0.1105383"><ele>495.0</ele><time>2026-03-31T10:45:04.157Z</time></trkpt><trkpt lat="40.9337183" lon="0.1103883"><ele>495.0</ele><time>2026-03-31T10:45:05.157Z</time></trkpt><trkpt lat="40.9337933" lon="0.1102667"><ele>495.0</ele><time>2026-03-31T10:45:06.157Z</time></trkpt><trkpt lat="40.9338733" lon="0.1101683"><ele>495.0</ele><time>2026-03-31T10:45:07.157Z</time></trkpt><trkpt lat="40.9339517" lon="0.1100983"><ele>495.0</ele><time>2026-03-31T10:45:08.157Z</time></trkpt><trkpt lat="40.934025" lon="0.11004"><ele>495.0</ele><time>2026-03-31T10:45:09.157Z</time></trkpt><trkpt lat="40.9340933" lon="0.1099817"><ele>495.0</ele><time>2026-03-31T10:45:10.157Z</time></trkpt><trkpt lat="40.934165" lon="0.1099167"><ele>495.0</ele><time>2026-03-31T10:45:11.157Z</time></trkpt><trkpt lat="40.9342317" lon="0.1098333"><ele>495.0</ele><time>2026-03-31T10:45:12.158Z</time></trkpt><trkpt lat="40.93428" lon="0.109725"><ele>495.0</ele><time>2026-03-31T10:45:13.157Z</time></trkpt><trkpt lat="40.934295" lon="0.10962"><ele>495.0</ele><time>2026-03-31T10:45:14.157Z</time></trkpt><trkpt lat="40.934295" lon="0.10952"><ele>495.0</ele><time>2026-03-31T10:45:15.158Z</time></trkpt><trkpt lat="40.9342717" lon="0.10942"><ele>496.1666666666667</ele><time>2026-03-31T10:45:16.157Z</time></trkpt><trkpt lat="40.9342467" lon="0.1093217"><ele>497.33333333333337</ele><time>2026-03-31T10:45:17.157Z</time></trkpt><trkpt lat="40.9342233" lon="0.1092317"><ele>498.5</ele><time>2026-03-31T10:45:18.157Z</time></trkpt><trkpt lat="40.9342033" lon="0.1090633"><ele>499.6666666666667</ele><time>2026-03-31T10:45:20.158Z</time></trkpt><trkpt lat="40.93422" lon="0.1089783"><ele>500.83333333333337</ele><time>2026-03-31T10:45:21.157Z</time></trkpt><trkpt lat="40.9342683" lon="0.1089"><ele>502.0</ele><time>2026-03-31T10:45:22.158Z</time></trkpt><trkpt lat="40.93432" lon="0.1088333"><ele>499.33333333333337</ele><time>2026-03-31T10:45:23.158Z</time></trkpt><trkpt lat="40.9343783" lon="0.1087717"><ele>496.6666666666667</ele><time>2026-03-31T10:45:24.158Z</time></trkpt><trkpt lat="40.934445" lon="0.1087333"><ele>494.0</ele><time>2026-03-31T10:45:25.157Z</time></trkpt><trkpt lat="40.93452" lon="0.1087183"><ele>491.33333333333337</ele><time>2026-03-31T10:45:26.158Z</time></trkpt><trkpt lat="40.9345917" lon="0.108725"><ele>488.6666666666667</ele><time>2026-03-31T10:45:27.157Z</time></trkpt><trkpt lat="40.9346617" lon="0.1087533"><ele>486.0</ele><time>2026-03-31T10:45:28.158Z</time></trkpt><trkpt lat="40.9347317" lon="0.10881"><ele>486.0</ele><time>2026-03-31T10:45:29.158Z</time></trkpt><trkpt lat="40.9348017" lon="0.1088883"><ele>486.0</ele><time>2026-03-31T10:45:30.158Z</time></trkpt><trkpt lat="40.93486" lon="0.1089617"><ele>486.0</ele><time>2026-03-31T10:45:31.157Z</time></trkpt><trkpt lat="40.9349283" lon="0.109035"><ele>486.0</ele><time>2026-03-31T10:45:32.158Z</time></trkpt><trkpt lat="40.9349983" lon="0.1091067"><ele>486.0</ele><time>2026-03-31T10:45:33.157Z</time></trkpt><trkpt lat="40.9350633" lon="0.109165"><ele>486.0</ele><time>2026-03-31T10:45:34.157Z</time></trkpt><trkpt lat="40.9351333" lon="0.1092267"><ele>489.8</ele><time>2026-03-31T10:45:35.157Z</time></trkpt><trkpt lat="40.9352083" lon="0.109295"><ele>493.6</ele><time>2026-03-31T10:45:36.157Z</time></trkpt><trkpt lat="40.9352817" lon="0.109375"><ele>497.4</ele><time>2026-03-31T10:45:37.158Z</time></trkpt><trkpt lat="40.9353517" lon="0.10945"><ele>501.2</ele><time>2026-03-31T10:45:38.158Z</time></trkpt><trkpt lat="40.93543" lon="0.1095283"><ele>505.0</ele><time>2026-03-31T10:45:39.157Z</time></trkpt><trkpt lat="40.9354933" lon="0.1096067"><ele>505.00000000000006</ele><time>2026-03-31T10:45:40.157Z</time></trkpt><trkpt lat="40.9355617" lon="0.1096733"><ele>505.0</ele><time>2026-03-31T10:45:41.157Z</time></trkpt><trkpt lat="40.9356267" lon="0.1097367"><ele>505.0</ele><time>2026-03-31T10:45:42.158Z</time></trkpt><trkpt lat="40.935695" lon="0.1098033"><ele>505.0</ele><time>2026-03-31T10:45:43.158Z</time></trkpt><trkpt lat="40.9357517" lon="0.1098683"><ele>505.00000000000006</ele><time>2026-03-31T10:45:44.157Z</time></trkpt><trkpt lat="40.9358033" lon="0.1099367"><ele>505.0</ele><time>2026-03-31T10:45:45.158Z</time></trkpt><trkpt lat="40.9358517" lon="0.110005"><ele>504.1666666666667</ele><time>2026-03-31T10:45:46.157Z</time></trkpt><trkpt lat="40.935905" lon="0.1100733"><ele>503.33333333333337</ele><time>2026-03-31T10:45:47.158Z</time></trkpt><trkpt lat="40.93595" lon="0.1101667"><ele>502.5</ele><time>2026-03-31T10:45:48.157Z</time></trkpt><trkpt lat="40.9359933" lon="0.11028"><ele>501.66666666666663</ele><time>2026-03-31T10:45:49.157Z</time></trkpt><trkpt lat="40.9360283" lon="0.110405"><ele>500.8333333333333</ele><time>2026-03-31T10:45:50.157Z</time></trkpt><trkpt lat="40.9360433" lon="0.1105267"><ele>500.0</ele><time>2026-03-31T10:45:51.158Z</time></trkpt><trkpt lat="40.9360367" lon="0.1106433"><ele>498.8333333333333</ele><time>2026-03-31T10:45:52.157Z</time></trkpt><trkpt lat="40.9360267" lon="0.1107567"><ele>497.66666666666663</ele><time>2026-03-31T10:45:53.157Z</time></trkpt><trkpt lat="40.93602" lon="0.110875"><ele>496.5</ele><time>2026-03-31T10:45:54.158Z</time></trkpt><trkpt lat="40.936035" lon="0.1109867"><ele>495.33333333333337</ele><time>2026-03-31T10:45:55.158Z</time></trkpt><trkpt lat="40.9360417" lon="0.11111"><ele>494.1666666666667</ele><time>2026-03-31T10:45:56.157Z</time></trkpt><trkpt lat="40.9360433" lon="0.1112283"><ele>493.0</ele><time>2026-03-31T10:45:57.158Z</time></trkpt><trkpt lat="40.9360467" lon="0.1113567"><ele>493.0</ele><time>2026-03-31T10:45:58.157Z</time></trkpt><trkpt lat="40.936055" lon="0.111485"><ele>492.99999999999994</ele><time>2026-03-31T10:45:59.158Z</time></trkpt><trkpt lat="40.9360683" lon="0.1116133"><ele>492.99999999999994</ele><time>2026-03-31T10:46:00.157Z</time></trkpt><trkpt lat="40.9361017" lon="0.111725"><ele>493.0</ele><time>2026-03-31T10:46:01.157Z</time></trkpt><trkpt lat="40.9361617" lon="0.1118283"><ele>493.0</ele><time>2026-03-31T10:46:02.158Z</time></trkpt><trkpt lat="40.9362533" lon="0.1119167"><ele>493.0</ele><time>2026-03-31T10:46:03.158Z</time></trkpt><trkpt lat="40.9363417" lon="0.1119983"><ele>492.99999999999994</ele><time>2026-03-31T10:46:04.158Z</time></trkpt><trkpt lat="40.9364317" lon="0.1120667"><ele>492.99999999999994</ele><time>2026-03-31T10:46:05.157Z</time></trkpt><trkpt lat="40.9365183" lon="0.1121317"><ele>493.0</ele><time>2026-03-31T10:46:06.157Z</time></trkpt><trkpt lat="40.936585" lon="0.1121917"><ele>493.0</ele><time>2026-03-31T10:46:07.158Z</time></trkpt><trkpt lat="40.936645" lon="0.1122817"><ele>493.0</ele><time>2026-03-31T10:46:08.158Z</time></trkpt><trkpt lat="40.9366817" lon="0.1123817"><ele>492.99999999999994</ele><time>2026-03-31T10:46:09.158Z</time></trkpt><trkpt lat="40.936695" lon="0.1125017"><ele>492.99999999999994</ele><time>2026-03-31T10:46:10.157Z</time></trkpt><trkpt lat="40.9367067" lon="0.112625"><ele>493.0</ele><time>2026-03-31T10:46:11.158Z</time></trkpt><trkpt lat="40.9367417" lon="0.1127483"><ele>493.0</ele><time>2026-03-31T10:46:12.157Z</time></trkpt><trkpt lat="40.9368017" lon="0.1128633"><ele>488.79999999999995</ele><time>2026-03-31T10:46:13.158Z</time></trkpt><trkpt lat="40.9368817" lon="0.1129617"><ele>484.59999999999997</ele><time>2026-03-31T10:46:14.158Z</time></trkpt><trkpt lat="40.936975" lon="0.1130333"><ele>480.40000000000003</ele><time>2026-03-31T10:46:15.158Z</time></trkpt><trkpt lat="40.937075" lon="0.113085"><ele>476.20000000000005</ele><time>2026-03-31T10:46:16.157Z</time></trkpt><trkpt lat="40.9371783" lon="0.1131417"><ele>472.0</ele><time>2026-03-31T10:46:17.157Z</time></trkpt><trkpt lat="40.9372733" lon="0.1132183"><ele>472.6</ele><time>2026-03-31T10:46:18.157Z</time></trkpt><trkpt lat="40.9373517" lon="0.11331"><ele>473.20000000000005</ele><time>2026-03-31T10:46:19.158Z</time></trkpt><trkpt lat="40.9374033" lon="0.1134283"><ele>473.8</ele><time>2026-03-31T10:46:20.157Z</time></trkpt><trkpt lat="40.9374233" lon="0.11356"><ele>474.4</ele><time>2026-03-31T10:46:21.158Z</time></trkpt><trkpt lat="40.937415" lon="0.1136917"><ele>475.0</ele><time>2026-03-31T10:46:22.158Z</time></trkpt><trkpt lat="40.9373833" lon="0.1138267"><ele>475.0</ele><time>2026-03-31T10:46:23.158Z</time></trkpt><trkpt lat="40.93734" lon="0.1139733"><ele>475.0</ele><time>2026-03-31T10:46:24.158Z</time></trkpt><trkpt lat="40.9372817" lon="0.1141117"><ele>475.0</ele><time>2026-03-31T10:46:25.157Z</time></trkpt><trkpt lat="40.9372217" lon="0.1142483"><ele>475.0</ele><time>2026-03-31T10:46:26.158Z</time></trkpt><trkpt lat="40.9371633" lon="0.1143817"><ele>474.75</ele><time>2026-03-31T10:46:27.158Z</time></trkpt><trkpt lat="40.937095" lon="0.1145067"><ele>474.5</ele><time>2026-03-31T10:46:28.157Z</time></trkpt><trkpt lat="40.9370217" lon="0.1146233"><ele>474.25</ele><time>2026-03-31T10:46:29.158Z</time></trkpt><trkpt lat="40.936935" lon="0.1147383"><ele>474.0</ele><time>2026-03-31T10:46:30.157Z</time></trkpt><trkpt lat="40.93684" lon="0.11486"><ele>476.0</ele><time>2026-03-31T10:46:31.157Z</time></trkpt><trkpt lat="40.93675" lon="0.1149983"><ele>478.0</ele><time>2026-03-31T10:46:32.157Z</time></trkpt><trkpt lat="40.9366567" lon="0.1151483"><ele>480.0</ele><time>2026-03-31T10:46:33.157Z</time></trkpt><trkpt lat="40.936585" lon="0.11531"><ele>482.0</ele><time>2026-03-31T10:46:34.158Z</time></trkpt><trkpt lat="40.9365217" lon="0.1154667"><ele>482.0</ele><time>2026-03-31T10:46:35.157Z</time></trkpt><trkpt lat="40.9364667" lon="0.1156217"><ele>482.0</ele><time>2026-03-31T10:46:36.157Z</time></trkpt><trkpt lat="40.9364183" lon="0.115775"><ele>482.0</ele><time>2026-03-31T10:46:37.157Z</time></trkpt><trkpt lat="40.9363683" lon="0.115915"><ele>482.0</ele><time>2026-03-31T10:46:38.157Z</time></trkpt><trkpt lat="40.9363083" lon="0.11606"><ele>478.25</ele><time>2026-03-31T10:46:39.157Z</time></trkpt><trkpt lat="40.9362533" lon="0.1161983"><ele>474.5</ele><time>2026-03-31T10:46:40.157Z</time></trkpt><trkpt lat="40.9361917" lon="0.11634"><ele>470.75</ele><time>2026-03-31T10:46:41.157Z</time></trkpt><trkpt lat="40.9361267" lon="0.1164717"><ele>467.0</ele><time>2026-03-31T10:46:42.158Z</time></trkpt><trkpt lat="40.9360383" lon="0.1166017"><ele>468.0</ele><time>2026-03-31T10:46:43.158Z</time></trkpt><trkpt lat="40.9359417" lon="0.1167283"><ele>469.0</ele><time>2026-03-31T10:46:44.158Z</time></trkpt><trkpt lat="40.9358417" lon="0.1168583"><ele>470.0</ele><time>2026-03-31T10:46:45.158Z</time></trkpt><trkpt lat="40.9357333" lon="0.1169833"><ele>471.0</ele><time>2026-03-31T10:46:46.158Z</time></trkpt><trkpt lat="40.9356333" lon="0.1171017"><ele>471.0</ele><time>2026-03-31T10:46:47.157Z</time></trkpt><trkpt lat="40.9355383" lon="0.1172233"><ele>471.0</ele><time>2026-03-31T10:46:48.157Z</time></trkpt><trkpt lat="40.9354567" lon="0.1173617"><ele>471.0</ele><time>2026-03-31T10:46:49.157Z</time></trkpt><trkpt lat="40.9353767" lon="0.1175083"><ele>471.0</ele><time>2026-03-31T10:46:50.158Z</time></trkpt><trkpt lat="40.9353183" lon="0.1176517"><ele>467.5</ele><time>2026-03-31T10:46:51.158Z</time></trkpt><trkpt lat="40.9352617" lon="0.1178033"><ele>464.0</ele><time>2026-03-31T10:46:52.158Z</time></trkpt><trkpt lat="40.9352117" lon="0.1179483"><ele>460.5</ele><time>2026-03-31T10:46:53.157Z</time></trkpt><trkpt lat="40.9351683" lon="0.1180833"><ele>457.0</ele><time>2026-03-31T10:46:54.158Z</time></trkpt><trkpt lat="40.93512" lon="0.1182067"><ele>457.20000000000005</ele><time>2026-03-31T10:46:55.158Z</time></trkpt><trkpt lat="40.9350717" lon="0.11832"><ele>457.40000000000003</ele><time>2026-03-31T10:46:56.158Z</time></trkpt><trkpt lat="40.9350317" lon="0.1184233"><ele>457.59999999999997</ele><time>2026-03-31T10:46:57.157Z</time></trkpt><trkpt lat="40.9349783" lon="0.1185083"><ele>457.79999999999995</ele><time>2026-03-31T10:46:58.158Z</time></trkpt><trkpt lat="40.934915" lon="0.11857"><ele>458.0</ele><time>2026-03-31T10:46:59.157Z</time></trkpt><trkpt lat="40.9348167" lon="0.118625"><ele>458.0</ele><time>2026-03-31T10:47:00.157Z</time></trkpt><trkpt lat="40.9347283" lon="0.1186967"><ele>457.99999999999994</ele><time>2026-03-31T10:47:01.157Z</time></trkpt><trkpt lat="40.93465" lon="0.1187783"><ele>457.99999999999994</ele><time>2026-03-31T10:47:02.158Z</time></trkpt><trkpt lat="40.9345717" lon="0.118885"><ele>458.0</ele><time>2026-03-31T10:47:03.157Z</time></trkpt><trkpt lat="40.934485" lon="0.1189817"><ele>458.0</ele><time>2026-03-31T10:47:04.158Z</time></trkpt><trkpt lat="40.9343867" lon="0.1190583"><ele>457.79999999999995</ele><time>2026-03-31T10:47:05.158Z</time></trkpt><trkpt lat="40.934295" lon="0.1191467"><ele>457.59999999999997</ele><time>2026-03-31T10:47:06.158Z</time></trkpt><trkpt lat="40.9342167" lon="0.1192567"><ele>457.40000000000003</ele><time>2026-03-31T10:47:07.158Z</time></trkpt><trkpt lat="40.93417" lon="0.1193833"><ele>457.20000000000005</ele><time>2026-03-31T10:47:08.157Z</time></trkpt><trkpt lat="40.934155" lon="0.1195267"><ele>457.0</ele><time>2026-03-31T10:47:09.158Z</time></trkpt><trkpt lat="40.93417" lon="0.1196717"><ele>457.0</ele><time>2026-03-31T10:47:10.157Z</time></trkpt><trkpt lat="40.9341933" lon="0.1198217"><ele>457.0</ele><time>2026-03-31T10:47:11.157Z</time></trkpt><trkpt lat="40.93421" lon="0.1199767"><ele>457.0</ele><time>2026-03-31T10:47:12.158Z</time></trkpt><trkpt lat="40.9342333" lon="0.1201417"><ele>457.0</ele><time>2026-03-31T10:47:13.157Z</time></trkpt><trkpt lat="40.9342633" lon="0.1203"><ele>454.5</ele><time>2026-03-31T10:47:14.158Z</time></trkpt><trkpt lat="40.9343167" lon="0.1204367"><ele>452.0</ele><time>2026-03-31T10:47:15.157Z</time></trkpt><trkpt lat="40.9343967" lon="0.1205567"><ele>449.5</ele><time>2026-03-31T10:47:16.157Z</time></trkpt><trkpt lat="40.9345033" lon="0.1206417"><ele>447.0</ele><time>2026-03-31T10:47:17.158Z</time></trkpt><trkpt lat="40.9346117" lon="0.1207083"><ele>447.40000000000003</ele><time>2026-03-31T10:47:18.157Z</time></trkpt><trkpt lat="40.9347283" lon="0.12076"><ele>447.80000000000007</ele><time>2026-03-31T10:47:19.157Z</time></trkpt><trkpt lat="40.9348233" lon="0.1208217"><ele>448.2</ele><time>2026-03-31T10:47:20.158Z</time></trkpt><trkpt lat="40.9348933" lon="0.1209133"><ele>448.6</ele><time>2026-03-31T10:47:21.158Z</time></trkpt><trkpt lat="40.9349183" lon="0.121025"><ele>449.0</ele><time>2026-03-31T10:47:22.157Z</time></trkpt><trkpt lat="40.9349117" lon="0.1211383"><ele>449.0</ele><time>2026-03-31T10:47:23.158Z</time></trkpt><trkpt lat="40.93487" lon="0.1212633"><ele>449.0</ele><time>2026-03-31T10:47:24.157Z</time></trkpt><trkpt lat="40.93481" lon="0.121375"><ele>449.0</ele><time>2026-03-31T10:47:25.158Z</time></trkpt><trkpt lat="40.9347633" lon="0.12146"><ele>449.0</ele><time>2026-03-31T10:47:26.157Z</time></trkpt><trkpt lat="40.9347617" lon="0.1216133"><ele>449.0</ele><time>2026-03-31T10:47:28.157Z</time></trkpt><trkpt lat="40.9348567" lon="0.12168"><ele>450.0</ele><time>2026-03-31T10:47:30.157Z</time></trkpt><trkpt lat="40.934925" lon="0.1216633"><ele>451.0</ele><time>2026-03-31T10:47:31.158Z</time></trkpt><trkpt lat="40.9349917" lon="0.121615"><ele>452.0</ele><time>2026-03-31T10:47:32.157Z</time></trkpt><trkpt lat="40.9350633" lon="0.1215283"><ele>453.0</ele><time>2026-03-31T10:47:33.157Z</time></trkpt><trkpt lat="40.9351417" lon="0.1214083"><ele>454.0</ele><time>2026-03-31T10:47:34.157Z</time></trkpt><trkpt lat="40.9352183" lon="0.1212817"><ele>454.79999999999995</ele><time>2026-03-31T10:47:35.158Z</time></trkpt><trkpt lat="40.93528" lon="0.1211517"><ele>455.59999999999997</ele><time>2026-03-31T10:47:36.158Z</time></trkpt><trkpt lat="40.9353183" lon="0.1210067"><ele>456.4</ele><time>2026-03-31T10:47:37.157Z</time></trkpt><trkpt lat="40.9353333" lon="0.12087"><ele>457.2</ele><time>2026-03-31T10:47:38.158Z</time></trkpt><trkpt lat="40.9353333" lon="0.1207433"><ele>458.0</ele><time>2026-03-31T10:47:39.158Z</time></trkpt><trkpt lat="40.9353433" lon="0.12062"><ele>457.99999999999994</ele><time>2026-03-31T10:47:40.157Z</time></trkpt><trkpt lat="40.935365" lon="0.1205167"><ele>458.0</ele><time>2026-03-31T10:47:41.158Z</time></trkpt><trkpt lat="40.93541" lon="0.1204333"><ele>458.0</ele><time>2026-03-31T10:47:42.157Z</time></trkpt><trkpt lat="40.9354817" lon="0.1203817"><ele>458.0</ele><time>2026-03-31T10:47:43.158Z</time></trkpt><trkpt lat="40.9355717" lon="0.1203517"><ele>457.99999999999994</ele><time>2026-03-31T10:47:44.157Z</time></trkpt><trkpt lat="40.9356733" lon="0.12035"><ele>458.0</ele><time>2026-03-31T10:47:45.157Z</time></trkpt><trkpt lat="40.9357733" lon="0.1203467"><ele>457.99999999999994</ele><time>2026-03-31T10:47:46.157Z</time></trkpt><trkpt lat="40.9358567" lon="0.1203583"><ele>458.0</ele><time>2026-03-31T10:47:47.157Z</time></trkpt><trkpt lat="40.9359367" lon="0.12037"><ele>458.0</ele><time>2026-03-31T10:47:48.157Z</time></trkpt><trkpt lat="40.9360183" lon="0.1203867"><ele>458.0</ele><time>2026-03-31T10:47:49.157Z</time></trkpt><trkpt lat="40.9360983" lon="0.1203917"><ele>457.99999999999994</ele><time>2026-03-31T10:47:50.157Z</time></trkpt><trkpt lat="40.936185" lon="0.1203717"><ele>458.0</ele><time>2026-03-31T10:47:51.158Z</time></trkpt><trkpt lat="40.9362633" lon="0.120325"><ele>457.79999999999995</ele><time>2026-03-31T10:47:52.158Z</time></trkpt><trkpt lat="40.9363183" lon="0.120245"><ele>457.59999999999997</ele><time>2026-03-31T10:47:53.157Z</time></trkpt><trkpt lat="40.93636" lon="0.12015"><ele>457.40000000000003</ele><time>2026-03-31T10:47:54.158Z</time></trkpt><trkpt lat="40.9363767" lon="0.12002"><ele>457.20000000000005</ele><time>2026-03-31T10:47:55.157Z</time></trkpt><trkpt lat="40.93637" lon="0.1198833"><ele>457.0</ele><time>2026-03-31T10:47:56.158Z</time></trkpt><trkpt lat="40.9364017" lon="0.119755"><ele>457.0</ele><time>2026-03-31T10:47:57.158Z</time></trkpt><trkpt lat="40.936465" lon="0.1196433"><ele>457.00000000000006</ele><time>2026-03-31T10:47:58.158Z</time></trkpt><trkpt lat="40.9365483" lon="0.11956"><ele>457.00000000000006</ele><time>2026-03-31T10:47:59.157Z</time></trkpt><trkpt lat="40.9366417" lon="0.1195167"><ele>457.0</ele><time>2026-03-31T10:48:00.158Z</time></trkpt><trkpt lat="40.9367517" lon="0.119485"><ele>457.0</ele><time>2026-03-31T10:48:01.157Z</time></trkpt><trkpt lat="40.936865" lon="0.1194583"><ele>460.5</ele><time>2026-03-31T10:48:02.157Z</time></trkpt><trkpt lat="40.93697" lon="0.1194117"><ele>464.0</ele><time>2026-03-31T10:48:03.157Z</time></trkpt><trkpt lat="40.93708" lon="0.119335"><ele>467.5</ele><time>2026-03-31T10:48:04.157Z</time></trkpt><trkpt lat="40.937165" lon="0.1192433"><ele>471.0</ele><time>2026-03-31T10:48:05.157Z</time></trkpt><trkpt lat="40.9372483" lon="0.1191417"><ele>471.0</ele><time>2026-03-31T10:48:06.158Z</time></trkpt><trkpt lat="40.9373517" lon="0.1190767"><ele>471.0</ele><time>2026-03-31T10:48:07.157Z</time></trkpt><trkpt lat="40.937465" lon="0.11904"><ele>471.0</ele><time>2026-03-31T10:48:08.157Z</time></trkpt><trkpt lat="40.9375733" lon="0.1190267"><ele>471.0</ele><time>2026-03-31T10:48:09.158Z</time></trkpt><trkpt lat="40.93768" lon="0.1189967"><ele>471.0</ele><time>2026-03-31T10:48:10.157Z</time></trkpt><trkpt lat="40.93776" lon="0.118945"><ele>470.6</ele><time>2026-03-31T10:48:11.158Z</time></trkpt><trkpt lat="40.9378183" lon="0.11887"><ele>470.20000000000005</ele><time>2026-03-31T10:48:12.158Z</time></trkpt><trkpt lat="40.9378583" lon="0.1187633"><ele>469.79999999999995</ele><time>2026-03-31T10:48:13.157Z</time></trkpt><trkpt lat="40.9379017" lon="0.118635"><ele>469.4</ele><time>2026-03-31T10:48:14.157Z</time></trkpt><trkpt lat="40.93796" lon="0.118505"><ele>469.0</ele><time>2026-03-31T10:48:15.157Z</time></trkpt><trkpt lat="40.9380317" lon="0.118385"><ele>469.0</ele><time>2026-03-31T10:48:16.158Z</time></trkpt><trkpt lat="40.9381017" lon="0.1182717"><ele>469.0</ele><time>2026-03-31T10:48:17.157Z</time></trkpt><trkpt lat="40.938185" lon="0.1181833"><ele>469.0</ele><time>2026-03-31T10:48:18.158Z</time></trkpt><trkpt lat="40.93826" lon="0.118115"><ele>469.0</ele><time>2026-03-31T10:48:19.158Z</time></trkpt><trkpt lat="40.9383233" lon="0.11809"><ele>469.0</ele><time>2026-03-31T10:48:20.157Z</time></trkpt><trkpt lat="40.938425" lon="0.118135"><ele>469.0</ele><time>2026-03-31T10:48:22.157Z</time></trkpt><trkpt lat="40.9384483" lon="0.1182967"><ele>469.0</ele><time>2026-03-31T10:48:24.158Z</time></trkpt><trkpt lat="40.9384133" lon="0.1184267"><ele>469.0</ele><time>2026-03-31T10:48:25.158Z</time></trkpt><trkpt lat="40.9383583" lon="0.11857"><ele>469.0</ele><time>2026-03-31T10:48:26.157Z</time></trkpt><trkpt lat="40.9383017" lon="0.1187183"><ele>469.0</ele><time>2026-03-31T10:48:27.157Z</time></trkpt><trkpt lat="40.9382533" lon="0.1188667"><ele>469.0</ele><time>2026-03-31T10:48:28.157Z</time></trkpt><trkpt lat="40.9382283" lon="0.11901"><ele>469.0</ele><time>2026-03-31T10:48:29.158Z</time></trkpt><trkpt lat="40.9382283" lon="0.119155"><ele>469.0</ele><time>2026-03-31T10:48:30.158Z</time></trkpt><trkpt lat="40.9382583" lon="0.1192967"><ele>468.4</ele><time>2026-03-31T10:48:31.157Z</time></trkpt><trkpt lat="40.938315" lon="0.1194233"><ele>467.79999999999995</ele><time>2026-03-31T10:48:32.157Z</time></trkpt><trkpt lat="40.9383933" lon="0.1195167"><ele>467.20000000000005</ele><time>2026-03-31T10:48:33.157Z</time></trkpt><trkpt lat="40.9384733" lon="0.1196017"><ele>466.6</ele><time>2026-03-31T10:48:34.157Z</time></trkpt><trkpt lat="40.93853" lon="0.1197133"><ele>466.0</ele><time>2026-03-31T10:48:35.157Z</time></trkpt><trkpt lat="40.9385767" lon="0.1198517"><ele>467.4</ele><time>2026-03-31T10:48:36.157Z</time></trkpt><trkpt lat="40.9386117" lon="0.1199983"><ele>468.8</ele><time>2026-03-31T10:48:37.157Z</time></trkpt><trkpt lat="40.9386417" lon="0.1201433"><ele>470.19999999999993</ele><time>2026-03-31T10:48:38.158Z</time></trkpt><trkpt lat="40.9386617" lon="0.120285"><ele>471.59999999999997</ele><time>2026-03-31T10:48:39.158Z</time></trkpt><trkpt lat="40.9386533" lon="0.1204183"><ele>473.0</ele><time>2026-03-31T10:48:40.158Z</time></trkpt><trkpt lat="40.938615" lon="0.1205283"><ele>473.0</ele><time>2026-03-31T10:48:41.157Z</time></trkpt><trkpt lat="40.9385633" lon="0.1206233"><ele>472.99999999999994</ele><time>2026-03-31T10:48:42.158Z</time></trkpt><trkpt lat="40.9385" lon="0.1207083"><ele>472.99999999999994</ele><time>2026-03-31T10:48:43.157Z</time></trkpt><trkpt lat="40.9384183" lon="0.1207833"><ele>473.0</ele><time>2026-03-31T10:48:44.157Z</time></trkpt><trkpt lat="40.9383333" lon="0.120875"><ele>473.0</ele><time>2026-03-31T10:48:45.158Z</time></trkpt><trkpt lat="40.93826" lon="0.12098"><ele>476.79999999999995</ele><time>2026-03-31T10:48:46.157Z</time></trkpt><trkpt lat="40.93821" lon="0.1210983"><ele>480.59999999999997</ele><time>2026-03-31T10:48:47.157Z</time></trkpt><trkpt lat="40.938185" lon="0.121225"><ele>484.40000000000003</ele><time>2026-03-31T10:48:48.157Z</time></trkpt><trkpt lat="40.9381883" lon="0.1213683"><ele>488.20000000000005</ele><time>2026-03-31T10:48:49.157Z</time></trkpt><trkpt lat="40.9382067" lon="0.12152"><ele>492.0</ele><time>2026-03-31T10:48:50.157Z</time></trkpt><trkpt lat="40.9382283" lon="0.12167"><ele>492.8</ele><time>2026-03-31T10:48:51.158Z</time></trkpt><trkpt lat="40.93824" lon="0.1218083"><ele>493.6</ele><time>2026-03-31T10:48:52.157Z</time></trkpt><trkpt lat="40.9382483" lon="0.12194"><ele>494.40000000000003</ele><time>2026-03-31T10:48:53.158Z</time></trkpt><trkpt lat="40.9382483" lon="0.1220617"><ele>495.20000000000005</ele><time>2026-03-31T10:48:54.158Z</time></trkpt><trkpt lat="40.93824" lon="0.12218"><ele>496.0</ele><time>2026-03-31T10:48:55.158Z</time></trkpt><trkpt lat="40.9382133" lon="0.1223017"><ele>497.25</ele><time>2026-03-31T10:48:56.158Z</time></trkpt><trkpt lat="40.938175" lon="0.12244"><ele>498.5</ele><time>2026-03-31T10:48:57.158Z</time></trkpt><trkpt lat="40.9381267" lon="0.1225917"><ele>499.75</ele><time>2026-03-31T10:48:58.157Z</time></trkpt><trkpt lat="40.9380767" lon="0.1227633"><ele>501.0</ele><time>2026-03-31T10:48:59.157Z</time></trkpt><trkpt lat="40.9380683" lon="0.1229483"><ele>501.0</ele><time>2026-03-31T10:49:00.157Z</time></trkpt><trkpt lat="40.9380717" lon="0.123125"><ele>501.0</ele><time>2026-03-31T10:49:01.158Z</time></trkpt><trkpt lat="40.938085" lon="0.1233017"><ele>501.0</ele><time>2026-03-31T10:49:02.158Z</time></trkpt><trkpt lat="40.9380967" lon="0.123485"><ele>501.0</ele><time>2026-03-31T10:49:03.158Z</time></trkpt><trkpt lat="40.9381117" lon="0.1236817"><ele>500.5</ele><time>2026-03-31T10:49:04.157Z</time></trkpt><trkpt lat="40.9381233" lon="0.123885"><ele>500.0</ele><time>2026-03-31T10:49:05.157Z</time></trkpt><trkpt lat="40.9381233" lon="0.1240767"><ele>499.5</ele><time>2026-03-31T10:49:06.158Z</time></trkpt><trkpt lat="40.9381333" lon="0.1242683"><ele>499.0</ele><time>2026-03-31T10:49:07.157Z</time></trkpt><trkpt lat="40.9381467" lon="0.1244667"><ele>499.0</ele><time>2026-03-31T10:49:08.157Z</time></trkpt><trkpt lat="40.938155" lon="0.1246633"><ele>499.0</ele><time>2026-03-31T10:49:09.158Z</time></trkpt><trkpt lat="40.9381667" lon="0.1248583"><ele>499.0</ele><time>2026-03-31T10:49:10.157Z</time></trkpt><trkpt lat="40.9381783" lon="0.1250633"><ele>501.0</ele><time>2026-03-31T10:49:11.157Z</time></trkpt><trkpt lat="40.93819" lon="0.125265"><ele>503.0</ele><time>2026-03-31T10:49:12.157Z</time></trkpt><trkpt lat="40.9382033" lon="0.1254717"><ele>505.0</ele><time>2026-03-31T10:49:13.157Z</time></trkpt><trkpt lat="40.9382167" lon="0.1256917"><ele>505.0</ele><time>2026-03-31T10:49:14.158Z</time></trkpt><trkpt lat="40.9382267" lon="0.12589"><ele>505.0</ele><time>2026-03-31T10:49:15.157Z</time></trkpt><trkpt lat="40.93822" lon="0.1260967"><ele>505.0</ele><time>2026-03-31T10:49:16.158Z</time></trkpt><trkpt lat="40.938215" lon="0.126295"><ele>505.0</ele><time>2026-03-31T10:49:17.158Z</time></trkpt><trkpt lat="40.9382" lon="0.1265033"><ele>505.0</ele><time>2026-03-31T10:49:18.158Z</time></trkpt><trkpt lat="40.9381717" lon="0.1266983"><ele>505.0</ele><time>2026-03-31T10:49:19.158Z</time></trkpt><trkpt lat="40.938145" lon="0.1268783"><ele>505.0</ele><time>2026-03-31T10:49:20.158Z</time></trkpt><trkpt lat="40.9381217" lon="0.127065"><ele>505.0</ele><time>2026-03-31T10:49:21.158Z</time></trkpt><trkpt lat="40.9381067" lon="0.1272417"><ele>505.0</ele><time>2026-03-31T10:49:22.157Z</time></trkpt><trkpt lat="40.9381067" lon="0.1274267"><ele>505.0</ele><time>2026-03-31T10:49:23.157Z</time></trkpt><trkpt lat="40.938115" lon="0.12762"><ele>505.0</ele><time>2026-03-31T10:49:24.157Z</time></trkpt><trkpt lat="40.9381317" lon="0.127805"><ele>505.0</ele><time>2026-03-31T10:49:25.157Z</time></trkpt><trkpt lat="40.938155" lon="0.1279867"><ele>505.0</ele><time>2026-03-31T10:49:26.158Z</time></trkpt><trkpt lat="40.9381833" lon="0.1281567"><ele>505.0</ele><time>2026-03-31T10:49:27.157Z</time></trkpt><trkpt lat="40.9382217" lon="0.1283283"><ele>505.0</ele><time>2026-03-31T10:49:28.157Z</time></trkpt><trkpt lat="40.938285" lon="0.12849"><ele>504.25</ele><time>2026-03-31T10:49:29.158Z</time></trkpt><trkpt lat="40.938365" lon="0.12864"><ele>503.5</ele><time>2026-03-31T10:49:30.157Z</time></trkpt><trkpt lat="40.9384633" lon="0.1287767"><ele>502.75</ele><time>2026-03-31T10:49:31.157Z</time></trkpt><trkpt lat="40.9385717" lon="0.1289017"><ele>502.0</ele><time>2026-03-31T10:49:32.157Z</time></trkpt><trkpt lat="40.9386833" lon="0.1290267"><ele>500.33333333333337</ele><time>2026-03-31T10:49:33.158Z</time></trkpt><trkpt lat="40.9387983" lon="0.1291567"><ele>498.66666666666663</ele><time>2026-03-31T10:49:34.158Z</time></trkpt><trkpt lat="40.9389117" lon="0.1293017"><ele>497.0</ele><time>2026-03-31T10:49:35.157Z</time></trkpt><trkpt lat="40.9390317" lon="0.12944"><ele>497.0</ele><time>2026-03-31T10:49:36.158Z</time></trkpt><trkpt lat="40.93914" lon="0.12958"><ele>497.0</ele><time>2026-03-31T10:49:37.158Z</time></trkpt><trkpt lat="40.9392517" lon="0.129725"><ele>497.0</ele><time>2026-03-31T10:49:38.157Z</time></trkpt><trkpt lat="40.9393717" lon="0.1298683"><ele>496.75</ele><time>2026-03-31T10:49:39.157Z</time></trkpt><trkpt lat="40.939495" lon="0.1300033"><ele>496.5</ele><time>2026-03-31T10:49:40.157Z</time></trkpt><trkpt lat="40.9396083" lon="0.1301067"><ele>496.25</ele><time>2026-03-31T10:49:41.158Z</time></trkpt><trkpt lat="40.939725" lon="0.13019"><ele>496.0</ele><time>2026-03-31T10:49:42.157Z</time></trkpt><trkpt lat="40.93984" lon="0.1302467"><ele>496.0</ele><time>2026-03-31T10:49:43.157Z</time></trkpt><trkpt lat="40.9399517" lon="0.13027"><ele>496.0</ele><time>2026-03-31T10:49:44.158Z</time></trkpt><trkpt lat="40.94007" lon="0.13027"><ele>496.0</ele><time>2026-03-31T10:49:45.158Z</time></trkpt><trkpt lat="40.9401917" lon="0.1302367"><ele>496.0</ele><time>2026-03-31T10:49:46.157Z</time></trkpt><trkpt lat="40.9403167" lon="0.1301767"><ele>497.0</ele><time>2026-03-31T10:49:47.157Z</time></trkpt><trkpt lat="40.9404367" lon="0.1301"><ele>498.0</ele><time>2026-03-31T10:49:48.157Z</time></trkpt><trkpt lat="40.9405583" lon="0.1300233"><ele>499.0</ele><time>2026-03-31T10:49:49.157Z</time></trkpt><trkpt lat="40.9406783" lon="0.1299467"><ele>500.0</ele><time>2026-03-31T10:49:50.158Z</time></trkpt><trkpt lat="40.9407917" lon="0.1299"><ele>500.25</ele><time>2026-03-31T10:49:51.157Z</time></trkpt><trkpt lat="40.9409133" lon="0.12988"><ele>500.5</ele><time>2026-03-31T10:49:52.157Z</time></trkpt><trkpt lat="40.94103" lon="0.1299017"><ele>500.75</ele><time>2026-03-31T10:49:53.157Z</time></trkpt><trkpt lat="40.9411433" lon="0.1299567"><ele>501.0</ele><time>2026-03-31T10:49:54.157Z</time></trkpt><trkpt lat="40.9412667" lon="0.1300217"><ele>501.0</ele><time>2026-03-31T10:49:55.158Z</time></trkpt><trkpt lat="40.9414" lon="0.1301"><ele>501.0</ele><time>2026-03-31T10:49:56.158Z</time></trkpt><trkpt lat="40.941535" lon="0.1301767"><ele>501.0</ele><time>2026-03-31T10:49:57.158Z</time></trkpt><trkpt lat="40.9416717" lon="0.13025"><ele>501.0</ele><time>2026-03-31T10:49:58.158Z</time></trkpt><trkpt lat="40.9418083" lon="0.1303317"><ele>500.0</ele><time>2026-03-31T10:49:59.157Z</time></trkpt><trkpt lat="40.9419467" lon="0.130415"><ele>499.0</ele><time>2026-03-31T10:50:00.157Z</time></trkpt><trkpt lat="40.94209" lon="0.1305033"><ele>498.0</ele><time>2026-03-31T10:50:01.158Z</time></trkpt><trkpt lat="40.9422317" lon="0.1305867"><ele>498.0</ele><time>2026-03-31T10:50:02.157Z</time></trkpt><trkpt lat="40.942375" lon="0.130655"><ele>498.0</ele><time>2026-03-31T10:50:03.157Z</time></trkpt><trkpt lat="40.9425117" lon="0.1307033"><ele>498.0</ele><time>2026-03-31T10:50:04.157Z</time></trkpt><trkpt lat="40.9426417" lon="0.1307183"><ele>498.0</ele><time>2026-03-31T10:50:05.157Z</time></trkpt><trkpt lat="40.9427683" lon="0.130735"><ele>500.25</ele><time>2026-03-31T10:50:06.157Z</time></trkpt><trkpt lat="40.9428967" lon="0.13075"><ele>502.5</ele><time>2026-03-31T10:50:07.158Z</time></trkpt><trkpt lat="40.9430267" lon="0.1307833"><ele>504.75</ele><time>2026-03-31T10:50:08.158Z</time></trkpt><trkpt lat="40.94316" lon="0.1308467"><ele>507.0</ele><time>2026-03-31T10:50:09.158Z</time></trkpt><trkpt lat="40.94329" lon="0.1309383"><ele>507.0</ele><time>2026-03-31T10:50:10.158Z</time></trkpt><trkpt lat="40.9434117" lon="0.1310467"><ele>507.0</ele><time>2026-03-31T10:50:11.157Z</time></trkpt><trkpt lat="40.943545" lon="0.1311733"><ele>507.0</ele><time>2026-03-31T10:50:12.157Z</time></trkpt><trkpt lat="40.9436783" lon="0.1313067"><ele>507.0</ele><time>2026-03-31T10:50:13.157Z</time></trkpt><trkpt lat="40.94381" lon="0.1314217"><ele>507.0</ele><time>2026-03-31T10:50:14.158Z</time></trkpt><trkpt lat="40.9439217" lon="0.13155"><ele>507.0</ele><time>2026-03-31T10:50:15.157Z</time></trkpt><trkpt lat="40.94402" lon="0.131685"><ele>507.0</ele><time>2026-03-31T10:50:16.157Z</time></trkpt><trkpt lat="40.9441117" lon="0.1318283"><ele>507.75</ele><time>2026-03-31T10:50:17.158Z</time></trkpt><trkpt lat="40.9441933" lon="0.131975"><ele>508.5</ele><time>2026-03-31T10:50:18.157Z</time></trkpt><trkpt lat="40.9442833" lon="0.1321167"><ele>509.25</ele><time>2026-03-31T10:50:19.157Z</time></trkpt><trkpt lat="40.944355" lon="0.13224"><ele>510.0</ele><time>2026-03-31T10:50:20.158Z</time></trkpt><trkpt lat="40.944425" lon="0.1323917"><ele>510.0</ele><time>2026-03-31T10:50:21.157Z</time></trkpt><trkpt lat="40.9444867" lon="0.1325633"><ele>510.0</ele><time>2026-03-31T10:50:22.158Z</time></trkpt><trkpt lat="40.94455" lon="0.132755"><ele>510.0</ele><time>2026-03-31T10:50:23.158Z</time></trkpt><trkpt lat="40.9446133" lon="0.1329333"><ele>510.0</ele><time>2026-03-31T10:50:24.158Z</time></trkpt><trkpt lat="40.9446733" lon="0.1330917"><ele>510.0</ele><time>2026-03-31T10:50:25.158Z</time></trkpt><trkpt lat="40.9447433" lon="0.1332183"><ele>510.0</ele><time>2026-03-31T10:50:26.157Z</time></trkpt><trkpt lat="40.9448367" lon="0.1333233"><ele>510.0</ele><time>2026-03-31T10:50:27.157Z</time></trkpt><trkpt lat="40.9449433" lon="0.1334267"><ele>505.66666666666663</ele><time>2026-03-31T10:50:28.157Z</time></trkpt><trkpt lat="40.9450717" lon="0.1335283"><ele>501.3333333333333</ele><time>2026-03-31T10:50:29.157Z</time></trkpt><trkpt lat="40.9452017" lon="0.1336333"><ele>497.0</ele><time>2026-03-31T10:50:30.158Z</time></trkpt><trkpt lat="40.945325" lon="0.1337433"><ele>497.0</ele><time>2026-03-31T10:50:31.157Z</time></trkpt><trkpt lat="40.94544" lon="0.133885"><ele>497.0</ele><time>2026-03-31T10:50:32.158Z</time></trkpt><trkpt lat="40.945545" lon="0.13404"><ele>497.0</ele><time>2026-03-31T10:50:33.158Z</time></trkpt><trkpt lat="40.9456533" lon="0.1342083"><ele>497.0</ele><time>2026-03-31T10:50:34.158Z</time></trkpt><trkpt lat="40.9457533" lon="0.1343767"><ele>497.0</ele><time>2026-03-31T10:50:35.158Z</time></trkpt><trkpt lat="40.9458433" lon="0.13455"><ele>497.0</ele><time>2026-03-31T10:50:36.158Z</time></trkpt><trkpt lat="40.9459383" lon="0.1346917"><ele>496.25</ele><time>2026-03-31T10:50:37.157Z</time></trkpt><trkpt lat="40.9460417" lon="0.13481"><ele>495.5</ele><time>2026-03-31T10:50:38.157Z</time></trkpt><trkpt lat="40.9461483" lon="0.1348983"><ele>494.75</ele><time>2026-03-31T10:50:39.158Z</time></trkpt><trkpt lat="40.9462683" lon="0.1349733"><ele>494.0</ele><time>2026-03-31T10:50:40.157Z</time></trkpt><trkpt lat="40.9463917" lon="0.13502"><ele>496.25</ele><time>2026-03-31T10:50:41.157Z</time></trkpt><trkpt lat="40.9465017" lon="0.1350683"><ele>498.5</ele><time>2026-03-31T10:50:42.158Z</time></trkpt><trkpt lat="40.9465967" lon="0.1351517"><ele>500.75</ele><time>2026-03-31T10:50:43.157Z</time></trkpt><trkpt lat="40.9466767" lon="0.13528"><ele>503.0</ele><time>2026-03-31T10:50:44.157Z</time></trkpt><trkpt lat="40.9467367" lon="0.1354217"><ele>503.25</ele><time>2026-03-31T10:50:45.158Z</time></trkpt><trkpt lat="40.9467917" lon="0.13558"><ele>503.5</ele><time>2026-03-31T10:50:46.158Z</time></trkpt><trkpt lat="40.9468383" lon="0.1357533"><ele>503.75</ele><time>2026-03-31T10:50:47.157Z</time></trkpt><trkpt lat="40.9468817" lon="0.13593"><ele>504.0</ele><time>2026-03-31T10:50:48.157Z</time></trkpt><trkpt lat="40.9469333" lon="0.136095"><ele>504.0</ele><time>2026-03-31T10:50:49.157Z</time></trkpt><trkpt lat="40.9469883" lon="0.136255"><ele>504.0</ele><time>2026-03-31T10:50:50.157Z</time></trkpt><trkpt lat="40.9470633" lon="0.1364"><ele>504.0</ele><time>2026-03-31T10:50:51.157Z</time></trkpt><trkpt lat="40.94715" lon="0.1365467"><ele>504.0</ele><time>2026-03-31T10:50:52.158Z</time></trkpt><trkpt lat="40.9472317" lon="0.1367017"><ele>504.25</ele><time>2026-03-31T10:50:53.158Z</time></trkpt><trkpt lat="40.9473067" lon="0.1368633"><ele>504.5</ele><time>2026-03-31T10:50:54.157Z</time></trkpt><trkpt lat="40.9473783" lon="0.1370283"><ele>504.75</ele><time>2026-03-31T10:50:55.158Z</time></trkpt><trkpt lat="40.9474433" lon="0.1371917"><ele>505.0</ele><time>2026-03-31T10:50:56.157Z</time></trkpt><trkpt lat="40.9475083" lon="0.13735"><ele>502.5</ele><time>2026-03-31T10:50:57.157Z</time></trkpt><trkpt lat="40.9475883" lon="0.1374833"><ele>500.0</ele><time>2026-03-31T10:50:58.158Z</time></trkpt><trkpt lat="40.94769" lon="0.1376117"><ele>497.5</ele><time>2026-03-31T10:50:59.157Z</time></trkpt><trkpt lat="40.9478067" lon="0.1377317"><ele>495.0</ele><time>2026-03-31T10:51:00.157Z</time></trkpt><trkpt lat="40.9479333" lon="0.13784"><ele>495.0</ele><time>2026-03-31T10:51:01.157Z</time></trkpt><trkpt lat="40.948065" lon="0.1379483"><ele>495.0</ele><time>2026-03-31T10:51:02.158Z</time></trkpt><trkpt lat="40.9481967" lon="0.13806"><ele>495.0</ele><time>2026-03-31T10:51:03.158Z</time></trkpt><trkpt lat="40.948315" lon="0.1381767"><ele>492.75</ele><time>2026-03-31T10:51:04.158Z</time></trkpt><trkpt lat="40.9484367" lon="0.1383"><ele>490.5</ele><time>2026-03-31T10:51:05.157Z</time></trkpt><trkpt lat="40.9485517" lon="0.1384217"><ele>488.25</ele><time>2026-03-31T10:51:06.158Z</time></trkpt><trkpt lat="40.948665" lon="0.1385417"><ele>486.0</ele><time>2026-03-31T10:51:07.158Z</time></trkpt><trkpt lat="40.9487733" lon="0.1386633"><ele>486.0</ele><time>2026-03-31T10:51:08.157Z</time></trkpt><trkpt lat="40.9488883" lon="0.138775"><ele>486.0</ele><time>2026-03-31T10:51:09.158Z</time></trkpt><trkpt lat="40.9489967" lon="0.1388867"><ele>486.0</ele><time>2026-03-31T10:51:10.157Z</time></trkpt><trkpt lat="40.9490883" lon="0.139005"><ele>486.0</ele><time>2026-03-31T10:51:11.158Z</time></trkpt><trkpt lat="40.949165" lon="0.1391367"><ele>483.75</ele><time>2026-03-31T10:51:12.158Z</time></trkpt><trkpt lat="40.94923" lon="0.1392817"><ele>481.5</ele><time>2026-03-31T10:51:13.157Z</time></trkpt><trkpt lat="40.9492883" lon="0.1394383"><ele>479.25</ele><time>2026-03-31T10:51:14.157Z</time></trkpt><trkpt lat="40.94935" lon="0.1395833"><ele>477.0</ele><time>2026-03-31T10:51:15.157Z</time></trkpt><trkpt lat="40.9494067" lon="0.1397217"><ele>477.0</ele><time>2026-03-31T10:51:16.157Z</time></trkpt><trkpt lat="40.9494717" lon="0.1398317"><ele>477.00000000000006</ele><time>2026-03-31T10:51:17.158Z</time></trkpt><trkpt lat="40.9495483" lon="0.1399067"><ele>477.00000000000006</ele><time>2026-03-31T10:51:18.157Z</time></trkpt><trkpt lat="40.9496467" lon="0.1399567"><ele>477.0</ele><time>2026-03-31T10:51:19.157Z</time></trkpt><trkpt lat="40.9497583" lon="0.139975"><ele>477.0</ele><time>2026-03-31T10:51:20.157Z</time></trkpt><trkpt lat="40.949885" lon="0.13996"><ele>477.8</ele><time>2026-03-31T10:51:21.158Z</time></trkpt><trkpt lat="40.9499983" lon="0.1399317"><ele>478.6</ele><time>2026-03-31T10:51:22.157Z</time></trkpt><trkpt lat="40.9501033" lon="0.139895"><ele>479.40000000000003</ele><time>2026-03-31T10:51:23.158Z</time></trkpt><trkpt lat="40.9502017" lon="0.139865"><ele>480.20000000000005</ele><time>2026-03-31T10:51:24.158Z</time></trkpt><trkpt lat="40.95029" lon="0.139795"><ele>481.0</ele><time>2026-03-31T10:51:25.158Z</time></trkpt><trkpt lat="40.95036" lon="0.1397083"><ele>479.00000000000006</ele><time>2026-03-31T10:51:26.158Z</time></trkpt><trkpt lat="40.9504217" lon="0.1396267"><ele>477.0</ele><time>2026-03-31T10:51:27.158Z</time></trkpt><trkpt lat="40.9504817" lon="0.1395617"><ele>475.0</ele><time>2026-03-31T10:51:28.157Z</time></trkpt><trkpt lat="40.9506033" lon="0.1395717"><ele>473.0</ele><time>2026-03-31T10:51:30.158Z</time></trkpt><trkpt lat="40.9506433" lon="0.13965"><ele>471.00000000000006</ele><time>2026-03-31T10:51:31.158Z</time></trkpt><trkpt lat="40.950645" lon="0.1397633"><ele>469.0</ele><time>2026-03-31T10:51:32.157Z</time></trkpt><trkpt lat="40.95063" lon="0.1399083"><ele>469.0</ele><time>2026-03-31T10:51:33.158Z</time></trkpt><trkpt lat="40.9506333" lon="0.1400333"><ele>469.0</ele><time>2026-03-31T10:51:34.158Z</time></trkpt><trkpt lat="40.9506683" lon="0.1401733"><ele>469.0</ele><time>2026-03-31T10:51:35.158Z</time></trkpt><trkpt lat="40.950725" lon="0.14028"><ele>469.0</ele><time>2026-03-31T10:51:36.157Z</time></trkpt><trkpt lat="40.950785" lon="0.1403717"><ele>469.0</ele><time>2026-03-31T10:51:37.158Z</time></trkpt><trkpt lat="40.950845" lon="0.140465"><ele>468.2</ele><time>2026-03-31T10:51:38.158Z</time></trkpt><trkpt lat="40.9508833" lon="0.140575"><ele>467.4</ele><time>2026-03-31T10:51:39.158Z</time></trkpt><trkpt lat="40.950895" lon="0.1407"><ele>466.6</ele><time>2026-03-31T10:51:40.158Z</time></trkpt><trkpt lat="40.9508783" lon="0.1408283"><ele>465.8</ele><time>2026-03-31T10:51:41.158Z</time></trkpt><trkpt lat="40.95083" lon="0.1409833"><ele>465.0</ele><time>2026-03-31T10:51:42.157Z</time></trkpt><trkpt lat="40.9507783" lon="0.1411483"><ele>465.0</ele><time>2026-03-31T10:51:43.157Z</time></trkpt><trkpt lat="40.9507283" lon="0.141315"><ele>465.0</ele><time>2026-03-31T10:51:44.157Z</time></trkpt><trkpt lat="40.950685" lon="0.14147"><ele>465.0</ele><time>2026-03-31T10:51:45.157Z</time></trkpt><trkpt lat="40.9506417" lon="0.1415967"><ele>465.0</ele><time>2026-03-31T10:51:46.157Z</time></trkpt><trkpt lat="40.9505917" lon="0.1417"><ele>464.1666666666667</ele><time>2026-03-31T10:51:47.158Z</time></trkpt><trkpt lat="40.9505283" lon="0.1417717"><ele>463.33333333333337</ele><time>2026-03-31T10:51:48.157Z</time></trkpt><trkpt lat="40.950465" lon="0.141825"><ele>462.5</ele><time>2026-03-31T10:51:49.157Z</time></trkpt><trkpt lat="40.950405" lon="0.14189"><ele>461.6666666666667</ele><time>2026-03-31T10:51:50.158Z</time></trkpt><trkpt lat="40.9503783" lon="0.1419733"><ele>460.83333333333337</ele><time>2026-03-31T10:51:51.157Z</time></trkpt><trkpt lat="40.9503767" lon="0.14208"><ele>460.0</ele><time>2026-03-31T10:51:52.158Z</time></trkpt><trkpt lat="40.9503983" lon="0.1421917"><ele>460.00000000000006</ele><time>2026-03-31T10:51:53.157Z</time></trkpt><trkpt lat="40.9504383" lon="0.14229"><ele>460.0</ele><time>2026-03-31T10:51:54.157Z</time></trkpt><trkpt lat="40.95049" lon="0.14237"><ele>460.0</ele><time>2026-03-31T10:51:55.157Z</time></trkpt><trkpt lat="40.950555" lon="0.1424383"><ele>460.0</ele><time>2026-03-31T10:51:56.157Z</time></trkpt><trkpt lat="40.9506267" lon="0.1424817"><ele>460.00000000000006</ele><time>2026-03-31T10:51:57.157Z</time></trkpt><trkpt lat="40.95071" lon="0.1425083"><ele>460.0</ele><time>2026-03-31T10:51:58.157Z</time></trkpt><trkpt lat="40.9508117" lon="0.1425017"><ele>460.5</ele><time>2026-03-31T10:51:59.158Z</time></trkpt><trkpt lat="40.9509217" lon="0.1424683"><ele>461.0</ele><time>2026-03-31T10:52:00.157Z</time></trkpt><trkpt lat="40.9510433" lon="0.142425"><ele>461.5</ele><time>2026-03-31T10:52:01.157Z</time></trkpt><trkpt lat="40.95116" lon="0.1423683"><ele>462.0</ele><time>2026-03-31T10:52:02.158Z</time></trkpt><trkpt lat="40.9512683" lon="0.1423083"><ele>462.0</ele><time>2026-03-31T10:52:03.158Z</time></trkpt><trkpt lat="40.9513767" lon="0.1422517"><ele>462.00000000000006</ele><time>2026-03-31T10:52:04.158Z</time></trkpt><trkpt lat="40.9514817" lon="0.1421983"><ele>462.00000000000006</ele><time>2026-03-31T10:52:05.157Z</time></trkpt><trkpt lat="40.951585" lon="0.14218"><ele>462.0</ele><time>2026-03-31T10:52:06.157Z</time></trkpt><trkpt lat="40.951685" lon="0.142185"><ele>462.0</ele><time>2026-03-31T10:52:07.157Z</time></trkpt><trkpt lat="40.951785" lon="0.1422133"><ele>464.20000000000005</ele><time>2026-03-31T10:52:08.157Z</time></trkpt><trkpt lat="40.95189" lon="0.14227"><ele>466.40000000000003</ele><time>2026-03-31T10:52:09.158Z</time></trkpt><trkpt lat="40.9519983" lon="0.1423167"><ele>468.59999999999997</ele><time>2026-03-31T10:52:10.157Z</time></trkpt><trkpt lat="40.952105" lon="0.1423267"><ele>470.79999999999995</ele><time>2026-03-31T10:52:11.158Z</time></trkpt><trkpt lat="40.9521967" lon="0.142295"><ele>473.0</ele><time>2026-03-31T10:52:12.158Z</time></trkpt><trkpt lat="40.9522833" lon="0.1422267"><ele>473.0</ele><time>2026-03-31T10:52:13.157Z</time></trkpt><trkpt lat="40.9523767" lon="0.142135"><ele>472.99999999999994</ele><time>2026-03-31T10:52:14.158Z</time></trkpt><trkpt lat="40.9524683" lon="0.142045"><ele>472.99999999999994</ele><time>2026-03-31T10:52:15.158Z</time></trkpt><trkpt lat="40.9525633" lon="0.1419817"><ele>473.0</ele><time>2026-03-31T10:52:16.157Z</time></trkpt><trkpt lat="40.9526683" lon="0.1419517"><ele>473.0</ele><time>2026-03-31T10:52:17.158Z</time></trkpt><trkpt lat="40.9527667" lon="0.141975"><ele>473.75</ele><time>2026-03-31T10:52:18.157Z</time></trkpt><trkpt lat="40.952845" lon="0.1420383"><ele>474.5</ele><time>2026-03-31T10:52:19.158Z</time></trkpt><trkpt lat="40.9529267" lon="0.14214"><ele>475.25</ele><time>2026-03-31T10:52:20.158Z</time></trkpt><trkpt lat="40.9530033" lon="0.1422617"><ele>476.0</ele><time>2026-03-31T10:52:21.157Z</time></trkpt><trkpt lat="40.95309" lon="0.142385"><ele>477.5</ele><time>2026-03-31T10:52:22.157Z</time></trkpt><trkpt lat="40.9531717" lon="0.14249"><ele>479.0</ele><time>2026-03-31T10:52:23.157Z</time></trkpt><trkpt lat="40.9532817" lon="0.142575"><ele>480.5</ele><time>2026-03-31T10:52:24.158Z</time></trkpt><trkpt lat="40.9534" lon="0.1426133"><ele>482.0</ele><time>2026-03-31T10:52:25.157Z</time></trkpt><trkpt lat="40.9535183" lon="0.142605"><ele>482.5</ele><time>2026-03-31T10:52:26.158Z</time></trkpt><trkpt lat="40.9536417" lon="0.1425683"><ele>483.0</ele><time>2026-03-31T10:52:27.157Z</time></trkpt><trkpt lat="40.95376" lon="0.1425167"><ele>483.5</ele><time>2026-03-31T10:52:28.157Z</time></trkpt><trkpt lat="40.9538783" lon="0.1424783"><ele>484.0</ele><time>2026-03-31T10:52:29.157Z</time></trkpt><trkpt lat="40.9539833" lon="0.1424517"><ele>484.0</ele><time>2026-03-31T10:52:30.157Z</time></trkpt><trkpt lat="40.9540867" lon="0.1424483"><ele>484.0</ele><time>2026-03-31T10:52:31.157Z</time></trkpt><trkpt lat="40.954185" lon="0.14247"><ele>484.0</ele><time>2026-03-31T10:52:32.158Z</time></trkpt><trkpt lat="40.954285" lon="0.1425267"><ele>484.0</ele><time>2026-03-31T10:52:33.157Z</time></trkpt><trkpt lat="40.954385" lon="0.1426117"><ele>484.0</ele><time>2026-03-31T10:52:34.157Z</time></trkpt><trkpt lat="40.95448" lon="0.1427017"><ele>484.25</ele><time>2026-03-31T10:52:35.158Z</time></trkpt><trkpt lat="40.95458" lon="0.142805"><ele>484.5</ele><time>2026-03-31T10:52:36.157Z</time></trkpt><trkpt lat="40.9546683" lon="0.1429317"><ele>484.75</ele><time>2026-03-31T10:52:37.157Z</time></trkpt><trkpt lat="40.9547533" lon="0.1430883"><ele>485.0</ele><time>2026-03-31T10:52:38.157Z</time></trkpt><trkpt lat="40.954835" lon="0.1432517"><ele>485.66666666666663</ele><time>2026-03-31T10:52:39.157Z</time></trkpt><trkpt lat="40.9549167" lon="0.143425"><ele>486.33333333333337</ele><time>2026-03-31T10:52:40.158Z</time></trkpt><trkpt lat="40.9549967" lon="0.1435933"><ele>487.0</ele><time>2026-03-31T10:52:41.157Z</time></trkpt><trkpt lat="40.9550817" lon="0.14375"><ele>486.25</ele><time>2026-03-31T10:52:42.158Z</time></trkpt><trkpt lat="40.9551717" lon="0.1439067"><ele>485.5</ele><time>2026-03-31T10:52:43.157Z</time></trkpt><trkpt lat="40.955275" lon="0.144035"><ele>484.75</ele><time>2026-03-31T10:52:44.158Z</time></trkpt><trkpt lat="40.9553933" lon="0.1441617"><ele>484.0</ele><time>2026-03-31T10:52:45.158Z</time></trkpt><trkpt lat="40.9555233" lon="0.1442933"><ele>484.0</ele><time>2026-03-31T10:52:46.158Z</time></trkpt><trkpt lat="40.9556567" lon="0.14443"><ele>484.0</ele><time>2026-03-31T10:52:47.158Z</time></trkpt><trkpt lat="40.95579" lon="0.1445733"><ele>484.0</ele><time>2026-03-31T10:52:48.158Z</time></trkpt><trkpt lat="40.9559283" lon="0.1447217"><ele>482.6666666666667</ele><time>2026-03-31T10:52:49.157Z</time></trkpt><trkpt lat="40.9560583" lon="0.14485"><ele>481.33333333333337</ele><time>2026-03-31T10:52:50.158Z</time></trkpt><trkpt lat="40.9561933" lon="0.1449867"><ele>480.0</ele><time>2026-03-31T10:52:51.158Z</time></trkpt><trkpt lat="40.9563317" lon="0.1451233"><ele>480.0</ele><time>2026-03-31T10:52:52.158Z</time></trkpt><trkpt lat="40.9564717" lon="0.145255"><ele>480.0</ele><time>2026-03-31T10:52:53.157Z</time></trkpt><trkpt lat="40.9566033" lon="0.1453933"><ele>480.0</ele><time>2026-03-31T10:52:54.157Z</time></trkpt><trkpt lat="40.9567317" lon="0.145525"><ele>480.25</ele><time>2026-03-31T10:52:55.158Z</time></trkpt><trkpt lat="40.9568533" lon="0.1456533"><ele>480.5</ele><time>2026-03-31T10:52:56.157Z</time></trkpt><trkpt lat="40.9569667" lon="0.1457817"><ele>480.75</ele><time>2026-03-31T10:52:57.157Z</time></trkpt><trkpt lat="40.9570717" lon="0.14591"><ele>481.0</ele><time>2026-03-31T10:52:58.157Z</time></trkpt><trkpt lat="40.9571733" lon="0.146055"><ele>481.33333333333337</ele><time>2026-03-31T10:52:59.158Z</time></trkpt><trkpt lat="40.9572767" lon="0.14621"><ele>481.66666666666663</ele><time>2026-03-31T10:53:00.158Z</time></trkpt><trkpt lat="40.9573867" lon="0.1463667"><ele>482.0</ele><time>2026-03-31T10:53:01.158Z</time></trkpt><trkpt lat="40.9575033" lon="0.1465217"><ele>481.3333333333333</ele><time>2026-03-31T10:53:02.157Z</time></trkpt><trkpt lat="40.9576283" lon="0.1466617"><ele>480.66666666666663</ele><time>2026-03-31T10:53:03.157Z</time></trkpt><trkpt lat="40.9577683" lon="0.146795"><ele>480.0</ele><time>2026-03-31T10:53:04.157Z</time></trkpt><trkpt lat="40.9579133" lon="0.1469167"><ele>480.0</ele><time>2026-03-31T10:53:05.157Z</time></trkpt><trkpt lat="40.9580567" lon="0.14703"><ele>480.0</ele><time>2026-03-31T10:53:06.157Z</time></trkpt><trkpt lat="40.9581917" lon="0.14713"><ele>480.0</ele><time>2026-03-31T10:53:07.158Z</time></trkpt><trkpt lat="40.95833" lon="0.1472033"><ele>478.33333333333337</ele><time>2026-03-31T10:53:08.157Z</time></trkpt><trkpt lat="40.9584783" lon="0.14726"><ele>476.6666666666667</ele><time>2026-03-31T10:53:09.157Z</time></trkpt><trkpt lat="40.9586367" lon="0.147295"><ele>475.0</ele><time>2026-03-31T10:53:10.158Z</time></trkpt><trkpt lat="40.958795" lon="0.1473267"><ele>475.0</ele><time>2026-03-31T10:53:11.158Z</time></trkpt><trkpt lat="40.9589517" lon="0.1473583"><ele>475.0</ele><time>2026-03-31T10:53:12.157Z</time></trkpt><trkpt lat="40.95911" lon="0.1473983"><ele>475.0</ele><time>2026-03-31T10:53:13.157Z</time></trkpt><trkpt lat="40.959265" lon="0.1474333"><ele>475.5</ele><time>2026-03-31T10:53:14.158Z</time></trkpt><trkpt lat="40.9594067" lon="0.1474633"><ele>476.0</ele><time>2026-03-31T10:53:15.157Z</time></trkpt><trkpt lat="40.959535" lon="0.147485"><ele>476.5</ele><time>2026-03-31T10:53:16.157Z</time></trkpt><trkpt lat="40.959645" lon="0.1474633"><ele>477.0</ele><time>2026-03-31T10:53:17.158Z</time></trkpt><trkpt lat="40.9597483" lon="0.1473967"><ele>476.5</ele><time>2026-03-31T10:53:18.157Z</time></trkpt><trkpt lat="40.95984" lon="0.1473033"><ele>476.0</ele><time>2026-03-31T10:53:19.158Z</time></trkpt><trkpt lat="40.959925" lon="0.1471967"><ele>475.5</ele><time>2026-03-31T10:53:20.158Z</time></trkpt><trkpt lat="40.9600033" lon="0.147065"><ele>475.0</ele><time>2026-03-31T10:53:21.158Z</time></trkpt><trkpt lat="40.96006" lon="0.146895"><ele>476.5</ele><time>2026-03-31T10:53:22.157Z</time></trkpt><trkpt lat="40.9601" lon="0.146705"><ele>478.0</ele><time>2026-03-31T10:53:23.157Z</time></trkpt><trkpt lat="40.9601167" lon="0.1465067"><ele>479.5</ele><time>2026-03-31T10:53:24.157Z</time></trkpt><trkpt lat="40.9601267" lon="0.1463133"><ele>481.0</ele><time>2026-03-31T10:53:25.157Z</time></trkpt><trkpt lat="40.96013" lon="0.14612"><ele>482.0</ele><time>2026-03-31T10:53:26.158Z</time></trkpt><trkpt lat="40.960145" lon="0.1459083"><ele>483.0</ele><time>2026-03-31T10:53:27.158Z</time></trkpt><trkpt lat="40.9601667" lon="0.1457"><ele>484.0</ele><time>2026-03-31T10:53:28.158Z</time></trkpt><trkpt lat="40.960175" lon="0.1455"><ele>484.0</ele><time>2026-03-31T10:53:29.157Z</time></trkpt><trkpt lat="40.960185" lon="0.1453083"><ele>484.0</ele><time>2026-03-31T10:53:30.157Z</time></trkpt><trkpt lat="40.9601917" lon="0.1451317"><ele>484.0</ele><time>2026-03-31T10:53:31.157Z</time></trkpt><trkpt lat="40.9601983" lon="0.1449667"><ele>484.0</ele><time>2026-03-31T10:53:32.158Z</time></trkpt><trkpt lat="40.9602033" lon="0.144815"><ele>483.0</ele><time>2026-03-31T10:53:33.157Z</time></trkpt><trkpt lat="40.9602217" lon="0.144655"><ele>482.0</ele><time>2026-03-31T10:53:34.157Z</time></trkpt><trkpt lat="40.9602367" lon="0.14448"><ele>481.0</ele><time>2026-03-31T10:53:35.157Z</time></trkpt><trkpt lat="40.9602567" lon="0.144295"><ele>480.0</ele><time>2026-03-31T10:53:36.157Z</time></trkpt><trkpt lat="40.960285" lon="0.14411"><ele>481.0</ele><time>2026-03-31T10:53:37.157Z</time></trkpt><trkpt lat="40.960315" lon="0.14391"><ele>482.0</ele><time>2026-03-31T10:53:38.158Z</time></trkpt><trkpt lat="40.9603333" lon="0.1437133"><ele>483.0</ele><time>2026-03-31T10:53:39.157Z</time></trkpt><trkpt lat="40.9603567" lon="0.1435033"><ele>483.0</ele><time>2026-03-31T10:53:40.157Z</time></trkpt><trkpt lat="40.9603783" lon="0.1433"><ele>483.0</ele><time>2026-03-31T10:53:41.157Z</time></trkpt><trkpt lat="40.9604067" lon="0.1431"><ele>483.0</ele><time>2026-03-31T10:53:42.157Z</time></trkpt><trkpt lat="40.9604267" lon="0.142895"><ele>483.66666666666663</ele><time>2026-03-31T10:53:43.157Z</time></trkpt><trkpt lat="40.9604517" lon="0.1426833"><ele>484.3333333333333</ele><time>2026-03-31T10:53:44.158Z</time></trkpt><trkpt lat="40.960475" lon="0.1424717"><ele>485.0</ele><time>2026-03-31T10:53:45.157Z</time></trkpt><trkpt lat="40.9604983" lon="0.142265"><ele>486.66666666666663</ele><time>2026-03-31T10:53:46.157Z</time></trkpt><trkpt lat="40.9605233" lon="0.1420567"><ele>488.33333333333337</ele><time>2026-03-31T10:53:47.157Z</time></trkpt><trkpt lat="40.960555" lon="0.1418533"><ele>490.0</ele><time>2026-03-31T10:53:48.157Z</time></trkpt><trkpt lat="40.96058" lon="0.1416467"><ele>490.25</ele><time>2026-03-31T10:53:49.157Z</time></trkpt><trkpt lat="40.9606033" lon="0.1414517"><ele>490.5</ele><time>2026-03-31T10:53:50.158Z</time></trkpt><trkpt lat="40.9606283" lon="0.1412633"><ele>490.75</ele><time>2026-03-31T10:53:51.158Z</time></trkpt><trkpt lat="40.96065" lon="0.14108"><ele>491.0</ele><time>2026-03-31T10:53:52.157Z</time></trkpt><trkpt lat="40.96067" lon="0.1408883"><ele>491.25</ele><time>2026-03-31T10:53:53.158Z</time></trkpt><trkpt lat="40.96069" lon="0.1407017"><ele>491.5</ele><time>2026-03-31T10:53:54.158Z</time></trkpt><trkpt lat="40.9607017" lon="0.140535"><ele>491.75</ele><time>2026-03-31T10:53:55.157Z</time></trkpt><trkpt lat="40.9607133" lon="0.14037"><ele>492.0</ele><time>2026-03-31T10:53:56.157Z</time></trkpt><trkpt lat="40.9607217" lon="0.1402167"><ele>492.0</ele><time>2026-03-31T10:53:57.158Z</time></trkpt><trkpt lat="40.96074" lon="0.1400617"><ele>492.0</ele><time>2026-03-31T10:53:58.158Z</time></trkpt><trkpt lat="40.960755" lon="0.1399117"><ele>492.0</ele><time>2026-03-31T10:53:59.158Z</time></trkpt><trkpt lat="40.9607667" lon="0.1397317"><ele>492.0</ele><time>2026-03-31T10:54:00.158Z</time></trkpt><trkpt lat="40.960795" lon="0.1395467"><ele>490.33333333333337</ele><time>2026-03-31T10:54:01.157Z</time></trkpt><trkpt lat="40.9608233" lon="0.139355"><ele>488.6666666666667</ele><time>2026-03-31T10:54:02.157Z</time></trkpt><trkpt lat="40.960845" lon="0.1391533"><ele>487.0</ele><time>2026-03-31T10:54:03.158Z</time></trkpt><trkpt lat="40.9608667" lon="0.1389533"><ele>486.0</ele><time>2026-03-31T10:54:04.158Z</time></trkpt><trkpt lat="40.9608833" lon="0.1387533"><ele>485.0</ele><time>2026-03-31T10:54:05.157Z</time></trkpt><trkpt lat="40.9609" lon="0.1385517"><ele>484.0</ele><time>2026-03-31T10:54:06.158Z</time></trkpt><trkpt lat="40.96092" lon="0.1383533"><ele>484.75</ele><time>2026-03-31T10:54:07.158Z</time></trkpt><trkpt lat="40.9609383" lon="0.1381533"><ele>485.5</ele><time>2026-03-31T10:54:08.158Z</time></trkpt><trkpt lat="40.9609517" lon="0.1379617"><ele>486.25</ele><time>2026-03-31T10:54:09.158Z</time></trkpt><trkpt lat="40.9609617" lon="0.1377767"><ele>487.0</ele><time>2026-03-31T10:54:10.157Z</time></trkpt><trkpt lat="40.96097" lon="0.13761"><ele>487.0</ele><time>2026-03-31T10:54:11.158Z</time></trkpt><trkpt lat="40.9609817" lon="0.137435"><ele>487.0</ele><time>2026-03-31T10:54:12.158Z</time></trkpt><trkpt lat="40.9610117" lon="0.1372567"><ele>487.0</ele><time>2026-03-31T10:54:13.158Z</time></trkpt><trkpt lat="40.96105" lon="0.1370717"><ele>487.0</ele><time>2026-03-31T10:54:14.158Z</time></trkpt><trkpt lat="40.961105" lon="0.1368783"><ele>485.33333333333337</ele><time>2026-03-31T10:54:15.158Z</time></trkpt><trkpt lat="40.9611567" lon="0.13669"><ele>483.66666666666663</ele><time>2026-03-31T10:54:16.157Z</time></trkpt><trkpt lat="40.9612167" lon="0.1364983"><ele>482.0</ele><time>2026-03-31T10:54:17.158Z</time></trkpt><trkpt lat="40.961285" lon="0.1362967"><ele>480.0</ele><time>2026-03-31T10:54:18.157Z</time></trkpt><trkpt lat="40.961355" lon="0.1360933"><ele>478.0</ele><time>2026-03-31T10:54:19.158Z</time></trkpt><trkpt lat="40.9614233" lon="0.1358933"><ele>476.0</ele><time>2026-03-31T10:54:20.157Z</time></trkpt><trkpt lat="40.9614917" lon="0.1357067"><ele>474.75</ele><time>2026-03-31T10:54:21.157Z</time></trkpt><trkpt lat="40.96155" lon="0.1355183"><ele>473.5</ele><time>2026-03-31T10:54:22.157Z</time></trkpt><trkpt lat="40.9616133" lon="0.13534"><ele>472.25</ele><time>2026-03-31T10:54:23.158Z</time></trkpt><trkpt lat="40.961655" lon="0.1351617"><ele>471.0</ele><time>2026-03-31T10:54:24.157Z</time></trkpt><trkpt lat="40.9616833" lon="0.1349717"><ele>470.33333333333337</ele><time>2026-03-31T10:54:25.158Z</time></trkpt><trkpt lat="40.9616933" lon="0.1347633"><ele>469.6666666666667</ele><time>2026-03-31T10:54:26.158Z</time></trkpt><trkpt lat="40.9616883" lon="0.134555"><ele>469.0</ele><time>2026-03-31T10:54:27.158Z</time></trkpt><trkpt lat="40.96167" lon="0.1343633"><ele>469.0</ele><time>2026-03-31T10:54:28.158Z</time></trkpt><trkpt lat="40.961655" lon="0.1341667"><ele>469.0</ele><time>2026-03-31T10:54:29.157Z</time></trkpt><trkpt lat="40.9616633" lon="0.133975"><ele>469.0</ele><time>2026-03-31T10:54:30.157Z</time></trkpt><trkpt lat="40.961705" lon="0.1337917"><ele>469.0</ele><time>2026-03-31T10:54:31.157Z</time></trkpt><trkpt lat="40.96177" lon="0.13362"><ele>468.25</ele><time>2026-03-31T10:54:32.157Z</time></trkpt><trkpt lat="40.9618517" lon="0.1334617"><ele>467.5</ele><time>2026-03-31T10:54:33.157Z</time></trkpt><trkpt lat="40.9619367" lon="0.13331"><ele>466.75</ele><time>2026-03-31T10:54:34.157Z</time></trkpt><trkpt lat="40.96203" lon="0.1331583"><ele>466.0</ele><time>2026-03-31T10:54:35.158Z</time></trkpt><trkpt lat="40.962115" lon="0.1330083"><ele>466.0</ele><time>2026-03-31T10:54:36.157Z</time></trkpt><trkpt lat="40.9621917" lon="0.1328733"><ele>466.0</ele><time>2026-03-31T10:54:37.157Z</time></trkpt><trkpt lat="40.9622683" lon="0.13277"><ele>466.0</ele><time>2026-03-31T10:54:38.157Z</time></trkpt><trkpt lat="40.9623633" lon="0.1326983"><ele>466.0</ele><time>2026-03-31T10:54:39.157Z</time></trkpt><trkpt lat="40.9624767" lon="0.1326733"><ele>464.75</ele><time>2026-03-31T10:54:40.158Z</time></trkpt><trkpt lat="40.9626017" lon="0.1326717"><ele>463.5</ele><time>2026-03-31T10:54:41.157Z</time></trkpt><trkpt lat="40.9627383" lon="0.132695"><ele>462.25</ele><time>2026-03-31T10:54:42.158Z</time></trkpt><trkpt lat="40.9628817" lon="0.13272"><ele>461.0</ele><time>2026-03-31T10:54:43.158Z</time></trkpt><trkpt lat="40.9630217" lon="0.13274"><ele>461.0</ele><time>2026-03-31T10:54:44.157Z</time></trkpt><trkpt lat="40.9631683" lon="0.1327633"><ele>461.0</ele><time>2026-03-31T10:54:45.158Z</time></trkpt><trkpt lat="40.9633067" lon="0.13278"><ele>461.0</ele><time>2026-03-31T10:54:46.158Z</time></trkpt><trkpt lat="40.9634333" lon="0.1328067"><ele>461.0</ele><time>2026-03-31T10:54:47.158Z</time></trkpt><trkpt lat="40.9635583" lon="0.1328167"><ele>462.0</ele><time>2026-03-31T10:54:48.157Z</time></trkpt><trkpt lat="40.9636683" lon="0.132805"><ele>463.0</ele><time>2026-03-31T10:54:49.157Z</time></trkpt><trkpt lat="40.9637883" lon="0.1327517"><ele>464.0</ele><time>2026-03-31T10:54:50.158Z</time></trkpt><trkpt lat="40.9638917" lon="0.13268"><ele>465.0</ele><time>2026-03-31T10:54:51.158Z</time></trkpt><trkpt lat="40.963985" lon="0.1325767"><ele>465.0</ele><time>2026-03-31T10:54:52.158Z</time></trkpt><trkpt lat="40.964065" lon="0.132445"><ele>465.0</ele><time>2026-03-31T10:54:53.157Z</time></trkpt><trkpt lat="40.9641133" lon="0.1322967"><ele>465.0</ele><time>2026-03-31T10:54:54.157Z</time></trkpt><trkpt lat="40.9641383" lon="0.1321233"><ele>465.0</ele><time>2026-03-31T10:54:55.157Z</time></trkpt><trkpt lat="40.96415" lon="0.1319417"><ele>464.5</ele><time>2026-03-31T10:54:56.158Z</time></trkpt><trkpt lat="40.9641633" lon="0.1317483"><ele>464.0</ele><time>2026-03-31T10:54:57.157Z</time></trkpt><trkpt lat="40.9641833" lon="0.1315533"><ele>463.5</ele><time>2026-03-31T10:54:58.157Z</time></trkpt><trkpt lat="40.9642017" lon="0.1313617"><ele>463.0</ele><time>2026-03-31T10:54:59.157Z</time></trkpt><trkpt lat="40.96422" lon="0.1311717"><ele>464.25</ele><time>2026-03-31T10:55:00.157Z</time></trkpt><trkpt lat="40.9642267" lon="0.1309733"><ele>465.5</ele><time>2026-03-31T10:55:01.157Z</time></trkpt><trkpt lat="40.9642383" lon="0.130785"><ele>466.75</ele><time>2026-03-31T10:55:02.158Z</time></trkpt><trkpt lat="40.9642567" lon="0.1306083"><ele>468.0</ele><time>2026-03-31T10:55:03.158Z</time></trkpt><trkpt lat="40.9642783" lon="0.1304517"><ele>468.0</ele><time>2026-03-31T10:55:04.157Z</time></trkpt><trkpt lat="40.9643233" lon="0.1303083"><ele>468.0</ele><time>2026-03-31T10:55:05.158Z</time></trkpt><trkpt lat="40.9643933" lon="0.1301883"><ele>468.0</ele><time>2026-03-31T10:55:06.158Z</time></trkpt><trkpt lat="40.964495" lon="0.1300733"><ele>468.0</ele><time>2026-03-31T10:55:07.158Z</time></trkpt><trkpt lat="40.9646067" lon="0.1299717"><ele>467.5</ele><time>2026-03-31T10:55:08.158Z</time></trkpt><trkpt lat="40.96472" lon="0.1298767"><ele>467.0</ele><time>2026-03-31T10:55:09.157Z</time></trkpt><trkpt lat="40.9648283" lon="0.1297783"><ele>466.5</ele><time>2026-03-31T10:55:10.157Z</time></trkpt><trkpt lat="40.96494" lon="0.1296867"><ele>466.0</ele><time>2026-03-31T10:55:11.157Z</time></trkpt><trkpt lat="40.9650533" lon="0.1295983"><ele>467.0</ele><time>2026-03-31T10:55:12.157Z</time></trkpt><trkpt lat="40.965165" lon="0.1295067"><ele>468.0</ele><time>2026-03-31T10:55:13.157Z</time></trkpt><trkpt lat="40.9652867" lon="0.129415"><ele>469.0</ele><time>2026-03-31T10:55:14.157Z</time></trkpt><trkpt lat="40.9654117" lon="0.1293267"><ele>470.0</ele><time>2026-03-31T10:55:15.158Z</time></trkpt><trkpt lat="40.965525" lon="0.12924"><ele>470.0</ele><time>2026-03-31T10:55:16.157Z</time></trkpt><trkpt lat="40.9656417" lon="0.1291633"><ele>470.0</ele><time>2026-03-31T10:55:17.158Z</time></trkpt><trkpt lat="40.9657567" lon="0.1291083"><ele>470.0</ele><time>2026-03-31T10:55:18.157Z</time></trkpt><trkpt lat="40.9658767" lon="0.129085"><ele>470.0</ele><time>2026-03-31T10:55:19.157Z</time></trkpt><trkpt lat="40.966005" lon="0.129085"><ele>468.5</ele><time>2026-03-31T10:55:20.157Z</time></trkpt><trkpt lat="40.9661267" lon="0.1291017"><ele>467.0</ele><time>2026-03-31T10:55:21.157Z</time></trkpt><trkpt lat="40.9662617" lon="0.12911"><ele>465.5</ele><time>2026-03-31T10:55:22.158Z</time></trkpt><trkpt lat="40.9664017" lon="0.1291183"><ele>464.0</ele><time>2026-03-31T10:55:23.157Z</time></trkpt><trkpt lat="40.9665433" lon="0.129115"><ele>464.0</ele><time>2026-03-31T10:55:24.157Z</time></trkpt><trkpt lat="40.9666783" lon="0.129075"><ele>464.0</ele><time>2026-03-31T10:55:25.157Z</time></trkpt><trkpt lat="40.966815" lon="0.1290083"><ele>464.0</ele><time>2026-03-31T10:55:26.157Z</time></trkpt><trkpt lat="40.9669433" lon="0.1289183"><ele>464.0</ele><time>2026-03-31T10:55:27.157Z</time></trkpt><trkpt lat="40.9670567" lon="0.1288233"><ele>463.75</ele><time>2026-03-31T10:55:28.157Z</time></trkpt><trkpt lat="40.9671633" lon="0.1287183"><ele>463.5</ele><time>2026-03-31T10:55:29.157Z</time></trkpt><trkpt lat="40.96726" lon="0.128595"><ele>463.25</ele><time>2026-03-31T10:55:30.158Z</time></trkpt><trkpt lat="40.9673467" lon="0.1284383"><ele>463.0</ele><time>2026-03-31T10:55:31.158Z</time></trkpt><trkpt lat="40.9674183" lon="0.1282683"><ele>462.33333333333337</ele><time>2026-03-31T10:55:32.157Z</time></trkpt><trkpt lat="40.967485" lon="0.1280867"><ele>461.66666666666663</ele><time>2026-03-31T10:55:33.157Z</time></trkpt><trkpt lat="40.9675517" lon="0.127905"><ele>461.0</ele><time>2026-03-31T10:55:34.157Z</time></trkpt><trkpt lat="40.96762" lon="0.1277167"><ele>462.3333333333333</ele><time>2026-03-31T10:55:35.158Z</time></trkpt><trkpt lat="40.9676933" lon="0.127535"><ele>463.66666666666663</ele><time>2026-03-31T10:55:36.157Z</time></trkpt><trkpt lat="40.967765" lon="0.1273533"><ele>465.0</ele><time>2026-03-31T10:55:37.158Z</time></trkpt><trkpt lat="40.9678283" lon="0.12718"><ele>465.0</ele><time>2026-03-31T10:55:38.157Z</time></trkpt><trkpt lat="40.9678867" lon="0.127015"><ele>465.0</ele><time>2026-03-31T10:55:39.158Z</time></trkpt><trkpt lat="40.9679467" lon="0.1268483"><ele>465.0</ele><time>2026-03-31T10:55:40.157Z</time></trkpt><trkpt lat="40.9680067" lon="0.126685"><ele>465.0</ele><time>2026-03-31T10:55:41.157Z</time></trkpt><trkpt lat="40.9680683" lon="0.126535"><ele>464.75</ele><time>2026-03-31T10:55:42.157Z</time></trkpt><trkpt lat="40.96814" lon="0.1264167"><ele>464.5</ele><time>2026-03-31T10:55:43.158Z</time></trkpt><trkpt lat="40.96822" lon="0.12631"><ele>464.25</ele><time>2026-03-31T10:55:44.157Z</time></trkpt><trkpt lat="40.9683233" lon="0.12623"><ele>464.0</ele><time>2026-03-31T10:55:45.158Z</time></trkpt><trkpt lat="40.96844" lon="0.1261717"><ele>463.5</ele><time>2026-03-31T10:55:46.158Z</time></trkpt><trkpt lat="40.9685617" lon="0.126115"><ele>463.0</ele><time>2026-03-31T10:55:47.158Z</time></trkpt><trkpt lat="40.9686933" lon="0.126065"><ele>462.5</ele><time>2026-03-31T10:55:48.158Z</time></trkpt><trkpt lat="40.9688233" lon="0.126025"><ele>462.0</ele><time>2026-03-31T10:55:49.157Z</time></trkpt><trkpt lat="40.96895" lon="0.1259767"><ele>462.0</ele><time>2026-03-31T10:55:50.158Z</time></trkpt><trkpt lat="40.9690783" lon="0.1259267"><ele>462.0</ele><time>2026-03-31T10:55:51.157Z</time></trkpt><trkpt lat="40.9691933" lon="0.12586"><ele>462.0</ele><time>2026-03-31T10:55:52.157Z</time></trkpt><trkpt lat="40.9692917" lon="0.1257733"><ele>462.0</ele><time>2026-03-31T10:55:53.157Z</time></trkpt><trkpt lat="40.9693817" lon="0.1256617"><ele>462.0</ele><time>2026-03-31T10:55:54.158Z</time></trkpt><trkpt lat="40.9694367" lon="0.12554"><ele>462.0</ele><time>2026-03-31T10:55:55.157Z</time></trkpt><trkpt lat="40.9694783" lon="0.1254"><ele>462.0</ele><time>2026-03-31T10:55:56.158Z</time></trkpt><trkpt lat="40.9695083" lon="0.1252483"><ele>462.0</ele><time>2026-03-31T10:55:57.158Z</time></trkpt><trkpt lat="40.96954" lon="0.1250817"><ele>462.0</ele><time>2026-03-31T10:55:58.158Z</time></trkpt><trkpt lat="40.9695583" lon="0.1249117"><ele>462.0</ele><time>2026-03-31T10:55:59.157Z</time></trkpt><trkpt lat="40.9695533" lon="0.12474"><ele>462.0</ele><time>2026-03-31T10:56:00.157Z</time></trkpt><trkpt lat="40.9695233" lon="0.1245517"><ele>462.0</ele><time>2026-03-31T10:56:01.157Z</time></trkpt><trkpt lat="40.9694733" lon="0.124375"><ele>461.75</ele><time>2026-03-31T10:56:02.158Z</time></trkpt><trkpt lat="40.969415" lon="0.1241933"><ele>461.5</ele><time>2026-03-31T10:56:03.158Z</time></trkpt><trkpt lat="40.969365" lon="0.1240117"><ele>461.25</ele><time>2026-03-31T10:56:04.158Z</time></trkpt><trkpt lat="40.9693117" lon="0.1238433"><ele>461.0</ele><time>2026-03-31T10:56:05.158Z</time></trkpt><trkpt lat="40.9692683" lon="0.1236667"><ele>459.75</ele><time>2026-03-31T10:56:06.157Z</time></trkpt><trkpt lat="40.9692283" lon="0.1235"><ele>458.5</ele><time>2026-03-31T10:56:07.158Z</time></trkpt><trkpt lat="40.9691817" lon="0.1233317"><ele>457.25</ele><time>2026-03-31T10:56:08.157Z</time></trkpt><trkpt lat="40.96911" lon="0.123175"><ele>456.0</ele><time>2026-03-31T10:56:09.157Z</time></trkpt><trkpt lat="40.9690283" lon="0.1230233"><ele>455.25</ele><time>2026-03-31T10:56:10.157Z</time></trkpt><trkpt lat="40.9689267" lon="0.1228783"><ele>454.5</ele><time>2026-03-31T10:56:11.157Z</time></trkpt><trkpt lat="40.96882" lon="0.12275"><ele>453.75</ele><time>2026-03-31T10:56:12.158Z</time></trkpt><trkpt lat="40.96872" lon="0.1226367"><ele>453.0</ele><time>2026-03-31T10:56:13.158Z</time></trkpt><trkpt lat="40.9686433" lon="0.1225333"><ele>453.0</ele><time>2026-03-31T10:56:14.157Z</time></trkpt><trkpt lat="40.9685767" lon="0.1224317"><ele>452.99999999999994</ele><time>2026-03-31T10:56:15.157Z</time></trkpt><trkpt lat="40.9685233" lon="0.122335"><ele>452.99999999999994</ele><time>2026-03-31T10:56:16.157Z</time></trkpt><trkpt lat="40.9684867" lon="0.1222383"><ele>453.0</ele><time>2026-03-31T10:56:17.158Z</time></trkpt><trkpt lat="40.9684817" lon="0.1221233"><ele>453.0</ele><time>2026-03-31T10:56:18.158Z</time></trkpt><trkpt lat="40.9684917" lon="0.121995"><ele>452.79999999999995</ele><time>2026-03-31T10:56:19.157Z</time></trkpt><trkpt lat="40.96849" lon="0.12187"><ele>452.59999999999997</ele><time>2026-03-31T10:56:20.157Z</time></trkpt><trkpt lat="40.9684483" lon="0.12174"><ele>452.40000000000003</ele><time>2026-03-31T10:56:21.157Z</time></trkpt><trkpt lat="40.9683783" lon="0.1216267"><ele>452.20000000000005</ele><time>2026-03-31T10:56:22.158Z</time></trkpt><trkpt lat="40.9683033" lon="0.1215283"><ele>452.0</ele><time>2026-03-31T10:56:23.157Z</time></trkpt><trkpt lat="40.9682233" lon="0.121445"><ele>451.16666666666663</ele><time>2026-03-31T10:56:24.157Z</time></trkpt><trkpt lat="40.9681633" lon="0.1213583"><ele>450.3333333333333</ele><time>2026-03-31T10:56:25.158Z</time></trkpt><trkpt lat="40.9681233" lon="0.1212617"><ele>449.5</ele><time>2026-03-31T10:56:26.157Z</time></trkpt><trkpt lat="40.96812" lon="0.1211633"><ele>448.66666666666663</ele><time>2026-03-31T10:56:27.158Z</time></trkpt><trkpt lat="40.9681467" lon="0.1210833"><ele>447.8333333333333</ele><time>2026-03-31T10:56:28.157Z</time></trkpt><trkpt lat="40.9682717" lon="0.1210117"><ele>447.0</ele><time>2026-03-31T10:56:30.158Z</time></trkpt><trkpt lat="40.9683817" lon="0.121025"><ele>447.0</ele><time>2026-03-31T10:56:31.157Z</time></trkpt><trkpt lat="40.9685117" lon="0.121075"><ele>447.0</ele><time>2026-03-31T10:56:32.157Z</time></trkpt><trkpt lat="40.9686417" lon="0.1211233"><ele>447.0</ele><time>2026-03-31T10:56:33.158Z</time></trkpt><trkpt lat="40.9687517" lon="0.12114"><ele>447.0</ele><time>2026-03-31T10:56:34.157Z</time></trkpt><trkpt lat="40.9688417" lon="0.1211183"><ele>447.0</ele><time>2026-03-31T10:56:35.157Z</time></trkpt><trkpt lat="40.96893" lon="0.1210683"><ele>447.00000000000006</ele><time>2026-03-31T10:56:36.157Z</time></trkpt><trkpt lat="40.9689883" lon="0.12098"><ele>447.00000000000006</ele><time>2026-03-31T10:56:37.157Z</time></trkpt><trkpt lat="40.9690133" lon="0.120875"><ele>447.0</ele><time>2026-03-31T10:56:38.158Z</time></trkpt><trkpt lat="40.9690033" lon="0.1207383"><ele>447.0</ele><time>2026-03-31T10:56:39.158Z</time></trkpt><trkpt lat="40.968985" lon="0.12059"><ele>444.5</ele><time>2026-03-31T10:56:40.157Z</time></trkpt><trkpt lat="40.968945" lon="0.120425"><ele>442.0</ele><time>2026-03-31T10:56:41.157Z</time></trkpt><trkpt lat="40.9689083" lon="0.1202683"><ele>439.5</ele><time>2026-03-31T10:56:42.158Z</time></trkpt><trkpt lat="40.968875" lon="0.1201133"><ele>437.0</ele><time>2026-03-31T10:56:43.158Z</time></trkpt><trkpt lat="40.9688483" lon="0.1199767"><ele>434.49999999999994</ele><time>2026-03-31T10:56:44.157Z</time></trkpt><trkpt lat="40.9688283" lon="0.1198717"><ele>432.0</ele><time>2026-03-31T10:56:45.157Z</time></trkpt><trkpt lat="40.96882" lon="0.1197783"><ele>429.5</ele><time>2026-03-31T10:56:46.158Z</time></trkpt><trkpt lat="40.96889" lon="0.1196667"><ele>427.0</ele><time>2026-03-31T10:56:48.158Z</time></trkpt><trkpt lat="40.968965" lon="0.1196333"><ele>424.49999999999994</ele><time>2026-03-31T10:56:49.157Z</time></trkpt><trkpt lat="40.9690617" lon="0.1196367"><ele>422.0</ele><time>2026-03-31T10:56:50.157Z</time></trkpt><trkpt lat="40.9691717" lon="0.119665"><ele>420.25</ele><time>2026-03-31T10:56:51.158Z</time></trkpt><trkpt lat="40.96929" lon="0.1197"><ele>418.5</ele><time>2026-03-31T10:56:52.157Z</time></trkpt><trkpt lat="40.9694133" lon="0.1197283"><ele>416.75</ele><time>2026-03-31T10:56:53.157Z</time></trkpt><trkpt lat="40.9695317" lon="0.119765"><ele>415.0</ele><time>2026-03-31T10:56:54.158Z</time></trkpt><trkpt lat="40.9696433" lon="0.1198283"><ele>418.0</ele><time>2026-03-31T10:56:55.158Z</time></trkpt><trkpt lat="40.9697383" lon="0.1199233"><ele>421.0</ele><time>2026-03-31T10:56:56.157Z</time></trkpt><trkpt lat="40.9698317" lon="0.120025"><ele>424.0</ele><time>2026-03-31T10:56:57.158Z</time></trkpt><trkpt lat="40.9699217" lon="0.1201333"><ele>427.0</ele><time>2026-03-31T10:56:58.158Z</time></trkpt><trkpt lat="40.9700167" lon="0.120215"><ele>423.40000000000003</ele><time>2026-03-31T10:56:59.157Z</time></trkpt><trkpt lat="40.97012" lon="0.1202817"><ele>419.80000000000007</ele><time>2026-03-31T10:57:00.157Z</time></trkpt><trkpt lat="40.970225" lon="0.1203417"><ele>416.2</ele><time>2026-03-31T10:57:01.157Z</time></trkpt><trkpt lat="40.9703167" lon="0.1204117"><ele>412.6</ele><time>2026-03-31T10:57:02.158Z</time></trkpt><trkpt lat="40.9704083" lon="0.1204983"><ele>409.0</ele><time>2026-03-31T10:57:03.158Z</time></trkpt><trkpt lat="40.9704817" lon="0.120615"><ele>409.0</ele><time>2026-03-31T10:57:04.158Z</time></trkpt><trkpt lat="40.9705383" lon="0.12073"><ele>409.0</ele><time>2026-03-31T10:57:05.157Z</time></trkpt><trkpt lat="40.97059" lon="0.1208617"><ele>409.0</ele><time>2026-03-31T10:57:06.157Z</time></trkpt><trkpt lat="40.9706383" lon="0.1210033"><ele>409.0</ele><time>2026-03-31T10:57:07.158Z</time></trkpt><trkpt lat="40.97069" lon="0.1211417"><ele>408.00000000000006</ele><time>2026-03-31T10:57:08.158Z</time></trkpt><trkpt lat="40.970745" lon="0.121255"><ele>407.0</ele><time>2026-03-31T10:57:09.158Z</time></trkpt><trkpt lat="40.970805" lon="0.1213417"><ele>406.0</ele><time>2026-03-31T10:57:10.158Z</time></trkpt><trkpt lat="40.9708733" lon="0.1214"><ele>405.0</ele><time>2026-03-31T10:57:11.157Z</time></trkpt><trkpt lat="40.9709517" lon="0.12143"><ele>404.00000000000006</ele><time>2026-03-31T10:57:12.157Z</time></trkpt><trkpt lat="40.9710417" lon="0.12143"><ele>403.0</ele><time>2026-03-31T10:57:13.158Z</time></trkpt><trkpt lat="40.9711383" lon="0.1214033"><ele>403.0</ele><time>2026-03-31T10:57:14.158Z</time></trkpt><trkpt lat="40.9712383" lon="0.12136"><ele>403.0</ele><time>2026-03-31T10:57:15.158Z</time></trkpt><trkpt lat="40.971345" lon="0.12134"><ele>403.0</ele><time>2026-03-31T10:57:16.158Z</time></trkpt><trkpt lat="40.9714533" lon="0.1213567"><ele>403.0</ele><time>2026-03-31T10:57:17.157Z</time></trkpt><trkpt lat="40.9715533" lon="0.1214067"><ele>403.0</ele><time>2026-03-31T10:57:18.157Z</time></trkpt><trkpt lat="40.9716517" lon="0.121485"><ele>404.5</ele><time>2026-03-31T10:57:19.157Z</time></trkpt><trkpt lat="40.9717517" lon="0.1215683"><ele>406.0</ele><time>2026-03-31T10:57:20.158Z</time></trkpt><trkpt lat="40.9718467" lon="0.121665"><ele>407.5</ele><time>2026-03-31T10:57:21.158Z</time></trkpt><trkpt lat="40.971945" lon="0.1217633"><ele>409.0</ele><time>2026-03-31T10:57:22.158Z</time></trkpt><trkpt lat="40.97205" lon="0.1218417"><ele>409.0</ele><time>2026-03-31T10:57:23.158Z</time></trkpt><trkpt lat="40.9721683" lon="0.1218883"><ele>409.0</ele><time>2026-03-31T10:57:24.158Z</time></trkpt><trkpt lat="40.9723017" lon="0.1219217"><ele>409.0</ele><time>2026-03-31T10:57:25.158Z</time></trkpt><trkpt lat="40.9724333" lon="0.1219467"><ele>409.0</ele><time>2026-03-31T10:57:26.157Z</time></trkpt><trkpt lat="40.9725717" lon="0.1219717"><ele>406.25</ele><time>2026-03-31T10:57:27.157Z</time></trkpt><trkpt lat="40.972705" lon="0.1220067"><ele>403.5</ele><time>2026-03-31T10:57:28.157Z</time></trkpt><trkpt lat="40.9728417" lon="0.1220417"><ele>400.75</ele><time>2026-03-31T10:57:29.157Z</time></trkpt><trkpt lat="40.972975" lon="0.1220867"><ele>398.0</ele><time>2026-03-31T10:57:30.157Z</time></trkpt><trkpt lat="40.9731017" lon="0.122115"><ele>398.0</ele><time>2026-03-31T10:57:31.158Z</time></trkpt><trkpt lat="40.97322" lon="0.1221433"><ele>398.0</ele><time>2026-03-31T10:57:32.157Z</time></trkpt><trkpt lat="40.97334" lon="0.122175"><ele>398.0</ele><time>2026-03-31T10:57:33.158Z</time></trkpt><trkpt lat="40.9734567" lon="0.12221"><ele>398.0</ele><time>2026-03-31T10:57:34.158Z</time></trkpt><trkpt lat="40.97357" lon="0.122275"><ele>395.75</ele><time>2026-03-31T10:57:35.157Z</time></trkpt><trkpt lat="40.973675" lon="0.1223333"><ele>393.5</ele><time>2026-03-31T10:57:36.157Z</time></trkpt><trkpt lat="40.9737833" lon="0.1223933"><ele>391.25</ele><time>2026-03-31T10:57:37.158Z</time></trkpt><trkpt lat="40.9739" lon="0.1224583"><ele>389.0</ele><time>2026-03-31T10:57:38.157Z</time></trkpt><trkpt lat="40.97402" lon="0.1225233"><ele>390.6</ele><time>2026-03-31T10:57:39.157Z</time></trkpt><trkpt lat="40.9741367" lon="0.12257"><ele>392.2</ele><time>2026-03-31T10:57:40.157Z</time></trkpt><trkpt lat="40.97426" lon="0.1226033"><ele>393.8</ele><time>2026-03-31T10:57:41.158Z</time></trkpt><trkpt lat="40.9743683" lon="0.122635"><ele>395.40000000000003</ele><time>2026-03-31T10:57:42.157Z</time></trkpt><trkpt lat="40.9744483" lon="0.1226733"><ele>397.0</ele><time>2026-03-31T10:57:43.157Z</time></trkpt><trkpt lat="40.9745017" lon="0.1227283"><ele>397.0</ele><time>2026-03-31T10:57:44.158Z</time></trkpt><trkpt lat="40.974555" lon="0.1228067"><ele>397.0</ele><time>2026-03-31T10:57:45.157Z</time></trkpt><trkpt lat="40.9746033" lon="0.12287"><ele>397.0</ele><time>2026-03-31T10:57:46.157Z</time></trkpt><trkpt lat="40.974655" lon="0.122925"><ele>397.0</ele><time>2026-03-31T10:57:47.157Z</time></trkpt><trkpt lat="40.974715" lon="0.1229583"><ele>397.0</ele><time>2026-03-31T10:57:48.157Z</time></trkpt><trkpt lat="40.9747867" lon="0.122965"><ele>397.0</ele><time>2026-03-31T10:57:49.157Z</time></trkpt><trkpt lat="40.9748717" lon="0.122945"><ele>397.0</ele><time>2026-03-31T10:57:50.157Z</time></trkpt><trkpt lat="40.9749633" lon="0.1229133"><ele>398.0</ele><time>2026-03-31T10:57:51.158Z</time></trkpt><trkpt lat="40.9750633" lon="0.12288"><ele>399.0</ele><time>2026-03-31T10:57:52.158Z</time></trkpt><trkpt lat="40.975175" lon="0.122845"><ele>400.0</ele><time>2026-03-31T10:57:53.157Z</time></trkpt><trkpt lat="40.975305" lon="0.1228267"><ele>401.0</ele><time>2026-03-31T10:57:54.157Z</time></trkpt><trkpt lat="40.9754467" lon="0.1228183"><ele>401.0</ele><time>2026-03-31T10:57:55.158Z</time></trkpt><trkpt lat="40.9755967" lon="0.1228067"><ele>401.0</ele><time>2026-03-31T10:57:56.157Z</time></trkpt><trkpt lat="40.9757667" lon="0.1227833"><ele>401.0</ele><time>2026-03-31T10:57:57.157Z</time></trkpt><trkpt lat="40.975915" lon="0.1227167"><ele>403.66666666666663</ele><time>2026-03-31T10:57:58.157Z</time></trkpt><trkpt lat="40.9760617" lon="0.1226417"><ele>406.33333333333337</ele><time>2026-03-31T10:57:59.157Z</time></trkpt><trkpt lat="40.9762033" lon="0.12256"><ele>409.0</ele><time>2026-03-31T10:58:00.157Z</time></trkpt><trkpt lat="40.9763483" lon="0.1224783"><ele>409.0</ele><time>2026-03-31T10:58:01.157Z</time></trkpt><trkpt lat="40.976495" lon="0.1224083"><ele>409.0</ele><time>2026-03-31T10:58:02.157Z</time></trkpt><trkpt lat="40.97665" lon="0.1223267"><ele>409.0</ele><time>2026-03-31T10:58:03.158Z</time></trkpt><trkpt lat="40.976795" lon="0.122245"><ele>405.0</ele><time>2026-03-31T10:58:04.158Z</time></trkpt><trkpt lat="40.9769383" lon="0.1221567"><ele>401.0</ele><time>2026-03-31T10:58:05.158Z</time></trkpt><trkpt lat="40.977085" lon="0.12207"><ele>397.0</ele><time>2026-03-31T10:58:06.158Z</time></trkpt><trkpt lat="40.9772283" lon="0.1219883"><ele>397.0</ele><time>2026-03-31T10:58:07.157Z</time></trkpt><trkpt lat="40.9773817" lon="0.1218967"><ele>397.0</ele><time>2026-03-31T10:58:08.158Z</time></trkpt><trkpt lat="40.977525" lon="0.1218033"><ele>397.0</ele><time>2026-03-31T10:58:09.158Z</time></trkpt><trkpt lat="40.9776683" lon="0.12171"><ele>395.33333333333337</ele><time>2026-03-31T10:58:10.157Z</time></trkpt><trkpt lat="40.9778117" lon="0.121625"><ele>393.66666666666663</ele><time>2026-03-31T10:58:11.158Z</time></trkpt><trkpt lat="40.97796" lon="0.121535"><ele>392.0</ele><time>2026-03-31T10:58:12.158Z</time></trkpt><trkpt lat="40.9781067" lon="0.1214383"><ele>392.0</ele><time>2026-03-31T10:58:13.157Z</time></trkpt><trkpt lat="40.978235" lon="0.121345"><ele>392.0</ele><time>2026-03-31T10:58:14.158Z</time></trkpt><trkpt lat="40.9783683" lon="0.1212317"><ele>392.0</ele><time>2026-03-31T10:58:15.158Z</time></trkpt><trkpt lat="40.9785067" lon="0.121125"><ele>397.0</ele><time>2026-03-31T10:58:16.157Z</time></trkpt><trkpt lat="40.978645" lon="0.12102"><ele>402.0</ele><time>2026-03-31T10:58:17.157Z</time></trkpt><trkpt lat="40.9787783" lon="0.1209117"><ele>407.0</ele><time>2026-03-31T10:58:18.158Z</time></trkpt><trkpt lat="40.9789217" lon="0.1208083"><ele>403.66666666666663</ele><time>2026-03-31T10:58:19.158Z</time></trkpt><trkpt lat="40.9790683" lon="0.120725"><ele>400.33333333333337</ele><time>2026-03-31T10:58:20.158Z</time></trkpt><trkpt lat="40.9792117" lon="0.120635"><ele>397.0</ele><time>2026-03-31T10:58:21.158Z</time></trkpt><trkpt lat="40.9793517" lon="0.12055"><ele>397.0</ele><time>2026-03-31T10:58:22.157Z</time></trkpt><trkpt lat="40.97949" lon="0.1204717"><ele>397.0</ele><time>2026-03-31T10:58:23.157Z</time></trkpt><trkpt lat="40.9796333" lon="0.12038"><ele>397.0</ele><time>2026-03-31T10:58:24.157Z</time></trkpt><trkpt lat="40.9797683" lon="0.1203"><ele>397.0</ele><time>2026-03-31T10:58:25.157Z</time></trkpt><trkpt lat="40.9799033" lon="0.120225"><ele>397.0</ele><time>2026-03-31T10:58:26.158Z</time></trkpt><trkpt lat="40.9800283" lon="0.1201517"><ele>397.0</ele><time>2026-03-31T10:58:27.157Z</time></trkpt><trkpt lat="40.98015" lon="0.1200917"><ele>397.0</ele><time>2026-03-31T10:58:28.158Z</time></trkpt><trkpt lat="40.9802683" lon="0.1200433"><ele>397.40000000000003</ele><time>2026-03-31T10:58:29.157Z</time></trkpt><trkpt lat="40.98037" lon="0.1200267"><ele>397.8</ele><time>2026-03-31T10:58:30.158Z</time></trkpt><trkpt lat="40.9804767" lon="0.1200317"><ele>398.2</ele><time>2026-03-31T10:58:31.157Z</time></trkpt><trkpt lat="40.9805783" lon="0.1200517"><ele>398.6</ele><time>2026-03-31T10:58:32.158Z</time></trkpt><trkpt lat="40.9806767" lon="0.1200667"><ele>399.0</ele><time>2026-03-31T10:58:33.158Z</time></trkpt><trkpt lat="40.9807867" lon="0.1200583"><ele>400.2</ele><time>2026-03-31T10:58:34.158Z</time></trkpt><trkpt lat="40.9808917" lon="0.120045"><ele>401.4</ele><time>2026-03-31T10:58:35.158Z</time></trkpt><trkpt lat="40.98099" lon="0.12003"><ele>402.6</ele><time>2026-03-31T10:58:36.157Z</time></trkpt><trkpt lat="40.981085" lon="0.120005"><ele>403.8</ele><time>2026-03-31T10:58:37.158Z</time></trkpt><trkpt lat="40.9811683" lon="0.1199483"><ele>405.0</ele><time>2026-03-31T10:58:38.157Z</time></trkpt><trkpt lat="40.981255" lon="0.1198717"><ele>405.0</ele><time>2026-03-31T10:58:39.157Z</time></trkpt><trkpt lat="40.981325" lon="0.1197667"><ele>405.0</ele><time>2026-03-31T10:58:40.158Z</time></trkpt><trkpt lat="40.9813867" lon="0.119635"><ele>405.0</ele><time>2026-03-31T10:58:41.157Z</time></trkpt><trkpt lat="40.981455" lon="0.1194917"><ele>405.0</ele><time>2026-03-31T10:58:42.157Z</time></trkpt><trkpt lat="40.9815333" lon="0.119335"><ele>405.0</ele><time>2026-03-31T10:58:43.157Z</time></trkpt><trkpt lat="40.981605" lon="0.1191717"><ele>405.0</ele><time>2026-03-31T10:58:44.157Z</time></trkpt><trkpt lat="40.981675" lon="0.1189983"><ele>405.0</ele><time>2026-03-31T10:58:45.157Z</time></trkpt><trkpt lat="40.9817167" lon="0.1187933"><ele>406.0</ele><time>2026-03-31T10:58:46.158Z</time></trkpt><trkpt lat="40.9817367" lon="0.118595"><ele>407.0</ele><time>2026-03-31T10:58:47.158Z</time></trkpt><trkpt lat="40.9817567" lon="0.118405"><ele>408.0</ele><time>2026-03-31T10:58:48.158Z</time></trkpt><trkpt lat="40.9817917" lon="0.1182133"><ele>409.0</ele><time>2026-03-31T10:58:49.157Z</time></trkpt><trkpt lat="40.98183" lon="0.1180217"><ele>409.0</ele><time>2026-03-31T10:58:50.157Z</time></trkpt><trkpt lat="40.98187" lon="0.117825"><ele>409.0</ele><time>2026-03-31T10:58:51.157Z</time></trkpt><trkpt lat="40.9819083" lon="0.1176317"><ele>409.0</ele><time>2026-03-31T10:58:52.157Z</time></trkpt><trkpt lat="40.9819517" lon="0.117445"><ele>409.5</ele><time>2026-03-31T10:58:53.158Z</time></trkpt><trkpt lat="40.9819867" lon="0.117265"><ele>410.0</ele><time>2026-03-31T10:58:54.158Z</time></trkpt><trkpt lat="40.9820217" lon="0.117105"><ele>410.5</ele><time>2026-03-31T10:58:55.157Z</time></trkpt><trkpt lat="40.982055" lon="0.1169667"><ele>411.0</ele><time>2026-03-31T10:58:56.158Z</time></trkpt><trkpt lat="40.9820883" lon="0.1168617"><ele>411.0</ele><time>2026-03-31T10:58:57.158Z</time></trkpt><trkpt lat="40.982125" lon="0.1167683"><ele>411.0</ele><time>2026-03-31T10:58:58.157Z</time></trkpt><trkpt lat="40.9821767" lon="0.1166817"><ele>411.0</ele><time>2026-03-31T10:58:59.157Z</time></trkpt><trkpt lat="40.9822267" lon="0.1165917"><ele>411.0</ele><time>2026-03-31T10:59:00.157Z</time></trkpt><trkpt lat="40.98228" lon="0.1165017"><ele>411.0</ele><time>2026-03-31T10:59:01.157Z</time></trkpt><trkpt lat="40.9823317" lon="0.1164117"><ele>411.0</ele><time>2026-03-31T10:59:02.157Z</time></trkpt><trkpt lat="40.9823933" lon="0.1163283"><ele>412.0</ele><time>2026-03-31T10:59:03.158Z</time></trkpt><trkpt lat="40.9824517" lon="0.1162367"><ele>413.0</ele><time>2026-03-31T10:59:04.158Z</time></trkpt><trkpt lat="40.9825083" lon="0.1161383"><ele>414.0</ele><time>2026-03-31T10:59:05.157Z</time></trkpt><trkpt lat="40.98257" lon="0.116035"><ele>415.0</ele><time>2026-03-31T10:59:06.158Z</time></trkpt><trkpt lat="40.98262" lon="0.11592"><ele>416.0</ele><time>2026-03-31T10:59:07.157Z</time></trkpt><trkpt lat="40.9826717" lon="0.115795"><ele>412.8</ele><time>2026-03-31T10:59:08.157Z</time></trkpt><trkpt lat="40.98273" lon="0.1156683"><ele>409.6</ele><time>2026-03-31T10:59:09.157Z</time></trkpt><trkpt lat="40.9827967" lon="0.1155533"><ele>406.4</ele><time>2026-03-31T10:59:10.157Z</time></trkpt><trkpt lat="40.98287" lon="0.1154517"><ele>403.2</ele><time>2026-03-31T10:59:11.158Z</time></trkpt><trkpt lat="40.9829617" lon="0.11536"><ele>400.0</ele><time>2026-03-31T10:59:12.158Z</time></trkpt><trkpt lat="40.9830683" lon="0.1152633"><ele>400.0</ele><time>2026-03-31T10:59:13.157Z</time></trkpt><trkpt lat="40.9831917" lon="0.1151683"><ele>400.0</ele><time>2026-03-31T10:59:14.158Z</time></trkpt><trkpt lat="40.9833083" lon="0.115065"><ele>400.0</ele><time>2026-03-31T10:59:15.157Z</time></trkpt><trkpt lat="40.9834367" lon="0.1149733"><ele>400.0</ele><time>2026-03-31T10:59:16.157Z</time></trkpt><trkpt lat="40.9835683" lon="0.11488"><ele>397.75</ele><time>2026-03-31T10:59:17.158Z</time></trkpt><trkpt lat="40.9836917" lon="0.1147767"><ele>395.5</ele><time>2026-03-31T10:59:18.157Z</time></trkpt><trkpt lat="40.9838067" lon="0.11467"><ele>393.25</ele><time>2026-03-31T10:59:19.158Z</time></trkpt><trkpt lat="40.98392" lon="0.114585"><ele>391.0</ele><time>2026-03-31T10:59:20.157Z</time></trkpt><trkpt lat="40.984045" lon="0.114505"><ele>391.0</ele><time>2026-03-31T10:59:21.157Z</time></trkpt><trkpt lat="40.9841717" lon="0.114425"><ele>391.0</ele><time>2026-03-31T10:59:22.158Z</time></trkpt><trkpt lat="40.9843017" lon="0.1143783"><ele>391.0</ele><time>2026-03-31T10:59:23.157Z</time></trkpt><trkpt lat="40.9844383" lon="0.1143383"><ele>391.0</ele><time>2026-03-31T10:59:24.157Z</time></trkpt><trkpt lat="40.9845767" lon="0.1143"><ele>392.25</ele><time>2026-03-31T10:59:25.158Z</time></trkpt><trkpt lat="40.9847117" lon="0.1142717"><ele>393.5</ele><time>2026-03-31T10:59:26.158Z</time></trkpt><trkpt lat="40.98485" lon="0.1142533"><ele>394.75</ele><time>2026-03-31T10:59:27.157Z</time></trkpt><trkpt lat="40.98499" lon="0.1142333"><ele>396.0</ele><time>2026-03-31T10:59:28.158Z</time></trkpt><trkpt lat="40.98513" lon="0.1142117"><ele>396.5</ele><time>2026-03-31T10:59:29.157Z</time></trkpt><trkpt lat="40.9852683" lon="0.114195"><ele>397.0</ele><time>2026-03-31T10:59:30.158Z</time></trkpt><trkpt lat="40.985395" lon="0.1141783"><ele>397.5</ele><time>2026-03-31T10:59:31.157Z</time></trkpt><trkpt lat="40.9855133" lon="0.1141633"><ele>398.0</ele><time>2026-03-31T10:59:32.158Z</time></trkpt><trkpt lat="40.9856283" lon="0.1141417"><ele>398.0</ele><time>2026-03-31T10:59:33.157Z</time></trkpt><trkpt lat="40.9857317" lon="0.1141033"><ele>398.0</ele><time>2026-03-31T10:59:34.158Z</time></trkpt><trkpt lat="40.9858267" lon="0.11404"><ele>398.0</ele><time>2026-03-31T10:59:35.157Z</time></trkpt><trkpt lat="40.9858917" lon="0.1139433"><ele>398.0</ele><time>2026-03-31T10:59:36.157Z</time></trkpt><trkpt lat="40.9859317" lon="0.113825"><ele>398.0</ele><time>2026-03-31T10:59:37.157Z</time></trkpt><trkpt lat="40.985955" lon="0.1136967"><ele>397.0</ele><time>2026-03-31T10:59:38.157Z</time></trkpt><trkpt lat="40.9859867" lon="0.1135617"><ele>396.0</ele><time>2026-03-31T10:59:39.157Z</time></trkpt><trkpt lat="40.98604" lon="0.1134617"><ele>395.0</ele><time>2026-03-31T10:59:40.157Z</time></trkpt><trkpt lat="40.9861133" lon="0.1134067"><ele>394.0</ele><time>2026-03-31T10:59:41.158Z</time></trkpt><trkpt lat="40.9862083" lon="0.11339"><ele>393.0</ele><time>2026-03-31T10:59:42.157Z</time></trkpt><trkpt lat="40.986315" lon="0.1133967"><ele>393.0</ele><time>2026-03-31T10:59:43.157Z</time></trkpt><trkpt lat="40.9864233" lon="0.1134233"><ele>393.0</ele><time>2026-03-31T10:59:44.157Z</time></trkpt><trkpt lat="40.9865467" lon="0.1134417"><ele>393.0</ele><time>2026-03-31T10:59:45.158Z</time></trkpt><trkpt lat="40.986685" lon="0.113455"><ele>393.0</ele><time>2026-03-31T10:59:46.158Z</time></trkpt><trkpt lat="40.9868267" lon="0.1134433"><ele>393.0</ele><time>2026-03-31T10:59:47.158Z</time></trkpt><trkpt lat="40.9869733" lon="0.113425"><ele>393.0</ele><time>2026-03-31T10:59:48.157Z</time></trkpt><trkpt lat="40.98711" lon="0.1133983"><ele>393.0</ele><time>2026-03-31T10:59:49.157Z</time></trkpt><trkpt lat="40.987255" lon="0.1133533"><ele>393.0</ele><time>2026-03-31T10:59:50.157Z</time></trkpt><trkpt lat="40.9873983" lon="0.1133017"><ele>392.75</ele><time>2026-03-31T10:59:51.157Z</time></trkpt><trkpt lat="40.9875417" lon="0.11325"><ele>392.5</ele><time>2026-03-31T10:59:52.157Z</time></trkpt><trkpt lat="40.9876883" lon="0.113185"><ele>392.25</ele><time>2026-03-31T10:59:53.157Z</time></trkpt><trkpt lat="40.9878217" lon="0.1131317"><ele>392.0</ele><time>2026-03-31T10:59:54.157Z</time></trkpt><trkpt lat="40.9879517" lon="0.1130833"><ele>389.5</ele><time>2026-03-31T10:59:55.157Z</time></trkpt><trkpt lat="40.9880733" lon="0.1130533"><ele>387.0</ele><time>2026-03-31T10:59:56.157Z</time></trkpt><trkpt lat="40.9882" lon="0.11305"><ele>384.5</ele><time>2026-03-31T10:59:57.158Z</time></trkpt><trkpt lat="40.98833" lon="0.1130833"><ele>382.0</ele><time>2026-03-31T10:59:58.157Z</time></trkpt><trkpt lat="40.988465" lon="0.113135"><ele>382.0</ele><time>2026-03-31T10:59:59.157Z</time></trkpt><trkpt lat="40.9885917" lon="0.1132017"><ele>382.0</ele><time>2026-03-31T11:00:00.158Z</time></trkpt><trkpt lat="40.9887167" lon="0.1132733"><ele>382.0</ele><time>2026-03-31T11:00:01.157Z</time></trkpt><trkpt lat="40.9888433" lon="0.11337"><ele>382.0</ele><time>2026-03-31T11:00:02.157Z</time></trkpt><trkpt lat="40.9889633" lon="0.1134717"><ele>381.0</ele><time>2026-03-31T11:00:03.157Z</time></trkpt><trkpt lat="40.9890967" lon="0.11358"><ele>380.0</ele><time>2026-03-31T11:00:04.157Z</time></trkpt><trkpt lat="40.9892233" lon="0.113695"><ele>379.0</ele><time>2026-03-31T11:00:05.157Z</time></trkpt><trkpt lat="40.9893517" lon="0.1137983"><ele>379.0</ele><time>2026-03-31T11:00:06.158Z</time></trkpt><trkpt lat="40.989475" lon="0.1139033"><ele>379.0</ele><time>2026-03-31T11:00:07.158Z</time></trkpt><trkpt lat="40.9896067" lon="0.1139883"><ele>379.0</ele><time>2026-03-31T11:00:08.157Z</time></trkpt><trkpt lat="40.98974" lon="0.1140517"><ele>379.0</ele><time>2026-03-31T11:00:09.157Z</time></trkpt><trkpt lat="40.9898867" lon="0.1141017"><ele>380.5</ele><time>2026-03-31T11:00:10.157Z</time></trkpt><trkpt lat="40.9900283" lon="0.1141433"><ele>382.0</ele><time>2026-03-31T11:00:11.158Z</time></trkpt><trkpt lat="40.9901733" lon="0.1141683"><ele>383.5</ele><time>2026-03-31T11:00:12.158Z</time></trkpt><trkpt lat="40.9903133" lon="0.1141933"><ele>385.0</ele><time>2026-03-31T11:00:13.157Z</time></trkpt><trkpt lat="40.9904467" lon="0.1142133"><ele>385.0</ele><time>2026-03-31T11:00:14.157Z</time></trkpt><trkpt lat="40.9905817" lon="0.1142467"><ele>385.0</ele><time>2026-03-31T11:00:15.158Z</time></trkpt><trkpt lat="40.9907167" lon="0.1142983"><ele>385.0</ele><time>2026-03-31T11:00:16.158Z</time></trkpt><trkpt lat="40.9908617" lon="0.1143717"><ele>385.0</ele><time>2026-03-31T11:00:17.157Z</time></trkpt><trkpt lat="40.9910067" lon="0.114455"><ele>383.6666666666667</ele><time>2026-03-31T11:00:18.157Z</time></trkpt><trkpt lat="40.9911483" lon="0.1145367"><ele>382.33333333333337</ele><time>2026-03-31T11:00:19.157Z</time></trkpt><trkpt lat="40.9912783" lon="0.11461"><ele>381.0</ele><time>2026-03-31T11:00:20.158Z</time></trkpt><trkpt lat="40.9914233" lon="0.1146833"><ele>381.0</ele><time>2026-03-31T11:00:21.157Z</time></trkpt><trkpt lat="40.99156" lon="0.1147567"><ele>381.0</ele><time>2026-03-31T11:00:22.156Z</time></trkpt><trkpt lat="40.991705" lon="0.11484"><ele>381.0</ele><time>2026-03-31T11:00:23.156Z</time></trkpt><trkpt lat="40.99185" lon="0.1149117"><ele>383.0</ele><time>2026-03-31T11:00:24.157Z</time></trkpt><trkpt lat="40.9919967" lon="0.1149783"><ele>385.0</ele><time>2026-03-31T11:00:25.156Z</time></trkpt><trkpt lat="40.9921417" lon="0.1150433"><ele>387.0</ele><time>2026-03-31T11:00:26.156Z</time></trkpt><trkpt lat="40.9922833" lon="0.115125"><ele>387.0</ele><time>2026-03-31T11:00:27.157Z</time></trkpt><trkpt lat="40.992425" lon="0.1152083"><ele>387.0</ele><time>2026-03-31T11:00:28.157Z</time></trkpt><trkpt lat="40.9925683" lon="0.1152933"><ele>387.0</ele><time>2026-03-31T11:00:29.156Z</time></trkpt><trkpt lat="40.9927183" lon="0.11538"><ele>385.0</ele><time>2026-03-31T11:00:30.156Z</time></trkpt><trkpt lat="40.9928617" lon="0.115465"><ele>383.0</ele><time>2026-03-31T11:00:31.157Z</time></trkpt><trkpt lat="40.993" lon="0.1155467"><ele>381.0</ele><time>2026-03-31T11:00:32.157Z</time></trkpt><trkpt lat="40.9931417" lon="0.1156483"><ele>381.0</ele><time>2026-03-31T11:00:33.157Z</time></trkpt><trkpt lat="40.99328" lon="0.11575"><ele>381.0</ele><time>2026-03-31T11:00:34.157Z</time></trkpt><trkpt lat="40.9934167" lon="0.1158433"><ele>381.0</ele><time>2026-03-31T11:00:35.156Z</time></trkpt><trkpt lat="40.993545" lon="0.1159467"><ele>381.0</ele><time>2026-03-31T11:00:36.156Z</time></trkpt><trkpt lat="40.9936767" lon="0.116055"><ele>381.0</ele><time>2026-03-31T11:00:37.156Z</time></trkpt><trkpt lat="40.9937967" lon="0.1161783"><ele>381.0</ele><time>2026-03-31T11:00:38.156Z</time></trkpt><trkpt lat="40.9939083" lon="0.11632"><ele>381.0</ele><time>2026-03-31T11:00:39.156Z</time></trkpt><trkpt lat="40.9940117" lon="0.11647"><ele>381.0</ele><time>2026-03-31T11:00:40.157Z</time></trkpt><trkpt lat="40.994115" lon="0.1166083"><ele>381.0</ele><time>2026-03-31T11:00:41.156Z</time></trkpt><trkpt lat="40.9942183" lon="0.1167183"><ele>381.0</ele><time>2026-03-31T11:00:42.157Z</time></trkpt><trkpt lat="40.9943283" lon="0.1168117"><ele>380.75</ele><time>2026-03-31T11:00:43.156Z</time></trkpt><trkpt lat="40.99445" lon="0.116905"><ele>380.5</ele><time>2026-03-31T11:00:44.157Z</time></trkpt><trkpt lat="40.9945617" lon="0.117015"><ele>380.25</ele><time>2026-03-31T11:00:45.156Z</time></trkpt><trkpt lat="40.994675" lon="0.1171283"><ele>380.0</ele><time>2026-03-31T11:00:46.157Z</time></trkpt><trkpt lat="40.994785" lon="0.117255"><ele>380.0</ele><time>2026-03-31T11:00:47.157Z</time></trkpt><trkpt lat="40.99489" lon="0.117385"><ele>380.0</ele><time>2026-03-31T11:00:48.156Z</time></trkpt><trkpt lat="40.9949967" lon="0.1175217"><ele>380.0</ele><time>2026-03-31T11:00:49.157Z</time></trkpt><trkpt lat="40.9951" lon="0.11767"><ele>380.0</ele><time>2026-03-31T11:00:50.156Z</time></trkpt><trkpt lat="40.9952017" lon="0.1178283"><ele>380.33333333333337</ele><time>2026-03-31T11:00:51.157Z</time></trkpt><trkpt lat="40.9953133" lon="0.1179917"><ele>380.6666666666667</ele><time>2026-03-31T11:00:52.157Z</time></trkpt><trkpt lat="40.9954217" lon="0.118155"><ele>381.0</ele><time>2026-03-31T11:00:53.156Z</time></trkpt><trkpt lat="40.9955283" lon="0.1183217"><ele>381.0</ele><time>2026-03-31T11:00:54.157Z</time></trkpt><trkpt lat="40.9956367" lon="0.1184817"><ele>381.0</ele><time>2026-03-31T11:00:55.157Z</time></trkpt><trkpt lat="40.99575" lon="0.1186417"><ele>381.0</ele><time>2026-03-31T11:00:56.156Z</time></trkpt><trkpt lat="40.9958583" lon="0.1188083"><ele>380.6666666666667</ele><time>2026-03-31T11:00:57.157Z</time></trkpt><trkpt lat="40.9959683" lon="0.1189683"><ele>380.33333333333337</ele><time>2026-03-31T11:00:58.157Z</time></trkpt><trkpt lat="40.9960867" lon="0.1191217"><ele>380.0</ele><time>2026-03-31T11:00:59.157Z</time></trkpt><trkpt lat="40.9962133" lon="0.1192617"><ele>380.0</ele><time>2026-03-31T11:01:00.157Z</time></trkpt><trkpt lat="40.996345" lon="0.1194033"><ele>380.0</ele><time>2026-03-31T11:01:01.156Z</time></trkpt><trkpt lat="40.9964717" lon="0.1195367"><ele>380.0</ele><time>2026-03-31T11:01:02.157Z</time></trkpt><trkpt lat="40.9966117" lon="0.1196767"><ele>380.33333333333337</ele><time>2026-03-31T11:01:03.157Z</time></trkpt><trkpt lat="40.99675" lon="0.1198017"><ele>380.6666666666667</ele><time>2026-03-31T11:01:04.156Z</time></trkpt><trkpt lat="40.9968867" lon="0.11992"><ele>381.0</ele><time>2026-03-31T11:01:05.156Z</time></trkpt><trkpt lat="40.9970333" lon="0.1200467"><ele>381.0</ele><time>2026-03-31T11:01:06.156Z</time></trkpt><trkpt lat="40.9971733" lon="0.1201817"><ele>381.0</ele><time>2026-03-31T11:01:07.156Z</time></trkpt><trkpt lat="40.9973067" lon="0.1203283"><ele>381.0</ele><time>2026-03-31T11:01:08.156Z</time></trkpt><trkpt lat="40.9974267" lon="0.120485"><ele>380.3333333333333</ele><time>2026-03-31T11:01:09.157Z</time></trkpt><trkpt lat="40.9975483" lon="0.12065"><ele>379.66666666666663</ele><time>2026-03-31T11:01:10.157Z</time></trkpt><trkpt lat="40.997665" lon="0.120835"><ele>379.0</ele><time>2026-03-31T11:01:11.157Z</time></trkpt><trkpt lat="40.9977733" lon="0.1210267"><ele>379.0</ele><time>2026-03-31T11:01:12.156Z</time></trkpt><trkpt lat="40.99788" lon="0.1212233"><ele>379.0</ele><time>2026-03-31T11:01:13.157Z</time></trkpt><trkpt lat="40.9979817" lon="0.1214167"><ele>379.0</ele><time>2026-03-31T11:01:14.156Z</time></trkpt><trkpt lat="40.998085" lon="0.1215933"><ele>377.66666666666663</ele><time>2026-03-31T11:01:15.156Z</time></trkpt><trkpt lat="40.998195" lon="0.1217483"><ele>376.3333333333333</ele><time>2026-03-31T11:01:16.157Z</time></trkpt><trkpt lat="40.9983067" lon="0.1218883"><ele>375.0</ele><time>2026-03-31T11:01:17.157Z</time></trkpt><trkpt lat="40.998425" lon="0.1220283"><ele>375.0</ele><time>2026-03-31T11:01:18.156Z</time></trkpt><trkpt lat="40.9985383" lon="0.1221533"><ele>375.0</ele><time>2026-03-31T11:01:19.156Z</time></trkpt><trkpt lat="40.9986433" lon="0.1222717"><ele>375.0</ele><time>2026-03-31T11:01:20.157Z</time></trkpt><trkpt lat="40.9987583" lon="0.1223833"><ele>375.0</ele><time>2026-03-31T11:01:21.157Z</time></trkpt><trkpt lat="40.99886" lon="0.1224867"><ele>375.75</ele><time>2026-03-31T11:01:22.156Z</time></trkpt><trkpt lat="40.9989683" lon="0.122585"><ele>376.5</ele><time>2026-03-31T11:01:23.157Z</time></trkpt><trkpt lat="40.9990833" lon="0.12269"><ele>377.25</ele><time>2026-03-31T11:01:24.157Z</time></trkpt><trkpt lat="40.999185" lon="0.1227783"><ele>378.0</ele><time>2026-03-31T11:01:25.157Z</time></trkpt><trkpt lat="40.99928" lon="0.122855"><ele>377.4</ele><time>2026-03-31T11:01:26.156Z</time></trkpt><trkpt lat="40.9993733" lon="0.1229367"><ele>376.79999999999995</ele><time>2026-03-31T11:01:27.156Z</time></trkpt><trkpt lat="40.9994583" lon="0.123015"><ele>376.2</ele><time>2026-03-31T11:01:28.156Z</time></trkpt><trkpt lat="40.999535" lon="0.1230883"><ele>375.6</ele><time>2026-03-31T11:01:29.157Z</time></trkpt><trkpt lat="40.9995983" lon="0.1231667"><ele>375.0</ele><time>2026-03-31T11:01:30.156Z</time></trkpt><trkpt lat="40.9996617" lon="0.1232467"><ele>375.0</ele><time>2026-03-31T11:01:31.156Z</time></trkpt><trkpt lat="40.9997133" lon="0.1233083"><ele>375.0</ele><time>2026-03-31T11:01:32.156Z</time></trkpt><trkpt lat="40.9997733" lon="0.12336"><ele>375.0</ele><time>2026-03-31T11:01:35.156Z</time></trkpt><trkpt lat="40.9998333" lon="0.123255"><ele>375.0</ele><time>2026-03-31T11:01:47.156Z</time></trkpt><trkpt lat="40.9998533" lon="0.1231517"><ele>375.0</ele><time>2026-03-31T11:01:48.157Z</time></trkpt><trkpt lat="40.9998617" lon="0.1230133"><ele>375.0</ele><time>2026-03-31T11:01:49.156Z</time></trkpt><trkpt lat="40.999875" lon="0.1228617"><ele>373.75</ele><time>2026-03-31T11:01:50.156Z</time></trkpt><trkpt lat="40.9998883" lon="0.1227067"><ele>372.5</ele><time>2026-03-31T11:01:51.156Z</time></trkpt><trkpt lat="40.9999117" lon="0.122525"><ele>371.25</ele><time>2026-03-31T11:01:52.157Z</time></trkpt><trkpt lat="40.9999383" lon="0.1223383"><ele>370.0</ele><time>2026-03-31T11:01:53.156Z</time></trkpt><trkpt lat="40.9999733" lon="0.1221483"><ele>370.0</ele><time>2026-03-31T11:01:54.156Z</time></trkpt><trkpt lat="41.00002" lon="0.1219467"><ele>370.0</ele><time>2026-03-31T11:01:55.156Z</time></trkpt><trkpt lat="41.0000717" lon="0.121745"><ele>370.0</ele><time>2026-03-31T11:01:56.156Z</time></trkpt><trkpt lat="41.0001317" lon="0.12154"><ele>370.0</ele><time>2026-03-31T11:01:57.156Z</time></trkpt><trkpt lat="41.0001967" lon="0.1213383"><ele>370.0</ele><time>2026-03-31T11:01:58.156Z</time></trkpt><trkpt lat="41.000255" lon="0.1211233"><ele>370.0</ele><time>2026-03-31T11:01:59.156Z</time></trkpt><trkpt lat="41.0003233" lon="0.120905"><ele>370.0</ele><time>2026-03-31T11:02:00.156Z</time></trkpt><trkpt lat="41.00039" lon="0.1206767"><ele>370.0</ele><time>2026-03-31T11:02:01.156Z</time></trkpt><trkpt lat="41.0004533" lon="0.12043"><ele>370.0</ele><time>2026-03-31T11:02:02.157Z</time></trkpt><trkpt lat="41.000495" lon="0.120175"><ele>370.0</ele><time>2026-03-31T11:02:03.156Z</time></trkpt><trkpt lat="41.0005233" lon="0.1199133"><ele>370.0</ele><time>2026-03-31T11:02:04.156Z</time></trkpt><trkpt lat="41.000535" lon="0.1196433"><ele>370.0</ele><time>2026-03-31T11:02:05.157Z</time></trkpt><trkpt lat="41.0005267" lon="0.1193683"><ele>370.3333333333333</ele><time>2026-03-31T11:02:06.156Z</time></trkpt><trkpt lat="41.0005" lon="0.11908"><ele>370.6666666666667</ele><time>2026-03-31T11:02:07.156Z</time></trkpt><trkpt lat="41.0004483" lon="0.1188083"><ele>371.0</ele><time>2026-03-31T11:02:08.156Z</time></trkpt><trkpt lat="41.0003767" lon="0.1185333"><ele>373.5</ele><time>2026-03-31T11:02:09.156Z</time></trkpt><trkpt lat="41.0002817" lon="0.1182633"><ele>376.0</ele><time>2026-03-31T11:02:10.157Z</time></trkpt><trkpt lat="41.0001683" lon="0.1179967"><ele>382.5</ele><time>2026-03-31T11:02:11.156Z</time></trkpt><trkpt lat="41.000035" lon="0.117745"><ele>389.0</ele><time>2026-03-31T11:02:12.156Z</time></trkpt><trkpt lat="40.9999083" lon="0.1174883"><ele>394.5</ele><time>2026-03-31T11:02:13.157Z</time></trkpt><trkpt lat="40.9997883" lon="0.117235"><ele>400.0</ele><time>2026-03-31T11:02:14.157Z</time></trkpt><trkpt lat="40.9996583" lon="0.1169683"><ele>400.0</ele><time>2026-03-31T11:02:15.156Z</time></trkpt><trkpt lat="40.99953" lon="0.1167017"><ele>400.0</ele><time>2026-03-31T11:02:16.156Z</time></trkpt><trkpt lat="40.9993983" lon="0.11643"><ele>395.5</ele><time>2026-03-31T11:02:17.157Z</time></trkpt><trkpt lat="40.9992567" lon="0.1161617"><ele>391.0</ele><time>2026-03-31T11:02:18.156Z</time></trkpt><trkpt lat="40.9991167" lon="0.115895"><ele>396.0</ele><time>2026-03-31T11:02:19.157Z</time></trkpt><trkpt lat="40.9989767" lon="0.11563"><ele>401.0</ele><time>2026-03-31T11:02:20.157Z</time></trkpt><trkpt lat="40.9988333" lon="0.1153833"><ele>401.0</ele><time>2026-03-31T11:02:21.157Z</time></trkpt><trkpt lat="40.9986767" lon="0.11515"><ele>401.0</ele><time>2026-03-31T11:02:22.156Z</time></trkpt><trkpt lat="40.99852" lon="0.1149217"><ele>402.5</ele><time>2026-03-31T11:02:23.156Z</time></trkpt><trkpt lat="40.998335" lon="0.1147183"><ele>404.0</ele><time>2026-03-31T11:02:24.157Z</time></trkpt><trkpt lat="40.9981383" lon="0.114535"><ele>394.0</ele><time>2026-03-31T11:02:25.156Z</time></trkpt><trkpt lat="40.99793" lon="0.11438"><ele>384.0</ele><time>2026-03-31T11:02:26.156Z</time></trkpt><trkpt lat="40.9977067" lon="0.1142217"><ele>386.5</ele><time>2026-03-31T11:02:27.156Z</time></trkpt><trkpt lat="40.9974917" lon="0.1140667"><ele>389.0</ele><time>2026-03-31T11:02:28.157Z</time></trkpt><trkpt lat="40.9972817" lon="0.1139067"><ele>389.0</ele><time>2026-03-31T11:02:29.156Z</time></trkpt><trkpt lat="40.9970733" lon="0.1137333"><ele>389.0</ele><time>2026-03-31T11:02:30.156Z</time></trkpt><trkpt lat="40.9968617" lon="0.113545"><ele>389.0</ele><time>2026-03-31T11:02:31.156Z</time></trkpt><trkpt lat="40.9966583" lon="0.1133517"><ele>389.0</ele><time>2026-03-31T11:02:32.157Z</time></trkpt><trkpt lat="40.9964617" lon="0.1131317"><ele>389.0</ele><time>2026-03-31T11:02:33.156Z</time></trkpt><trkpt lat="40.996275" lon="0.11291"><ele>389.0</ele><time>2026-03-31T11:02:34.156Z</time></trkpt><trkpt lat="40.996085" lon="0.1126867"><ele>389.0</ele><time>2026-03-31T11:02:35.156Z</time></trkpt><trkpt lat="40.995905" lon="0.1124567"><ele>389.0</ele><time>2026-03-31T11:02:36.156Z</time></trkpt><trkpt lat="40.9957133" lon="0.112235"><ele>389.0</ele><time>2026-03-31T11:02:37.157Z</time></trkpt><trkpt lat="40.9955233" lon="0.1120067"><ele>389.0</ele><time>2026-03-31T11:02:38.157Z</time></trkpt><trkpt lat="40.995335" lon="0.1117783"><ele>389.0</ele><time>2026-03-31T11:02:39.156Z</time></trkpt><trkpt lat="40.995155" lon="0.1115533"><ele>389.0</ele><time>2026-03-31T11:02:40.156Z</time></trkpt><trkpt lat="40.9949817" lon="0.11134"><ele>389.0</ele><time>2026-03-31T11:02:41.156Z</time></trkpt><trkpt lat="40.9948117" lon="0.11113"><ele>389.0</ele><time>2026-03-31T11:02:42.157Z</time></trkpt><trkpt lat="40.9946317" lon="0.1109233"><ele>392.5</ele><time>2026-03-31T11:02:43.156Z</time></trkpt><trkpt lat="40.9944633" lon="0.1107"><ele>396.0</ele><time>2026-03-31T11:02:44.157Z</time></trkpt><trkpt lat="40.9942867" lon="0.110495"><ele>391.5</ele><time>2026-03-31T11:02:45.157Z</time></trkpt><trkpt lat="40.994115" lon="0.110285"><ele>387.0</ele><time>2026-03-31T11:02:46.157Z</time></trkpt><trkpt lat="40.9939333" lon="0.1100867"><ele>391.0</ele><time>2026-03-31T11:02:47.156Z</time></trkpt><trkpt lat="40.9937367" lon="0.1099067"><ele>395.0</ele><time>2026-03-31T11:02:48.157Z</time></trkpt><trkpt lat="40.9935283" lon="0.1097583"><ele>392.0</ele><time>2026-03-31T11:02:49.157Z</time></trkpt><trkpt lat="40.99331" lon="0.1096383"><ele>389.0</ele><time>2026-03-31T11:02:50.157Z</time></trkpt><trkpt lat="40.9930717" lon="0.1095467"><ele>389.0</ele><time>2026-03-31T11:02:51.157Z</time></trkpt><trkpt lat="40.9928333" lon="0.1094633"><ele>389.0</ele><time>2026-03-31T11:02:52.156Z</time></trkpt><trkpt lat="40.9925883" lon="0.1093983"><ele>389.5</ele><time>2026-03-31T11:02:53.156Z</time></trkpt><trkpt lat="40.9923517" lon="0.1093333"><ele>390.0</ele><time>2026-03-31T11:02:54.157Z</time></trkpt><trkpt lat="40.9921083" lon="0.1092583"><ele>390.0</ele><time>2026-03-31T11:02:55.156Z</time></trkpt><trkpt lat="40.991865" lon="0.109175"><ele>390.0</ele><time>2026-03-31T11:02:56.156Z</time></trkpt><trkpt lat="40.9916133" lon="0.1090983"><ele>397.0</ele><time>2026-03-31T11:02:57.157Z</time></trkpt><trkpt lat="40.9913633" lon="0.1090217"><ele>404.0</ele><time>2026-03-31T11:02:58.157Z</time></trkpt><trkpt lat="40.9911183" lon="0.10895"><ele>404.0</ele><time>2026-03-31T11:02:59.156Z</time></trkpt><trkpt lat="40.9908783" lon="0.1088717"><ele>404.0</ele><time>2026-03-31T11:03:00.156Z</time></trkpt><trkpt lat="40.990625" lon="0.1087917"><ele>403.0</ele><time>2026-03-31T11:03:01.157Z</time></trkpt><trkpt lat="40.9903717" lon="0.1087067"><ele>402.0</ele><time>2026-03-31T11:03:02.157Z</time></trkpt><trkpt lat="40.990135" lon="0.1086183"><ele>398.0</ele><time>2026-03-31T11:03:03.157Z</time></trkpt><trkpt lat="40.9898983" lon="0.1085283"><ele>394.0</ele><time>2026-03-31T11:03:04.156Z</time></trkpt><trkpt lat="40.98966" lon="0.108425"><ele>394.0</ele><time>2026-03-31T11:03:05.157Z</time></trkpt><trkpt lat="40.9894217" lon="0.1083183"><ele>394.0</ele><time>2026-03-31T11:03:06.157Z</time></trkpt><trkpt lat="40.9891833" lon="0.1082083"><ele>401.0</ele><time>2026-03-31T11:03:07.157Z</time></trkpt><trkpt lat="40.9889367" lon="0.1081083"><ele>408.0</ele><time>2026-03-31T11:03:08.156Z</time></trkpt><trkpt lat="40.9886967" lon="0.10801"><ele>408.0</ele><time>2026-03-31T11:03:09.156Z</time></trkpt><trkpt lat="40.9884583" lon="0.107925"><ele>408.0</ele><time>2026-03-31T11:03:10.157Z</time></trkpt><trkpt lat="40.988225" lon="0.1078617"><ele>407.0</ele><time>2026-03-31T11:03:11.156Z</time></trkpt><trkpt lat="40.98798" lon="0.1078333"><ele>406.0</ele><time>2026-03-31T11:03:12.157Z</time></trkpt><trkpt lat="40.9877333" lon="0.1078267"><ele>403.0</ele><time>2026-03-31T11:03:13.157Z</time></trkpt><trkpt lat="40.9874967" lon="0.107815"><ele>400.0</ele><time>2026-03-31T11:03:14.157Z</time></trkpt><trkpt lat="40.987255" lon="0.107795"><ele>400.0</ele><time>2026-03-31T11:03:15.157Z</time></trkpt><trkpt lat="40.98703" lon="0.1077683"><ele>400.0</ele><time>2026-03-31T11:03:16.156Z</time></trkpt><trkpt lat="40.986815" lon="0.1077117"><ele>400.0</ele><time>2026-03-31T11:03:17.156Z</time></trkpt><trkpt lat="40.9866067" lon="0.1076283"><ele>402.0</ele><time>2026-03-31T11:03:18.156Z</time></trkpt><trkpt lat="40.9864" lon="0.1075033"><ele>404.0</ele><time>2026-03-31T11:03:19.156Z</time></trkpt><trkpt lat="40.9862117" lon="0.10734"><ele>404.0</ele><time>2026-03-31T11:03:20.156Z</time></trkpt><trkpt lat="40.9860483" lon="0.1071533"><ele>404.0</ele><time>2026-03-31T11:03:21.156Z</time></trkpt><trkpt lat="40.9858917" lon="0.106945"><ele>404.0</ele><time>2026-03-31T11:03:22.156Z</time></trkpt><trkpt lat="40.985745" lon="0.10672"><ele>405.0</ele><time>2026-03-31T11:03:23.156Z</time></trkpt><trkpt lat="40.9856033" lon="0.1064883"><ele>406.0</ele><time>2026-03-31T11:03:24.156Z</time></trkpt><trkpt lat="40.9854733" lon="0.1062567"><ele>407.0</ele><time>2026-03-31T11:03:25.157Z</time></trkpt><trkpt lat="40.985345" lon="0.1060133"><ele>407.0</ele><time>2026-03-31T11:03:26.157Z</time></trkpt><trkpt lat="40.9852317" lon="0.10576"><ele>407.0</ele><time>2026-03-31T11:03:27.156Z</time></trkpt><trkpt lat="40.9851283" lon="0.1054917"><ele>403.5</ele><time>2026-03-31T11:03:28.156Z</time></trkpt><trkpt lat="40.9850467" lon="0.1052067"><ele>400.0</ele><time>2026-03-31T11:03:29.156Z</time></trkpt><trkpt lat="40.9849833" lon="0.10491"><ele>400.0</ele><time>2026-03-31T11:03:30.156Z</time></trkpt><trkpt lat="40.98493" lon="0.1046"><ele>400.0</ele><time>2026-03-31T11:03:31.156Z</time></trkpt><trkpt lat="40.9848867" lon="0.10429"><ele>400.0</ele><time>2026-03-31T11:03:32.156Z</time></trkpt><trkpt lat="40.9848417" lon="0.1039817"><ele>400.0</ele><time>2026-03-31T11:03:33.156Z</time></trkpt><trkpt lat="40.9848" lon="0.1036733"><ele>400.0</ele><time>2026-03-31T11:03:34.156Z</time></trkpt><trkpt lat="40.9847617" lon="0.1033583"><ele>400.0</ele><time>2026-03-31T11:03:35.157Z</time></trkpt><trkpt lat="40.9847433" lon="0.10305"><ele>402.0</ele><time>2026-03-31T11:03:36.156Z</time></trkpt><trkpt lat="40.984735" lon="0.102735"><ele>404.0</ele><time>2026-03-31T11:03:37.156Z</time></trkpt><trkpt lat="40.9847317" lon="0.102425"><ele>406.0</ele><time>2026-03-31T11:03:38.157Z</time></trkpt><trkpt lat="40.9847333" lon="0.1021017"><ele>408.0</ele><time>2026-03-31T11:03:39.156Z</time></trkpt><trkpt lat="40.9847383" lon="0.10178"><ele>406.0</ele><time>2026-03-31T11:03:40.156Z</time></trkpt><trkpt lat="40.984745" lon="0.1014567"><ele>404.0</ele><time>2026-03-31T11:03:41.157Z</time></trkpt><trkpt lat="40.9847517" lon="0.1011383"><ele>404.0</ele><time>2026-03-31T11:03:42.156Z</time></trkpt><trkpt lat="40.98476" lon="0.1008167"><ele>404.0</ele><time>2026-03-31T11:03:43.157Z</time></trkpt><trkpt lat="40.9847733" lon="0.1004917"><ele>403.5</ele><time>2026-03-31T11:03:44.156Z</time></trkpt><trkpt lat="40.9847917" lon="0.1001617"><ele>403.0</ele><time>2026-03-31T11:03:45.156Z</time></trkpt><trkpt lat="40.984805" lon="0.0998383"><ele>404.0</ele><time>2026-03-31T11:03:46.157Z</time></trkpt><trkpt lat="40.98482" lon="0.099515"><ele>405.0</ele><time>2026-03-31T11:03:47.157Z</time></trkpt><trkpt lat="40.9848283" lon="0.0991883"><ele>407.0</ele><time>2026-03-31T11:03:48.156Z</time></trkpt><trkpt lat="40.9848417" lon="0.0988683"><ele>409.0</ele><time>2026-03-31T11:03:49.156Z</time></trkpt><trkpt lat="40.9848533" lon="0.0985583"><ele>411.0</ele><time>2026-03-31T11:03:50.157Z</time></trkpt><trkpt lat="40.9848617" lon="0.09824"><ele>413.0</ele><time>2026-03-31T11:03:51.156Z</time></trkpt><trkpt lat="40.9848733" lon="0.0979233"><ele>413.0</ele><time>2026-03-31T11:03:52.156Z</time></trkpt><trkpt lat="40.9848867" lon="0.09761"><ele>413.0</ele><time>2026-03-31T11:03:53.156Z</time></trkpt><trkpt lat="40.9849017" lon="0.0972967"><ele>411.5</ele><time>2026-03-31T11:03:54.156Z</time></trkpt><trkpt lat="40.9849133" lon="0.09698"><ele>410.0</ele><time>2026-03-31T11:03:55.156Z</time></trkpt><trkpt lat="40.9849317" lon="0.0966517"><ele>409.5</ele><time>2026-03-31T11:03:56.157Z</time></trkpt><trkpt lat="40.9849633" lon="0.09633"><ele>409.0</ele><time>2026-03-31T11:03:57.156Z</time></trkpt><trkpt lat="40.9850067" lon="0.096015"><ele>410.5</ele><time>2026-03-31T11:03:58.157Z</time></trkpt><trkpt lat="40.9850667" lon="0.0957083"><ele>412.0</ele><time>2026-03-31T11:03:59.156Z</time></trkpt><trkpt lat="40.9851417" lon="0.0954067"><ele>412.0</ele><time>2026-03-31T11:04:00.156Z</time></trkpt><trkpt lat="40.9852233" lon="0.0951033"><ele>412.0</ele><time>2026-03-31T11:04:01.157Z</time></trkpt><trkpt lat="40.98531" lon="0.094815"><ele>412.0</ele><time>2026-03-31T11:04:02.156Z</time></trkpt><trkpt lat="40.9853933" lon="0.09452"><ele>412.0</ele><time>2026-03-31T11:04:03.157Z</time></trkpt><trkpt lat="40.9854767" lon="0.09423"><ele>413.0</ele><time>2026-03-31T11:04:04.157Z</time></trkpt><trkpt lat="40.98556" lon="0.0939283"><ele>414.0</ele><time>2026-03-31T11:04:05.157Z</time></trkpt><trkpt lat="40.9856483" lon="0.0936283"><ele>414.0</ele><time>2026-03-31T11:04:06.156Z</time></trkpt><trkpt lat="40.985725" lon="0.0933317"><ele>414.0</ele><time>2026-03-31T11:04:07.157Z</time></trkpt><trkpt lat="40.985785" lon="0.0930533"><ele>413.66666666666663</ele><time>2026-03-31T11:04:08.156Z</time></trkpt><trkpt lat="40.9858333" lon="0.0927867"><ele>413.3333333333333</ele><time>2026-03-31T11:04:09.157Z</time></trkpt><trkpt lat="40.9858767" lon="0.092535"><ele>413.0</ele><time>2026-03-31T11:04:10.156Z</time></trkpt><trkpt lat="40.985905" lon="0.0923"><ele>414.66666666666663</ele><time>2026-03-31T11:04:11.157Z</time></trkpt><trkpt lat="40.9859283" lon="0.0920767"><ele>416.33333333333337</ele><time>2026-03-31T11:04:12.156Z</time></trkpt><trkpt lat="40.9859433" lon="0.0918733"><ele>418.0</ele><time>2026-03-31T11:04:13.156Z</time></trkpt><trkpt lat="40.9859567" lon="0.0916683"><ele>418.0</ele><time>2026-03-31T11:04:14.157Z</time></trkpt><trkpt lat="40.9859733" lon="0.09148"><ele>418.0</ele><time>2026-03-31T11:04:15.156Z</time></trkpt><trkpt lat="40.9859917" lon="0.091305"><ele>418.0</ele><time>2026-03-31T11:04:16.156Z</time></trkpt><trkpt lat="40.98601" lon="0.09114"><ele>418.0</ele><time>2026-03-31T11:04:17.157Z</time></trkpt><trkpt lat="40.986025" lon="0.0909817"><ele>418.0</ele><time>2026-03-31T11:04:18.156Z</time></trkpt><trkpt lat="40.986035" lon="0.0908317"><ele>418.0</ele><time>2026-03-31T11:04:19.156Z</time></trkpt><trkpt lat="40.9860483" lon="0.0906867"><ele>418.0</ele><time>2026-03-31T11:04:20.156Z</time></trkpt><trkpt lat="40.9860567" lon="0.090525"><ele>418.0</ele><time>2026-03-31T11:04:21.157Z</time></trkpt><trkpt lat="40.9860683" lon="0.090365"><ele>418.25</ele><time>2026-03-31T11:04:22.156Z</time></trkpt><trkpt lat="40.9860783" lon="0.090205"><ele>418.5</ele><time>2026-03-31T11:04:23.156Z</time></trkpt><trkpt lat="40.98609" lon="0.090035"><ele>418.75</ele><time>2026-03-31T11:04:24.156Z</time></trkpt><trkpt lat="40.9861067" lon="0.0898733"><ele>419.0</ele><time>2026-03-31T11:04:25.157Z</time></trkpt><trkpt lat="40.9861167" lon="0.0897"><ele>419.0</ele><time>2026-03-31T11:04:26.156Z</time></trkpt><trkpt lat="40.98613" lon="0.08954"><ele>419.0</ele><time>2026-03-31T11:04:27.157Z</time></trkpt><trkpt lat="40.9861433" lon="0.089385"><ele>419.0</ele><time>2026-03-31T11:04:28.157Z</time></trkpt><trkpt lat="40.986155" lon="0.089225"><ele>419.0</ele><time>2026-03-31T11:04:29.157Z</time></trkpt><trkpt lat="40.9861733" lon="0.089075"><ele>418.75</ele><time>2026-03-31T11:04:30.157Z</time></trkpt><trkpt lat="40.9861867" lon="0.08892"><ele>418.5</ele><time>2026-03-31T11:04:31.157Z</time></trkpt><trkpt lat="40.9862033" lon="0.0887717"><ele>418.25</ele><time>2026-03-31T11:04:32.156Z</time></trkpt><trkpt lat="40.9862117" lon="0.0886233"><ele>418.0</ele><time>2026-03-31T11:04:33.156Z</time></trkpt><trkpt lat="40.9862217" lon="0.088475"><ele>418.0</ele><time>2026-03-31T11:04:34.156Z</time></trkpt><trkpt lat="40.9862367" lon="0.08833"><ele>418.0</ele><time>2026-03-31T11:04:35.157Z</time></trkpt><trkpt lat="40.9862617" lon="0.0881917"><ele>418.0</ele><time>2026-03-31T11:04:36.157Z</time></trkpt><trkpt lat="40.9862717" lon="0.08805"><ele>418.0</ele><time>2026-03-31T11:04:37.157Z</time></trkpt><trkpt lat="40.9862867" lon="0.087905"><ele>418.0</ele><time>2026-03-31T11:04:38.157Z</time></trkpt><trkpt lat="40.986295" lon="0.0877633"><ele>418.59999999999997</ele><time>2026-03-31T11:04:39.157Z</time></trkpt><trkpt lat="40.9862967" lon="0.0876217"><ele>419.2</ele><time>2026-03-31T11:04:40.156Z</time></trkpt><trkpt lat="40.9863017" lon="0.0874867"><ele>419.8</ele><time>2026-03-31T11:04:41.156Z</time></trkpt><trkpt lat="40.9863083" lon="0.0873483"><ele>420.4</ele><time>2026-03-31T11:04:42.157Z</time></trkpt><trkpt lat="40.9863067" lon="0.0872067"><ele>421.0</ele><time>2026-03-31T11:04:43.156Z</time></trkpt><trkpt lat="40.9863017" lon="0.08707"><ele>422.5</ele><time>2026-03-31T11:04:44.156Z</time></trkpt><trkpt lat="40.9863" lon="0.0869217"><ele>424.0</ele><time>2026-03-31T11:04:45.156Z</time></trkpt><trkpt lat="40.9863" lon="0.0867683"><ele>425.5</ele><time>2026-03-31T11:04:46.156Z</time></trkpt><trkpt lat="40.9863" lon="0.0866183"><ele>427.0</ele><time>2026-03-31T11:04:47.156Z</time></trkpt><trkpt lat="40.9862967" lon="0.08646"><ele>428.0</ele><time>2026-03-31T11:04:48.156Z</time></trkpt><trkpt lat="40.986305" lon="0.086305"><ele>429.0</ele><time>2026-03-31T11:04:49.157Z</time></trkpt><trkpt lat="40.9863167" lon="0.0861617"><ele>430.0</ele><time>2026-03-31T11:04:50.157Z</time></trkpt><trkpt lat="40.9863333" lon="0.08601"><ele>431.0</ele><time>2026-03-31T11:04:51.157Z</time></trkpt><trkpt lat="40.9863533" lon="0.085855"><ele>431.20000000000005</ele><time>2026-03-31T11:04:52.156Z</time></trkpt><trkpt lat="40.9863683" lon="0.0857067"><ele>431.40000000000003</ele><time>2026-03-31T11:04:53.157Z</time></trkpt><trkpt lat="40.98638" lon="0.08556"><ele>431.6</ele><time>2026-03-31T11:04:54.156Z</time></trkpt><trkpt lat="40.9863783" lon="0.0854133"><ele>431.8</ele><time>2026-03-31T11:04:55.156Z</time></trkpt><trkpt lat="40.986375" lon="0.0852767"><ele>432.0</ele><time>2026-03-31T11:04:56.157Z</time></trkpt><trkpt lat="40.9863733" lon="0.0851383"><ele>432.0</ele><time>2026-03-31T11:04:57.157Z</time></trkpt><trkpt lat="40.9863617" lon="0.0850067"><ele>432.00000000000006</ele><time>2026-03-31T11:04:58.156Z</time></trkpt><trkpt lat="40.9863433" lon="0.0848783"><ele>432.00000000000006</ele><time>2026-03-31T11:04:59.156Z</time></trkpt><trkpt lat="40.9863283" lon="0.0847467"><ele>432.0</ele><time>2026-03-31T11:05:00.157Z</time></trkpt><trkpt lat="40.986305" lon="0.0846117"><ele>432.0</ele><time>2026-03-31T11:05:01.156Z</time></trkpt><trkpt lat="40.98628" lon="0.0844733"><ele>433.0</ele><time>2026-03-31T11:05:02.156Z</time></trkpt><trkpt lat="40.9862667" lon="0.084325"><ele>434.00000000000006</ele><time>2026-03-31T11:05:03.156Z</time></trkpt><trkpt lat="40.9862367" lon="0.0841883"><ele>435.00000000000006</ele><time>2026-03-31T11:05:04.157Z</time></trkpt><trkpt lat="40.9862217" lon="0.0840467"><ele>436.0</ele><time>2026-03-31T11:05:05.156Z</time></trkpt><trkpt lat="40.9862" lon="0.0839117"><ele>437.0</ele><time>2026-03-31T11:05:06.156Z</time></trkpt><trkpt lat="40.9861967" lon="0.0837567"><ele>437.5</ele><time>2026-03-31T11:05:07.156Z</time></trkpt><trkpt lat="40.9862017" lon="0.08359"><ele>438.0</ele><time>2026-03-31T11:05:08.157Z</time></trkpt><trkpt lat="40.986225" lon="0.083435"><ele>438.5</ele><time>2026-03-31T11:05:09.157Z</time></trkpt><trkpt lat="40.98625" lon="0.0832833"><ele>439.0</ele><time>2026-03-31T11:05:10.157Z</time></trkpt><trkpt lat="40.9862817" lon="0.0831333"><ele>438.0</ele><time>2026-03-31T11:05:11.157Z</time></trkpt><trkpt lat="40.9863117" lon="0.0829883"><ele>437.0</ele><time>2026-03-31T11:05:12.157Z</time></trkpt><trkpt lat="40.986345" lon="0.0828433"><ele>436.0</ele><time>2026-03-31T11:05:13.157Z</time></trkpt><trkpt lat="40.9863733" lon="0.0826783"><ele>435.0</ele><time>2026-03-31T11:05:14.156Z</time></trkpt><trkpt lat="40.9864017" lon="0.0825167"><ele>435.25</ele><time>2026-03-31T11:05:15.156Z</time></trkpt><trkpt lat="40.9864133" lon="0.08235"><ele>435.5</ele><time>2026-03-31T11:05:16.156Z</time></trkpt><trkpt lat="40.9864017" lon="0.0821833"><ele>435.75</ele><time>2026-03-31T11:05:17.157Z</time></trkpt><trkpt lat="40.9863717" lon="0.0820317"><ele>436.0</ele><time>2026-03-31T11:05:18.157Z</time></trkpt><trkpt lat="40.9863317" lon="0.08186"><ele>436.0</ele><time>2026-03-31T11:05:19.157Z</time></trkpt><trkpt lat="40.9862783" lon="0.081675"><ele>436.0</ele><time>2026-03-31T11:05:20.156Z</time></trkpt><trkpt lat="40.98623" lon="0.0814867"><ele>436.0</ele><time>2026-03-31T11:05:21.157Z</time></trkpt><trkpt lat="40.9861817" lon="0.081295"><ele>437.0</ele><time>2026-03-31T11:05:22.156Z</time></trkpt><trkpt lat="40.98614" lon="0.0811117"><ele>438.0</ele><time>2026-03-31T11:05:23.156Z</time></trkpt><trkpt lat="40.986095" lon="0.08093"><ele>439.0</ele><time>2026-03-31T11:05:24.156Z</time></trkpt><trkpt lat="40.986045" lon="0.08075"><ele>440.0</ele><time>2026-03-31T11:05:25.156Z</time></trkpt><trkpt lat="40.985995" lon="0.080585"><ele>439.75</ele><time>2026-03-31T11:05:26.156Z</time></trkpt><trkpt lat="40.98595" lon="0.08041"><ele>439.5</ele><time>2026-03-31T11:05:27.157Z</time></trkpt><trkpt lat="40.985905" lon="0.080235"><ele>439.25</ele><time>2026-03-31T11:05:28.156Z</time></trkpt><trkpt lat="40.9858617" lon="0.0800567"><ele>439.0</ele><time>2026-03-31T11:05:29.157Z</time></trkpt><trkpt lat="40.9858167" lon="0.0798733"><ele>439.0</ele><time>2026-03-31T11:05:30.157Z</time></trkpt><trkpt lat="40.98577" lon="0.079695"><ele>439.0</ele><time>2026-03-31T11:05:31.157Z</time></trkpt><trkpt lat="40.9857233" lon="0.079515"><ele>439.0</ele><time>2026-03-31T11:05:32.157Z</time></trkpt><trkpt lat="40.98568" lon="0.07934"><ele>439.0</ele><time>2026-03-31T11:05:33.156Z</time></trkpt><trkpt lat="40.98564" lon="0.0791617"><ele>440.25</ele><time>2026-03-31T11:05:34.156Z</time></trkpt><trkpt lat="40.985605" lon="0.0789833"><ele>441.5</ele><time>2026-03-31T11:05:35.156Z</time></trkpt><trkpt lat="40.985575" lon="0.0788033"><ele>442.75</ele><time>2026-03-31T11:05:36.156Z</time></trkpt><trkpt lat="40.985555" lon="0.0786167"><ele>444.0</ele><time>2026-03-31T11:05:37.156Z</time></trkpt><trkpt lat="40.9855383" lon="0.0784283"><ele>444.0</ele><time>2026-03-31T11:05:38.156Z</time></trkpt><trkpt lat="40.985535" lon="0.07822"><ele>444.0</ele><time>2026-03-31T11:05:39.156Z</time></trkpt><trkpt lat="40.985535" lon="0.0780117"><ele>444.0</ele><time>2026-03-31T11:05:40.156Z</time></trkpt><trkpt lat="40.9855383" lon="0.07779"><ele>444.0</ele><time>2026-03-31T11:05:41.157Z</time></trkpt><trkpt lat="40.9855417" lon="0.07757"><ele>444.0</ele><time>2026-03-31T11:05:42.156Z</time></trkpt><trkpt lat="40.9855433" lon="0.077335"><ele>444.0</ele><time>2026-03-31T11:05:43.157Z</time></trkpt><trkpt lat="40.9855467" lon="0.0770917"><ele>444.66666666666663</ele><time>2026-03-31T11:05:44.156Z</time></trkpt><trkpt lat="40.98555" lon="0.0768433"><ele>445.3333333333333</ele><time>2026-03-31T11:05:45.156Z</time></trkpt><trkpt lat="40.9855567" lon="0.076595"><ele>446.0</ele><time>2026-03-31T11:05:46.156Z</time></trkpt><trkpt lat="40.9855667" lon="0.0763367"><ele>446.0</ele><time>2026-03-31T11:05:47.157Z</time></trkpt><trkpt lat="40.9855817" lon="0.0760817"><ele>446.0</ele><time>2026-03-31T11:05:48.156Z</time></trkpt><trkpt lat="40.98562" lon="0.0758183"><ele>446.0</ele><time>2026-03-31T11:05:49.156Z</time></trkpt><trkpt lat="40.9856733" lon="0.0755417"><ele>445.3333333333333</ele><time>2026-03-31T11:05:50.157Z</time></trkpt><trkpt lat="40.98574" lon="0.07527"><ele>444.66666666666663</ele><time>2026-03-31T11:05:51.157Z</time></trkpt><trkpt lat="40.9858133" lon="0.0749967"><ele>444.0</ele><time>2026-03-31T11:05:52.157Z</time></trkpt><trkpt lat="40.985885" lon="0.07473"><ele>448.33333333333337</ele><time>2026-03-31T11:05:53.157Z</time></trkpt><trkpt lat="40.9859567" lon="0.074455"><ele>452.6666666666667</ele><time>2026-03-31T11:05:54.157Z</time></trkpt><trkpt lat="40.986025" lon="0.0742"><ele>457.0</ele><time>2026-03-31T11:05:55.157Z</time></trkpt><trkpt lat="40.9860933" lon="0.0739317"><ele>457.0</ele><time>2026-03-31T11:05:56.157Z</time></trkpt><trkpt lat="40.986155" lon="0.07366"><ele>457.0</ele><time>2026-03-31T11:05:57.156Z</time></trkpt><trkpt lat="40.9862033" lon="0.0733767"><ele>457.0</ele><time>2026-03-31T11:05:58.156Z</time></trkpt><trkpt lat="40.986235" lon="0.07308"><ele>457.0</ele><time>2026-03-31T11:05:59.157Z</time></trkpt><trkpt lat="40.9862467" lon="0.0727867"><ele>457.0</ele><time>2026-03-31T11:06:00.157Z</time></trkpt><trkpt lat="40.9862267" lon="0.0724933"><ele>457.0</ele><time>2026-03-31T11:06:01.156Z</time></trkpt><trkpt lat="40.986175" lon="0.0722"><ele>460.5</ele><time>2026-03-31T11:06:02.157Z</time></trkpt><trkpt lat="40.986095" lon="0.0719133"><ele>464.0</ele><time>2026-03-31T11:06:03.156Z</time></trkpt><trkpt lat="40.9859983" lon="0.0716383"><ele>467.5</ele><time>2026-03-31T11:06:04.156Z</time></trkpt><trkpt lat="40.9858717" lon="0.07139"><ele>471.0</ele><time>2026-03-31T11:06:05.156Z</time></trkpt><trkpt lat="40.9857367" lon="0.0711467"><ele>465.0</ele><time>2026-03-31T11:06:06.157Z</time></trkpt><trkpt lat="40.9855767" lon="0.0709133"><ele>459.0</ele><time>2026-03-31T11:06:07.157Z</time></trkpt><trkpt lat="40.985415" lon="0.0707"><ele>459.0</ele><time>2026-03-31T11:06:08.157Z</time></trkpt><trkpt lat="40.9852467" lon="0.0704883"><ele>459.0</ele><time>2026-03-31T11:06:09.156Z</time></trkpt><trkpt lat="40.9850683" lon="0.0702967"><ele>460.0</ele><time>2026-03-31T11:06:10.156Z</time></trkpt><trkpt lat="40.9849017" lon="0.0700817"><ele>461.0</ele><time>2026-03-31T11:06:11.157Z</time></trkpt><trkpt lat="40.9847467" lon="0.0698467"><ele>461.0</ele><time>2026-03-31T11:06:12.156Z</time></trkpt><trkpt lat="40.9846217" lon="0.069585"><ele>461.0</ele><time>2026-03-31T11:06:13.156Z</time></trkpt><trkpt lat="40.98453" lon="0.0693067"><ele>465.0</ele><time>2026-03-31T11:06:14.157Z</time></trkpt><trkpt lat="40.9844667" lon="0.069015"><ele>469.0</ele><time>2026-03-31T11:06:15.157Z</time></trkpt><trkpt lat="40.9844367" lon="0.0687083"><ele>469.0</ele><time>2026-03-31T11:06:16.157Z</time></trkpt><trkpt lat="40.9844333" lon="0.0683983"><ele>469.0</ele><time>2026-03-31T11:06:17.157Z</time></trkpt><trkpt lat="40.9844417" lon="0.0680867"><ele>472.0</ele><time>2026-03-31T11:06:18.157Z</time></trkpt><trkpt lat="40.9844483" lon="0.0677767"><ele>475.0</ele><time>2026-03-31T11:06:19.156Z</time></trkpt><trkpt lat="40.9844483" lon="0.06747"><ele>475.0</ele><time>2026-03-31T11:06:20.157Z</time></trkpt><trkpt lat="40.9844283" lon="0.0671617"><ele>475.0</ele><time>2026-03-31T11:06:21.156Z</time></trkpt><trkpt lat="40.98437" lon="0.0668683"><ele>476.0</ele><time>2026-03-31T11:06:22.156Z</time></trkpt><trkpt lat="40.9842817" lon="0.06658"><ele>477.0</ele><time>2026-03-31T11:06:23.156Z</time></trkpt><trkpt lat="40.984165" lon="0.0663183"><ele>467.0</ele><time>2026-03-31T11:06:24.156Z</time></trkpt><trkpt lat="40.98402" lon="0.0660667"><ele>457.0</ele><time>2026-03-31T11:06:25.156Z</time></trkpt><trkpt lat="40.98386" lon="0.0658267"><ele>465.5</ele><time>2026-03-31T11:06:26.157Z</time></trkpt><trkpt lat="40.9836917" lon="0.0656"><ele>474.0</ele><time>2026-03-31T11:06:27.156Z</time></trkpt><trkpt lat="40.9835083" lon="0.0653733"><ele>475.5</ele><time>2026-03-31T11:06:28.156Z</time></trkpt><trkpt lat="40.9833333" lon="0.0651417"><ele>477.0</ele><time>2026-03-31T11:06:29.157Z</time></trkpt><trkpt lat="40.9831767" lon="0.0648883"><ele>477.0</ele><time>2026-03-31T11:06:30.156Z</time></trkpt><trkpt lat="40.9830483" lon="0.0646117"><ele>477.0</ele><time>2026-03-31T11:06:31.157Z</time></trkpt><trkpt lat="40.9829417" lon="0.0643017"><ele>478.5</ele><time>2026-03-31T11:06:32.156Z</time></trkpt><trkpt lat="40.9828483" lon="0.0639817"><ele>480.0</ele><time>2026-03-31T11:06:33.157Z</time></trkpt><trkpt lat="40.9827533" lon="0.0636583"><ele>480.0</ele><time>2026-03-31T11:06:34.157Z</time></trkpt><trkpt lat="40.98265" lon="0.0633417"><ele>480.0</ele><time>2026-03-31T11:06:35.157Z</time></trkpt><trkpt lat="40.9825233" lon="0.0630433"><ele>474.5</ele><time>2026-03-31T11:06:36.156Z</time></trkpt><trkpt lat="40.98238" lon="0.06275"><ele>469.0</ele><time>2026-03-31T11:06:37.157Z</time></trkpt><trkpt lat="40.9822217" lon="0.0624733"><ele>477.5</ele><time>2026-03-31T11:06:38.156Z</time></trkpt><trkpt lat="40.982045" lon="0.0622133"><ele>486.0</ele><time>2026-03-31T11:06:39.156Z</time></trkpt><trkpt lat="40.981865" lon="0.0619517"><ele>486.0</ele><time>2026-03-31T11:06:40.156Z</time></trkpt><trkpt lat="40.9816833" lon="0.0616833"><ele>486.0</ele><time>2026-03-31T11:06:41.156Z</time></trkpt><trkpt lat="40.9815117" lon="0.0614083"><ele>480.0</ele><time>2026-03-31T11:06:42.157Z</time></trkpt><trkpt lat="40.9813283" lon="0.0611483"><ele>474.0</ele><time>2026-03-31T11:06:43.156Z</time></trkpt><trkpt lat="40.98115" lon="0.0608833"><ele>474.5</ele><time>2026-03-31T11:06:44.157Z</time></trkpt><trkpt lat="40.9809617" lon="0.060625"><ele>475.0</ele><time>2026-03-31T11:06:45.157Z</time></trkpt><trkpt lat="40.98078" lon="0.0603767"><ele>475.0</ele><time>2026-03-31T11:06:46.157Z</time></trkpt><trkpt lat="40.98058" lon="0.060145"><ele>475.0</ele><time>2026-03-31T11:06:47.156Z</time></trkpt><trkpt lat="40.9803783" lon="0.059935"><ele>475.5</ele><time>2026-03-31T11:06:48.157Z</time></trkpt><trkpt lat="40.980185" lon="0.059725"><ele>476.0</ele><time>2026-03-31T11:06:49.157Z</time></trkpt><trkpt lat="40.98" lon="0.059505"><ele>478.0</ele><time>2026-03-31T11:06:50.157Z</time></trkpt><trkpt lat="40.979825" lon="0.059275"><ele>480.0</ele><time>2026-03-31T11:06:51.157Z</time></trkpt><trkpt lat="40.9796683" lon="0.0590267"><ele>485.5</ele><time>2026-03-31T11:06:52.156Z</time></trkpt><trkpt lat="40.9795283" lon="0.058745"><ele>491.0</ele><time>2026-03-31T11:06:53.157Z</time></trkpt><trkpt lat="40.9794233" lon="0.0584617"><ele>493.5</ele><time>2026-03-31T11:06:54.157Z</time></trkpt><trkpt lat="40.979345" lon="0.0581717"><ele>496.0</ele><time>2026-03-31T11:06:55.156Z</time></trkpt><trkpt lat="40.9792833" lon="0.0578767"><ele>496.0</ele><time>2026-03-31T11:06:56.157Z</time></trkpt><trkpt lat="40.9792517" lon="0.0575733"><ele>496.0</ele><time>2026-03-31T11:06:57.156Z</time></trkpt><trkpt lat="40.9792383" lon="0.0572817"><ele>498.5</ele><time>2026-03-31T11:06:58.156Z</time></trkpt><trkpt lat="40.9792533" lon="0.0569917"><ele>501.0</ele><time>2026-03-31T11:06:59.156Z</time></trkpt><trkpt lat="40.979285" lon="0.0566883"><ele>501.5</ele><time>2026-03-31T11:07:00.156Z</time></trkpt><trkpt lat="40.97933" lon="0.0563867"><ele>502.0</ele><time>2026-03-31T11:07:01.156Z</time></trkpt><trkpt lat="40.9793867" lon="0.0560933"><ele>502.0</ele><time>2026-03-31T11:07:02.156Z</time></trkpt><trkpt lat="40.9794533" lon="0.0558167"><ele>502.0</ele><time>2026-03-31T11:07:03.157Z</time></trkpt><trkpt lat="40.9795217" lon="0.0555317"><ele>502.0</ele><time>2026-03-31T11:07:04.157Z</time></trkpt><trkpt lat="40.9795833" lon="0.055265"><ele>502.0</ele><time>2026-03-31T11:07:05.157Z</time></trkpt><trkpt lat="40.97964" lon="0.0550033"><ele>502.0</ele><time>2026-03-31T11:07:06.156Z</time></trkpt><trkpt lat="40.9797033" lon="0.0547333"><ele>502.0</ele><time>2026-03-31T11:07:07.157Z</time></trkpt><trkpt lat="40.9797417" lon="0.0544683"><ele>503.33333333333337</ele><time>2026-03-31T11:07:08.156Z</time></trkpt><trkpt lat="40.9797567" lon="0.0542117"><ele>504.66666666666663</ele><time>2026-03-31T11:07:09.157Z</time></trkpt><trkpt lat="40.979755" lon="0.0539633"><ele>506.0</ele><time>2026-03-31T11:07:10.157Z</time></trkpt><trkpt lat="40.97974" lon="0.0537267"><ele>507.0</ele><time>2026-03-31T11:07:11.156Z</time></trkpt><trkpt lat="40.979725" lon="0.0534933"><ele>508.0</ele><time>2026-03-31T11:07:12.156Z</time></trkpt><trkpt lat="40.97971" lon="0.0532817"><ele>509.0</ele><time>2026-03-31T11:07:13.157Z</time></trkpt><trkpt lat="40.9796983" lon="0.053085"><ele>510.2</ele><time>2026-03-31T11:07:14.157Z</time></trkpt><trkpt lat="40.9796783" lon="0.0529117"><ele>511.4</ele><time>2026-03-31T11:07:15.157Z</time></trkpt><trkpt lat="40.9796667" lon="0.0527633"><ele>512.6</ele><time>2026-03-31T11:07:16.157Z</time></trkpt><trkpt lat="40.9796583" lon="0.0526417"><ele>513.8</ele><time>2026-03-31T11:07:17.156Z</time></trkpt><trkpt lat="40.9796483" lon="0.0525517"><ele>515.0</ele><time>2026-03-31T11:07:18.156Z</time></trkpt><trkpt lat="40.9795867" lon="0.0526333"><ele>515.0</ele><time>2026-03-31T11:07:23.156Z</time></trkpt><trkpt lat="40.9795517" lon="0.0527167"><ele>515.0</ele><time>2026-03-31T11:07:25.157Z</time></trkpt><trkpt lat="40.9794733" lon="0.0528017"><ele>515.0</ele><time>2026-03-31T11:07:28.156Z</time></trkpt><trkpt lat="40.9794" lon="0.05284"><ele>515.0</ele><time>2026-03-31T11:07:30.156Z</time></trkpt><trkpt lat="40.9793367" lon="0.0528533"><ele>515.0</ele><time>2026-03-31T11:07:32.156Z</time></trkpt><trkpt lat="40.9794233" lon="0.0528733"><ele>515.0</ele><time>2026-03-31T11:08:27.157Z</time></trkpt><trkpt lat="40.9795217" lon="0.0528283"><ele>515.0</ele><time>2026-03-31T11:08:29.156Z</time></trkpt><trkpt lat="40.9795767" lon="0.05278"><ele>515.0</ele><time>2026-03-31T11:08:31.156Z</time></trkpt><trkpt lat="40.9796333" lon="0.0526917"><ele>515.0</ele><time>2026-03-31T11:08:44.157Z</time></trkpt><trkpt lat="40.97964" lon="0.0525233"><ele>515.0</ele><time>2026-03-31T11:08:46.156Z</time></trkpt><trkpt lat="40.97963" lon="0.052405"><ele>515.0</ele><time>2026-03-31T11:08:47.156Z</time></trkpt><trkpt lat="40.9796117" lon="0.052255"><ele>515.25</ele><time>2026-03-31T11:08:48.157Z</time></trkpt><trkpt lat="40.9795967" lon="0.0520933"><ele>515.5</ele><time>2026-03-31T11:08:49.157Z</time></trkpt><trkpt lat="40.97958" lon="0.051925"><ele>515.75</ele><time>2026-03-31T11:08:50.156Z</time></trkpt><trkpt lat="40.9795667" lon="0.05175"><ele>516.0</ele><time>2026-03-31T11:08:51.157Z</time></trkpt><trkpt lat="40.979555" lon="0.0515583"><ele>516.0</ele><time>2026-03-31T11:08:52.157Z</time></trkpt><trkpt lat="40.979535" lon="0.0513517"><ele>516.0</ele><time>2026-03-31T11:08:53.157Z</time></trkpt><trkpt lat="40.9795167" lon="0.0511333"><ele>516.0</ele><time>2026-03-31T11:08:54.157Z</time></trkpt><trkpt lat="40.9795067" lon="0.050895"><ele>516.6666666666666</ele><time>2026-03-31T11:08:55.157Z</time></trkpt><trkpt lat="40.9794867" lon="0.0506583"><ele>517.3333333333333</ele><time>2026-03-31T11:08:56.156Z</time></trkpt><trkpt lat="40.9794633" lon="0.0504267"><ele>518.0</ele><time>2026-03-31T11:08:57.156Z</time></trkpt><trkpt lat="40.9794433" lon="0.0501833"><ele>520.6666666666666</ele><time>2026-03-31T11:08:58.157Z</time></trkpt><trkpt lat="40.9794217" lon="0.0499433"><ele>523.3333333333334</ele><time>2026-03-31T11:08:59.157Z</time></trkpt><trkpt lat="40.9794" lon="0.0496883"><ele>526.0</ele><time>2026-03-31T11:09:00.156Z</time></trkpt><trkpt lat="40.9793767" lon="0.04944"><ele>526.0</ele><time>2026-03-31T11:09:01.157Z</time></trkpt><trkpt lat="40.9793567" lon="0.0491833"><ele>526.0</ele><time>2026-03-31T11:09:02.156Z</time></trkpt><trkpt lat="40.9793367" lon="0.0489183"><ele>526.0</ele><time>2026-03-31T11:09:03.157Z</time></trkpt><trkpt lat="40.9793183" lon="0.0486517"><ele>527.3333333333334</ele><time>2026-03-31T11:09:04.157Z</time></trkpt><trkpt lat="40.97929" lon="0.0483917"><ele>528.6666666666666</ele><time>2026-03-31T11:09:05.156Z</time></trkpt><trkpt lat="40.979255" lon="0.0481283"><ele>530.0</ele><time>2026-03-31T11:09:06.157Z</time></trkpt><trkpt lat="40.9792183" lon="0.0478667"><ele>533.0</ele><time>2026-03-31T11:09:07.157Z</time></trkpt><trkpt lat="40.9791783" lon="0.0476"><ele>536.0</ele><time>2026-03-31T11:09:08.157Z</time></trkpt><trkpt lat="40.9791417" lon="0.0473317"><ele>539.0</ele><time>2026-03-31T11:09:09.157Z</time></trkpt><trkpt lat="40.979095" lon="0.04707"><ele>539.6666666666666</ele><time>2026-03-31T11:09:10.157Z</time></trkpt><trkpt lat="40.979055" lon="0.0467917"><ele>540.3333333333334</ele><time>2026-03-31T11:09:11.157Z</time></trkpt><trkpt lat="40.97901" lon="0.0465183"><ele>541.0</ele><time>2026-03-31T11:09:12.156Z</time></trkpt><trkpt lat="40.9789633" lon="0.04624"><ele>541.3333333333334</ele><time>2026-03-31T11:09:13.156Z</time></trkpt><trkpt lat="40.9789117" lon="0.0459533"><ele>541.6666666666666</ele><time>2026-03-31T11:09:14.157Z</time></trkpt><trkpt lat="40.9788567" lon="0.0456683"><ele>542.0</ele><time>2026-03-31T11:09:15.156Z</time></trkpt><trkpt lat="40.9788017" lon="0.0453833"><ele>542.0</ele><time>2026-03-31T11:09:16.156Z</time></trkpt><trkpt lat="40.9787533" lon="0.0451"><ele>542.0</ele><time>2026-03-31T11:09:17.157Z</time></trkpt><trkpt lat="40.978705" lon="0.0448167"><ele>542.0</ele><time>2026-03-31T11:09:18.157Z</time></trkpt><trkpt lat="40.9786583" lon="0.0445317"><ele>542.6666666666666</ele><time>2026-03-31T11:09:19.157Z</time></trkpt><trkpt lat="40.97861" lon="0.0442483"><ele>543.3333333333334</ele><time>2026-03-31T11:09:20.156Z</time></trkpt><trkpt lat="40.978565" lon="0.0439567"><ele>544.0</ele><time>2026-03-31T11:09:21.156Z</time></trkpt><trkpt lat="40.9785233" lon="0.0436517"><ele>545.3333333333334</ele><time>2026-03-31T11:09:22.157Z</time></trkpt><trkpt lat="40.9784783" lon="0.0433667"><ele>546.6666666666666</ele><time>2026-03-31T11:09:23.157Z</time></trkpt><trkpt lat="40.9784533" lon="0.04309"><ele>548.0</ele><time>2026-03-31T11:09:24.156Z</time></trkpt><trkpt lat="40.97845" lon="0.0428233"><ele>548.0</ele><time>2026-03-31T11:09:25.156Z</time></trkpt><trkpt lat="40.9784667" lon="0.0425567"><ele>548.0</ele><time>2026-03-31T11:09:26.156Z</time></trkpt><trkpt lat="40.9784933" lon="0.0423017"><ele>548.0</ele><time>2026-03-31T11:09:27.157Z</time></trkpt><trkpt lat="40.9785433" lon="0.04206"><ele>547.6666666666666</ele><time>2026-03-31T11:09:28.156Z</time></trkpt><trkpt lat="40.9786017" lon="0.0418133"><ele>547.3333333333334</ele><time>2026-03-31T11:09:29.157Z</time></trkpt><trkpt lat="40.9786683" lon="0.0415767"><ele>547.0</ele><time>2026-03-31T11:09:30.157Z</time></trkpt><trkpt lat="40.9787417" lon="0.0413283"><ele>547.0</ele><time>2026-03-31T11:09:31.156Z</time></trkpt><trkpt lat="40.9788117" lon="0.0410783"><ele>547.0</ele><time>2026-03-31T11:09:32.157Z</time></trkpt><trkpt lat="40.9788767" lon="0.0408217"><ele>547.0</ele><time>2026-03-31T11:09:33.156Z</time></trkpt><trkpt lat="40.9789433" lon="0.0405567"><ele>548.6666666666667</ele><time>2026-03-31T11:09:34.157Z</time></trkpt><trkpt lat="40.9789967" lon="0.0402783"><ele>550.3333333333334</ele><time>2026-03-31T11:09:35.157Z</time></trkpt><trkpt lat="40.9790283" lon="0.0399817"><ele>552.0</ele><time>2026-03-31T11:09:36.156Z</time></trkpt><trkpt lat="40.97905" lon="0.0396967"><ele>552.3333333333334</ele><time>2026-03-31T11:09:37.157Z</time></trkpt><trkpt lat="40.9790533" lon="0.0394033"><ele>552.6666666666667</ele><time>2026-03-31T11:09:38.157Z</time></trkpt><trkpt lat="40.9790567" lon="0.0391033"><ele>553.0</ele><time>2026-03-31T11:09:39.156Z</time></trkpt><trkpt lat="40.9790567" lon="0.0388117"><ele>554.0</ele><time>2026-03-31T11:09:40.156Z</time></trkpt><trkpt lat="40.97906" lon="0.0385183"><ele>555.0</ele><time>2026-03-31T11:09:41.157Z</time></trkpt><trkpt lat="40.979055" lon="0.03824"><ele>556.0</ele><time>2026-03-31T11:09:42.156Z</time></trkpt><trkpt lat="40.97905" lon="0.03796"><ele>557.3333333333334</ele><time>2026-03-31T11:09:43.157Z</time></trkpt><trkpt lat="40.97905" lon="0.037675"><ele>558.6666666666666</ele><time>2026-03-31T11:09:44.157Z</time></trkpt><trkpt lat="40.9790483" lon="0.0373917"><ele>560.0</ele><time>2026-03-31T11:09:45.157Z</time></trkpt><trkpt lat="40.9790467" lon="0.03711"><ele>561.0</ele><time>2026-03-31T11:09:46.156Z</time></trkpt><trkpt lat="40.9790417" lon="0.0368333"><ele>562.0</ele><time>2026-03-31T11:09:47.156Z</time></trkpt><trkpt lat="40.97903" lon="0.0365483"><ele>563.0</ele><time>2026-03-31T11:09:48.157Z</time></trkpt><trkpt lat="40.97901" lon="0.0362667"><ele>563.0</ele><time>2026-03-31T11:09:49.156Z</time></trkpt><trkpt lat="40.9789933" lon="0.0359867"><ele>563.0</ele><time>2026-03-31T11:09:50.157Z</time></trkpt><trkpt lat="40.9789717" lon="0.03571"><ele>563.0</ele><time>2026-03-31T11:09:51.156Z</time></trkpt><trkpt lat="40.9789533" lon="0.0354433"><ele>563.3333333333333</ele><time>2026-03-31T11:09:52.156Z</time></trkpt><trkpt lat="40.9789333" lon="0.0351883"><ele>563.6666666666666</ele><time>2026-03-31T11:09:53.157Z</time></trkpt><trkpt lat="40.9789117" lon="0.034935"><ele>564.0</ele><time>2026-03-31T11:09:54.156Z</time></trkpt><trkpt lat="40.97889" lon="0.0346767"><ele>564.0</ele><time>2026-03-31T11:09:55.156Z</time></trkpt><trkpt lat="40.9788683" lon="0.0344367"><ele>564.0</ele><time>2026-03-31T11:09:56.156Z</time></trkpt><trkpt lat="40.97885" lon="0.0341917"><ele>564.0</ele><time>2026-03-31T11:09:57.157Z</time></trkpt><trkpt lat="40.978825" lon="0.03394"><ele>563.6666666666666</ele><time>2026-03-31T11:09:58.156Z</time></trkpt><trkpt lat="40.9788017" lon="0.0336883"><ele>563.3333333333333</ele><time>2026-03-31T11:09:59.157Z</time></trkpt><trkpt lat="40.9787817" lon="0.0334417"><ele>563.0</ele><time>2026-03-31T11:10:00.157Z</time></trkpt><trkpt lat="40.978755" lon="0.0331833"><ele>563.0</ele><time>2026-03-31T11:10:01.157Z</time></trkpt><trkpt lat="40.97873" lon="0.03293"><ele>563.0</ele><time>2026-03-31T11:10:02.156Z</time></trkpt><trkpt lat="40.9787083" lon="0.0326683"><ele>563.0</ele><time>2026-03-31T11:10:03.157Z</time></trkpt><trkpt lat="40.9786867" lon="0.0324033"><ele>562.0</ele><time>2026-03-31T11:10:04.157Z</time></trkpt><trkpt lat="40.9786633" lon="0.0321417"><ele>561.0</ele><time>2026-03-31T11:10:05.156Z</time></trkpt><trkpt lat="40.9786367" lon="0.0318833"><ele>560.0</ele><time>2026-03-31T11:10:06.157Z</time></trkpt><trkpt lat="40.9786133" lon="0.03162"><ele>559.0</ele><time>2026-03-31T11:10:07.157Z</time></trkpt><trkpt lat="40.9785917" lon="0.03136"><ele>558.0</ele><time>2026-03-31T11:10:08.157Z</time></trkpt><trkpt lat="40.9785733" lon="0.031105"><ele>557.0</ele><time>2026-03-31T11:10:09.156Z</time></trkpt><trkpt lat="40.9785533" lon="0.03086"><ele>556.6666666666666</ele><time>2026-03-31T11:10:10.156Z</time></trkpt><trkpt lat="40.9785333" lon="0.0306083"><ele>556.3333333333334</ele><time>2026-03-31T11:10:11.156Z</time></trkpt><trkpt lat="40.978515" lon="0.0303617"><ele>556.0</ele><time>2026-03-31T11:10:12.157Z</time></trkpt><trkpt lat="40.9784983" lon="0.0301033"><ele>557.3333333333334</ele><time>2026-03-31T11:10:13.157Z</time></trkpt><trkpt lat="40.9784833" lon="0.029845"><ele>558.6666666666666</ele><time>2026-03-31T11:10:14.156Z</time></trkpt><trkpt lat="40.9784633" lon="0.0296067"><ele>560.0</ele><time>2026-03-31T11:10:15.156Z</time></trkpt><trkpt lat="40.9784533" lon="0.0293583"><ele>561.0</ele><time>2026-03-31T11:10:16.156Z</time></trkpt><trkpt lat="40.97845" lon="0.0291083"><ele>562.0</ele><time>2026-03-31T11:10:17.156Z</time></trkpt><trkpt lat="40.97846" lon="0.028855"><ele>563.0</ele><time>2026-03-31T11:10:18.156Z</time></trkpt><trkpt lat="40.978485" lon="0.0285833"><ele>562.3333333333333</ele><time>2026-03-31T11:10:19.156Z</time></trkpt><trkpt lat="40.97852" lon="0.028305"><ele>561.6666666666666</ele><time>2026-03-31T11:10:20.157Z</time></trkpt><trkpt lat="40.9785683" lon="0.0280267"><ele>561.0</ele><time>2026-03-31T11:10:21.157Z</time></trkpt><trkpt lat="40.9786267" lon="0.0277583"><ele>561.0</ele><time>2026-03-31T11:10:22.157Z</time></trkpt><trkpt lat="40.9786867" lon="0.0274933"><ele>561.0</ele><time>2026-03-31T11:10:23.156Z</time></trkpt><trkpt lat="40.978745" lon="0.027245"><ele>561.0</ele><time>2026-03-31T11:10:24.156Z</time></trkpt><trkpt lat="40.9788133" lon="0.02701"><ele>560.0</ele><time>2026-03-31T11:10:25.156Z</time></trkpt><trkpt lat="40.9788967" lon="0.0267767"><ele>559.0</ele><time>2026-03-31T11:10:26.157Z</time></trkpt><trkpt lat="40.978995" lon="0.0265417"><ele>558.0</ele><time>2026-03-31T11:10:27.156Z</time></trkpt><trkpt lat="40.9791033" lon="0.02632"><ele>556.6666666666666</ele><time>2026-03-31T11:10:28.156Z</time></trkpt><trkpt lat="40.97922" lon="0.0261"><ele>555.3333333333333</ele><time>2026-03-31T11:10:29.156Z</time></trkpt><trkpt lat="40.9793367" lon="0.0258833"><ele>554.0</ele><time>2026-03-31T11:10:30.156Z</time></trkpt><trkpt lat="40.97945" lon="0.0256717"><ele>554.0</ele><time>2026-03-31T11:10:31.157Z</time></trkpt><trkpt lat="40.9795533" lon="0.0254817"><ele>554.0</ele><time>2026-03-31T11:10:32.156Z</time></trkpt><trkpt lat="40.9796683" lon="0.0252883"><ele>554.0</ele><time>2026-03-31T11:10:33.156Z</time></trkpt><trkpt lat="40.9797883" lon="0.0250917"><ele>554.6666666666666</ele><time>2026-03-31T11:10:34.156Z</time></trkpt><trkpt lat="40.97992" lon="0.0249117"><ele>555.3333333333334</ele><time>2026-03-31T11:10:35.156Z</time></trkpt><trkpt lat="40.9800683" lon="0.0247467"><ele>556.0</ele><time>2026-03-31T11:10:36.157Z</time></trkpt><trkpt lat="40.98023" lon="0.0245967"><ele>556.0</ele><time>2026-03-31T11:10:37.156Z</time></trkpt><trkpt lat="40.9803967" lon="0.0244567"><ele>556.0</ele><time>2026-03-31T11:10:38.156Z</time></trkpt><trkpt lat="40.9805683" lon="0.0243283"><ele>556.0</ele><time>2026-03-31T11:10:39.157Z</time></trkpt><trkpt lat="40.9807333" lon="0.024205"><ele>554.0</ele><time>2026-03-31T11:10:40.157Z</time></trkpt><trkpt lat="40.9808933" lon="0.0240817"><ele>552.0</ele><time>2026-03-31T11:10:41.157Z</time></trkpt><trkpt lat="40.9810483" lon="0.02395"><ele>550.0</ele><time>2026-03-31T11:10:42.156Z</time></trkpt><trkpt lat="40.981195" lon="0.0238117"><ele>550.0</ele><time>2026-03-31T11:10:43.156Z</time></trkpt><trkpt lat="40.9813417" lon="0.0236617"><ele>550.0</ele><time>2026-03-31T11:10:44.156Z</time></trkpt><trkpt lat="40.9814733" lon="0.023495"><ele>550.0</ele><time>2026-03-31T11:10:45.156Z</time></trkpt><trkpt lat="40.98161" lon="0.02332"><ele>547.0</ele><time>2026-03-31T11:10:46.157Z</time></trkpt><trkpt lat="40.9817333" lon="0.023125"><ele>544.0</ele><time>2026-03-31T11:10:47.156Z</time></trkpt><trkpt lat="40.9818433" lon="0.02291"><ele>541.0</ele><time>2026-03-31T11:10:48.156Z</time></trkpt><trkpt lat="40.9819433" lon="0.0226867"><ele>543.0</ele><time>2026-03-31T11:10:49.157Z</time></trkpt><trkpt lat="40.98203" lon="0.02245"><ele>545.0</ele><time>2026-03-31T11:10:50.156Z</time></trkpt><trkpt lat="40.9820883" lon="0.02222"><ele>547.0</ele><time>2026-03-31T11:10:51.157Z</time></trkpt><trkpt lat="40.9821383" lon="0.0219733"><ele>547.0</ele><time>2026-03-31T11:10:52.156Z</time></trkpt><trkpt lat="40.9821817" lon="0.0217233"><ele>547.0</ele><time>2026-03-31T11:10:53.157Z</time></trkpt><trkpt lat="40.9822133" lon="0.0214767"><ele>547.0</ele><time>2026-03-31T11:10:54.156Z</time></trkpt><trkpt lat="40.982235" lon="0.0212367"><ele>543.3333333333334</ele><time>2026-03-31T11:10:55.157Z</time></trkpt><trkpt lat="40.9822417" lon="0.020995"><ele>539.6666666666666</ele><time>2026-03-31T11:10:56.157Z</time></trkpt><trkpt lat="40.9822267" lon="0.0207483"><ele>536.0</ele><time>2026-03-31T11:10:57.156Z</time></trkpt><trkpt lat="40.982195" lon="0.0204983"><ele>533.0</ele><time>2026-03-31T11:10:58.156Z</time></trkpt><trkpt lat="40.9821483" lon="0.0202583"><ele>530.0</ele><time>2026-03-31T11:10:59.156Z</time></trkpt><trkpt lat="40.9820983" lon="0.02002"><ele>527.0</ele><time>2026-03-31T11:11:00.156Z</time></trkpt><trkpt lat="40.9820317" lon="0.0197983"><ele>525.6666666666666</ele><time>2026-03-31T11:11:01.157Z</time></trkpt><trkpt lat="40.9819483" lon="0.0195717"><ele>524.3333333333334</ele><time>2026-03-31T11:11:02.157Z</time></trkpt><trkpt lat="40.98185" lon="0.0193533"><ele>523.0</ele><time>2026-03-31T11:11:03.156Z</time></trkpt><trkpt lat="40.9817383" lon="0.0191417"><ele>524.6666666666667</ele><time>2026-03-31T11:11:04.157Z</time></trkpt><trkpt lat="40.981625" lon="0.0189367"><ele>526.3333333333334</ele><time>2026-03-31T11:11:05.156Z</time></trkpt><trkpt lat="40.9814917" lon="0.01874"><ele>528.0</ele><time>2026-03-31T11:11:06.157Z</time></trkpt><trkpt lat="40.9813533" lon="0.018555"><ele>528.0</ele><time>2026-03-31T11:11:07.157Z</time></trkpt><trkpt lat="40.9812317" lon="0.018345"><ele>528.0</ele><time>2026-03-31T11:11:08.156Z</time></trkpt><trkpt lat="40.9811133" lon="0.0181383"><ele>528.0</ele><time>2026-03-31T11:11:09.157Z</time></trkpt><trkpt lat="40.98101" lon="0.0179117"><ele>527.6666666666666</ele><time>2026-03-31T11:11:10.157Z</time></trkpt><trkpt lat="40.9809267" lon="0.0176617"><ele>527.3333333333333</ele><time>2026-03-31T11:11:11.156Z</time></trkpt><trkpt lat="40.9808633" lon="0.01741"><ele>527.0</ele><time>2026-03-31T11:11:12.156Z</time></trkpt><trkpt lat="40.9808217" lon="0.0171417"><ele>531.0</ele><time>2026-03-31T11:11:13.156Z</time></trkpt><trkpt lat="40.9808083" lon="0.0168817"><ele>535.0</ele><time>2026-03-31T11:11:14.157Z</time></trkpt><trkpt lat="40.9808117" lon="0.0166333"><ele>539.0</ele><time>2026-03-31T11:11:15.157Z</time></trkpt><trkpt lat="40.9808317" lon="0.01639"><ele>538.0</ele><time>2026-03-31T11:11:16.156Z</time></trkpt><trkpt lat="40.9808617" lon="0.01615"><ele>537.0</ele><time>2026-03-31T11:11:17.156Z</time></trkpt><trkpt lat="40.9808933" lon="0.0159133"><ele>536.0</ele><time>2026-03-31T11:11:18.157Z</time></trkpt><trkpt lat="40.9809283" lon="0.0156833"><ele>536.0</ele><time>2026-03-31T11:11:19.156Z</time></trkpt><trkpt lat="40.9809567" lon="0.015435"><ele>536.0</ele><time>2026-03-31T11:11:20.157Z</time></trkpt><trkpt lat="40.9809733" lon="0.0152"><ele>536.0</ele><time>2026-03-31T11:11:21.156Z</time></trkpt><trkpt lat="40.9809783" lon="0.0149567"><ele>537.0</ele><time>2026-03-31T11:11:22.156Z</time></trkpt><trkpt lat="40.9809633" lon="0.0147217"><ele>538.0</ele><time>2026-03-31T11:11:23.157Z</time></trkpt><trkpt lat="40.98094" lon="0.0144883"><ele>539.0</ele><time>2026-03-31T11:11:24.156Z</time></trkpt><trkpt lat="40.98091" lon="0.0142483"><ele>540.0</ele><time>2026-03-31T11:11:25.156Z</time></trkpt><trkpt lat="40.9808833" lon="0.0140067"><ele>541.0</ele><time>2026-03-31T11:11:26.156Z</time></trkpt><trkpt lat="40.9808617" lon="0.0137667"><ele>542.0</ele><time>2026-03-31T11:11:27.157Z</time></trkpt><trkpt lat="40.9808383" lon="0.0135317"><ele>542.3333333333333</ele><time>2026-03-31T11:11:28.157Z</time></trkpt><trkpt lat="40.9808267" lon="0.0133033"><ele>542.6666666666666</ele><time>2026-03-31T11:11:29.156Z</time></trkpt><trkpt lat="40.9808283" lon="0.0130867"><ele>543.0</ele><time>2026-03-31T11:11:30.157Z</time></trkpt><trkpt lat="40.980845" lon="0.0128567"><ele>543.0</ele><time>2026-03-31T11:11:31.156Z</time></trkpt><trkpt lat="40.9808783" lon="0.0126283"><ele>543.0</ele><time>2026-03-31T11:11:32.157Z</time></trkpt><trkpt lat="40.98093" lon="0.0123917"><ele>543.0</ele><time>2026-03-31T11:11:33.156Z</time></trkpt><trkpt lat="40.98099" lon="0.01216"><ele>542.3333333333334</ele><time>2026-03-31T11:11:34.157Z</time></trkpt><trkpt lat="40.9810533" lon="0.011935"><ele>541.6666666666667</ele><time>2026-03-31T11:11:35.157Z</time></trkpt><trkpt lat="40.981105" lon="0.011715"><ele>541.0</ele><time>2026-03-31T11:11:36.156Z</time></trkpt><trkpt lat="40.9811533" lon="0.0115"><ele>541.0</ele><time>2026-03-31T11:11:37.156Z</time></trkpt><trkpt lat="40.9811967" lon="0.0112867"><ele>541.0</ele><time>2026-03-31T11:11:38.157Z</time></trkpt><trkpt lat="40.9812517" lon="0.0110683"><ele>541.0</ele><time>2026-03-31T11:11:39.156Z</time></trkpt><trkpt lat="40.9813083" lon="0.010835"><ele>540.6666666666667</ele><time>2026-03-31T11:11:40.156Z</time></trkpt><trkpt lat="40.9813483" lon="0.0105933"><ele>540.3333333333334</ele><time>2026-03-31T11:11:41.157Z</time></trkpt><trkpt lat="40.98137" lon="0.01035"><ele>540.0</ele><time>2026-03-31T11:11:42.156Z</time></trkpt><trkpt lat="40.981385" lon="0.01012"><ele>537.6666666666666</ele><time>2026-03-31T11:11:43.156Z</time></trkpt><trkpt lat="40.9813817" lon="0.009885"><ele>535.3333333333333</ele><time>2026-03-31T11:11:44.157Z</time></trkpt><trkpt lat="40.9813733" lon="0.0096467"><ele>533.0</ele><time>2026-03-31T11:11:45.157Z</time></trkpt><trkpt lat="40.9813533" lon="0.0094067"><ele>533.0</ele><time>2026-03-31T11:11:46.156Z</time></trkpt><trkpt lat="40.9813317" lon="0.009165"><ele>533.0</ele><time>2026-03-31T11:11:47.156Z</time></trkpt><trkpt lat="40.9813083" lon="0.00893"><ele>533.0</ele><time>2026-03-31T11:11:48.156Z</time></trkpt><trkpt lat="40.98128" lon="0.008685"><ele>532.3333333333333</ele><time>2026-03-31T11:11:49.156Z</time></trkpt><trkpt lat="40.9812567" lon="0.0084483"><ele>531.6666666666666</ele><time>2026-03-31T11:11:50.156Z</time></trkpt><trkpt lat="40.9812517" lon="0.0082067"><ele>531.0</ele><time>2026-03-31T11:11:51.156Z</time></trkpt><trkpt lat="40.981255" lon="0.0079833"><ele>530.6666666666666</ele><time>2026-03-31T11:11:52.157Z</time></trkpt><trkpt lat="40.9812833" lon="0.00776"><ele>530.3333333333333</ele><time>2026-03-31T11:11:53.156Z</time></trkpt><trkpt lat="40.9813317" lon="0.0075333"><ele>530.0</ele><time>2026-03-31T11:11:54.157Z</time></trkpt><trkpt lat="40.98139" lon="0.007305"><ele>530.6666666666666</ele><time>2026-03-31T11:11:55.156Z</time></trkpt><trkpt lat="40.981455" lon="0.0071"><ele>531.3333333333334</ele><time>2026-03-31T11:11:56.157Z</time></trkpt><trkpt lat="40.9815317" lon="0.0069"><ele>532.0</ele><time>2026-03-31T11:11:57.156Z</time></trkpt><trkpt lat="40.9816283" lon="0.006705"><ele>529.0</ele><time>2026-03-31T11:11:58.157Z</time></trkpt><trkpt lat="40.9817267" lon="0.006505"><ele>526.0</ele><time>2026-03-31T11:11:59.157Z</time></trkpt><trkpt lat="40.9818133" lon="0.0062883"><ele>523.0</ele><time>2026-03-31T11:12:00.157Z</time></trkpt><trkpt lat="40.9818917" lon="0.0060683"><ele>523.0</ele><time>2026-03-31T11:12:01.157Z</time></trkpt><trkpt lat="40.981955" lon="0.0058467"><ele>523.0</ele><time>2026-03-31T11:12:02.156Z</time></trkpt><trkpt lat="40.981995" lon="0.0056233"><ele>523.0</ele><time>2026-03-31T11:12:03.157Z</time></trkpt><trkpt lat="40.98202" lon="0.0053867"><ele>522.6666666666667</ele><time>2026-03-31T11:12:04.156Z</time></trkpt><trkpt lat="40.9820383" lon="0.005145"><ele>522.3333333333334</ele><time>2026-03-31T11:12:05.157Z</time></trkpt><trkpt lat="40.982045" lon="0.004915"><ele>522.0</ele><time>2026-03-31T11:12:06.156Z</time></trkpt><trkpt lat="40.98203" lon="0.00467"><ele>522.0</ele><time>2026-03-31T11:12:07.156Z</time></trkpt><trkpt lat="40.98199" lon="0.004425"><ele>522.0</ele><time>2026-03-31T11:12:08.156Z</time></trkpt><trkpt lat="40.9819283" lon="0.0041933"><ele>522.0</ele><time>2026-03-31T11:12:09.157Z</time></trkpt><trkpt lat="40.981855" lon="0.0039733"><ele>522.0</ele><time>2026-03-31T11:12:10.157Z</time></trkpt><trkpt lat="40.9817667" lon="0.0037617"><ele>522.0</ele><time>2026-03-31T11:12:11.156Z</time></trkpt><trkpt lat="40.9816633" lon="0.0035633"><ele>522.0</ele><time>2026-03-31T11:12:12.156Z</time></trkpt><trkpt lat="40.98156" lon="0.0033717"><ele>524.0</ele><time>2026-03-31T11:12:13.156Z</time></trkpt><trkpt lat="40.9814533" lon="0.0031767"><ele>526.0</ele><time>2026-03-31T11:12:14.157Z</time></trkpt><trkpt lat="40.9813517" lon="0.0029817"><ele>528.0</ele><time>2026-03-31T11:12:15.157Z</time></trkpt><trkpt lat="40.9812417" lon="0.0028"><ele>528.0</ele><time>2026-03-31T11:12:16.156Z</time></trkpt><trkpt lat="40.98114" lon="0.002615"><ele>528.0</ele><time>2026-03-31T11:12:17.157Z</time></trkpt><trkpt lat="40.9810417" lon="0.0024233"><ele>528.0</ele><time>2026-03-31T11:12:18.156Z</time></trkpt><trkpt lat="40.98096" lon="0.0022117"><ele>529.6666666666666</ele><time>2026-03-31T11:12:19.156Z</time></trkpt><trkpt lat="40.9808933" lon="0.0019783"><ele>531.3333333333333</ele><time>2026-03-31T11:12:20.156Z</time></trkpt><trkpt lat="40.980845" lon="0.0017333"><ele>533.0</ele><time>2026-03-31T11:12:21.156Z</time></trkpt><trkpt lat="40.9808083" lon="0.0014767"><ele>533.0</ele><time>2026-03-31T11:12:22.157Z</time></trkpt><trkpt lat="40.98079" lon="0.0012217"><ele>533.0</ele><time>2026-03-31T11:12:23.157Z</time></trkpt><trkpt lat="40.980785" lon="9.75E-4"><ele>533.0</ele><time>2026-03-31T11:12:24.156Z</time></trkpt><trkpt lat="40.9807883" lon="7.25E-4"><ele>534.0</ele><time>2026-03-31T11:12:25.156Z</time></trkpt><trkpt lat="40.9808" lon="4.8E-4"><ele>535.0</ele><time>2026-03-31T11:12:26.157Z</time></trkpt><trkpt lat="40.9808117" lon="2.35E-4"><ele>536.0</ele><time>2026-03-31T11:12:27.157Z</time></trkpt><trkpt lat="40.9808167" lon="3.3E-6"><ele>536.0</ele><time>2026-03-31T11:12:28.156Z</time></trkpt><trkpt lat="40.9808233" lon="-2.25E-4"><ele>536.0</ele><time>2026-03-31T11:12:29.157Z</time></trkpt><trkpt lat="40.98083" lon="-4.483E-4"><ele>536.0</ele><time>2026-03-31T11:12:30.156Z</time></trkpt><trkpt lat="40.9808183" lon="-6.733E-4"><ele>536.6666666666666</ele><time>2026-03-31T11:12:31.157Z</time></trkpt><trkpt lat="40.9807983" lon="-8.933E-4"><ele>537.3333333333334</ele><time>2026-03-31T11:12:32.156Z</time></trkpt><trkpt lat="40.9807667" lon="-0.001105"><ele>538.0</ele><time>2026-03-31T11:12:33.157Z</time></trkpt><trkpt lat="40.98073" lon="-0.00132"><ele>538.0</ele><time>2026-03-31T11:12:34.156Z</time></trkpt><trkpt lat="40.9806867" lon="-0.00155"><ele>538.0</ele><time>2026-03-31T11:12:35.157Z</time></trkpt><trkpt lat="40.9806467" lon="-0.0017633"><ele>538.0</ele><time>2026-03-31T11:12:36.157Z</time></trkpt><trkpt lat="40.980605" lon="-0.001975"><ele>538.6666666666667</ele><time>2026-03-31T11:12:37.156Z</time></trkpt><trkpt lat="40.9805667" lon="-0.0021933"><ele>539.3333333333334</ele><time>2026-03-31T11:12:38.157Z</time></trkpt><trkpt lat="40.98053" lon="-0.0024117"><ele>540.0</ele><time>2026-03-31T11:12:39.157Z</time></trkpt><trkpt lat="40.9805117" lon="-0.0026367"><ele>542.0</ele><time>2026-03-31T11:12:40.157Z</time></trkpt><trkpt lat="40.9804967" lon="-0.00286"><ele>544.0</ele><time>2026-03-31T11:12:41.157Z</time></trkpt><trkpt lat="40.980495" lon="-0.0030767"><ele>546.0</ele><time>2026-03-31T11:12:42.156Z</time></trkpt><trkpt lat="40.9805133" lon="-0.003295"><ele>547.0</ele><time>2026-03-31T11:12:43.157Z</time></trkpt><trkpt lat="40.9805433" lon="-0.003505"><ele>548.0</ele><time>2026-03-31T11:12:44.156Z</time></trkpt><trkpt lat="40.9805817" lon="-0.0037067"><ele>549.0</ele><time>2026-03-31T11:12:45.157Z</time></trkpt><trkpt lat="40.98062" lon="-0.0039067"><ele>549.0</ele><time>2026-03-31T11:12:46.156Z</time></trkpt><trkpt lat="40.9806667" lon="-0.004105"><ele>549.0</ele><time>2026-03-31T11:12:47.157Z</time></trkpt><trkpt lat="40.98071" lon="-0.0042967"><ele>549.0</ele><time>2026-03-31T11:12:48.157Z</time></trkpt><trkpt lat="40.98076" lon="-0.00449"><ele>549.0</ele><time>2026-03-31T11:12:49.156Z</time></trkpt><trkpt lat="40.9808117" lon="-0.0046867"><ele>549.0</ele><time>2026-03-31T11:12:50.156Z</time></trkpt><trkpt lat="40.9808583" lon="-0.0048917"><ele>549.0</ele><time>2026-03-31T11:12:51.157Z</time></trkpt><trkpt lat="40.9809083" lon="-0.0050933"><ele>550.6666666666666</ele><time>2026-03-31T11:12:52.156Z</time></trkpt><trkpt lat="40.9809583" lon="-0.0052983"><ele>552.3333333333333</ele><time>2026-03-31T11:12:53.157Z</time></trkpt><trkpt lat="40.981" lon="-0.005495"><ele>554.0</ele><time>2026-03-31T11:12:54.157Z</time></trkpt><trkpt lat="40.98105" lon="-0.0057017"><ele>554.3333333333333</ele><time>2026-03-31T11:12:55.156Z</time></trkpt><trkpt lat="40.9810967" lon="-0.0059133"><ele>554.6666666666666</ele><time>2026-03-31T11:12:56.156Z</time></trkpt><trkpt lat="40.981145" lon="-0.0061333"><ele>555.0</ele><time>2026-03-31T11:12:57.156Z</time></trkpt><trkpt lat="40.9812017" lon="-0.006345"><ele>555.0</ele><time>2026-03-31T11:12:58.157Z</time></trkpt><trkpt lat="40.981255" lon="-0.0065667"><ele>555.0</ele><time>2026-03-31T11:12:59.156Z</time></trkpt><trkpt lat="40.9813117" lon="-0.0067917"><ele>555.0</ele><time>2026-03-31T11:13:00.156Z</time></trkpt><trkpt lat="40.9813617" lon="-0.00701"><ele>555.0</ele><time>2026-03-31T11:13:01.157Z</time></trkpt><trkpt lat="40.9814117" lon="-0.00723"><ele>555.0</ele><time>2026-03-31T11:13:02.157Z</time></trkpt><trkpt lat="40.9814683" lon="-0.00745"><ele>555.0</ele><time>2026-03-31T11:13:03.156Z</time></trkpt><trkpt lat="40.9815217" lon="-0.0076633"><ele>556.0</ele><time>2026-03-31T11:13:04.157Z</time></trkpt><trkpt lat="40.981565" lon="-0.007865"><ele>557.0</ele><time>2026-03-31T11:13:05.156Z</time></trkpt><trkpt lat="40.9816083" lon="-0.0080633"><ele>558.0</ele><time>2026-03-31T11:13:06.156Z</time></trkpt><trkpt lat="40.9816483" lon="-0.0082717"><ele>556.6666666666666</ele><time>2026-03-31T11:13:07.156Z</time></trkpt><trkpt lat="40.981685" lon="-0.0084817"><ele>555.3333333333333</ele><time>2026-03-31T11:13:08.156Z</time></trkpt><trkpt lat="40.981715" lon="-0.0086983"><ele>554.0</ele><time>2026-03-31T11:13:09.157Z</time></trkpt><trkpt lat="40.9817433" lon="-0.0089183"><ele>554.0</ele><time>2026-03-31T11:13:10.157Z</time></trkpt><trkpt lat="40.981765" lon="-0.009145"><ele>554.0</ele><time>2026-03-31T11:13:11.156Z</time></trkpt><trkpt lat="40.981785" lon="-0.009365"><ele>554.0</ele><time>2026-03-31T11:13:12.157Z</time></trkpt><trkpt lat="40.9818" lon="-0.00959"><ele>555.3333333333333</ele><time>2026-03-31T11:13:13.156Z</time></trkpt><trkpt lat="40.9818117" lon="-0.0098183"><ele>556.6666666666666</ele><time>2026-03-31T11:13:14.157Z</time></trkpt><trkpt lat="40.9818117" lon="-0.0100533"><ele>558.0</ele><time>2026-03-31T11:13:15.157Z</time></trkpt><trkpt lat="40.9818083" lon="-0.0102867"><ele>558.6666666666666</ele><time>2026-03-31T11:13:16.156Z</time></trkpt><trkpt lat="40.9817983" lon="-0.0105167"><ele>559.3333333333333</ele><time>2026-03-31T11:13:17.156Z</time></trkpt><trkpt lat="40.9817917" lon="-0.0107533"><ele>560.0</ele><time>2026-03-31T11:13:18.156Z</time></trkpt><trkpt lat="40.9817867" lon="-0.0109867"><ele>560.6666666666666</ele><time>2026-03-31T11:13:19.157Z</time></trkpt><trkpt lat="40.981785" lon="-0.0112267"><ele>561.3333333333334</ele><time>2026-03-31T11:13:20.156Z</time></trkpt><trkpt lat="40.981775" lon="-0.0114567"><ele>562.0</ele><time>2026-03-31T11:13:21.157Z</time></trkpt><trkpt lat="40.981765" lon="-0.011685"><ele>563.3333333333334</ele><time>2026-03-31T11:13:22.157Z</time></trkpt><trkpt lat="40.981745" lon="-0.0118983"><ele>564.6666666666666</ele><time>2026-03-31T11:13:23.156Z</time></trkpt><trkpt lat="40.9817183" lon="-0.0121117"><ele>566.0</ele><time>2026-03-31T11:13:24.156Z</time></trkpt><trkpt lat="40.9816783" lon="-0.0123267"><ele>567.0</ele><time>2026-03-31T11:13:25.157Z</time></trkpt><trkpt lat="40.9816367" lon="-0.012545"><ele>568.0</ele><time>2026-03-31T11:13:26.156Z</time></trkpt><trkpt lat="40.9815783" lon="-0.0127633"><ele>569.0</ele><time>2026-03-31T11:13:27.157Z</time></trkpt><trkpt lat="40.9814933" lon="-0.0129733"><ele>569.0</ele><time>2026-03-31T11:13:28.157Z</time></trkpt><trkpt lat="40.9813933" lon="-0.0132017"><ele>569.0</ele><time>2026-03-31T11:13:29.157Z</time></trkpt><trkpt lat="40.9812783" lon="-0.013435"><ele>569.0</ele><time>2026-03-31T11:13:30.156Z</time></trkpt><trkpt lat="40.981145" lon="-0.0136667"><ele>569.3333333333333</ele><time>2026-03-31T11:13:31.157Z</time></trkpt><trkpt lat="40.9810017" lon="-0.0138833"><ele>569.6666666666666</ele><time>2026-03-31T11:13:32.156Z</time></trkpt><trkpt lat="40.9808583" lon="-0.0141117"><ele>570.0</ele><time>2026-03-31T11:13:33.157Z</time></trkpt><trkpt lat="40.9807017" lon="-0.014335"><ele>570.5</ele><time>2026-03-31T11:13:34.157Z</time></trkpt><trkpt lat="40.98055" lon="-0.014565"><ele>571.0</ele><time>2026-03-31T11:13:35.156Z</time></trkpt><trkpt lat="40.980395" lon="-0.014795"><ele>573.5</ele><time>2026-03-31T11:13:36.157Z</time></trkpt><trkpt lat="40.9802433" lon="-0.0150367"><ele>576.0</ele><time>2026-03-31T11:13:37.157Z</time></trkpt><trkpt lat="40.9800933" lon="-0.0152917"><ele>575.5</ele><time>2026-03-31T11:13:38.157Z</time></trkpt><trkpt lat="40.9799367" lon="-0.015545"><ele>575.0</ele><time>2026-03-31T11:13:39.157Z</time></trkpt><trkpt lat="40.97979" lon="-0.0158183"><ele>576.5</ele><time>2026-03-31T11:13:40.157Z</time></trkpt><trkpt lat="40.97964" lon="-0.016085"><ele>578.0</ele><time>2026-03-31T11:13:41.156Z</time></trkpt><trkpt lat="40.979485" lon="-0.0163433"><ele>578.0</ele><time>2026-03-31T11:13:42.156Z</time></trkpt><trkpt lat="40.9793333" lon="-0.01659"><ele>578.0</ele><time>2026-03-31T11:13:43.156Z</time></trkpt><trkpt lat="40.9791917" lon="-0.01684"><ele>578.5</ele><time>2026-03-31T11:13:44.157Z</time></trkpt><trkpt lat="40.9790483" lon="-0.0170967"><ele>579.0</ele><time>2026-03-31T11:13:45.156Z</time></trkpt><trkpt lat="40.9789017" lon="-0.0173483"><ele>582.5</ele><time>2026-03-31T11:13:46.157Z</time></trkpt><trkpt lat="40.9787417" lon="-0.0176067"><ele>586.0</ele><time>2026-03-31T11:13:47.157Z</time></trkpt><trkpt lat="40.9785817" lon="-0.0178417"><ele>586.0</ele><time>2026-03-31T11:13:48.156Z</time></trkpt><trkpt lat="40.9784033" lon="-0.018055"><ele>586.0</ele><time>2026-03-31T11:13:49.156Z</time></trkpt><trkpt lat="40.9782133" lon="-0.018245"><ele>585.0</ele><time>2026-03-31T11:13:50.157Z</time></trkpt><trkpt lat="40.9780017" lon="-0.0184033"><ele>584.0</ele><time>2026-03-31T11:13:51.156Z</time></trkpt><trkpt lat="40.9777767" lon="-0.0185183"><ele>584.0</ele><time>2026-03-31T11:13:52.157Z</time></trkpt><trkpt lat="40.9775417" lon="-0.018595"><ele>584.0</ele><time>2026-03-31T11:13:53.156Z</time></trkpt><trkpt lat="40.9773" lon="-0.0186267"><ele>585.5</ele><time>2026-03-31T11:13:54.156Z</time></trkpt><trkpt lat="40.9770533" lon="-0.018605"><ele>587.0</ele><time>2026-03-31T11:13:55.157Z</time></trkpt><trkpt lat="40.9768033" lon="-0.0185833"><ele>589.0</ele><time>2026-03-31T11:13:56.156Z</time></trkpt><trkpt lat="40.9765483" lon="-0.0185683"><ele>591.0</ele><time>2026-03-31T11:13:57.156Z</time></trkpt><trkpt lat="40.9762967" lon="-0.0185683"><ele>591.0</ele><time>2026-03-31T11:13:58.157Z</time></trkpt><trkpt lat="40.97606" lon="-0.0186"><ele>591.0</ele><time>2026-03-31T11:13:59.156Z</time></trkpt><trkpt lat="40.9758167" lon="-0.0186833"><ele>593.0</ele><time>2026-03-31T11:14:00.156Z</time></trkpt><trkpt lat="40.9755717" lon="-0.018805"><ele>595.0</ele><time>2026-03-31T11:14:01.157Z</time></trkpt><trkpt lat="40.975345" lon="-0.01897"><ele>596.0</ele><time>2026-03-31T11:14:02.157Z</time></trkpt><trkpt lat="40.9751417" lon="-0.0191783"><ele>597.0</ele><time>2026-03-31T11:14:03.157Z</time></trkpt><trkpt lat="40.974965" lon="-0.019405"><ele>597.0</ele><time>2026-03-31T11:14:04.157Z</time></trkpt><trkpt lat="40.9748133" lon="-0.0196567"><ele>597.0</ele><time>2026-03-31T11:14:05.156Z</time></trkpt><trkpt lat="40.974685" lon="-0.0199283"><ele>599.0</ele><time>2026-03-31T11:14:06.156Z</time></trkpt><trkpt lat="40.9745867" lon="-0.02021"><ele>601.0</ele><time>2026-03-31T11:14:07.156Z</time></trkpt><trkpt lat="40.9745033" lon="-0.0204883"><ele>601.0</ele><time>2026-03-31T11:14:08.157Z</time></trkpt><trkpt lat="40.97443" lon="-0.0207583"><ele>601.0</ele><time>2026-03-31T11:14:09.157Z</time></trkpt><trkpt lat="40.974345" lon="-0.021015"><ele>601.0</ele><time>2026-03-31T11:14:10.156Z</time></trkpt><trkpt lat="40.97425" lon="-0.0212617"><ele>600.3333333333334</ele><time>2026-03-31T11:14:11.156Z</time></trkpt><trkpt lat="40.9741333" lon="-0.021485"><ele>599.6666666666666</ele><time>2026-03-31T11:14:12.157Z</time></trkpt><trkpt lat="40.974025" lon="-0.0216967"><ele>599.0</ele><time>2026-03-31T11:14:13.156Z</time></trkpt><trkpt lat="40.9739167" lon="-0.0218817"><ele>601.0</ele><time>2026-03-31T11:14:14.156Z</time></trkpt><trkpt lat="40.9737917" lon="-0.02204"><ele>603.0</ele><time>2026-03-31T11:14:15.156Z</time></trkpt><trkpt lat="40.97366" lon="-0.0221683"><ele>605.0</ele><time>2026-03-31T11:14:16.157Z</time></trkpt><trkpt lat="40.9735467" lon="-0.0222767"><ele>605.0</ele><time>2026-03-31T11:14:17.157Z</time></trkpt><trkpt lat="40.97345" lon="-0.0223617"><ele>605.0</ele><time>2026-03-31T11:14:18.157Z</time></trkpt><trkpt lat="40.9733817" lon="-0.0224233"><ele>605.0</ele><time>2026-03-31T11:14:19.156Z</time></trkpt><trkpt lat="40.9732967" lon="-0.0224883"><ele>605.0</ele><time>2026-03-31T11:14:21.156Z</time></trkpt><trkpt lat="40.9732267" lon="-0.022545"><ele>605.0</ele><time>2026-03-31T11:14:24.156Z</time></trkpt><trkpt lat="40.973105" lon="-0.02254"><ele>605.4</ele><time>2026-03-31T11:14:26.157Z</time></trkpt><trkpt lat="40.9730233" lon="-0.022505"><ele>605.8</ele><time>2026-03-31T11:14:27.156Z</time></trkpt><trkpt lat="40.9729317" lon="-0.022435"><ele>606.2</ele><time>2026-03-31T11:14:28.156Z</time></trkpt><trkpt lat="40.972835" lon="-0.0223583"><ele>606.6</ele><time>2026-03-31T11:14:29.156Z</time></trkpt><trkpt lat="40.9727333" lon="-0.0222867"><ele>607.0</ele><time>2026-03-31T11:14:30.157Z</time></trkpt><trkpt lat="40.9726217" lon="-0.022205"><ele>608.6</ele><time>2026-03-31T11:14:31.157Z</time></trkpt><trkpt lat="40.97252" lon="-0.0221283"><ele>610.2</ele><time>2026-03-31T11:14:32.157Z</time></trkpt><trkpt lat="40.9724217" lon="-0.0220583"><ele>611.8</ele><time>2026-03-31T11:14:33.157Z</time></trkpt><trkpt lat="40.9723367" lon="-0.0219983"><ele>613.4</ele><time>2026-03-31T11:14:34.157Z</time></trkpt><trkpt lat="40.9722717" lon="-0.02194"><ele>615.0</ele><time>2026-03-31T11:14:35.157Z</time></trkpt><trkpt lat="40.9721883" lon="-0.02189"><ele>615.0</ele><time>2026-03-31T11:14:37.156Z</time></trkpt><trkpt lat="40.9721033" lon="-0.0218217"><ele>615.0</ele><time>2026-03-31T11:14:40.157Z</time></trkpt><trkpt lat="40.9720433" lon="-0.0217617"><ele>615.0</ele><time>2026-03-31T11:14:41.157Z</time></trkpt><trkpt lat="40.97199" lon="-0.02168"><ele>615.0</ele><time>2026-03-31T11:14:42.157Z</time></trkpt><trkpt lat="40.9719417" lon="-0.02158"><ele>615.0</ele><time>2026-03-31T11:14:43.156Z</time></trkpt><trkpt lat="40.971875" lon="-0.02145"><ele>614.3333333333334</ele><time>2026-03-31T11:14:44.156Z</time></trkpt><trkpt lat="40.971785" lon="-0.0212983"><ele>613.6666666666667</ele><time>2026-03-31T11:14:45.157Z</time></trkpt><trkpt lat="40.9716933" lon="-0.0211433"><ele>613.0</ele><time>2026-03-31T11:14:46.156Z</time></trkpt><trkpt lat="40.97159" lon="-0.0209867"><ele>612.3333333333334</ele><time>2026-03-31T11:14:47.157Z</time></trkpt><trkpt lat="40.9714683" lon="-0.0208217"><ele>611.6666666666666</ele><time>2026-03-31T11:14:48.157Z</time></trkpt><trkpt lat="40.9713467" lon="-0.0206517"><ele>611.0</ele><time>2026-03-31T11:14:49.156Z</time></trkpt><trkpt lat="40.9712183" lon="-0.0204767"><ele>609.6666666666666</ele><time>2026-03-31T11:14:50.156Z</time></trkpt><trkpt lat="40.9710817" lon="-0.0202883"><ele>608.3333333333334</ele><time>2026-03-31T11:14:51.157Z</time></trkpt><trkpt lat="40.9709383" lon="-0.02009"><ele>607.0</ele><time>2026-03-31T11:14:52.156Z</time></trkpt><trkpt lat="40.97079" lon="-0.0198983"><ele>607.0</ele><time>2026-03-31T11:14:53.157Z</time></trkpt><trkpt lat="40.9706383" lon="-0.01969"><ele>607.0</ele><time>2026-03-31T11:14:54.157Z</time></trkpt><trkpt lat="40.9704833" lon="-0.0194833"><ele>607.0</ele><time>2026-03-31T11:14:55.157Z</time></trkpt><trkpt lat="40.970335" lon="-0.0192817"><ele>605.3333333333334</ele><time>2026-03-31T11:14:56.156Z</time></trkpt><trkpt lat="40.97018" lon="-0.0190733"><ele>603.6666666666666</ele><time>2026-03-31T11:14:57.156Z</time></trkpt><trkpt lat="40.9700183" lon="-0.01886"><ele>602.0</ele><time>2026-03-31T11:14:58.156Z</time></trkpt><trkpt lat="40.9698567" lon="-0.0186467"><ele>605.0</ele><time>2026-03-31T11:14:59.156Z</time></trkpt><trkpt lat="40.96969" lon="-0.018425"><ele>608.0</ele><time>2026-03-31T11:15:00.153Z</time></trkpt><trkpt lat="40.9695283" lon="-0.0182017"><ele>608.0</ele><time>2026-03-31T11:15:01.157Z</time></trkpt><trkpt lat="40.96936" lon="-0.0179733"><ele>608.0</ele><time>2026-03-31T11:15:02.157Z</time></trkpt><trkpt lat="40.9691967" lon="-0.0177533"><ele>612.0</ele><time>2026-03-31T11:15:03.157Z</time></trkpt><trkpt lat="40.9690317" lon="-0.0175267"><ele>616.0</ele><time>2026-03-31T11:15:04.157Z</time></trkpt><trkpt lat="40.9688567" lon="-0.0173"><ele>617.0</ele><time>2026-03-31T11:15:05.156Z</time></trkpt><trkpt lat="40.968685" lon="-0.0170617"><ele>618.0</ele><time>2026-03-31T11:15:06.156Z</time></trkpt><trkpt lat="40.9685117" lon="-0.016835"><ele>621.0</ele><time>2026-03-31T11:15:07.157Z</time></trkpt><trkpt lat="40.968335" lon="-0.016615"><ele>624.0</ele><time>2026-03-31T11:15:08.156Z</time></trkpt><trkpt lat="40.96814" lon="-0.0164017"><ele>624.0</ele><time>2026-03-31T11:15:09.156Z</time></trkpt><trkpt lat="40.967945" lon="-0.0162033"><ele>624.0</ele><time>2026-03-31T11:15:10.156Z</time></trkpt><trkpt lat="40.9677367" lon="-0.01602"><ele>625.0</ele><time>2026-03-31T11:15:11.156Z</time></trkpt><trkpt lat="40.967515" lon="-0.0158517"><ele>626.0</ele><time>2026-03-31T11:15:12.156Z</time></trkpt><trkpt lat="40.9672867" lon="-0.015705"><ele>626.0</ele><time>2026-03-31T11:15:13.156Z</time></trkpt><trkpt lat="40.967055" lon="-0.0155767"><ele>626.0</ele><time>2026-03-31T11:15:14.157Z</time></trkpt><trkpt lat="40.96682" lon="-0.0154567"><ele>627.0</ele><time>2026-03-31T11:15:15.157Z</time></trkpt><trkpt lat="40.9665733" lon="-0.01536"><ele>628.0</ele><time>2026-03-31T11:15:16.156Z</time></trkpt><trkpt lat="40.96632" lon="-0.0152767"><ele>628.0</ele><time>2026-03-31T11:15:17.156Z</time></trkpt><trkpt lat="40.966065" lon="-0.0152167"><ele>628.0</ele><time>2026-03-31T11:15:18.157Z</time></trkpt><trkpt lat="40.9658117" lon="-0.01517"><ele>629.0</ele><time>2026-03-31T11:15:19.156Z</time></trkpt><trkpt lat="40.96555" lon="-0.01513"><ele>630.0</ele><time>2026-03-31T11:15:20.156Z</time></trkpt><trkpt lat="40.9652883" lon="-0.015105"><ele>629.0</ele><time>2026-03-31T11:15:21.157Z</time></trkpt><trkpt lat="40.9650267" lon="-0.0150917"><ele>628.0</ele><time>2026-03-31T11:15:22.156Z</time></trkpt><trkpt lat="40.964765" lon="-0.0150867"><ele>628.0</ele><time>2026-03-31T11:15:23.157Z</time></trkpt><trkpt lat="40.964495" lon="-0.0150767"><ele>628.0</ele><time>2026-03-31T11:15:24.157Z</time></trkpt><trkpt lat="40.9642267" lon="-0.0150783"><ele>626.5</ele><time>2026-03-31T11:15:25.156Z</time></trkpt><trkpt lat="40.96397" lon="-0.0150883"><ele>625.0</ele><time>2026-03-31T11:15:26.157Z</time></trkpt><trkpt lat="40.963715" lon="-0.0151217"><ele>625.0</ele><time>2026-03-31T11:15:27.157Z</time></trkpt><trkpt lat="40.9634617" lon="-0.015175"><ele>625.0</ele><time>2026-03-31T11:15:28.156Z</time></trkpt><trkpt lat="40.9632167" lon="-0.01525"><ele>623.0</ele><time>2026-03-31T11:15:29.156Z</time></trkpt><trkpt lat="40.9629683" lon="-0.01533"><ele>621.0</ele><time>2026-03-31T11:15:30.157Z</time></trkpt><trkpt lat="40.9627233" lon="-0.01542"><ele>620.0</ele><time>2026-03-31T11:15:31.156Z</time></trkpt><trkpt lat="40.9624917" lon="-0.01553"><ele>619.0</ele><time>2026-03-31T11:15:32.157Z</time></trkpt><trkpt lat="40.9622517" lon="-0.01563"><ele>619.0</ele><time>2026-03-31T11:15:33.156Z</time></trkpt><trkpt lat="40.9620067" lon="-0.01573"><ele>619.0</ele><time>2026-03-31T11:15:34.157Z</time></trkpt><trkpt lat="40.96176" lon="-0.015815"><ele>622.0</ele><time>2026-03-31T11:15:35.157Z</time></trkpt><trkpt lat="40.9615167" lon="-0.0159"><ele>625.0</ele><time>2026-03-31T11:15:36.156Z</time></trkpt><trkpt lat="40.96128" lon="-0.0159583"><ele>625.0</ele><time>2026-03-31T11:15:37.156Z</time></trkpt><trkpt lat="40.9610367" lon="-0.0159917"><ele>625.0</ele><time>2026-03-31T11:15:38.157Z</time></trkpt><trkpt lat="40.9607883" lon="-0.0160133"><ele>624.5</ele><time>2026-03-31T11:15:39.157Z</time></trkpt><trkpt lat="40.9605417" lon="-0.0160267"><ele>624.0</ele><time>2026-03-31T11:15:40.157Z</time></trkpt><trkpt lat="40.960285" lon="-0.0160167"><ele>626.0</ele><time>2026-03-31T11:15:41.156Z</time></trkpt><trkpt lat="40.96003" lon="-0.01599"><ele>628.0</ele><time>2026-03-31T11:15:42.156Z</time></trkpt><trkpt lat="40.9597733" lon="-0.0159533"><ele>628.0</ele><time>2026-03-31T11:15:43.156Z</time></trkpt><trkpt lat="40.9595" lon="-0.0159"><ele>628.0</ele><time>2026-03-31T11:15:44.157Z</time></trkpt><trkpt lat="40.9592367" lon="-0.0158533"><ele>631.5</ele><time>2026-03-31T11:15:45.157Z</time></trkpt><trkpt lat="40.9589717" lon="-0.015815"><ele>635.0</ele><time>2026-03-31T11:15:46.157Z</time></trkpt><trkpt lat="40.9587017" lon="-0.0157733"><ele>635.0</ele><time>2026-03-31T11:15:47.157Z</time></trkpt><trkpt lat="40.9584283" lon="-0.0157283"><ele>635.0</ele><time>2026-03-31T11:15:48.156Z</time></trkpt><trkpt lat="40.9581533" lon="-0.0156783"><ele>636.0</ele><time>2026-03-31T11:15:49.156Z</time></trkpt><trkpt lat="40.9578817" lon="-0.015635"><ele>637.0</ele><time>2026-03-31T11:15:50.156Z</time></trkpt><trkpt lat="40.9576067" lon="-0.0155883"><ele>635.5</ele><time>2026-03-31T11:15:51.156Z</time></trkpt><trkpt lat="40.95733" lon="-0.0155467"><ele>634.0</ele><time>2026-03-31T11:15:52.156Z</time></trkpt><trkpt lat="40.9570583" lon="-0.0154967"><ele>634.0</ele><time>2026-03-31T11:15:53.156Z</time></trkpt><trkpt lat="40.9567867" lon="-0.01546"><ele>634.0</ele><time>2026-03-31T11:15:54.156Z</time></trkpt><trkpt lat="40.9565117" lon="-0.0154167"><ele>633.5</ele><time>2026-03-31T11:15:55.156Z</time></trkpt><trkpt lat="40.9562383" lon="-0.0153683"><ele>633.0</ele><time>2026-03-31T11:15:56.156Z</time></trkpt><trkpt lat="40.9559667" lon="-0.015315"><ele>633.5</ele><time>2026-03-31T11:15:57.156Z</time></trkpt><trkpt lat="40.9557017" lon="-0.0152633"><ele>634.0</ele><time>2026-03-31T11:15:58.156Z</time></trkpt><trkpt lat="40.955435" lon="-0.015215"><ele>634.0</ele><time>2026-03-31T11:15:59.156Z</time></trkpt><trkpt lat="40.95517" lon="-0.01516"><ele>634.0</ele><time>2026-03-31T11:16:00.157Z</time></trkpt><trkpt lat="40.9549117" lon="-0.0150983"><ele>634.5</ele><time>2026-03-31T11:16:01.157Z</time></trkpt><trkpt lat="40.9546667" lon="-0.01502"><ele>635.0</ele><time>2026-03-31T11:16:02.156Z</time></trkpt><trkpt lat="40.9544183" lon="-0.01492"><ele>634.0</ele><time>2026-03-31T11:16:03.157Z</time></trkpt><trkpt lat="40.9541767" lon="-0.014795"><ele>633.0</ele><time>2026-03-31T11:16:04.156Z</time></trkpt><trkpt lat="40.9539283" lon="-0.0146583"><ele>633.0</ele><time>2026-03-31T11:16:05.157Z</time></trkpt><trkpt lat="40.95368" lon="-0.0144983"><ele>633.0</ele><time>2026-03-31T11:16:06.156Z</time></trkpt><trkpt lat="40.9534517" lon="-0.0143183"><ele>632.5</ele><time>2026-03-31T11:16:07.156Z</time></trkpt><trkpt lat="40.9532333" lon="-0.014115"><ele>632.0</ele><time>2026-03-31T11:16:08.157Z</time></trkpt><trkpt lat="40.9530167" lon="-0.01389"><ele>632.0</ele><time>2026-03-31T11:16:09.156Z</time></trkpt><trkpt lat="40.952805" lon="-0.013655"><ele>632.0</ele><time>2026-03-31T11:16:10.156Z</time></trkpt><trkpt lat="40.9526067" lon="-0.01342"><ele>632.5</ele><time>2026-03-31T11:16:11.156Z</time></trkpt><trkpt lat="40.9524117" lon="-0.01316"><ele>633.0</ele><time>2026-03-31T11:16:12.156Z</time></trkpt><trkpt lat="40.95222" lon="-0.0128983"><ele>633.0</ele><time>2026-03-31T11:16:13.157Z</time></trkpt><trkpt lat="40.9520383" lon="-0.0126283"><ele>633.0</ele><time>2026-03-31T11:16:14.157Z</time></trkpt><trkpt lat="40.9518633" lon="-0.012355"><ele>633.5</ele><time>2026-03-31T11:16:15.156Z</time></trkpt><trkpt lat="40.9516767" lon="-0.0120933"><ele>634.0</ele><time>2026-03-31T11:16:16.156Z</time></trkpt><trkpt lat="40.95148" lon="-0.0118433"><ele>634.5</ele><time>2026-03-31T11:16:17.156Z</time></trkpt><trkpt lat="40.951275" lon="-0.0116067"><ele>635.0</ele><time>2026-03-31T11:16:18.156Z</time></trkpt><trkpt lat="40.9510533" lon="-0.0113817"><ele>636.0</ele><time>2026-03-31T11:16:19.156Z</time></trkpt><trkpt lat="40.9508117" lon="-0.011185"><ele>637.0</ele><time>2026-03-31T11:16:20.156Z</time></trkpt><trkpt lat="40.950575" lon="-0.0110133"><ele>637.0</ele><time>2026-03-31T11:16:21.156Z</time></trkpt><trkpt lat="40.9503283" lon="-0.0108633"><ele>637.0</ele><time>2026-03-31T11:16:22.156Z</time></trkpt><trkpt lat="40.9500717" lon="-0.0107217"><ele>636.0</ele><time>2026-03-31T11:16:23.156Z</time></trkpt><trkpt lat="40.9498183" lon="-0.0106083"><ele>635.0</ele><time>2026-03-31T11:16:24.157Z</time></trkpt><trkpt lat="40.9495583" lon="-0.0105133"><ele>635.0</ele><time>2026-03-31T11:16:25.157Z</time></trkpt><trkpt lat="40.9492933" lon="-0.0104367"><ele>635.0</ele><time>2026-03-31T11:16:26.156Z</time></trkpt><trkpt lat="40.9490267" lon="-0.0103833"><ele>636.5</ele><time>2026-03-31T11:16:27.156Z</time></trkpt><trkpt lat="40.9487483" lon="-0.010345"><ele>638.0</ele><time>2026-03-31T11:16:28.156Z</time></trkpt><trkpt lat="40.9484783" lon="-0.0103317"><ele>640.0</ele><time>2026-03-31T11:16:29.156Z</time></trkpt><trkpt lat="40.94821" lon="-0.0103383"><ele>642.0</ele><time>2026-03-31T11:16:30.156Z</time></trkpt><trkpt lat="40.9479517" lon="-0.0103733"><ele>642.0</ele><time>2026-03-31T11:16:31.156Z</time></trkpt><trkpt lat="40.9476933" lon="-0.010435"><ele>642.0</ele><time>2026-03-31T11:16:32.157Z</time></trkpt><trkpt lat="40.94743" lon="-0.01051"><ele>642.5</ele><time>2026-03-31T11:16:33.157Z</time></trkpt><trkpt lat="40.947165" lon="-0.0105917"><ele>643.0</ele><time>2026-03-31T11:16:34.157Z</time></trkpt><trkpt lat="40.946905" lon="-0.010685"><ele>642.5</ele><time>2026-03-31T11:16:35.156Z</time></trkpt><trkpt lat="40.9466517" lon="-0.0107817"><ele>642.0</ele><time>2026-03-31T11:16:36.156Z</time></trkpt><trkpt lat="40.9464017" lon="-0.0108783"><ele>642.0</ele><time>2026-03-31T11:16:37.157Z</time></trkpt><trkpt lat="40.9461517" lon="-0.010965"><ele>642.0</ele><time>2026-03-31T11:16:38.157Z</time></trkpt><trkpt lat="40.945905" lon="-0.0110483"><ele>644.0</ele><time>2026-03-31T11:16:39.156Z</time></trkpt><trkpt lat="40.9456567" lon="-0.0111317"><ele>646.0</ele><time>2026-03-31T11:16:40.156Z</time></trkpt><trkpt lat="40.9454083" lon="-0.0112217"><ele>646.0</ele><time>2026-03-31T11:16:41.156Z</time></trkpt><trkpt lat="40.94516" lon="-0.0113133"><ele>646.0</ele><time>2026-03-31T11:16:42.156Z</time></trkpt><trkpt lat="40.94491" lon="-0.0114017"><ele>648.5</ele><time>2026-03-31T11:16:43.157Z</time></trkpt><trkpt lat="40.944665" lon="-0.01149"><ele>651.0</ele><time>2026-03-31T11:16:44.156Z</time></trkpt><trkpt lat="40.9444233" lon="-0.0115767"><ele>653.5</ele><time>2026-03-31T11:16:45.157Z</time></trkpt><trkpt lat="40.9441783" lon="-0.011675"><ele>656.0</ele><time>2026-03-31T11:16:46.156Z</time></trkpt><trkpt lat="40.9439233" lon="-0.011765"><ele>656.0</ele><time>2026-03-31T11:16:47.157Z</time></trkpt><trkpt lat="40.94367" lon="-0.0118533"><ele>656.0</ele><time>2026-03-31T11:16:48.157Z</time></trkpt><trkpt lat="40.9434167" lon="-0.011925"><ele>658.5</ele><time>2026-03-31T11:16:49.156Z</time></trkpt><trkpt lat="40.9431583" lon="-0.0119917"><ele>661.0</ele><time>2026-03-31T11:16:50.157Z</time></trkpt><trkpt lat="40.9428983" lon="-0.01205"><ele>661.0</ele><time>2026-03-31T11:16:51.156Z</time></trkpt><trkpt lat="40.9426333" lon="-0.0120917"><ele>661.0</ele><time>2026-03-31T11:16:52.156Z</time></trkpt><trkpt lat="40.9423633" lon="-0.012105"><ele>661.0</ele><time>2026-03-31T11:16:53.157Z</time></trkpt><trkpt lat="40.9420983" lon="-0.0121017"><ele>661.0</ele><time>2026-03-31T11:16:54.156Z</time></trkpt><trkpt lat="40.9418317" lon="-0.0120817"><ele>662.0</ele><time>2026-03-31T11:16:55.157Z</time></trkpt><trkpt lat="40.941565" lon="-0.012035"><ele>663.0</ele><time>2026-03-31T11:16:56.157Z</time></trkpt><trkpt lat="40.9412983" lon="-0.01196"><ele>663.0</ele><time>2026-03-31T11:16:57.156Z</time></trkpt><trkpt lat="40.9410417" lon="-0.0118667"><ele>663.0</ele><time>2026-03-31T11:16:58.156Z</time></trkpt><trkpt lat="40.9407883" lon="-0.0117717"><ele>663.5</ele><time>2026-03-31T11:16:59.157Z</time></trkpt><trkpt lat="40.9405283" lon="-0.0116683"><ele>664.0</ele><time>2026-03-31T11:17:00.157Z</time></trkpt><trkpt lat="40.9402617" lon="-0.0115617"><ele>663.5</ele><time>2026-03-31T11:17:01.156Z</time></trkpt><trkpt lat="40.9400033" lon="-0.0114633"><ele>663.0</ele><time>2026-03-31T11:17:02.156Z</time></trkpt><trkpt lat="40.9397267" lon="-0.01137"><ele>663.0</ele><time>2026-03-31T11:17:03.157Z</time></trkpt><trkpt lat="40.939455" lon="-0.0112917"><ele>663.0</ele><time>2026-03-31T11:17:04.156Z</time></trkpt><trkpt lat="40.9391817" lon="-0.0112417"><ele>664.0</ele><time>2026-03-31T11:17:05.157Z</time></trkpt><trkpt lat="40.938905" lon="-0.01121"><ele>665.0</ele><time>2026-03-31T11:17:06.157Z</time></trkpt><trkpt lat="40.938625" lon="-0.0112017"><ele>664.5</ele><time>2026-03-31T11:17:07.156Z</time></trkpt><trkpt lat="40.9383467" lon="-0.0112117"><ele>664.0</ele><time>2026-03-31T11:17:08.157Z</time></trkpt><trkpt lat="40.9380683" lon="-0.0112383"><ele>664.0</ele><time>2026-03-31T11:17:09.157Z</time></trkpt><trkpt lat="40.9377983" lon="-0.0112967"><ele>664.0</ele><time>2026-03-31T11:17:10.156Z</time></trkpt><trkpt lat="40.93753" lon="-0.011365"><ele>663.5</ele><time>2026-03-31T11:17:11.157Z</time></trkpt><trkpt lat="40.9372633" lon="-0.01142"><ele>663.0</ele><time>2026-03-31T11:17:12.156Z</time></trkpt><trkpt lat="40.937" lon="-0.0114833"><ele>663.0</ele><time>2026-03-31T11:17:13.156Z</time></trkpt><trkpt lat="40.9367417" lon="-0.0115433"><ele>663.0</ele><time>2026-03-31T11:17:14.156Z</time></trkpt><trkpt lat="40.93648" lon="-0.0116133"><ele>668.0</ele><time>2026-03-31T11:17:15.157Z</time></trkpt><trkpt lat="40.9362283" lon="-0.011675"><ele>673.0</ele><time>2026-03-31T11:17:16.157Z</time></trkpt><trkpt lat="40.9359733" lon="-0.0117433"><ele>674.5</ele><time>2026-03-31T11:17:17.157Z</time></trkpt><trkpt lat="40.9357183" lon="-0.01181"><ele>676.0</ele><time>2026-03-31T11:17:18.156Z</time></trkpt><trkpt lat="40.93546" lon="-0.011865"><ele>676.0</ele><time>2026-03-31T11:17:19.156Z</time></trkpt><trkpt lat="40.9352067" lon="-0.0119367"><ele>676.0</ele><time>2026-03-31T11:17:20.157Z</time></trkpt><trkpt lat="40.934945" lon="-0.012005"><ele>678.0</ele><time>2026-03-31T11:17:21.157Z</time></trkpt><trkpt lat="40.934685" lon="-0.0120733"><ele>680.0</ele><time>2026-03-31T11:17:22.156Z</time></trkpt><trkpt lat="40.9344283" lon="-0.0121417"><ele>680.5</ele><time>2026-03-31T11:17:23.156Z</time></trkpt><trkpt lat="40.93417" lon="-0.01221"><ele>681.0</ele><time>2026-03-31T11:17:24.156Z</time></trkpt><trkpt lat="40.9339" lon="-0.01227"><ele>681.0</ele><time>2026-03-31T11:17:25.156Z</time></trkpt><trkpt lat="40.9336367" lon="-0.0123267"><ele>681.0</ele><time>2026-03-31T11:17:26.157Z</time></trkpt><trkpt lat="40.9333617" lon="-0.0123717"><ele>678.5</ele><time>2026-03-31T11:17:27.157Z</time></trkpt><trkpt lat="40.9330933" lon="-0.0123867"><ele>676.0</ele><time>2026-03-31T11:17:28.156Z</time></trkpt><trkpt lat="40.9328283" lon="-0.0123883"><ele>676.0</ele><time>2026-03-31T11:17:29.157Z</time></trkpt><trkpt lat="40.9325567" lon="-0.0123833"><ele>676.0</ele><time>2026-03-31T11:17:30.156Z</time></trkpt><trkpt lat="40.93228" lon="-0.0123767"><ele>674.5</ele><time>2026-03-31T11:17:31.157Z</time></trkpt><trkpt lat="40.9320067" lon="-0.0123667"><ele>673.0</ele><time>2026-03-31T11:17:32.157Z</time></trkpt><trkpt lat="40.93174" lon="-0.0123583"><ele>679.5</ele><time>2026-03-31T11:17:33.157Z</time></trkpt><trkpt lat="40.9314733" lon="-0.0123533"><ele>686.0</ele><time>2026-03-31T11:17:34.157Z</time></trkpt><trkpt lat="40.9312033" lon="-0.0123517"><ele>686.0</ele><time>2026-03-31T11:17:35.156Z</time></trkpt><trkpt lat="40.9309317" lon="-0.0123483"><ele>686.0</ele><time>2026-03-31T11:17:36.156Z</time></trkpt><trkpt lat="40.93066" lon="-0.0123667"><ele>687.0</ele><time>2026-03-31T11:17:37.157Z</time></trkpt><trkpt lat="40.9303933" lon="-0.0124117"><ele>688.0</ele><time>2026-03-31T11:17:38.156Z</time></trkpt><trkpt lat="40.93012" lon="-0.0124767"><ele>688.5</ele><time>2026-03-31T11:17:39.156Z</time></trkpt><trkpt lat="40.9298517" lon="-0.0125767"><ele>689.0</ele><time>2026-03-31T11:17:40.156Z</time></trkpt><trkpt lat="40.929575" lon="-0.0126883"><ele>689.0</ele><time>2026-03-31T11:17:41.157Z</time></trkpt><trkpt lat="40.9292933" lon="-0.0128217"><ele>689.0</ele><time>2026-03-31T11:17:42.157Z</time></trkpt><trkpt lat="40.9290167" lon="-0.0129783"><ele>689.0</ele><time>2026-03-31T11:17:43.157Z</time></trkpt><trkpt lat="40.9287567" lon="-0.0131667"><ele>689.0</ele><time>2026-03-31T11:17:44.156Z</time></trkpt><trkpt lat="40.928505" lon="-0.0133767"><ele>691.0</ele><time>2026-03-31T11:17:45.157Z</time></trkpt><trkpt lat="40.9282633" lon="-0.013605"><ele>693.0</ele><time>2026-03-31T11:17:46.157Z</time></trkpt><trkpt lat="40.9280333" lon="-0.01386"><ele>693.0</ele><time>2026-03-31T11:17:47.157Z</time></trkpt><trkpt lat="40.9278133" lon="-0.014135"><ele>693.0</ele><time>2026-03-31T11:17:48.156Z</time></trkpt><trkpt lat="40.9276083" lon="-0.0144367"><ele>692.0</ele><time>2026-03-31T11:17:49.157Z</time></trkpt><trkpt lat="40.927425" lon="-0.014755"><ele>691.0</ele><time>2026-03-31T11:17:50.157Z</time></trkpt><trkpt lat="40.92725" lon="-0.0150833"><ele>689.5</ele><time>2026-03-31T11:17:51.156Z</time></trkpt><trkpt lat="40.9270833" lon="-0.015415"><ele>688.0</ele><time>2026-03-31T11:17:52.157Z</time></trkpt><trkpt lat="40.926925" lon="-0.0157633"><ele>689.0</ele><time>2026-03-31T11:17:53.156Z</time></trkpt><trkpt lat="40.9267733" lon="-0.0161183"><ele>690.0</ele><time>2026-03-31T11:17:54.156Z</time></trkpt><trkpt lat="40.9266183" lon="-0.0164617"><ele>690.0</ele><time>2026-03-31T11:17:55.157Z</time></trkpt><trkpt lat="40.926445" lon="-0.0168017"><ele>690.0</ele><time>2026-03-31T11:17:56.156Z</time></trkpt><trkpt lat="40.9262683" lon="-0.017125"><ele>690.0</ele><time>2026-03-31T11:17:57.156Z</time></trkpt><trkpt lat="40.9260817" lon="-0.0174317"><ele>690.0</ele><time>2026-03-31T11:17:58.156Z</time></trkpt><trkpt lat="40.925895" lon="-0.0177233"><ele>691.0</ele><time>2026-03-31T11:17:59.157Z</time></trkpt><trkpt lat="40.9257" lon="-0.0179933"><ele>692.0</ele><time>2026-03-31T11:18:00.157Z</time></trkpt><trkpt lat="40.9254817" lon="-0.0182367"><ele>692.0</ele><time>2026-03-31T11:18:01.156Z</time></trkpt><trkpt lat="40.925255" lon="-0.0184517"><ele>692.0</ele><time>2026-03-31T11:18:02.157Z</time></trkpt><trkpt lat="40.92502" lon="-0.0186367"><ele>691.5</ele><time>2026-03-31T11:18:03.157Z</time></trkpt><trkpt lat="40.9247717" lon="-0.01881"><ele>691.0</ele><time>2026-03-31T11:18:04.157Z</time></trkpt><trkpt lat="40.9245267" lon="-0.0189717"><ele>691.0</ele><time>2026-03-31T11:18:05.157Z</time></trkpt><trkpt lat="40.9242767" lon="-0.0191017"><ele>691.0</ele><time>2026-03-31T11:18:06.156Z</time></trkpt><trkpt lat="40.924015" lon="-0.0192133"><ele>693.5</ele><time>2026-03-31T11:18:07.156Z</time></trkpt><trkpt lat="40.9237433" lon="-0.0192967"><ele>696.0</ele><time>2026-03-31T11:18:08.157Z</time></trkpt><trkpt lat="40.9234667" lon="-0.0193617"><ele>694.5</ele><time>2026-03-31T11:18:09.156Z</time></trkpt><trkpt lat="40.9231917" lon="-0.01941"><ele>693.0</ele><time>2026-03-31T11:18:10.156Z</time></trkpt><trkpt lat="40.9229117" lon="-0.0194267"><ele>693.0</ele><time>2026-03-31T11:18:11.156Z</time></trkpt><trkpt lat="40.9226333" lon="-0.0194333"><ele>693.0</ele><time>2026-03-31T11:18:12.157Z</time></trkpt><trkpt lat="40.9223533" lon="-0.0194133"><ele>692.0</ele><time>2026-03-31T11:18:13.156Z</time></trkpt><trkpt lat="40.9220717" lon="-0.0193717"><ele>691.0</ele><time>2026-03-31T11:18:14.157Z</time></trkpt><trkpt lat="40.9217967" lon="-0.019295"><ele>693.0</ele><time>2026-03-31T11:18:15.156Z</time></trkpt><trkpt lat="40.9215167" lon="-0.0192033"><ele>695.0</ele><time>2026-03-31T11:18:16.156Z</time></trkpt><trkpt lat="40.9212533" lon="-0.01911"><ele>696.5</ele><time>2026-03-31T11:18:17.156Z</time></trkpt><trkpt lat="40.9209867" lon="-0.0190117"><ele>698.0</ele><time>2026-03-31T11:18:18.156Z</time></trkpt><trkpt lat="40.920725" lon="-0.0189183"><ele>699.0</ele><time>2026-03-31T11:18:19.156Z</time></trkpt><trkpt lat="40.9204583" lon="-0.0188283"><ele>700.0</ele><time>2026-03-31T11:18:20.156Z</time></trkpt><trkpt lat="40.9201967" lon="-0.0187583"><ele>701.5</ele><time>2026-03-31T11:18:21.157Z</time></trkpt><trkpt lat="40.919935" lon="-0.0186933"><ele>703.0</ele><time>2026-03-31T11:18:22.156Z</time></trkpt><trkpt lat="40.9196633" lon="-0.0186383"><ele>703.0</ele><time>2026-03-31T11:18:23.156Z</time></trkpt><trkpt lat="40.9193917" lon="-0.0186083"><ele>703.0</ele><time>2026-03-31T11:18:24.157Z</time></trkpt><trkpt lat="40.9191217" lon="-0.0186033"><ele>703.0</ele><time>2026-03-31T11:18:25.157Z</time></trkpt><trkpt lat="40.91885" lon="-0.0186167"><ele>703.0</ele><time>2026-03-31T11:18:26.156Z</time></trkpt><trkpt lat="40.9185817" lon="-0.018655"><ele>703.5</ele><time>2026-03-31T11:18:27.156Z</time></trkpt><trkpt lat="40.9183217" lon="-0.0187183"><ele>704.0</ele><time>2026-03-31T11:18:28.157Z</time></trkpt><trkpt lat="40.9180617" lon="-0.0188033"><ele>704.0</ele><time>2026-03-31T11:18:29.156Z</time></trkpt><trkpt lat="40.91781" lon="-0.0189083"><ele>704.0</ele><time>2026-03-31T11:18:30.156Z</time></trkpt><trkpt lat="40.9175467" lon="-0.01902"><ele>704.0</ele><time>2026-03-31T11:18:31.157Z</time></trkpt><trkpt lat="40.9173017" lon="-0.0191567"><ele>704.0</ele><time>2026-03-31T11:18:32.156Z</time></trkpt><trkpt lat="40.9170567" lon="-0.0193017"><ele>704.0</ele><time>2026-03-31T11:18:33.157Z</time></trkpt><trkpt lat="40.9168117" lon="-0.0194583"><ele>704.0</ele><time>2026-03-31T11:18:34.156Z</time></trkpt><trkpt lat="40.9165683" lon="-0.01961"><ele>704.0</ele><time>2026-03-31T11:18:35.157Z</time></trkpt><trkpt lat="40.9163317" lon="-0.01976"><ele>704.0</ele><time>2026-03-31T11:18:36.156Z</time></trkpt><trkpt lat="40.9160933" lon="-0.0199067"><ele>706.5</ele><time>2026-03-31T11:18:37.157Z</time></trkpt><trkpt lat="40.9158567" lon="-0.0200533"><ele>709.0</ele><time>2026-03-31T11:18:38.157Z</time></trkpt><trkpt lat="40.915625" lon="-0.0202117"><ele>709.0</ele><time>2026-03-31T11:18:39.157Z</time></trkpt><trkpt lat="40.9153933" lon="-0.0203633"><ele>709.0</ele><time>2026-03-31T11:18:40.157Z</time></trkpt><trkpt lat="40.9151583" lon="-0.0205167"><ele>708.0</ele><time>2026-03-31T11:18:41.156Z</time></trkpt><trkpt lat="40.9149317" lon="-0.0206667"><ele>707.0</ele><time>2026-03-31T11:18:42.156Z</time></trkpt><trkpt lat="40.9146917" lon="-0.0208117"><ele>705.5</ele><time>2026-03-31T11:18:43.156Z</time></trkpt><trkpt lat="40.9144583" lon="-0.020965"><ele>704.0</ele><time>2026-03-31T11:18:44.156Z</time></trkpt><trkpt lat="40.9142417" lon="-0.0211367"><ele>705.0</ele><time>2026-03-31T11:18:45.157Z</time></trkpt><trkpt lat="40.914035" lon="-0.0213233"><ele>706.0</ele><time>2026-03-31T11:18:46.157Z</time></trkpt><trkpt lat="40.913845" lon="-0.0215317"><ele>705.5</ele><time>2026-03-31T11:18:47.157Z</time></trkpt><trkpt lat="40.9136583" lon="-0.0217433"><ele>705.0</ele><time>2026-03-31T11:18:48.157Z</time></trkpt><trkpt lat="40.913495" lon="-0.02196"><ele>706.0</ele><time>2026-03-31T11:18:49.157Z</time></trkpt><trkpt lat="40.9133417" lon="-0.0221767"><ele>707.0</ele><time>2026-03-31T11:18:50.156Z</time></trkpt><trkpt lat="40.9132133" lon="-0.0223833"><ele>708.0</ele><time>2026-03-31T11:18:51.156Z</time></trkpt><trkpt lat="40.9130867" lon="-0.0225867"><ele>708.0</ele><time>2026-03-31T11:18:52.157Z</time></trkpt><trkpt lat="40.9129733" lon="-0.0227683"><ele>708.0</ele><time>2026-03-31T11:18:53.157Z</time></trkpt><trkpt lat="40.91289" lon="-0.022925"><ele>708.0</ele><time>2026-03-31T11:18:54.157Z</time></trkpt><trkpt lat="40.9128183" lon="-0.0230467"><ele>708.0</ele><time>2026-03-31T11:18:55.157Z</time></trkpt><trkpt lat="40.9127633" lon="-0.02315"><ele>708.0</ele><time>2026-03-31T11:18:56.156Z</time></trkpt><trkpt lat="40.9127433" lon="-0.0232517"><ele>708.0</ele><time>2026-03-31T11:18:57.156Z</time></trkpt><trkpt lat="40.9127617" lon="-0.0233533"><ele>708.0</ele><time>2026-03-31T11:18:58.156Z</time></trkpt><trkpt lat="40.9128017" lon="-0.023435"><ele>708.0</ele><time>2026-03-31T11:18:59.156Z</time></trkpt><trkpt lat="40.9128667" lon="-0.0235017"><ele>708.0</ele><time>2026-03-31T11:19:00.156Z</time></trkpt><trkpt lat="40.9129433" lon="-0.023555"><ele>708.0</ele><time>2026-03-31T11:19:01.156Z</time></trkpt><trkpt lat="40.9130117" lon="-0.0236333"><ele>707.8</ele><time>2026-03-31T11:19:02.156Z</time></trkpt><trkpt lat="40.9130567" lon="-0.0237333"><ele>707.5999999999999</ele><time>2026-03-31T11:19:03.157Z</time></trkpt><trkpt lat="40.9130683" lon="-0.0238567"><ele>707.4000000000001</ele><time>2026-03-31T11:19:04.156Z</time></trkpt><trkpt lat="40.91306" lon="-0.023995"><ele>707.2</ele><time>2026-03-31T11:19:05.156Z</time></trkpt><trkpt lat="40.9130283" lon="-0.0241483"><ele>707.0</ele><time>2026-03-31T11:19:06.157Z</time></trkpt><trkpt lat="40.9130033" lon="-0.0243217"><ele>707.0</ele><time>2026-03-31T11:19:07.157Z</time></trkpt><trkpt lat="40.912965" lon="-0.0245"><ele>707.0</ele><time>2026-03-31T11:19:08.156Z</time></trkpt><trkpt lat="40.9129417" lon="-0.02469"><ele>707.0</ele><time>2026-03-31T11:19:09.157Z</time></trkpt><trkpt lat="40.9129367" lon="-0.0248733"><ele>707.0</ele><time>2026-03-31T11:19:10.156Z</time></trkpt><trkpt lat="40.91295" lon="-0.025055"><ele>705.3333333333333</ele><time>2026-03-31T11:19:11.156Z</time></trkpt><trkpt lat="40.9129967" lon="-0.025245"><ele>703.6666666666666</ele><time>2026-03-31T11:19:12.156Z</time></trkpt><trkpt lat="40.9130567" lon="-0.025435"><ele>702.0</ele><time>2026-03-31T11:19:13.157Z</time></trkpt><trkpt lat="40.9131267" lon="-0.0256217"><ele>702.0</ele><time>2026-03-31T11:19:14.156Z</time></trkpt><trkpt lat="40.9131983" lon="-0.0258"><ele>702.0</ele><time>2026-03-31T11:19:15.157Z</time></trkpt><trkpt lat="40.9132867" lon="-0.0259917"><ele>702.0</ele><time>2026-03-31T11:19:16.156Z</time></trkpt><trkpt lat="40.91337" lon="-0.026175"><ele>702.3333333333334</ele><time>2026-03-31T11:19:17.156Z</time></trkpt><trkpt lat="40.91346" lon="-0.02636"><ele>702.6666666666667</ele><time>2026-03-31T11:19:18.156Z</time></trkpt><trkpt lat="40.913555" lon="-0.026545"><ele>703.0</ele><time>2026-03-31T11:19:19.157Z</time></trkpt><trkpt lat="40.9136583" lon="-0.02671"><ele>703.0</ele><time>2026-03-31T11:19:20.157Z</time></trkpt><trkpt lat="40.9137783" lon="-0.02686"><ele>703.0</ele><time>2026-03-31T11:19:21.156Z</time></trkpt><trkpt lat="40.9138983" lon="-0.0270017"><ele>703.0</ele><time>2026-03-31T11:19:22.157Z</time></trkpt><trkpt lat="40.914025" lon="-0.0271533"><ele>703.0</ele><time>2026-03-31T11:19:23.157Z</time></trkpt><trkpt lat="40.9141517" lon="-0.0273133"><ele>703.0</ele><time>2026-03-31T11:19:24.156Z</time></trkpt><trkpt lat="40.9142517" lon="-0.0274817"><ele>703.0</ele><time>2026-03-31T11:19:25.156Z</time></trkpt><trkpt lat="40.9143217" lon="-0.0276667"><ele>703.0</ele><time>2026-03-31T11:19:26.157Z</time></trkpt><trkpt lat="40.9143883" lon="-0.0278667"><ele>703.0</ele><time>2026-03-31T11:19:27.157Z</time></trkpt><trkpt lat="40.9144333" lon="-0.028075"><ele>703.0</ele><time>2026-03-31T11:19:28.157Z</time></trkpt><trkpt lat="40.9144567" lon="-0.028295"><ele>703.3333333333334</ele><time>2026-03-31T11:19:29.157Z</time></trkpt><trkpt lat="40.9144633" lon="-0.0285183"><ele>703.6666666666666</ele><time>2026-03-31T11:19:30.156Z</time></trkpt><trkpt lat="40.9144533" lon="-0.0287433"><ele>704.0</ele><time>2026-03-31T11:19:31.156Z</time></trkpt><trkpt lat="40.9144433" lon="-0.0289833"><ele>703.3333333333333</ele><time>2026-03-31T11:19:32.157Z</time></trkpt><trkpt lat="40.914435" lon="-0.0292233"><ele>702.6666666666666</ele><time>2026-03-31T11:19:33.156Z</time></trkpt><trkpt lat="40.9144233" lon="-0.02945"><ele>702.0</ele><time>2026-03-31T11:19:34.156Z</time></trkpt><trkpt lat="40.9144183" lon="-0.02967"><ele>702.0</ele><time>2026-03-31T11:19:35.156Z</time></trkpt><trkpt lat="40.9144367" lon="-0.02987"><ele>702.0</ele><time>2026-03-31T11:19:36.157Z</time></trkpt><trkpt lat="40.9144883" lon="-0.0300767"><ele>702.0</ele><time>2026-03-31T11:19:37.156Z</time></trkpt><trkpt lat="40.9145617" lon="-0.0302683"><ele>699.6666666666666</ele><time>2026-03-31T11:19:38.157Z</time></trkpt><trkpt lat="40.914665" lon="-0.0304617"><ele>697.3333333333333</ele><time>2026-03-31T11:19:39.156Z</time></trkpt><trkpt lat="40.91478" lon="-0.0306367"><ele>695.0</ele><time>2026-03-31T11:19:40.156Z</time></trkpt><trkpt lat="40.914915" lon="-0.0308"><ele>693.3333333333333</ele><time>2026-03-31T11:19:41.157Z</time></trkpt><trkpt lat="40.9150683" lon="-0.0309517"><ele>691.6666666666666</ele><time>2026-03-31T11:19:42.156Z</time></trkpt><trkpt lat="40.9152217" lon="-0.031105"><ele>690.0</ele><time>2026-03-31T11:19:43.157Z</time></trkpt><trkpt lat="40.9153583" lon="-0.0312717"><ele>690.0</ele><time>2026-03-31T11:19:44.157Z</time></trkpt><trkpt lat="40.9154783" lon="-0.03146"><ele>690.0</ele><time>2026-03-31T11:19:45.156Z</time></trkpt><trkpt lat="40.9155733" lon="-0.03168"><ele>690.0</ele><time>2026-03-31T11:19:46.157Z</time></trkpt><trkpt lat="40.9156533" lon="-0.0319083"><ele>685.6666666666666</ele><time>2026-03-31T11:19:47.156Z</time></trkpt><trkpt lat="40.9157117" lon="-0.0321517"><ele>681.3333333333333</ele><time>2026-03-31T11:19:48.157Z</time></trkpt><trkpt lat="40.9157617" lon="-0.0324"><ele>677.0</ele><time>2026-03-31T11:19:49.156Z</time></trkpt><trkpt lat="40.9158183" lon="-0.0326517"><ele>675.3333333333333</ele><time>2026-03-31T11:19:50.156Z</time></trkpt><trkpt lat="40.9158667" lon="-0.032905"><ele>673.6666666666666</ele><time>2026-03-31T11:19:51.156Z</time></trkpt><trkpt lat="40.9159267" lon="-0.0331567"><ele>672.0</ele><time>2026-03-31T11:19:52.157Z</time></trkpt><trkpt lat="40.9159867" lon="-0.0334167"><ele>672.0</ele><time>2026-03-31T11:19:53.157Z</time></trkpt><trkpt lat="40.9160483" lon="-0.0336767"><ele>672.0</ele><time>2026-03-31T11:19:54.156Z</time></trkpt><trkpt lat="40.9161017" lon="-0.0339383"><ele>672.0</ele><time>2026-03-31T11:19:55.156Z</time></trkpt><trkpt lat="40.9161667" lon="-0.0342"><ele>669.0</ele><time>2026-03-31T11:19:56.157Z</time></trkpt><trkpt lat="40.9162383" lon="-0.0344733"><ele>666.0</ele><time>2026-03-31T11:19:57.157Z</time></trkpt><trkpt lat="40.9163133" lon="-0.0347417"><ele>663.0</ele><time>2026-03-31T11:19:58.157Z</time></trkpt><trkpt lat="40.9163733" lon="-0.0350167"><ele>662.3333333333334</ele><time>2026-03-31T11:19:59.156Z</time></trkpt><trkpt lat="40.916425" lon="-0.0352867"><ele>661.6666666666667</ele><time>2026-03-31T11:20:00.156Z</time></trkpt><trkpt lat="40.9164883" lon="-0.03555"><ele>661.0</ele><time>2026-03-31T11:20:01.156Z</time></trkpt><trkpt lat="40.9165483" lon="-0.03582"><ele>657.6666666666667</ele><time>2026-03-31T11:20:02.156Z</time></trkpt><trkpt lat="40.9166133" lon="-0.0360833"><ele>654.3333333333334</ele><time>2026-03-31T11:20:03.157Z</time></trkpt><trkpt lat="40.916675" lon="-0.0363417"><ele>651.0</ele><time>2026-03-31T11:20:04.156Z</time></trkpt><trkpt lat="40.916735" lon="-0.0365967"><ele>653.3333333333334</ele><time>2026-03-31T11:20:05.156Z</time></trkpt><trkpt lat="40.916795" lon="-0.036855"><ele>655.6666666666667</ele><time>2026-03-31T11:20:06.156Z</time></trkpt><trkpt lat="40.916855" lon="-0.037115"><ele>658.0</ele><time>2026-03-31T11:20:07.156Z</time></trkpt><trkpt lat="40.9169167" lon="-0.03736"><ele>656.3333333333334</ele><time>2026-03-31T11:20:08.156Z</time></trkpt><trkpt lat="40.916975" lon="-0.0376083"><ele>654.6666666666666</ele><time>2026-03-31T11:20:09.156Z</time></trkpt><trkpt lat="40.9170283" lon="-0.03785"><ele>653.0</ele><time>2026-03-31T11:20:10.156Z</time></trkpt><trkpt lat="40.9170783" lon="-0.0380883"><ele>649.0</ele><time>2026-03-31T11:20:11.157Z</time></trkpt><trkpt lat="40.9171067" lon="-0.0383367"><ele>645.0</ele><time>2026-03-31T11:20:12.157Z</time></trkpt><trkpt lat="40.9171067" lon="-0.03859"><ele>641.0</ele><time>2026-03-31T11:20:13.156Z</time></trkpt><trkpt lat="40.9170783" lon="-0.0388383"><ele>641.0</ele><time>2026-03-31T11:20:14.156Z</time></trkpt><trkpt lat="40.9170183" lon="-0.0390967"><ele>641.0</ele><time>2026-03-31T11:20:15.157Z</time></trkpt><trkpt lat="40.9169267" lon="-0.0393367"><ele>641.0</ele><time>2026-03-31T11:20:16.156Z</time></trkpt><trkpt lat="40.9168317" lon="-0.0395633"><ele>636.3333333333333</ele><time>2026-03-31T11:20:17.156Z</time></trkpt><trkpt lat="40.9167267" lon="-0.03976"><ele>631.6666666666666</ele><time>2026-03-31T11:20:18.157Z</time></trkpt><trkpt lat="40.9166283" lon="-0.0399633"><ele>627.0</ele><time>2026-03-31T11:20:19.156Z</time></trkpt><trkpt lat="40.9165533" lon="-0.0401967"><ele>627.0</ele><time>2026-03-31T11:20:20.157Z</time></trkpt><trkpt lat="40.9165217" lon="-0.04046"><ele>627.0</ele><time>2026-03-31T11:20:21.157Z</time></trkpt><trkpt lat="40.9165183" lon="-0.0407317"><ele>627.0</ele><time>2026-03-31T11:20:22.156Z</time></trkpt><trkpt lat="40.9165183" lon="-0.0410283"><ele>626.3333333333334</ele><time>2026-03-31T11:20:23.157Z</time></trkpt><trkpt lat="40.91653" lon="-0.0413117"><ele>625.6666666666667</ele><time>2026-03-31T11:20:24.156Z</time></trkpt><trkpt lat="40.9165317" lon="-0.0415867"><ele>625.0</ele><time>2026-03-31T11:20:25.156Z</time></trkpt><trkpt lat="40.916535" lon="-0.041865"><ele>625.0</ele><time>2026-03-31T11:20:26.156Z</time></trkpt><trkpt lat="40.91654" lon="-0.0421633"><ele>625.0</ele><time>2026-03-31T11:20:27.156Z</time></trkpt><trkpt lat="40.9165567" lon="-0.0424567"><ele>625.0</ele><time>2026-03-31T11:20:28.156Z</time></trkpt><trkpt lat="40.91657" lon="-0.0427467"><ele>623.5</ele><time>2026-03-31T11:20:29.157Z</time></trkpt><trkpt lat="40.9165917" lon="-0.043045"><ele>622.0</ele><time>2026-03-31T11:20:30.156Z</time></trkpt><trkpt lat="40.9166233" lon="-0.0433467"><ele>620.5</ele><time>2026-03-31T11:20:31.156Z</time></trkpt><trkpt lat="40.9166583" lon="-0.0436417"><ele>619.0</ele><time>2026-03-31T11:20:32.157Z</time></trkpt><trkpt lat="40.91669" lon="-0.0439417"><ele>616.0</ele><time>2026-03-31T11:20:33.156Z</time></trkpt><trkpt lat="40.9167217" lon="-0.0442383"><ele>613.0</ele><time>2026-03-31T11:20:34.157Z</time></trkpt><trkpt lat="40.9167517" lon="-0.044545"><ele>616.5</ele><time>2026-03-31T11:20:35.156Z</time></trkpt><trkpt lat="40.9167833" lon="-0.0448517"><ele>620.0</ele><time>2026-03-31T11:20:36.156Z</time></trkpt><trkpt lat="40.91682" lon="-0.0451483"><ele>620.0</ele><time>2026-03-31T11:20:37.156Z</time></trkpt><trkpt lat="40.916855" lon="-0.0454517"><ele>620.0</ele><time>2026-03-31T11:20:38.157Z</time></trkpt><trkpt lat="40.91689" lon="-0.04576"><ele>620.5</ele><time>2026-03-31T11:20:39.156Z</time></trkpt><trkpt lat="40.9169317" lon="-0.046065"><ele>621.0</ele><time>2026-03-31T11:20:40.156Z</time></trkpt><trkpt lat="40.916965" lon="-0.0463683"><ele>619.5</ele><time>2026-03-31T11:20:41.156Z</time></trkpt><trkpt lat="40.9170017" lon="-0.0466733"><ele>618.0</ele><time>2026-03-31T11:20:42.156Z</time></trkpt><trkpt lat="40.917035" lon="-0.0469683"><ele>618.0</ele><time>2026-03-31T11:20:43.156Z</time></trkpt><trkpt lat="40.9170717" lon="-0.0472667"><ele>618.0</ele><time>2026-03-31T11:20:44.157Z</time></trkpt><trkpt lat="40.9171133" lon="-0.04756"><ele>615.6666666666666</ele><time>2026-03-31T11:20:45.156Z</time></trkpt><trkpt lat="40.91716" lon="-0.0478417"><ele>613.3333333333333</ele><time>2026-03-31T11:20:46.157Z</time></trkpt><trkpt lat="40.91722" lon="-0.048125"><ele>611.0</ele><time>2026-03-31T11:20:47.157Z</time></trkpt><trkpt lat="40.917295" lon="-0.0484067"><ele>606.0</ele><time>2026-03-31T11:20:48.157Z</time></trkpt><trkpt lat="40.9173867" lon="-0.0486867"><ele>601.0</ele><time>2026-03-31T11:20:49.157Z</time></trkpt><trkpt lat="40.9174783" lon="-0.0489567"><ele>607.5</ele><time>2026-03-31T11:20:50.156Z</time></trkpt><trkpt lat="40.9175867" lon="-0.0492367"><ele>614.0</ele><time>2026-03-31T11:20:51.156Z</time></trkpt><trkpt lat="40.9177" lon="-0.049495"><ele>614.0</ele><time>2026-03-31T11:20:52.156Z</time></trkpt><trkpt lat="40.9178167" lon="-0.04974"><ele>614.0</ele><time>2026-03-31T11:20:53.156Z</time></trkpt><trkpt lat="40.9179483" lon="-0.0499817"><ele>614.0</ele><time>2026-03-31T11:20:54.157Z</time></trkpt><trkpt lat="40.9180917" lon="-0.0502183"><ele>617.5</ele><time>2026-03-31T11:20:55.157Z</time></trkpt><trkpt lat="40.9182517" lon="-0.05045"><ele>621.0</ele><time>2026-03-31T11:20:56.156Z</time></trkpt><trkpt lat="40.9184233" lon="-0.0506633"><ele>613.0</ele><time>2026-03-31T11:20:57.156Z</time></trkpt><trkpt lat="40.918605" lon="-0.0508717"><ele>605.0</ele><time>2026-03-31T11:20:58.156Z</time></trkpt><trkpt lat="40.91878" lon="-0.05108"><ele>605.0</ele><time>2026-03-31T11:20:59.157Z</time></trkpt><trkpt lat="40.918955" lon="-0.0512783"><ele>605.0</ele><time>2026-03-31T11:21:00.157Z</time></trkpt><trkpt lat="40.9191267" lon="-0.0514717"><ele>604.3333333333333</ele><time>2026-03-31T11:21:01.157Z</time></trkpt><trkpt lat="40.9192983" lon="-0.0516533"><ele>603.6666666666666</ele><time>2026-03-31T11:21:02.157Z</time></trkpt><trkpt lat="40.9194767" lon="-0.0518217"><ele>603.0</ele><time>2026-03-31T11:21:03.157Z</time></trkpt><trkpt lat="40.9196683" lon="-0.0519717"><ele>603.0</ele><time>2026-03-31T11:21:04.156Z</time></trkpt><trkpt lat="40.9198633" lon="-0.0521067"><ele>603.0</ele><time>2026-03-31T11:21:05.157Z</time></trkpt><trkpt lat="40.9200667" lon="-0.0522367"><ele>603.0</ele><time>2026-03-31T11:21:06.156Z</time></trkpt><trkpt lat="40.9202733" lon="-0.0523667"><ele>598.6666666666666</ele><time>2026-03-31T11:21:07.156Z</time></trkpt><trkpt lat="40.92048" lon="-0.0524917"><ele>594.3333333333333</ele><time>2026-03-31T11:21:08.156Z</time></trkpt><trkpt lat="40.92068" lon="-0.0526033"><ele>590.0</ele><time>2026-03-31T11:21:09.157Z</time></trkpt><trkpt lat="40.92087" lon="-0.0527233"><ele>588.6666666666666</ele><time>2026-03-31T11:21:10.157Z</time></trkpt><trkpt lat="40.9210517" lon="-0.0528417"><ele>587.3333333333334</ele><time>2026-03-31T11:21:11.156Z</time></trkpt><trkpt lat="40.9212333" lon="-0.0529617"><ele>586.0</ele><time>2026-03-31T11:21:12.157Z</time></trkpt><trkpt lat="40.9214217" lon="-0.0530867"><ele>586.0</ele><time>2026-03-31T11:21:13.156Z</time></trkpt><trkpt lat="40.9216067" lon="-0.0532083"><ele>586.0</ele><time>2026-03-31T11:21:14.156Z</time></trkpt><trkpt lat="40.921775" lon="-0.05333"><ele>586.0</ele><time>2026-03-31T11:21:15.157Z</time></trkpt><trkpt lat="40.92193" lon="-0.0534933"><ele>582.6666666666667</ele><time>2026-03-31T11:21:16.156Z</time></trkpt><trkpt lat="40.92208" lon="-0.05368"><ele>579.3333333333334</ele><time>2026-03-31T11:21:17.156Z</time></trkpt><trkpt lat="40.9222" lon="-0.0538867"><ele>576.0</ele><time>2026-03-31T11:21:18.156Z</time></trkpt><trkpt lat="40.9222967" lon="-0.054115"><ele>576.3333333333334</ele><time>2026-03-31T11:21:19.156Z</time></trkpt><trkpt lat="40.9223833" lon="-0.0543683"><ele>576.6666666666667</ele><time>2026-03-31T11:21:20.156Z</time></trkpt><trkpt lat="40.9224433" lon="-0.0546233"><ele>577.0</ele><time>2026-03-31T11:21:21.156Z</time></trkpt><trkpt lat="40.9224783" lon="-0.0548983"><ele>575.6666666666667</ele><time>2026-03-31T11:21:22.157Z</time></trkpt><trkpt lat="40.9225017" lon="-0.0551733"><ele>574.3333333333334</ele><time>2026-03-31T11:21:23.156Z</time></trkpt><trkpt lat="40.9225167" lon="-0.0554683"><ele>573.0</ele><time>2026-03-31T11:21:24.156Z</time></trkpt><trkpt lat="40.9225317" lon="-0.0557633"><ele>572.3333333333334</ele><time>2026-03-31T11:21:25.156Z</time></trkpt><trkpt lat="40.9225517" lon="-0.0560617"><ele>571.6666666666667</ele><time>2026-03-31T11:21:26.157Z</time></trkpt><trkpt lat="40.92257" lon="-0.056355"><ele>571.0</ele><time>2026-03-31T11:21:27.156Z</time></trkpt><trkpt lat="40.9225617" lon="-0.056675"><ele>570.6666666666667</ele><time>2026-03-31T11:21:28.156Z</time></trkpt><trkpt lat="40.9225217" lon="-0.056975"><ele>570.3333333333334</ele><time>2026-03-31T11:21:29.156Z</time></trkpt><trkpt lat="40.9224717" lon="-0.057255"><ele>570.0</ele><time>2026-03-31T11:21:30.156Z</time></trkpt><trkpt lat="40.922415" lon="-0.0575383"><ele>570.0</ele><time>2026-03-31T11:21:31.156Z</time></trkpt><trkpt lat="40.9223617" lon="-0.057815"><ele>570.0</ele><time>2026-03-31T11:21:32.157Z</time></trkpt><trkpt lat="40.92231" lon="-0.058075"><ele>570.0</ele><time>2026-03-31T11:21:33.156Z</time></trkpt><trkpt lat="40.9222717" lon="-0.0583417"><ele>571.0</ele><time>2026-03-31T11:21:34.156Z</time></trkpt><trkpt lat="40.9222433" lon="-0.0586033"><ele>572.0</ele><time>2026-03-31T11:21:35.156Z</time></trkpt><trkpt lat="40.9222317" lon="-0.0588667"><ele>573.0</ele><time>2026-03-31T11:21:36.156Z</time></trkpt><trkpt lat="40.9222267" lon="-0.0591367"><ele>571.0</ele><time>2026-03-31T11:21:37.156Z</time></trkpt><trkpt lat="40.9222317" lon="-0.05941"><ele>569.0</ele><time>2026-03-31T11:21:38.156Z</time></trkpt><trkpt lat="40.9222317" lon="-0.05969"><ele>567.0</ele><time>2026-03-31T11:21:39.157Z</time></trkpt><trkpt lat="40.9222283" lon="-0.0599667"><ele>566.3333333333334</ele><time>2026-03-31T11:21:40.157Z</time></trkpt><trkpt lat="40.9222283" lon="-0.0602517"><ele>565.6666666666667</ele><time>2026-03-31T11:21:41.156Z</time></trkpt><trkpt lat="40.9222267" lon="-0.0605433"><ele>565.0</ele><time>2026-03-31T11:21:42.157Z</time></trkpt><trkpt lat="40.9222333" lon="-0.0608317"><ele>563.3333333333334</ele><time>2026-03-31T11:21:43.156Z</time></trkpt><trkpt lat="40.9222333" lon="-0.0611267"><ele>561.6666666666666</ele><time>2026-03-31T11:21:44.157Z</time></trkpt><trkpt lat="40.9222367" lon="-0.06141"><ele>560.0</ele><time>2026-03-31T11:21:45.157Z</time></trkpt><trkpt lat="40.9222333" lon="-0.0616583"><ele>558.3333333333333</ele><time>2026-03-31T11:21:46.157Z</time></trkpt><trkpt lat="40.9222367" lon="-0.0619117"><ele>556.6666666666666</ele><time>2026-03-31T11:21:47.156Z</time></trkpt><trkpt lat="40.922245" lon="-0.0621517"><ele>555.0</ele><time>2026-03-31T11:21:48.156Z</time></trkpt><trkpt lat="40.9222667" lon="-0.0623983"><ele>553.6666666666666</ele><time>2026-03-31T11:21:49.156Z</time></trkpt><trkpt lat="40.92231" lon="-0.0626433"><ele>552.3333333333333</ele><time>2026-03-31T11:21:50.157Z</time></trkpt><trkpt lat="40.9223717" lon="-0.062875"><ele>551.0</ele><time>2026-03-31T11:21:51.156Z</time></trkpt><trkpt lat="40.9224533" lon="-0.0631067"><ele>549.0</ele><time>2026-03-31T11:21:52.157Z</time></trkpt><trkpt lat="40.9225517" lon="-0.0633367"><ele>547.0</ele><time>2026-03-31T11:21:53.157Z</time></trkpt><trkpt lat="40.922665" lon="-0.0635583"><ele>545.0</ele><time>2026-03-31T11:21:54.157Z</time></trkpt><trkpt lat="40.9227967" lon="-0.0637817"><ele>545.0</ele><time>2026-03-31T11:21:55.156Z</time></trkpt><trkpt lat="40.9229233" lon="-0.0640117"><ele>545.0</ele><time>2026-03-31T11:21:56.157Z</time></trkpt><trkpt lat="40.9230567" lon="-0.064245"><ele>545.0</ele><time>2026-03-31T11:21:57.156Z</time></trkpt><trkpt lat="40.9231917" lon="-0.0644767"><ele>544.5</ele><time>2026-03-31T11:21:58.157Z</time></trkpt><trkpt lat="40.9233267" lon="-0.0647217"><ele>544.0</ele><time>2026-03-31T11:21:59.156Z</time></trkpt><trkpt lat="40.923455" lon="-0.0649633"><ele>544.6666666666667</ele><time>2026-03-31T11:22:00.157Z</time></trkpt><trkpt lat="40.9235717" lon="-0.0651833"><ele>545.3333333333334</ele><time>2026-03-31T11:22:01.156Z</time></trkpt><trkpt lat="40.9236817" lon="-0.0653833"><ele>546.0</ele><time>2026-03-31T11:22:02.156Z</time></trkpt><trkpt lat="40.9237933" lon="-0.0655717"><ele>546.0</ele><time>2026-03-31T11:22:03.156Z</time></trkpt><trkpt lat="40.923885" lon="-0.0657417"><ele>546.0</ele><time>2026-03-31T11:22:04.157Z</time></trkpt><trkpt lat="40.9239633" lon="-0.0658817"><ele>546.0</ele><time>2026-03-31T11:22:05.157Z</time></trkpt><trkpt lat="40.92405" lon="-0.0660033"><ele>546.0</ele><time>2026-03-31T11:22:06.156Z</time></trkpt><trkpt lat="40.9241567" lon="-0.0661233"><ele>546.5</ele><time>2026-03-31T11:22:07.157Z</time></trkpt><trkpt lat="40.9242583" lon="-0.0662367"><ele>547.0</ele><time>2026-03-31T11:22:08.156Z</time></trkpt><trkpt lat="40.92435" lon="-0.0663633"><ele>547.5</ele><time>2026-03-31T11:22:09.156Z</time></trkpt><trkpt lat="40.9244317" lon="-0.066505"><ele>548.0</ele><time>2026-03-31T11:22:10.157Z</time></trkpt><trkpt lat="40.92448" lon="-0.06667"><ele>548.0</ele><time>2026-03-31T11:22:11.156Z</time></trkpt><trkpt lat="40.9244967" lon="-0.0668517"><ele>548.0</ele><time>2026-03-31T11:22:12.157Z</time></trkpt><trkpt lat="40.9245117" lon="-0.0670433"><ele>548.0</ele><time>2026-03-31T11:22:13.157Z</time></trkpt><trkpt lat="40.9245317" lon="-0.0672183"><ele>548.0</ele><time>2026-03-31T11:22:14.157Z</time></trkpt><trkpt lat="40.924555" lon="-0.0673933"><ele>546.5</ele><time>2026-03-31T11:22:15.157Z</time></trkpt><trkpt lat="40.924585" lon="-0.0675733"><ele>545.0</ele><time>2026-03-31T11:22:16.157Z</time></trkpt><trkpt lat="40.9246217" lon="-0.06775"><ele>543.5</ele><time>2026-03-31T11:22:17.156Z</time></trkpt><trkpt lat="40.9246667" lon="-0.0679267"><ele>542.0</ele><time>2026-03-31T11:22:18.157Z</time></trkpt><trkpt lat="40.9247133" lon="-0.0680983"><ele>542.0</ele><time>2026-03-31T11:22:19.156Z</time></trkpt><trkpt lat="40.9247567" lon="-0.0682633"><ele>542.0</ele><time>2026-03-31T11:22:20.156Z</time></trkpt><trkpt lat="40.9247933" lon="-0.0684317"><ele>542.0</ele><time>2026-03-31T11:22:21.156Z</time></trkpt><trkpt lat="40.9248317" lon="-0.0686"><ele>542.0</ele><time>2026-03-31T11:22:22.156Z</time></trkpt><trkpt lat="40.9248717" lon="-0.0687717"><ele>541.5</ele><time>2026-03-31T11:22:23.156Z</time></trkpt><trkpt lat="40.92491" lon="-0.06894"><ele>541.0</ele><time>2026-03-31T11:22:24.156Z</time></trkpt><trkpt lat="40.9249467" lon="-0.0691"><ele>540.5</ele><time>2026-03-31T11:22:25.156Z</time></trkpt><trkpt lat="40.924985" lon="-0.0692467"><ele>540.0</ele><time>2026-03-31T11:22:26.156Z</time></trkpt><trkpt lat="40.92502" lon="-0.0694033"><ele>539.25</ele><time>2026-03-31T11:22:27.157Z</time></trkpt><trkpt lat="40.92506" lon="-0.069565"><ele>538.5</ele><time>2026-03-31T11:22:28.157Z</time></trkpt><trkpt lat="40.9251017" lon="-0.06973"><ele>537.75</ele><time>2026-03-31T11:22:29.157Z</time></trkpt><trkpt lat="40.9251483" lon="-0.0698983"><ele>537.0</ele><time>2026-03-31T11:22:30.157Z</time></trkpt><trkpt lat="40.9252017" lon="-0.0700783"><ele>534.75</ele><time>2026-03-31T11:22:31.157Z</time></trkpt><trkpt lat="40.9252667" lon="-0.0702433"><ele>532.5</ele><time>2026-03-31T11:22:32.156Z</time></trkpt><trkpt lat="40.9253483" lon="-0.0704117"><ele>530.25</ele><time>2026-03-31T11:22:33.156Z</time></trkpt><trkpt lat="40.9254417" lon="-0.070575"><ele>528.0</ele><time>2026-03-31T11:22:34.157Z</time></trkpt><trkpt lat="40.925535" lon="-0.0707367"><ele>527.5</ele><time>2026-03-31T11:22:35.156Z</time></trkpt><trkpt lat="40.9256183" lon="-0.0708967"><ele>527.0</ele><time>2026-03-31T11:22:36.157Z</time></trkpt><trkpt lat="40.9256983" lon="-0.07105"><ele>526.5</ele><time>2026-03-31T11:22:37.157Z</time></trkpt><trkpt lat="40.92578" lon="-0.0711967"><ele>526.0</ele><time>2026-03-31T11:22:38.156Z</time></trkpt><trkpt lat="40.9258633" lon="-0.0713417"><ele>525.0</ele><time>2026-03-31T11:22:39.157Z</time></trkpt><trkpt lat="40.9259433" lon="-0.0714683"><ele>524.0</ele><time>2026-03-31T11:22:40.157Z</time></trkpt><trkpt lat="40.9260233" lon="-0.071605"><ele>523.0</ele><time>2026-03-31T11:22:41.157Z</time></trkpt><trkpt lat="40.9261" lon="-0.07174"><ele>522.0</ele><time>2026-03-31T11:22:42.156Z</time></trkpt><trkpt lat="40.92616" lon="-0.071885"><ele>521.75</ele><time>2026-03-31T11:22:43.157Z</time></trkpt><trkpt lat="40.926205" lon="-0.072035"><ele>521.5</ele><time>2026-03-31T11:22:44.157Z</time></trkpt><trkpt lat="40.9262517" lon="-0.072195"><ele>521.25</ele><time>2026-03-31T11:22:45.157Z</time></trkpt><trkpt lat="40.926295" lon="-0.0723517"><ele>521.0</ele><time>2026-03-31T11:22:46.157Z</time></trkpt><trkpt lat="40.9263467" lon="-0.072505"><ele>520.5</ele><time>2026-03-31T11:22:47.156Z</time></trkpt><trkpt lat="40.9263983" lon="-0.07266"><ele>520.0</ele><time>2026-03-31T11:22:48.157Z</time></trkpt><trkpt lat="40.9264567" lon="-0.0728067"><ele>519.5</ele><time>2026-03-31T11:22:49.157Z</time></trkpt><trkpt lat="40.9265067" lon="-0.072955"><ele>519.0</ele><time>2026-03-31T11:22:50.156Z</time></trkpt><trkpt lat="40.926575" lon="-0.0731017"><ele>519.0</ele><time>2026-03-31T11:22:51.157Z</time></trkpt><trkpt lat="40.9266583" lon="-0.0732317"><ele>519.0</ele><time>2026-03-31T11:22:52.156Z</time></trkpt><trkpt lat="40.926765" lon="-0.073365"><ele>519.0</ele><time>2026-03-31T11:22:53.157Z</time></trkpt><trkpt lat="40.9268783" lon="-0.0734917"><ele>519.0</ele><time>2026-03-31T11:22:54.156Z</time></trkpt><trkpt lat="40.9269983" lon="-0.0735967"><ele>517.75</ele><time>2026-03-31T11:22:55.156Z</time></trkpt><trkpt lat="40.927115" lon="-0.0737033"><ele>516.5</ele><time>2026-03-31T11:22:56.157Z</time></trkpt><trkpt lat="40.9272333" lon="-0.0738083"><ele>515.25</ele><time>2026-03-31T11:22:57.156Z</time></trkpt><trkpt lat="40.9273667" lon="-0.0738817"><ele>514.0</ele><time>2026-03-31T11:22:58.156Z</time></trkpt><trkpt lat="40.9274967" lon="-0.0739233"><ele>514.5</ele><time>2026-03-31T11:22:59.156Z</time></trkpt><trkpt lat="40.92763" lon="-0.0739467"><ele>515.0</ele><time>2026-03-31T11:23:00.157Z</time></trkpt><trkpt lat="40.9277683" lon="-0.0739833"><ele>515.5</ele><time>2026-03-31T11:23:01.157Z</time></trkpt><trkpt lat="40.9279067" lon="-0.0740283"><ele>516.0</ele><time>2026-03-31T11:23:02.157Z</time></trkpt><trkpt lat="40.9280333" lon="-0.0741017"><ele>514.75</ele><time>2026-03-31T11:23:03.156Z</time></trkpt><trkpt lat="40.928145" lon="-0.0742"><ele>513.5</ele><time>2026-03-31T11:23:04.156Z</time></trkpt><trkpt lat="40.92824" lon="-0.074315"><ele>512.25</ele><time>2026-03-31T11:23:05.156Z</time></trkpt><trkpt lat="40.9283183" lon="-0.07443"><ele>511.0</ele><time>2026-03-31T11:23:06.156Z</time></trkpt><trkpt lat="40.928415" lon="-0.07452"><ele>511.0</ele><time>2026-03-31T11:23:07.156Z</time></trkpt><trkpt lat="40.9285367" lon="-0.074575"><ele>511.0</ele><time>2026-03-31T11:23:08.157Z</time></trkpt><trkpt lat="40.9286733" lon="-0.0746167"><ele>511.0</ele><time>2026-03-31T11:23:09.157Z</time></trkpt><trkpt lat="40.9288183" lon="-0.0746383"><ele>511.0</ele><time>2026-03-31T11:23:10.157Z</time></trkpt><trkpt lat="40.9289617" lon="-0.074665"><ele>511.0</ele><time>2026-03-31T11:23:11.156Z</time></trkpt><trkpt lat="40.9290917" lon="-0.0746883"><ele>511.0</ele><time>2026-03-31T11:23:12.157Z</time></trkpt><trkpt lat="40.92922" lon="-0.0747333"><ele>511.0</ele><time>2026-03-31T11:23:13.157Z</time></trkpt><trkpt lat="40.9293317" lon="-0.0747933"><ele>511.0</ele><time>2026-03-31T11:23:14.157Z</time></trkpt><trkpt lat="40.9294283" lon="-0.07488"><ele>510.75</ele><time>2026-03-31T11:23:15.156Z</time></trkpt><trkpt lat="40.92951" lon="-0.0749867"><ele>510.5</ele><time>2026-03-31T11:23:16.157Z</time></trkpt><trkpt lat="40.929595" lon="-0.07512"><ele>510.25</ele><time>2026-03-31T11:23:17.157Z</time></trkpt><trkpt lat="40.9296817" lon="-0.07526"><ele>510.0</ele><time>2026-03-31T11:23:18.157Z</time></trkpt><trkpt lat="40.9297683" lon="-0.0754033"><ele>510.0</ele><time>2026-03-31T11:23:19.157Z</time></trkpt><trkpt lat="40.929855" lon="-0.0755467"><ele>510.0</ele><time>2026-03-31T11:23:20.156Z</time></trkpt><trkpt lat="40.929945" lon="-0.075685"><ele>510.0</ele><time>2026-03-31T11:23:21.157Z</time></trkpt><trkpt lat="40.9300333" lon="-0.0758267"><ele>510.0</ele><time>2026-03-31T11:23:22.156Z</time></trkpt><trkpt lat="40.9301133" lon="-0.0759567"><ele>509.5</ele><time>2026-03-31T11:23:23.156Z</time></trkpt><trkpt lat="40.9301917" lon="-0.0760983"><ele>509.0</ele><time>2026-03-31T11:23:24.156Z</time></trkpt><trkpt lat="40.930265" lon="-0.076245"><ele>508.5</ele><time>2026-03-31T11:23:25.157Z</time></trkpt><trkpt lat="40.9303383" lon="-0.076395"><ele>508.0</ele><time>2026-03-31T11:23:26.156Z</time></trkpt><trkpt lat="40.9304233" lon="-0.0765533"><ele>507.0</ele><time>2026-03-31T11:23:27.156Z</time></trkpt><trkpt lat="40.93051" lon="-0.0766967"><ele>506.0</ele><time>2026-03-31T11:23:28.157Z</time></trkpt><trkpt lat="40.9305867" lon="-0.0768483"><ele>505.0</ele><time>2026-03-31T11:23:29.156Z</time></trkpt><trkpt lat="40.9306483" lon="-0.077015"><ele>504.0</ele><time>2026-03-31T11:23:30.156Z</time></trkpt><trkpt lat="40.9307067" lon="-0.07718"><ele>504.0</ele><time>2026-03-31T11:23:31.156Z</time></trkpt><trkpt lat="40.930765" lon="-0.07734"><ele>504.0</ele><time>2026-03-31T11:23:32.156Z</time></trkpt><trkpt lat="40.930835" lon="-0.0775"><ele>504.0</ele><time>2026-03-31T11:23:33.157Z</time></trkpt><trkpt lat="40.9309183" lon="-0.077645"><ele>504.0</ele><time>2026-03-31T11:23:34.157Z</time></trkpt><trkpt lat="40.931005" lon="-0.0777883"><ele>504.5</ele><time>2026-03-31T11:23:35.156Z</time></trkpt><trkpt lat="40.9310783" lon="-0.0779333"><ele>505.0</ele><time>2026-03-31T11:23:36.156Z</time></trkpt><trkpt lat="40.93113" lon="-0.078085"><ele>505.5</ele><time>2026-03-31T11:23:37.157Z</time></trkpt><trkpt lat="40.93116" lon="-0.07824"><ele>506.0</ele><time>2026-03-31T11:23:38.157Z</time></trkpt><trkpt lat="40.9311683" lon="-0.0784"><ele>506.0</ele><time>2026-03-31T11:23:39.156Z</time></trkpt><trkpt lat="40.9311667" lon="-0.07857"><ele>506.0</ele><time>2026-03-31T11:23:40.155Z</time></trkpt><trkpt lat="40.9311733" lon="-0.0787367"><ele>506.0</ele><time>2026-03-31T11:23:41.157Z</time></trkpt><trkpt lat="40.9312" lon="-0.0788933"><ele>506.0</ele><time>2026-03-31T11:23:42.156Z</time></trkpt><trkpt lat="40.93124" lon="-0.0790417"><ele>505.0</ele><time>2026-03-31T11:23:43.156Z</time></trkpt><trkpt lat="40.93129" lon="-0.0791917"><ele>504.0</ele><time>2026-03-31T11:23:44.157Z</time></trkpt><trkpt lat="40.93135" lon="-0.0793567"><ele>503.0</ele><time>2026-03-31T11:23:45.157Z</time></trkpt><trkpt lat="40.931415" lon="-0.0795217"><ele>502.0</ele><time>2026-03-31T11:23:46.157Z</time></trkpt><trkpt lat="40.931465" lon="-0.0796867"><ele>502.0</ele><time>2026-03-31T11:23:47.157Z</time></trkpt><trkpt lat="40.9315217" lon="-0.07984"><ele>502.0</ele><time>2026-03-31T11:23:48.156Z</time></trkpt><trkpt lat="40.9315983" lon="-0.07999"><ele>502.0</ele><time>2026-03-31T11:23:49.157Z</time></trkpt><trkpt lat="40.9316817" lon="-0.08013"><ele>502.0</ele><time>2026-03-31T11:23:50.156Z</time></trkpt><trkpt lat="40.9317767" lon="-0.080245"><ele>501.5</ele><time>2026-03-31T11:23:51.157Z</time></trkpt><trkpt lat="40.9318783" lon="-0.0803583"><ele>501.0</ele><time>2026-03-31T11:23:52.157Z</time></trkpt><trkpt lat="40.9319767" lon="-0.0804717"><ele>500.5</ele><time>2026-03-31T11:23:53.157Z</time></trkpt><trkpt lat="40.932055" lon="-0.0806017"><ele>500.0</ele><time>2026-03-31T11:23:54.156Z</time></trkpt><trkpt lat="40.9321083" lon="-0.080745"><ele>500.25</ele><time>2026-03-31T11:23:55.157Z</time></trkpt><trkpt lat="40.932165" lon="-0.0809017"><ele>500.5</ele><time>2026-03-31T11:23:56.156Z</time></trkpt><trkpt lat="40.9322133" lon="-0.081055"><ele>500.75</ele><time>2026-03-31T11:23:57.156Z</time></trkpt><trkpt lat="40.93225" lon="-0.081195"><ele>501.0</ele><time>2026-03-31T11:23:58.156Z</time></trkpt><trkpt lat="40.9322783" lon="-0.081325"><ele>501.0</ele><time>2026-03-31T11:23:59.156Z</time></trkpt><trkpt lat="40.9323" lon="-0.0814433"><ele>501.0</ele><time>2026-03-31T11:24:00.156Z</time></trkpt><trkpt lat="40.9323183" lon="-0.0815517"><ele>501.0</ele><time>2026-03-31T11:24:01.156Z</time></trkpt><trkpt lat="40.932335" lon="-0.0816617"><ele>501.0</ele><time>2026-03-31T11:24:02.156Z</time></trkpt><trkpt lat="40.9323533" lon="-0.0817667"><ele>501.0</ele><time>2026-03-31T11:24:03.156Z</time></trkpt><trkpt lat="40.9323583" lon="-0.0818667"><ele>501.0</ele><time>2026-03-31T11:24:04.157Z</time></trkpt><trkpt lat="40.93237" lon="-0.08197"><ele>501.0</ele><time>2026-03-31T11:24:05.157Z</time></trkpt><trkpt lat="40.9323967" lon="-0.08208"><ele>501.0</ele><time>2026-03-31T11:24:06.157Z</time></trkpt><trkpt lat="40.9324267" lon="-0.0821967"><ele>501.0</ele><time>2026-03-31T11:24:07.157Z</time></trkpt><trkpt lat="40.932465" lon="-0.0823217"><ele>501.0</ele><time>2026-03-31T11:24:08.157Z</time></trkpt><trkpt lat="40.9324983" lon="-0.08244"><ele>501.0</ele><time>2026-03-31T11:24:09.156Z</time></trkpt><trkpt lat="40.9325333" lon="-0.0825633"><ele>501.0</ele><time>2026-03-31T11:24:10.156Z</time></trkpt><trkpt lat="40.9325833" lon="-0.0826917"><ele>501.0</ele><time>2026-03-31T11:24:11.157Z</time></trkpt><trkpt lat="40.93262" lon="-0.08281"><ele>501.0</ele><time>2026-03-31T11:24:12.157Z</time></trkpt><trkpt lat="40.93266" lon="-0.0829167"><ele>501.0</ele><time>2026-03-31T11:24:13.156Z</time></trkpt><trkpt lat="40.932695" lon="-0.0830117"><ele>501.0</ele><time>2026-03-31T11:24:14.156Z</time></trkpt><trkpt lat="40.9327333" lon="-0.0831033"><ele>501.0</ele><time>2026-03-31T11:24:15.156Z</time></trkpt><trkpt lat="40.932775" lon="-0.0831867"><ele>501.0</ele><time>2026-03-31T11:24:16.156Z</time></trkpt><trkpt lat="40.9328133" lon="-0.083265"><ele>501.0</ele><time>2026-03-31T11:24:17.156Z</time></trkpt><trkpt lat="40.9328467" lon="-0.083345"><ele>501.0</ele><time>2026-03-31T11:24:18.157Z</time></trkpt><trkpt lat="40.9328833" lon="-0.0834367"><ele>501.0</ele><time>2026-03-31T11:24:19.156Z</time></trkpt><trkpt lat="40.9329217" lon="-0.0835233"><ele>501.0</ele><time>2026-03-31T11:24:20.156Z</time></trkpt><trkpt lat="40.93296" lon="-0.0836117"><ele>501.0</ele><time>2026-03-31T11:24:21.157Z</time></trkpt><trkpt lat="40.9329967" lon="-0.083695"><ele>501.14285714285717</ele><time>2026-03-31T11:24:22.156Z</time></trkpt><trkpt lat="40.9330233" lon="-0.0837783"><ele>501.2857142857142</ele><time>2026-03-31T11:24:23.156Z</time></trkpt><trkpt lat="40.933055" lon="-0.08386"><ele>501.4285714285714</ele><time>2026-03-31T11:24:24.157Z</time></trkpt><trkpt lat="40.933085" lon="-0.0839483"><ele>501.57142857142856</ele><time>2026-03-31T11:24:25.157Z</time></trkpt><trkpt lat="40.9331133" lon="-0.0840383"><ele>501.71428571428567</ele><time>2026-03-31T11:24:26.156Z</time></trkpt><trkpt lat="40.9331417" lon="-0.0841183"><ele>501.8571428571428</ele><time>2026-03-31T11:24:27.156Z</time></trkpt><trkpt lat="40.9331717" lon="-0.0842017"><ele>501.99999999999994</ele><time>2026-03-31T11:24:28.157Z</time></trkpt><trkpt lat="40.933205" lon="-0.0842767"><ele>502.33333333333337</ele><time>2026-03-31T11:24:29.156Z</time></trkpt><trkpt lat="40.9332667" lon="-0.084405"><ele>502.6666666666667</ele><time>2026-03-31T11:24:31.157Z</time></trkpt><trkpt lat="40.9333067" lon="-0.0844767"><ele>503.0</ele><time>2026-03-31T11:24:32.157Z</time></trkpt><trkpt lat="40.9333467" lon="-0.0845567"><ele>503.33333333333337</ele><time>2026-03-31T11:24:33.156Z</time></trkpt><trkpt lat="40.933395" lon="-0.0846233"><ele>503.6666666666667</ele><time>2026-03-31T11:24:34.157Z</time></trkpt><trkpt lat="40.9334467" lon="-0.08469"><ele>504.0</ele><time>2026-03-31T11:24:35.156Z</time></trkpt><trkpt lat="40.9335" lon="-0.0847533"><ele>503.0</ele><time>2026-03-31T11:24:36.157Z</time></trkpt><trkpt lat="40.93356" lon="-0.0848117"><ele>502.0</ele><time>2026-03-31T11:24:37.156Z</time></trkpt><trkpt lat="40.9336067" lon="-0.08489"><ele>501.0</ele><time>2026-03-31T11:24:38.156Z</time></trkpt><trkpt lat="40.9336533" lon="-0.0849733"><ele>500.0</ele><time>2026-03-31T11:24:39.156Z</time></trkpt><trkpt lat="40.9337117" lon="-0.085055"><ele>499.0</ele><time>2026-03-31T11:24:40.156Z</time></trkpt><trkpt lat="40.933775" lon="-0.0851217"><ele>498.0</ele><time>2026-03-31T11:24:41.156Z</time></trkpt><trkpt lat="40.9338417" lon="-0.0851867"><ele>498.0</ele><time>2026-03-31T11:24:42.156Z</time></trkpt><trkpt lat="40.9338933" lon="-0.085245"><ele>498.0</ele><time>2026-03-31T11:24:43.156Z</time></trkpt><trkpt lat="40.9339467" lon="-0.0853217"><ele>498.0</ele><time>2026-03-31T11:24:44.156Z</time></trkpt><trkpt lat="40.93399" lon="-0.0854017"><ele>498.0</ele><time>2026-03-31T11:24:45.157Z</time></trkpt><trkpt lat="40.9340367" lon="-0.0854883"><ele>498.0</ele><time>2026-03-31T11:24:46.157Z</time></trkpt><trkpt lat="40.9340917" lon="-0.0855717"><ele>498.0</ele><time>2026-03-31T11:24:47.157Z</time></trkpt><trkpt lat="40.93415" lon="-0.08566"><ele>498.0</ele><time>2026-03-31T11:24:48.156Z</time></trkpt><trkpt lat="40.9342133" lon="-0.0857333"><ele>498.0</ele><time>2026-03-31T11:24:49.157Z</time></trkpt><trkpt lat="40.9342717" lon="-0.085795"><ele>498.0</ele><time>2026-03-31T11:24:50.156Z</time></trkpt><trkpt lat="40.934325" lon="-0.0858483"><ele>498.0</ele><time>2026-03-31T11:24:51.157Z</time></trkpt><trkpt lat="40.93437" lon="-0.0859083"><ele>498.0</ele><time>2026-03-31T11:24:52.157Z</time></trkpt><trkpt lat="40.9344217" lon="-0.0860267"><ele>498.0</ele><time>2026-03-31T11:24:54.157Z</time></trkpt><trkpt lat="40.9344683" lon="-0.0861033"><ele>495.75</ele><time>2026-03-31T11:24:56.157Z</time></trkpt><trkpt lat="40.9345833" lon="-0.0861883"><ele>493.5</ele><time>2026-03-31T11:24:58.156Z</time></trkpt><trkpt lat="40.9346667" lon="-0.0862317"><ele>491.25</ele><time>2026-03-31T11:24:59.157Z</time></trkpt><trkpt lat="40.9347717" lon="-0.0862867"><ele>489.0</ele><time>2026-03-31T11:25:00.157Z</time></trkpt><trkpt lat="40.934885" lon="-0.08632"><ele>489.0</ele><time>2026-03-31T11:25:01.156Z</time></trkpt><trkpt lat="40.93501" lon="-0.0863567"><ele>489.0</ele><time>2026-03-31T11:25:02.156Z</time></trkpt><trkpt lat="40.9351417" lon="-0.086375"><ele>489.0</ele><time>2026-03-31T11:25:03.156Z</time></trkpt><trkpt lat="40.93528" lon="-0.0864117"><ele>489.0</ele><time>2026-03-31T11:25:04.156Z</time></trkpt><trkpt lat="40.9354133" lon="-0.0864267"><ele>488.75</ele><time>2026-03-31T11:25:05.156Z</time></trkpt><trkpt lat="40.935555" lon="-0.0864417"><ele>488.5</ele><time>2026-03-31T11:25:06.157Z</time></trkpt><trkpt lat="40.9356967" lon="-0.0864467"><ele>488.25</ele><time>2026-03-31T11:25:07.156Z</time></trkpt><trkpt lat="40.935825" lon="-0.0864617"><ele>488.0</ele><time>2026-03-31T11:25:08.157Z</time></trkpt><trkpt lat="40.9359483" lon="-0.08648"><ele>488.0</ele><time>2026-03-31T11:25:09.156Z</time></trkpt><trkpt lat="40.9360533" lon="-0.0864967"><ele>488.0</ele><time>2026-03-31T11:25:10.156Z</time></trkpt><trkpt lat="40.9361667" lon="-0.08651"><ele>488.0</ele><time>2026-03-31T11:25:11.157Z</time></trkpt><trkpt lat="40.9362817" lon="-0.0865367"><ele>488.0</ele><time>2026-03-31T11:25:12.156Z</time></trkpt><trkpt lat="40.9364033" lon="-0.0865683"><ele>488.0</ele><time>2026-03-31T11:25:13.156Z</time></trkpt><trkpt lat="40.9365033" lon="-0.0866033"><ele>487.99999999999994</ele><time>2026-03-31T11:25:14.157Z</time></trkpt><trkpt lat="40.936605" lon="-0.08665"><ele>487.99999999999994</ele><time>2026-03-31T11:25:15.157Z</time></trkpt><trkpt lat="40.9367" lon="-0.0866867"><ele>488.0</ele><time>2026-03-31T11:25:16.157Z</time></trkpt><trkpt lat="40.9367783" lon="-0.0867217"><ele>488.0</ele><time>2026-03-31T11:25:17.157Z</time></trkpt><trkpt lat="40.9368383" lon="-0.0867533"><ele>488.0</ele><time>2026-03-31T11:25:18.156Z</time></trkpt><trkpt lat="40.9368717" lon="-0.086845"><ele>487.99999999999994</ele><time>2026-03-31T11:25:20.156Z</time></trkpt><trkpt lat="40.9367883" lon="-0.0869667"><ele>487.99999999999994</ele><time>2026-03-31T11:25:22.157Z</time></trkpt><trkpt lat="40.93669" lon="-0.0870317"><ele>488.0</ele><time>2026-03-31T11:25:23.157Z</time></trkpt><trkpt lat="40.936575" lon="-0.087115"><ele>488.0</ele><time>2026-03-31T11:25:24.157Z</time></trkpt><trkpt lat="40.93647" lon="-0.0872167"><ele>487.0</ele><time>2026-03-31T11:25:25.156Z</time></trkpt><trkpt lat="40.9363733" lon="-0.087345"><ele>486.0</ele><time>2026-03-31T11:25:26.156Z</time></trkpt><trkpt lat="40.936285" lon="-0.0874883"><ele>485.0</ele><time>2026-03-31T11:25:27.156Z</time></trkpt><trkpt lat="40.9362017" lon="-0.0876517"><ele>484.0</ele><time>2026-03-31T11:25:28.156Z</time></trkpt><trkpt lat="40.9361383" lon="-0.0878367"><ele>482.6666666666667</ele><time>2026-03-31T11:25:29.156Z</time></trkpt><trkpt lat="40.9360967" lon="-0.088035"><ele>481.33333333333337</ele><time>2026-03-31T11:25:30.157Z</time></trkpt><trkpt lat="40.936085" lon="-0.0882483"><ele>480.0</ele><time>2026-03-31T11:25:31.157Z</time></trkpt><trkpt lat="40.93608" lon="-0.08847"><ele>480.0</ele><time>2026-03-31T11:25:32.156Z</time></trkpt><trkpt lat="40.9360817" lon="-0.0886917"><ele>480.0</ele><time>2026-03-31T11:25:33.156Z</time></trkpt><trkpt lat="40.93609" lon="-0.0889117"><ele>480.0</ele><time>2026-03-31T11:25:34.156Z</time></trkpt><trkpt lat="40.9361017" lon="-0.0891333"><ele>481.33333333333337</ele><time>2026-03-31T11:25:35.157Z</time></trkpt><trkpt lat="40.93611" lon="-0.0893317"><ele>482.6666666666667</ele><time>2026-03-31T11:25:36.156Z</time></trkpt><trkpt lat="40.9361167" lon="-0.08954"><ele>484.0</ele><time>2026-03-31T11:25:37.156Z</time></trkpt><trkpt lat="40.9361283" lon="-0.0897483"><ele>484.33333333333337</ele><time>2026-03-31T11:25:38.156Z</time></trkpt><trkpt lat="40.9361383" lon="-0.0899617"><ele>484.66666666666663</ele><time>2026-03-31T11:25:39.157Z</time></trkpt><trkpt lat="40.9361483" lon="-0.0901567"><ele>485.0</ele><time>2026-03-31T11:25:40.156Z</time></trkpt><trkpt lat="40.93616" lon="-0.0903567"><ele>485.0</ele><time>2026-03-31T11:25:41.156Z</time></trkpt><trkpt lat="40.9361717" lon="-0.0905467"><ele>485.0</ele><time>2026-03-31T11:25:42.156Z</time></trkpt><trkpt lat="40.93621" lon="-0.09075"><ele>485.0</ele><time>2026-03-31T11:25:43.156Z</time></trkpt><trkpt lat="40.936265" lon="-0.0909433"><ele>483.0</ele><time>2026-03-31T11:25:44.156Z</time></trkpt><trkpt lat="40.936345" lon="-0.0911333"><ele>481.0</ele><time>2026-03-31T11:25:45.157Z</time></trkpt><trkpt lat="40.9364467" lon="-0.0913217"><ele>479.0</ele><time>2026-03-31T11:25:46.156Z</time></trkpt><trkpt lat="40.9365667" lon="-0.0914667"><ele>477.0</ele><time>2026-03-31T11:25:47.156Z</time></trkpt><trkpt lat="40.9367" lon="-0.0915933"><ele>475.0</ele><time>2026-03-31T11:25:48.156Z</time></trkpt><trkpt lat="40.9368533" lon="-0.09171"><ele>473.0</ele><time>2026-03-31T11:25:49.156Z</time></trkpt><trkpt lat="40.9370167" lon="-0.0918217"><ele>473.0</ele><time>2026-03-31T11:25:50.156Z</time></trkpt><trkpt lat="40.93718" lon="-0.0919267"><ele>473.0</ele><time>2026-03-31T11:25:51.156Z</time></trkpt><trkpt lat="40.9373517" lon="-0.0920383"><ele>473.0</ele><time>2026-03-31T11:25:52.157Z</time></trkpt><trkpt lat="40.937525" lon="-0.0921567"><ele>471.0</ele><time>2026-03-31T11:25:53.157Z</time></trkpt><trkpt lat="40.9376833" lon="-0.09226"><ele>469.0</ele><time>2026-03-31T11:25:54.156Z</time></trkpt><trkpt lat="40.937845" lon="-0.0923633"><ele>467.0</ele><time>2026-03-31T11:25:55.157Z</time></trkpt><trkpt lat="40.9379983" lon="-0.0924583"><ele>467.0</ele><time>2026-03-31T11:25:56.157Z</time></trkpt><trkpt lat="40.9381317" lon="-0.0925867"><ele>467.0</ele><time>2026-03-31T11:25:57.156Z</time></trkpt><trkpt lat="40.9382333" lon="-0.092735"><ele>467.0</ele><time>2026-03-31T11:25:58.157Z</time></trkpt><trkpt lat="40.9383117" lon="-0.0928983"><ele>467.0</ele><time>2026-03-31T11:25:59.157Z</time></trkpt><trkpt lat="40.93835" lon="-0.0930967"><ele>467.0</ele><time>2026-03-31T11:26:00.156Z</time></trkpt><trkpt lat="40.938365" lon="-0.0933117"><ele>467.0</ele><time>2026-03-31T11:26:01.157Z</time></trkpt><trkpt lat="40.9383667" lon="-0.09353"><ele>464.66666666666663</ele><time>2026-03-31T11:26:02.156Z</time></trkpt><trkpt lat="40.9383983" lon="-0.0937417"><ele>462.33333333333337</ele><time>2026-03-31T11:26:03.156Z</time></trkpt><trkpt lat="40.9384567" lon="-0.0939367"><ele>460.0</ele><time>2026-03-31T11:26:04.156Z</time></trkpt><trkpt lat="40.93853" lon="-0.0941167"><ele>458.75</ele><time>2026-03-31T11:26:05.157Z</time></trkpt><trkpt lat="40.9386133" lon="-0.0942933"><ele>457.5</ele><time>2026-03-31T11:26:06.156Z</time></trkpt><trkpt lat="40.9386867" lon="-0.0944617"><ele>456.25</ele><time>2026-03-31T11:26:07.156Z</time></trkpt><trkpt lat="40.938755" lon="-0.09462"><ele>455.0</ele><time>2026-03-31T11:26:08.157Z</time></trkpt><trkpt lat="40.9388117" lon="-0.0947717"><ele>455.0</ele><time>2026-03-31T11:26:09.157Z</time></trkpt><trkpt lat="40.9388433" lon="-0.094915"><ele>455.0</ele><time>2026-03-31T11:26:10.156Z</time></trkpt><trkpt lat="40.938865" lon="-0.0950567"><ele>455.0</ele><time>2026-03-31T11:26:11.156Z</time></trkpt><trkpt lat="40.9388667" lon="-0.095215"><ele>455.0</ele><time>2026-03-31T11:26:12.156Z</time></trkpt><trkpt lat="40.9388517" lon="-0.0953867"><ele>454.25</ele><time>2026-03-31T11:26:13.157Z</time></trkpt><trkpt lat="40.938815" lon="-0.095555"><ele>453.5</ele><time>2026-03-31T11:26:14.156Z</time></trkpt><trkpt lat="40.938745" lon="-0.0957117"><ele>452.75</ele><time>2026-03-31T11:26:15.156Z</time></trkpt><trkpt lat="40.938645" lon="-0.095875"><ele>452.0</ele><time>2026-03-31T11:26:16.157Z</time></trkpt><trkpt lat="40.9385283" lon="-0.0960183"><ele>451.3333333333333</ele><time>2026-03-31T11:26:17.156Z</time></trkpt><trkpt lat="40.938395" lon="-0.0961267"><ele>450.66666666666663</ele><time>2026-03-31T11:26:18.156Z</time></trkpt><trkpt lat="40.93824" lon="-0.0961817"><ele>450.0</ele><time>2026-03-31T11:26:19.157Z</time></trkpt><trkpt lat="40.9380617" lon="-0.0962083"><ele>451.33333333333337</ele><time>2026-03-31T11:26:20.156Z</time></trkpt><trkpt lat="40.9378783" lon="-0.0962083"><ele>452.6666666666667</ele><time>2026-03-31T11:26:21.156Z</time></trkpt><trkpt lat="40.937695" lon="-0.096215"><ele>454.0</ele><time>2026-03-31T11:26:22.157Z</time></trkpt><trkpt lat="40.937515" lon="-0.0962133"><ele>454.6666666666667</ele><time>2026-03-31T11:26:23.157Z</time></trkpt><trkpt lat="40.9373433" lon="-0.0962083"><ele>455.33333333333337</ele><time>2026-03-31T11:26:24.156Z</time></trkpt><trkpt lat="40.9371917" lon="-0.096205"><ele>456.0</ele><time>2026-03-31T11:26:25.156Z</time></trkpt><trkpt lat="40.93706" lon="-0.0962283"><ele>456.0</ele><time>2026-03-31T11:26:26.157Z</time></trkpt><trkpt lat="40.93694" lon="-0.09627"><ele>456.0</ele><time>2026-03-31T11:26:27.156Z</time></trkpt><trkpt lat="40.93685" lon="-0.0963383"><ele>456.0</ele><time>2026-03-31T11:26:28.156Z</time></trkpt><trkpt lat="40.9368033" lon="-0.0964283"><ele>456.0</ele><time>2026-03-31T11:26:29.156Z</time></trkpt><trkpt lat="40.93679" lon="-0.0965533"><ele>456.0</ele><time>2026-03-31T11:26:30.156Z</time></trkpt><trkpt lat="40.9368183" lon="-0.0967"><ele>453.75</ele><time>2026-03-31T11:26:31.156Z</time></trkpt><trkpt lat="40.9368617" lon="-0.0968317"><ele>451.5</ele><time>2026-03-31T11:26:32.157Z</time></trkpt><trkpt lat="40.9369267" lon="-0.096945"><ele>449.25</ele><time>2026-03-31T11:26:33.156Z</time></trkpt><trkpt lat="40.9370117" lon="-0.0970367"><ele>447.0</ele><time>2026-03-31T11:26:34.157Z</time></trkpt><trkpt lat="40.9371383" lon="-0.0970883"><ele>447.0</ele><time>2026-03-31T11:26:35.157Z</time></trkpt><trkpt lat="40.93728" lon="-0.0971317"><ele>447.0</ele><time>2026-03-31T11:26:36.157Z</time></trkpt><trkpt lat="40.9374267" lon="-0.0971833"><ele>447.0</ele><time>2026-03-31T11:26:37.156Z</time></trkpt><trkpt lat="40.9375817" lon="-0.0972517"><ele>447.0</ele><time>2026-03-31T11:26:38.157Z</time></trkpt><trkpt lat="40.937745" lon="-0.0973233"><ele>447.0</ele><time>2026-03-31T11:26:39.157Z</time></trkpt><trkpt lat="40.9379117" lon="-0.0973817"><ele>447.0</ele><time>2026-03-31T11:26:40.157Z</time></trkpt><trkpt lat="40.938075" lon="-0.0974433"><ele>449.33333333333337</ele><time>2026-03-31T11:26:41.156Z</time></trkpt><trkpt lat="40.93825" lon="-0.0974883"><ele>451.6666666666667</ele><time>2026-03-31T11:26:42.157Z</time></trkpt><trkpt lat="40.9384283" lon="-0.0975017"><ele>454.0</ele><time>2026-03-31T11:26:43.157Z</time></trkpt><trkpt lat="40.9385883" lon="-0.0975017"><ele>454.0</ele><time>2026-03-31T11:26:44.156Z</time></trkpt><trkpt lat="40.9387467" lon="-0.097515"><ele>454.0</ele><time>2026-03-31T11:26:45.156Z</time></trkpt><trkpt lat="40.9388983" lon="-0.0975517"><ele>454.0</ele><time>2026-03-31T11:26:46.156Z</time></trkpt><trkpt lat="40.9390367" lon="-0.0976267"><ele>454.0</ele><time>2026-03-31T11:26:47.156Z</time></trkpt><trkpt lat="40.93915" lon="-0.0977383"><ele>454.0</ele><time>2026-03-31T11:26:48.156Z</time></trkpt><trkpt lat="40.93926" lon="-0.097885"><ele>454.0</ele><time>2026-03-31T11:26:49.156Z</time></trkpt><trkpt lat="40.9393217" lon="-0.0980717"><ele>455.6666666666667</ele><time>2026-03-31T11:26:50.156Z</time></trkpt><trkpt lat="40.9393683" lon="-0.098265"><ele>457.33333333333337</ele><time>2026-03-31T11:26:51.156Z</time></trkpt><trkpt lat="40.9393783" lon="-0.09848"><ele>459.0</ele><time>2026-03-31T11:26:52.156Z</time></trkpt><trkpt lat="40.9393633" lon="-0.098715"><ele>459.0</ele><time>2026-03-31T11:26:53.156Z</time></trkpt><trkpt lat="40.9393483" lon="-0.0989467"><ele>459.0</ele><time>2026-03-31T11:26:54.156Z</time></trkpt><trkpt lat="40.9393317" lon="-0.0991917"><ele>459.0</ele><time>2026-03-31T11:26:55.156Z</time></trkpt><trkpt lat="40.93931" lon="-0.09943"><ele>464.0</ele><time>2026-03-31T11:26:56.157Z</time></trkpt><trkpt lat="40.9393033" lon="-0.0996783"><ele>469.0</ele><time>2026-03-31T11:26:57.157Z</time></trkpt><trkpt lat="40.9392933" lon="-0.0999333"><ele>474.0</ele><time>2026-03-31T11:26:58.157Z</time></trkpt><trkpt lat="40.939285" lon="-0.100185"><ele>476.0</ele><time>2026-03-31T11:26:59.157Z</time></trkpt><trkpt lat="40.93926" lon="-0.1004233"><ele>478.0</ele><time>2026-03-31T11:27:00.156Z</time></trkpt><trkpt lat="40.939215" lon="-0.1006617"><ele>480.0</ele><time>2026-03-31T11:27:01.157Z</time></trkpt><trkpt lat="40.939145" lon="-0.1008767"><ele>481.66666666666663</ele><time>2026-03-31T11:27:02.157Z</time></trkpt><trkpt lat="40.9390567" lon="-0.10108"><ele>483.3333333333333</ele><time>2026-03-31T11:27:03.156Z</time></trkpt><trkpt lat="40.9389383" lon="-0.1012517"><ele>485.0</ele><time>2026-03-31T11:27:04.157Z</time></trkpt><trkpt lat="40.938795" lon="-0.1014017"><ele>485.0</ele><time>2026-03-31T11:27:05.156Z</time></trkpt><trkpt lat="40.938665" lon="-0.1015517"><ele>485.0</ele><time>2026-03-31T11:27:06.154Z</time></trkpt><trkpt lat="40.938555" lon="-0.101715"><ele>485.0</ele><time>2026-03-31T11:27:07.156Z</time></trkpt><trkpt lat="40.9384767" lon="-0.1019033"><ele>485.3333333333333</ele><time>2026-03-31T11:27:08.156Z</time></trkpt><trkpt lat="40.9384283" lon="-0.1021183"><ele>485.66666666666663</ele><time>2026-03-31T11:27:09.157Z</time></trkpt><trkpt lat="40.9384067" lon="-0.10234"><ele>486.0</ele><time>2026-03-31T11:27:10.156Z</time></trkpt><trkpt lat="40.9384017" lon="-0.1025583"><ele>484.33333333333337</ele><time>2026-03-31T11:27:11.156Z</time></trkpt><trkpt lat="40.9384267" lon="-0.10278"><ele>482.6666666666667</ele><time>2026-03-31T11:27:12.156Z</time></trkpt><trkpt lat="40.9384833" lon="-0.103"><ele>481.0</ele><time>2026-03-31T11:27:13.156Z</time></trkpt><trkpt lat="40.9385617" lon="-0.1032"><ele>482.0</ele><time>2026-03-31T11:27:14.156Z</time></trkpt><trkpt lat="40.9386617" lon="-0.1034"><ele>483.0</ele><time>2026-03-31T11:27:15.157Z</time></trkpt><trkpt lat="40.9387667" lon="-0.1035983"><ele>484.0</ele><time>2026-03-31T11:27:16.156Z</time></trkpt><trkpt lat="40.9388733" lon="-0.1038017"><ele>484.0</ele><time>2026-03-31T11:27:17.157Z</time></trkpt><trkpt lat="40.9389617" lon="-0.1040117"><ele>484.0</ele><time>2026-03-31T11:27:18.157Z</time></trkpt><trkpt lat="40.9390317" lon="-0.10424"><ele>484.0</ele><time>2026-03-31T11:27:19.156Z</time></trkpt><trkpt lat="40.9390733" lon="-0.10448"><ele>485.0</ele><time>2026-03-31T11:27:20.157Z</time></trkpt><trkpt lat="40.93911" lon="-0.1047217"><ele>486.0</ele><time>2026-03-31T11:27:21.156Z</time></trkpt><trkpt lat="40.939145" lon="-0.1049467"><ele>487.0</ele><time>2026-03-31T11:27:22.157Z</time></trkpt><trkpt lat="40.9391783" lon="-0.1051517"><ele>487.0</ele><time>2026-03-31T11:27:23.157Z</time></trkpt><trkpt lat="40.93921" lon="-0.10534"><ele>487.00000000000006</ele><time>2026-03-31T11:27:24.156Z</time></trkpt><trkpt lat="40.9392333" lon="-0.1054783"><ele>487.00000000000006</ele><time>2026-03-31T11:27:25.157Z</time></trkpt><trkpt lat="40.93924" lon="-0.1055833"><ele>487.0</ele><time>2026-03-31T11:27:26.157Z</time></trkpt><trkpt lat="40.93922" lon="-0.1057183"><ele>487.0</ele><time>2026-03-31T11:27:28.157Z</time></trkpt><trkpt lat="40.9391467" lon="-0.10572"><ele>487.00000000000006</ele><time>2026-03-31T11:27:31.156Z</time></trkpt><trkpt lat="40.93907" lon="-0.1056917"><ele>487.0</ele><time>2026-03-31T11:27:34.157Z</time></trkpt><trkpt lat="40.9391333" lon="-0.1057017"><ele>487.0</ele><time>2026-03-31T11:30:27.156Z</time></trkpt><trkpt lat="40.93921" lon="-0.1056983"><ele>487.0</ele><time>2026-03-31T11:30:29.155Z</time></trkpt><trkpt lat="40.9392717" lon="-0.1057733"><ele>487.00000000000006</ele><time>2026-03-31T11:30:31.155Z</time></trkpt><trkpt lat="40.93929" lon="-0.1058633"><ele>487.0</ele><time>2026-03-31T11:30:32.155Z</time></trkpt><trkpt lat="40.9393067" lon="-0.1059633"><ele>486.8</ele><time>2026-03-31T11:30:33.156Z</time></trkpt><trkpt lat="40.939325" lon="-0.1060783"><ele>486.6</ele><time>2026-03-31T11:30:34.155Z</time></trkpt><trkpt lat="40.93934" lon="-0.106205"><ele>486.40000000000003</ele><time>2026-03-31T11:30:35.155Z</time></trkpt><trkpt lat="40.9393617" lon="-0.1063417"><ele>486.20000000000005</ele><time>2026-03-31T11:30:36.155Z</time></trkpt><trkpt lat="40.9393883" lon="-0.106485"><ele>486.0</ele><time>2026-03-31T11:30:37.155Z</time></trkpt><trkpt lat="40.9394183" lon="-0.1066333"><ele>486.0</ele><time>2026-03-31T11:30:38.156Z</time></trkpt><trkpt lat="40.9394483" lon="-0.1067733"><ele>486.0</ele><time>2026-03-31T11:30:39.155Z</time></trkpt><trkpt lat="40.9394917" lon="-0.1069083"><ele>486.0</ele><time>2026-03-31T11:30:40.155Z</time></trkpt><trkpt lat="40.9395517" lon="-0.1070367"><ele>486.0</ele><time>2026-03-31T11:30:41.155Z</time></trkpt><trkpt lat="40.9396283" lon="-0.1071667"><ele>486.0</ele><time>2026-03-31T11:30:42.155Z</time></trkpt><trkpt lat="40.9397167" lon="-0.1072917"><ele>486.0</ele><time>2026-03-31T11:30:43.155Z</time></trkpt><trkpt lat="40.939805" lon="-0.1074233"><ele>486.0</ele><time>2026-03-31T11:30:44.155Z</time></trkpt><trkpt lat="40.9398833" lon="-0.1075267"><ele>486.0</ele><time>2026-03-31T11:30:45.155Z</time></trkpt><trkpt lat="40.9399483" lon="-0.1076183"><ele>486.0</ele><time>2026-03-31T11:30:46.155Z</time></trkpt><trkpt lat="40.9399983" lon="-0.1076883"><ele>486.0</ele><time>2026-03-31T11:30:47.155Z</time></trkpt><trkpt lat="40.940035" lon="-0.107765"><ele>486.0</ele><time>2026-03-31T11:30:48.155Z</time></trkpt><trkpt lat="40.9400817" lon="-0.1078517"><ele>486.0</ele><time>2026-03-31T11:30:50.155Z</time></trkpt><trkpt lat="40.9400417" lon="-0.107945"><ele>486.0</ele><time>2026-03-31T11:30:53.155Z</time></trkpt><trkpt lat="40.9399217" lon="-0.108005"><ele>486.0</ele><time>2026-03-31T11:30:55.156Z</time></trkpt><trkpt lat="40.9398333" lon="-0.1080217"><ele>486.75</ele><time>2026-03-31T11:30:56.156Z</time></trkpt><trkpt lat="40.9397183" lon="-0.10804"><ele>487.5</ele><time>2026-03-31T11:30:57.156Z</time></trkpt><trkpt lat="40.9395917" lon="-0.1080617"><ele>488.25</ele><time>2026-03-31T11:30:58.155Z</time></trkpt><trkpt lat="40.9394583" lon="-0.1081"><ele>489.0</ele><time>2026-03-31T11:30:59.155Z</time></trkpt><trkpt lat="40.939325" lon="-0.1081317"><ele>491.0</ele><time>2026-03-31T11:31:00.155Z</time></trkpt><trkpt lat="40.9391817" lon="-0.1081617"><ele>493.0</ele><time>2026-03-31T11:31:01.156Z</time></trkpt><trkpt lat="40.9390283" lon="-0.1081883"><ele>495.0</ele><time>2026-03-31T11:31:02.155Z</time></trkpt><trkpt lat="40.938865" lon="-0.108215"><ele>496.66666666666663</ele><time>2026-03-31T11:31:03.156Z</time></trkpt><trkpt lat="40.9386983" lon="-0.10825"><ele>498.3333333333333</ele><time>2026-03-31T11:31:04.156Z</time></trkpt><trkpt lat="40.9385217" lon="-0.1082917"><ele>500.0</ele><time>2026-03-31T11:31:05.155Z</time></trkpt><trkpt lat="40.9383417" lon="-0.1083417"><ele>502.66666666666663</ele><time>2026-03-31T11:31:06.155Z</time></trkpt><trkpt lat="40.9381583" lon="-0.1083883"><ele>505.33333333333337</ele><time>2026-03-31T11:31:07.155Z</time></trkpt><trkpt lat="40.9379667" lon="-0.108435"><ele>508.0</ele><time>2026-03-31T11:31:08.156Z</time></trkpt><trkpt lat="40.937765" lon="-0.1084833"><ele>508.0</ele><time>2026-03-31T11:31:09.156Z</time></trkpt><trkpt lat="40.9375633" lon="-0.108535"><ele>508.0</ele><time>2026-03-31T11:31:10.156Z</time></trkpt><trkpt lat="40.93735" lon="-0.1085983"><ele>508.0</ele><time>2026-03-31T11:31:11.155Z</time></trkpt><trkpt lat="40.937145" lon="-0.108665"><ele>510.6666666666667</ele><time>2026-03-31T11:31:12.155Z</time></trkpt><trkpt lat="40.93693" lon="-0.1087417"><ele>513.3333333333334</ele><time>2026-03-31T11:31:13.156Z</time></trkpt><trkpt lat="40.9367117" lon="-0.1088183"><ele>516.0</ele><time>2026-03-31T11:31:14.156Z</time></trkpt><trkpt lat="40.9365033" lon="-0.1089"><ele>517.0</ele><time>2026-03-31T11:31:15.155Z</time></trkpt><trkpt lat="40.9362933" lon="-0.108985"><ele>518.0</ele><time>2026-03-31T11:31:16.156Z</time></trkpt><trkpt lat="40.93608" lon="-0.1090767"><ele>519.0</ele><time>2026-03-31T11:31:17.156Z</time></trkpt><trkpt lat="40.9358683" lon="-0.1091717"><ele>521.5</ele><time>2026-03-31T11:31:18.155Z</time></trkpt><trkpt lat="40.9356517" lon="-0.1092667"><ele>524.0</ele><time>2026-03-31T11:31:19.156Z</time></trkpt><trkpt lat="40.9354383" lon="-0.1093733"><ele>524.0</ele><time>2026-03-31T11:31:20.155Z</time></trkpt><trkpt lat="40.93523" lon="-0.1094767"><ele>524.0</ele><time>2026-03-31T11:31:21.155Z</time></trkpt><trkpt lat="40.9350117" lon="-0.109585"><ele>522.5</ele><time>2026-03-31T11:31:22.155Z</time></trkpt><trkpt lat="40.934805" lon="-0.1096967"><ele>521.0</ele><time>2026-03-31T11:31:23.155Z</time></trkpt><trkpt lat="40.9345883" lon="-0.1098083"><ele>521.5</ele><time>2026-03-31T11:31:24.155Z</time></trkpt><trkpt lat="40.9343733" lon="-0.1099117"><ele>522.0</ele><time>2026-03-31T11:31:25.155Z</time></trkpt><trkpt lat="40.9341567" lon="-0.1100133"><ele>522.5</ele><time>2026-03-31T11:31:26.155Z</time></trkpt><trkpt lat="40.9339383" lon="-0.110115"><ele>523.0</ele><time>2026-03-31T11:31:27.155Z</time></trkpt><trkpt lat="40.93373" lon="-0.1102283"><ele>523.0</ele><time>2026-03-31T11:31:28.155Z</time></trkpt><trkpt lat="40.93352" lon="-0.1103283"><ele>523.0</ele><time>2026-03-31T11:31:29.156Z</time></trkpt><trkpt lat="40.9333083" lon="-0.1104317"><ele>523.0</ele><time>2026-03-31T11:31:30.155Z</time></trkpt><trkpt lat="40.9330917" lon="-0.1105233"><ele>523.5</ele><time>2026-03-31T11:31:31.155Z</time></trkpt><trkpt lat="40.932875" lon="-0.11063"><ele>524.0</ele><time>2026-03-31T11:31:32.156Z</time></trkpt><trkpt lat="40.93266" lon="-0.1107283"><ele>523.3333333333333</ele><time>2026-03-31T11:31:33.156Z</time></trkpt><trkpt lat="40.932455" lon="-0.1108283"><ele>522.6666666666666</ele><time>2026-03-31T11:31:34.156Z</time></trkpt><trkpt lat="40.9322433" lon="-0.1109317"><ele>522.0</ele><time>2026-03-31T11:31:35.155Z</time></trkpt><trkpt lat="40.9320383" lon="-0.1110333"><ele>522.0</ele><time>2026-03-31T11:31:36.155Z</time></trkpt><trkpt lat="40.931835" lon="-0.1111383"><ele>522.0</ele><time>2026-03-31T11:31:37.155Z</time></trkpt><trkpt lat="40.9316383" lon="-0.1112283"><ele>522.0</ele><time>2026-03-31T11:31:38.155Z</time></trkpt><trkpt lat="40.93144" lon="-0.1113267"><ele>523.0</ele><time>2026-03-31T11:31:39.156Z</time></trkpt><trkpt lat="40.9312417" lon="-0.1114167"><ele>524.0</ele><time>2026-03-31T11:31:40.155Z</time></trkpt><trkpt lat="40.9310283" lon="-0.1114833"><ele>525.0</ele><time>2026-03-31T11:31:41.156Z</time></trkpt><trkpt lat="40.9308" lon="-0.1115417"><ele>526.5</ele><time>2026-03-31T11:31:42.155Z</time></trkpt><trkpt lat="40.9305717" lon="-0.1115833"><ele>528.0</ele><time>2026-03-31T11:31:43.155Z</time></trkpt><trkpt lat="40.930345" lon="-0.1116117"><ele>528.0</ele><time>2026-03-31T11:31:44.156Z</time></trkpt><trkpt lat="40.9301167" lon="-0.1116233"><ele>528.0</ele><time>2026-03-31T11:31:45.155Z</time></trkpt><trkpt lat="40.9298867" lon="-0.1116133"><ele>527.0</ele><time>2026-03-31T11:31:46.156Z</time></trkpt><trkpt lat="40.9296583" lon="-0.1115883"><ele>526.0</ele><time>2026-03-31T11:31:47.155Z</time></trkpt><trkpt lat="40.9294283" lon="-0.1115383"><ele>529.0</ele><time>2026-03-31T11:31:48.155Z</time></trkpt><trkpt lat="40.929195" lon="-0.1114867"><ele>532.0</ele><time>2026-03-31T11:31:49.155Z</time></trkpt><trkpt lat="40.9289483" lon="-0.1114133"><ele>532.0</ele><time>2026-03-31T11:31:50.155Z</time></trkpt><trkpt lat="40.9286967" lon="-0.1113283"><ele>532.0</ele><time>2026-03-31T11:31:51.156Z</time></trkpt><trkpt lat="40.9284433" lon="-0.1112483"><ele>533.5</ele><time>2026-03-31T11:31:52.155Z</time></trkpt><trkpt lat="40.928185" lon="-0.1111667"><ele>535.0</ele><time>2026-03-31T11:31:53.156Z</time></trkpt><trkpt lat="40.9279317" lon="-0.1110867"><ele>535.0</ele><time>2026-03-31T11:31:54.156Z</time></trkpt><trkpt lat="40.9276717" lon="-0.1110083"><ele>535.0</ele><time>2026-03-31T11:31:55.156Z</time></trkpt><trkpt lat="40.9274133" lon="-0.110925"><ele>536.0</ele><time>2026-03-31T11:31:56.156Z</time></trkpt><trkpt lat="40.9271517" lon="-0.110845"><ele>537.0</ele><time>2026-03-31T11:31:57.155Z</time></trkpt><trkpt lat="40.9268967" lon="-0.11077"><ele>537.5</ele><time>2026-03-31T11:31:58.155Z</time></trkpt><trkpt lat="40.92664" lon="-0.11069"><ele>538.0</ele><time>2026-03-31T11:31:59.155Z</time></trkpt><trkpt lat="40.9263867" lon="-0.110605"><ele>538.0</ele><time>2026-03-31T11:32:00.155Z</time></trkpt><trkpt lat="40.926135" lon="-0.1105233"><ele>538.0</ele><time>2026-03-31T11:32:01.155Z</time></trkpt><trkpt lat="40.92588" lon="-0.11045"><ele>538.5</ele><time>2026-03-31T11:32:02.155Z</time></trkpt><trkpt lat="40.925625" lon="-0.1103783"><ele>539.0</ele><time>2026-03-31T11:32:03.155Z</time></trkpt><trkpt lat="40.9253783" lon="-0.110315"><ele>539.0</ele><time>2026-03-31T11:32:04.156Z</time></trkpt><trkpt lat="40.9251317" lon="-0.1102617"><ele>539.0</ele><time>2026-03-31T11:32:05.156Z</time></trkpt><trkpt lat="40.9248817" lon="-0.11023"><ele>539.5</ele><time>2026-03-31T11:32:06.155Z</time></trkpt><trkpt lat="40.9246433" lon="-0.1102167"><ele>540.0</ele><time>2026-03-31T11:32:07.156Z</time></trkpt><trkpt lat="40.9244017" lon="-0.1102283"><ele>542.5</ele><time>2026-03-31T11:32:08.155Z</time></trkpt><trkpt lat="40.9241633" lon="-0.1102617"><ele>545.0</ele><time>2026-03-31T11:32:09.156Z</time></trkpt><trkpt lat="40.923925" lon="-0.110315"><ele>545.0</ele><time>2026-03-31T11:32:10.156Z</time></trkpt><trkpt lat="40.9236783" lon="-0.110385"><ele>545.0</ele><time>2026-03-31T11:32:11.155Z</time></trkpt><trkpt lat="40.923425" lon="-0.11047"><ele>546.5</ele><time>2026-03-31T11:32:12.156Z</time></trkpt><trkpt lat="40.92317" lon="-0.1105783"><ele>548.0</ele><time>2026-03-31T11:32:13.155Z</time></trkpt><trkpt lat="40.92293" lon="-0.1107"><ele>547.0</ele><time>2026-03-31T11:32:14.156Z</time></trkpt><trkpt lat="40.922695" lon="-0.1108433"><ele>546.0</ele><time>2026-03-31T11:32:15.155Z</time></trkpt><trkpt lat="40.922475" lon="-0.1109983"><ele>546.0</ele><time>2026-03-31T11:32:16.156Z</time></trkpt><trkpt lat="40.9222433" lon="-0.111135"><ele>546.0</ele><time>2026-03-31T11:32:17.155Z</time></trkpt><trkpt lat="40.922005" lon="-0.1112567"><ele>546.0</ele><time>2026-03-31T11:32:18.155Z</time></trkpt><trkpt lat="40.92177" lon="-0.1113667"><ele>546.0</ele><time>2026-03-31T11:32:19.155Z</time></trkpt><trkpt lat="40.92153" lon="-0.111455"><ele>543.5</ele><time>2026-03-31T11:32:20.156Z</time></trkpt><trkpt lat="40.9212717" lon="-0.111505"><ele>541.0</ele><time>2026-03-31T11:32:21.155Z</time></trkpt><trkpt lat="40.921015" lon="-0.1115217"><ele>541.5</ele><time>2026-03-31T11:32:22.155Z</time></trkpt><trkpt lat="40.9207733" lon="-0.1115133"><ele>542.0</ele><time>2026-03-31T11:32:23.155Z</time></trkpt><trkpt lat="40.9205317" lon="-0.111475"><ele>542.0</ele><time>2026-03-31T11:32:24.156Z</time></trkpt><trkpt lat="40.9202867" lon="-0.1114033"><ele>542.0</ele><time>2026-03-31T11:32:25.156Z</time></trkpt><trkpt lat="40.9200467" lon="-0.111305"><ele>545.0</ele><time>2026-03-31T11:32:26.155Z</time></trkpt><trkpt lat="40.9198117" lon="-0.1111883"><ele>548.0</ele><time>2026-03-31T11:32:27.156Z</time></trkpt><trkpt lat="40.9195967" lon="-0.1110583"><ele>548.0</ele><time>2026-03-31T11:32:28.155Z</time></trkpt><trkpt lat="40.9193783" lon="-0.1109083"><ele>548.0</ele><time>2026-03-31T11:32:29.155Z</time></trkpt><trkpt lat="40.9191583" lon="-0.1107533"><ele>551.0</ele><time>2026-03-31T11:32:30.156Z</time></trkpt><trkpt lat="40.9189333" lon="-0.110585"><ele>554.0</ele><time>2026-03-31T11:32:31.155Z</time></trkpt><trkpt lat="40.9187083" lon="-0.1104233"><ele>554.0</ele><time>2026-03-31T11:32:32.155Z</time></trkpt><trkpt lat="40.9184867" lon="-0.1102717"><ele>554.0</ele><time>2026-03-31T11:32:33.155Z</time></trkpt><trkpt lat="40.9182583" lon="-0.1101217"><ele>554.5</ele><time>2026-03-31T11:32:34.156Z</time></trkpt><trkpt lat="40.9180367" lon="-0.1099717"><ele>555.0</ele><time>2026-03-31T11:32:35.155Z</time></trkpt><trkpt lat="40.917805" lon="-0.1098133"><ele>555.0</ele><time>2026-03-31T11:32:36.156Z</time></trkpt><trkpt lat="40.9175717" lon="-0.109655"><ele>555.0</ele><time>2026-03-31T11:32:37.155Z</time></trkpt><trkpt lat="40.917345" lon="-0.1094983"><ele>557.0</ele><time>2026-03-31T11:32:38.156Z</time></trkpt><trkpt lat="40.9171183" lon="-0.1093467"><ele>559.0</ele><time>2026-03-31T11:32:39.155Z</time></trkpt><trkpt lat="40.9168933" lon="-0.1091983"><ele>561.5</ele><time>2026-03-31T11:32:40.155Z</time></trkpt><trkpt lat="40.916675" lon="-0.109045"><ele>564.0</ele><time>2026-03-31T11:32:41.155Z</time></trkpt><trkpt lat="40.9164583" lon="-0.1089"><ele>564.0</ele><time>2026-03-31T11:32:42.156Z</time></trkpt><trkpt lat="40.9162433" lon="-0.1087583"><ele>564.0</ele><time>2026-03-31T11:32:43.156Z</time></trkpt><trkpt lat="40.9160283" lon="-0.1086133"><ele>567.0</ele><time>2026-03-31T11:32:44.155Z</time></trkpt><trkpt lat="40.9158083" lon="-0.108485"><ele>570.0</ele><time>2026-03-31T11:32:45.156Z</time></trkpt><trkpt lat="40.9155867" lon="-0.1083767"><ele>570.0</ele><time>2026-03-31T11:32:46.155Z</time></trkpt><trkpt lat="40.9153567" lon="-0.1082867"><ele>570.0</ele><time>2026-03-31T11:32:47.155Z</time></trkpt><trkpt lat="40.9151183" lon="-0.1082117"><ele>570.5</ele><time>2026-03-31T11:32:48.156Z</time></trkpt><trkpt lat="40.9148817" lon="-0.108155"><ele>571.0</ele><time>2026-03-31T11:32:49.155Z</time></trkpt><trkpt lat="40.9146433" lon="-0.1081433"><ele>571.0</ele><time>2026-03-31T11:32:50.156Z</time></trkpt><trkpt lat="40.9144133" lon="-0.1081617"><ele>571.0</ele><time>2026-03-31T11:32:51.155Z</time></trkpt><trkpt lat="40.9141817" lon="-0.1082117"><ele>573.5</ele><time>2026-03-31T11:32:52.155Z</time></trkpt><trkpt lat="40.913955" lon="-0.1082633"><ele>576.0</ele><time>2026-03-31T11:32:53.155Z</time></trkpt><trkpt lat="40.91372" lon="-0.108315"><ele>576.0</ele><time>2026-03-31T11:32:54.156Z</time></trkpt><trkpt lat="40.913485" lon="-0.1083667"><ele>576.0</ele><time>2026-03-31T11:32:55.155Z</time></trkpt><trkpt lat="40.913245" lon="-0.108405"><ele>577.5</ele><time>2026-03-31T11:32:56.155Z</time></trkpt><trkpt lat="40.9130117" lon="-0.1084433"><ele>579.0</ele><time>2026-03-31T11:32:57.155Z</time></trkpt><trkpt lat="40.9127883" lon="-0.1084817"><ele>579.5</ele><time>2026-03-31T11:32:58.156Z</time></trkpt><trkpt lat="40.9125617" lon="-0.1085183"><ele>580.0</ele><time>2026-03-31T11:32:59.155Z</time></trkpt><trkpt lat="40.912335" lon="-0.1085383"><ele>580.0</ele><time>2026-03-31T11:33:00.155Z</time></trkpt><trkpt lat="40.9121133" lon="-0.108555"><ele>580.0</ele><time>2026-03-31T11:33:01.156Z</time></trkpt><trkpt lat="40.911895" lon="-0.10855"><ele>580.0</ele><time>2026-03-31T11:33:02.155Z</time></trkpt><trkpt lat="40.91169" lon="-0.1085467"><ele>581.0</ele><time>2026-03-31T11:33:03.155Z</time></trkpt><trkpt lat="40.9115" lon="-0.10856"><ele>582.0</ele><time>2026-03-31T11:33:04.155Z</time></trkpt><trkpt lat="40.91132" lon="-0.1085683"><ele>583.0</ele><time>2026-03-31T11:33:05.156Z</time></trkpt><trkpt lat="40.9111467" lon="-0.1085933"><ele>583.0</ele><time>2026-03-31T11:33:06.155Z</time></trkpt><trkpt lat="40.9109683" lon="-0.1086317"><ele>583.0</ele><time>2026-03-31T11:33:07.156Z</time></trkpt><trkpt lat="40.9107917" lon="-0.1086583"><ele>583.0</ele><time>2026-03-31T11:33:08.155Z</time></trkpt><trkpt lat="40.9106217" lon="-0.1086783"><ele>583.0</ele><time>2026-03-31T11:33:09.156Z</time></trkpt><trkpt lat="40.91046" lon="-0.1086933"><ele>583.0</ele><time>2026-03-31T11:33:10.155Z</time></trkpt><trkpt lat="40.9103133" lon="-0.1087117"><ele>583.0</ele><time>2026-03-31T11:33:11.156Z</time></trkpt><trkpt lat="40.910175" lon="-0.1087367"><ele>583.0</ele><time>2026-03-31T11:33:12.156Z</time></trkpt><trkpt lat="40.9100467" lon="-0.1087733"><ele>583.3333333333334</ele><time>2026-03-31T11:33:13.155Z</time></trkpt><trkpt lat="40.909935" lon="-0.1088033"><ele>583.6666666666667</ele><time>2026-03-31T11:33:14.155Z</time></trkpt><trkpt lat="40.9098433" lon="-0.108835"><ele>584.0</ele><time>2026-03-31T11:33:15.156Z</time></trkpt><trkpt lat="40.9097683" lon="-0.1088667"><ele>584.3333333333334</ele><time>2026-03-31T11:33:16.155Z</time></trkpt><trkpt lat="40.9097233" lon="-0.1089333"><ele>584.6666666666666</ele><time>2026-03-31T11:33:17.156Z</time></trkpt><trkpt lat="40.9097017" lon="-0.1090183"><ele>585.0</ele><time>2026-03-31T11:33:18.155Z</time></trkpt><trkpt lat="40.90972" lon="-0.1091267"><ele>585.5</ele><time>2026-03-31T11:33:19.155Z</time></trkpt><trkpt lat="40.9097717" lon="-0.109245"><ele>586.0</ele><time>2026-03-31T11:33:20.156Z</time></trkpt><trkpt lat="40.9098483" lon="-0.109375"><ele>586.5</ele><time>2026-03-31T11:33:21.156Z</time></trkpt><trkpt lat="40.9099433" lon="-0.109525"><ele>587.0</ele><time>2026-03-31T11:33:22.155Z</time></trkpt><trkpt lat="40.9100333" lon="-0.1096833"><ele>586.6666666666666</ele><time>2026-03-31T11:33:23.155Z</time></trkpt><trkpt lat="40.9101317" lon="-0.1098467"><ele>586.3333333333334</ele><time>2026-03-31T11:33:24.155Z</time></trkpt><trkpt lat="40.910245" lon="-0.1099983"><ele>586.0</ele><time>2026-03-31T11:33:25.156Z</time></trkpt><trkpt lat="40.910355" lon="-0.1101483"><ele>586.0</ele><time>2026-03-31T11:33:26.156Z</time></trkpt><trkpt lat="40.910455" lon="-0.1103117"><ele>586.0</ele><time>2026-03-31T11:33:27.156Z</time></trkpt><trkpt lat="40.9105533" lon="-0.1104667"><ele>586.0</ele><time>2026-03-31T11:33:28.155Z</time></trkpt><trkpt lat="40.9106483" lon="-0.1105933"><ele>586.0</ele><time>2026-03-31T11:33:29.155Z</time></trkpt><trkpt lat="40.9107417" lon="-0.1107"><ele>585.5</ele><time>2026-03-31T11:33:30.156Z</time></trkpt><trkpt lat="40.91085" lon="-0.110795"><ele>585.0</ele><time>2026-03-31T11:33:31.155Z</time></trkpt><trkpt lat="40.9109717" lon="-0.1108533"><ele>584.5</ele><time>2026-03-31T11:33:32.156Z</time></trkpt><trkpt lat="40.9111117" lon="-0.1109017"><ele>584.0</ele><time>2026-03-31T11:33:33.155Z</time></trkpt><trkpt lat="40.91126" lon="-0.110945"><ele>583.75</ele><time>2026-03-31T11:33:34.156Z</time></trkpt><trkpt lat="40.9114033" lon="-0.11099"><ele>583.5</ele><time>2026-03-31T11:33:35.155Z</time></trkpt><trkpt lat="40.9115467" lon="-0.11103"><ele>583.25</ele><time>2026-03-31T11:33:36.155Z</time></trkpt><trkpt lat="40.911685" lon="-0.111075"><ele>583.0</ele><time>2026-03-31T11:33:37.156Z</time></trkpt><trkpt lat="40.9118283" lon="-0.1111083"><ele>581.25</ele><time>2026-03-31T11:33:38.156Z</time></trkpt><trkpt lat="40.9119633" lon="-0.11109"><ele>579.5</ele><time>2026-03-31T11:33:39.155Z</time></trkpt><trkpt lat="40.9120867" lon="-0.1110317"><ele>577.75</ele><time>2026-03-31T11:33:40.155Z</time></trkpt><trkpt lat="40.91219" lon="-0.1109483"><ele>576.0</ele><time>2026-03-31T11:33:41.155Z</time></trkpt><trkpt lat="40.912285" lon="-0.11086"><ele>576.0</ele><time>2026-03-31T11:33:42.155Z</time></trkpt><trkpt lat="40.912385" lon="-0.1108033"><ele>576.0</ele><time>2026-03-31T11:33:43.156Z</time></trkpt><trkpt lat="40.9125017" lon="-0.1108117"><ele>576.0</ele><time>2026-03-31T11:33:44.156Z</time></trkpt><trkpt lat="40.9126083" lon="-0.1108617"><ele>576.0</ele><time>2026-03-31T11:33:45.155Z</time></trkpt><trkpt lat="40.9127083" lon="-0.11094"><ele>574.75</ele><time>2026-03-31T11:33:46.155Z</time></trkpt><trkpt lat="40.9128117" lon="-0.1110167"><ele>573.5</ele><time>2026-03-31T11:33:47.155Z</time></trkpt><trkpt lat="40.9129417" lon="-0.1110767"><ele>572.25</ele><time>2026-03-31T11:33:48.156Z</time></trkpt><trkpt lat="40.9130733" lon="-0.11114"><ele>571.0</ele><time>2026-03-31T11:33:49.155Z</time></trkpt><trkpt lat="40.9131967" lon="-0.111225"><ele>571.0</ele><time>2026-03-31T11:33:50.155Z</time></trkpt><trkpt lat="40.9133167" lon="-0.111315"><ele>571.0</ele><time>2026-03-31T11:33:51.156Z</time></trkpt><trkpt lat="40.9134433" lon="-0.1114067"><ele>571.0</ele><time>2026-03-31T11:33:52.155Z</time></trkpt><trkpt lat="40.9135617" lon="-0.1114767"><ele>571.0</ele><time>2026-03-31T11:33:53.155Z</time></trkpt><trkpt lat="40.9136817" lon="-0.1115167"><ele>570.5</ele><time>2026-03-31T11:33:54.156Z</time></trkpt><trkpt lat="40.9138083" lon="-0.111575"><ele>570.0</ele><time>2026-03-31T11:33:55.156Z</time></trkpt><trkpt lat="40.913925" lon="-0.1116467"><ele>569.5</ele><time>2026-03-31T11:33:56.155Z</time></trkpt><trkpt lat="40.914035" lon="-0.1117217"><ele>569.0</ele><time>2026-03-31T11:33:57.155Z</time></trkpt><trkpt lat="40.914125" lon="-0.111845"><ele>569.0</ele><time>2026-03-31T11:33:58.155Z</time></trkpt><trkpt lat="40.9141967" lon="-0.1119633"><ele>569.0</ele><time>2026-03-31T11:33:59.156Z</time></trkpt><trkpt lat="40.9142517" lon="-0.1121067"><ele>569.0</ele><time>2026-03-31T11:34:00.156Z</time></trkpt><trkpt lat="40.91429" lon="-0.112255"><ele>569.0</ele><time>2026-03-31T11:34:01.155Z</time></trkpt><trkpt lat="40.9143383" lon="-0.1123883"><ele>568.2</ele><time>2026-03-31T11:34:02.156Z</time></trkpt><trkpt lat="40.914415" lon="-0.1124767"><ele>567.4</ele><time>2026-03-31T11:34:03.155Z</time></trkpt><trkpt lat="40.9145017" lon="-0.1125317"><ele>566.6</ele><time>2026-03-31T11:34:04.155Z</time></trkpt><trkpt lat="40.9145867" lon="-0.1125383"><ele>565.8</ele><time>2026-03-31T11:34:05.156Z</time></trkpt><trkpt lat="40.9146817" lon="-0.1125283"><ele>565.0</ele><time>2026-03-31T11:34:06.155Z</time></trkpt><trkpt lat="40.914785" lon="-0.1125317"><ele>565.0</ele><time>2026-03-31T11:34:07.156Z</time></trkpt><trkpt lat="40.9148833" lon="-0.112555"><ele>565.0</ele><time>2026-03-31T11:34:08.155Z</time></trkpt><trkpt lat="40.9149867" lon="-0.1125833"><ele>565.0</ele><time>2026-03-31T11:34:09.155Z</time></trkpt><trkpt lat="40.9150883" lon="-0.1126283"><ele>565.0</ele><time>2026-03-31T11:34:10.155Z</time></trkpt><trkpt lat="40.915195" lon="-0.1127033"><ele>565.0</ele><time>2026-03-31T11:34:11.155Z</time></trkpt><trkpt lat="40.915295" lon="-0.1128033"><ele>563.75</ele><time>2026-03-31T11:34:12.155Z</time></trkpt><trkpt lat="40.9153867" lon="-0.1129317"><ele>562.5</ele><time>2026-03-31T11:34:13.156Z</time></trkpt><trkpt lat="40.9154767" lon="-0.1130817"><ele>561.25</ele><time>2026-03-31T11:34:14.156Z</time></trkpt><trkpt lat="40.9155417" lon="-0.11325"><ele>560.0</ele><time>2026-03-31T11:34:15.156Z</time></trkpt><trkpt lat="40.9155983" lon="-0.1133917"><ele>560.0</ele><time>2026-03-31T11:34:16.155Z</time></trkpt><trkpt lat="40.9156617" lon="-0.1135067"><ele>560.0</ele><time>2026-03-31T11:34:17.156Z</time></trkpt><trkpt lat="40.91576" lon="-0.11359"><ele>560.0</ele><time>2026-03-31T11:34:18.156Z</time></trkpt><trkpt lat="40.9158633" lon="-0.113635"><ele>560.0</ele><time>2026-03-31T11:34:19.155Z</time></trkpt><trkpt lat="40.915975" lon="-0.1136667"><ele>560.0</ele><time>2026-03-31T11:34:20.155Z</time></trkpt><trkpt lat="40.9160883" lon="-0.1137083"><ele>558.0</ele><time>2026-03-31T11:34:21.155Z</time></trkpt><trkpt lat="40.916205" lon="-0.1137383"><ele>556.0</ele><time>2026-03-31T11:34:22.156Z</time></trkpt><trkpt lat="40.9163283" lon="-0.1137483"><ele>554.0</ele><time>2026-03-31T11:34:23.155Z</time></trkpt><trkpt lat="40.9164317" lon="-0.11375"><ele>552.0</ele><time>2026-03-31T11:34:24.156Z</time></trkpt><trkpt lat="40.9165083" lon="-0.1137567"><ele>550.0</ele><time>2026-03-31T11:34:25.155Z</time></trkpt><trkpt lat="40.9165767" lon="-0.11379"><ele>550.0</ele><time>2026-03-31T11:34:26.156Z</time></trkpt><trkpt lat="40.9166233" lon="-0.1138483"><ele>550.0</ele><time>2026-03-31T11:34:27.155Z</time></trkpt><trkpt lat="40.916665" lon="-0.1139933"><ele>550.0</ele><time>2026-03-31T11:34:29.155Z</time></trkpt><trkpt lat="40.9166683" lon="-0.1140917"><ele>550.0</ele><time>2026-03-31T11:34:30.156Z</time></trkpt><trkpt lat="40.9166783" lon="-0.1142183"><ele>550.0</ele><time>2026-03-31T11:34:31.155Z</time></trkpt><trkpt lat="40.91669" lon="-0.1143617"><ele>550.0</ele><time>2026-03-31T11:34:32.155Z</time></trkpt><trkpt lat="40.9167217" lon="-0.1145083"><ele>550.0</ele><time>2026-03-31T11:34:33.155Z</time></trkpt><trkpt lat="40.916765" lon="-0.1146517"><ele>550.0</ele><time>2026-03-31T11:34:34.155Z</time></trkpt><trkpt lat="40.9168033" lon="-0.11479"><ele>550.0</ele><time>2026-03-31T11:34:35.156Z</time></trkpt><trkpt lat="40.9168367" lon="-0.1149417"><ele>550.0</ele><time>2026-03-31T11:34:36.155Z</time></trkpt><trkpt lat="40.9168633" lon="-0.1150883"><ele>550.0</ele><time>2026-03-31T11:34:37.156Z</time></trkpt><trkpt lat="40.9169133" lon="-0.1152217"><ele>550.0</ele><time>2026-03-31T11:34:38.155Z</time></trkpt><trkpt lat="40.91698" lon="-0.1153517"><ele>550.0</ele><time>2026-03-31T11:34:39.156Z</time></trkpt><trkpt lat="40.917065" lon="-0.1154583"><ele>550.0</ele><time>2026-03-31T11:34:40.155Z</time></trkpt><trkpt lat="40.9171633" lon="-0.1155483"><ele>550.0</ele><time>2026-03-31T11:34:41.156Z</time></trkpt><trkpt lat="40.9172583" lon="-0.11566"><ele>550.0</ele><time>2026-03-31T11:34:42.155Z</time></trkpt><trkpt lat="40.91734" lon="-0.1157883"><ele>550.0</ele><time>2026-03-31T11:34:43.155Z</time></trkpt><trkpt lat="40.9174267" lon="-0.115925"><ele>548.75</ele><time>2026-03-31T11:34:44.155Z</time></trkpt><trkpt lat="40.917515" lon="-0.116055"><ele>547.5</ele><time>2026-03-31T11:34:45.156Z</time></trkpt><trkpt lat="40.917605" lon="-0.1161767"><ele>546.25</ele><time>2026-03-31T11:34:46.155Z</time></trkpt><trkpt lat="40.9177033" lon="-0.1162717"><ele>545.0</ele><time>2026-03-31T11:34:47.155Z</time></trkpt><trkpt lat="40.9178117" lon="-0.1163633"><ele>543.8</ele><time>2026-03-31T11:34:48.155Z</time></trkpt><trkpt lat="40.9179117" lon="-0.1164467"><ele>542.6</ele><time>2026-03-31T11:34:49.155Z</time></trkpt><trkpt lat="40.91801" lon="-0.11648"><ele>541.4</ele><time>2026-03-31T11:34:50.155Z</time></trkpt><trkpt lat="40.918115" lon="-0.1164733"><ele>540.2</ele><time>2026-03-31T11:34:51.155Z</time></trkpt><trkpt lat="40.9182167" lon="-0.116405"><ele>539.0</ele><time>2026-03-31T11:34:52.155Z</time></trkpt><trkpt lat="40.918315" lon="-0.1163167"><ele>539.0</ele><time>2026-03-31T11:34:53.156Z</time></trkpt><trkpt lat="40.91841" lon="-0.1162367"><ele>539.0</ele><time>2026-03-31T11:34:54.155Z</time></trkpt><trkpt lat="40.9184967" lon="-0.116185"><ele>539.0</ele><time>2026-03-31T11:34:55.156Z</time></trkpt><trkpt lat="40.91859" lon="-0.11616"><ele>539.0</ele><time>2026-03-31T11:34:56.156Z</time></trkpt><trkpt lat="40.9186917" lon="-0.1161833"><ele>539.0</ele><time>2026-03-31T11:34:57.156Z</time></trkpt><trkpt lat="40.91878" lon="-0.1162417"><ele>539.0</ele><time>2026-03-31T11:34:58.155Z</time></trkpt><trkpt lat="40.9188517" lon="-0.11634"><ele>539.0</ele><time>2026-03-31T11:34:59.156Z</time></trkpt><trkpt lat="40.9189083" lon="-0.11646"><ele>539.0</ele><time>2026-03-31T11:35:00.156Z</time></trkpt><trkpt lat="40.918955" lon="-0.1166"><ele>539.0</ele><time>2026-03-31T11:35:01.155Z</time></trkpt><trkpt lat="40.9189983" lon="-0.1167517"><ele>539.0</ele><time>2026-03-31T11:35:02.155Z</time></trkpt><trkpt lat="40.91901" lon="-0.1169233"><ele>539.0</ele><time>2026-03-31T11:35:03.155Z</time></trkpt><trkpt lat="40.9190183" lon="-0.1171033"><ele>539.0</ele><time>2026-03-31T11:35:04.155Z</time></trkpt><trkpt lat="40.9190133" lon="-0.1172933"><ele>539.0</ele><time>2026-03-31T11:35:05.155Z</time></trkpt><trkpt lat="40.9190133" lon="-0.11748"><ele>539.0</ele><time>2026-03-31T11:35:06.156Z</time></trkpt><trkpt lat="40.9190183" lon="-0.11767"><ele>539.0</ele><time>2026-03-31T11:35:07.155Z</time></trkpt><trkpt lat="40.91904" lon="-0.1178583"><ele>539.0</ele><time>2026-03-31T11:35:08.155Z</time></trkpt><trkpt lat="40.9190733" lon="-0.1180167"><ele>539.0</ele><time>2026-03-31T11:35:09.155Z</time></trkpt><trkpt lat="40.91913" lon="-0.118145"><ele>539.0</ele><time>2026-03-31T11:35:10.155Z</time></trkpt><trkpt lat="40.9192233" lon="-0.118275"><ele>538.25</ele><time>2026-03-31T11:35:11.155Z</time></trkpt><trkpt lat="40.9193267" lon="-0.1184033"><ele>537.5</ele><time>2026-03-31T11:35:12.156Z</time></trkpt><trkpt lat="40.9194233" lon="-0.1185433"><ele>536.75</ele><time>2026-03-31T11:35:13.156Z</time></trkpt><trkpt lat="40.9195167" lon="-0.1186767"><ele>536.0</ele><time>2026-03-31T11:35:14.156Z</time></trkpt><trkpt lat="40.9196033" lon="-0.1188033"><ele>536.0</ele><time>2026-03-31T11:35:15.156Z</time></trkpt><trkpt lat="40.9196933" lon="-0.1189217"><ele>536.0</ele><time>2026-03-31T11:35:16.155Z</time></trkpt><trkpt lat="40.9197983" lon="-0.119015"><ele>536.0</ele><time>2026-03-31T11:35:17.156Z</time></trkpt><trkpt lat="40.9199117" lon="-0.119065"><ele>536.0</ele><time>2026-03-31T11:35:18.156Z</time></trkpt><trkpt lat="40.92003" lon="-0.1190667"><ele>534.75</ele><time>2026-03-31T11:35:19.155Z</time></trkpt><trkpt lat="40.9201517" lon="-0.1190567"><ele>533.5</ele><time>2026-03-31T11:35:20.155Z</time></trkpt><trkpt lat="40.9202683" lon="-0.1190533"><ele>532.25</ele><time>2026-03-31T11:35:21.156Z</time></trkpt><trkpt lat="40.9203767" lon="-0.11909"><ele>531.0</ele><time>2026-03-31T11:35:22.155Z</time></trkpt><trkpt lat="40.9204767" lon="-0.1191633"><ele>530.75</ele><time>2026-03-31T11:35:23.156Z</time></trkpt><trkpt lat="40.9205917" lon="-0.119265"><ele>530.5</ele><time>2026-03-31T11:35:24.155Z</time></trkpt><trkpt lat="40.9207067" lon="-0.1193683"><ele>530.25</ele><time>2026-03-31T11:35:25.156Z</time></trkpt><trkpt lat="40.92083" lon="-0.1194483"><ele>530.0</ele><time>2026-03-31T11:35:26.156Z</time></trkpt><trkpt lat="40.920965" lon="-0.119505"><ele>529.25</ele><time>2026-03-31T11:35:27.156Z</time></trkpt><trkpt lat="40.921095" lon="-0.1195467"><ele>528.5</ele><time>2026-03-31T11:35:28.155Z</time></trkpt><trkpt lat="40.9212183" lon="-0.1196033"><ele>527.75</ele><time>2026-03-31T11:35:29.156Z</time></trkpt><trkpt lat="40.9213383" lon="-0.11969"><ele>527.0</ele><time>2026-03-31T11:35:30.156Z</time></trkpt><trkpt lat="40.9214683" lon="-0.1197633"><ele>527.0</ele><time>2026-03-31T11:35:31.155Z</time></trkpt><trkpt lat="40.9216117" lon="-0.119795"><ele>527.0</ele><time>2026-03-31T11:35:32.155Z</time></trkpt><trkpt lat="40.92176" lon="-0.119805"><ele>527.0</ele><time>2026-03-31T11:35:33.156Z</time></trkpt><trkpt lat="40.9218983" lon="-0.119815"><ele>527.0</ele><time>2026-03-31T11:35:34.155Z</time></trkpt><trkpt lat="40.9220367" lon="-0.1198283"><ele>527.0</ele><time>2026-03-31T11:35:35.155Z</time></trkpt><trkpt lat="40.9221533" lon="-0.11987"><ele>527.0</ele><time>2026-03-31T11:35:36.156Z</time></trkpt><trkpt lat="40.9222517" lon="-0.1199317"><ele>527.0</ele><time>2026-03-31T11:35:37.155Z</time></trkpt><trkpt lat="40.9223233" lon="-0.1200067"><ele>527.0</ele><time>2026-03-31T11:35:38.155Z</time></trkpt><trkpt lat="40.92239" lon="-0.1201067"><ele>527.0</ele><time>2026-03-31T11:35:39.155Z</time></trkpt><trkpt lat="40.9224417" lon="-0.1202383"><ele>527.0</ele><time>2026-03-31T11:35:40.155Z</time></trkpt><trkpt lat="40.9224817" lon="-0.1203767"><ele>527.0</ele><time>2026-03-31T11:35:41.156Z</time></trkpt><trkpt lat="40.9225367" lon="-0.120535"><ele>527.0</ele><time>2026-03-31T11:35:42.156Z</time></trkpt><trkpt lat="40.9225917" lon="-0.1206933"><ele>527.0</ele><time>2026-03-31T11:35:43.155Z</time></trkpt><trkpt lat="40.9226633" lon="-0.1208433"><ele>527.0</ele><time>2026-03-31T11:35:44.156Z</time></trkpt><trkpt lat="40.9227433" lon="-0.1209783"><ele>527.0</ele><time>2026-03-31T11:35:45.156Z</time></trkpt><trkpt lat="40.9228233" lon="-0.121095"><ele>527.0</ele><time>2026-03-31T11:35:46.155Z</time></trkpt><trkpt lat="40.9228983" lon="-0.12122"><ele>527.0</ele><time>2026-03-31T11:35:47.155Z</time></trkpt><trkpt lat="40.9229533" lon="-0.1213617"><ele>527.0</ele><time>2026-03-31T11:35:48.155Z</time></trkpt><trkpt lat="40.922985" lon="-0.1215083"><ele>527.0</ele><time>2026-03-31T11:35:49.156Z</time></trkpt><trkpt lat="40.9229967" lon="-0.12167"><ele>527.0</ele><time>2026-03-31T11:35:50.155Z</time></trkpt><trkpt lat="40.9230133" lon="-0.12182"><ele>527.0</ele><time>2026-03-31T11:35:51.155Z</time></trkpt><trkpt lat="40.923055" lon="-0.1219433"><ele>527.0</ele><time>2026-03-31T11:35:52.155Z</time></trkpt><trkpt lat="40.9231317" lon="-0.12203"><ele>527.0</ele><time>2026-03-31T11:35:53.156Z</time></trkpt><trkpt lat="40.9232283" lon="-0.1220733"><ele>527.0</ele><time>2026-03-31T11:35:54.155Z</time></trkpt><trkpt lat="40.923325" lon="-0.1221217"><ele>527.0</ele><time>2026-03-31T11:35:55.156Z</time></trkpt><trkpt lat="40.92342" lon="-0.1222067"><ele>527.0</ele><time>2026-03-31T11:35:56.156Z</time></trkpt><trkpt lat="40.9234967" lon="-0.1223283"><ele>525.75</ele><time>2026-03-31T11:35:57.156Z</time></trkpt><trkpt lat="40.9235583" lon="-0.12248"><ele>524.5</ele><time>2026-03-31T11:35:58.156Z</time></trkpt><trkpt lat="40.9236167" lon="-0.122635"><ele>523.25</ele><time>2026-03-31T11:35:59.156Z</time></trkpt><trkpt lat="40.9236733" lon="-0.1227933"><ele>522.0</ele><time>2026-03-31T11:36:00.155Z</time></trkpt><trkpt lat="40.9237317" lon="-0.1229533"><ele>522.0</ele><time>2026-03-31T11:36:01.155Z</time></trkpt><trkpt lat="40.9237883" lon="-0.123115"><ele>522.0</ele><time>2026-03-31T11:36:02.155Z</time></trkpt><trkpt lat="40.9238533" lon="-0.1232717"><ele>522.0</ele><time>2026-03-31T11:36:03.155Z</time></trkpt><trkpt lat="40.9239167" lon="-0.123435"><ele>522.0</ele><time>2026-03-31T11:36:04.155Z</time></trkpt><trkpt lat="40.9239817" lon="-0.123595"><ele>523.0</ele><time>2026-03-31T11:36:05.155Z</time></trkpt><trkpt lat="40.9240367" lon="-0.123755"><ele>524.0</ele><time>2026-03-31T11:36:06.156Z</time></trkpt><trkpt lat="40.9240817" lon="-0.1239267"><ele>525.0</ele><time>2026-03-31T11:36:07.156Z</time></trkpt><trkpt lat="40.9241017" lon="-0.1241083"><ele>526.0</ele><time>2026-03-31T11:36:08.156Z</time></trkpt><trkpt lat="40.9241133" lon="-0.1242967"><ele>526.3333333333334</ele><time>2026-03-31T11:36:09.155Z</time></trkpt><trkpt lat="40.92411" lon="-0.1245"><ele>526.6666666666666</ele><time>2026-03-31T11:36:10.155Z</time></trkpt><trkpt lat="40.9241183" lon="-0.1246983"><ele>527.0</ele><time>2026-03-31T11:36:11.155Z</time></trkpt><trkpt lat="40.9241217" lon="-0.1248983"><ele>527.0</ele><time>2026-03-31T11:36:12.155Z</time></trkpt><trkpt lat="40.9241367" lon="-0.1250967"><ele>527.0</ele><time>2026-03-31T11:36:13.155Z</time></trkpt><trkpt lat="40.9241483" lon="-0.1253083"><ele>527.0</ele><time>2026-03-31T11:36:14.155Z</time></trkpt><trkpt lat="40.924165" lon="-0.125515"><ele>527.0</ele><time>2026-03-31T11:36:15.156Z</time></trkpt><trkpt lat="40.9241817" lon="-0.1257167"><ele>527.0</ele><time>2026-03-31T11:36:16.156Z</time></trkpt><trkpt lat="40.9241867" lon="-0.1259167"><ele>527.0</ele><time>2026-03-31T11:36:17.155Z</time></trkpt><trkpt lat="40.9241967" lon="-0.1261167"><ele>528.0</ele><time>2026-03-31T11:36:18.155Z</time></trkpt><trkpt lat="40.9242017" lon="-0.126325"><ele>529.0</ele><time>2026-03-31T11:36:19.156Z</time></trkpt><trkpt lat="40.9242083" lon="-0.1265217"><ele>530.0</ele><time>2026-03-31T11:36:20.156Z</time></trkpt><trkpt lat="40.9242117" lon="-0.12672"><ele>530.0</ele><time>2026-03-31T11:36:21.155Z</time></trkpt><trkpt lat="40.924225" lon="-0.1269267"><ele>530.0</ele><time>2026-03-31T11:36:22.155Z</time></trkpt><trkpt lat="40.9242333" lon="-0.1271367"><ele>530.0</ele><time>2026-03-31T11:36:23.155Z</time></trkpt><trkpt lat="40.9242383" lon="-0.1273317"><ele>528.5</ele><time>2026-03-31T11:36:24.156Z</time></trkpt><trkpt lat="40.92424" lon="-0.1275183"><ele>527.0</ele><time>2026-03-31T11:36:25.155Z</time></trkpt><trkpt lat="40.9242417" lon="-0.1276967"><ele>525.5</ele><time>2026-03-31T11:36:26.155Z</time></trkpt><trkpt lat="40.9242567" lon="-0.1278683"><ele>524.0</ele><time>2026-03-31T11:36:27.156Z</time></trkpt><trkpt lat="40.9242883" lon="-0.1280367"><ele>524.0</ele><time>2026-03-31T11:36:28.155Z</time></trkpt><trkpt lat="40.9243217" lon="-0.1281867"><ele>524.0</ele><time>2026-03-31T11:36:29.155Z</time></trkpt><trkpt lat="40.9243517" lon="-0.1283267"><ele>524.0</ele><time>2026-03-31T11:36:30.155Z</time></trkpt><trkpt lat="40.9243917" lon="-0.1284417"><ele>524.0</ele><time>2026-03-31T11:36:31.156Z</time></trkpt><trkpt lat="40.92441" lon="-0.1285367"><ele>524.0</ele><time>2026-03-31T11:36:32.155Z</time></trkpt><trkpt lat="40.924395" lon="-0.12862"><ele>524.5</ele><time>2026-03-31T11:36:33.156Z</time></trkpt><trkpt lat="40.9243517" lon="-0.128695"><ele>525.0</ele><time>2026-03-31T11:36:34.155Z</time></trkpt><trkpt lat="40.924275" lon="-0.12873"><ele>525.5</ele><time>2026-03-31T11:36:35.156Z</time></trkpt><trkpt lat="40.9241767" lon="-0.1287583"><ele>526.0</ele><time>2026-03-31T11:36:36.155Z</time></trkpt><trkpt lat="40.9240967" lon="-0.1288183"><ele>526.5</ele><time>2026-03-31T11:36:37.156Z</time></trkpt><trkpt lat="40.9240583" lon="-0.1289033"><ele>527.0</ele><time>2026-03-31T11:36:38.155Z</time></trkpt><trkpt lat="40.924045" lon="-0.1290033"><ele>525.6</ele><time>2026-03-31T11:36:39.155Z</time></trkpt><trkpt lat="40.924045" lon="-0.12912"><ele>524.2</ele><time>2026-03-31T11:36:40.155Z</time></trkpt><trkpt lat="40.92406" lon="-0.1292483"><ele>522.8</ele><time>2026-03-31T11:36:41.155Z</time></trkpt><trkpt lat="40.9240467" lon="-0.1293717"><ele>521.4</ele><time>2026-03-31T11:36:42.155Z</time></trkpt><trkpt lat="40.92401" lon="-0.1294917"><ele>520.0</ele><time>2026-03-31T11:36:43.155Z</time></trkpt><trkpt lat="40.9239733" lon="-0.1296133"><ele>520.0</ele><time>2026-03-31T11:36:44.155Z</time></trkpt><trkpt lat="40.923945" lon="-0.129735"><ele>520.0</ele><time>2026-03-31T11:36:45.155Z</time></trkpt><trkpt lat="40.9239467" lon="-0.1298633"><ele>520.0</ele><time>2026-03-31T11:36:46.155Z</time></trkpt><trkpt lat="40.9239817" lon="-0.1299833"><ele>520.0</ele><time>2026-03-31T11:36:47.156Z</time></trkpt><trkpt lat="40.9240267" lon="-0.1300817"><ele>520.0</ele><time>2026-03-31T11:36:48.156Z</time></trkpt><trkpt lat="40.9240883" lon="-0.1301583"><ele>519.5</ele><time>2026-03-31T11:36:49.155Z</time></trkpt><trkpt lat="40.9241417" lon="-0.130235"><ele>519.0</ele><time>2026-03-31T11:36:50.155Z</time></trkpt><trkpt lat="40.9241933" lon="-0.1303183"><ele>518.5</ele><time>2026-03-31T11:36:51.155Z</time></trkpt><trkpt lat="40.924225" lon="-0.1304217"><ele>518.0</ele><time>2026-03-31T11:36:52.156Z</time></trkpt><trkpt lat="40.9242417" lon="-0.1305417"><ele>517.5</ele><time>2026-03-31T11:36:53.156Z</time></trkpt><trkpt lat="40.92423" lon="-0.1306617"><ele>517.0</ele><time>2026-03-31T11:36:54.156Z</time></trkpt><trkpt lat="40.9242167" lon="-0.1307933"><ele>518.4</ele><time>2026-03-31T11:36:55.155Z</time></trkpt><trkpt lat="40.92421" lon="-0.1309183"><ele>519.8000000000001</ele><time>2026-03-31T11:36:56.155Z</time></trkpt><trkpt lat="40.92421" lon="-0.1310417"><ele>521.2</ele><time>2026-03-31T11:36:57.155Z</time></trkpt><trkpt lat="40.9242" lon="-0.131175"><ele>522.6</ele><time>2026-03-31T11:36:58.154Z</time></trkpt><trkpt lat="40.924185" lon="-0.131315"><ele>524.0</ele><time>2026-03-31T11:36:59.155Z</time></trkpt><trkpt lat="40.924175" lon="-0.1314483"><ele>524.8333333333333</ele><time>2026-03-31T11:37:00.156Z</time></trkpt><trkpt lat="40.924175" lon="-0.1315733"><ele>525.6666666666666</ele><time>2026-03-31T11:37:01.155Z</time></trkpt><trkpt lat="40.9241717" lon="-0.1316867"><ele>526.5</ele><time>2026-03-31T11:37:02.155Z</time></trkpt><trkpt lat="40.9241583" lon="-0.131795"><ele>527.3333333333334</ele><time>2026-03-31T11:37:03.156Z</time></trkpt><trkpt lat="40.9241283" lon="-0.1318967"><ele>528.1666666666667</ele><time>2026-03-31T11:37:04.155Z</time></trkpt><trkpt lat="40.9240733" lon="-0.1319767"><ele>529.0</ele><time>2026-03-31T11:37:05.155Z</time></trkpt><trkpt lat="40.9240233" lon="-0.1320517"><ele>529.0</ele><time>2026-03-31T11:37:06.156Z</time></trkpt><trkpt lat="40.9239967" lon="-0.1321317"><ele>529.0</ele><time>2026-03-31T11:37:07.155Z</time></trkpt><trkpt lat="40.924035" lon="-0.1322633"><ele>529.0</ele><time>2026-03-31T11:37:09.155Z</time></trkpt><trkpt lat="40.9240883" lon="-0.1323367"><ele>529.0</ele><time>2026-03-31T11:37:10.156Z</time></trkpt><trkpt lat="40.9241317" lon="-0.1324217"><ele>529.0</ele><time>2026-03-31T11:37:11.156Z</time></trkpt><trkpt lat="40.9241583" lon="-0.1325317"><ele>529.0</ele><time>2026-03-31T11:37:12.155Z</time></trkpt><trkpt lat="40.9241567" lon="-0.1326533"><ele>529.8333333333334</ele><time>2026-03-31T11:37:13.155Z</time></trkpt><trkpt lat="40.9241433" lon="-0.1327783"><ele>530.6666666666667</ele><time>2026-03-31T11:37:14.155Z</time></trkpt><trkpt lat="40.9241083" lon="-0.1329017"><ele>531.5</ele><time>2026-03-31T11:37:15.155Z</time></trkpt><trkpt lat="40.9240617" lon="-0.1330083"><ele>532.3333333333334</ele><time>2026-03-31T11:37:16.156Z</time></trkpt><trkpt lat="40.9240183" lon="-0.1331017"><ele>533.1666666666666</ele><time>2026-03-31T11:37:17.156Z</time></trkpt><trkpt lat="40.923985" lon="-0.1331933"><ele>534.0</ele><time>2026-03-31T11:37:18.156Z</time></trkpt><trkpt lat="40.9239867" lon="-0.1332983"><ele>534.5</ele><time>2026-03-31T11:37:19.155Z</time></trkpt><trkpt lat="40.9240167" lon="-0.13339"><ele>535.0</ele><time>2026-03-31T11:37:20.155Z</time></trkpt><trkpt lat="40.92408" lon="-0.1334717"><ele>535.5</ele><time>2026-03-31T11:37:21.156Z</time></trkpt><trkpt lat="40.9241617" lon="-0.13352"><ele>536.0</ele><time>2026-03-31T11:37:22.155Z</time></trkpt><trkpt lat="40.92425" lon="-0.1335333"><ele>536.5</ele><time>2026-03-31T11:37:23.155Z</time></trkpt><trkpt lat="40.9243483" lon="-0.1335"><ele>537.0</ele><time>2026-03-31T11:37:24.156Z</time></trkpt><trkpt lat="40.9244433" lon="-0.1334583"><ele>537.0</ele><time>2026-03-31T11:37:25.156Z</time></trkpt><trkpt lat="40.9245317" lon="-0.133435"><ele>537.0</ele><time>2026-03-31T11:37:26.156Z</time></trkpt><trkpt lat="40.9246083" lon="-0.1334433"><ele>537.0</ele><time>2026-03-31T11:37:27.155Z</time></trkpt><trkpt lat="40.924705" lon="-0.1335467"><ele>537.0</ele><time>2026-03-31T11:37:29.156Z</time></trkpt><trkpt lat="40.9247367" lon="-0.1336483"><ele>537.0</ele><time>2026-03-31T11:37:30.155Z</time></trkpt><trkpt lat="40.92476" lon="-0.133765"><ele>537.0</ele><time>2026-03-31T11:37:31.155Z</time></trkpt><trkpt lat="40.92477" lon="-0.1338917"><ele>537.0</ele><time>2026-03-31T11:37:32.155Z</time></trkpt><trkpt lat="40.9247733" lon="-0.134015"><ele>537.0</ele><time>2026-03-31T11:37:33.156Z</time></trkpt><trkpt lat="40.92478" lon="-0.134135"><ele>537.0</ele><time>2026-03-31T11:37:34.155Z</time></trkpt><trkpt lat="40.92479" lon="-0.1342483"><ele>537.0</ele><time>2026-03-31T11:37:35.156Z</time></trkpt><trkpt lat="40.9248133" lon="-0.134365"><ele>538.0</ele><time>2026-03-31T11:37:36.156Z</time></trkpt><trkpt lat="40.9248433" lon="-0.1344767"><ele>539.0</ele><time>2026-03-31T11:37:37.155Z</time></trkpt><trkpt lat="40.9248833" lon="-0.1345833"><ele>540.0</ele><time>2026-03-31T11:37:38.155Z</time></trkpt><trkpt lat="40.9249233" lon="-0.134695"><ele>541.0</ele><time>2026-03-31T11:37:39.155Z</time></trkpt><trkpt lat="40.9249633" lon="-0.1348"><ele>542.0</ele><time>2026-03-31T11:37:40.155Z</time></trkpt><trkpt lat="40.925" lon="-0.1348967"><ele>543.0</ele><time>2026-03-31T11:37:41.155Z</time></trkpt><trkpt lat="40.92503" lon="-0.1349867"><ele>543.8333333333334</ele><time>2026-03-31T11:37:42.155Z</time></trkpt><trkpt lat="40.9250517" lon="-0.1350717"><ele>544.6666666666666</ele><time>2026-03-31T11:37:43.155Z</time></trkpt><trkpt lat="40.9250417" lon="-0.1352367"><ele>545.5</ele><time>2026-03-31T11:37:45.155Z</time></trkpt><trkpt lat="40.925005" lon="-0.1353233"><ele>546.3333333333333</ele><time>2026-03-31T11:37:46.156Z</time></trkpt><trkpt lat="40.924955" lon="-0.135415"><ele>547.1666666666666</ele><time>2026-03-31T11:37:47.156Z</time></trkpt><trkpt lat="40.9249117" lon="-0.1355117"><ele>548.0</ele><time>2026-03-31T11:37:48.155Z</time></trkpt><trkpt lat="40.924885" lon="-0.1356317"><ele>547.0</ele><time>2026-03-31T11:37:49.156Z</time></trkpt><trkpt lat="40.9248817" lon="-0.1357667"><ele>546.0</ele><time>2026-03-31T11:37:50.156Z</time></trkpt><trkpt lat="40.9249083" lon="-0.1358983"><ele>545.0</ele><time>2026-03-31T11:37:51.156Z</time></trkpt><trkpt lat="40.924935" lon="-0.136025"><ele>544.0</ele><time>2026-03-31T11:37:52.155Z</time></trkpt><trkpt lat="40.9249717" lon="-0.136145"><ele>543.0</ele><time>2026-03-31T11:37:53.156Z</time></trkpt><trkpt lat="40.9250067" lon="-0.13627"><ele>543.0</ele><time>2026-03-31T11:37:54.155Z</time></trkpt><trkpt lat="40.9250267" lon="-0.1363917"><ele>543.0</ele><time>2026-03-31T11:37:55.155Z</time></trkpt><trkpt lat="40.925045" lon="-0.1365117"><ele>543.0</ele><time>2026-03-31T11:37:56.155Z</time></trkpt><trkpt lat="40.925065" lon="-0.1366283"><ele>543.0</ele><time>2026-03-31T11:37:57.155Z</time></trkpt><trkpt lat="40.9250833" lon="-0.1367467"><ele>543.0</ele><time>2026-03-31T11:37:58.156Z</time></trkpt><trkpt lat="40.9251083" lon="-0.13687"><ele>543.6</ele><time>2026-03-31T11:37:59.155Z</time></trkpt><trkpt lat="40.9251283" lon="-0.136995"><ele>544.1999999999999</ele><time>2026-03-31T11:38:00.155Z</time></trkpt><trkpt lat="40.9251517" lon="-0.1371283"><ele>544.8</ele><time>2026-03-31T11:38:01.156Z</time></trkpt><trkpt lat="40.9251767" lon="-0.1372533"><ele>545.4</ele><time>2026-03-31T11:38:02.155Z</time></trkpt><trkpt lat="40.925195" lon="-0.1373833"><ele>546.0</ele><time>2026-03-31T11:38:03.156Z</time></trkpt><trkpt lat="40.92521" lon="-0.137505"><ele>543.3333333333334</ele><time>2026-03-31T11:38:04.156Z</time></trkpt><trkpt lat="40.9252233" lon="-0.137625"><ele>540.6666666666666</ele><time>2026-03-31T11:38:05.156Z</time></trkpt><trkpt lat="40.9252433" lon="-0.1377367"><ele>538.0</ele><time>2026-03-31T11:38:06.155Z</time></trkpt><trkpt lat="40.925265" lon="-0.137835"><ele>535.3333333333333</ele><time>2026-03-31T11:38:07.155Z</time></trkpt><trkpt lat="40.9252883" lon="-0.13793"><ele>532.6666666666666</ele><time>2026-03-31T11:38:08.155Z</time></trkpt><trkpt lat="40.9253017" lon="-0.1380283"><ele>530.0</ele><time>2026-03-31T11:38:09.155Z</time></trkpt><trkpt lat="40.9253067" lon="-0.1381233"><ele>529.6</ele><time>2026-03-31T11:38:10.156Z</time></trkpt><trkpt lat="40.92531" lon="-0.138295"><ele>529.2</ele><time>2026-03-31T11:38:12.156Z</time></trkpt><trkpt lat="40.9253383" lon="-0.1383733"><ele>528.8</ele><time>2026-03-31T11:38:13.155Z</time></trkpt><trkpt lat="40.9254267" lon="-0.13848"><ele>528.4</ele><time>2026-03-31T11:38:15.156Z</time></trkpt><trkpt lat="40.9254817" lon="-0.1385433"><ele>528.0</ele><time>2026-03-31T11:38:16.156Z</time></trkpt><trkpt lat="40.9255367" lon="-0.1386283"><ele>528.0</ele><time>2026-03-31T11:38:17.155Z</time></trkpt><trkpt lat="40.9255867" lon="-0.1387167"><ele>528.0</ele><time>2026-03-31T11:38:18.155Z</time></trkpt><trkpt lat="40.925635" lon="-0.1388167"><ele>528.0</ele><time>2026-03-31T11:38:19.155Z</time></trkpt><trkpt lat="40.9256917" lon="-0.1389283"><ele>528.0</ele><time>2026-03-31T11:38:20.155Z</time></trkpt><trkpt lat="40.925745" lon="-0.1390367"><ele>528.0</ele><time>2026-03-31T11:38:21.156Z</time></trkpt><trkpt lat="40.9257917" lon="-0.1391583"><ele>528.6</ele><time>2026-03-31T11:38:22.155Z</time></trkpt><trkpt lat="40.92583" lon="-0.1392717"><ele>529.1999999999999</ele><time>2026-03-31T11:38:23.156Z</time></trkpt><trkpt lat="40.9258667" lon="-0.1393917"><ele>529.8</ele><time>2026-03-31T11:38:24.156Z</time></trkpt><trkpt lat="40.9259067" lon="-0.1395133"><ele>530.4</ele><time>2026-03-31T11:38:25.155Z</time></trkpt><trkpt lat="40.925945" lon="-0.1396333"><ele>531.0</ele><time>2026-03-31T11:38:26.155Z</time></trkpt><trkpt lat="40.9259867" lon="-0.1397683"><ele>533.2</ele><time>2026-03-31T11:38:27.155Z</time></trkpt><trkpt lat="40.9260283" lon="-0.1399"><ele>535.4000000000001</ele><time>2026-03-31T11:38:28.155Z</time></trkpt><trkpt lat="40.9260683" lon="-0.140035"><ele>537.6</ele><time>2026-03-31T11:38:29.155Z</time></trkpt><trkpt lat="40.9261067" lon="-0.14017"><ele>539.8000000000001</ele><time>2026-03-31T11:38:30.156Z</time></trkpt><trkpt lat="40.9261517" lon="-0.140305"><ele>542.0</ele><time>2026-03-31T11:38:31.155Z</time></trkpt><trkpt lat="40.9262083" lon="-0.140445"><ele>542.0</ele><time>2026-03-31T11:38:32.155Z</time></trkpt><trkpt lat="40.92627" lon="-0.14058"><ele>542.0</ele><time>2026-03-31T11:38:33.155Z</time></trkpt><trkpt lat="40.9263417" lon="-0.140705"><ele>542.0</ele><time>2026-03-31T11:38:34.156Z</time></trkpt><trkpt lat="40.9264283" lon="-0.140805"><ele>542.0</ele><time>2026-03-31T11:38:35.156Z</time></trkpt><trkpt lat="40.9265067" lon="-0.1409133"><ele>541.6</ele><time>2026-03-31T11:38:36.156Z</time></trkpt><trkpt lat="40.926575" lon="-0.1410383"><ele>541.2</ele><time>2026-03-31T11:38:37.156Z</time></trkpt><trkpt lat="40.9266233" lon="-0.1411717"><ele>540.8</ele><time>2026-03-31T11:38:38.155Z</time></trkpt><trkpt lat="40.926655" lon="-0.1413033"><ele>540.4</ele><time>2026-03-31T11:38:39.156Z</time></trkpt><trkpt lat="40.9266983" lon="-0.1414333"><ele>540.0</ele><time>2026-03-31T11:38:40.155Z</time></trkpt><trkpt lat="40.9267483" lon="-0.14155"><ele>540.0</ele><time>2026-03-31T11:38:41.155Z</time></trkpt><trkpt lat="40.9268133" lon="-0.1416633"><ele>540.0</ele><time>2026-03-31T11:38:42.155Z</time></trkpt><trkpt lat="40.9268883" lon="-0.1417633"><ele>540.0</ele><time>2026-03-31T11:38:43.155Z</time></trkpt><trkpt lat="40.9269633" lon="-0.14187"><ele>540.0</ele><time>2026-03-31T11:38:44.155Z</time></trkpt><trkpt lat="40.9270383" lon="-0.1419783"><ele>540.0</ele><time>2026-03-31T11:38:45.155Z</time></trkpt><trkpt lat="40.9271183" lon="-0.1420967"><ele>540.0</ele><time>2026-03-31T11:38:46.155Z</time></trkpt><trkpt lat="40.9271917" lon="-0.1422233"><ele>540.0</ele><time>2026-03-31T11:38:47.155Z</time></trkpt><trkpt lat="40.927265" lon="-0.14234"><ele>540.0</ele><time>2026-03-31T11:38:48.155Z</time></trkpt><trkpt lat="40.9273367" lon="-0.1424567"><ele>540.0</ele><time>2026-03-31T11:38:49.156Z</time></trkpt><trkpt lat="40.9274033" lon="-0.1425783"><ele>537.0</ele><time>2026-03-31T11:38:50.155Z</time></trkpt><trkpt lat="40.9274467" lon="-0.14272"><ele>534.0</ele><time>2026-03-31T11:38:51.155Z</time></trkpt><trkpt lat="40.927465" lon="-0.14286"><ele>531.0</ele><time>2026-03-31T11:38:52.156Z</time></trkpt><trkpt lat="40.92747" lon="-0.143"><ele>528.0</ele><time>2026-03-31T11:38:53.156Z</time></trkpt><trkpt lat="40.927465" lon="-0.1431333"><ele>525.0</ele><time>2026-03-31T11:38:54.155Z</time></trkpt><trkpt lat="40.9274633" lon="-0.143265"><ele>524.2</ele><time>2026-03-31T11:38:55.156Z</time></trkpt><trkpt lat="40.92745" lon="-0.1433783"><ele>523.4</ele><time>2026-03-31T11:38:56.156Z</time></trkpt><trkpt lat="40.927445" lon="-0.1435167"><ele>522.6</ele><time>2026-03-31T11:38:57.155Z</time></trkpt><trkpt lat="40.9274633" lon="-0.1436533"><ele>521.8</ele><time>2026-03-31T11:38:58.156Z</time></trkpt><trkpt lat="40.9275017" lon="-0.143795"><ele>521.0</ele><time>2026-03-31T11:38:59.155Z</time></trkpt><trkpt lat="40.9275467" lon="-0.14393"><ele>525.0</ele><time>2026-03-31T11:39:00.156Z</time></trkpt><trkpt lat="40.927595" lon="-0.1440683"><ele>529.0</ele><time>2026-03-31T11:39:01.156Z</time></trkpt><trkpt lat="40.927645" lon="-0.1442117"><ele>533.0</ele><time>2026-03-31T11:39:02.155Z</time></trkpt><trkpt lat="40.9276917" lon="-0.1443533"><ele>537.0</ele><time>2026-03-31T11:39:03.155Z</time></trkpt><trkpt lat="40.9277283" lon="-0.1444833"><ele>537.0</ele><time>2026-03-31T11:39:04.155Z</time></trkpt><trkpt lat="40.927765" lon="-0.1446083"><ele>537.0</ele><time>2026-03-31T11:39:05.155Z</time></trkpt><trkpt lat="40.9278033" lon="-0.144735"><ele>537.0</ele><time>2026-03-31T11:39:06.155Z</time></trkpt><trkpt lat="40.9278433" lon="-0.1448617"><ele>537.0</ele><time>2026-03-31T11:39:07.156Z</time></trkpt><trkpt lat="40.927895" lon="-0.14498"><ele>537.0</ele><time>2026-03-31T11:39:08.156Z</time></trkpt><trkpt lat="40.9279733" lon="-0.1450817"><ele>534.4</ele><time>2026-03-31T11:39:09.155Z</time></trkpt><trkpt lat="40.92806" lon="-0.1451633"><ele>531.8000000000001</ele><time>2026-03-31T11:39:10.156Z</time></trkpt><trkpt lat="40.9281517" lon="-0.145245"><ele>529.2</ele><time>2026-03-31T11:39:11.156Z</time></trkpt><trkpt lat="40.928245" lon="-0.14533"><ele>526.6</ele><time>2026-03-31T11:39:12.155Z</time></trkpt><trkpt lat="40.9283233" lon="-0.145435"><ele>524.0</ele><time>2026-03-31T11:39:13.156Z</time></trkpt><trkpt lat="40.9283883" lon="-0.1455633"><ele>526.2</ele><time>2026-03-31T11:39:14.155Z</time></trkpt><trkpt lat="40.9284483" lon="-0.1456983"><ele>528.4</ele><time>2026-03-31T11:39:15.155Z</time></trkpt><trkpt lat="40.9284967" lon="-0.145825"><ele>530.6</ele><time>2026-03-31T11:39:16.156Z</time></trkpt><trkpt lat="40.9285417" lon="-0.1459567"><ele>532.8</ele><time>2026-03-31T11:39:17.155Z</time></trkpt><trkpt lat="40.928585" lon="-0.1460933"><ele>535.0</ele><time>2026-03-31T11:39:18.155Z</time></trkpt><trkpt lat="40.9286183" lon="-0.14623"><ele>535.0</ele><time>2026-03-31T11:39:19.155Z</time></trkpt><trkpt lat="40.92864" lon="-0.1463767"><ele>535.0</ele><time>2026-03-31T11:39:20.156Z</time></trkpt><trkpt lat="40.9286733" lon="-0.1465133"><ele>535.0</ele><time>2026-03-31T11:39:21.155Z</time></trkpt><trkpt lat="40.9286983" lon="-0.1466583"><ele>535.0</ele><time>2026-03-31T11:39:22.155Z</time></trkpt><trkpt lat="40.9287417" lon="-0.1468067"><ele>531.75</ele><time>2026-03-31T11:39:23.155Z</time></trkpt><trkpt lat="40.9288017" lon="-0.14694"><ele>528.5</ele><time>2026-03-31T11:39:24.156Z</time></trkpt><trkpt lat="40.9288767" lon="-0.1470633"><ele>525.25</ele><time>2026-03-31T11:39:25.155Z</time></trkpt><trkpt lat="40.9289683" lon="-0.14717"><ele>522.0</ele><time>2026-03-31T11:39:26.156Z</time></trkpt><trkpt lat="40.929075" lon="-0.1472583"><ele>522.0</ele><time>2026-03-31T11:39:27.155Z</time></trkpt><trkpt lat="40.9291833" lon="-0.1473517"><ele>522.0</ele><time>2026-03-31T11:39:28.155Z</time></trkpt><trkpt lat="40.92929" lon="-0.1474567"><ele>522.0</ele><time>2026-03-31T11:39:29.156Z</time></trkpt><trkpt lat="40.9294" lon="-0.14757"><ele>522.0</ele><time>2026-03-31T11:39:30.155Z</time></trkpt><trkpt lat="40.9295017" lon="-0.1476833"><ele>520.5</ele><time>2026-03-31T11:39:31.155Z</time></trkpt><trkpt lat="40.9296067" lon="-0.147795"><ele>519.0</ele><time>2026-03-31T11:39:32.156Z</time></trkpt><trkpt lat="40.92971" lon="-0.1478983"><ele>517.5</ele><time>2026-03-31T11:39:33.155Z</time></trkpt><trkpt lat="40.9298217" lon="-0.14801"><ele>516.0</ele><time>2026-03-31T11:39:34.156Z</time></trkpt><trkpt lat="40.9299333" lon="-0.1481233"><ele>510.66666666666663</ele><time>2026-03-31T11:39:35.156Z</time></trkpt><trkpt lat="40.930055" lon="-0.14825"><ele>505.3333333333333</ele><time>2026-03-31T11:39:36.155Z</time></trkpt><trkpt lat="40.9301783" lon="-0.1483667"><ele>500.0</ele><time>2026-03-31T11:39:37.156Z</time></trkpt><trkpt lat="40.9303033" lon="-0.148485"><ele>500.0</ele><time>2026-03-31T11:39:38.156Z</time></trkpt><trkpt lat="40.9304233" lon="-0.1486017"><ele>500.0</ele><time>2026-03-31T11:39:39.155Z</time></trkpt><trkpt lat="40.9305417" lon="-0.1487133"><ele>500.0</ele><time>2026-03-31T11:39:40.156Z</time></trkpt><trkpt lat="40.9306517" lon="-0.1488267"><ele>500.0</ele><time>2026-03-31T11:39:41.155Z</time></trkpt><trkpt lat="40.9307333" lon="-0.1489433"><ele>497.8</ele><time>2026-03-31T11:39:42.156Z</time></trkpt><trkpt lat="40.9307883" lon="-0.1490617"><ele>495.6</ele><time>2026-03-31T11:39:43.155Z</time></trkpt><trkpt lat="40.9308267" lon="-0.1491817"><ele>493.4</ele><time>2026-03-31T11:39:44.156Z</time></trkpt><trkpt lat="40.9308233" lon="-0.1493083"><ele>491.2</ele><time>2026-03-31T11:39:45.156Z</time></trkpt><trkpt lat="40.9307817" lon="-0.149435"><ele>489.0</ele><time>2026-03-31T11:39:46.156Z</time></trkpt><trkpt lat="40.93071" lon="-0.1495367"><ele>489.0</ele><time>2026-03-31T11:39:47.155Z</time></trkpt><trkpt lat="40.9306033" lon="-0.1496117"><ele>489.0</ele><time>2026-03-31T11:39:48.155Z</time></trkpt><trkpt lat="40.930485" lon="-0.14969"><ele>489.0</ele><time>2026-03-31T11:39:49.156Z</time></trkpt><trkpt lat="40.9303717" lon="-0.149765"><ele>489.0</ele><time>2026-03-31T11:39:50.155Z</time></trkpt><trkpt lat="40.9302717" lon="-0.1498333"><ele>488.6666666666667</ele><time>2026-03-31T11:39:51.155Z</time></trkpt><trkpt lat="40.9301733" lon="-0.1498983"><ele>488.33333333333337</ele><time>2026-03-31T11:39:52.155Z</time></trkpt><trkpt lat="40.9300833" lon="-0.1499517"><ele>488.0</ele><time>2026-03-31T11:39:53.155Z</time></trkpt><trkpt lat="40.9300117" lon="-0.15"><ele>487.6666666666667</ele><time>2026-03-31T11:39:54.156Z</time></trkpt><trkpt lat="40.9299467" lon="-0.1500467"><ele>487.33333333333337</ele><time>2026-03-31T11:39:55.155Z</time></trkpt><trkpt lat="40.9298783" lon="-0.1500967"><ele>487.0</ele><time>2026-03-31T11:39:56.156Z</time></trkpt><trkpt lat="40.9298033" lon="-0.1501583"><ele>487.0</ele><time>2026-03-31T11:39:57.156Z</time></trkpt><trkpt lat="40.929725" lon="-0.1502233"><ele>487.00000000000006</ele><time>2026-03-31T11:39:58.156Z</time></trkpt><trkpt lat="40.9296383" lon="-0.1502883"><ele>487.00000000000006</ele><time>2026-03-31T11:39:59.155Z</time></trkpt><trkpt lat="40.9295483" lon="-0.15035"><ele>487.0</ele><time>2026-03-31T11:40:00.156Z</time></trkpt><trkpt lat="40.92946" lon="-0.150415"><ele>487.0</ele><time>2026-03-31T11:40:01.156Z</time></trkpt><trkpt lat="40.9293733" lon="-0.150495"><ele>487.0</ele><time>2026-03-31T11:40:02.156Z</time></trkpt><trkpt lat="40.9293" lon="-0.1505867"><ele>487.00000000000006</ele><time>2026-03-31T11:40:03.155Z</time></trkpt><trkpt lat="40.929245" lon="-0.1507"><ele>487.00000000000006</ele><time>2026-03-31T11:40:04.155Z</time></trkpt><trkpt lat="40.9292017" lon="-0.1508367"><ele>487.0</ele><time>2026-03-31T11:40:05.155Z</time></trkpt><trkpt lat="40.929175" lon="-0.150985"><ele>487.0</ele><time>2026-03-31T11:40:06.156Z</time></trkpt><trkpt lat="40.9291583" lon="-0.1511567"><ele>486.25</ele><time>2026-03-31T11:40:07.155Z</time></trkpt><trkpt lat="40.9291417" lon="-0.15133"><ele>485.5</ele><time>2026-03-31T11:40:08.155Z</time></trkpt><trkpt lat="40.9291267" lon="-0.151515"><ele>484.75</ele><time>2026-03-31T11:40:09.155Z</time></trkpt><trkpt lat="40.9291133" lon="-0.1516783"><ele>484.0</ele><time>2026-03-31T11:40:10.156Z</time></trkpt><trkpt lat="40.9291117" lon="-0.15185"><ele>484.0</ele><time>2026-03-31T11:40:11.155Z</time></trkpt><trkpt lat="40.9291233" lon="-0.1520067"><ele>484.0</ele><time>2026-03-31T11:40:12.156Z</time></trkpt><trkpt lat="40.9291533" lon="-0.1521483"><ele>484.0</ele><time>2026-03-31T11:40:13.155Z</time></trkpt><trkpt lat="40.9291983" lon="-0.1522733"><ele>484.0</ele><time>2026-03-31T11:40:14.155Z</time></trkpt><trkpt lat="40.9292583" lon="-0.1523533"><ele>484.0</ele><time>2026-03-31T11:40:15.156Z</time></trkpt><trkpt lat="40.9293317" lon="-0.1524017"><ele>484.6</ele><time>2026-03-31T11:40:16.155Z</time></trkpt><trkpt lat="40.9294167" lon="-0.1524233"><ele>485.2</ele><time>2026-03-31T11:40:17.155Z</time></trkpt><trkpt lat="40.929505" lon="-0.1524183"><ele>485.80000000000007</ele><time>2026-03-31T11:40:18.156Z</time></trkpt><trkpt lat="40.9296017" lon="-0.15242"><ele>486.40000000000003</ele><time>2026-03-31T11:40:19.156Z</time></trkpt><trkpt lat="40.92969" lon="-0.1524467"><ele>487.0</ele><time>2026-03-31T11:40:20.156Z</time></trkpt><trkpt lat="40.9297633" lon="-0.1525167"><ele>487.0</ele><time>2026-03-31T11:40:21.155Z</time></trkpt><trkpt lat="40.9297933" lon="-0.15261"><ele>487.00000000000006</ele><time>2026-03-31T11:40:22.155Z</time></trkpt><trkpt lat="40.9297983" lon="-0.1527367"><ele>487.00000000000006</ele><time>2026-03-31T11:40:23.155Z</time></trkpt><trkpt lat="40.92977" lon="-0.1528833"><ele>487.0</ele><time>2026-03-31T11:40:24.155Z</time></trkpt><trkpt lat="40.9297183" lon="-0.1530183"><ele>487.0</ele><time>2026-03-31T11:40:25.155Z</time></trkpt><trkpt lat="40.9296417" lon="-0.1531367"><ele>486.6</ele><time>2026-03-31T11:40:26.155Z</time></trkpt><trkpt lat="40.9295683" lon="-0.1532433"><ele>486.20000000000005</ele><time>2026-03-31T11:40:27.156Z</time></trkpt><trkpt lat="40.9295067" lon="-0.1533433"><ele>485.8</ele><time>2026-03-31T11:40:28.155Z</time></trkpt><trkpt lat="40.929455" lon="-0.15344"><ele>485.4</ele><time>2026-03-31T11:40:29.155Z</time></trkpt><trkpt lat="40.9294283" lon="-0.1535367"><ele>485.0</ele><time>2026-03-31T11:40:30.156Z</time></trkpt><trkpt lat="40.929425" lon="-0.1536533"><ele>485.0</ele><time>2026-03-31T11:40:31.156Z</time></trkpt><trkpt lat="40.9294483" lon="-0.15378"><ele>485.0</ele><time>2026-03-31T11:40:32.156Z</time></trkpt><trkpt lat="40.9294917" lon="-0.15391"><ele>485.0</ele><time>2026-03-31T11:40:33.156Z</time></trkpt><trkpt lat="40.9295483" lon="-0.1540433"><ele>485.0</ele><time>2026-03-31T11:40:34.155Z</time></trkpt><trkpt lat="40.9296083" lon="-0.1541583"><ele>485.0</ele><time>2026-03-31T11:40:35.155Z</time></trkpt><trkpt lat="40.9296767" lon="-0.154275"><ele>485.2</ele><time>2026-03-31T11:40:36.155Z</time></trkpt><trkpt lat="40.9297567" lon="-0.1543867"><ele>485.4</ele><time>2026-03-31T11:40:37.155Z</time></trkpt><trkpt lat="40.92985" lon="-0.1544867"><ele>485.6</ele><time>2026-03-31T11:40:38.155Z</time></trkpt><trkpt lat="40.9299417" lon="-0.1545583"><ele>485.8</ele><time>2026-03-31T11:40:39.156Z</time></trkpt><trkpt lat="40.930025" lon="-0.1546217"><ele>486.0</ele><time>2026-03-31T11:40:40.156Z</time></trkpt><trkpt lat="40.9300933" lon="-0.15471"><ele>486.0</ele><time>2026-03-31T11:40:41.155Z</time></trkpt><trkpt lat="40.9301383" lon="-0.1548383"><ele>486.0</ele><time>2026-03-31T11:40:42.155Z</time></trkpt><trkpt lat="40.9301733" lon="-0.1549917"><ele>486.0</ele><time>2026-03-31T11:40:43.155Z</time></trkpt><trkpt lat="40.9302083" lon="-0.1551433"><ele>486.0</ele><time>2026-03-31T11:40:44.155Z</time></trkpt><trkpt lat="40.9302483" lon="-0.1552883"><ele>484.25</ele><time>2026-03-31T11:40:45.155Z</time></trkpt><trkpt lat="40.9302883" lon="-0.1554517"><ele>482.5</ele><time>2026-03-31T11:40:46.156Z</time></trkpt><trkpt lat="40.9303083" lon="-0.155615"><ele>480.75</ele><time>2026-03-31T11:40:47.156Z</time></trkpt><trkpt lat="40.9303317" lon="-0.155765"><ele>479.0</ele><time>2026-03-31T11:40:48.156Z</time></trkpt><trkpt lat="40.9303633" lon="-0.15591"><ele>477.0</ele><time>2026-03-31T11:40:49.156Z</time></trkpt><trkpt lat="40.9304033" lon="-0.1560533"><ele>475.0</ele><time>2026-03-31T11:40:50.155Z</time></trkpt><trkpt lat="40.9304567" lon="-0.1561933"><ele>473.0</ele><time>2026-03-31T11:40:51.156Z</time></trkpt><trkpt lat="40.9305083" lon="-0.1563167"><ele>471.0</ele><time>2026-03-31T11:40:52.155Z</time></trkpt><trkpt lat="40.9305567" lon="-0.1564333"><ele>469.0</ele><time>2026-03-31T11:40:53.155Z</time></trkpt><trkpt lat="40.9306117" lon="-0.15654"><ele>467.2</ele><time>2026-03-31T11:40:54.155Z</time></trkpt><trkpt lat="40.930675" lon="-0.1566333"><ele>465.4</ele><time>2026-03-31T11:40:55.155Z</time></trkpt><trkpt lat="40.9307467" lon="-0.1566933"><ele>463.6</ele><time>2026-03-31T11:40:56.155Z</time></trkpt><trkpt lat="40.9308383" lon="-0.15674"><ele>461.8</ele><time>2026-03-31T11:40:57.156Z</time></trkpt><trkpt lat="40.9309417" lon="-0.15678"><ele>460.0</ele><time>2026-03-31T11:40:58.156Z</time></trkpt><trkpt lat="40.9310417" lon="-0.1568117"><ele>460.00000000000006</ele><time>2026-03-31T11:40:59.155Z</time></trkpt><trkpt lat="40.9311317" lon="-0.1568583"><ele>460.0</ele><time>2026-03-31T11:41:00.155Z</time></trkpt><trkpt lat="40.931215" lon="-0.1569133"><ele>460.0</ele><time>2026-03-31T11:41:01.156Z</time></trkpt><trkpt lat="40.9312767" lon="-0.1569833"><ele>460.0</ele><time>2026-03-31T11:41:02.155Z</time></trkpt><trkpt lat="40.9313317" lon="-0.1570517"><ele>460.00000000000006</ele><time>2026-03-31T11:41:03.156Z</time></trkpt><trkpt lat="40.931385" lon="-0.15712"><ele>460.0</ele><time>2026-03-31T11:41:04.155Z</time></trkpt><trkpt lat="40.9314367" lon="-0.1571917"><ele>460.00000000000006</ele><time>2026-03-31T11:41:05.155Z</time></trkpt><trkpt lat="40.93148" lon="-0.1572767"><ele>460.0</ele><time>2026-03-31T11:41:06.156Z</time></trkpt><trkpt lat="40.9315067" lon="-0.1573733"><ele>460.0</ele><time>2026-03-31T11:41:07.155Z</time></trkpt><trkpt lat="40.931515" lon="-0.1574883"><ele>460.0</ele><time>2026-03-31T11:41:08.156Z</time></trkpt><trkpt lat="40.9315017" lon="-0.1576133"><ele>460.00000000000006</ele><time>2026-03-31T11:41:09.155Z</time></trkpt><trkpt lat="40.9314717" lon="-0.15774"><ele>460.0</ele><time>2026-03-31T11:41:10.156Z</time></trkpt><trkpt lat="40.93143" lon="-0.1578667"><ele>459.8</ele><time>2026-03-31T11:41:11.155Z</time></trkpt><trkpt lat="40.9313883" lon="-0.157995"><ele>459.6</ele><time>2026-03-31T11:41:12.155Z</time></trkpt><trkpt lat="40.9313417" lon="-0.1581233"><ele>459.4</ele><time>2026-03-31T11:41:13.155Z</time></trkpt><trkpt lat="40.9313" lon="-0.15825"><ele>459.2</ele><time>2026-03-31T11:41:14.156Z</time></trkpt><trkpt lat="40.9312717" lon="-0.1583817"><ele>459.0</ele><time>2026-03-31T11:41:15.156Z</time></trkpt><trkpt lat="40.931255" lon="-0.1585233"><ele>459.0</ele><time>2026-03-31T11:41:16.156Z</time></trkpt><trkpt lat="40.9312467" lon="-0.158675"><ele>459.0</ele><time>2026-03-31T11:41:17.155Z</time></trkpt><trkpt lat="40.9312417" lon="-0.1588283"><ele>459.0</ele><time>2026-03-31T11:41:18.155Z</time></trkpt><trkpt lat="40.931225" lon="-0.1589883"><ele>459.0</ele><time>2026-03-31T11:41:19.155Z</time></trkpt><trkpt lat="40.9311933" lon="-0.1591533"><ele>459.25</ele><time>2026-03-31T11:41:20.155Z</time></trkpt><trkpt lat="40.9311717" lon="-0.1593117"><ele>459.5</ele><time>2026-03-31T11:41:21.155Z</time></trkpt><trkpt lat="40.93115" lon="-0.1594767"><ele>459.75</ele><time>2026-03-31T11:41:22.155Z</time></trkpt><trkpt lat="40.9311267" lon="-0.15963"><ele>460.0</ele><time>2026-03-31T11:41:23.155Z</time></trkpt><trkpt lat="40.9311117" lon="-0.1597883"><ele>460.25</ele><time>2026-03-31T11:41:24.156Z</time></trkpt><trkpt lat="40.931115" lon="-0.1599567"><ele>460.5</ele><time>2026-03-31T11:41:25.155Z</time></trkpt><trkpt lat="40.9311467" lon="-0.160125"><ele>460.75</ele><time>2026-03-31T11:41:26.155Z</time></trkpt><trkpt lat="40.9311867" lon="-0.1602917"><ele>461.0</ele><time>2026-03-31T11:41:27.156Z</time></trkpt><trkpt lat="40.9312383" lon="-0.160465"><ele>461.0</ele><time>2026-03-31T11:41:28.155Z</time></trkpt><trkpt lat="40.9312833" lon="-0.1606383"><ele>461.0</ele><time>2026-03-31T11:41:29.156Z</time></trkpt><trkpt lat="40.931325" lon="-0.160795"><ele>461.0</ele><time>2026-03-31T11:41:30.155Z</time></trkpt><trkpt lat="40.931375" lon="-0.1609417"><ele>461.0</ele><time>2026-03-31T11:41:31.156Z</time></trkpt><trkpt lat="40.9314417" lon="-0.1610633"><ele>459.20000000000005</ele><time>2026-03-31T11:41:32.156Z</time></trkpt><trkpt lat="40.9315233" lon="-0.1611683"><ele>457.40000000000003</ele><time>2026-03-31T11:41:33.155Z</time></trkpt><trkpt lat="40.9315967" lon="-0.1612683"><ele>455.6</ele><time>2026-03-31T11:41:34.156Z</time></trkpt><trkpt lat="40.9316433" lon="-0.1613783"><ele>453.8</ele><time>2026-03-31T11:41:35.156Z</time></trkpt><trkpt lat="40.93166" lon="-0.1614967"><ele>452.0</ele><time>2026-03-31T11:41:36.155Z</time></trkpt><trkpt lat="40.9316517" lon="-0.1616267"><ele>449.5</ele><time>2026-03-31T11:41:37.156Z</time></trkpt><trkpt lat="40.9316333" lon="-0.161765"><ele>447.0</ele><time>2026-03-31T11:41:38.155Z</time></trkpt><trkpt lat="40.93162" lon="-0.1619133"><ele>444.5</ele><time>2026-03-31T11:41:39.155Z</time></trkpt><trkpt lat="40.9316367" lon="-0.16207"><ele>442.0</ele><time>2026-03-31T11:41:40.155Z</time></trkpt><trkpt lat="40.931665" lon="-0.1622233"><ele>440.75</ele><time>2026-03-31T11:41:41.156Z</time></trkpt><trkpt lat="40.931685" lon="-0.1623833"><ele>439.5</ele><time>2026-03-31T11:41:42.155Z</time></trkpt><trkpt lat="40.9317" lon="-0.1625433"><ele>438.25</ele><time>2026-03-31T11:41:43.155Z</time></trkpt><trkpt lat="40.9317067" lon="-0.162705"><ele>437.0</ele><time>2026-03-31T11:41:44.155Z</time></trkpt><trkpt lat="40.9317217" lon="-0.16287"><ele>436.20000000000005</ele><time>2026-03-31T11:41:45.155Z</time></trkpt><trkpt lat="40.9317333" lon="-0.1630267"><ele>435.40000000000003</ele><time>2026-03-31T11:41:46.156Z</time></trkpt><trkpt lat="40.9317367" lon="-0.1631717"><ele>434.59999999999997</ele><time>2026-03-31T11:41:47.155Z</time></trkpt><trkpt lat="40.9317383" lon="-0.1633033"><ele>433.79999999999995</ele><time>2026-03-31T11:41:48.155Z</time></trkpt><trkpt lat="40.93172" lon="-0.16342"><ele>433.0</ele><time>2026-03-31T11:41:49.155Z</time></trkpt><trkpt lat="40.931685" lon="-0.163515"><ele>433.0</ele><time>2026-03-31T11:41:50.156Z</time></trkpt><trkpt lat="40.93163" lon="-0.163605"><ele>432.99999999999994</ele><time>2026-03-31T11:41:51.156Z</time></trkpt><trkpt lat="40.9315733" lon="-0.1636967"><ele>432.99999999999994</ele><time>2026-03-31T11:41:52.156Z</time></trkpt><trkpt lat="40.9315267" lon="-0.1638083"><ele>433.0</ele><time>2026-03-31T11:41:53.155Z</time></trkpt><trkpt lat="40.9314883" lon="-0.16393"><ele>433.0</ele><time>2026-03-31T11:41:54.155Z</time></trkpt><trkpt lat="40.9314717" lon="-0.16406"><ele>432.79999999999995</ele><time>2026-03-31T11:41:55.156Z</time></trkpt><trkpt lat="40.9314683" lon="-0.164195"><ele>432.59999999999997</ele><time>2026-03-31T11:41:56.155Z</time></trkpt><trkpt lat="40.9314767" lon="-0.1643283"><ele>432.40000000000003</ele><time>2026-03-31T11:41:57.155Z</time></trkpt><trkpt lat="40.9314917" lon="-0.164465"><ele>432.20000000000005</ele><time>2026-03-31T11:41:58.156Z</time></trkpt><trkpt lat="40.931495" lon="-0.1645933"><ele>432.0</ele><time>2026-03-31T11:41:59.155Z</time></trkpt><trkpt lat="40.9314933" lon="-0.1647167"><ele>432.0</ele><time>2026-03-31T11:42:00.155Z</time></trkpt><trkpt lat="40.93148" lon="-0.1648333"><ele>432.00000000000006</ele><time>2026-03-31T11:42:01.155Z</time></trkpt><trkpt lat="40.93146" lon="-0.164945"><ele>432.00000000000006</ele><time>2026-03-31T11:42:02.155Z</time></trkpt><trkpt lat="40.9314267" lon="-0.1650533"><ele>432.0</ele><time>2026-03-31T11:42:03.156Z</time></trkpt><trkpt lat="40.93138" lon="-0.16516"><ele>432.0</ele><time>2026-03-31T11:42:04.156Z</time></trkpt><trkpt lat="40.9313283" lon="-0.1652683"><ele>430.40000000000003</ele><time>2026-03-31T11:42:05.156Z</time></trkpt><trkpt lat="40.93128" lon="-0.1653833"><ele>428.80000000000007</ele><time>2026-03-31T11:42:06.156Z</time></trkpt><trkpt lat="40.9312333" lon="-0.1655"><ele>427.2</ele><time>2026-03-31T11:42:07.156Z</time></trkpt><trkpt lat="40.9311883" lon="-0.1656033"><ele>425.6</ele><time>2026-03-31T11:42:08.155Z</time></trkpt><trkpt lat="40.9311367" lon="-0.1656867"><ele>424.0</ele><time>2026-03-31T11:42:09.155Z</time></trkpt><trkpt lat="40.9310717" lon="-0.16575"><ele>424.0</ele><time>2026-03-31T11:42:10.155Z</time></trkpt><trkpt lat="40.9309933" lon="-0.165775"><ele>424.0</ele><time>2026-03-31T11:42:11.155Z</time></trkpt><trkpt lat="40.9309117" lon="-0.165755"><ele>424.0</ele><time>2026-03-31T11:42:12.155Z</time></trkpt><trkpt lat="40.9308183" lon="-0.1657033"><ele>424.0</ele><time>2026-03-31T11:42:13.155Z</time></trkpt><trkpt lat="40.9307267" lon="-0.1656367"><ele>424.0</ele><time>2026-03-31T11:42:14.155Z</time></trkpt><trkpt lat="40.9306283" lon="-0.1655717"><ele>424.0</ele><time>2026-03-31T11:42:15.155Z</time></trkpt><trkpt lat="40.9305217" lon="-0.1655167"><ele>424.0</ele><time>2026-03-31T11:42:16.155Z</time></trkpt><trkpt lat="40.9303933" lon="-0.165465"><ele>424.0</ele><time>2026-03-31T11:42:17.155Z</time></trkpt><trkpt lat="40.930255" lon="-0.16542"><ele>424.0</ele><time>2026-03-31T11:42:18.155Z</time></trkpt><trkpt lat="40.9301183" lon="-0.165375"><ele>425.25</ele><time>2026-03-31T11:42:19.155Z</time></trkpt><trkpt lat="40.92999" lon="-0.1653367"><ele>426.5</ele><time>2026-03-31T11:42:20.155Z</time></trkpt><trkpt lat="40.9298533" lon="-0.1653133"><ele>427.75</ele><time>2026-03-31T11:42:21.155Z</time></trkpt><trkpt lat="40.9297367" lon="-0.16532"><ele>429.0</ele><time>2026-03-31T11:42:22.154Z</time></trkpt><trkpt lat="40.9296233" lon="-0.1653467"><ele>429.0</ele><time>2026-03-31T11:42:23.155Z</time></trkpt><trkpt lat="40.9295183" lon="-0.1653983"><ele>429.0</ele><time>2026-03-31T11:42:24.155Z</time></trkpt><trkpt lat="40.92944" lon="-0.165475"><ele>429.0</ele><time>2026-03-31T11:42:25.154Z</time></trkpt><trkpt lat="40.9293883" lon="-0.165575"><ele>429.0</ele><time>2026-03-31T11:42:26.154Z</time></trkpt><trkpt lat="40.9293467" lon="-0.1656883"><ele>429.0</ele><time>2026-03-31T11:42:27.154Z</time></trkpt><trkpt lat="40.9293183" lon="-0.16582"><ele>433.0</ele><time>2026-03-31T11:42:28.154Z</time></trkpt><trkpt lat="40.9293017" lon="-0.1659583"><ele>437.0</ele><time>2026-03-31T11:42:29.154Z</time></trkpt><trkpt lat="40.929295" lon="-0.1661117"><ele>441.0</ele><time>2026-03-31T11:42:30.154Z</time></trkpt><trkpt lat="40.92931" lon="-0.1662917"><ele>445.0</ele><time>2026-03-31T11:42:31.155Z</time></trkpt><trkpt lat="40.92933" lon="-0.1664683"><ele>448.5</ele><time>2026-03-31T11:42:32.154Z</time></trkpt><trkpt lat="40.9293533" lon="-0.1666467"><ele>452.0</ele><time>2026-03-31T11:42:33.155Z</time></trkpt><trkpt lat="40.9293783" lon="-0.1668233"><ele>455.5</ele><time>2026-03-31T11:42:34.155Z</time></trkpt><trkpt lat="40.9293933" lon="-0.167005"><ele>459.0</ele><time>2026-03-31T11:42:35.154Z</time></trkpt><trkpt lat="40.9293917" lon="-0.1671867"><ele>460.5</ele><time>2026-03-31T11:42:36.155Z</time></trkpt><trkpt lat="40.9293733" lon="-0.167365"><ele>462.0</ele><time>2026-03-31T11:42:37.155Z</time></trkpt><trkpt lat="40.9293417" lon="-0.1675383"><ele>463.5</ele><time>2026-03-31T11:42:38.154Z</time></trkpt><trkpt lat="40.9293267" lon="-0.1677167"><ele>465.0</ele><time>2026-03-31T11:42:39.154Z</time></trkpt><trkpt lat="40.92932" lon="-0.1678867"><ele>465.0</ele><time>2026-03-31T11:42:40.154Z</time></trkpt><trkpt lat="40.9293017" lon="-0.1680617"><ele>465.0</ele><time>2026-03-31T11:42:41.154Z</time></trkpt><trkpt lat="40.929255" lon="-0.1682367"><ele>465.0</ele><time>2026-03-31T11:42:42.154Z</time></trkpt><trkpt lat="40.92919" lon="-0.1684117"><ele>465.0</ele><time>2026-03-31T11:42:43.154Z</time></trkpt><trkpt lat="40.929115" lon="-0.1685783"><ele>463.5</ele><time>2026-03-31T11:42:44.155Z</time></trkpt><trkpt lat="40.92906" lon="-0.168745"><ele>462.0</ele><time>2026-03-31T11:42:45.155Z</time></trkpt><trkpt lat="40.9290117" lon="-0.168895"><ele>460.5</ele><time>2026-03-31T11:42:46.155Z</time></trkpt><trkpt lat="40.9289717" lon="-0.1690567"><ele>459.0</ele><time>2026-03-31T11:42:47.154Z</time></trkpt><trkpt lat="40.9289333" lon="-0.1692267"><ele>459.0</ele><time>2026-03-31T11:42:48.154Z</time></trkpt><trkpt lat="40.928905" lon="-0.16939"><ele>459.0</ele><time>2026-03-31T11:42:49.154Z</time></trkpt><trkpt lat="40.9288917" lon="-0.1695683"><ele>459.0</ele><time>2026-03-31T11:42:50.155Z</time></trkpt><trkpt lat="40.9288883" lon="-0.1697417"><ele>459.0</ele><time>2026-03-31T11:42:51.154Z</time></trkpt><trkpt lat="40.9288867" lon="-0.169915"><ele>461.0</ele><time>2026-03-31T11:42:52.154Z</time></trkpt><trkpt lat="40.928875" lon="-0.1700867"><ele>463.0</ele><time>2026-03-31T11:42:53.154Z</time></trkpt><trkpt lat="40.9288583" lon="-0.1702483"><ele>465.0</ele><time>2026-03-31T11:42:54.155Z</time></trkpt><trkpt lat="40.92884" lon="-0.1704083"><ele>467.0</ele><time>2026-03-31T11:42:55.154Z</time></trkpt><trkpt lat="40.9288333" lon="-0.1705717"><ele>467.40000000000003</ele><time>2026-03-31T11:42:56.154Z</time></trkpt><trkpt lat="40.9288367" lon="-0.17073"><ele>467.80000000000007</ele><time>2026-03-31T11:42:57.154Z</time></trkpt><trkpt lat="40.9288517" lon="-0.1708733"><ele>468.2</ele><time>2026-03-31T11:42:58.155Z</time></trkpt><trkpt lat="40.9288717" lon="-0.1710117"><ele>468.6</ele><time>2026-03-31T11:42:59.154Z</time></trkpt><trkpt lat="40.9288917" lon="-0.1711417"><ele>469.0</ele><time>2026-03-31T11:43:00.154Z</time></trkpt><trkpt lat="40.9289083" lon="-0.17127"><ele>469.0</ele><time>2026-03-31T11:43:01.154Z</time></trkpt><trkpt lat="40.92892" lon="-0.1714033"><ele>469.0</ele><time>2026-03-31T11:43:02.154Z</time></trkpt><trkpt lat="40.9289433" lon="-0.171545"><ele>469.0</ele><time>2026-03-31T11:43:03.155Z</time></trkpt><trkpt lat="40.92897" lon="-0.1716983"><ele>469.0</ele><time>2026-03-31T11:43:04.155Z</time></trkpt><trkpt lat="40.9289917" lon="-0.1718617"><ele>468.25</ele><time>2026-03-31T11:43:05.154Z</time></trkpt><trkpt lat="40.9290017" lon="-0.1720367"><ele>467.5</ele><time>2026-03-31T11:43:06.155Z</time></trkpt><trkpt lat="40.9289783" lon="-0.1722083"><ele>466.75</ele><time>2026-03-31T11:43:07.155Z</time></trkpt><trkpt lat="40.92895" lon="-0.17239"><ele>466.0</ele><time>2026-03-31T11:43:08.155Z</time></trkpt><trkpt lat="40.9289067" lon="-0.1725483"><ele>464.75</ele><time>2026-03-31T11:43:09.154Z</time></trkpt><trkpt lat="40.9288633" lon="-0.172715"><ele>463.5</ele><time>2026-03-31T11:43:10.154Z</time></trkpt><trkpt lat="40.9288467" lon="-0.1729"><ele>462.25</ele><time>2026-03-31T11:43:11.154Z</time></trkpt><trkpt lat="40.9288467" lon="-0.1730933"><ele>461.0</ele><time>2026-03-31T11:43:12.154Z</time></trkpt><trkpt lat="40.9288533" lon="-0.1732883"><ele>460.75</ele><time>2026-03-31T11:43:13.154Z</time></trkpt><trkpt lat="40.92887" lon="-0.17348"><ele>460.5</ele><time>2026-03-31T11:43:14.154Z</time></trkpt><trkpt lat="40.928885" lon="-0.1736617"><ele>460.25</ele><time>2026-03-31T11:43:15.154Z</time></trkpt><trkpt lat="40.9289033" lon="-0.1738317"><ele>460.0</ele><time>2026-03-31T11:43:16.154Z</time></trkpt><trkpt lat="40.928915" lon="-0.1739883"><ele>459.5</ele><time>2026-03-31T11:43:17.154Z</time></trkpt><trkpt lat="40.9289217" lon="-0.17414"><ele>459.0</ele><time>2026-03-31T11:43:18.154Z</time></trkpt><trkpt lat="40.9289267" lon="-0.1742867"><ele>458.5</ele><time>2026-03-31T11:43:19.155Z</time></trkpt><trkpt lat="40.92893" lon="-0.17444"><ele>458.0</ele><time>2026-03-31T11:43:20.155Z</time></trkpt><trkpt lat="40.9289283" lon="-0.174585"><ele>458.0</ele><time>2026-03-31T11:43:21.154Z</time></trkpt><trkpt lat="40.928905" lon="-0.1747133"><ele>457.99999999999994</ele><time>2026-03-31T11:43:22.154Z</time></trkpt><trkpt lat="40.92886" lon="-0.17483"><ele>457.99999999999994</ele><time>2026-03-31T11:43:23.155Z</time></trkpt><trkpt lat="40.9287917" lon="-0.174935"><ele>458.0</ele><time>2026-03-31T11:43:24.154Z</time></trkpt><trkpt lat="40.928735" lon="-0.175025"><ele>458.0</ele><time>2026-03-31T11:43:25.154Z</time></trkpt><trkpt lat="40.92871" lon="-0.17513"><ele>456.59999999999997</ele><time>2026-03-31T11:43:26.154Z</time></trkpt><trkpt lat="40.9287167" lon="-0.175245"><ele>455.19999999999993</ele><time>2026-03-31T11:43:27.155Z</time></trkpt><trkpt lat="40.9287617" lon="-0.17536"><ele>453.8</ele><time>2026-03-31T11:43:28.155Z</time></trkpt><trkpt lat="40.9288317" lon="-0.175465"><ele>452.4</ele><time>2026-03-31T11:43:29.154Z</time></trkpt><trkpt lat="40.9289083" lon="-0.175565"><ele>451.0</ele><time>2026-03-31T11:43:30.154Z</time></trkpt><trkpt lat="40.92897" lon="-0.1756733"><ele>450.0</ele><time>2026-03-31T11:43:31.154Z</time></trkpt><trkpt lat="40.92902" lon="-0.17579"><ele>449.0</ele><time>2026-03-31T11:43:32.154Z</time></trkpt><trkpt lat="40.9290617" lon="-0.17591"><ele>448.0</ele><time>2026-03-31T11:43:33.154Z</time></trkpt><trkpt lat="40.9290967" lon="-0.1760233"><ele>447.0</ele><time>2026-03-31T11:43:34.155Z</time></trkpt><trkpt lat="40.9291267" lon="-0.1761367"><ele>446.0</ele><time>2026-03-31T11:43:35.155Z</time></trkpt><trkpt lat="40.9291483" lon="-0.1762533"><ele>446.0</ele><time>2026-03-31T11:43:36.154Z</time></trkpt><trkpt lat="40.9291633" lon="-0.1763833"><ele>446.0</ele><time>2026-03-31T11:43:37.154Z</time></trkpt><trkpt lat="40.9291717" lon="-0.1765117"><ele>446.0</ele><time>2026-03-31T11:43:38.154Z</time></trkpt><trkpt lat="40.92916" lon="-0.1766417"><ele>446.0</ele><time>2026-03-31T11:43:39.155Z</time></trkpt><trkpt lat="40.9291283" lon="-0.17679"><ele>446.0</ele><time>2026-03-31T11:43:40.155Z</time></trkpt><trkpt lat="40.9290683" lon="-0.1769117"><ele>444.8</ele><time>2026-03-31T11:43:41.154Z</time></trkpt><trkpt lat="40.9289967" lon="-0.1770183"><ele>443.6</ele><time>2026-03-31T11:43:42.154Z</time></trkpt><trkpt lat="40.928915" lon="-0.1771017"><ele>442.4</ele><time>2026-03-31T11:43:43.154Z</time></trkpt><trkpt lat="40.9288417" lon="-0.1771833"><ele>441.2</ele><time>2026-03-31T11:43:44.155Z</time></trkpt><trkpt lat="40.9287933" lon="-0.177285"><ele>440.0</ele><time>2026-03-31T11:43:45.155Z</time></trkpt><trkpt lat="40.928775" lon="-0.17741"><ele>439.2</ele><time>2026-03-31T11:43:46.154Z</time></trkpt><trkpt lat="40.92878" lon="-0.1775467"><ele>438.4</ele><time>2026-03-31T11:43:47.155Z</time></trkpt><trkpt lat="40.928805" lon="-0.177675"><ele>437.6</ele><time>2026-03-31T11:43:48.154Z</time></trkpt><trkpt lat="40.9288267" lon="-0.17781"><ele>436.8</ele><time>2026-03-31T11:43:49.154Z</time></trkpt><trkpt lat="40.9288433" lon="-0.1779433"><ele>436.0</ele><time>2026-03-31T11:43:50.154Z</time></trkpt><trkpt lat="40.9288567" lon="-0.1780717"><ele>435.1666666666667</ele><time>2026-03-31T11:43:51.155Z</time></trkpt><trkpt lat="40.9288667" lon="-0.178195"><ele>434.33333333333337</ele><time>2026-03-31T11:43:52.154Z</time></trkpt><trkpt lat="40.9288767" lon="-0.17831"><ele>433.5</ele><time>2026-03-31T11:43:53.155Z</time></trkpt><trkpt lat="40.9288917" lon="-0.1784133"><ele>432.66666666666663</ele><time>2026-03-31T11:43:54.154Z</time></trkpt><trkpt lat="40.9289183" lon="-0.178525"><ele>431.8333333333333</ele><time>2026-03-31T11:43:55.154Z</time></trkpt><trkpt lat="40.92895" lon="-0.17865"><ele>431.0</ele><time>2026-03-31T11:43:56.154Z</time></trkpt><trkpt lat="40.9290017" lon="-0.1787883"><ele>431.0</ele><time>2026-03-31T11:43:57.154Z</time></trkpt><trkpt lat="40.9290567" lon="-0.1789233"><ele>431.0</ele><time>2026-03-31T11:43:58.154Z</time></trkpt><trkpt lat="40.9291167" lon="-0.1790533"><ele>431.0</ele><time>2026-03-31T11:43:59.155Z</time></trkpt><trkpt lat="40.9291883" lon="-0.1791767"><ele>431.0</ele><time>2026-03-31T11:44:00.154Z</time></trkpt><trkpt lat="40.929255" lon="-0.1792967"><ele>430.6</ele><time>2026-03-31T11:44:01.154Z</time></trkpt><trkpt lat="40.929335" lon="-0.1793967"><ele>430.20000000000005</ele><time>2026-03-31T11:44:02.154Z</time></trkpt><trkpt lat="40.929415" lon="-0.1794883"><ele>429.79999999999995</ele><time>2026-03-31T11:44:03.155Z</time></trkpt><trkpt lat="40.92949" lon="-0.179585"><ele>429.4</ele><time>2026-03-31T11:44:04.154Z</time></trkpt><trkpt lat="40.9295467" lon="-0.1796917"><ele>429.0</ele><time>2026-03-31T11:44:05.154Z</time></trkpt><trkpt lat="40.9295933" lon="-0.1798083"><ele>427.6</ele><time>2026-03-31T11:44:06.155Z</time></trkpt><trkpt lat="40.9296317" lon="-0.179935"><ele>426.2</ele><time>2026-03-31T11:44:07.154Z</time></trkpt><trkpt lat="40.92967" lon="-0.18006"><ele>424.8</ele><time>2026-03-31T11:44:08.154Z</time></trkpt><trkpt lat="40.9297067" lon="-0.1801833"><ele>423.40000000000003</ele><time>2026-03-31T11:44:09.154Z</time></trkpt><trkpt lat="40.929735" lon="-0.1803067"><ele>422.0</ele><time>2026-03-31T11:44:10.154Z</time></trkpt><trkpt lat="40.9297533" lon="-0.18043"><ele>421.99999999999994</ele><time>2026-03-31T11:44:11.155Z</time></trkpt><trkpt lat="40.9297683" lon="-0.1805433"><ele>422.0</ele><time>2026-03-31T11:44:12.154Z</time></trkpt><trkpt lat="40.929755" lon="-0.1806483"><ele>422.0</ele><time>2026-03-31T11:44:13.154Z</time></trkpt><trkpt lat="40.9297233" lon="-0.1807333"><ele>422.0</ele><time>2026-03-31T11:44:14.154Z</time></trkpt><trkpt lat="40.929665" lon="-0.1807967"><ele>421.99999999999994</ele><time>2026-03-31T11:44:15.154Z</time></trkpt><trkpt lat="40.9295767" lon="-0.18082"><ele>422.0</ele><time>2026-03-31T11:44:16.155Z</time></trkpt><trkpt lat="40.929485" lon="-0.1808133"><ele>422.40000000000003</ele><time>2026-03-31T11:44:17.155Z</time></trkpt><trkpt lat="40.9293883" lon="-0.1807867"><ele>422.8</ele><time>2026-03-31T11:44:18.154Z</time></trkpt><trkpt lat="40.929285" lon="-0.1807633"><ele>423.2</ele><time>2026-03-31T11:44:19.154Z</time></trkpt><trkpt lat="40.9291817" lon="-0.180755"><ele>423.6</ele><time>2026-03-31T11:44:20.154Z</time></trkpt><trkpt lat="40.9290867" lon="-0.1807583"><ele>424.0</ele><time>2026-03-31T11:44:21.155Z</time></trkpt><trkpt lat="40.929" lon="-0.180775"><ele>424.0</ele><time>2026-03-31T11:44:22.154Z</time></trkpt><trkpt lat="40.9289133" lon="-0.1808017"><ele>424.0</ele><time>2026-03-31T11:44:23.155Z</time></trkpt><trkpt lat="40.9288217" lon="-0.1808433"><ele>424.0</ele><time>2026-03-31T11:44:24.154Z</time></trkpt><trkpt lat="40.928735" lon="-0.18091"><ele>424.0</ele><time>2026-03-31T11:44:25.154Z</time></trkpt><trkpt lat="40.9286733" lon="-0.181"><ele>424.0</ele><time>2026-03-31T11:44:26.154Z</time></trkpt><trkpt lat="40.9286283" lon="-0.18111"><ele>424.00000000000006</ele><time>2026-03-31T11:44:27.155Z</time></trkpt><trkpt lat="40.928615" lon="-0.181225"><ele>424.0</ele><time>2026-03-31T11:44:28.154Z</time></trkpt><trkpt lat="40.928625" lon="-0.1813517"><ele>424.0</ele><time>2026-03-31T11:44:29.154Z</time></trkpt><trkpt lat="40.9286633" lon="-0.1814583"><ele>424.0</ele><time>2026-03-31T11:44:30.154Z</time></trkpt><trkpt lat="40.9287233" lon="-0.1815267"><ele>424.00000000000006</ele><time>2026-03-31T11:44:31.155Z</time></trkpt><trkpt lat="40.9288017" lon="-0.1815667"><ele>424.0</ele><time>2026-03-31T11:44:32.154Z</time></trkpt><trkpt lat="40.9289133" lon="-0.1815883"><ele>424.6</ele><time>2026-03-31T11:44:33.155Z</time></trkpt><trkpt lat="40.9290317" lon="-0.181605"><ele>425.2</ele><time>2026-03-31T11:44:34.154Z</time></trkpt><trkpt lat="40.9291417" lon="-0.1816333"><ele>425.80000000000007</ele><time>2026-03-31T11:44:35.155Z</time></trkpt><trkpt lat="40.9292367" lon="-0.1816683"><ele>426.40000000000003</ele><time>2026-03-31T11:44:36.154Z</time></trkpt><trkpt lat="40.9293033" lon="-0.1817267"><ele>427.0</ele><time>2026-03-31T11:44:37.154Z</time></trkpt><trkpt lat="40.929355" lon="-0.1818133"><ele>425.33333333333337</ele><time>2026-03-31T11:44:38.154Z</time></trkpt><trkpt lat="40.9293933" lon="-0.1819083"><ele>423.6666666666667</ele><time>2026-03-31T11:44:39.154Z</time></trkpt><trkpt lat="40.9294267" lon="-0.1820167"><ele>422.0</ele><time>2026-03-31T11:44:40.155Z</time></trkpt><trkpt lat="40.9294617" lon="-0.1821217"><ele>420.33333333333337</ele><time>2026-03-31T11:44:41.155Z</time></trkpt><trkpt lat="40.9295" lon="-0.1822317"><ele>418.6666666666667</ele><time>2026-03-31T11:44:42.154Z</time></trkpt><trkpt lat="40.92954" lon="-0.1823367"><ele>417.0</ele><time>2026-03-31T11:44:43.154Z</time></trkpt><trkpt lat="40.9295767" lon="-0.1824433"><ele>417.0</ele><time>2026-03-31T11:44:44.154Z</time></trkpt><trkpt lat="40.9296133" lon="-0.1825533"><ele>417.0</ele><time>2026-03-31T11:44:45.155Z</time></trkpt><trkpt lat="40.929655" lon="-0.18266"><ele>417.0</ele><time>2026-03-31T11:44:46.155Z</time></trkpt><trkpt lat="40.9297017" lon="-0.182775"><ele>417.0</ele><time>2026-03-31T11:44:47.154Z</time></trkpt><trkpt lat="40.9297467" lon="-0.1828933"><ele>417.0</ele><time>2026-03-31T11:44:48.155Z</time></trkpt><trkpt lat="40.9297933" lon="-0.1830083"><ele>417.0</ele><time>2026-03-31T11:44:49.154Z</time></trkpt><trkpt lat="40.92985" lon="-0.1831467"><ele>417.0</ele><time>2026-03-31T11:44:50.154Z</time></trkpt><trkpt lat="40.929905" lon="-0.183295"><ele>417.0</ele><time>2026-03-31T11:44:51.155Z</time></trkpt><trkpt lat="40.92996" lon="-0.1834417"><ele>417.0</ele><time>2026-03-31T11:44:52.154Z</time></trkpt><trkpt lat="40.930015" lon="-0.1835833"><ele>416.0</ele><time>2026-03-31T11:44:53.154Z</time></trkpt><trkpt lat="40.930075" lon="-0.1837283"><ele>415.0</ele><time>2026-03-31T11:44:54.154Z</time></trkpt><trkpt lat="40.93014" lon="-0.1838667"><ele>414.0</ele><time>2026-03-31T11:44:55.155Z</time></trkpt><trkpt lat="40.9301983" lon="-0.18401"><ele>413.0</ele><time>2026-03-31T11:44:56.154Z</time></trkpt><trkpt lat="40.930255" lon="-0.18413"><ele>413.0</ele><time>2026-03-31T11:44:57.154Z</time></trkpt><trkpt lat="40.9303017" lon="-0.1842483"><ele>413.0</ele><time>2026-03-31T11:44:58.154Z</time></trkpt><trkpt lat="40.93035" lon="-0.18437"><ele>413.0</ele><time>2026-03-31T11:44:59.155Z</time></trkpt><trkpt lat="40.9303883" lon="-0.1844967"><ele>413.0</ele><time>2026-03-31T11:45:00.155Z</time></trkpt><trkpt lat="40.9304183" lon="-0.18463"><ele>413.0</ele><time>2026-03-31T11:45:01.154Z</time></trkpt><trkpt lat="40.9304367" lon="-0.1847567"><ele>412.79999999999995</ele><time>2026-03-31T11:45:02.154Z</time></trkpt><trkpt lat="40.9304283" lon="-0.18488"><ele>412.6</ele><time>2026-03-31T11:45:03.154Z</time></trkpt><trkpt lat="40.9303967" lon="-0.18499"><ele>412.4</ele><time>2026-03-31T11:45:04.154Z</time></trkpt><trkpt lat="40.9303467" lon="-0.1850817"><ele>412.20000000000005</ele><time>2026-03-31T11:45:05.154Z</time></trkpt><trkpt lat="40.9302667" lon="-0.1851567"><ele>412.0</ele><time>2026-03-31T11:45:06.155Z</time></trkpt><trkpt lat="40.93019" lon="-0.185225"><ele>412.00000000000006</ele><time>2026-03-31T11:45:07.154Z</time></trkpt><trkpt lat="40.930135" lon="-0.1853067"><ele>412.0</ele><time>2026-03-31T11:45:08.154Z</time></trkpt><trkpt lat="40.9301117" lon="-0.1853967"><ele>412.0</ele><time>2026-03-31T11:45:09.154Z</time></trkpt><trkpt lat="40.930105" lon="-0.18549"><ele>412.0</ele><time>2026-03-31T11:45:10.154Z</time></trkpt><trkpt lat="40.9301267" lon="-0.185585"><ele>412.00000000000006</ele><time>2026-03-31T11:45:11.154Z</time></trkpt><trkpt lat="40.93017" lon="-0.1856883"><ele>412.0</ele><time>2026-03-31T11:45:12.155Z</time></trkpt><trkpt lat="40.9302433" lon="-0.18577"><ele>412.8</ele><time>2026-03-31T11:45:13.154Z</time></trkpt><trkpt lat="40.93034" lon="-0.1858167"><ele>413.6</ele><time>2026-03-31T11:45:14.155Z</time></trkpt><trkpt lat="40.9304483" lon="-0.1858283"><ele>414.40000000000003</ele><time>2026-03-31T11:45:15.154Z</time></trkpt><trkpt lat="40.9305467" lon="-0.1858083"><ele>415.20000000000005</ele><time>2026-03-31T11:45:16.154Z</time></trkpt><trkpt lat="40.9306467" lon="-0.1857883"><ele>416.0</ele><time>2026-03-31T11:45:17.154Z</time></trkpt><trkpt lat="40.9307517" lon="-0.1857817"><ele>416.0</ele><time>2026-03-31T11:45:18.154Z</time></trkpt><trkpt lat="40.93086" lon="-0.1857867"><ele>416.0</ele><time>2026-03-31T11:45:19.154Z</time></trkpt><trkpt lat="40.9309517" lon="-0.1858"><ele>416.0</ele><time>2026-03-31T11:45:20.155Z</time></trkpt><trkpt lat="40.931045" lon="-0.1858417"><ele>416.0</ele><time>2026-03-31T11:45:21.154Z</time></trkpt><trkpt lat="40.9311217" lon="-0.1859133"><ele>416.0</ele><time>2026-03-31T11:45:22.154Z</time></trkpt><trkpt lat="40.9311783" lon="-0.1860167"><ele>413.6</ele><time>2026-03-31T11:45:23.154Z</time></trkpt><trkpt lat="40.931225" lon="-0.1861433"><ele>411.20000000000005</ele><time>2026-03-31T11:45:24.154Z</time></trkpt><trkpt lat="40.9312583" lon="-0.1862767"><ele>408.79999999999995</ele><time>2026-03-31T11:45:25.154Z</time></trkpt><trkpt lat="40.931295" lon="-0.186405"><ele>406.4</ele><time>2026-03-31T11:45:26.154Z</time></trkpt><trkpt lat="40.931335" lon="-0.1865417"><ele>404.0</ele><time>2026-03-31T11:45:27.154Z</time></trkpt><trkpt lat="40.9313767" lon="-0.1866817"><ele>404.0</ele><time>2026-03-31T11:45:28.155Z</time></trkpt><trkpt lat="40.9314133" lon="-0.1868167"><ele>404.0</ele><time>2026-03-31T11:45:29.155Z</time></trkpt><trkpt lat="40.9314517" lon="-0.1869567"><ele>404.0</ele><time>2026-03-31T11:45:30.155Z</time></trkpt><trkpt lat="40.931475" lon="-0.1870933"><ele>404.0</ele><time>2026-03-31T11:45:31.155Z</time></trkpt><trkpt lat="40.9314883" lon="-0.1872133"><ele>404.0</ele><time>2026-03-31T11:45:32.154Z</time></trkpt><trkpt lat="40.93148" lon="-0.18733"><ele>403.66666666666663</ele><time>2026-03-31T11:45:33.155Z</time></trkpt><trkpt lat="40.93145" lon="-0.1874283"><ele>403.3333333333333</ele><time>2026-03-31T11:45:34.155Z</time></trkpt><trkpt lat="40.931415" lon="-0.187515"><ele>403.0</ele><time>2026-03-31T11:45:35.154Z</time></trkpt><trkpt lat="40.931385" lon="-0.187605"><ele>402.66666666666663</ele><time>2026-03-31T11:45:36.155Z</time></trkpt><trkpt lat="40.9313667" lon="-0.187705"><ele>402.3333333333333</ele><time>2026-03-31T11:45:37.155Z</time></trkpt><trkpt lat="40.931365" lon="-0.187805"><ele>402.0</ele><time>2026-03-31T11:45:38.154Z</time></trkpt><trkpt lat="40.931385" lon="-0.187915"><ele>402.0</ele><time>2026-03-31T11:45:39.154Z</time></trkpt><trkpt lat="40.9314117" lon="-0.1880267"><ele>402.0</ele><time>2026-03-31T11:45:40.155Z</time></trkpt><trkpt lat="40.9314417" lon="-0.188135"><ele>402.0</ele><time>2026-03-31T11:45:41.155Z</time></trkpt><trkpt lat="40.9314717" lon="-0.1882467"><ele>402.0</ele><time>2026-03-31T11:45:42.155Z</time></trkpt><trkpt lat="40.9314917" lon="-0.1883583"><ele>402.0</ele><time>2026-03-31T11:45:43.154Z</time></trkpt><trkpt lat="40.9314867" lon="-0.1884733"><ele>402.0</ele><time>2026-03-31T11:45:44.154Z</time></trkpt><trkpt lat="40.93146" lon="-0.1885933"><ele>401.0</ele><time>2026-03-31T11:45:45.154Z</time></trkpt><trkpt lat="40.9314283" lon="-0.1887033"><ele>400.0</ele><time>2026-03-31T11:45:46.154Z</time></trkpt><trkpt lat="40.9313917" lon="-0.18881"><ele>399.0</ele><time>2026-03-31T11:45:47.155Z</time></trkpt><trkpt lat="40.9313483" lon="-0.18892"><ele>398.0</ele><time>2026-03-31T11:45:48.155Z</time></trkpt><trkpt lat="40.9313167" lon="-0.189035"><ele>397.0</ele><time>2026-03-31T11:45:49.154Z</time></trkpt><trkpt lat="40.931285" lon="-0.1891483"><ele>396.33333333333337</ele><time>2026-03-31T11:45:50.155Z</time></trkpt><trkpt lat="40.9312567" lon="-0.1892533"><ele>395.6666666666667</ele><time>2026-03-31T11:45:51.155Z</time></trkpt><trkpt lat="40.931225" lon="-0.1893583"><ele>395.0</ele><time>2026-03-31T11:45:52.155Z</time></trkpt><trkpt lat="40.931195" lon="-0.1894667"><ele>394.33333333333337</ele><time>2026-03-31T11:45:53.154Z</time></trkpt><trkpt lat="40.9311683" lon="-0.1895767"><ele>393.6666666666667</ele><time>2026-03-31T11:45:54.154Z</time></trkpt><trkpt lat="40.9311333" lon="-0.1896883"><ele>393.0</ele><time>2026-03-31T11:45:55.154Z</time></trkpt><trkpt lat="40.93109" lon="-0.1898083"><ele>392.2</ele><time>2026-03-31T11:45:56.154Z</time></trkpt><trkpt lat="40.9310433" lon="-0.1899267"><ele>391.4</ele><time>2026-03-31T11:45:57.155Z</time></trkpt><trkpt lat="40.931" lon="-0.1900483"><ele>390.59999999999997</ele><time>2026-03-31T11:45:58.154Z</time></trkpt><trkpt lat="40.9309583" lon="-0.190165"><ele>389.79999999999995</ele><time>2026-03-31T11:45:59.154Z</time></trkpt><trkpt lat="40.93092" lon="-0.190275"><ele>389.0</ele><time>2026-03-31T11:46:00.155Z</time></trkpt><trkpt lat="40.9308767" lon="-0.1903833"><ele>390.49999999999994</ele><time>2026-03-31T11:46:01.154Z</time></trkpt><trkpt lat="40.930835" lon="-0.190485"><ele>392.0</ele><time>2026-03-31T11:46:02.154Z</time></trkpt><trkpt lat="40.9308" lon="-0.1905883"><ele>393.5</ele><time>2026-03-31T11:46:03.155Z</time></trkpt><trkpt lat="40.930765" lon="-0.1906767"><ele>395.0</ele><time>2026-03-31T11:46:04.154Z</time></trkpt><trkpt lat="40.9307267" lon="-0.1907483"><ele>396.49999999999994</ele><time>2026-03-31T11:46:05.155Z</time></trkpt><trkpt lat="40.9306233" lon="-0.190825"><ele>398.0</ele><time>2026-03-31T11:46:07.154Z</time></trkpt><trkpt lat="40.9305567" lon="-0.1908433"><ele>398.0</ele><time>2026-03-31T11:46:08.154Z</time></trkpt><trkpt lat="40.9304983" lon="-0.1908817"><ele>398.0</ele><time>2026-03-31T11:46:09.154Z</time></trkpt><trkpt lat="40.9304383" lon="-0.1910067"><ele>398.0</ele><time>2026-03-31T11:46:11.155Z</time></trkpt><trkpt lat="40.9304733" lon="-0.1911717"><ele>398.0</ele><time>2026-03-31T11:46:13.155Z</time></trkpt><trkpt lat="40.93051" lon="-0.1912483"><ele>398.0</ele><time>2026-03-31T11:46:14.154Z</time></trkpt><trkpt lat="40.9305583" lon="-0.19134"><ele>397.99999999999994</ele><time>2026-03-31T11:46:15.154Z</time></trkpt><trkpt lat="40.9305917" lon="-0.1914367"><ele>398.0</ele><time>2026-03-31T11:46:16.154Z</time></trkpt><trkpt lat="40.9306083" lon="-0.19153"><ele>398.0</ele><time>2026-03-31T11:46:17.154Z</time></trkpt><trkpt lat="40.9306133" lon="-0.191625"><ele>398.0</ele><time>2026-03-31T11:46:18.154Z</time></trkpt><trkpt lat="40.9306067" lon="-0.191725"><ele>397.99999999999994</ele><time>2026-03-31T11:46:19.154Z</time></trkpt><trkpt lat="40.930605" lon="-0.191835"><ele>398.0</ele><time>2026-03-31T11:46:20.154Z</time></trkpt><trkpt lat="40.9306017" lon="-0.1919517"><ele>397.49999999999994</ele><time>2026-03-31T11:46:21.155Z</time></trkpt><trkpt lat="40.9305967" lon="-0.1920617"><ele>397.0</ele><time>2026-03-31T11:46:22.155Z</time></trkpt><trkpt lat="40.93059" lon="-0.1921617"><ele>396.5</ele><time>2026-03-31T11:46:23.154Z</time></trkpt><trkpt lat="40.9305783" lon="-0.1922583"><ele>396.0</ele><time>2026-03-31T11:46:24.155Z</time></trkpt><trkpt lat="40.93057" lon="-0.192365"><ele>395.49999999999994</ele><time>2026-03-31T11:46:25.154Z</time></trkpt><trkpt lat="40.93055" lon="-0.1924817"><ele>395.0</ele><time>2026-03-31T11:46:26.154Z</time></trkpt><trkpt lat="40.9305167" lon="-0.192605"><ele>395.0</ele><time>2026-03-31T11:46:27.155Z</time></trkpt><trkpt lat="40.9304683" lon="-0.19272"><ele>395.0</ele><time>2026-03-31T11:46:28.154Z</time></trkpt><trkpt lat="40.93042" lon="-0.19282"><ele>395.0</ele><time>2026-03-31T11:46:29.155Z</time></trkpt><trkpt lat="40.9303667" lon="-0.19292"><ele>395.0</ele><time>2026-03-31T11:46:30.154Z</time></trkpt><trkpt lat="40.9303183" lon="-0.1930317"><ele>395.0</ele><time>2026-03-31T11:46:31.155Z</time></trkpt><trkpt lat="40.9302633" lon="-0.1931383"><ele>394.25</ele><time>2026-03-31T11:46:32.154Z</time></trkpt><trkpt lat="40.9302067" lon="-0.193245"><ele>393.5</ele><time>2026-03-31T11:46:33.155Z</time></trkpt><trkpt lat="40.9301517" lon="-0.193355"><ele>392.75</ele><time>2026-03-31T11:46:34.155Z</time></trkpt><trkpt lat="40.930075" lon="-0.19349"><ele>392.0</ele><time>2026-03-31T11:46:35.155Z</time></trkpt><trkpt lat="40.9299883" lon="-0.19365"><ele>392.3333333333333</ele><time>2026-03-31T11:46:36.154Z</time></trkpt><trkpt lat="40.929895" lon="-0.1938317"><ele>392.66666666666663</ele><time>2026-03-31T11:46:37.154Z</time></trkpt><trkpt lat="40.92982" lon="-0.1940083"><ele>393.0</ele><time>2026-03-31T11:46:38.154Z</time></trkpt><trkpt lat="40.9297483" lon="-0.194175"><ele>393.0</ele><time>2026-03-31T11:46:39.155Z</time></trkpt><trkpt lat="40.9296717" lon="-0.1943267"><ele>393.0</ele><time>2026-03-31T11:46:40.154Z</time></trkpt><trkpt lat="40.9295883" lon="-0.1944783"><ele>393.0</ele><time>2026-03-31T11:46:41.155Z</time></trkpt><trkpt lat="40.9295117" lon="-0.1946283"><ele>393.0</ele><time>2026-03-31T11:46:42.154Z</time></trkpt><trkpt lat="40.9294483" lon="-0.1947717"><ele>393.25</ele><time>2026-03-31T11:46:43.155Z</time></trkpt><trkpt lat="40.929385" lon="-0.19491"><ele>393.5</ele><time>2026-03-31T11:46:44.155Z</time></trkpt><trkpt lat="40.929335" lon="-0.1950633"><ele>393.75</ele><time>2026-03-31T11:46:45.155Z</time></trkpt><trkpt lat="40.9292983" lon="-0.195235"><ele>394.0</ele><time>2026-03-31T11:46:46.155Z</time></trkpt><trkpt lat="40.9292833" lon="-0.195425"><ele>394.0</ele><time>2026-03-31T11:46:47.154Z</time></trkpt><trkpt lat="40.9292783" lon="-0.1956267"><ele>394.0</ele><time>2026-03-31T11:46:48.154Z</time></trkpt><trkpt lat="40.9292717" lon="-0.1958217"><ele>394.0</ele><time>2026-03-31T11:46:49.155Z</time></trkpt><trkpt lat="40.929265" lon="-0.1960183"><ele>394.0</ele><time>2026-03-31T11:46:50.154Z</time></trkpt><trkpt lat="40.9292517" lon="-0.1962083"><ele>394.0</ele><time>2026-03-31T11:46:51.154Z</time></trkpt><trkpt lat="40.9292433" lon="-0.1964083"><ele>394.0</ele><time>2026-03-31T11:46:52.155Z</time></trkpt><trkpt lat="40.92924" lon="-0.1966133"><ele>394.0</ele><time>2026-03-31T11:46:53.154Z</time></trkpt><trkpt lat="40.92924" lon="-0.1968217"><ele>394.0</ele><time>2026-03-31T11:46:54.155Z</time></trkpt><trkpt lat="40.9292317" lon="-0.197035"><ele>394.0</ele><time>2026-03-31T11:46:55.154Z</time></trkpt><trkpt lat="40.92922" lon="-0.1972433"><ele>394.0</ele><time>2026-03-31T11:46:56.154Z</time></trkpt><trkpt lat="40.9292117" lon="-0.1974517"><ele>395.0</ele><time>2026-03-31T11:46:57.155Z</time></trkpt><trkpt lat="40.9292067" lon="-0.1976717"><ele>396.0</ele><time>2026-03-31T11:46:58.154Z</time></trkpt><trkpt lat="40.9292" lon="-0.1978883"><ele>397.0</ele><time>2026-03-31T11:46:59.155Z</time></trkpt><trkpt lat="40.9291967" lon="-0.198105"><ele>396.6666666666667</ele><time>2026-03-31T11:47:00.154Z</time></trkpt><trkpt lat="40.9291867" lon="-0.198315"><ele>396.33333333333337</ele><time>2026-03-31T11:47:01.155Z</time></trkpt><trkpt lat="40.92917" lon="-0.1985183"><ele>396.0</ele><time>2026-03-31T11:47:02.154Z</time></trkpt><trkpt lat="40.929165" lon="-0.1987233"><ele>396.0</ele><time>2026-03-31T11:47:03.155Z</time></trkpt><trkpt lat="40.9291417" lon="-0.19892"><ele>396.0</ele><time>2026-03-31T11:47:04.155Z</time></trkpt><trkpt lat="40.9291133" lon="-0.1991233"><ele>396.0</ele><time>2026-03-31T11:47:05.155Z</time></trkpt><trkpt lat="40.9290933" lon="-0.1993283"><ele>396.33333333333337</ele><time>2026-03-31T11:47:06.154Z</time></trkpt><trkpt lat="40.929065" lon="-0.1995267"><ele>396.6666666666667</ele><time>2026-03-31T11:47:07.155Z</time></trkpt><trkpt lat="40.9290417" lon="-0.19972"><ele>397.0</ele><time>2026-03-31T11:47:08.154Z</time></trkpt><trkpt lat="40.9290183" lon="-0.1999167"><ele>396.33333333333337</ele><time>2026-03-31T11:47:09.154Z</time></trkpt><trkpt lat="40.9290017" lon="-0.2001133"><ele>395.66666666666663</ele><time>2026-03-31T11:47:10.155Z</time></trkpt><trkpt lat="40.9289817" lon="-0.2003133"><ele>395.0</ele><time>2026-03-31T11:47:11.155Z</time></trkpt><trkpt lat="40.9289717" lon="-0.2005167"><ele>393.3333333333333</ele><time>2026-03-31T11:47:12.154Z</time></trkpt><trkpt lat="40.9289633" lon="-0.2007233"><ele>391.66666666666663</ele><time>2026-03-31T11:47:13.154Z</time></trkpt><trkpt lat="40.92896" lon="-0.20092"><ele>390.0</ele><time>2026-03-31T11:47:14.154Z</time></trkpt><trkpt lat="40.9289633" lon="-0.2011217"><ele>390.0</ele><time>2026-03-31T11:47:15.154Z</time></trkpt><trkpt lat="40.92897" lon="-0.2013183"><ele>390.0</ele><time>2026-03-31T11:47:16.155Z</time></trkpt><trkpt lat="40.9289667" lon="-0.2015283"><ele>390.0</ele><time>2026-03-31T11:47:17.154Z</time></trkpt><trkpt lat="40.928965" lon="-0.20174"><ele>390.0</ele><time>2026-03-31T11:47:18.154Z</time></trkpt><trkpt lat="40.928965" lon="-0.201945"><ele>390.0</ele><time>2026-03-31T11:47:19.155Z</time></trkpt><trkpt lat="40.9289667" lon="-0.20215"><ele>390.0</ele><time>2026-03-31T11:47:20.155Z</time></trkpt><trkpt lat="40.928965" lon="-0.2023483"><ele>388.0</ele><time>2026-03-31T11:47:21.155Z</time></trkpt><trkpt lat="40.9289683" lon="-0.20254"><ele>386.0</ele><time>2026-03-31T11:47:22.154Z</time></trkpt><trkpt lat="40.9289733" lon="-0.2027283"><ele>384.0</ele><time>2026-03-31T11:47:23.154Z</time></trkpt><trkpt lat="40.9289783" lon="-0.2029217"><ele>382.0</ele><time>2026-03-31T11:47:24.154Z</time></trkpt><trkpt lat="40.9289683" lon="-0.20308"><ele>381.6</ele><time>2026-03-31T11:47:25.154Z</time></trkpt><trkpt lat="40.928965" lon="-0.203225"><ele>381.20000000000005</ele><time>2026-03-31T11:47:26.155Z</time></trkpt><trkpt lat="40.92896" lon="-0.2033633"><ele>380.8</ele><time>2026-03-31T11:47:27.154Z</time></trkpt><trkpt lat="40.9289583" lon="-0.2035017"><ele>380.4</ele><time>2026-03-31T11:47:28.154Z</time></trkpt><trkpt lat="40.9289567" lon="-0.203645"><ele>380.0</ele><time>2026-03-31T11:47:29.154Z</time></trkpt><trkpt lat="40.92896" lon="-0.2037867"><ele>380.0</ele><time>2026-03-31T11:47:30.154Z</time></trkpt><trkpt lat="40.92897" lon="-0.2039417"><ele>380.0</ele><time>2026-03-31T11:47:31.154Z</time></trkpt><trkpt lat="40.9289883" lon="-0.2041"><ele>380.0</ele><time>2026-03-31T11:47:32.155Z</time></trkpt><trkpt lat="40.9290117" lon="-0.204265"><ele>380.0</ele><time>2026-03-31T11:47:33.154Z</time></trkpt><trkpt lat="40.9290433" lon="-0.2044317"><ele>381.5</ele><time>2026-03-31T11:47:34.154Z</time></trkpt><trkpt lat="40.9290733" lon="-0.2045967"><ele>383.0</ele><time>2026-03-31T11:47:35.154Z</time></trkpt><trkpt lat="40.9290933" lon="-0.2047533"><ele>384.5</ele><time>2026-03-31T11:47:36.155Z</time></trkpt><trkpt lat="40.9291333" lon="-0.2049133"><ele>386.0</ele><time>2026-03-31T11:47:37.154Z</time></trkpt><trkpt lat="40.9291917" lon="-0.2050567"><ele>387.25</ele><time>2026-03-31T11:47:38.155Z</time></trkpt><trkpt lat="40.9292533" lon="-0.205195"><ele>388.5</ele><time>2026-03-31T11:47:39.154Z</time></trkpt><trkpt lat="40.9293183" lon="-0.2053417"><ele>389.75</ele><time>2026-03-31T11:47:40.154Z</time></trkpt><trkpt lat="40.9293783" lon="-0.2054917"><ele>391.0</ele><time>2026-03-31T11:47:41.155Z</time></trkpt><trkpt lat="40.9294283" lon="-0.2056433"><ele>389.75</ele><time>2026-03-31T11:47:42.154Z</time></trkpt><trkpt lat="40.929475" lon="-0.2058033"><ele>388.5</ele><time>2026-03-31T11:47:43.154Z</time></trkpt><trkpt lat="40.929525" lon="-0.2059617"><ele>387.25</ele><time>2026-03-31T11:47:44.154Z</time></trkpt><trkpt lat="40.929575" lon="-0.2061133"><ele>386.0</ele><time>2026-03-31T11:47:45.154Z</time></trkpt><trkpt lat="40.929625" lon="-0.2062617"><ele>386.0</ele><time>2026-03-31T11:47:46.155Z</time></trkpt><trkpt lat="40.9296983" lon="-0.2064033"><ele>386.0</ele><time>2026-03-31T11:47:47.154Z</time></trkpt><trkpt lat="40.9297733" lon="-0.2065317"><ele>386.0</ele><time>2026-03-31T11:47:48.155Z</time></trkpt><trkpt lat="40.929845" lon="-0.2066517"><ele>386.0</ele><time>2026-03-31T11:47:49.154Z</time></trkpt><trkpt lat="40.9299167" lon="-0.2067633"><ele>387.0</ele><time>2026-03-31T11:47:50.154Z</time></trkpt><trkpt lat="40.9299783" lon="-0.20688"><ele>388.0</ele><time>2026-03-31T11:47:51.154Z</time></trkpt><trkpt lat="40.9300367" lon="-0.2069883"><ele>389.0</ele><time>2026-03-31T11:47:52.155Z</time></trkpt><trkpt lat="40.93009" lon="-0.2071067"><ele>390.0</ele><time>2026-03-31T11:47:53.154Z</time></trkpt><trkpt lat="40.9301533" lon="-0.2072383"><ele>391.0</ele><time>2026-03-31T11:47:54.154Z</time></trkpt><trkpt lat="40.930195" lon="-0.2073817"><ele>391.00000000000006</ele><time>2026-03-31T11:47:55.154Z</time></trkpt><trkpt lat="40.9302283" lon="-0.2075083"><ele>391.0</ele><time>2026-03-31T11:47:56.154Z</time></trkpt><trkpt lat="40.9302583" lon="-0.2076183"><ele>391.0</ele><time>2026-03-31T11:47:57.154Z</time></trkpt><trkpt lat="40.9302783" lon="-0.20771"><ele>391.0</ele><time>2026-03-31T11:47:58.154Z</time></trkpt><trkpt lat="40.9303" lon="-0.207805"><ele>391.00000000000006</ele><time>2026-03-31T11:48:00.155Z</time></trkpt><trkpt lat="40.9303933" lon="-0.2078433"><ele>391.0</ele><time>2026-03-31T11:48:03.155Z</time></trkpt><trkpt lat="40.9304767" lon="-0.2078467"><ele>391.0</ele><time>2026-03-31T11:48:04.154Z</time></trkpt><trkpt lat="40.93059" lon="-0.2078383"><ele>391.0</ele><time>2026-03-31T11:48:05.155Z</time></trkpt><trkpt lat="40.9307183" lon="-0.20784"><ele>391.0</ele><time>2026-03-31T11:48:06.154Z</time></trkpt><trkpt lat="40.9308533" lon="-0.20783"><ele>391.0</ele><time>2026-03-31T11:48:07.154Z</time></trkpt><trkpt lat="40.9310033" lon="-0.2078317"><ele>393.0</ele><time>2026-03-31T11:48:08.154Z</time></trkpt><trkpt lat="40.9311483" lon="-0.2078283"><ele>395.0</ele><time>2026-03-31T11:48:09.154Z</time></trkpt><trkpt lat="40.9313117" lon="-0.2078267"><ele>397.0</ele><time>2026-03-31T11:48:10.154Z</time></trkpt><trkpt lat="40.931475" lon="-0.2078283"><ele>397.0</ele><time>2026-03-31T11:48:11.155Z</time></trkpt><trkpt lat="40.9316383" lon="-0.207835"><ele>397.0</ele><time>2026-03-31T11:48:12.154Z</time></trkpt><trkpt lat="40.9318083" lon="-0.20785"><ele>397.0</ele><time>2026-03-31T11:48:13.155Z</time></trkpt><trkpt lat="40.93198" lon="-0.20788"><ele>399.33333333333337</ele><time>2026-03-31T11:48:14.154Z</time></trkpt><trkpt lat="40.9321567" lon="-0.2079233"><ele>401.66666666666663</ele><time>2026-03-31T11:48:15.154Z</time></trkpt><trkpt lat="40.93233" lon="-0.2079833"><ele>404.0</ele><time>2026-03-31T11:48:16.154Z</time></trkpt><trkpt lat="40.9325117" lon="-0.2080383"><ele>405.3333333333333</ele><time>2026-03-31T11:48:17.154Z</time></trkpt><trkpt lat="40.932705" lon="-0.208105"><ele>406.66666666666663</ele><time>2026-03-31T11:48:18.155Z</time></trkpt><trkpt lat="40.93289" lon="-0.2081733"><ele>408.0</ele><time>2026-03-31T11:48:19.155Z</time></trkpt><trkpt lat="40.9330683" lon="-0.20825"><ele>408.0</ele><time>2026-03-31T11:48:20.155Z</time></trkpt><trkpt lat="40.9332433" lon="-0.208335"><ele>408.0</ele><time>2026-03-31T11:48:21.154Z</time></trkpt><trkpt lat="40.93343" lon="-0.20842"><ele>408.0</ele><time>2026-03-31T11:48:22.155Z</time></trkpt><trkpt lat="40.933615" lon="-0.2085083"><ele>410.33333333333337</ele><time>2026-03-31T11:48:23.154Z</time></trkpt><trkpt lat="40.9337983" lon="-0.2085967"><ele>412.6666666666667</ele><time>2026-03-31T11:48:24.154Z</time></trkpt><trkpt lat="40.9339717" lon="-0.2087"><ele>415.0</ele><time>2026-03-31T11:48:25.154Z</time></trkpt><trkpt lat="40.934145" lon="-0.2088067"><ele>416.6666666666667</ele><time>2026-03-31T11:48:26.154Z</time></trkpt><trkpt lat="40.9343167" lon="-0.208925"><ele>418.33333333333337</ele><time>2026-03-31T11:48:27.155Z</time></trkpt><trkpt lat="40.934475" lon="-0.2090683"><ele>420.0</ele><time>2026-03-31T11:48:28.155Z</time></trkpt><trkpt lat="40.934625" lon="-0.2092233"><ele>420.0</ele><time>2026-03-31T11:48:29.155Z</time></trkpt><trkpt lat="40.9347683" lon="-0.2093917"><ele>420.0</ele><time>2026-03-31T11:48:30.154Z</time></trkpt><trkpt lat="40.9349067" lon="-0.209575"><ele>420.0</ele><time>2026-03-31T11:48:31.154Z</time></trkpt><trkpt lat="40.935045" lon="-0.2097833"><ele>422.66666666666663</ele><time>2026-03-31T11:48:32.154Z</time></trkpt><trkpt lat="40.9351717" lon="-0.2100017"><ele>425.3333333333333</ele><time>2026-03-31T11:48:33.154Z</time></trkpt><trkpt lat="40.935295" lon="-0.2102333"><ele>428.0</ele><time>2026-03-31T11:48:34.155Z</time></trkpt><trkpt lat="40.9354117" lon="-0.210475"><ele>424.5</ele><time>2026-03-31T11:48:35.154Z</time></trkpt><trkpt lat="40.93552" lon="-0.2107317"><ele>421.0</ele><time>2026-03-31T11:48:36.155Z</time></trkpt><trkpt lat="40.9356233" lon="-0.211005"><ele>421.0</ele><time>2026-03-31T11:48:37.155Z</time></trkpt><trkpt lat="40.9357267" lon="-0.2112817"><ele>421.0</ele><time>2026-03-31T11:48:38.155Z</time></trkpt><trkpt lat="40.9358217" lon="-0.2115683"><ele>421.0</ele><time>2026-03-31T11:48:39.154Z</time></trkpt><trkpt lat="40.9359117" lon="-0.2118533"><ele>421.0</ele><time>2026-03-31T11:48:40.154Z</time></trkpt><trkpt lat="40.9360033" lon="-0.212135"><ele>420.5</ele><time>2026-03-31T11:48:41.154Z</time></trkpt><trkpt lat="40.9360967" lon="-0.2124183"><ele>420.0</ele><time>2026-03-31T11:48:42.154Z</time></trkpt><trkpt lat="40.9361883" lon="-0.2127033"><ele>420.0</ele><time>2026-03-31T11:48:43.155Z</time></trkpt><trkpt lat="40.9362867" lon="-0.2129983"><ele>420.0</ele><time>2026-03-31T11:48:44.155Z</time></trkpt><trkpt lat="40.93639" lon="-0.2133033"><ele>420.5</ele><time>2026-03-31T11:48:45.154Z</time></trkpt><trkpt lat="40.9364917" lon="-0.213605"><ele>421.0</ele><time>2026-03-31T11:48:46.154Z</time></trkpt><trkpt lat="40.9365933" lon="-0.213895"><ele>422.5</ele><time>2026-03-31T11:48:47.154Z</time></trkpt><trkpt lat="40.93669" lon="-0.214195"><ele>424.0</ele><time>2026-03-31T11:48:48.155Z</time></trkpt><trkpt lat="40.9367833" lon="-0.2144817"><ele>425.0</ele><time>2026-03-31T11:48:49.154Z</time></trkpt><trkpt lat="40.9368817" lon="-0.2147767"><ele>426.0</ele><time>2026-03-31T11:48:50.154Z</time></trkpt><trkpt lat="40.93698" lon="-0.2150667"><ele>427.5</ele><time>2026-03-31T11:48:51.154Z</time></trkpt><trkpt lat="40.9370783" lon="-0.2153667"><ele>429.0</ele><time>2026-03-31T11:48:52.154Z</time></trkpt><trkpt lat="40.9371783" lon="-0.2156567"><ele>430.0</ele><time>2026-03-31T11:48:53.154Z</time></trkpt><trkpt lat="40.9372717" lon="-0.2159333"><ele>431.0</ele><time>2026-03-31T11:48:54.154Z</time></trkpt><trkpt lat="40.9373633" lon="-0.2162183"><ele>433.0</ele><time>2026-03-31T11:48:55.154Z</time></trkpt><trkpt lat="40.937455" lon="-0.216505"><ele>435.0</ele><time>2026-03-31T11:48:56.155Z</time></trkpt><trkpt lat="40.937545" lon="-0.2167933"><ele>434.5</ele><time>2026-03-31T11:48:57.154Z</time></trkpt><trkpt lat="40.937645" lon="-0.21708"><ele>434.0</ele><time>2026-03-31T11:48:58.154Z</time></trkpt><trkpt lat="40.9377433" lon="-0.21736"><ele>434.0</ele><time>2026-03-31T11:48:59.154Z</time></trkpt><trkpt lat="40.93783" lon="-0.2176333"><ele>434.0</ele><time>2026-03-31T11:49:00.154Z</time></trkpt><trkpt lat="40.9379133" lon="-0.2179117"><ele>435.0</ele><time>2026-03-31T11:49:01.155Z</time></trkpt><trkpt lat="40.9379967" lon="-0.2181967"><ele>436.0</ele><time>2026-03-31T11:49:02.155Z</time></trkpt><trkpt lat="40.9380833" lon="-0.218475"><ele>436.0</ele><time>2026-03-31T11:49:03.154Z</time></trkpt><trkpt lat="40.938155" lon="-0.2187283"><ele>436.0</ele><time>2026-03-31T11:49:04.154Z</time></trkpt><trkpt lat="40.9382217" lon="-0.2189783"><ele>436.0</ele><time>2026-03-31T11:49:05.154Z</time></trkpt><trkpt lat="40.9382883" lon="-0.21922"><ele>436.6666666666667</ele><time>2026-03-31T11:49:06.155Z</time></trkpt><trkpt lat="40.9383533" lon="-0.21946"><ele>437.33333333333337</ele><time>2026-03-31T11:49:07.154Z</time></trkpt><trkpt lat="40.9384217" lon="-0.2196967"><ele>438.0</ele><time>2026-03-31T11:49:08.154Z</time></trkpt><trkpt lat="40.9384833" lon="-0.219915"><ele>438.66666666666663</ele><time>2026-03-31T11:49:09.154Z</time></trkpt><trkpt lat="40.9385383" lon="-0.2201267"><ele>439.3333333333333</ele><time>2026-03-31T11:49:10.154Z</time></trkpt><trkpt lat="40.9385867" lon="-0.22032"><ele>440.0</ele><time>2026-03-31T11:49:11.154Z</time></trkpt><trkpt lat="40.93863" lon="-0.2205017"><ele>441.0</ele><time>2026-03-31T11:49:12.155Z</time></trkpt><trkpt lat="40.938675" lon="-0.22067"><ele>442.0</ele><time>2026-03-31T11:49:13.155Z</time></trkpt><trkpt lat="40.9387167" lon="-0.220825"><ele>443.0</ele><time>2026-03-31T11:49:14.155Z</time></trkpt><trkpt lat="40.9387667" lon="-0.2209783"><ele>444.0</ele><time>2026-03-31T11:49:15.154Z</time></trkpt><trkpt lat="40.938815" lon="-0.2211283"><ele>444.0</ele><time>2026-03-31T11:49:16.154Z</time></trkpt><trkpt lat="40.9388567" lon="-0.2212783"><ele>444.0</ele><time>2026-03-31T11:49:17.154Z</time></trkpt><trkpt lat="40.9388883" lon="-0.2214183"><ele>444.0</ele><time>2026-03-31T11:49:18.155Z</time></trkpt><trkpt lat="40.938925" lon="-0.2215617"><ele>444.0</ele><time>2026-03-31T11:49:19.154Z</time></trkpt><trkpt lat="40.9389667" lon="-0.221715"><ele>445.0</ele><time>2026-03-31T11:49:20.154Z</time></trkpt><trkpt lat="40.9390233" lon="-0.2218733"><ele>446.0</ele><time>2026-03-31T11:49:21.155Z</time></trkpt><trkpt lat="40.9390583" lon="-0.2220183"><ele>447.0</ele><time>2026-03-31T11:49:22.154Z</time></trkpt><trkpt lat="40.9391" lon="-0.2221683"><ele>448.0</ele><time>2026-03-31T11:49:23.155Z</time></trkpt><trkpt lat="40.9391383" lon="-0.2223167"><ele>448.4</ele><time>2026-03-31T11:49:24.155Z</time></trkpt><trkpt lat="40.939175" lon="-0.2224533"><ele>448.79999999999995</ele><time>2026-03-31T11:49:25.154Z</time></trkpt><trkpt lat="40.9392167" lon="-0.2226067"><ele>449.2</ele><time>2026-03-31T11:49:26.155Z</time></trkpt><trkpt lat="40.93925" lon="-0.2227433"><ele>449.6</ele><time>2026-03-31T11:49:27.155Z</time></trkpt><trkpt lat="40.93928" lon="-0.22288"><ele>450.0</ele><time>2026-03-31T11:49:28.155Z</time></trkpt><trkpt lat="40.939315" lon="-0.2230167"><ele>449.8</ele><time>2026-03-31T11:49:29.155Z</time></trkpt><trkpt lat="40.9393567" lon="-0.2231483"><ele>449.6</ele><time>2026-03-31T11:49:30.154Z</time></trkpt><trkpt lat="40.9393867" lon="-0.2232767"><ele>449.4</ele><time>2026-03-31T11:49:31.155Z</time></trkpt><trkpt lat="40.9394267" lon="-0.2234033"><ele>449.2</ele><time>2026-03-31T11:49:32.155Z</time></trkpt><trkpt lat="40.9394617" lon="-0.2235383"><ele>449.0</ele><time>2026-03-31T11:49:33.154Z</time></trkpt><trkpt lat="40.939495" lon="-0.223675"><ele>449.0</ele><time>2026-03-31T11:49:34.155Z</time></trkpt><trkpt lat="40.939525" lon="-0.2237933"><ele>449.0</ele><time>2026-03-31T11:49:35.154Z</time></trkpt><trkpt lat="40.9395567" lon="-0.2239033"><ele>449.0</ele><time>2026-03-31T11:49:36.154Z</time></trkpt><trkpt lat="40.939585" lon="-0.2240233"><ele>449.0</ele><time>2026-03-31T11:49:37.154Z</time></trkpt><trkpt lat="40.9396167" lon="-0.224135"><ele>449.0</ele><time>2026-03-31T11:49:38.155Z</time></trkpt><trkpt lat="40.9396517" lon="-0.2242567"><ele>449.2</ele><time>2026-03-31T11:49:39.154Z</time></trkpt><trkpt lat="40.9396883" lon="-0.2243683"><ele>449.4</ele><time>2026-03-31T11:49:40.155Z</time></trkpt><trkpt lat="40.939725" lon="-0.2244833"><ele>449.6</ele><time>2026-03-31T11:49:41.155Z</time></trkpt><trkpt lat="40.9397567" lon="-0.2245883"><ele>449.8</ele><time>2026-03-31T11:49:42.154Z</time></trkpt><trkpt lat="40.939785" lon="-0.2247067"><ele>450.0</ele><time>2026-03-31T11:49:43.154Z</time></trkpt><trkpt lat="40.9398183" lon="-0.2248117"><ele>450.6</ele><time>2026-03-31T11:49:44.154Z</time></trkpt><trkpt lat="40.93985" lon="-0.22492"><ele>451.2</ele><time>2026-03-31T11:49:45.155Z</time></trkpt><trkpt lat="40.939885" lon="-0.2250317"><ele>451.79999999999995</ele><time>2026-03-31T11:49:46.155Z</time></trkpt><trkpt lat="40.9399333" lon="-0.22514"><ele>452.4</ele><time>2026-03-31T11:49:47.154Z</time></trkpt><trkpt lat="40.9399883" lon="-0.225255"><ele>453.0</ele><time>2026-03-31T11:49:48.155Z</time></trkpt><trkpt lat="40.9400483" lon="-0.2253817"><ele>453.4</ele><time>2026-03-31T11:49:49.155Z</time></trkpt><trkpt lat="40.9401117" lon="-0.2254983"><ele>453.79999999999995</ele><time>2026-03-31T11:49:50.154Z</time></trkpt><trkpt lat="40.9401717" lon="-0.22561"><ele>454.2</ele><time>2026-03-31T11:49:51.154Z</time></trkpt><trkpt lat="40.9402267" lon="-0.225735"><ele>454.6</ele><time>2026-03-31T11:49:52.154Z</time></trkpt><trkpt lat="40.9402717" lon="-0.2258567"><ele>455.0</ele><time>2026-03-31T11:49:53.155Z</time></trkpt><trkpt lat="40.9403183" lon="-0.225945"><ele>455.8</ele><time>2026-03-31T11:49:54.154Z</time></trkpt><trkpt lat="40.94037" lon="-0.2260367"><ele>456.6</ele><time>2026-03-31T11:49:55.154Z</time></trkpt><trkpt lat="40.94042" lon="-0.2261417"><ele>457.4</ele><time>2026-03-31T11:49:56.154Z</time></trkpt><trkpt lat="40.9404767" lon="-0.2262483"><ele>458.2</ele><time>2026-03-31T11:49:57.154Z</time></trkpt><trkpt lat="40.9405367" lon="-0.2263567"><ele>459.0</ele><time>2026-03-31T11:49:58.154Z</time></trkpt><trkpt lat="40.9405883" lon="-0.2264817"><ele>459.6</ele><time>2026-03-31T11:49:59.154Z</time></trkpt><trkpt lat="40.9406467" lon="-0.226605"><ele>460.2</ele><time>2026-03-31T11:50:00.155Z</time></trkpt><trkpt lat="40.9407083" lon="-0.226735"><ele>460.80000000000007</ele><time>2026-03-31T11:50:01.154Z</time></trkpt><trkpt lat="40.94077" lon="-0.2268517"><ele>461.40000000000003</ele><time>2026-03-31T11:50:02.154Z</time></trkpt><trkpt lat="40.9408183" lon="-0.2269583"><ele>462.0</ele><time>2026-03-31T11:50:03.154Z</time></trkpt><trkpt lat="40.9408767" lon="-0.2270667"><ele>462.8</ele><time>2026-03-31T11:50:04.155Z</time></trkpt><trkpt lat="40.9409383" lon="-0.2271833"><ele>463.6</ele><time>2026-03-31T11:50:05.154Z</time></trkpt><trkpt lat="40.9409867" lon="-0.2272917"><ele>464.40000000000003</ele><time>2026-03-31T11:50:06.155Z</time></trkpt><trkpt lat="40.9410383" lon="-0.2273983"><ele>465.20000000000005</ele><time>2026-03-31T11:50:07.155Z</time></trkpt><trkpt lat="40.9410867" lon="-0.2275117"><ele>466.0</ele><time>2026-03-31T11:50:08.154Z</time></trkpt><trkpt lat="40.9411417" lon="-0.227625"><ele>466.1666666666667</ele><time>2026-03-31T11:50:09.155Z</time></trkpt><trkpt lat="40.9412" lon="-0.227725"><ele>466.33333333333337</ele><time>2026-03-31T11:50:10.154Z</time></trkpt><trkpt lat="40.9412433" lon="-0.2278233"><ele>466.5</ele><time>2026-03-31T11:50:11.154Z</time></trkpt><trkpt lat="40.9412883" lon="-0.2279183"><ele>466.66666666666663</ele><time>2026-03-31T11:50:12.154Z</time></trkpt><trkpt lat="40.9413317" lon="-0.228015"><ele>466.8333333333333</ele><time>2026-03-31T11:50:13.155Z</time></trkpt><trkpt lat="40.9413767" lon="-0.2281167"><ele>467.0</ele><time>2026-03-31T11:50:14.155Z</time></trkpt><trkpt lat="40.9414217" lon="-0.22822"><ele>466.99999999999994</ele><time>2026-03-31T11:50:15.155Z</time></trkpt><trkpt lat="40.94147" lon="-0.2283183"><ele>467.0</ele><time>2026-03-31T11:50:16.154Z</time></trkpt><trkpt lat="40.9415167" lon="-0.2284183"><ele>467.0</ele><time>2026-03-31T11:50:17.155Z</time></trkpt><trkpt lat="40.9415633" lon="-0.2285133"><ele>467.0</ele><time>2026-03-31T11:50:18.155Z</time></trkpt><trkpt lat="40.9416167" lon="-0.2286067"><ele>466.99999999999994</ele><time>2026-03-31T11:50:19.155Z</time></trkpt><trkpt lat="40.941665" lon="-0.2287067"><ele>467.0</ele><time>2026-03-31T11:50:20.154Z</time></trkpt><trkpt lat="40.9417117" lon="-0.228805"><ele>467.16666666666663</ele><time>2026-03-31T11:50:21.155Z</time></trkpt><trkpt lat="40.9417533" lon="-0.2288967"><ele>467.3333333333333</ele><time>2026-03-31T11:50:22.154Z</time></trkpt><trkpt lat="40.94179" lon="-0.22899"><ele>467.5</ele><time>2026-03-31T11:50:23.154Z</time></trkpt><trkpt lat="40.94183" lon="-0.22908"><ele>467.66666666666663</ele><time>2026-03-31T11:50:24.155Z</time></trkpt><trkpt lat="40.9418633" lon="-0.229165"><ele>467.8333333333333</ele><time>2026-03-31T11:50:25.154Z</time></trkpt><trkpt lat="40.9418967" lon="-0.2292383"><ele>468.0</ele><time>2026-03-31T11:50:26.155Z</time></trkpt><trkpt lat="40.94194" lon="-0.2293217"><ele>468.0</ele><time>2026-03-31T11:50:27.154Z</time></trkpt><trkpt lat="40.9419883" lon="-0.229415"><ele>468.0</ele><time>2026-03-31T11:50:28.154Z</time></trkpt><trkpt lat="40.94204" lon="-0.2295167"><ele>468.0</ele><time>2026-03-31T11:50:29.154Z</time></trkpt><trkpt lat="40.9420883" lon="-0.2296217"><ele>468.0</ele><time>2026-03-31T11:50:30.155Z</time></trkpt><trkpt lat="40.9421333" lon="-0.2297183"><ele>468.0</ele><time>2026-03-31T11:50:31.154Z</time></trkpt><trkpt lat="40.942175" lon="-0.229815"><ele>468.0</ele><time>2026-03-31T11:50:32.154Z</time></trkpt><trkpt lat="40.94222" lon="-0.22991"><ele>467.79999999999995</ele><time>2026-03-31T11:50:33.155Z</time></trkpt><trkpt lat="40.9422717" lon="-0.23001"><ele>467.59999999999997</ele><time>2026-03-31T11:50:34.155Z</time></trkpt><trkpt lat="40.9423217" lon="-0.23012"><ele>467.40000000000003</ele><time>2026-03-31T11:50:35.154Z</time></trkpt><trkpt lat="40.9423783" lon="-0.2302317"><ele>467.20000000000005</ele><time>2026-03-31T11:50:36.154Z</time></trkpt><trkpt lat="40.9424383" lon="-0.2303533"><ele>467.0</ele><time>2026-03-31T11:50:37.154Z</time></trkpt><trkpt lat="40.9424967" lon="-0.2304733"><ele>467.0</ele><time>2026-03-31T11:50:38.155Z</time></trkpt><trkpt lat="40.9425617" lon="-0.2305917"><ele>467.00000000000006</ele><time>2026-03-31T11:50:39.155Z</time></trkpt><trkpt lat="40.94262" lon="-0.2307083"><ele>467.00000000000006</ele><time>2026-03-31T11:50:40.155Z</time></trkpt><trkpt lat="40.9426683" lon="-0.2308183"><ele>467.0</ele><time>2026-03-31T11:50:41.155Z</time></trkpt><trkpt lat="40.9427133" lon="-0.2309167"><ele>467.0</ele><time>2026-03-31T11:50:42.154Z</time></trkpt><trkpt lat="40.9427567" lon="-0.231"><ele>466.99999999999994</ele><time>2026-03-31T11:50:43.155Z</time></trkpt><trkpt lat="40.942795" lon="-0.23109"><ele>467.0</ele><time>2026-03-31T11:50:44.154Z</time></trkpt><trkpt lat="40.9428317" lon="-0.23118"><ele>467.0</ele><time>2026-03-31T11:50:45.154Z</time></trkpt><trkpt lat="40.9428683" lon="-0.2312817"><ele>467.0</ele><time>2026-03-31T11:50:46.154Z</time></trkpt><trkpt lat="40.9429133" lon="-0.2313717"><ele>466.99999999999994</ele><time>2026-03-31T11:50:47.154Z</time></trkpt><trkpt lat="40.9429633" lon="-0.2314683"><ele>467.0</ele><time>2026-03-31T11:50:48.154Z</time></trkpt><trkpt lat="40.943015" lon="-0.2315683"><ele>467.3333333333333</ele><time>2026-03-31T11:50:49.154Z</time></trkpt><trkpt lat="40.9430633" lon="-0.2316733"><ele>467.66666666666663</ele><time>2026-03-31T11:50:50.154Z</time></trkpt><trkpt lat="40.9431083" lon="-0.231765"><ele>468.0</ele><time>2026-03-31T11:50:51.155Z</time></trkpt><trkpt lat="40.943155" lon="-0.231845"><ele>468.33333333333337</ele><time>2026-03-31T11:50:52.154Z</time></trkpt><trkpt lat="40.9431983" lon="-0.231915"><ele>468.6666666666667</ele><time>2026-03-31T11:50:53.154Z</time></trkpt><trkpt lat="40.943245" lon="-0.2320317"><ele>469.0</ele><time>2026-03-31T11:50:55.155Z</time></trkpt><trkpt lat="40.9433117" lon="-0.2321"><ele>468.0</ele><time>2026-03-31T11:50:59.154Z</time></trkpt><trkpt lat="40.9434367" lon="-0.2320633"><ele>467.0</ele><time>2026-03-31T11:51:01.155Z</time></trkpt><trkpt lat="40.943515" lon="-0.232025"><ele>466.0</ele><time>2026-03-31T11:51:02.155Z</time></trkpt><trkpt lat="40.9435967" lon="-0.2319817"><ele>465.0</ele><time>2026-03-31T11:51:03.155Z</time></trkpt><trkpt lat="40.9436783" lon="-0.2319433"><ele>464.0</ele><time>2026-03-31T11:51:04.154Z</time></trkpt><trkpt lat="40.9437717" lon="-0.2319017"><ele>464.0</ele><time>2026-03-31T11:51:05.154Z</time></trkpt><trkpt lat="40.9438867" lon="-0.2318533"><ele>464.0</ele><time>2026-03-31T11:51:06.155Z</time></trkpt><trkpt lat="40.9440067" lon="-0.231805"><ele>464.0</ele><time>2026-03-31T11:51:07.154Z</time></trkpt><trkpt lat="40.94413" lon="-0.2317383"><ele>464.0</ele><time>2026-03-31T11:51:08.154Z</time></trkpt><trkpt lat="40.9442617" lon="-0.231665"><ele>463.3333333333333</ele><time>2026-03-31T11:51:09.154Z</time></trkpt><trkpt lat="40.9443983" lon="-0.2315917"><ele>462.66666666666663</ele><time>2026-03-31T11:51:10.154Z</time></trkpt><trkpt lat="40.944545" lon="-0.2315167"><ele>462.0</ele><time>2026-03-31T11:51:11.154Z</time></trkpt><trkpt lat="40.9446833" lon="-0.2314467"><ele>461.25</ele><time>2026-03-31T11:51:12.154Z</time></trkpt><trkpt lat="40.94482" lon="-0.2313817"><ele>460.5</ele><time>2026-03-31T11:51:13.154Z</time></trkpt><trkpt lat="40.9449483" lon="-0.2313217"><ele>459.75</ele><time>2026-03-31T11:51:14.155Z</time></trkpt><trkpt lat="40.9450867" lon="-0.231255"><ele>459.0</ele><time>2026-03-31T11:51:15.154Z</time></trkpt><trkpt lat="40.945225" lon="-0.2311883"><ele>458.75</ele><time>2026-03-31T11:51:16.154Z</time></trkpt><trkpt lat="40.9453633" lon="-0.2311183"><ele>458.5</ele><time>2026-03-31T11:51:17.155Z</time></trkpt><trkpt lat="40.9454967" lon="-0.231055"><ele>458.25</ele><time>2026-03-31T11:51:18.154Z</time></trkpt><trkpt lat="40.945635" lon="-0.2309867"><ele>458.0</ele><time>2026-03-31T11:51:19.155Z</time></trkpt><trkpt lat="40.9457733" lon="-0.2309217"><ele>457.5</ele><time>2026-03-31T11:51:20.154Z</time></trkpt><trkpt lat="40.9459117" lon="-0.2308567"><ele>457.0</ele><time>2026-03-31T11:51:21.155Z</time></trkpt><trkpt lat="40.94605" lon="-0.2307883"><ele>456.5</ele><time>2026-03-31T11:51:22.154Z</time></trkpt><trkpt lat="40.94619" lon="-0.23072"><ele>456.0</ele><time>2026-03-31T11:51:23.154Z</time></trkpt><trkpt lat="40.946335" lon="-0.2306483"><ele>456.0</ele><time>2026-03-31T11:51:24.155Z</time></trkpt><trkpt lat="40.9464883" lon="-0.230585"><ele>456.0</ele><time>2026-03-31T11:51:25.155Z</time></trkpt><trkpt lat="40.9466417" lon="-0.23052"><ele>456.0</ele><time>2026-03-31T11:51:26.154Z</time></trkpt><trkpt lat="40.946795" lon="-0.2304467"><ele>456.0</ele><time>2026-03-31T11:51:27.155Z</time></trkpt><trkpt lat="40.9469533" lon="-0.23037"><ele>456.0</ele><time>2026-03-31T11:51:28.154Z</time></trkpt><trkpt lat="40.947115" lon="-0.2302967"><ele>456.0</ele><time>2026-03-31T11:51:29.154Z</time></trkpt><trkpt lat="40.947275" lon="-0.2302133"><ele>456.0</ele><time>2026-03-31T11:51:30.155Z</time></trkpt><trkpt lat="40.9474283" lon="-0.2301317"><ele>456.0</ele><time>2026-03-31T11:51:31.155Z</time></trkpt><trkpt lat="40.947585" lon="-0.2300617"><ele>456.0</ele><time>2026-03-31T11:51:32.154Z</time></trkpt><trkpt lat="40.9477383" lon="-0.2299883"><ele>456.0</ele><time>2026-03-31T11:51:33.154Z</time></trkpt><trkpt lat="40.9479" lon="-0.22991"><ele>456.0</ele><time>2026-03-31T11:51:34.154Z</time></trkpt><trkpt lat="40.9480533" lon="-0.22983"><ele>456.0</ele><time>2026-03-31T11:51:35.155Z</time></trkpt><trkpt lat="40.94821" lon="-0.2297583"><ele>455.66666666666663</ele><time>2026-03-31T11:51:36.154Z</time></trkpt><trkpt lat="40.9483667" lon="-0.2296983"><ele>455.3333333333333</ele><time>2026-03-31T11:51:37.154Z</time></trkpt><trkpt lat="40.9485133" lon="-0.2296333"><ele>455.0</ele><time>2026-03-31T11:51:38.154Z</time></trkpt><trkpt lat="40.94867" lon="-0.22956"><ele>454.3333333333333</ele><time>2026-03-31T11:51:39.154Z</time></trkpt><trkpt lat="40.948825" lon="-0.2294817"><ele>453.66666666666663</ele><time>2026-03-31T11:51:40.154Z</time></trkpt><trkpt lat="40.948975" lon="-0.22939"><ele>453.0</ele><time>2026-03-31T11:51:41.154Z</time></trkpt><trkpt lat="40.9491317" lon="-0.22931"><ele>454.33333333333337</ele><time>2026-03-31T11:51:42.154Z</time></trkpt><trkpt lat="40.9492817" lon="-0.2292317"><ele>455.6666666666667</ele><time>2026-03-31T11:51:43.154Z</time></trkpt><trkpt lat="40.9494367" lon="-0.2291483"><ele>457.0</ele><time>2026-03-31T11:51:44.155Z</time></trkpt><trkpt lat="40.9495967" lon="-0.22907"><ele>457.0</ele><time>2026-03-31T11:51:45.154Z</time></trkpt><trkpt lat="40.9497517" lon="-0.2289933"><ele>457.0</ele><time>2026-03-31T11:51:46.154Z</time></trkpt><trkpt lat="40.949915" lon="-0.2289167"><ele>457.0</ele><time>2026-03-31T11:51:47.154Z</time></trkpt><trkpt lat="40.9500883" lon="-0.2288383"><ele>457.6666666666667</ele><time>2026-03-31T11:51:48.154Z</time></trkpt><trkpt lat="40.9502533" lon="-0.2287617"><ele>458.33333333333337</ele><time>2026-03-31T11:51:49.154Z</time></trkpt><trkpt lat="40.950425" lon="-0.2286867"><ele>459.0</ele><time>2026-03-31T11:51:50.155Z</time></trkpt><trkpt lat="40.9505967" lon="-0.2286067"><ele>459.0</ele><time>2026-03-31T11:51:51.154Z</time></trkpt><trkpt lat="40.9507667" lon="-0.2285233"><ele>459.0</ele><time>2026-03-31T11:51:52.154Z</time></trkpt><trkpt lat="40.950935" lon="-0.2284417"><ele>459.0</ele><time>2026-03-31T11:51:53.154Z</time></trkpt><trkpt lat="40.9511117" lon="-0.228375"><ele>459.66666666666663</ele><time>2026-03-31T11:51:54.154Z</time></trkpt><trkpt lat="40.95129" lon="-0.22832"><ele>460.3333333333333</ele><time>2026-03-31T11:51:55.155Z</time></trkpt><trkpt lat="40.9514717" lon="-0.228265"><ele>461.0</ele><time>2026-03-31T11:51:56.154Z</time></trkpt><trkpt lat="40.95165" lon="-0.22822"><ele>461.0</ele><time>2026-03-31T11:51:57.155Z</time></trkpt><trkpt lat="40.95183" lon="-0.228165"><ele>461.0</ele><time>2026-03-31T11:51:58.154Z</time></trkpt><trkpt lat="40.9520117" lon="-0.2281167"><ele>461.0</ele><time>2026-03-31T11:51:59.154Z</time></trkpt><trkpt lat="40.9521933" lon="-0.2280683"><ele>460.0</ele><time>2026-03-31T11:52:00.154Z</time></trkpt><trkpt lat="40.95237" lon="-0.2280133"><ele>459.0</ele><time>2026-03-31T11:52:01.154Z</time></trkpt><trkpt lat="40.9525417" lon="-0.227965"><ele>458.0</ele><time>2026-03-31T11:52:02.154Z</time></trkpt><trkpt lat="40.9527167" lon="-0.22791"><ele>457.66666666666663</ele><time>2026-03-31T11:52:03.155Z</time></trkpt><trkpt lat="40.9528933" lon="-0.2278617"><ele>457.33333333333337</ele><time>2026-03-31T11:52:04.154Z</time></trkpt><trkpt lat="40.9530717" lon="-0.2278083"><ele>457.0</ele><time>2026-03-31T11:52:05.154Z</time></trkpt><trkpt lat="40.953255" lon="-0.2277633"><ele>454.6666666666667</ele><time>2026-03-31T11:52:06.154Z</time></trkpt><trkpt lat="40.953435" lon="-0.2277167"><ele>452.33333333333337</ele><time>2026-03-31T11:52:07.154Z</time></trkpt><trkpt lat="40.9536167" lon="-0.22767"><ele>450.0</ele><time>2026-03-31T11:52:08.155Z</time></trkpt><trkpt lat="40.9538" lon="-0.227615"><ele>450.0</ele><time>2026-03-31T11:52:09.155Z</time></trkpt><trkpt lat="40.9539817" lon="-0.2275617"><ele>450.0</ele><time>2026-03-31T11:52:10.154Z</time></trkpt><trkpt lat="40.954165" lon="-0.2275033"><ele>450.0</ele><time>2026-03-31T11:52:11.155Z</time></trkpt><trkpt lat="40.9543533" lon="-0.22745"><ele>448.0</ele><time>2026-03-31T11:52:12.154Z</time></trkpt><trkpt lat="40.9545417" lon="-0.2273983"><ele>446.0</ele><time>2026-03-31T11:52:13.154Z</time></trkpt><trkpt lat="40.9547283" lon="-0.2273483"><ele>444.0</ele><time>2026-03-31T11:52:14.154Z</time></trkpt><trkpt lat="40.954915" lon="-0.2273"><ele>443.0</ele><time>2026-03-31T11:52:15.154Z</time></trkpt><trkpt lat="40.9551067" lon="-0.2272567"><ele>442.0</ele><time>2026-03-31T11:52:16.155Z</time></trkpt><trkpt lat="40.9553133" lon="-0.2272083"><ele>441.0</ele><time>2026-03-31T11:52:17.154Z</time></trkpt><trkpt lat="40.955525" lon="-0.2271467"><ele>441.0</ele><time>2026-03-31T11:52:18.154Z</time></trkpt><trkpt lat="40.9557367" lon="-0.2270867"><ele>441.0</ele><time>2026-03-31T11:52:19.154Z</time></trkpt><trkpt lat="40.95595" lon="-0.2270283"><ele>441.0</ele><time>2026-03-31T11:52:20.154Z</time></trkpt><trkpt lat="40.9561683" lon="-0.2269683"><ele>440.66666666666663</ele><time>2026-03-31T11:52:21.154Z</time></trkpt><trkpt lat="40.956385" lon="-0.226905"><ele>440.3333333333333</ele><time>2026-03-31T11:52:22.155Z</time></trkpt><trkpt lat="40.9565933" lon="-0.226845"><ele>440.0</ele><time>2026-03-31T11:52:23.155Z</time></trkpt><trkpt lat="40.9567883" lon="-0.2267833"><ele>440.0</ele><time>2026-03-31T11:52:24.155Z</time></trkpt><trkpt lat="40.95698" lon="-0.226725"><ele>440.0</ele><time>2026-03-31T11:52:25.154Z</time></trkpt><trkpt lat="40.9571783" lon="-0.22667"><ele>440.0</ele><time>2026-03-31T11:52:26.154Z</time></trkpt><trkpt lat="40.95738" lon="-0.2266133"><ele>440.0</ele><time>2026-03-31T11:52:27.154Z</time></trkpt><trkpt lat="40.957585" lon="-0.2265483"><ele>440.0</ele><time>2026-03-31T11:52:28.155Z</time></trkpt><trkpt lat="40.9578017" lon="-0.22649"><ele>440.0</ele><time>2026-03-31T11:52:29.155Z</time></trkpt><trkpt lat="40.9580167" lon="-0.22643"><ele>439.66666666666663</ele><time>2026-03-31T11:52:30.155Z</time></trkpt><trkpt lat="40.9582317" lon="-0.2263717"><ele>439.33333333333337</ele><time>2026-03-31T11:52:31.154Z</time></trkpt><trkpt lat="40.9584367" lon="-0.2263167"><ele>439.0</ele><time>2026-03-31T11:52:32.154Z</time></trkpt><trkpt lat="40.9586383" lon="-0.2262533"><ele>440.0</ele><time>2026-03-31T11:52:33.155Z</time></trkpt><trkpt lat="40.9588433" lon="-0.22619"><ele>441.0</ele><time>2026-03-31T11:52:34.155Z</time></trkpt><trkpt lat="40.959055" lon="-0.2261283"><ele>442.0</ele><time>2026-03-31T11:52:35.155Z</time></trkpt><trkpt lat="40.9592667" lon="-0.2260767"><ele>442.0</ele><time>2026-03-31T11:52:36.154Z</time></trkpt><trkpt lat="40.959485" lon="-0.2260233"><ele>442.0</ele><time>2026-03-31T11:52:37.154Z</time></trkpt><trkpt lat="40.9597117" lon="-0.22597"><ele>442.0</ele><time>2026-03-31T11:52:38.154Z</time></trkpt><trkpt lat="40.9599433" lon="-0.2259117"><ele>442.0</ele><time>2026-03-31T11:52:39.154Z</time></trkpt><trkpt lat="40.9601783" lon="-0.2258417"><ele>440.0</ele><time>2026-03-31T11:52:40.154Z</time></trkpt><trkpt lat="40.9604233" lon="-0.225765"><ele>438.0</ele><time>2026-03-31T11:52:41.155Z</time></trkpt><trkpt lat="40.9606667" lon="-0.22568"><ele>436.5</ele><time>2026-03-31T11:52:42.154Z</time></trkpt><trkpt lat="40.9609083" lon="-0.2256017"><ele>435.0</ele><time>2026-03-31T11:52:43.154Z</time></trkpt><trkpt lat="40.9611533" lon="-0.2255233"><ele>435.0</ele><time>2026-03-31T11:52:44.155Z</time></trkpt><trkpt lat="40.9613933" lon="-0.2254633"><ele>435.0</ele><time>2026-03-31T11:52:45.155Z</time></trkpt><trkpt lat="40.9616383" lon="-0.2254017"><ele>437.5</ele><time>2026-03-31T11:52:46.154Z</time></trkpt><trkpt lat="40.9618883" lon="-0.2253367"><ele>440.0</ele><time>2026-03-31T11:52:47.154Z</time></trkpt><trkpt lat="40.9621367" lon="-0.2252633"><ele>440.0</ele><time>2026-03-31T11:52:48.155Z</time></trkpt><trkpt lat="40.9623867" lon="-0.2251817"><ele>440.0</ele><time>2026-03-31T11:52:49.154Z</time></trkpt><trkpt lat="40.9626417" lon="-0.22511"><ele>440.0</ele><time>2026-03-31T11:52:50.154Z</time></trkpt><trkpt lat="40.9629" lon="-0.2250367"><ele>440.0</ele><time>2026-03-31T11:52:51.154Z</time></trkpt><trkpt lat="40.963155" lon="-0.2249667"><ele>439.5</ele><time>2026-03-31T11:52:52.154Z</time></trkpt><trkpt lat="40.9634083" lon="-0.2248933"><ele>439.0</ele><time>2026-03-31T11:52:53.155Z</time></trkpt><trkpt lat="40.9636583" lon="-0.2248183"><ele>439.5</ele><time>2026-03-31T11:52:54.155Z</time></trkpt><trkpt lat="40.96391" lon="-0.22474"><ele>440.0</ele><time>2026-03-31T11:52:55.154Z</time></trkpt><trkpt lat="40.964165" lon="-0.2246667"><ele>439.5</ele><time>2026-03-31T11:52:56.155Z</time></trkpt><trkpt lat="40.9644183" lon="-0.22459"><ele>439.0</ele><time>2026-03-31T11:52:57.154Z</time></trkpt><trkpt lat="40.9646733" lon="-0.2245167"><ele>439.0</ele><time>2026-03-31T11:52:58.154Z</time></trkpt><trkpt lat="40.9649317" lon="-0.224445"><ele>439.0</ele><time>2026-03-31T11:52:59.155Z</time></trkpt><trkpt lat="40.9651917" lon="-0.2243717"><ele>439.0</ele><time>2026-03-31T11:53:00.155Z</time></trkpt><trkpt lat="40.9654567" lon="-0.224295"><ele>439.0</ele><time>2026-03-31T11:53:01.155Z</time></trkpt><trkpt lat="40.9657217" lon="-0.22422"><ele>439.0</ele><time>2026-03-31T11:53:02.154Z</time></trkpt><trkpt lat="40.9659833" lon="-0.2241467"><ele>439.0</ele><time>2026-03-31T11:53:03.154Z</time></trkpt><trkpt lat="40.9662417" lon="-0.2240733"><ele>439.0</ele><time>2026-03-31T11:53:04.155Z</time></trkpt><trkpt lat="40.9664967" lon="-0.2240033"><ele>439.0</ele><time>2026-03-31T11:53:05.154Z</time></trkpt><trkpt lat="40.96675" lon="-0.22393"><ele>437.0</ele><time>2026-03-31T11:53:06.154Z</time></trkpt><trkpt lat="40.967005" lon="-0.22386"><ele>435.0</ele><time>2026-03-31T11:53:07.154Z</time></trkpt><trkpt lat="40.9672567" lon="-0.2237917"><ele>435.0</ele><time>2026-03-31T11:53:08.154Z</time></trkpt><trkpt lat="40.9675067" lon="-0.2237267"><ele>435.0</ele><time>2026-03-31T11:53:09.155Z</time></trkpt><trkpt lat="40.9677567" lon="-0.223655"><ele>432.5</ele><time>2026-03-31T11:53:10.155Z</time></trkpt><trkpt lat="40.96801" lon="-0.22358"><ele>430.0</ele><time>2026-03-31T11:53:11.154Z</time></trkpt><trkpt lat="40.9682683" lon="-0.2235117"><ele>428.5</ele><time>2026-03-31T11:53:12.154Z</time></trkpt><trkpt lat="40.96852" lon="-0.2234317"><ele>427.0</ele><time>2026-03-31T11:53:13.154Z</time></trkpt><trkpt lat="40.9687733" lon="-0.223355"><ele>427.0</ele><time>2026-03-31T11:53:14.154Z</time></trkpt><trkpt lat="40.96903" lon="-0.22328"><ele>427.0</ele><time>2026-03-31T11:53:15.155Z</time></trkpt><trkpt lat="40.969285" lon="-0.2232083"><ele>425.5</ele><time>2026-03-31T11:53:16.154Z</time></trkpt><trkpt lat="40.96954" lon="-0.2231367"><ele>424.0</ele><time>2026-03-31T11:53:17.154Z</time></trkpt><trkpt lat="40.9697883" lon="-0.2230633"><ele>425.5</ele><time>2026-03-31T11:53:18.155Z</time></trkpt><trkpt lat="40.970035" lon="-0.2229883"><ele>427.0</ele><time>2026-03-31T11:53:19.154Z</time></trkpt><trkpt lat="40.9702767" lon="-0.2229217"><ele>427.0</ele><time>2026-03-31T11:53:20.155Z</time></trkpt><trkpt lat="40.970525" lon="-0.222855"><ele>427.0</ele><time>2026-03-31T11:53:21.154Z</time></trkpt><trkpt lat="40.97077" lon="-0.2227833"><ele>427.5</ele><time>2026-03-31T11:53:22.154Z</time></trkpt><trkpt lat="40.9710117" lon="-0.2227167"><ele>428.0</ele><time>2026-03-31T11:53:23.155Z</time></trkpt><trkpt lat="40.9712533" lon="-0.2226433"><ele>428.0</ele><time>2026-03-31T11:53:24.154Z</time></trkpt><trkpt lat="40.9714933" lon="-0.2225683"><ele>428.0</ele><time>2026-03-31T11:53:25.154Z</time></trkpt><trkpt lat="40.9717383" lon="-0.2224967"><ele>428.5</ele><time>2026-03-31T11:53:26.154Z</time></trkpt><trkpt lat="40.9719767" lon="-0.2224333"><ele>429.0</ele><time>2026-03-31T11:53:27.154Z</time></trkpt><trkpt lat="40.9722183" lon="-0.22237"><ele>428.0</ele><time>2026-03-31T11:53:28.154Z</time></trkpt><trkpt lat="40.97246" lon="-0.222295"><ele>427.0</ele><time>2026-03-31T11:53:29.155Z</time></trkpt><trkpt lat="40.972705" lon="-0.2222217"><ele>426.5</ele><time>2026-03-31T11:53:30.155Z</time></trkpt><trkpt lat="40.97295" lon="-0.22215"><ele>426.0</ele><time>2026-03-31T11:53:31.154Z</time></trkpt><trkpt lat="40.9731967" lon="-0.22208"><ele>426.5</ele><time>2026-03-31T11:53:32.154Z</time></trkpt><trkpt lat="40.973445" lon="-0.2220033"><ele>427.0</ele><time>2026-03-31T11:53:33.155Z</time></trkpt><trkpt lat="40.9736867" lon="-0.2219367"><ele>427.0</ele><time>2026-03-31T11:53:34.155Z</time></trkpt><trkpt lat="40.9739317" lon="-0.2218683"><ele>427.0</ele><time>2026-03-31T11:53:35.154Z</time></trkpt><trkpt lat="40.9741783" lon="-0.2217983"><ele>426.5</ele><time>2026-03-31T11:53:36.154Z</time></trkpt><trkpt lat="40.974425" lon="-0.2217333"><ele>426.0</ele><time>2026-03-31T11:53:37.154Z</time></trkpt><trkpt lat="40.9746633" lon="-0.2216667"><ele>426.0</ele><time>2026-03-31T11:53:38.155Z</time></trkpt><trkpt lat="40.9749017" lon="-0.2216"><ele>426.0</ele><time>2026-03-31T11:53:39.154Z</time></trkpt><trkpt lat="40.9751433" lon="-0.22153"><ele>426.5</ele><time>2026-03-31T11:53:40.154Z</time></trkpt><trkpt lat="40.9753883" lon="-0.2214583"><ele>427.0</ele><time>2026-03-31T11:53:41.155Z</time></trkpt><trkpt lat="40.9756283" lon="-0.2213867"><ele>427.5</ele><time>2026-03-31T11:53:42.155Z</time></trkpt><trkpt lat="40.97587" lon="-0.221315"><ele>428.0</ele><time>2026-03-31T11:53:43.154Z</time></trkpt><trkpt lat="40.9761117" lon="-0.2212483"><ele>428.0</ele><time>2026-03-31T11:53:44.154Z</time></trkpt><trkpt lat="40.97635" lon="-0.2211917"><ele>428.0</ele><time>2026-03-31T11:53:45.155Z</time></trkpt><trkpt lat="40.9765917" lon="-0.2211417"><ele>427.0</ele><time>2026-03-31T11:53:46.154Z</time></trkpt><trkpt lat="40.976835" lon="-0.2211167"><ele>426.0</ele><time>2026-03-31T11:53:47.154Z</time></trkpt><trkpt lat="40.977085" lon="-0.22109"><ele>426.0</ele><time>2026-03-31T11:53:48.155Z</time></trkpt><trkpt lat="40.9773433" lon="-0.2210717"><ele>426.0</ele><time>2026-03-31T11:53:49.154Z</time></trkpt><trkpt lat="40.9775983" lon="-0.221055"><ele>425.0</ele><time>2026-03-31T11:53:50.154Z</time></trkpt><trkpt lat="40.9778467" lon="-0.22104"><ele>424.0</ele><time>2026-03-31T11:53:51.154Z</time></trkpt><trkpt lat="40.9780983" lon="-0.2210433"><ele>424.0</ele><time>2026-03-31T11:53:52.155Z</time></trkpt><trkpt lat="40.97835" lon="-0.221035"><ele>424.0</ele><time>2026-03-31T11:53:53.154Z</time></trkpt><trkpt lat="40.9786" lon="-0.2210283"><ele>423.5</ele><time>2026-03-31T11:53:54.155Z</time></trkpt><trkpt lat="40.978855" lon="-0.221025"><ele>423.0</ele><time>2026-03-31T11:53:55.155Z</time></trkpt><trkpt lat="40.9791117" lon="-0.2210183"><ele>422.0</ele><time>2026-03-31T11:53:56.154Z</time></trkpt><trkpt lat="40.9793583" lon="-0.22101"><ele>421.0</ele><time>2026-03-31T11:53:57.154Z</time></trkpt><trkpt lat="40.979615" lon="-0.2210033"><ele>421.0</ele><time>2026-03-31T11:53:58.154Z</time></trkpt><trkpt lat="40.9798733" lon="-0.2210067"><ele>421.0</ele><time>2026-03-31T11:53:59.154Z</time></trkpt><trkpt lat="40.9801367" lon="-0.220995"><ele>420.5</ele><time>2026-03-31T11:54:00.155Z</time></trkpt><trkpt lat="40.9803933" lon="-0.2209883"><ele>420.0</ele><time>2026-03-31T11:54:01.155Z</time></trkpt><trkpt lat="40.98065" lon="-0.2209833"><ele>419.0</ele><time>2026-03-31T11:54:02.155Z</time></trkpt><trkpt lat="40.9809067" lon="-0.22098"><ele>418.0</ele><time>2026-03-31T11:54:03.154Z</time></trkpt><trkpt lat="40.981155" lon="-0.2209733"><ele>418.0</ele><time>2026-03-31T11:54:04.154Z</time></trkpt><trkpt lat="40.981405" lon="-0.2209633"><ele>418.0</ele><time>2026-03-31T11:54:05.154Z</time></trkpt><trkpt lat="40.9816583" lon="-0.2209483"><ele>418.5</ele><time>2026-03-31T11:54:06.154Z</time></trkpt><trkpt lat="40.981905" lon="-0.220945"><ele>419.0</ele><time>2026-03-31T11:54:07.154Z</time></trkpt><trkpt lat="40.9821467" lon="-0.22094"><ele>419.0</ele><time>2026-03-31T11:54:08.154Z</time></trkpt><trkpt lat="40.9823867" lon="-0.22093"><ele>419.0</ele><time>2026-03-31T11:54:09.155Z</time></trkpt><trkpt lat="40.982625" lon="-0.2209267"><ele>419.0</ele><time>2026-03-31T11:54:10.155Z</time></trkpt><trkpt lat="40.9828617" lon="-0.220925"><ele>419.0</ele><time>2026-03-31T11:54:11.155Z</time></trkpt><trkpt lat="40.9831017" lon="-0.220925"><ele>419.0</ele><time>2026-03-31T11:54:12.154Z</time></trkpt><trkpt lat="40.98334" lon="-0.2209167"><ele>419.0</ele><time>2026-03-31T11:54:13.155Z</time></trkpt><trkpt lat="40.9835783" lon="-0.2209083"><ele>420.5</ele><time>2026-03-31T11:54:14.155Z</time></trkpt><trkpt lat="40.98381" lon="-0.2208967"><ele>422.0</ele><time>2026-03-31T11:54:15.155Z</time></trkpt><trkpt lat="40.984045" lon="-0.220885"><ele>421.0</ele><time>2026-03-31T11:54:16.154Z</time></trkpt><trkpt lat="40.9842767" lon="-0.2208783"><ele>420.0</ele><time>2026-03-31T11:54:17.154Z</time></trkpt><trkpt lat="40.984515" lon="-0.2208717"><ele>420.0</ele><time>2026-03-31T11:54:18.154Z</time></trkpt><trkpt lat="40.98475" lon="-0.2208683"><ele>420.0</ele><time>2026-03-31T11:54:19.155Z</time></trkpt><trkpt lat="40.9849867" lon="-0.22086"><ele>419.5</ele><time>2026-03-31T11:54:20.154Z</time></trkpt><trkpt lat="40.9852317" lon="-0.2208533"><ele>419.0</ele><time>2026-03-31T11:54:21.154Z</time></trkpt><trkpt lat="40.9854733" lon="-0.2208433"><ele>419.0</ele><time>2026-03-31T11:54:22.155Z</time></trkpt><trkpt lat="40.9857117" lon="-0.220835"><ele>419.0</ele><time>2026-03-31T11:54:23.154Z</time></trkpt><trkpt lat="40.98595" lon="-0.22083"><ele>420.0</ele><time>2026-03-31T11:54:24.155Z</time></trkpt><trkpt lat="40.98619" lon="-0.2208217"><ele>421.0</ele><time>2026-03-31T11:54:25.154Z</time></trkpt><trkpt lat="40.9864283" lon="-0.22081"><ele>421.0</ele><time>2026-03-31T11:54:26.155Z</time></trkpt><trkpt lat="40.98667" lon="-0.2207983"><ele>421.0</ele><time>2026-03-31T11:54:27.154Z</time></trkpt><trkpt lat="40.9869067" lon="-0.22079"><ele>419.5</ele><time>2026-03-31T11:54:28.154Z</time></trkpt><trkpt lat="40.9871433" lon="-0.2207733"><ele>418.0</ele><time>2026-03-31T11:54:29.154Z</time></trkpt><trkpt lat="40.9873717" lon="-0.22075"><ele>416.5</ele><time>2026-03-31T11:54:30.154Z</time></trkpt><trkpt lat="40.9876117" lon="-0.2207217"><ele>415.0</ele><time>2026-03-31T11:54:31.154Z</time></trkpt><trkpt lat="40.9878567" lon="-0.22069"><ele>415.0</ele><time>2026-03-31T11:54:32.154Z</time></trkpt><trkpt lat="40.9881" lon="-0.2206617"><ele>415.0</ele><time>2026-03-31T11:54:33.154Z</time></trkpt><trkpt lat="40.9883433" lon="-0.220635"><ele>415.0</ele><time>2026-03-31T11:54:34.155Z</time></trkpt><trkpt lat="40.98859" lon="-0.2206083"><ele>415.0</ele><time>2026-03-31T11:54:35.154Z</time></trkpt><trkpt lat="40.988835" lon="-0.22058"><ele>415.0</ele><time>2026-03-31T11:54:36.154Z</time></trkpt><trkpt lat="40.98908" lon="-0.2205533"><ele>415.0</ele><time>2026-03-31T11:54:37.154Z</time></trkpt><trkpt lat="40.9893283" lon="-0.2205217"><ele>412.5</ele><time>2026-03-31T11:54:38.154Z</time></trkpt><trkpt lat="40.9895733" lon="-0.22049"><ele>410.0</ele><time>2026-03-31T11:54:39.154Z</time></trkpt><trkpt lat="40.9898217" lon="-0.22046"><ele>409.0</ele><time>2026-03-31T11:54:40.154Z</time></trkpt><trkpt lat="40.9900667" lon="-0.2204267"><ele>408.0</ele><time>2026-03-31T11:54:41.155Z</time></trkpt><trkpt lat="40.99032" lon="-0.2204"><ele>408.0</ele><time>2026-03-31T11:54:42.154Z</time></trkpt><trkpt lat="40.9905633" lon="-0.2203667"><ele>408.0</ele><time>2026-03-31T11:54:43.154Z</time></trkpt><trkpt lat="40.9908083" lon="-0.220345"><ele>408.0</ele><time>2026-03-31T11:54:44.154Z</time></trkpt><trkpt lat="40.9910567" lon="-0.22032"><ele>408.0</ele><time>2026-03-31T11:54:45.155Z</time></trkpt><trkpt lat="40.991295" lon="-0.2202933"><ele>408.0</ele><time>2026-03-31T11:54:46.154Z</time></trkpt><trkpt lat="40.9915383" lon="-0.2202633"><ele>408.0</ele><time>2026-03-31T11:54:47.155Z</time></trkpt><trkpt lat="40.9917883" lon="-0.2202417"><ele>407.0</ele><time>2026-03-31T11:54:48.155Z</time></trkpt><trkpt lat="40.99204" lon="-0.2202133"><ele>406.0</ele><time>2026-03-31T11:54:49.154Z</time></trkpt><trkpt lat="40.9922883" lon="-0.2201783"><ele>405.5</ele><time>2026-03-31T11:54:50.155Z</time></trkpt><trkpt lat="40.99254" lon="-0.2201433"><ele>405.0</ele><time>2026-03-31T11:54:51.154Z</time></trkpt><trkpt lat="40.9927917" lon="-0.2201067"><ele>405.0</ele><time>2026-03-31T11:54:52.155Z</time></trkpt><trkpt lat="40.9930467" lon="-0.2200717"><ele>405.0</ele><time>2026-03-31T11:54:53.155Z</time></trkpt><trkpt lat="40.99329" lon="-0.2200567"><ele>406.5</ele><time>2026-03-31T11:54:54.155Z</time></trkpt><trkpt lat="40.9935333" lon="-0.2200233"><ele>408.0</ele><time>2026-03-31T11:54:55.155Z</time></trkpt><trkpt lat="40.99377" lon="-0.21999"><ele>408.0</ele><time>2026-03-31T11:54:56.154Z</time></trkpt><trkpt lat="40.994" lon="-0.219965"><ele>408.0</ele><time>2026-03-31T11:54:57.154Z</time></trkpt><trkpt lat="40.9942333" lon="-0.2199383"><ele>408.0</ele><time>2026-03-31T11:54:58.154Z</time></trkpt><trkpt lat="40.9944517" lon="-0.2199217"><ele>408.0</ele><time>2026-03-31T11:54:59.155Z</time></trkpt><trkpt lat="40.9946733" lon="-0.2199017"><ele>408.0</ele><time>2026-03-31T11:55:00.155Z</time></trkpt><trkpt lat="40.9948867" lon="-0.2198717"><ele>407.66666666666663</ele><time>2026-03-31T11:55:01.154Z</time></trkpt><trkpt lat="40.99511" lon="-0.21985"><ele>407.3333333333333</ele><time>2026-03-31T11:55:02.154Z</time></trkpt><trkpt lat="40.9953333" lon="-0.2198183"><ele>407.0</ele><time>2026-03-31T11:55:03.155Z</time></trkpt><trkpt lat="40.9955583" lon="-0.219795"><ele>405.5</ele><time>2026-03-31T11:55:04.155Z</time></trkpt><trkpt lat="40.9957883" lon="-0.2197683"><ele>404.0</ele><time>2026-03-31T11:55:05.154Z</time></trkpt><trkpt lat="40.9960217" lon="-0.2197417"><ele>403.5</ele><time>2026-03-31T11:55:06.155Z</time></trkpt><trkpt lat="40.9962533" lon="-0.219715"><ele>403.0</ele><time>2026-03-31T11:55:07.154Z</time></trkpt><trkpt lat="40.99648" lon="-0.219695"><ele>403.0</ele><time>2026-03-31T11:55:08.155Z</time></trkpt><trkpt lat="40.9967067" lon="-0.2196683"><ele>403.0</ele><time>2026-03-31T11:55:09.155Z</time></trkpt><trkpt lat="40.99693" lon="-0.219645"><ele>403.0</ele><time>2026-03-31T11:55:10.154Z</time></trkpt><trkpt lat="40.9971567" lon="-0.21962"><ele>403.0</ele><time>2026-03-31T11:55:11.154Z</time></trkpt><trkpt lat="40.99738" lon="-0.219595"><ele>403.6666666666667</ele><time>2026-03-31T11:55:12.155Z</time></trkpt><trkpt lat="40.9976033" lon="-0.2195683"><ele>404.33333333333337</ele><time>2026-03-31T11:55:13.154Z</time></trkpt><trkpt lat="40.997825" lon="-0.219535"><ele>405.0</ele><time>2026-03-31T11:55:14.153Z</time></trkpt><trkpt lat="40.9980467" lon="-0.219495"><ele>405.0</ele><time>2026-03-31T11:55:15.153Z</time></trkpt><trkpt lat="40.9982633" lon="-0.21946"><ele>405.0</ele><time>2026-03-31T11:55:16.153Z</time></trkpt><trkpt lat="40.9984817" lon="-0.2194183"><ele>405.0</ele><time>2026-03-31T11:55:17.153Z</time></trkpt><trkpt lat="40.9987017" lon="-0.2193717"><ele>404.0</ele><time>2026-03-31T11:55:18.153Z</time></trkpt><trkpt lat="40.998925" lon="-0.2193033"><ele>403.0</ele><time>2026-03-31T11:55:19.153Z</time></trkpt><trkpt lat="40.9991517" lon="-0.219225"><ele>400.0</ele><time>2026-03-31T11:55:20.154Z</time></trkpt><trkpt lat="40.99938" lon="-0.2191333"><ele>397.0</ele><time>2026-03-31T11:55:21.154Z</time></trkpt><trkpt lat="40.99959" lon="-0.2190167"><ele>396.5</ele><time>2026-03-31T11:55:22.154Z</time></trkpt><trkpt lat="40.9998017" lon="-0.2188783"><ele>396.0</ele><time>2026-03-31T11:55:23.154Z</time></trkpt><trkpt lat="41.0000133" lon="-0.2187283"><ele>396.0</ele><time>2026-03-31T11:55:24.153Z</time></trkpt><trkpt lat="41.000215" lon="-0.21856"><ele>396.0</ele><time>2026-03-31T11:55:25.153Z</time></trkpt><trkpt lat="41.000415" lon="-0.2183933"><ele>396.0</ele><time>2026-03-31T11:55:26.153Z</time></trkpt><trkpt lat="41.00062" lon="-0.2182383"><ele>396.0</ele><time>2026-03-31T11:55:27.153Z</time></trkpt><trkpt lat="41.0008233" lon="-0.2180733"><ele>394.0</ele><time>2026-03-31T11:55:28.154Z</time></trkpt><trkpt lat="41.0010283" lon="-0.2179017"><ele>392.0</ele><time>2026-03-31T11:55:29.153Z</time></trkpt><trkpt lat="41.0012367" lon="-0.21774"><ele>392.0</ele><time>2026-03-31T11:55:30.154Z</time></trkpt><trkpt lat="41.00144" lon="-0.2175717"><ele>392.0</ele><time>2026-03-31T11:55:31.153Z</time></trkpt><trkpt lat="41.0016517" lon="-0.2174017"><ele>392.0</ele><time>2026-03-31T11:55:32.153Z</time></trkpt><trkpt lat="41.00186" lon="-0.2172333"><ele>392.0</ele><time>2026-03-31T11:55:33.154Z</time></trkpt><trkpt lat="41.0020717" lon="-0.2170617"><ele>392.0</ele><time>2026-03-31T11:55:34.154Z</time></trkpt><trkpt lat="41.0022717" lon="-0.2168983"><ele>392.0</ele><time>2026-03-31T11:55:35.154Z</time></trkpt><trkpt lat="41.0024783" lon="-0.21673"><ele>392.0</ele><time>2026-03-31T11:55:36.153Z</time></trkpt><trkpt lat="41.0026917" lon="-0.216555"><ele>392.0</ele><time>2026-03-31T11:55:37.154Z</time></trkpt><trkpt lat="41.002895" lon="-0.2163833"><ele>392.0</ele><time>2026-03-31T11:55:38.153Z</time></trkpt><trkpt lat="41.003105" lon="-0.2162167"><ele>392.0</ele><time>2026-03-31T11:55:39.153Z</time></trkpt><trkpt lat="41.0033167" lon="-0.2160483"><ele>391.5</ele><time>2026-03-31T11:55:40.154Z</time></trkpt><trkpt lat="41.0035267" lon="-0.215875"><ele>391.0</ele><time>2026-03-31T11:55:41.153Z</time></trkpt><trkpt lat="41.0037467" lon="-0.2157067"><ele>391.5</ele><time>2026-03-31T11:55:42.154Z</time></trkpt><trkpt lat="41.0039667" lon="-0.2155317"><ele>392.0</ele><time>2026-03-31T11:55:43.153Z</time></trkpt><trkpt lat="41.004185" lon="-0.2153533"><ele>392.0</ele><time>2026-03-31T11:55:44.153Z</time></trkpt><trkpt lat="41.0044" lon="-0.2151717"><ele>392.0</ele><time>2026-03-31T11:55:45.154Z</time></trkpt><trkpt lat="41.004615" lon="-0.215"><ele>392.0</ele><time>2026-03-31T11:55:46.153Z</time></trkpt><trkpt lat="41.0048283" lon="-0.2148233"><ele>392.0</ele><time>2026-03-31T11:55:47.153Z</time></trkpt><trkpt lat="41.005045" lon="-0.2146467"><ele>392.5</ele><time>2026-03-31T11:55:48.153Z</time></trkpt><trkpt lat="41.005265" lon="-0.2144667"><ele>393.0</ele><time>2026-03-31T11:55:49.153Z</time></trkpt><trkpt lat="41.005485" lon="-0.21429"><ele>393.0</ele><time>2026-03-31T11:55:50.153Z</time></trkpt><trkpt lat="41.0057" lon="-0.21411"><ele>393.0</ele><time>2026-03-31T11:55:51.153Z</time></trkpt><trkpt lat="41.0059217" lon="-0.2139367"><ele>393.5</ele><time>2026-03-31T11:55:52.153Z</time></trkpt><trkpt lat="41.006145" lon="-0.2137633"><ele>394.0</ele><time>2026-03-31T11:55:53.154Z</time></trkpt><trkpt lat="41.00637" lon="-0.2135917"><ele>394.0</ele><time>2026-03-31T11:55:54.153Z</time></trkpt><trkpt lat="41.0066" lon="-0.2134233"><ele>394.0</ele><time>2026-03-31T11:55:55.154Z</time></trkpt><trkpt lat="41.0068233" lon="-0.213245"><ele>394.5</ele><time>2026-03-31T11:55:56.153Z</time></trkpt><trkpt lat="41.0070433" lon="-0.2130517"><ele>395.0</ele><time>2026-03-31T11:55:57.153Z</time></trkpt><trkpt lat="41.0072617" lon="-0.212865"><ele>395.0</ele><time>2026-03-31T11:55:58.153Z</time></trkpt><trkpt lat="41.0074883" lon="-0.21268"><ele>395.0</ele><time>2026-03-31T11:55:59.154Z</time></trkpt><trkpt lat="41.0077183" lon="-0.2124983"><ele>398.0</ele><time>2026-03-31T11:56:00.154Z</time></trkpt><trkpt lat="41.0079483" lon="-0.2123117"><ele>401.0</ele><time>2026-03-31T11:56:01.153Z</time></trkpt><trkpt lat="41.0081767" lon="-0.212125"><ele>399.5</ele><time>2026-03-31T11:56:02.153Z</time></trkpt><trkpt lat="41.0084" lon="-0.211945"><ele>398.0</ele><time>2026-03-31T11:56:03.153Z</time></trkpt><trkpt lat="41.0086233" lon="-0.2117683"><ele>398.0</ele><time>2026-03-31T11:56:04.153Z</time></trkpt><trkpt lat="41.0088417" lon="-0.2116"><ele>398.0</ele><time>2026-03-31T11:56:05.154Z</time></trkpt><trkpt lat="41.009055" lon="-0.2114317"><ele>398.5</ele><time>2026-03-31T11:56:06.153Z</time></trkpt><trkpt lat="41.0092617" lon="-0.2112633"><ele>399.0</ele><time>2026-03-31T11:56:07.154Z</time></trkpt><trkpt lat="41.0094633" lon="-0.211095"><ele>399.0</ele><time>2026-03-31T11:56:08.153Z</time></trkpt><trkpt lat="41.009665" lon="-0.210935"><ele>399.0</ele><time>2026-03-31T11:56:09.154Z</time></trkpt><trkpt lat="41.0098717" lon="-0.2107717"><ele>397.5</ele><time>2026-03-31T11:56:10.153Z</time></trkpt><trkpt lat="41.0100667" lon="-0.210605"><ele>396.0</ele><time>2026-03-31T11:56:11.154Z</time></trkpt><trkpt lat="41.0102717" lon="-0.2104417"><ele>396.0</ele><time>2026-03-31T11:56:12.153Z</time></trkpt><trkpt lat="41.0104717" lon="-0.2102817"><ele>396.0</ele><time>2026-03-31T11:56:13.154Z</time></trkpt><trkpt lat="41.0106733" lon="-0.2101233"><ele>394.5</ele><time>2026-03-31T11:56:14.153Z</time></trkpt><trkpt lat="41.0108717" lon="-0.20996"><ele>393.0</ele><time>2026-03-31T11:56:15.153Z</time></trkpt><trkpt lat="41.0110667" lon="-0.2097983"><ele>393.0</ele><time>2026-03-31T11:56:16.154Z</time></trkpt><trkpt lat="41.0112633" lon="-0.209635"><ele>393.0</ele><time>2026-03-31T11:56:17.153Z</time></trkpt><trkpt lat="41.0114683" lon="-0.20947"><ele>388.0</ele><time>2026-03-31T11:56:18.154Z</time></trkpt><trkpt lat="41.011665" lon="-0.2093167"><ele>383.0</ele><time>2026-03-31T11:56:19.154Z</time></trkpt><trkpt lat="41.0118633" lon="-0.209155"><ele>383.0</ele><time>2026-03-31T11:56:20.154Z</time></trkpt><trkpt lat="41.0120617" lon="-0.2089983"><ele>383.0</ele><time>2026-03-31T11:56:21.154Z</time></trkpt><trkpt lat="41.012255" lon="-0.2088383"><ele>383.5</ele><time>2026-03-31T11:56:22.153Z</time></trkpt><trkpt lat="41.012455" lon="-0.2086817"><ele>384.0</ele><time>2026-03-31T11:56:23.153Z</time></trkpt><trkpt lat="41.0126517" lon="-0.20853"><ele>382.0</ele><time>2026-03-31T11:56:24.153Z</time></trkpt><trkpt lat="41.0128467" lon="-0.2083717"><ele>380.0</ele><time>2026-03-31T11:56:25.153Z</time></trkpt><trkpt lat="41.0130433" lon="-0.2082117"><ele>381.0</ele><time>2026-03-31T11:56:26.154Z</time></trkpt><trkpt lat="41.01324" lon="-0.2080533"><ele>382.0</ele><time>2026-03-31T11:56:27.154Z</time></trkpt><trkpt lat="41.0134383" lon="-0.2078883"><ele>380.0</ele><time>2026-03-31T11:56:28.153Z</time></trkpt><trkpt lat="41.01364" lon="-0.2077233"><ele>378.0</ele><time>2026-03-31T11:56:29.154Z</time></trkpt><trkpt lat="41.0138417" lon="-0.2075583"><ele>378.0</ele><time>2026-03-31T11:56:30.154Z</time></trkpt><trkpt lat="41.0140467" lon="-0.207395"><ele>378.0</ele><time>2026-03-31T11:56:31.154Z</time></trkpt><trkpt lat="41.014245" lon="-0.2072333"><ele>376.0</ele><time>2026-03-31T11:56:32.153Z</time></trkpt><trkpt lat="41.0144467" lon="-0.2070683"><ele>374.0</ele><time>2026-03-31T11:56:33.154Z</time></trkpt><trkpt lat="41.0146517" lon="-0.206905"><ele>374.0</ele><time>2026-03-31T11:56:34.153Z</time></trkpt><trkpt lat="41.0148583" lon="-0.2067383"><ele>374.0</ele><time>2026-03-31T11:56:35.153Z</time></trkpt><trkpt lat="41.015065" lon="-0.2065733"><ele>373.5</ele><time>2026-03-31T11:56:36.154Z</time></trkpt><trkpt lat="41.015265" lon="-0.206415"><ele>373.0</ele><time>2026-03-31T11:56:37.153Z</time></trkpt><trkpt lat="41.0154667" lon="-0.20626"><ele>373.0</ele><time>2026-03-31T11:56:38.153Z</time></trkpt><trkpt lat="41.0156683" lon="-0.206095"><ele>373.0</ele><time>2026-03-31T11:56:39.153Z</time></trkpt><trkpt lat="41.01587" lon="-0.2059317"><ele>372.0</ele><time>2026-03-31T11:56:40.153Z</time></trkpt><trkpt lat="41.01607" lon="-0.2057667"><ele>371.0</ele><time>2026-03-31T11:56:41.153Z</time></trkpt><trkpt lat="41.01626" lon="-0.2056083"><ele>370.5</ele><time>2026-03-31T11:56:42.153Z</time></trkpt><trkpt lat="41.016465" lon="-0.2054467"><ele>370.0</ele><time>2026-03-31T11:56:43.154Z</time></trkpt><trkpt lat="41.016665" lon="-0.205285"><ele>369.5</ele><time>2026-03-31T11:56:44.154Z</time></trkpt><trkpt lat="41.01687" lon="-0.2051233"><ele>369.0</ele><time>2026-03-31T11:56:45.153Z</time></trkpt><trkpt lat="41.0170767" lon="-0.2049583"><ele>369.0</ele><time>2026-03-31T11:56:46.153Z</time></trkpt><trkpt lat="41.0172883" lon="-0.20479"><ele>369.0</ele><time>2026-03-31T11:56:47.153Z</time></trkpt><trkpt lat="41.0175" lon="-0.2046233"><ele>369.0</ele><time>2026-03-31T11:56:48.153Z</time></trkpt><trkpt lat="41.017705" lon="-0.2044567"><ele>369.0</ele><time>2026-03-31T11:56:49.154Z</time></trkpt><trkpt lat="41.0179133" lon="-0.2042767"><ele>369.0</ele><time>2026-03-31T11:56:50.154Z</time></trkpt><trkpt lat="41.0181167" lon="-0.204105"><ele>369.0</ele><time>2026-03-31T11:56:51.153Z</time></trkpt><trkpt lat="41.0183267" lon="-0.2039433"><ele>369.0</ele><time>2026-03-31T11:56:52.153Z</time></trkpt><trkpt lat="41.018535" lon="-0.2037783"><ele>369.0</ele><time>2026-03-31T11:56:53.153Z</time></trkpt><trkpt lat="41.0187467" lon="-0.2036067"><ele>369.0</ele><time>2026-03-31T11:56:54.153Z</time></trkpt><trkpt lat="41.01896" lon="-0.2034433"><ele>369.0</ele><time>2026-03-31T11:56:55.153Z</time></trkpt><trkpt lat="41.0191683" lon="-0.20328"><ele>368.0</ele><time>2026-03-31T11:56:56.153Z</time></trkpt><trkpt lat="41.0193717" lon="-0.2031117"><ele>367.0</ele><time>2026-03-31T11:56:57.153Z</time></trkpt><trkpt lat="41.01958" lon="-0.2029433"><ele>367.0</ele><time>2026-03-31T11:56:58.154Z</time></trkpt><trkpt lat="41.0197883" lon="-0.2027717"><ele>367.0</ele><time>2026-03-31T11:56:59.154Z</time></trkpt><trkpt lat="41.0199983" lon="-0.202595"><ele>366.5</ele><time>2026-03-31T11:57:00.153Z</time></trkpt><trkpt lat="41.0202083" lon="-0.2024283"><ele>366.0</ele><time>2026-03-31T11:57:01.154Z</time></trkpt><trkpt lat="41.02042" lon="-0.2022617"><ele>365.5</ele><time>2026-03-31T11:57:02.153Z</time></trkpt><trkpt lat="41.02063" lon="-0.20209"><ele>365.0</ele><time>2026-03-31T11:57:03.154Z</time></trkpt><trkpt lat="41.02084" lon="-0.201925"><ele>365.0</ele><time>2026-03-31T11:57:04.154Z</time></trkpt><trkpt lat="41.0210533" lon="-0.2017617"><ele>365.0</ele><time>2026-03-31T11:57:05.154Z</time></trkpt><trkpt lat="41.0212683" lon="-0.20159"><ele>365.0</ele><time>2026-03-31T11:57:06.153Z</time></trkpt><trkpt lat="41.0214817" lon="-0.2014167"><ele>365.0</ele><time>2026-03-31T11:57:07.153Z</time></trkpt><trkpt lat="41.0216983" lon="-0.2012433"><ele>365.0</ele><time>2026-03-31T11:57:08.153Z</time></trkpt><trkpt lat="41.0219133" lon="-0.201065"><ele>365.0</ele><time>2026-03-31T11:57:09.153Z</time></trkpt><trkpt lat="41.0221317" lon="-0.20089"><ele>365.0</ele><time>2026-03-31T11:57:10.153Z</time></trkpt><trkpt lat="41.0223467" lon="-0.20072"><ele>365.0</ele><time>2026-03-31T11:57:11.153Z</time></trkpt><trkpt lat="41.0225667" lon="-0.20055"><ele>364.0</ele><time>2026-03-31T11:57:12.154Z</time></trkpt><trkpt lat="41.022785" lon="-0.2003783"><ele>363.0</ele><time>2026-03-31T11:57:13.153Z</time></trkpt><trkpt lat="41.023" lon="-0.2002067"><ele>363.0</ele><time>2026-03-31T11:57:14.154Z</time></trkpt><trkpt lat="41.0232167" lon="-0.2000333"><ele>363.0</ele><time>2026-03-31T11:57:15.154Z</time></trkpt><trkpt lat="41.0234167" lon="-0.1998517"><ele>363.0</ele><time>2026-03-31T11:57:16.153Z</time></trkpt><trkpt lat="41.0236217" lon="-0.1996817"><ele>363.0</ele><time>2026-03-31T11:57:17.154Z</time></trkpt><trkpt lat="41.02383" lon="-0.19951"><ele>363.0</ele><time>2026-03-31T11:57:18.153Z</time></trkpt><trkpt lat="41.0240417" lon="-0.199345"><ele>363.0</ele><time>2026-03-31T11:57:19.154Z</time></trkpt><trkpt lat="41.024255" lon="-0.19917"><ele>362.5</ele><time>2026-03-31T11:57:20.153Z</time></trkpt><trkpt lat="41.0244633" lon="-0.198995"><ele>362.0</ele><time>2026-03-31T11:57:21.154Z</time></trkpt><trkpt lat="41.0246767" lon="-0.19882"><ele>362.0</ele><time>2026-03-31T11:57:22.153Z</time></trkpt><trkpt lat="41.0248883" lon="-0.1986483"><ele>362.0</ele><time>2026-03-31T11:57:23.154Z</time></trkpt><trkpt lat="41.0250983" lon="-0.198485"><ele>362.0</ele><time>2026-03-31T11:57:24.154Z</time></trkpt><trkpt lat="41.0253033" lon="-0.19832"><ele>362.0</ele><time>2026-03-31T11:57:25.154Z</time></trkpt><trkpt lat="41.0255083" lon="-0.1981533"><ele>362.0</ele><time>2026-03-31T11:57:26.154Z</time></trkpt><trkpt lat="41.0257167" lon="-0.1979883"><ele>362.0</ele><time>2026-03-31T11:57:27.153Z</time></trkpt><trkpt lat="41.0259267" lon="-0.1978183"><ele>361.0</ele><time>2026-03-31T11:57:28.154Z</time></trkpt><trkpt lat="41.0261317" lon="-0.1976483"><ele>360.0</ele><time>2026-03-31T11:57:29.153Z</time></trkpt><trkpt lat="41.026335" lon="-0.197495"><ele>360.0</ele><time>2026-03-31T11:57:30.153Z</time></trkpt><trkpt lat="41.0265383" lon="-0.1973417"><ele>360.0</ele><time>2026-03-31T11:57:31.153Z</time></trkpt><trkpt lat="41.0267417" lon="-0.1971833"><ele>363.0</ele><time>2026-03-31T11:57:32.154Z</time></trkpt><trkpt lat="41.0269433" lon="-0.1970183"><ele>366.0</ele><time>2026-03-31T11:57:33.153Z</time></trkpt><trkpt lat="41.0271467" lon="-0.1968533"><ele>366.0</ele><time>2026-03-31T11:57:34.154Z</time></trkpt><trkpt lat="41.02735" lon="-0.19669"><ele>366.0</ele><time>2026-03-31T11:57:35.153Z</time></trkpt><trkpt lat="41.0275483" lon="-0.196525"><ele>367.0</ele><time>2026-03-31T11:57:36.154Z</time></trkpt><trkpt lat="41.0277433" lon="-0.1963667"><ele>368.0</ele><time>2026-03-31T11:57:37.154Z</time></trkpt><trkpt lat="41.027935" lon="-0.1962133"><ele>368.0</ele><time>2026-03-31T11:57:38.153Z</time></trkpt><trkpt lat="41.0281267" lon="-0.1960567"><ele>368.0</ele><time>2026-03-31T11:57:39.153Z</time></trkpt><trkpt lat="41.0283217" lon="-0.1959017"><ele>368.0</ele><time>2026-03-31T11:57:40.154Z</time></trkpt><trkpt lat="41.0285133" lon="-0.19575"><ele>368.0</ele><time>2026-03-31T11:57:41.154Z</time></trkpt><trkpt lat="41.0287083" lon="-0.1955883"><ele>368.0</ele><time>2026-03-31T11:57:42.154Z</time></trkpt><trkpt lat="41.0289033" lon="-0.1954283"><ele>368.0</ele><time>2026-03-31T11:57:43.153Z</time></trkpt><trkpt lat="41.0290983" lon="-0.19526"><ele>367.0</ele><time>2026-03-31T11:57:44.153Z</time></trkpt><trkpt lat="41.02929" lon="-0.1950717"><ele>366.0</ele><time>2026-03-31T11:57:45.153Z</time></trkpt><trkpt lat="41.0294783" lon="-0.1948683"><ele>368.5</ele><time>2026-03-31T11:57:46.153Z</time></trkpt><trkpt lat="41.0296633" lon="-0.1946617"><ele>371.0</ele><time>2026-03-31T11:57:47.154Z</time></trkpt><trkpt lat="41.02984" lon="-0.1944433"><ele>371.0</ele><time>2026-03-31T11:57:48.154Z</time></trkpt><trkpt lat="41.0300183" lon="-0.194225"><ele>371.0</ele><time>2026-03-31T11:57:49.154Z</time></trkpt><trkpt lat="41.0302017" lon="-0.1940033"><ele>371.0</ele><time>2026-03-31T11:57:50.153Z</time></trkpt><trkpt lat="41.030385" lon="-0.1937833"><ele>371.0</ele><time>2026-03-31T11:57:51.153Z</time></trkpt><trkpt lat="41.0305733" lon="-0.1935517"><ele>371.0</ele><time>2026-03-31T11:57:52.153Z</time></trkpt><trkpt lat="41.0307633" lon="-0.193325"><ele>371.0</ele><time>2026-03-31T11:57:53.153Z</time></trkpt><trkpt lat="41.030945" lon="-0.19311"><ele>368.5</ele><time>2026-03-31T11:57:54.153Z</time></trkpt><trkpt lat="41.03112" lon="-0.1928833"><ele>366.0</ele><time>2026-03-31T11:57:55.153Z</time></trkpt><trkpt lat="41.0313" lon="-0.1926667"><ele>366.0</ele><time>2026-03-31T11:57:56.154Z</time></trkpt><trkpt lat="41.0314667" lon="-0.1924433"><ele>366.0</ele><time>2026-03-31T11:57:57.154Z</time></trkpt><trkpt lat="41.0316383" lon="-0.1922333"><ele>362.5</ele><time>2026-03-31T11:57:58.154Z</time></trkpt><trkpt lat="41.0318067" lon="-0.1920133"><ele>359.0</ele><time>2026-03-31T11:57:59.153Z</time></trkpt><trkpt lat="41.0319633" lon="-0.1917833"><ele>359.0</ele><time>2026-03-31T11:58:00.153Z</time></trkpt><trkpt lat="41.0321083" lon="-0.1915467"><ele>359.0</ele><time>2026-03-31T11:58:01.154Z</time></trkpt><trkpt lat="41.0322383" lon="-0.1913033"><ele>359.0</ele><time>2026-03-31T11:58:02.154Z</time></trkpt><trkpt lat="41.032365" lon="-0.1910433"><ele>359.0</ele><time>2026-03-31T11:58:03.153Z</time></trkpt><trkpt lat="41.032485" lon="-0.19077"><ele>359.5</ele><time>2026-03-31T11:58:04.154Z</time></trkpt><trkpt lat="41.0325967" lon="-0.1904933"><ele>360.0</ele><time>2026-03-31T11:58:05.153Z</time></trkpt><trkpt lat="41.0327083" lon="-0.1901983"><ele>360.0</ele><time>2026-03-31T11:58:06.153Z</time></trkpt><trkpt lat="41.0328233" lon="-0.1899"><ele>360.0</ele><time>2026-03-31T11:58:07.154Z</time></trkpt><trkpt lat="41.03294" lon="-0.1895983"><ele>358.5</ele><time>2026-03-31T11:58:08.153Z</time></trkpt><trkpt lat="41.0330583" lon="-0.1893033"><ele>357.0</ele><time>2026-03-31T11:58:09.154Z</time></trkpt><trkpt lat="41.033175" lon="-0.1890083"><ele>357.0</ele><time>2026-03-31T11:58:10.153Z</time></trkpt><trkpt lat="41.03329" lon="-0.188715"><ele>357.0</ele><time>2026-03-31T11:58:11.154Z</time></trkpt><trkpt lat="41.0334017" lon="-0.18841"><ele>356.5</ele><time>2026-03-31T11:58:12.153Z</time></trkpt><trkpt lat="41.0335133" lon="-0.18811"><ele>356.0</ele><time>2026-03-31T11:58:13.153Z</time></trkpt><trkpt lat="41.033625" lon="-0.1878183"><ele>356.0</ele><time>2026-03-31T11:58:14.153Z</time></trkpt><trkpt lat="41.0337367" lon="-0.1875367"><ele>356.0</ele><time>2026-03-31T11:58:15.153Z</time></trkpt><trkpt lat="41.0338467" lon="-0.18725"><ele>355.5</ele><time>2026-03-31T11:58:16.154Z</time></trkpt><trkpt lat="41.03395" lon="-0.1869617"><ele>355.0</ele><time>2026-03-31T11:58:17.153Z</time></trkpt><trkpt lat="41.0340517" lon="-0.1866933"><ele>356.0</ele><time>2026-03-31T11:58:18.153Z</time></trkpt><trkpt lat="41.0341533" lon="-0.1864167"><ele>357.0</ele><time>2026-03-31T11:58:19.154Z</time></trkpt><trkpt lat="41.034255" lon="-0.1861517"><ele>357.0</ele><time>2026-03-31T11:58:20.154Z</time></trkpt><trkpt lat="41.0343517" lon="-0.1858867"><ele>357.0</ele><time>2026-03-31T11:58:21.154Z</time></trkpt><trkpt lat="41.0344533" lon="-0.185615"><ele>357.0</ele><time>2026-03-31T11:58:22.153Z</time></trkpt><trkpt lat="41.03456" lon="-0.18534"><ele>357.0</ele><time>2026-03-31T11:58:23.154Z</time></trkpt><trkpt lat="41.034665" lon="-0.1850667"><ele>356.5</ele><time>2026-03-31T11:58:24.153Z</time></trkpt><trkpt lat="41.03477" lon="-0.1847983"><ele>356.0</ele><time>2026-03-31T11:58:25.154Z</time></trkpt><trkpt lat="41.034875" lon="-0.1845317"><ele>356.0</ele><time>2026-03-31T11:58:26.153Z</time></trkpt><trkpt lat="41.03498" lon="-0.18426"><ele>356.0</ele><time>2026-03-31T11:58:27.153Z</time></trkpt><trkpt lat="41.0350883" lon="-0.1839833"><ele>356.5</ele><time>2026-03-31T11:58:28.153Z</time></trkpt><trkpt lat="41.035185" lon="-0.1837117"><ele>357.0</ele><time>2026-03-31T11:58:29.153Z</time></trkpt><trkpt lat="41.03529" lon="-0.1834317"><ele>355.5</ele><time>2026-03-31T11:58:30.154Z</time></trkpt><trkpt lat="41.0353933" lon="-0.1831533"><ele>354.0</ele><time>2026-03-31T11:58:31.154Z</time></trkpt><trkpt lat="41.0355" lon="-0.1828733"><ele>354.0</ele><time>2026-03-31T11:58:32.154Z</time></trkpt><trkpt lat="41.0356017" lon="-0.1825883"><ele>354.0</ele><time>2026-03-31T11:58:33.153Z</time></trkpt><trkpt lat="41.0357083" lon="-0.1823083"><ele>354.0</ele><time>2026-03-31T11:58:34.153Z</time></trkpt><trkpt lat="41.0358133" lon="-0.1820267"><ele>354.0</ele><time>2026-03-31T11:58:35.153Z</time></trkpt><trkpt lat="41.0359267" lon="-0.1817483"><ele>353.0</ele><time>2026-03-31T11:58:36.153Z</time></trkpt><trkpt lat="41.0360367" lon="-0.1814683"><ele>352.0</ele><time>2026-03-31T11:58:37.154Z</time></trkpt><trkpt lat="41.0361433" lon="-0.1811817"><ele>352.0</ele><time>2026-03-31T11:58:38.153Z</time></trkpt><trkpt lat="41.0362483" lon="-0.1808917"><ele>352.0</ele><time>2026-03-31T11:58:39.153Z</time></trkpt><trkpt lat="41.0363533" lon="-0.1806133"><ele>351.5</ele><time>2026-03-31T11:58:40.154Z</time></trkpt><trkpt lat="41.0364567" lon="-0.180325"><ele>351.0</ele><time>2026-03-31T11:58:41.153Z</time></trkpt><trkpt lat="41.0365633" lon="-0.18005"><ele>350.0</ele><time>2026-03-31T11:58:42.153Z</time></trkpt><trkpt lat="41.0366633" lon="-0.1797683"><ele>349.0</ele><time>2026-03-31T11:58:43.154Z</time></trkpt><trkpt lat="41.0367683" lon="-0.1794883"><ele>349.0</ele><time>2026-03-31T11:58:44.153Z</time></trkpt><trkpt lat="41.036875" lon="-0.1792117"><ele>349.0</ele><time>2026-03-31T11:58:45.153Z</time></trkpt><trkpt lat="41.0369767" lon="-0.178945"><ele>348.5</ele><time>2026-03-31T11:58:46.153Z</time></trkpt><trkpt lat="41.0370783" lon="-0.178675"><ele>348.0</ele><time>2026-03-31T11:58:47.153Z</time></trkpt><trkpt lat="41.0371817" lon="-0.178405"><ele>349.0</ele><time>2026-03-31T11:58:48.154Z</time></trkpt><trkpt lat="41.0372833" lon="-0.178135"><ele>350.0</ele><time>2026-03-31T11:58:49.153Z</time></trkpt><trkpt lat="41.0373933" lon="-0.17787"><ele>350.33333333333337</ele><time>2026-03-31T11:58:50.154Z</time></trkpt><trkpt lat="41.0375033" lon="-0.1776217"><ele>350.6666666666667</ele><time>2026-03-31T11:58:51.153Z</time></trkpt><trkpt lat="41.0376367" lon="-0.17737"><ele>351.0</ele><time>2026-03-31T11:58:52.153Z</time></trkpt><trkpt lat="41.03777" lon="-0.1771367"><ele>351.0</ele><time>2026-03-31T11:58:53.154Z</time></trkpt><trkpt lat="41.037915" lon="-0.1769267"><ele>351.0</ele><time>2026-03-31T11:58:54.154Z</time></trkpt><trkpt lat="41.0380717" lon="-0.1767217"><ele>351.0</ele><time>2026-03-31T11:58:55.153Z</time></trkpt><trkpt lat="41.038255" lon="-0.1765483"><ele>350.6666666666667</ele><time>2026-03-31T11:58:56.153Z</time></trkpt><trkpt lat="41.038435" lon="-0.1763933"><ele>350.33333333333337</ele><time>2026-03-31T11:58:57.153Z</time></trkpt><trkpt lat="41.0386317" lon="-0.1762467"><ele>350.0</ele><time>2026-03-31T11:58:58.153Z</time></trkpt><trkpt lat="41.0388317" lon="-0.1761117"><ele>350.0</ele><time>2026-03-31T11:58:59.154Z</time></trkpt><trkpt lat="41.0390333" lon="-0.1759767"><ele>350.0</ele><time>2026-03-31T11:59:00.153Z</time></trkpt><trkpt lat="41.03924" lon="-0.17584"><ele>350.5</ele><time>2026-03-31T11:59:01.153Z</time></trkpt><trkpt lat="41.0394533" lon="-0.1757267"><ele>351.0</ele><time>2026-03-31T11:59:02.153Z</time></trkpt><trkpt lat="41.03966" lon="-0.1756"><ele>351.5</ele><time>2026-03-31T11:59:03.154Z</time></trkpt><trkpt lat="41.039865" lon="-0.1754667"><ele>352.0</ele><time>2026-03-31T11:59:04.153Z</time></trkpt><trkpt lat="41.040075" lon="-0.1753317"><ele>353.0</ele><time>2026-03-31T11:59:05.153Z</time></trkpt><trkpt lat="41.040285" lon="-0.1751967"><ele>354.0</ele><time>2026-03-31T11:59:06.153Z</time></trkpt><trkpt lat="41.040495" lon="-0.175065"><ele>354.0</ele><time>2026-03-31T11:59:07.154Z</time></trkpt><trkpt lat="41.0407067" lon="-0.1749217"><ele>354.0</ele><time>2026-03-31T11:59:08.153Z</time></trkpt><trkpt lat="41.0409183" lon="-0.1747867"><ele>354.5</ele><time>2026-03-31T11:59:09.154Z</time></trkpt><trkpt lat="41.0411283" lon="-0.1746533"><ele>355.0</ele><time>2026-03-31T11:59:10.153Z</time></trkpt><trkpt lat="41.041345" lon="-0.1745167"><ele>355.0</ele><time>2026-03-31T11:59:11.153Z</time></trkpt><trkpt lat="41.0415683" lon="-0.1743817"><ele>355.0</ele><time>2026-03-31T11:59:12.154Z</time></trkpt><trkpt lat="41.041795" lon="-0.1742533"><ele>355.0</ele><time>2026-03-31T11:59:13.153Z</time></trkpt><trkpt lat="41.04202" lon="-0.174135"><ele>355.0</ele><time>2026-03-31T11:59:14.153Z</time></trkpt><trkpt lat="41.0422533" lon="-0.1740283"><ele>354.5</ele><time>2026-03-31T11:59:15.153Z</time></trkpt><trkpt lat="41.042485" lon="-0.1739367"><ele>354.0</ele><time>2026-03-31T11:59:16.153Z</time></trkpt><trkpt lat="41.0427217" lon="-0.1738633"><ele>354.0</ele><time>2026-03-31T11:59:17.154Z</time></trkpt><trkpt lat="41.042955" lon="-0.1737983"><ele>354.0</ele><time>2026-03-31T11:59:18.153Z</time></trkpt><trkpt lat="41.0431783" lon="-0.1737367"><ele>353.6666666666667</ele><time>2026-03-31T11:59:19.154Z</time></trkpt><trkpt lat="41.0434" lon="-0.1736733"><ele>353.33333333333337</ele><time>2026-03-31T11:59:20.153Z</time></trkpt><trkpt lat="41.0436167" lon="-0.17361"><ele>353.0</ele><time>2026-03-31T11:59:21.153Z</time></trkpt><trkpt lat="41.043835" lon="-0.1735283"><ele>353.0</ele><time>2026-03-31T11:59:22.153Z</time></trkpt><trkpt lat="41.04405" lon="-0.1734333"><ele>353.0</ele><time>2026-03-31T11:59:23.153Z</time></trkpt><trkpt lat="41.044265" lon="-0.1733183"><ele>351.0</ele><time>2026-03-31T11:59:24.153Z</time></trkpt><trkpt lat="41.0444833" lon="-0.1731817"><ele>349.0</ele><time>2026-03-31T11:59:25.154Z</time></trkpt><trkpt lat="41.0446833" lon="-0.1730267"><ele>349.0</ele><time>2026-03-31T11:59:26.153Z</time></trkpt><trkpt lat="41.0448717" lon="-0.1728567"><ele>349.0</ele><time>2026-03-31T11:59:27.153Z</time></trkpt><trkpt lat="41.0450533" lon="-0.1726717"><ele>349.5</ele><time>2026-03-31T11:59:28.153Z</time></trkpt><trkpt lat="41.045235" lon="-0.17246"><ele>350.0</ele><time>2026-03-31T11:59:29.153Z</time></trkpt><trkpt lat="41.0454017" lon="-0.1722383"><ele>350.0</ele><time>2026-03-31T11:59:30.154Z</time></trkpt><trkpt lat="41.0455567" lon="-0.1719967"><ele>350.0</ele><time>2026-03-31T11:59:31.154Z</time></trkpt><trkpt lat="41.0457033" lon="-0.171755"><ele>350.0</ele><time>2026-03-31T11:59:32.153Z</time></trkpt><trkpt lat="41.04583" lon="-0.1714883"><ele>350.0</ele><time>2026-03-31T11:59:33.153Z</time></trkpt><trkpt lat="41.0459417" lon="-0.1712217"><ele>350.0</ele><time>2026-03-31T11:59:34.153Z</time></trkpt><trkpt lat="41.046045" lon="-0.17094"><ele>350.0</ele><time>2026-03-31T11:59:35.154Z</time></trkpt><trkpt lat="41.0461417" lon="-0.1706533"><ele>348.0</ele><time>2026-03-31T11:59:36.153Z</time></trkpt><trkpt lat="41.046225" lon="-0.17035"><ele>346.0</ele><time>2026-03-31T11:59:37.153Z</time></trkpt><trkpt lat="41.0462867" lon="-0.170045"><ele>344.0</ele><time>2026-03-31T11:59:38.154Z</time></trkpt><trkpt lat="41.046335" lon="-0.1697417"><ele>342.0</ele><time>2026-03-31T11:59:39.154Z</time></trkpt><trkpt lat="41.04637" lon="-0.1694417"><ele>342.0</ele><time>2026-03-31T11:59:40.154Z</time></trkpt><trkpt lat="41.046405" lon="-0.1691483"><ele>342.0</ele><time>2026-03-31T11:59:41.154Z</time></trkpt><trkpt lat="41.0464483" lon="-0.1688767"><ele>342.0</ele><time>2026-03-31T11:59:42.153Z</time></trkpt><trkpt lat="41.04651" lon="-0.16862"><ele>341.3333333333333</ele><time>2026-03-31T11:59:43.153Z</time></trkpt><trkpt lat="41.04658" lon="-0.1683667"><ele>340.66666666666663</ele><time>2026-03-31T11:59:44.154Z</time></trkpt><trkpt lat="41.0466567" lon="-0.1681267"><ele>340.0</ele><time>2026-03-31T11:59:45.154Z</time></trkpt><trkpt lat="41.0467417" lon="-0.1679083"><ele>337.66666666666663</ele><time>2026-03-31T11:59:46.153Z</time></trkpt><trkpt lat="41.046835" lon="-0.1677133"><ele>335.3333333333333</ele><time>2026-03-31T11:59:47.153Z</time></trkpt><trkpt lat="41.0469533" lon="-0.1675317"><ele>333.0</ele><time>2026-03-31T11:59:48.153Z</time></trkpt><trkpt lat="41.0470783" lon="-0.16737"><ele>331.6666666666667</ele><time>2026-03-31T11:59:49.154Z</time></trkpt><trkpt lat="41.0472083" lon="-0.1672117"><ele>330.33333333333337</ele><time>2026-03-31T11:59:50.153Z</time></trkpt><trkpt lat="41.0473467" lon="-0.1670717"><ele>329.0</ele><time>2026-03-31T11:59:51.153Z</time></trkpt><trkpt lat="41.047475" lon="-0.1669433"><ele>328.5</ele><time>2026-03-31T11:59:52.153Z</time></trkpt><trkpt lat="41.0476067" lon="-0.16684"><ele>328.0</ele><time>2026-03-31T11:59:53.153Z</time></trkpt><trkpt lat="41.0477167" lon="-0.1667633"><ele>327.5</ele><time>2026-03-31T11:59:54.153Z</time></trkpt><trkpt lat="41.0477967" lon="-0.1666917"><ele>327.0</ele><time>2026-03-31T11:59:55.154Z</time></trkpt><trkpt lat="41.047855" lon="-0.1665983"><ele>326.25</ele><time>2026-03-31T11:59:56.153Z</time></trkpt><trkpt lat="41.0479" lon="-0.1664733"><ele>325.5</ele><time>2026-03-31T11:59:57.153Z</time></trkpt><trkpt lat="41.0479367" lon="-0.166315"><ele>324.75</ele><time>2026-03-31T11:59:58.153Z</time></trkpt><trkpt lat="41.047975" lon="-0.1661633"><ele>324.0</ele><time>2026-03-31T11:59:59.153Z</time></trkpt><trkpt lat="41.0480367" lon="-0.1660367"><ele>324.0</ele><time>2026-03-31T12:00:00.153Z</time></trkpt><trkpt lat="41.048125" lon="-0.1659367"><ele>324.0</ele><time>2026-03-31T12:00:01.154Z</time></trkpt><trkpt lat="41.04823" lon="-0.16587"><ele>324.0</ele><time>2026-03-31T12:00:02.153Z</time></trkpt><trkpt lat="41.0483433" lon="-0.1658317"><ele>324.0</ele><time>2026-03-31T12:00:03.154Z</time></trkpt><trkpt lat="41.048465" lon="-0.1658233"><ele>324.0</ele><time>2026-03-31T12:00:04.154Z</time></trkpt><trkpt lat="41.0485767" lon="-0.1658517"><ele>324.0</ele><time>2026-03-31T12:00:05.153Z</time></trkpt><trkpt lat="41.0486933" lon="-0.1659133"><ele>324.0</ele><time>2026-03-31T12:00:06.154Z</time></trkpt><trkpt lat="41.0487883" lon="-0.1659833"><ele>324.0</ele><time>2026-03-31T12:00:07.153Z</time></trkpt><trkpt lat="41.0488867" lon="-0.16606"><ele>324.0</ele><time>2026-03-31T12:00:08.153Z</time></trkpt><trkpt lat="41.0489967" lon="-0.16612"><ele>324.0</ele><time>2026-03-31T12:00:09.153Z</time></trkpt><trkpt lat="41.04912" lon="-0.1661333"><ele>324.0</ele><time>2026-03-31T12:00:10.153Z</time></trkpt><trkpt lat="41.0492483" lon="-0.166105"><ele>324.0</ele><time>2026-03-31T12:00:11.154Z</time></trkpt><trkpt lat="41.0493833" lon="-0.1660417"><ele>324.6666666666667</ele><time>2026-03-31T12:00:12.154Z</time></trkpt><trkpt lat="41.0495283" lon="-0.1659617"><ele>325.33333333333337</ele><time>2026-03-31T12:00:13.154Z</time></trkpt><trkpt lat="41.0496883" lon="-0.16589"><ele>326.0</ele><time>2026-03-31T12:00:14.153Z</time></trkpt><trkpt lat="41.04984" lon="-0.16582"><ele>325.5</ele><time>2026-03-31T12:00:15.154Z</time></trkpt><trkpt lat="41.0499833" lon="-0.165755"><ele>325.0</ele><time>2026-03-31T12:00:16.154Z</time></trkpt><trkpt lat="41.0501117" lon="-0.165695"><ele>324.5</ele><time>2026-03-31T12:00:17.154Z</time></trkpt><trkpt lat="41.0502317" lon="-0.165635"><ele>324.0</ele><time>2026-03-31T12:00:18.153Z</time></trkpt><trkpt lat="41.0503417" lon="-0.1655667"><ele>323.75</ele><time>2026-03-31T12:00:19.154Z</time></trkpt><trkpt lat="41.0504383" lon="-0.1654883"><ele>323.5</ele><time>2026-03-31T12:00:20.154Z</time></trkpt><trkpt lat="41.050515" lon="-0.165385"><ele>323.25</ele><time>2026-03-31T12:00:21.154Z</time></trkpt><trkpt lat="41.0505633" lon="-0.1652467"><ele>323.0</ele><time>2026-03-31T12:00:22.153Z</time></trkpt><trkpt lat="41.0505883" lon="-0.1650867"><ele>323.0</ele><time>2026-03-31T12:00:23.153Z</time></trkpt><trkpt lat="41.05062" lon="-0.1649317"><ele>323.0</ele><time>2026-03-31T12:00:24.153Z</time></trkpt><trkpt lat="41.050685" lon="-0.1648033"><ele>323.0</ele><time>2026-03-31T12:00:25.154Z</time></trkpt><trkpt lat="41.0507783" lon="-0.1646933"><ele>323.0</ele><time>2026-03-31T12:00:26.154Z</time></trkpt><trkpt lat="41.0508967" lon="-0.1646217"><ele>323.0</ele><time>2026-03-31T12:00:27.153Z</time></trkpt><trkpt lat="41.0510133" lon="-0.164545"><ele>323.0</ele><time>2026-03-31T12:00:28.153Z</time></trkpt><trkpt lat="41.05111" lon="-0.1644417"><ele>323.0</ele><time>2026-03-31T12:00:29.154Z</time></trkpt><trkpt lat="41.0511667" lon="-0.1642983"><ele>323.0</ele><time>2026-03-31T12:00:30.153Z</time></trkpt><trkpt lat="41.0511767" lon="-0.1641133"><ele>322.6666666666667</ele><time>2026-03-31T12:00:31.153Z</time></trkpt><trkpt lat="41.0511733" lon="-0.1639083"><ele>322.3333333333333</ele><time>2026-03-31T12:00:32.153Z</time></trkpt><trkpt lat="41.0511617" lon="-0.163695"><ele>322.0</ele><time>2026-03-31T12:00:33.154Z</time></trkpt><trkpt lat="41.05114" lon="-0.1634817"><ele>322.0</ele><time>2026-03-31T12:00:34.154Z</time></trkpt><trkpt lat="41.0511083" lon="-0.163255"><ele>322.0</ele><time>2026-03-31T12:00:35.153Z</time></trkpt><trkpt lat="41.051065" lon="-0.1630333"><ele>322.0</ele><time>2026-03-31T12:00:36.153Z</time></trkpt><trkpt lat="41.0510183" lon="-0.1628067"><ele>322.3333333333333</ele><time>2026-03-31T12:00:37.153Z</time></trkpt><trkpt lat="41.0509583" lon="-0.1625733"><ele>322.6666666666667</ele><time>2026-03-31T12:00:38.154Z</time></trkpt><trkpt lat="41.0509117" lon="-0.1623267"><ele>323.0</ele><time>2026-03-31T12:00:39.154Z</time></trkpt><trkpt lat="41.0508733" lon="-0.1620767"><ele>323.0</ele><time>2026-03-31T12:00:40.154Z</time></trkpt><trkpt lat="41.0508583" lon="-0.1618167"><ele>323.0</ele><time>2026-03-31T12:00:41.153Z</time></trkpt><trkpt lat="41.0508567" lon="-0.1615667"><ele>323.0</ele><time>2026-03-31T12:00:42.154Z</time></trkpt><trkpt lat="41.0508633" lon="-0.1613083"><ele>323.0</ele><time>2026-03-31T12:00:43.153Z</time></trkpt><trkpt lat="41.05089" lon="-0.1610583"><ele>323.0</ele><time>2026-03-31T12:00:44.153Z</time></trkpt><trkpt lat="41.0509183" lon="-0.1608167"><ele>323.0</ele><time>2026-03-31T12:00:45.153Z</time></trkpt><trkpt lat="41.050965" lon="-0.160585"><ele>323.0</ele><time>2026-03-31T12:00:46.154Z</time></trkpt><trkpt lat="41.051005" lon="-0.160365"><ele>323.0</ele><time>2026-03-31T12:00:47.153Z</time></trkpt><trkpt lat="41.0510433" lon="-0.1601433"><ele>323.0</ele><time>2026-03-31T12:00:48.153Z</time></trkpt><trkpt lat="41.05109" lon="-0.1599283"><ele>322.33333333333337</ele><time>2026-03-31T12:00:49.154Z</time></trkpt><trkpt lat="41.051135" lon="-0.1597183"><ele>321.6666666666667</ele><time>2026-03-31T12:00:50.153Z</time></trkpt><trkpt lat="41.0511717" lon="-0.1595133"><ele>321.0</ele><time>2026-03-31T12:00:51.154Z</time></trkpt><trkpt lat="41.0512067" lon="-0.1593183"><ele>321.0</ele><time>2026-03-31T12:00:52.153Z</time></trkpt><trkpt lat="41.05124" lon="-0.1591383"><ele>321.0</ele><time>2026-03-31T12:00:53.153Z</time></trkpt><trkpt lat="41.0512767" lon="-0.1589633"><ele>321.0</ele><time>2026-03-31T12:00:54.153Z</time></trkpt><trkpt lat="41.0513033" lon="-0.15879"><ele>321.0</ele><time>2026-03-31T12:00:55.154Z</time></trkpt><trkpt lat="41.051325" lon="-0.1586333"><ele>320.8</ele><time>2026-03-31T12:00:56.154Z</time></trkpt><trkpt lat="41.0513267" lon="-0.1584867"><ele>320.6</ele><time>2026-03-31T12:00:57.154Z</time></trkpt><trkpt lat="41.0513083" lon="-0.1583433"><ele>320.4</ele><time>2026-03-31T12:00:58.153Z</time></trkpt><trkpt lat="41.051265" lon="-0.1581983"><ele>320.2</ele><time>2026-03-31T12:00:59.154Z</time></trkpt><trkpt lat="41.051255" lon="-0.158055"><ele>320.0</ele><time>2026-03-31T12:01:00.154Z</time></trkpt><trkpt lat="41.0512767" lon="-0.1579233"><ele>320.0</ele><time>2026-03-31T12:01:01.153Z</time></trkpt><trkpt lat="41.051345" lon="-0.15784"><ele>320.0</ele><time>2026-03-31T12:01:02.153Z</time></trkpt><trkpt lat="41.0514217" lon="-0.1577583"><ele>320.0</ele><time>2026-03-31T12:01:03.154Z</time></trkpt><trkpt lat="41.05149" lon="-0.1576433"><ele>320.0</ele><time>2026-03-31T12:01:04.154Z</time></trkpt><trkpt lat="41.0515317" lon="-0.1575"><ele>320.0</ele><time>2026-03-31T12:01:05.154Z</time></trkpt><trkpt lat="41.0515633" lon="-0.1573283"><ele>320.75</ele><time>2026-03-31T12:01:06.154Z</time></trkpt><trkpt lat="41.05159" lon="-0.15714"><ele>321.5</ele><time>2026-03-31T12:01:07.154Z</time></trkpt><trkpt lat="41.0516183" lon="-0.1569517"><ele>322.25</ele><time>2026-03-31T12:01:08.154Z</time></trkpt><trkpt lat="41.051655" lon="-0.1567617"><ele>323.0</ele><time>2026-03-31T12:01:09.154Z</time></trkpt><trkpt lat="41.0517017" lon="-0.156565"><ele>323.33333333333337</ele><time>2026-03-31T12:01:10.153Z</time></trkpt><trkpt lat="41.0517417" lon="-0.1563617"><ele>323.6666666666667</ele><time>2026-03-31T12:01:11.153Z</time></trkpt><trkpt lat="41.051775" lon="-0.1561467"><ele>324.0</ele><time>2026-03-31T12:01:12.154Z</time></trkpt><trkpt lat="41.0518167" lon="-0.1559283"><ele>324.0</ele><time>2026-03-31T12:01:13.153Z</time></trkpt><trkpt lat="41.0518583" lon="-0.15571"><ele>324.0</ele><time>2026-03-31T12:01:14.153Z</time></trkpt><trkpt lat="41.0518967" lon="-0.1554867"><ele>324.0</ele><time>2026-03-31T12:01:15.154Z</time></trkpt><trkpt lat="41.0519283" lon="-0.1552633"><ele>323.6666666666667</ele><time>2026-03-31T12:01:16.153Z</time></trkpt><trkpt lat="41.0519633" lon="-0.1550617"><ele>323.33333333333337</ele><time>2026-03-31T12:01:17.154Z</time></trkpt><trkpt lat="41.0519917" lon="-0.1548633"><ele>323.0</ele><time>2026-03-31T12:01:18.153Z</time></trkpt><trkpt lat="41.0520233" lon="-0.15468"><ele>323.0</ele><time>2026-03-31T12:01:19.154Z</time></trkpt><trkpt lat="41.0520617" lon="-0.1545083"><ele>323.0</ele><time>2026-03-31T12:01:20.154Z</time></trkpt><trkpt lat="41.0521017" lon="-0.15433"><ele>323.0</ele><time>2026-03-31T12:01:21.154Z</time></trkpt><trkpt lat="41.05213" lon="-0.1541533"><ele>323.0</ele><time>2026-03-31T12:01:22.153Z</time></trkpt><trkpt lat="41.052165" lon="-0.1539867"><ele>323.2</ele><time>2026-03-31T12:01:23.154Z</time></trkpt><trkpt lat="41.0521933" lon="-0.1538183"><ele>323.4</ele><time>2026-03-31T12:01:24.153Z</time></trkpt><trkpt lat="41.0522067" lon="-0.1536767"><ele>323.59999999999997</ele><time>2026-03-31T12:01:25.153Z</time></trkpt><trkpt lat="41.0522067" lon="-0.1535533"><ele>323.79999999999995</ele><time>2026-03-31T12:01:26.154Z</time></trkpt><trkpt lat="41.0521783" lon="-0.1534433"><ele>324.0</ele><time>2026-03-31T12:01:27.153Z</time></trkpt><trkpt lat="41.0521517" lon="-0.1533467"><ele>324.0</ele><time>2026-03-31T12:01:28.153Z</time></trkpt><trkpt lat="41.0521533" lon="-0.1532367"><ele>324.0</ele><time>2026-03-31T12:01:29.154Z</time></trkpt><trkpt lat="41.0521883" lon="-0.15313"><ele>324.0</ele><time>2026-03-31T12:01:30.153Z</time></trkpt><trkpt lat="41.0522533" lon="-0.1530233"><ele>324.0</ele><time>2026-03-31T12:01:31.154Z</time></trkpt><trkpt lat="41.0523217" lon="-0.1529183"><ele>324.0</ele><time>2026-03-31T12:01:32.153Z</time></trkpt><trkpt lat="41.0523817" lon="-0.1527867"><ele>324.25</ele><time>2026-03-31T12:01:33.154Z</time></trkpt><trkpt lat="41.0524217" lon="-0.1526417"><ele>324.5</ele><time>2026-03-31T12:01:34.154Z</time></trkpt><trkpt lat="41.0524467" lon="-0.1524833"><ele>324.75</ele><time>2026-03-31T12:01:35.154Z</time></trkpt><trkpt lat="41.0524783" lon="-0.15232"><ele>325.0</ele><time>2026-03-31T12:01:36.154Z</time></trkpt><trkpt lat="41.0525083" lon="-0.152155"><ele>325.5</ele><time>2026-03-31T12:01:37.154Z</time></trkpt><trkpt lat="41.052535" lon="-0.1519933"><ele>326.0</ele><time>2026-03-31T12:01:38.154Z</time></trkpt><trkpt lat="41.05256" lon="-0.151835"><ele>326.5</ele><time>2026-03-31T12:01:39.153Z</time></trkpt><trkpt lat="41.05259" lon="-0.1516833"><ele>327.0</ele><time>2026-03-31T12:01:40.154Z</time></trkpt><trkpt lat="41.0526183" lon="-0.1515267"><ele>327.40000000000003</ele><time>2026-03-31T12:01:41.154Z</time></trkpt><trkpt lat="41.05265" lon="-0.1513783"><ele>327.8</ele><time>2026-03-31T12:01:42.153Z</time></trkpt><trkpt lat="41.0526767" lon="-0.1512367"><ele>328.2</ele><time>2026-03-31T12:01:43.153Z</time></trkpt><trkpt lat="41.0527017" lon="-0.151095"><ele>328.6</ele><time>2026-03-31T12:01:44.154Z</time></trkpt><trkpt lat="41.0527283" lon="-0.15095"><ele>329.0</ele><time>2026-03-31T12:01:45.153Z</time></trkpt><trkpt lat="41.0527583" lon="-0.1507917"><ele>330.0</ele><time>2026-03-31T12:01:46.154Z</time></trkpt><trkpt lat="41.0527733" lon="-0.1506367"><ele>331.0</ele><time>2026-03-31T12:01:47.153Z</time></trkpt><trkpt lat="41.0527833" lon="-0.15048"><ele>332.0</ele><time>2026-03-31T12:01:48.154Z</time></trkpt><trkpt lat="41.0527783" lon="-0.1503233"><ele>333.0</ele><time>2026-03-31T12:01:49.154Z</time></trkpt><trkpt lat="41.0527767" lon="-0.150155"><ele>333.0</ele><time>2026-03-31T12:01:50.153Z</time></trkpt><trkpt lat="41.052775" lon="-0.149975"><ele>333.0</ele><time>2026-03-31T12:01:51.154Z</time></trkpt><trkpt lat="41.0527667" lon="-0.1498033"><ele>333.0</ele><time>2026-03-31T12:01:52.153Z</time></trkpt><trkpt lat="41.0527567" lon="-0.1496433"><ele>333.0</ele><time>2026-03-31T12:01:53.153Z</time></trkpt><trkpt lat="41.0527383" lon="-0.1494783"><ele>333.0</ele><time>2026-03-31T12:01:54.154Z</time></trkpt><trkpt lat="41.0527183" lon="-0.1493383"><ele>333.0</ele><time>2026-03-31T12:01:55.153Z</time></trkpt><trkpt lat="41.0526917" lon="-0.1492033"><ele>333.0</ele><time>2026-03-31T12:01:56.154Z</time></trkpt><trkpt lat="41.0526717" lon="-0.1490767"><ele>333.0</ele><time>2026-03-31T12:01:57.153Z</time></trkpt><trkpt lat="41.0526483" lon="-0.1489483"><ele>333.0</ele><time>2026-03-31T12:01:58.153Z</time></trkpt><trkpt lat="41.0526367" lon="-0.148815"><ele>332.59999999999997</ele><time>2026-03-31T12:01:59.153Z</time></trkpt><trkpt lat="41.0526117" lon="-0.1486767"><ele>332.2</ele><time>2026-03-31T12:02:00.153Z</time></trkpt><trkpt lat="41.05259" lon="-0.1485433"><ele>331.8</ele><time>2026-03-31T12:02:01.154Z</time></trkpt><trkpt lat="41.052575" lon="-0.148405"><ele>331.4</ele><time>2026-03-31T12:02:02.154Z</time></trkpt><trkpt lat="41.0525583" lon="-0.148275"><ele>331.0</ele><time>2026-03-31T12:02:03.154Z</time></trkpt><trkpt lat="41.0525417" lon="-0.1481467"><ele>330.8333333333333</ele><time>2026-03-31T12:02:04.153Z</time></trkpt><trkpt lat="41.0525267" lon="-0.148035"><ele>330.66666666666663</ele><time>2026-03-31T12:02:05.153Z</time></trkpt><trkpt lat="41.0525117" lon="-0.1479367"><ele>330.5</ele><time>2026-03-31T12:02:06.153Z</time></trkpt><trkpt lat="41.0525083" lon="-0.1478417"><ele>330.3333333333333</ele><time>2026-03-31T12:02:07.153Z</time></trkpt><trkpt lat="41.0524983" lon="-0.1477583"><ele>330.1666666666667</ele><time>2026-03-31T12:02:08.153Z</time></trkpt><trkpt lat="41.052485" lon="-0.1476717"><ele>330.0</ele><time>2026-03-31T12:02:09.153Z</time></trkpt><trkpt lat="41.05246" lon="-0.1474983"><ele>329.8333333333333</ele><time>2026-03-31T12:02:11.153Z</time></trkpt><trkpt lat="41.0524483" lon="-0.147405"><ele>329.6666666666667</ele><time>2026-03-31T12:02:12.153Z</time></trkpt><trkpt lat="41.0524367" lon="-0.1473133"><ele>329.5</ele><time>2026-03-31T12:02:13.153Z</time></trkpt><trkpt lat="41.0524267" lon="-0.14723"><ele>329.33333333333337</ele><time>2026-03-31T12:02:14.154Z</time></trkpt><trkpt lat="41.0524033" lon="-0.1470967"><ele>329.1666666666667</ele><time>2026-03-31T12:02:16.154Z</time></trkpt><trkpt lat="41.052385" lon="-0.14697"><ele>329.0</ele><time>2026-03-31T12:02:18.154Z</time></trkpt><trkpt lat="41.0523483" lon="-0.1468067"><ele>329.33333333333337</ele><time>2026-03-31T12:02:20.153Z</time></trkpt><trkpt lat="41.0523383" lon="-0.146705"><ele>329.6666666666667</ele><time>2026-03-31T12:02:21.153Z</time></trkpt><trkpt lat="41.0523267" lon="-0.1466033"><ele>330.0</ele><time>2026-03-31T12:02:22.153Z</time></trkpt><trkpt lat="41.0523017" lon="-0.146495"><ele>330.3333333333333</ele><time>2026-03-31T12:02:23.153Z</time></trkpt><trkpt lat="41.0522767" lon="-0.1463783"><ele>330.66666666666663</ele><time>2026-03-31T12:02:24.154Z</time></trkpt><trkpt lat="41.0522583" lon="-0.1462583"><ele>331.0</ele><time>2026-03-31T12:02:25.153Z</time></trkpt><trkpt lat="41.0522417" lon="-0.1461267"><ele>331.0</ele><time>2026-03-31T12:02:26.153Z</time></trkpt><trkpt lat="41.0522183" lon="-0.1459933"><ele>331.0</ele><time>2026-03-31T12:02:27.153Z</time></trkpt><trkpt lat="41.052205" lon="-0.14586"><ele>331.0</ele><time>2026-03-31T12:02:28.153Z</time></trkpt><trkpt lat="41.0521967" lon="-0.1457367"><ele>331.0</ele><time>2026-03-31T12:02:29.153Z</time></trkpt><trkpt lat="41.0521833" lon="-0.1456117"><ele>331.0</ele><time>2026-03-31T12:02:30.153Z</time></trkpt><trkpt lat="41.0521783" lon="-0.145485"><ele>330.8333333333333</ele><time>2026-03-31T12:02:31.153Z</time></trkpt><trkpt lat="41.0521683" lon="-0.145365"><ele>330.66666666666663</ele><time>2026-03-31T12:02:32.154Z</time></trkpt><trkpt lat="41.0521483" lon="-0.14526"><ele>330.5</ele><time>2026-03-31T12:02:33.153Z</time></trkpt><trkpt lat="41.052135" lon="-0.1451667"><ele>330.3333333333333</ele><time>2026-03-31T12:02:34.153Z</time></trkpt><trkpt lat="41.0521033" lon="-0.1450117"><ele>330.1666666666667</ele><time>2026-03-31T12:02:36.154Z</time></trkpt><trkpt lat="41.0520933" lon="-0.1449267"><ele>330.0</ele><time>2026-03-31T12:02:37.154Z</time></trkpt><trkpt lat="41.0520817" lon="-0.1448383"><ele>329.5</ele><time>2026-03-31T12:02:38.154Z</time></trkpt><trkpt lat="41.0520583" lon="-0.1447367"><ele>329.0</ele><time>2026-03-31T12:02:39.153Z</time></trkpt><trkpt lat="41.0520367" lon="-0.1446267"><ele>328.5</ele><time>2026-03-31T12:02:40.153Z</time></trkpt><trkpt lat="41.05202" lon="-0.144505"><ele>328.0</ele><time>2026-03-31T12:02:41.153Z</time></trkpt><trkpt lat="41.0520017" lon="-0.14439"><ele>327.5</ele><time>2026-03-31T12:02:42.153Z</time></trkpt><trkpt lat="41.05199" lon="-0.1442783"><ele>327.0</ele><time>2026-03-31T12:02:43.154Z</time></trkpt><trkpt lat="41.05199" lon="-0.14416"><ele>327.0</ele><time>2026-03-31T12:02:44.153Z</time></trkpt><trkpt lat="41.051975" lon="-0.1440383"><ele>327.0</ele><time>2026-03-31T12:02:45.153Z</time></trkpt><trkpt lat="41.051965" lon="-0.1439183"><ele>327.0</ele><time>2026-03-31T12:02:46.154Z</time></trkpt><trkpt lat="41.0519483" lon="-0.1438033"><ele>327.0</ele><time>2026-03-31T12:02:47.153Z</time></trkpt><trkpt lat="41.0519333" lon="-0.1436833"><ele>327.0</ele><time>2026-03-31T12:02:48.154Z</time></trkpt><trkpt lat="41.0519217" lon="-0.14356"><ele>327.0</ele><time>2026-03-31T12:02:49.154Z</time></trkpt><trkpt lat="41.051905" lon="-0.1434433"><ele>327.0</ele><time>2026-03-31T12:02:50.154Z</time></trkpt><trkpt lat="41.051885" lon="-0.143325"><ele>327.0</ele><time>2026-03-31T12:02:51.154Z</time></trkpt><trkpt lat="41.0518667" lon="-0.1432083"><ele>327.0</ele><time>2026-03-31T12:02:52.154Z</time></trkpt><trkpt lat="41.0518483" lon="-0.1430917"><ele>327.0</ele><time>2026-03-31T12:02:53.153Z</time></trkpt><trkpt lat="41.0518317" lon="-0.14298"><ele>327.0</ele><time>2026-03-31T12:02:54.153Z</time></trkpt><trkpt lat="41.0518233" lon="-0.14287"><ele>326.8333333333333</ele><time>2026-03-31T12:02:55.154Z</time></trkpt><trkpt lat="41.0518167" lon="-0.1427583"><ele>326.6666666666667</ele><time>2026-03-31T12:02:56.153Z</time></trkpt><trkpt lat="41.0518183" lon="-0.1426533"><ele>326.5</ele><time>2026-03-31T12:02:57.154Z</time></trkpt><trkpt lat="41.0518283" lon="-0.1425583"><ele>326.33333333333337</ele><time>2026-03-31T12:02:58.154Z</time></trkpt><trkpt lat="41.0518367" lon="-0.14241"><ele>326.1666666666667</ele><time>2026-03-31T12:03:00.153Z</time></trkpt><trkpt lat="41.05183" lon="-0.1423133"><ele>326.0</ele><time>2026-03-31T12:03:02.154Z</time></trkpt><trkpt lat="41.0518133" lon="-0.1422"><ele>325.4</ele><time>2026-03-31T12:03:04.153Z</time></trkpt><trkpt lat="41.0518383" lon="-0.1420217"><ele>324.8</ele><time>2026-03-31T12:03:06.154Z</time></trkpt><trkpt lat="41.0518517" lon="-0.1419217"><ele>324.2</ele><time>2026-03-31T12:03:07.153Z</time></trkpt><trkpt lat="41.0518733" lon="-0.141805"><ele>323.59999999999997</ele><time>2026-03-31T12:03:08.153Z</time></trkpt><trkpt lat="41.0518867" lon="-0.1416933"><ele>323.0</ele><time>2026-03-31T12:03:09.153Z</time></trkpt><trkpt lat="41.0519017" lon="-0.1415783"><ele>322.33333333333337</ele><time>2026-03-31T12:03:10.154Z</time></trkpt><trkpt lat="41.0519167" lon="-0.141465"><ele>321.6666666666667</ele><time>2026-03-31T12:03:11.153Z</time></trkpt><trkpt lat="41.05192" lon="-0.1413633"><ele>321.0</ele><time>2026-03-31T12:03:12.153Z</time></trkpt><trkpt lat="41.0519267" lon="-0.1412667"><ele>320.3333333333333</ele><time>2026-03-31T12:03:13.154Z</time></trkpt><trkpt lat="41.05193" lon="-0.1411833"><ele>319.66666666666663</ele><time>2026-03-31T12:03:14.153Z</time></trkpt><trkpt lat="41.0519333" lon="-0.1410767"><ele>319.0</ele><time>2026-03-31T12:03:16.154Z</time></trkpt><trkpt lat="41.051935" lon="-0.1409617"><ele>319.0</ele><time>2026-03-31T12:03:18.154Z</time></trkpt><trkpt lat="41.05194" lon="-0.140825"><ele>319.0</ele><time>2026-03-31T12:03:20.154Z</time></trkpt><trkpt lat="41.0519467" lon="-0.1407417"><ele>319.0</ele><time>2026-03-31T12:03:21.154Z</time></trkpt><trkpt lat="41.0519533" lon="-0.1406517"><ele>319.0</ele><time>2026-03-31T12:03:22.153Z</time></trkpt><trkpt lat="41.0519617" lon="-0.14056"><ele>319.0</ele><time>2026-03-31T12:03:23.153Z</time></trkpt><trkpt lat="41.0519683" lon="-0.1404767"><ele>319.0</ele><time>2026-03-31T12:03:24.154Z</time></trkpt><trkpt lat="41.051975" lon="-0.14032"><ele>318.5</ele><time>2026-03-31T12:03:26.153Z</time></trkpt><trkpt lat="41.0519817" lon="-0.1401683"><ele>318.0</ele><time>2026-03-31T12:03:28.154Z</time></trkpt><trkpt lat="41.0519933" lon="-0.1400183"><ele>317.5</ele><time>2026-03-31T12:03:30.154Z</time></trkpt><trkpt lat="41.0519983" lon="-0.1398683"><ele>317.0</ele><time>2026-03-31T12:03:32.153Z</time></trkpt><trkpt lat="41.0520083" lon="-0.1396917"><ele>317.0</ele><time>2026-03-31T12:03:34.154Z</time></trkpt><trkpt lat="41.0520117" lon="-0.139585"><ele>317.0</ele><time>2026-03-31T12:03:35.153Z</time></trkpt><trkpt lat="41.0520183" lon="-0.13948"><ele>317.0</ele><time>2026-03-31T12:03:36.154Z</time></trkpt><trkpt lat="41.0520267" lon="-0.1393667"><ele>317.0</ele><time>2026-03-31T12:03:37.153Z</time></trkpt><trkpt lat="41.052035" lon="-0.13925"><ele>317.0</ele><time>2026-03-31T12:03:38.153Z</time></trkpt><trkpt lat="41.0520383" lon="-0.1391267"><ele>317.0</ele><time>2026-03-31T12:03:39.154Z</time></trkpt><trkpt lat="41.0520483" lon="-0.1390167"><ele>316.1666666666667</ele><time>2026-03-31T12:03:40.153Z</time></trkpt><trkpt lat="41.0520483" lon="-0.1389"><ele>315.33333333333337</ele><time>2026-03-31T12:03:41.153Z</time></trkpt><trkpt lat="41.05206" lon="-0.138785"><ele>314.5</ele><time>2026-03-31T12:03:42.153Z</time></trkpt><trkpt lat="41.0520717" lon="-0.1386783"><ele>313.6666666666667</ele><time>2026-03-31T12:03:43.154Z</time></trkpt><trkpt lat="41.0520767" lon="-0.138575"><ele>312.8333333333333</ele><time>2026-03-31T12:03:44.154Z</time></trkpt><trkpt lat="41.0520767" lon="-0.1384633"><ele>312.0</ele><time>2026-03-31T12:03:45.153Z</time></trkpt><trkpt lat="41.0520783" lon="-0.1383583"><ele>312.0</ele><time>2026-03-31T12:03:46.154Z</time></trkpt><trkpt lat="41.0520717" lon="-0.138245"><ele>312.0</ele><time>2026-03-31T12:03:47.154Z</time></trkpt><trkpt lat="41.0520667" lon="-0.1381383"><ele>312.0</ele><time>2026-03-31T12:03:48.153Z</time></trkpt><trkpt lat="41.0520567" lon="-0.1380383"><ele>312.0</ele><time>2026-03-31T12:03:49.154Z</time></trkpt><trkpt lat="41.05205" lon="-0.1379533"><ele>312.0</ele><time>2026-03-31T12:03:50.153Z</time></trkpt><trkpt lat="41.052035" lon="-0.1378333"><ele>312.0</ele><time>2026-03-31T12:03:52.153Z</time></trkpt><trkpt lat="41.0519967" lon="-0.1377233"><ele>311.4</ele><time>2026-03-31T12:03:54.154Z</time></trkpt><trkpt lat="41.05197" lon="-0.1376"><ele>310.79999999999995</ele><time>2026-03-31T12:03:56.153Z</time></trkpt><trkpt lat="41.0520167" lon="-0.1375133"><ele>310.2</ele><time>2026-03-31T12:03:58.154Z</time></trkpt><trkpt lat="41.05213" lon="-0.1374717"><ele>309.59999999999997</ele><time>2026-03-31T12:04:00.153Z</time></trkpt><trkpt lat="41.0522133" lon="-0.137465"><ele>309.0</ele><time>2026-03-31T12:04:01.153Z</time></trkpt><trkpt lat="41.0523083" lon="-0.13745"><ele>309.0</ele><time>2026-03-31T12:04:02.153Z</time></trkpt><trkpt lat="41.052425" lon="-0.1374433"><ele>309.0</ele><time>2026-03-31T12:04:03.153Z</time></trkpt><trkpt lat="41.0525383" lon="-0.1374517"><ele>309.0</ele><time>2026-03-31T12:04:04.154Z</time></trkpt><trkpt lat="41.0526467" lon="-0.1374417"><ele>309.0</ele><time>2026-03-31T12:04:05.153Z</time></trkpt><trkpt lat="41.0527383" lon="-0.1374267"><ele>309.0</ele><time>2026-03-31T12:04:06.153Z</time></trkpt><trkpt lat="41.05282" lon="-0.1373983"><ele>307.59999999999997</ele><time>2026-03-31T12:04:07.153Z</time></trkpt><trkpt lat="41.05291" lon="-0.1373567"><ele>306.2</ele><time>2026-03-31T12:04:08.153Z</time></trkpt><trkpt lat="41.052995" lon="-0.137295"><ele>304.79999999999995</ele><time>2026-03-31T12:04:09.154Z</time></trkpt><trkpt lat="41.053075" lon="-0.1372083"><ele>303.4</ele><time>2026-03-31T12:04:10.153Z</time></trkpt><trkpt lat="41.0531583" lon="-0.1371267"><ele>302.0</ele><time>2026-03-31T12:04:11.153Z</time></trkpt><trkpt lat="41.0532417" lon="-0.137045"><ele>302.2</ele><time>2026-03-31T12:04:12.153Z</time></trkpt><trkpt lat="41.0533217" lon="-0.136975"><ele>302.4</ele><time>2026-03-31T12:04:13.153Z</time></trkpt><trkpt lat="41.0533867" lon="-0.136915"><ele>302.6</ele><time>2026-03-31T12:04:14.154Z</time></trkpt><trkpt lat="41.0534417" lon="-0.1368533"><ele>302.8</ele><time>2026-03-31T12:04:15.153Z</time></trkpt><trkpt lat="41.05351" lon="-0.1367567"><ele>303.0</ele><time>2026-03-31T12:04:16.153Z</time></trkpt><trkpt lat="41.0535783" lon="-0.1366417"><ele>302.6</ele><time>2026-03-31T12:04:17.153Z</time></trkpt><trkpt lat="41.05363" lon="-0.1365167"><ele>302.20000000000005</ele><time>2026-03-31T12:04:18.154Z</time></trkpt><trkpt lat="41.053685" lon="-0.1363933"><ele>301.8</ele><time>2026-03-31T12:04:19.153Z</time></trkpt><trkpt lat="41.0537483" lon="-0.13627"><ele>301.40000000000003</ele><time>2026-03-31T12:04:20.153Z</time></trkpt><trkpt lat="41.0538117" lon="-0.1361483"><ele>301.0</ele><time>2026-03-31T12:04:21.153Z</time></trkpt><trkpt lat="41.053885" lon="-0.1360333"><ele>301.0</ele><time>2026-03-31T12:04:22.154Z</time></trkpt><trkpt lat="41.0539467" lon="-0.1359167"><ele>301.0</ele><time>2026-03-31T12:04:23.153Z</time></trkpt><trkpt lat="41.0540033" lon="-0.1358067"><ele>301.0</ele><time>2026-03-31T12:04:24.153Z</time></trkpt><trkpt lat="41.054075" lon="-0.1356983"><ele>301.0</ele><time>2026-03-31T12:04:25.153Z</time></trkpt><trkpt lat="41.0541533" lon="-0.1356017"><ele>301.0</ele><time>2026-03-31T12:04:26.154Z</time></trkpt><trkpt lat="41.0542333" lon="-0.1355"><ele>301.0</ele><time>2026-03-31T12:04:27.153Z</time></trkpt><trkpt lat="41.0543067" lon="-0.1354117"><ele>301.0</ele><time>2026-03-31T12:04:28.154Z</time></trkpt><trkpt lat="41.0543783" lon="-0.1353167"><ele>301.0</ele><time>2026-03-31T12:04:29.154Z</time></trkpt><trkpt lat="41.0544533" lon="-0.1352183"><ele>301.0</ele><time>2026-03-31T12:04:30.153Z</time></trkpt><trkpt lat="41.0545217" lon="-0.1351233"><ele>301.0</ele><time>2026-03-31T12:04:31.154Z</time></trkpt><trkpt lat="41.0545817" lon="-0.1350167"><ele>301.0</ele><time>2026-03-31T12:04:32.153Z</time></trkpt><trkpt lat="41.05463" lon="-0.1348983"><ele>301.0</ele><time>2026-03-31T12:04:33.153Z</time></trkpt><trkpt lat="41.0546683" lon="-0.134765"><ele>301.0</ele><time>2026-03-31T12:04:34.153Z</time></trkpt><trkpt lat="41.05469" lon="-0.1346267"><ele>301.0</ele><time>2026-03-31T12:04:35.153Z</time></trkpt><trkpt lat="41.05471" lon="-0.1345033"><ele>301.0</ele><time>2026-03-31T12:04:36.154Z</time></trkpt><trkpt lat="41.0547433" lon="-0.1343833"><ele>301.16666666666663</ele><time>2026-03-31T12:04:37.153Z</time></trkpt><trkpt lat="41.0547667" lon="-0.1342817"><ele>301.3333333333333</ele><time>2026-03-31T12:04:38.153Z</time></trkpt><trkpt lat="41.0547867" lon="-0.1341883"><ele>301.5</ele><time>2026-03-31T12:04:39.153Z</time></trkpt><trkpt lat="41.0548017" lon="-0.1340917"><ele>301.6666666666667</ele><time>2026-03-31T12:04:40.154Z</time></trkpt><trkpt lat="41.0548183" lon="-0.13399"><ele>301.83333333333337</ele><time>2026-03-31T12:04:41.154Z</time></trkpt><trkpt lat="41.0548467" lon="-0.1338683"><ele>302.0</ele><time>2026-03-31T12:04:42.153Z</time></trkpt><trkpt lat="41.05488" lon="-0.133745"><ele>301.6</ele><time>2026-03-31T12:04:43.154Z</time></trkpt><trkpt lat="41.054915" lon="-0.1336233"><ele>301.2</ele><time>2026-03-31T12:04:44.153Z</time></trkpt><trkpt lat="41.05494" lon="-0.1335"><ele>300.8</ele><time>2026-03-31T12:04:45.154Z</time></trkpt><trkpt lat="41.0549667" lon="-0.1333767"><ele>300.4</ele><time>2026-03-31T12:04:46.153Z</time></trkpt><trkpt lat="41.0549967" lon="-0.1332467"><ele>300.0</ele><time>2026-03-31T12:04:47.154Z</time></trkpt><trkpt lat="41.0550233" lon="-0.1331183"><ele>299.6666666666667</ele><time>2026-03-31T12:04:48.153Z</time></trkpt><trkpt lat="41.0550433" lon="-0.132995"><ele>299.3333333333333</ele><time>2026-03-31T12:04:49.153Z</time></trkpt><trkpt lat="41.0550617" lon="-0.1328733"><ele>299.0</ele><time>2026-03-31T12:04:50.153Z</time></trkpt><trkpt lat="41.0550767" lon="-0.1327533"><ele>298.66666666666663</ele><time>2026-03-31T12:04:51.153Z</time></trkpt><trkpt lat="41.0550917" lon="-0.13265"><ele>298.3333333333333</ele><time>2026-03-31T12:04:52.153Z</time></trkpt><trkpt lat="41.0551" lon="-0.1325583"><ele>298.0</ele><time>2026-03-31T12:04:53.153Z</time></trkpt><trkpt lat="41.0551033" lon="-0.132465"><ele>298.16666666666663</ele><time>2026-03-31T12:04:54.154Z</time></trkpt><trkpt lat="41.0551117" lon="-0.1323533"><ele>298.3333333333333</ele><time>2026-03-31T12:04:55.154Z</time></trkpt><trkpt lat="41.0551217" lon="-0.1322417"><ele>298.5</ele><time>2026-03-31T12:04:56.153Z</time></trkpt><trkpt lat="41.055135" lon="-0.1321283"><ele>298.6666666666667</ele><time>2026-03-31T12:04:57.153Z</time></trkpt><trkpt lat="41.05515" lon="-0.1320217"><ele>298.83333333333337</ele><time>2026-03-31T12:04:58.153Z</time></trkpt><trkpt lat="41.05516" lon="-0.1319167"><ele>299.0</ele><time>2026-03-31T12:04:59.153Z</time></trkpt><trkpt lat="41.0551767" lon="-0.1318133"><ele>299.0</ele><time>2026-03-31T12:05:00.153Z</time></trkpt><trkpt lat="41.0551933" lon="-0.1317233"><ele>299.0</ele><time>2026-03-31T12:05:01.154Z</time></trkpt><trkpt lat="41.055215" lon="-0.1316317"><ele>299.0</ele><time>2026-03-31T12:05:02.154Z</time></trkpt><trkpt lat="41.0552367" lon="-0.13154"><ele>299.0</ele><time>2026-03-31T12:05:03.153Z</time></trkpt><trkpt lat="41.0552583" lon="-0.1314483"><ele>299.0</ele><time>2026-03-31T12:05:04.153Z</time></trkpt><trkpt lat="41.0552867" lon="-0.131365"><ele>299.0</ele><time>2026-03-31T12:05:05.154Z</time></trkpt><trkpt lat="41.0553017" lon="-0.13128"><ele>299.0</ele><time>2026-03-31T12:05:06.153Z</time></trkpt><trkpt lat="41.0553383" lon="-0.131125"><ele>299.1666666666667</ele><time>2026-03-31T12:05:08.154Z</time></trkpt><trkpt lat="41.05536" lon="-0.1310333"><ele>299.33333333333337</ele><time>2026-03-31T12:05:09.153Z</time></trkpt><trkpt lat="41.0553817" lon="-0.130945"><ele>299.5</ele><time>2026-03-31T12:05:10.153Z</time></trkpt><trkpt lat="41.05542" lon="-0.1308017"><ele>299.6666666666667</ele><time>2026-03-31T12:05:12.153Z</time></trkpt><trkpt lat="41.0554583" lon="-0.130655"><ele>299.8333333333333</ele><time>2026-03-31T12:05:14.153Z</time></trkpt><trkpt lat="41.05548" lon="-0.13057"><ele>300.0</ele><time>2026-03-31T12:05:15.153Z</time></trkpt><trkpt lat="41.0555033" lon="-0.13048"><ele>300.0</ele><time>2026-03-31T12:05:16.153Z</time></trkpt><trkpt lat="41.055525" lon="-0.1303883"><ele>300.0</ele><time>2026-03-31T12:05:17.154Z</time></trkpt><trkpt lat="41.0555483" lon="-0.130305"><ele>300.0</ele><time>2026-03-31T12:05:18.153Z</time></trkpt><trkpt lat="41.0555733" lon="-0.1302133"><ele>300.0</ele><time>2026-03-31T12:05:19.153Z</time></trkpt><trkpt lat="41.0555967" lon="-0.13011"><ele>300.0</ele><time>2026-03-31T12:05:20.153Z</time></trkpt><trkpt lat="41.0556217" lon="-0.1300067"><ele>300.0</ele><time>2026-03-31T12:05:21.153Z</time></trkpt><trkpt lat="41.0556433" lon="-0.1298983"><ele>299.5</ele><time>2026-03-31T12:05:22.153Z</time></trkpt><trkpt lat="41.055665" lon="-0.1297883"><ele>299.0</ele><time>2026-03-31T12:05:23.154Z</time></trkpt><trkpt lat="41.0556867" lon="-0.1296767"><ele>298.5</ele><time>2026-03-31T12:05:24.153Z</time></trkpt><trkpt lat="41.0557117" lon="-0.1295717"><ele>298.0</ele><time>2026-03-31T12:05:25.153Z</time></trkpt><trkpt lat="41.05574" lon="-0.12948"><ele>297.5</ele><time>2026-03-31T12:05:26.153Z</time></trkpt><trkpt lat="41.0557667" lon="-0.1294033"><ele>297.0</ele><time>2026-03-31T12:05:27.153Z</time></trkpt><trkpt lat="41.0558033" lon="-0.129255"><ele>297.1666666666667</ele><time>2026-03-31T12:05:29.154Z</time></trkpt><trkpt lat="41.0558233" lon="-0.1290917"><ele>297.3333333333333</ele><time>2026-03-31T12:05:31.153Z</time></trkpt><trkpt lat="41.0558283" lon="-0.1289917"><ele>297.5</ele><time>2026-03-31T12:05:32.153Z</time></trkpt><trkpt lat="41.055815" lon="-0.1288917"><ele>297.66666666666663</ele><time>2026-03-31T12:05:33.154Z</time></trkpt><trkpt lat="41.0557983" lon="-0.1288067"><ele>297.8333333333333</ele><time>2026-03-31T12:05:34.153Z</time></trkpt><trkpt lat="41.05578" lon="-0.1287217"><ele>298.0</ele><time>2026-03-31T12:05:35.154Z</time></trkpt><trkpt lat="41.05575" lon="-0.1286217"><ele>298.0</ele><time>2026-03-31T12:05:36.153Z</time></trkpt><trkpt lat="41.0557133" lon="-0.12851"><ele>298.0</ele><time>2026-03-31T12:05:37.154Z</time></trkpt><trkpt lat="41.055675" lon="-0.12838"><ele>298.0</ele><time>2026-03-31T12:05:38.153Z</time></trkpt><trkpt lat="41.0556383" lon="-0.128255"><ele>298.0</ele><time>2026-03-31T12:05:39.153Z</time></trkpt><trkpt lat="41.055595" lon="-0.1281333"><ele>298.0</ele><time>2026-03-31T12:05:40.154Z</time></trkpt><trkpt lat="41.055555" lon="-0.128015"><ele>298.3333333333333</ele><time>2026-03-31T12:05:41.154Z</time></trkpt><trkpt lat="41.05552" lon="-0.1279033"><ele>298.66666666666663</ele><time>2026-03-31T12:05:42.153Z</time></trkpt><trkpt lat="41.0554917" lon="-0.1278033"><ele>299.0</ele><time>2026-03-31T12:05:43.154Z</time></trkpt><trkpt lat="41.05545" lon="-0.1277083"><ele>299.3333333333333</ele><time>2026-03-31T12:05:44.153Z</time></trkpt><trkpt lat="41.0554033" lon="-0.1276067"><ele>299.6666666666667</ele><time>2026-03-31T12:05:45.153Z</time></trkpt><trkpt lat="41.05535" lon="-0.1275117"><ele>300.0</ele><time>2026-03-31T12:05:46.154Z</time></trkpt><trkpt lat="41.0552983" lon="-0.1274067"><ele>301.4</ele><time>2026-03-31T12:05:47.154Z</time></trkpt><trkpt lat="41.0552417" lon="-0.1272883"><ele>302.8</ele><time>2026-03-31T12:05:48.154Z</time></trkpt><trkpt lat="41.0551817" lon="-0.1271683"><ele>304.2</ele><time>2026-03-31T12:05:49.153Z</time></trkpt><trkpt lat="41.0551267" lon="-0.1270583"><ele>305.6</ele><time>2026-03-31T12:05:50.154Z</time></trkpt><trkpt lat="41.0550783" lon="-0.126955"><ele>307.0</ele><time>2026-03-31T12:05:51.154Z</time></trkpt><trkpt lat="41.0550333" lon="-0.12686"><ele>307.0</ele><time>2026-03-31T12:05:52.154Z</time></trkpt><trkpt lat="41.0549883" lon="-0.1267833"><ele>307.0</ele><time>2026-03-31T12:05:53.153Z</time></trkpt><trkpt lat="41.0549433" lon="-0.126705"><ele>307.0</ele><time>2026-03-31T12:05:54.154Z</time></trkpt><trkpt lat="41.0548883" lon="-0.126625"><ele>307.0</ele><time>2026-03-31T12:05:55.154Z</time></trkpt><trkpt lat="41.054835" lon="-0.1265583"><ele>307.0</ele><time>2026-03-31T12:05:56.153Z</time></trkpt><trkpt lat="41.0547767" lon="-0.1264983"><ele>307.0</ele><time>2026-03-31T12:05:57.153Z</time></trkpt><trkpt lat="41.0547167" lon="-0.1264333"><ele>307.0</ele><time>2026-03-31T12:05:58.154Z</time></trkpt><trkpt lat="41.0546517" lon="-0.1263633"><ele>307.0</ele><time>2026-03-31T12:05:59.153Z</time></trkpt><trkpt lat="41.0545683" lon="-0.1263017"><ele>307.0</ele><time>2026-03-31T12:06:00.153Z</time></trkpt><trkpt lat="41.0544867" lon="-0.1262367"><ele>307.0</ele><time>2026-03-31T12:06:01.153Z</time></trkpt><trkpt lat="41.0544067" lon="-0.1261867"><ele>307.0</ele><time>2026-03-31T12:06:02.153Z</time></trkpt><trkpt lat="41.0543217" lon="-0.1261467"><ele>307.0</ele><time>2026-03-31T12:06:03.153Z</time></trkpt><trkpt lat="41.0542567" lon="-0.126105"><ele>307.0</ele><time>2026-03-31T12:06:04.153Z</time></trkpt><trkpt lat="41.0541717" lon="-0.1260467"><ele>307.0</ele><time>2026-03-31T12:06:06.153Z</time></trkpt><trkpt lat="41.0541033" lon="-0.1259917"><ele>307.0</ele><time>2026-03-31T12:06:09.153Z</time></trkpt><trkpt lat="41.0540317" lon="-0.1259267"><ele>307.0</ele><time>2026-03-31T12:06:13.154Z</time></trkpt><trkpt lat="41.0539483" lon="-0.125875"><ele>307.0</ele><time>2026-03-31T12:06:15.154Z</time></trkpt><trkpt lat="41.0538983" lon="-0.1258233"><ele>306.0</ele><time>2026-03-31T12:06:16.153Z</time></trkpt><trkpt lat="41.0538733" lon="-0.1257433"><ele>305.0</ele><time>2026-03-31T12:06:17.154Z</time></trkpt><trkpt lat="41.0538817" lon="-0.12566"><ele>304.0</ele><time>2026-03-31T12:06:18.153Z</time></trkpt><trkpt lat="41.0539117" lon="-0.1255717"><ele>303.0</ele><time>2026-03-31T12:06:19.154Z</time></trkpt><trkpt lat="41.05395" lon="-0.12546"><ele>302.0</ele><time>2026-03-31T12:06:20.154Z</time></trkpt><trkpt lat="41.0539883" lon="-0.1253233"><ele>301.0</ele><time>2026-03-31T12:06:21.153Z</time></trkpt><trkpt lat="41.0540267" lon="-0.1251783"><ele>301.0</ele><time>2026-03-31T12:06:22.153Z</time></trkpt><trkpt lat="41.0540617" lon="-0.1250317"><ele>301.0</ele><time>2026-03-31T12:06:23.153Z</time></trkpt><trkpt lat="41.0540917" lon="-0.1248767"><ele>301.0</ele><time>2026-03-31T12:06:24.153Z</time></trkpt><trkpt lat="41.0541267" lon="-0.124725"><ele>301.0</ele><time>2026-03-31T12:06:25.154Z</time></trkpt><trkpt lat="41.0541617" lon="-0.12457"><ele>302.8</ele><time>2026-03-31T12:06:26.154Z</time></trkpt><trkpt lat="41.0542017" lon="-0.124425"><ele>304.6</ele><time>2026-03-31T12:06:27.154Z</time></trkpt><trkpt lat="41.054245" lon="-0.12429"><ele>306.4</ele><time>2026-03-31T12:06:28.153Z</time></trkpt><trkpt lat="41.0542867" lon="-0.1241517"><ele>308.2</ele><time>2026-03-31T12:06:29.153Z</time></trkpt><trkpt lat="41.0543183" lon="-0.12402"><ele>310.0</ele><time>2026-03-31T12:06:30.153Z</time></trkpt><trkpt lat="41.05434" lon="-0.1238917"><ele>311.4</ele><time>2026-03-31T12:06:31.154Z</time></trkpt><trkpt lat="41.0543733" lon="-0.1237717"><ele>312.8</ele><time>2026-03-31T12:06:32.153Z</time></trkpt><trkpt lat="41.0544383" lon="-0.123675"><ele>314.2</ele><time>2026-03-31T12:06:33.153Z</time></trkpt><trkpt lat="41.05452" lon="-0.1236067"><ele>315.6</ele><time>2026-03-31T12:06:34.153Z</time></trkpt><trkpt lat="41.05462" lon="-0.123545"><ele>317.0</ele><time>2026-03-31T12:06:35.153Z</time></trkpt><trkpt lat="41.05471" lon="-0.123465"><ele>317.0</ele><time>2026-03-31T12:06:36.154Z</time></trkpt><trkpt lat="41.054795" lon="-0.12337"><ele>317.0</ele><time>2026-03-31T12:06:37.153Z</time></trkpt><trkpt lat="41.0548883" lon="-0.1232533"><ele>317.0</ele><time>2026-03-31T12:06:38.153Z</time></trkpt><trkpt lat="41.0549933" lon="-0.1231467"><ele>317.0</ele><time>2026-03-31T12:06:39.153Z</time></trkpt><trkpt lat="41.0551217" lon="-0.1230433"><ele>320.0</ele><time>2026-03-31T12:06:40.153Z</time></trkpt><trkpt lat="41.055255" lon="-0.12294"><ele>323.0</ele><time>2026-03-31T12:06:41.154Z</time></trkpt><trkpt lat="41.055395" lon="-0.1228533"><ele>326.0</ele><time>2026-03-31T12:06:42.153Z</time></trkpt><trkpt lat="41.055535" lon="-0.1227783"><ele>326.0</ele><time>2026-03-31T12:06:43.153Z</time></trkpt><trkpt lat="41.0556983" lon="-0.1226883"><ele>326.0</ele><time>2026-03-31T12:06:44.153Z</time></trkpt><trkpt lat="41.0558567" lon="-0.1225917"><ele>326.0</ele><time>2026-03-31T12:06:45.154Z</time></trkpt><trkpt lat="41.0560283" lon="-0.122485"><ele>329.33333333333337</ele><time>2026-03-31T12:06:46.153Z</time></trkpt><trkpt lat="41.056185" lon="-0.1223683"><ele>332.6666666666667</ele><time>2026-03-31T12:06:47.154Z</time></trkpt><trkpt lat="41.0563433" lon="-0.1222417"><ele>336.0</ele><time>2026-03-31T12:06:48.153Z</time></trkpt><trkpt lat="41.05651" lon="-0.1221"><ele>336.0</ele><time>2026-03-31T12:06:49.153Z</time></trkpt><trkpt lat="41.0566717" lon="-0.1219517"><ele>336.0</ele><time>2026-03-31T12:06:50.153Z</time></trkpt><trkpt lat="41.0568383" lon="-0.1217917"><ele>336.0</ele><time>2026-03-31T12:06:51.153Z</time></trkpt><trkpt lat="41.0569967" lon="-0.121635"><ele>337.0</ele><time>2026-03-31T12:06:52.153Z</time></trkpt><trkpt lat="41.057155" lon="-0.1214833"><ele>338.0</ele><time>2026-03-31T12:06:53.153Z</time></trkpt><trkpt lat="41.057305" lon="-0.1213267"><ele>339.0</ele><time>2026-03-31T12:06:54.154Z</time></trkpt><trkpt lat="41.057465" lon="-0.121175"><ele>340.0</ele><time>2026-03-31T12:06:55.153Z</time></trkpt><trkpt lat="41.05762" lon="-0.121035"><ele>341.0</ele><time>2026-03-31T12:06:56.154Z</time></trkpt><trkpt lat="41.05779" lon="-0.1209"><ele>342.0</ele><time>2026-03-31T12:06:57.153Z</time></trkpt><trkpt lat="41.057955" lon="-0.1207583"><ele>343.0</ele><time>2026-03-31T12:06:58.153Z</time></trkpt><trkpt lat="41.0581267" lon="-0.120625"><ele>344.0</ele><time>2026-03-31T12:06:59.154Z</time></trkpt><trkpt lat="41.0583033" lon="-0.120525"><ele>345.0</ele><time>2026-03-31T12:07:00.154Z</time></trkpt><trkpt lat="41.0584933" lon="-0.1204417"><ele>346.0</ele><time>2026-03-31T12:07:01.153Z</time></trkpt><trkpt lat="41.0586933" lon="-0.120375"><ele>347.0</ele><time>2026-03-31T12:07:02.153Z</time></trkpt><trkpt lat="41.0588967" lon="-0.12034"><ele>348.0</ele><time>2026-03-31T12:07:03.153Z</time></trkpt><trkpt lat="41.0591067" lon="-0.1203167"><ele>344.3333333333333</ele><time>2026-03-31T12:07:04.154Z</time></trkpt><trkpt lat="41.05932" lon="-0.1203"><ele>340.66666666666663</ele><time>2026-03-31T12:07:05.153Z</time></trkpt><trkpt lat="41.0595283" lon="-0.12028"><ele>337.0</ele><time>2026-03-31T12:07:06.153Z</time></trkpt><trkpt lat="41.05973" lon="-0.12026"><ele>337.0</ele><time>2026-03-31T12:07:07.153Z</time></trkpt><trkpt lat="41.059945" lon="-0.120235"><ele>337.0</ele><time>2026-03-31T12:07:08.154Z</time></trkpt><trkpt lat="41.0601633" lon="-0.120215"><ele>337.0</ele><time>2026-03-31T12:07:09.154Z</time></trkpt><trkpt lat="41.06038" lon="-0.1201983"><ele>334.0</ele><time>2026-03-31T12:07:10.154Z</time></trkpt><trkpt lat="41.060595" lon="-0.1201833"><ele>331.0</ele><time>2026-03-31T12:07:11.154Z</time></trkpt><trkpt lat="41.0608183" lon="-0.120165"><ele>328.0</ele><time>2026-03-31T12:07:12.154Z</time></trkpt><trkpt lat="41.0610317" lon="-0.1201417"><ele>327.66666666666663</ele><time>2026-03-31T12:07:13.154Z</time></trkpt><trkpt lat="41.0612483" lon="-0.12012"><ele>327.3333333333333</ele><time>2026-03-31T12:07:14.153Z</time></trkpt><trkpt lat="41.0614767" lon="-0.120105"><ele>327.0</ele><time>2026-03-31T12:07:15.153Z</time></trkpt><trkpt lat="41.0617" lon="-0.120085"><ele>328.5</ele><time>2026-03-31T12:07:16.153Z</time></trkpt><trkpt lat="41.061935" lon="-0.1200683"><ele>330.0</ele><time>2026-03-31T12:07:17.154Z</time></trkpt><trkpt lat="41.062165" lon="-0.120045"><ele>330.0</ele><time>2026-03-31T12:07:18.153Z</time></trkpt><trkpt lat="41.0623933" lon="-0.1200183"><ele>330.0</ele><time>2026-03-31T12:07:19.153Z</time></trkpt><trkpt lat="41.062635" lon="-0.1199967"><ele>328.5</ele><time>2026-03-31T12:07:20.154Z</time></trkpt><trkpt lat="41.0628717" lon="-0.1199667"><ele>327.0</ele><time>2026-03-31T12:07:21.154Z</time></trkpt><trkpt lat="41.06311" lon="-0.119945"><ele>324.0</ele><time>2026-03-31T12:07:22.153Z</time></trkpt><trkpt lat="41.0633433" lon="-0.11991"><ele>321.0</ele><time>2026-03-31T12:07:23.153Z</time></trkpt><trkpt lat="41.063585" lon="-0.1198917"><ele>319.0</ele><time>2026-03-31T12:07:24.153Z</time></trkpt><trkpt lat="41.0638183" lon="-0.1198733"><ele>317.0</ele><time>2026-03-31T12:07:25.153Z</time></trkpt><trkpt lat="41.0640517" lon="-0.11985"><ele>315.5</ele><time>2026-03-31T12:07:26.153Z</time></trkpt><trkpt lat="41.064295" lon="-0.1198133"><ele>314.0</ele><time>2026-03-31T12:07:27.154Z</time></trkpt><trkpt lat="41.0645283" lon="-0.1197867"><ele>314.0</ele><time>2026-03-31T12:07:28.153Z</time></trkpt><trkpt lat="41.0647617" lon="-0.1197683"><ele>314.0</ele><time>2026-03-31T12:07:29.154Z</time></trkpt><trkpt lat="41.0649917" lon="-0.1197633"><ele>312.6666666666667</ele><time>2026-03-31T12:07:30.154Z</time></trkpt><trkpt lat="41.0652067" lon="-0.119785"><ele>311.3333333333333</ele><time>2026-03-31T12:07:31.153Z</time></trkpt><trkpt lat="41.0654233" lon="-0.1198317"><ele>310.0</ele><time>2026-03-31T12:07:32.153Z</time></trkpt><trkpt lat="41.0656267" lon="-0.119895"><ele>311.0</ele><time>2026-03-31T12:07:33.153Z</time></trkpt><trkpt lat="41.06583" lon="-0.11998"><ele>312.0</ele><time>2026-03-31T12:07:34.154Z</time></trkpt><trkpt lat="41.0660167" lon="-0.1200983"><ele>313.0</ele><time>2026-03-31T12:07:35.154Z</time></trkpt><trkpt lat="41.0661883" lon="-0.12023"><ele>313.0</ele><time>2026-03-31T12:07:36.153Z</time></trkpt><trkpt lat="41.0663533" lon="-0.1203867"><ele>313.0</ele><time>2026-03-31T12:07:37.153Z</time></trkpt><trkpt lat="41.0665133" lon="-0.1205617"><ele>313.0</ele><time>2026-03-31T12:07:38.154Z</time></trkpt><trkpt lat="41.0666617" lon="-0.120765"><ele>314.3333333333333</ele><time>2026-03-31T12:07:39.154Z</time></trkpt><trkpt lat="41.066795" lon="-0.1209933"><ele>315.6666666666667</ele><time>2026-03-31T12:07:40.153Z</time></trkpt><trkpt lat="41.0669083" lon="-0.12124"><ele>317.0</ele><time>2026-03-31T12:07:41.153Z</time></trkpt><trkpt lat="41.0670217" lon="-0.1214983"><ele>315.5</ele><time>2026-03-31T12:07:42.153Z</time></trkpt><trkpt lat="41.06713" lon="-0.1217617"><ele>314.0</ele><time>2026-03-31T12:07:43.153Z</time></trkpt><trkpt lat="41.0672433" lon="-0.1220283"><ele>314.0</ele><time>2026-03-31T12:07:44.154Z</time></trkpt><trkpt lat="41.0673567" lon="-0.1222917"><ele>314.0</ele><time>2026-03-31T12:07:45.153Z</time></trkpt><trkpt lat="41.06748" lon="-0.1225517"><ele>318.0</ele><time>2026-03-31T12:07:46.153Z</time></trkpt><trkpt lat="41.0676183" lon="-0.122795"><ele>322.0</ele><time>2026-03-31T12:07:47.154Z</time></trkpt><trkpt lat="41.0677767" lon="-0.12302"><ele>322.0</ele><time>2026-03-31T12:07:48.154Z</time></trkpt><trkpt lat="41.0679467" lon="-0.1232233"><ele>322.0</ele><time>2026-03-31T12:07:49.153Z</time></trkpt><trkpt lat="41.0681333" lon="-0.1234133"><ele>323.5</ele><time>2026-03-31T12:07:50.153Z</time></trkpt><trkpt lat="41.06833" lon="-0.123585"><ele>325.0</ele><time>2026-03-31T12:07:51.154Z</time></trkpt><trkpt lat="41.0685317" lon="-0.1237517"><ele>325.0</ele><time>2026-03-31T12:07:52.153Z</time></trkpt><trkpt lat="41.0687383" lon="-0.123905"><ele>325.0</ele><time>2026-03-31T12:07:53.154Z</time></trkpt><trkpt lat="41.0689383" lon="-0.124075"><ele>327.5</ele><time>2026-03-31T12:07:54.154Z</time></trkpt><trkpt lat="41.0691367" lon="-0.1242283"><ele>330.0</ele><time>2026-03-31T12:07:55.153Z</time></trkpt><trkpt lat="41.06934" lon="-0.1243983"><ele>330.0</ele><time>2026-03-31T12:07:56.153Z</time></trkpt><trkpt lat="41.0695433" lon="-0.1245633"><ele>330.0</ele><time>2026-03-31T12:07:57.153Z</time></trkpt><trkpt lat="41.0697433" lon="-0.1247333"><ele>331.5</ele><time>2026-03-31T12:07:58.154Z</time></trkpt><trkpt lat="41.0699433" lon="-0.1249"><ele>333.0</ele><time>2026-03-31T12:07:59.153Z</time></trkpt><trkpt lat="41.0701517" lon="-0.1250633"><ele>333.0</ele><time>2026-03-31T12:08:00.153Z</time></trkpt><trkpt lat="41.0703533" lon="-0.1252317"><ele>333.0</ele><time>2026-03-31T12:08:01.153Z</time></trkpt><trkpt lat="41.0705533" lon="-0.1253933"><ele>333.0</ele><time>2026-03-31T12:08:02.154Z</time></trkpt><trkpt lat="41.0707533" lon="-0.1255533"><ele>333.0</ele><time>2026-03-31T12:08:03.153Z</time></trkpt><trkpt lat="41.0709433" lon="-0.125715"><ele>333.3333333333333</ele><time>2026-03-31T12:08:04.154Z</time></trkpt><trkpt lat="41.07113" lon="-0.1258833"><ele>333.66666666666663</ele><time>2026-03-31T12:08:05.154Z</time></trkpt><trkpt lat="41.0713133" lon="-0.1260383"><ele>334.0</ele><time>2026-03-31T12:08:06.154Z</time></trkpt><trkpt lat="41.0715017" lon="-0.1261917"><ele>335.3333333333333</ele><time>2026-03-31T12:08:07.154Z</time></trkpt><trkpt lat="41.0716883" lon="-0.1263483"><ele>336.6666666666667</ele><time>2026-03-31T12:08:08.153Z</time></trkpt><trkpt lat="41.071865" lon="-0.1265067"><ele>338.0</ele><time>2026-03-31T12:08:09.154Z</time></trkpt><trkpt lat="41.0720417" lon="-0.12669"><ele>338.0</ele><time>2026-03-31T12:08:10.153Z</time></trkpt><trkpt lat="41.0722" lon="-0.1268983"><ele>338.0</ele><time>2026-03-31T12:08:11.153Z</time></trkpt><trkpt lat="41.0723383" lon="-0.1271183"><ele>338.0</ele><time>2026-03-31T12:08:12.153Z</time></trkpt><trkpt lat="41.0724617" lon="-0.1273583"><ele>340.0</ele><time>2026-03-31T12:08:13.153Z</time></trkpt><trkpt lat="41.0725533" lon="-0.1276267"><ele>342.0</ele><time>2026-03-31T12:08:14.153Z</time></trkpt><trkpt lat="41.072635" lon="-0.1278917"><ele>344.0</ele><time>2026-03-31T12:08:15.152Z</time></trkpt><trkpt lat="41.0727083" lon="-0.12817"><ele>343.5</ele><time>2026-03-31T12:08:16.153Z</time></trkpt><trkpt lat="41.0727817" lon="-0.12845"><ele>343.0</ele><time>2026-03-31T12:08:17.152Z</time></trkpt><trkpt lat="41.0728617" lon="-0.1287433"><ele>343.0</ele><time>2026-03-31T12:08:18.153Z</time></trkpt><trkpt lat="41.072945" lon="-0.1290217"><ele>343.0</ele><time>2026-03-31T12:08:19.152Z</time></trkpt><trkpt lat="41.07304" lon="-0.129305"><ele>342.5</ele><time>2026-03-31T12:08:20.153Z</time></trkpt><trkpt lat="41.07315" lon="-0.1295667"><ele>342.0</ele><time>2026-03-31T12:08:21.152Z</time></trkpt><trkpt lat="41.0732817" lon="-0.12982"><ele>344.5</ele><time>2026-03-31T12:08:22.153Z</time></trkpt><trkpt lat="41.07343" lon="-0.1300633"><ele>347.0</ele><time>2026-03-31T12:08:23.152Z</time></trkpt><trkpt lat="41.07359" lon="-0.1302817"><ele>347.0</ele><time>2026-03-31T12:08:24.152Z</time></trkpt><trkpt lat="41.07377" lon="-0.1304817"><ele>347.0</ele><time>2026-03-31T12:08:25.152Z</time></trkpt><trkpt lat="41.07396" lon="-0.1306533"><ele>348.0</ele><time>2026-03-31T12:08:26.152Z</time></trkpt><trkpt lat="41.0741667" lon="-0.1308"><ele>349.0</ele><time>2026-03-31T12:08:27.153Z</time></trkpt><trkpt lat="41.0743783" lon="-0.13093"><ele>349.0</ele><time>2026-03-31T12:08:28.152Z</time></trkpt><trkpt lat="41.0745967" lon="-0.1310467"><ele>349.0</ele><time>2026-03-31T12:08:29.153Z</time></trkpt><trkpt lat="41.07481" lon="-0.13116"><ele>352.0</ele><time>2026-03-31T12:08:30.152Z</time></trkpt><trkpt lat="41.0750217" lon="-0.13128"><ele>355.0</ele><time>2026-03-31T12:08:31.153Z</time></trkpt><trkpt lat="41.075235" lon="-0.1314017"><ele>355.0</ele><time>2026-03-31T12:08:32.153Z</time></trkpt><trkpt lat="41.0754467" lon="-0.1315167"><ele>355.0</ele><time>2026-03-31T12:08:33.152Z</time></trkpt><trkpt lat="41.0756617" lon="-0.1316283"><ele>351.5</ele><time>2026-03-31T12:08:34.152Z</time></trkpt><trkpt lat="41.07588" lon="-0.1317283"><ele>348.0</ele><time>2026-03-31T12:08:35.152Z</time></trkpt><trkpt lat="41.0761083" lon="-0.1318017"><ele>348.0</ele><time>2026-03-31T12:08:36.153Z</time></trkpt><trkpt lat="41.0763433" lon="-0.1318433"><ele>348.0</ele><time>2026-03-31T12:08:37.152Z</time></trkpt><trkpt lat="41.0765767" lon="-0.13186"><ele>348.0</ele><time>2026-03-31T12:08:38.153Z</time></trkpt><trkpt lat="41.07681" lon="-0.131865"><ele>348.0</ele><time>2026-03-31T12:08:39.152Z</time></trkpt><trkpt lat="41.07705" lon="-0.1318617"><ele>348.0</ele><time>2026-03-31T12:08:40.152Z</time></trkpt><trkpt lat="41.0772833" lon="-0.13185"><ele>348.0</ele><time>2026-03-31T12:08:41.152Z</time></trkpt><trkpt lat="41.0775217" lon="-0.131845"><ele>350.0</ele><time>2026-03-31T12:08:42.152Z</time></trkpt><trkpt lat="41.0777533" lon="-0.1318417"><ele>352.0</ele><time>2026-03-31T12:08:43.152Z</time></trkpt><trkpt lat="41.0779867" lon="-0.1318483"><ele>352.0</ele><time>2026-03-31T12:08:44.153Z</time></trkpt><trkpt lat="41.0782217" lon="-0.1318517"><ele>352.0</ele><time>2026-03-31T12:08:45.153Z</time></trkpt><trkpt lat="41.07845" lon="-0.1318533"><ele>351.5</ele><time>2026-03-31T12:08:46.152Z</time></trkpt><trkpt lat="41.07868" lon="-0.131855"><ele>351.0</ele><time>2026-03-31T12:08:47.152Z</time></trkpt><trkpt lat="41.0789083" lon="-0.131845"><ele>353.6666666666667</ele><time>2026-03-31T12:08:48.152Z</time></trkpt><trkpt lat="41.0791283" lon="-0.1318317"><ele>356.33333333333337</ele><time>2026-03-31T12:08:49.153Z</time></trkpt><trkpt lat="41.0793517" lon="-0.131795"><ele>359.0</ele><time>2026-03-31T12:08:50.152Z</time></trkpt><trkpt lat="41.07957" lon="-0.1317367"><ele>359.0</ele><time>2026-03-31T12:08:51.153Z</time></trkpt><trkpt lat="41.07979" lon="-0.13167"><ele>359.0</ele><time>2026-03-31T12:08:52.152Z</time></trkpt><trkpt lat="41.0800133" lon="-0.1315733"><ele>364.0</ele><time>2026-03-31T12:08:53.152Z</time></trkpt><trkpt lat="41.0802383" lon="-0.1314633"><ele>369.0</ele><time>2026-03-31T12:08:54.152Z</time></trkpt><trkpt lat="41.0804617" lon="-0.1313533"><ele>369.0</ele><time>2026-03-31T12:08:55.153Z</time></trkpt><trkpt lat="41.080685" lon="-0.13126"><ele>369.0</ele><time>2026-03-31T12:08:56.152Z</time></trkpt><trkpt lat="41.08092" lon="-0.1311733"><ele>364.5</ele><time>2026-03-31T12:08:57.152Z</time></trkpt><trkpt lat="41.0811633" lon="-0.131095"><ele>360.0</ele><time>2026-03-31T12:08:58.153Z</time></trkpt><trkpt lat="41.0814133" lon="-0.1310467"><ele>361.0</ele><time>2026-03-31T12:08:59.153Z</time></trkpt><trkpt lat="41.0816483" lon="-0.1310183"><ele>362.0</ele><time>2026-03-31T12:09:00.153Z</time></trkpt><trkpt lat="41.0818867" lon="-0.1310117"><ele>362.0</ele><time>2026-03-31T12:09:01.153Z</time></trkpt><trkpt lat="41.0821333" lon="-0.13103"><ele>362.0</ele><time>2026-03-31T12:09:02.153Z</time></trkpt><trkpt lat="41.0823767" lon="-0.1310683"><ele>363.0</ele><time>2026-03-31T12:09:03.152Z</time></trkpt><trkpt lat="41.08261" lon="-0.131125"><ele>364.0</ele><time>2026-03-31T12:09:04.153Z</time></trkpt><trkpt lat="41.0828367" lon="-0.1311933"><ele>364.0</ele><time>2026-03-31T12:09:05.153Z</time></trkpt><trkpt lat="41.08306" lon="-0.1312933"><ele>364.0</ele><time>2026-03-31T12:09:06.152Z</time></trkpt><trkpt lat="41.08328" lon="-0.131405"><ele>363.5</ele><time>2026-03-31T12:09:07.153Z</time></trkpt><trkpt lat="41.0834833" lon="-0.1315417"><ele>363.0</ele><time>2026-03-31T12:09:08.152Z</time></trkpt><trkpt lat="41.0836817" lon="-0.1316883"><ele>363.0</ele><time>2026-03-31T12:09:09.153Z</time></trkpt><trkpt lat="41.0838817" lon="-0.1318317"><ele>363.0</ele><time>2026-03-31T12:09:10.153Z</time></trkpt><trkpt lat="41.0840833" lon="-0.1319783"><ele>364.3333333333333</ele><time>2026-03-31T12:09:11.152Z</time></trkpt><trkpt lat="41.0842833" lon="-0.1321083"><ele>365.66666666666663</ele><time>2026-03-31T12:09:12.153Z</time></trkpt><trkpt lat="41.0844733" lon="-0.1322433"><ele>367.0</ele><time>2026-03-31T12:09:13.152Z</time></trkpt><trkpt lat="41.08465" lon="-0.132395"><ele>367.0</ele><time>2026-03-31T12:09:14.152Z</time></trkpt><trkpt lat="41.08482" lon="-0.13256"><ele>367.0</ele><time>2026-03-31T12:09:15.152Z</time></trkpt><trkpt lat="41.0849817" lon="-0.1327433"><ele>367.0</ele><time>2026-03-31T12:09:16.152Z</time></trkpt><trkpt lat="41.085135" lon="-0.1329333"><ele>368.0</ele><time>2026-03-31T12:09:17.152Z</time></trkpt><trkpt lat="41.0852917" lon="-0.13313"><ele>369.0</ele><time>2026-03-31T12:09:18.153Z</time></trkpt><trkpt lat="41.0854433" lon="-0.1333317"><ele>370.0</ele><time>2026-03-31T12:09:19.152Z</time></trkpt><trkpt lat="41.0855967" lon="-0.13354"><ele>370.0</ele><time>2026-03-31T12:09:20.152Z</time></trkpt><trkpt lat="41.0857467" lon="-0.13374"><ele>370.0</ele><time>2026-03-31T12:09:21.153Z</time></trkpt><trkpt lat="41.0859" lon="-0.1339383"><ele>370.0</ele><time>2026-03-31T12:09:22.152Z</time></trkpt><trkpt lat="41.0860567" lon="-0.13414"><ele>371.0</ele><time>2026-03-31T12:09:23.153Z</time></trkpt><trkpt lat="41.0862167" lon="-0.1343433"><ele>372.0</ele><time>2026-03-31T12:09:24.152Z</time></trkpt><trkpt lat="41.0863783" lon="-0.134535"><ele>373.0</ele><time>2026-03-31T12:09:25.153Z</time></trkpt><trkpt lat="41.08655" lon="-0.1347167"><ele>374.3333333333333</ele><time>2026-03-31T12:09:26.153Z</time></trkpt><trkpt lat="41.0867283" lon="-0.1348917"><ele>375.6666666666667</ele><time>2026-03-31T12:09:27.153Z</time></trkpt><trkpt lat="41.08691" lon="-0.13506"><ele>377.0</ele><time>2026-03-31T12:09:28.153Z</time></trkpt><trkpt lat="41.0870917" lon="-0.1352133"><ele>377.0</ele><time>2026-03-31T12:09:29.153Z</time></trkpt><trkpt lat="41.0872767" lon="-0.1353617"><ele>377.0</ele><time>2026-03-31T12:09:30.153Z</time></trkpt><trkpt lat="41.0874633" lon="-0.135505"><ele>377.0</ele><time>2026-03-31T12:09:31.153Z</time></trkpt><trkpt lat="41.0876483" lon="-0.13564"><ele>379.0</ele><time>2026-03-31T12:09:32.152Z</time></trkpt><trkpt lat="41.08783" lon="-0.135785"><ele>381.0</ele><time>2026-03-31T12:09:33.152Z</time></trkpt><trkpt lat="41.08801" lon="-0.1359383"><ele>383.0</ele><time>2026-03-31T12:09:34.152Z</time></trkpt><trkpt lat="41.08819" lon="-0.1360833"><ele>384.33333333333337</ele><time>2026-03-31T12:09:35.153Z</time></trkpt><trkpt lat="41.088365" lon="-0.136225"><ele>385.6666666666667</ele><time>2026-03-31T12:09:36.153Z</time></trkpt><trkpt lat="41.0885517" lon="-0.136365"><ele>387.0</ele><time>2026-03-31T12:09:37.152Z</time></trkpt><trkpt lat="41.0887283" lon="-0.1364967"><ele>388.33333333333337</ele><time>2026-03-31T12:09:38.152Z</time></trkpt><trkpt lat="41.0889067" lon="-0.1366167"><ele>389.6666666666667</ele><time>2026-03-31T12:09:39.152Z</time></trkpt><trkpt lat="41.08909" lon="-0.1367317"><ele>391.0</ele><time>2026-03-31T12:09:40.152Z</time></trkpt><trkpt lat="41.0892833" lon="-0.1368233"><ele>391.6666666666667</ele><time>2026-03-31T12:09:41.153Z</time></trkpt><trkpt lat="41.0894617" lon="-0.13689"><ele>392.33333333333337</ele><time>2026-03-31T12:09:42.152Z</time></trkpt><trkpt lat="41.08964" lon="-0.136945"><ele>393.0</ele><time>2026-03-31T12:09:43.153Z</time></trkpt><trkpt lat="41.0898" lon="-0.136995"><ele>394.0</ele><time>2026-03-31T12:09:44.153Z</time></trkpt><trkpt lat="41.0899433" lon="-0.1370433"><ele>395.0</ele><time>2026-03-31T12:09:45.153Z</time></trkpt><trkpt lat="41.090075" lon="-0.1370883"><ele>396.0</ele><time>2026-03-31T12:09:46.152Z</time></trkpt><trkpt lat="41.0901817" lon="-0.1371133"><ele>397.0</ele><time>2026-03-31T12:09:47.153Z</time></trkpt><trkpt lat="41.0902517" lon="-0.1371167"><ele>397.00000000000006</ele><time>2026-03-31T12:09:48.152Z</time></trkpt><trkpt lat="41.0903333" lon="-0.1370933"><ele>397.0</ele><time>2026-03-31T12:09:50.153Z</time></trkpt><trkpt lat="41.0903833" lon="-0.1369933"><ele>397.0</ele><time>2026-03-31T12:09:52.153Z</time></trkpt><trkpt lat="41.09042" lon="-0.1369233"><ele>397.0</ele><time>2026-03-31T12:09:53.152Z</time></trkpt><trkpt lat="41.0904517" lon="-0.1368483"><ele>397.00000000000006</ele><time>2026-03-31T12:09:54.152Z</time></trkpt><trkpt lat="41.0904917" lon="-0.136755"><ele>397.0</ele><time>2026-03-31T12:09:55.152Z</time></trkpt><trkpt lat="41.0905183" lon="-0.1366483"><ele>396.83333333333337</ele><time>2026-03-31T12:09:56.153Z</time></trkpt><trkpt lat="41.0905333" lon="-0.1365433"><ele>396.6666666666667</ele><time>2026-03-31T12:09:57.153Z</time></trkpt><trkpt lat="41.0905383" lon="-0.13643"><ele>396.5</ele><time>2026-03-31T12:09:58.152Z</time></trkpt><trkpt lat="41.0905333" lon="-0.1363033"><ele>396.33333333333337</ele><time>2026-03-31T12:09:59.153Z</time></trkpt><trkpt lat="41.09052" lon="-0.1361783"><ele>396.1666666666667</ele><time>2026-03-31T12:10:00.152Z</time></trkpt><trkpt lat="41.0904967" lon="-0.1360617"><ele>396.0</ele><time>2026-03-31T12:10:01.152Z</time></trkpt><trkpt lat="41.090465" lon="-0.1359433"><ele>396.0</ele><time>2026-03-31T12:10:02.153Z</time></trkpt><trkpt lat="41.0904283" lon="-0.1358133"><ele>396.0</ele><time>2026-03-31T12:10:03.153Z</time></trkpt><trkpt lat="41.0903817" lon="-0.1356767"><ele>396.0</ele><time>2026-03-31T12:10:04.152Z</time></trkpt><trkpt lat="41.0903333" lon="-0.1355317"><ele>396.0</ele><time>2026-03-31T12:10:05.153Z</time></trkpt><trkpt lat="41.090285" lon="-0.135385"><ele>396.75</ele><time>2026-03-31T12:10:06.152Z</time></trkpt><trkpt lat="41.0902367" lon="-0.1352367"><ele>397.5</ele><time>2026-03-31T12:10:07.153Z</time></trkpt><trkpt lat="41.0901967" lon="-0.1350867"><ele>398.25</ele><time>2026-03-31T12:10:08.153Z</time></trkpt><trkpt lat="41.09015" lon="-0.1349383"><ele>399.0</ele><time>2026-03-31T12:10:09.152Z</time></trkpt><trkpt lat="41.0901" lon="-0.134785"><ele>399.0</ele><time>2026-03-31T12:10:10.153Z</time></trkpt><trkpt lat="41.0900433" lon="-0.134635"><ele>399.0</ele><time>2026-03-31T12:10:11.152Z</time></trkpt><trkpt lat="41.0899917" lon="-0.1344917"><ele>399.0</ele><time>2026-03-31T12:10:12.153Z</time></trkpt><trkpt lat="41.0899467" lon="-0.1343567"><ele>399.0</ele><time>2026-03-31T12:10:13.152Z</time></trkpt><trkpt lat="41.0899067" lon="-0.1342383"><ele>399.0</ele><time>2026-03-31T12:10:14.153Z</time></trkpt><trkpt lat="41.0898767" lon="-0.134145"><ele>399.0</ele><time>2026-03-31T12:10:15.152Z</time></trkpt><trkpt lat="41.08986" lon="-0.1340483"><ele>399.0</ele><time>2026-03-31T12:10:16.152Z</time></trkpt><trkpt lat="41.0898583" lon="-0.13396"><ele>399.0</ele><time>2026-03-31T12:10:17.153Z</time></trkpt><trkpt lat="41.0898567" lon="-0.13386"><ele>399.0</ele><time>2026-03-31T12:10:18.152Z</time></trkpt><trkpt lat="41.0898567" lon="-0.133755"><ele>399.0</ele><time>2026-03-31T12:10:19.152Z</time></trkpt><trkpt lat="41.0898683" lon="-0.1336417"><ele>399.0</ele><time>2026-03-31T12:10:20.153Z</time></trkpt><trkpt lat="41.0898917" lon="-0.1335167"><ele>399.0</ele><time>2026-03-31T12:10:21.152Z</time></trkpt><trkpt lat="41.089925" lon="-0.1334017"><ele>399.0</ele><time>2026-03-31T12:10:22.153Z</time></trkpt><trkpt lat="41.0899683" lon="-0.1332933"><ele>399.0</ele><time>2026-03-31T12:10:23.153Z</time></trkpt><trkpt lat="41.0900217" lon="-0.133185"><ele>399.0</ele><time>2026-03-31T12:10:24.152Z</time></trkpt><trkpt lat="41.0900783" lon="-0.133075"><ele>401.2</ele><time>2026-03-31T12:10:25.153Z</time></trkpt><trkpt lat="41.0901333" lon="-0.1329767"><ele>403.4</ele><time>2026-03-31T12:10:26.153Z</time></trkpt><trkpt lat="41.0901767" lon="-0.1328633"><ele>405.6</ele><time>2026-03-31T12:10:27.152Z</time></trkpt><trkpt lat="41.090225" lon="-0.1327517"><ele>407.8</ele><time>2026-03-31T12:10:28.153Z</time></trkpt><trkpt lat="41.09026" lon="-0.1326383"><ele>410.0</ele><time>2026-03-31T12:10:29.152Z</time></trkpt><trkpt lat="41.090285" lon="-0.13253"><ele>409.99999999999994</ele><time>2026-03-31T12:10:30.152Z</time></trkpt><trkpt lat="41.09031" lon="-0.1324183"><ele>410.0</ele><time>2026-03-31T12:10:31.153Z</time></trkpt><trkpt lat="41.0903233" lon="-0.1323067"><ele>410.0</ele><time>2026-03-31T12:10:32.153Z</time></trkpt><trkpt lat="41.0903183" lon="-0.132195"><ele>410.0</ele><time>2026-03-31T12:10:33.153Z</time></trkpt><trkpt lat="41.090305" lon="-0.1320717"><ele>409.99999999999994</ele><time>2026-03-31T12:10:34.153Z</time></trkpt><trkpt lat="41.0902867" lon="-0.1319467"><ele>410.0</ele><time>2026-03-31T12:10:35.152Z</time></trkpt><trkpt lat="41.09026" lon="-0.1318183"><ele>409.6</ele><time>2026-03-31T12:10:36.152Z</time></trkpt><trkpt lat="41.0902283" lon="-0.1316967"><ele>409.2</ele><time>2026-03-31T12:10:37.152Z</time></trkpt><trkpt lat="41.0901867" lon="-0.13157"><ele>408.79999999999995</ele><time>2026-03-31T12:10:38.153Z</time></trkpt><trkpt lat="41.0901483" lon="-0.1314483"><ele>408.4</ele><time>2026-03-31T12:10:39.152Z</time></trkpt><trkpt lat="41.0901167" lon="-0.1313183"><ele>408.0</ele><time>2026-03-31T12:10:40.152Z</time></trkpt><trkpt lat="41.090075" lon="-0.1311833"><ele>406.59999999999997</ele><time>2026-03-31T12:10:41.153Z</time></trkpt><trkpt lat="41.0900317" lon="-0.131045"><ele>405.2</ele><time>2026-03-31T12:10:42.153Z</time></trkpt><trkpt lat="41.0899967" lon="-0.1309067"><ele>403.8</ele><time>2026-03-31T12:10:43.152Z</time></trkpt><trkpt lat="41.0899633" lon="-0.1307783"><ele>402.4</ele><time>2026-03-31T12:10:44.153Z</time></trkpt><trkpt lat="41.08992" lon="-0.1306467"><ele>401.0</ele><time>2026-03-31T12:10:45.152Z</time></trkpt><trkpt lat="41.0898883" lon="-0.1305067"><ele>401.0</ele><time>2026-03-31T12:10:46.153Z</time></trkpt><trkpt lat="41.089855" lon="-0.1303683"><ele>401.0</ele><time>2026-03-31T12:10:47.152Z</time></trkpt><trkpt lat="41.0898233" lon="-0.1302317"><ele>401.0</ele><time>2026-03-31T12:10:48.153Z</time></trkpt><trkpt lat="41.0897983" lon="-0.1300983"><ele>401.0</ele><time>2026-03-31T12:10:49.152Z</time></trkpt><trkpt lat="41.08978" lon="-0.1299683"><ele>401.0</ele><time>2026-03-31T12:10:50.153Z</time></trkpt><trkpt lat="41.0897633" lon="-0.1298283"><ele>399.75</ele><time>2026-03-31T12:10:51.152Z</time></trkpt><trkpt lat="41.089755" lon="-0.1296833"><ele>398.5</ele><time>2026-03-31T12:10:52.152Z</time></trkpt><trkpt lat="41.08975" lon="-0.1295333"><ele>397.25</ele><time>2026-03-31T12:10:53.152Z</time></trkpt><trkpt lat="41.0897533" lon="-0.129375"><ele>396.0</ele><time>2026-03-31T12:10:54.153Z</time></trkpt><trkpt lat="41.0897583" lon="-0.1292167"><ele>396.0</ele><time>2026-03-31T12:10:55.153Z</time></trkpt><trkpt lat="41.0897733" lon="-0.12906"><ele>396.0</ele><time>2026-03-31T12:10:56.152Z</time></trkpt><trkpt lat="41.089795" lon="-0.128905"><ele>396.0</ele><time>2026-03-31T12:10:57.153Z</time></trkpt><trkpt lat="41.089815" lon="-0.1287433"><ele>396.0</ele><time>2026-03-31T12:10:58.152Z</time></trkpt><trkpt lat="41.0898317" lon="-0.1285767"><ele>396.5</ele><time>2026-03-31T12:10:59.153Z</time></trkpt><trkpt lat="41.089855" lon="-0.1284217"><ele>397.0</ele><time>2026-03-31T12:11:00.152Z</time></trkpt><trkpt lat="41.0898683" lon="-0.12826"><ele>397.5</ele><time>2026-03-31T12:11:01.152Z</time></trkpt><trkpt lat="41.0898817" lon="-0.1280933"><ele>398.0</ele><time>2026-03-31T12:11:02.153Z</time></trkpt><trkpt lat="41.0898833" lon="-0.12793"><ele>398.0</ele><time>2026-03-31T12:11:03.152Z</time></trkpt><trkpt lat="41.089875" lon="-0.1277617"><ele>398.0</ele><time>2026-03-31T12:11:04.152Z</time></trkpt><trkpt lat="41.0898583" lon="-0.1275983"><ele>398.0</ele><time>2026-03-31T12:11:05.153Z</time></trkpt><trkpt lat="41.089835" lon="-0.1274367"><ele>398.0</ele><time>2026-03-31T12:11:06.153Z</time></trkpt><trkpt lat="41.0897917" lon="-0.127285"><ele>396.25</ele><time>2026-03-31T12:11:07.152Z</time></trkpt><trkpt lat="41.0897417" lon="-0.1271417"><ele>394.5</ele><time>2026-03-31T12:11:08.152Z</time></trkpt><trkpt lat="41.0896867" lon="-0.1270017"><ele>392.75</ele><time>2026-03-31T12:11:09.152Z</time></trkpt><trkpt lat="41.0896233" lon="-0.1268717"><ele>391.0</ele><time>2026-03-31T12:11:10.152Z</time></trkpt><trkpt lat="41.0895533" lon="-0.1267467"><ele>391.0</ele><time>2026-03-31T12:11:11.153Z</time></trkpt><trkpt lat="41.0894917" lon="-0.1266183"><ele>391.0</ele><time>2026-03-31T12:11:12.152Z</time></trkpt><trkpt lat="41.0894333" lon="-0.1264883"><ele>391.0</ele><time>2026-03-31T12:11:13.152Z</time></trkpt><trkpt lat="41.0893683" lon="-0.1263567"><ele>391.0</ele><time>2026-03-31T12:11:14.153Z</time></trkpt><trkpt lat="41.0893067" lon="-0.1262283"><ele>388.5</ele><time>2026-03-31T12:11:15.152Z</time></trkpt><trkpt lat="41.0892433" lon="-0.1260833"><ele>386.0</ele><time>2026-03-31T12:11:16.153Z</time></trkpt><trkpt lat="41.089185" lon="-0.1259383"><ele>383.5</ele><time>2026-03-31T12:11:17.152Z</time></trkpt><trkpt lat="41.089125" lon="-0.12579"><ele>381.0</ele><time>2026-03-31T12:11:18.153Z</time></trkpt><trkpt lat="41.0890733" lon="-0.12564"><ele>380.0</ele><time>2026-03-31T12:11:19.153Z</time></trkpt><trkpt lat="41.0890167" lon="-0.1254883"><ele>379.0</ele><time>2026-03-31T12:11:20.153Z</time></trkpt><trkpt lat="41.0889683" lon="-0.1253433"><ele>378.0</ele><time>2026-03-31T12:11:21.152Z</time></trkpt><trkpt lat="41.08892" lon="-0.1252"><ele>377.0</ele><time>2026-03-31T12:11:22.152Z</time></trkpt><trkpt lat="41.088875" lon="-0.1250533"><ele>377.0</ele><time>2026-03-31T12:11:23.152Z</time></trkpt><trkpt lat="41.0888317" lon="-0.124905"><ele>377.0</ele><time>2026-03-31T12:11:24.152Z</time></trkpt><trkpt lat="41.0887883" lon="-0.124755"><ele>377.0</ele><time>2026-03-31T12:11:25.153Z</time></trkpt><trkpt lat="41.0887433" lon="-0.1246017"><ele>377.0</ele><time>2026-03-31T12:11:26.153Z</time></trkpt><trkpt lat="41.088705" lon="-0.124455"><ele>376.5</ele><time>2026-03-31T12:11:27.153Z</time></trkpt><trkpt lat="41.0886767" lon="-0.1243133"><ele>376.0</ele><time>2026-03-31T12:11:28.153Z</time></trkpt><trkpt lat="41.0886583" lon="-0.1241617"><ele>375.5</ele><time>2026-03-31T12:11:29.153Z</time></trkpt><trkpt lat="41.088655" lon="-0.124005"><ele>375.0</ele><time>2026-03-31T12:11:30.153Z</time></trkpt><trkpt lat="41.08866" lon="-0.1238483"><ele>374.25</ele><time>2026-03-31T12:11:31.152Z</time></trkpt><trkpt lat="41.0886733" lon="-0.1236867"><ele>373.5</ele><time>2026-03-31T12:11:32.152Z</time></trkpt><trkpt lat="41.088695" lon="-0.1235167"><ele>372.75</ele><time>2026-03-31T12:11:33.152Z</time></trkpt><trkpt lat="41.0887217" lon="-0.12335"><ele>372.0</ele><time>2026-03-31T12:11:34.153Z</time></trkpt><trkpt lat="41.0887567" lon="-0.1231883"><ele>371.5</ele><time>2026-03-31T12:11:35.153Z</time></trkpt><trkpt lat="41.0887883" lon="-0.1230217"><ele>371.0</ele><time>2026-03-31T12:11:36.153Z</time></trkpt><trkpt lat="41.0888217" lon="-0.1228533"><ele>370.5</ele><time>2026-03-31T12:11:37.152Z</time></trkpt><trkpt lat="41.0888567" lon="-0.122685"><ele>370.0</ele><time>2026-03-31T12:11:38.152Z</time></trkpt><trkpt lat="41.0888933" lon="-0.1225117"><ele>369.5</ele><time>2026-03-31T12:11:39.151Z</time></trkpt><trkpt lat="41.0889267" lon="-0.1223417"><ele>369.0</ele><time>2026-03-31T12:11:40.153Z</time></trkpt><trkpt lat="41.08896" lon="-0.1221667"><ele>368.5</ele><time>2026-03-31T12:11:41.152Z</time></trkpt><trkpt lat="41.08899" lon="-0.1219933"><ele>368.0</ele><time>2026-03-31T12:11:42.153Z</time></trkpt><trkpt lat="41.0890283" lon="-0.1218233"><ele>368.0</ele><time>2026-03-31T12:11:43.153Z</time></trkpt><trkpt lat="41.0890617" lon="-0.121655"><ele>368.0</ele><time>2026-03-31T12:11:44.152Z</time></trkpt><trkpt lat="41.0890917" lon="-0.121485"><ele>368.0</ele><time>2026-03-31T12:11:45.153Z</time></trkpt><trkpt lat="41.089125" lon="-0.1213167"><ele>368.0</ele><time>2026-03-31T12:11:46.153Z</time></trkpt><trkpt lat="41.08916" lon="-0.121145"><ele>368.0</ele><time>2026-03-31T12:11:47.152Z</time></trkpt><trkpt lat="41.089195" lon="-0.1209667"><ele>368.0</ele><time>2026-03-31T12:11:48.152Z</time></trkpt><trkpt lat="41.0892283" lon="-0.1207917"><ele>368.0</ele><time>2026-03-31T12:11:49.153Z</time></trkpt><trkpt lat="41.08926" lon="-0.1206117"><ele>368.0</ele><time>2026-03-31T12:11:50.153Z</time></trkpt><trkpt lat="41.0892967" lon="-0.1204367"><ele>368.0</ele><time>2026-03-31T12:11:51.152Z</time></trkpt><trkpt lat="41.08933" lon="-0.120255"><ele>368.0</ele><time>2026-03-31T12:11:52.152Z</time></trkpt><trkpt lat="41.0893717" lon="-0.1200817"><ele>368.0</ele><time>2026-03-31T12:11:53.153Z</time></trkpt><trkpt lat="41.0894167" lon="-0.119905"><ele>368.0</ele><time>2026-03-31T12:11:54.153Z</time></trkpt><trkpt lat="41.089455" lon="-0.119715"><ele>367.75</ele><time>2026-03-31T12:11:55.152Z</time></trkpt><trkpt lat="41.089495" lon="-0.1195317"><ele>367.5</ele><time>2026-03-31T12:11:56.152Z</time></trkpt><trkpt lat="41.0895317" lon="-0.1193583"><ele>367.25</ele><time>2026-03-31T12:11:57.153Z</time></trkpt><trkpt lat="41.089565" lon="-0.1191933"><ele>367.0</ele><time>2026-03-31T12:11:58.153Z</time></trkpt><trkpt lat="41.0895983" lon="-0.1190267"><ele>368.5</ele><time>2026-03-31T12:11:59.152Z</time></trkpt><trkpt lat="41.0896217" lon="-0.1188533"><ele>370.0</ele><time>2026-03-31T12:12:00.152Z</time></trkpt><trkpt lat="41.0896267" lon="-0.1186767"><ele>371.5</ele><time>2026-03-31T12:12:01.152Z</time></trkpt><trkpt lat="41.08962" lon="-0.118505"><ele>373.0</ele><time>2026-03-31T12:12:02.152Z</time></trkpt><trkpt lat="41.089605" lon="-0.1183367"><ele>374.25</ele><time>2026-03-31T12:12:03.152Z</time></trkpt><trkpt lat="41.0895817" lon="-0.1181767"><ele>375.5</ele><time>2026-03-31T12:12:04.153Z</time></trkpt><trkpt lat="41.0895533" lon="-0.1180167"><ele>376.75</ele><time>2026-03-31T12:12:05.152Z</time></trkpt><trkpt lat="41.0895133" lon="-0.1178483"><ele>378.0</ele><time>2026-03-31T12:12:06.152Z</time></trkpt><trkpt lat="41.08947" lon="-0.1176667"><ele>378.0</ele><time>2026-03-31T12:12:07.152Z</time></trkpt><trkpt lat="41.0894183" lon="-0.1174933"><ele>378.0</ele><time>2026-03-31T12:12:08.152Z</time></trkpt><trkpt lat="41.0893567" lon="-0.11732"><ele>378.0</ele><time>2026-03-31T12:12:09.152Z</time></trkpt><trkpt lat="41.0893" lon="-0.11716"><ele>378.0</ele><time>2026-03-31T12:12:10.152Z</time></trkpt><trkpt lat="41.0892483" lon="-0.117005"><ele>378.25</ele><time>2026-03-31T12:12:11.153Z</time></trkpt><trkpt lat="41.0892083" lon="-0.1168433"><ele>378.5</ele><time>2026-03-31T12:12:12.153Z</time></trkpt><trkpt lat="41.0891833" lon="-0.1166717"><ele>378.75</ele><time>2026-03-31T12:12:13.152Z</time></trkpt><trkpt lat="41.0891767" lon="-0.1164883"><ele>379.0</ele><time>2026-03-31T12:12:14.153Z</time></trkpt><trkpt lat="41.08917" lon="-0.1163083"><ele>379.25</ele><time>2026-03-31T12:12:15.152Z</time></trkpt><trkpt lat="41.089175" lon="-0.1161183"><ele>379.5</ele><time>2026-03-31T12:12:16.153Z</time></trkpt><trkpt lat="41.0891767" lon="-0.1159183"><ele>379.75</ele><time>2026-03-31T12:12:17.152Z</time></trkpt><trkpt lat="41.0891817" lon="-0.1157233"><ele>380.0</ele><time>2026-03-31T12:12:18.153Z</time></trkpt><trkpt lat="41.0891967" lon="-0.1155183"><ele>379.33333333333337</ele><time>2026-03-31T12:12:19.152Z</time></trkpt><trkpt lat="41.0892183" lon="-0.1153017"><ele>378.6666666666667</ele><time>2026-03-31T12:12:20.152Z</time></trkpt><trkpt lat="41.08924" lon="-0.11509"><ele>378.0</ele><time>2026-03-31T12:12:21.152Z</time></trkpt><trkpt lat="41.0892633" lon="-0.1148767"><ele>376.0</ele><time>2026-03-31T12:12:22.153Z</time></trkpt><trkpt lat="41.0892883" lon="-0.1146617"><ele>374.0</ele><time>2026-03-31T12:12:23.152Z</time></trkpt><trkpt lat="41.089305" lon="-0.114445"><ele>372.0</ele><time>2026-03-31T12:12:24.152Z</time></trkpt><trkpt lat="41.08932" lon="-0.11423"><ele>372.0</ele><time>2026-03-31T12:12:25.152Z</time></trkpt><trkpt lat="41.0893467" lon="-0.1140067"><ele>372.0</ele><time>2026-03-31T12:12:26.152Z</time></trkpt><trkpt lat="41.08937" lon="-0.1137867"><ele>372.0</ele><time>2026-03-31T12:12:27.153Z</time></trkpt><trkpt lat="41.089395" lon="-0.1135633"><ele>372.0</ele><time>2026-03-31T12:12:28.152Z</time></trkpt><trkpt lat="41.089415" lon="-0.1133383"><ele>372.0</ele><time>2026-03-31T12:12:29.152Z</time></trkpt><trkpt lat="41.08944" lon="-0.1131167"><ele>372.0</ele><time>2026-03-31T12:12:30.153Z</time></trkpt><trkpt lat="41.0894567" lon="-0.1128917"><ele>374.3333333333333</ele><time>2026-03-31T12:12:31.153Z</time></trkpt><trkpt lat="41.0894767" lon="-0.112675"><ele>376.66666666666663</ele><time>2026-03-31T12:12:32.152Z</time></trkpt><trkpt lat="41.0894967" lon="-0.1124633"><ele>379.0</ele><time>2026-03-31T12:12:33.153Z</time></trkpt><trkpt lat="41.08951" lon="-0.112265"><ele>379.0</ele><time>2026-03-31T12:12:34.152Z</time></trkpt><trkpt lat="41.089515" lon="-0.1120733"><ele>379.0</ele><time>2026-03-31T12:12:35.152Z</time></trkpt><trkpt lat="41.0895167" lon="-0.1118833"><ele>379.0</ele><time>2026-03-31T12:12:36.153Z</time></trkpt><trkpt lat="41.0895033" lon="-0.11169"><ele>379.0</ele><time>2026-03-31T12:12:37.153Z</time></trkpt><trkpt lat="41.08948" lon="-0.1115017"><ele>379.0</ele><time>2026-03-31T12:12:38.152Z</time></trkpt><trkpt lat="41.089445" lon="-0.1113017"><ele>379.0</ele><time>2026-03-31T12:12:39.153Z</time></trkpt><trkpt lat="41.0894083" lon="-0.1111017"><ele>379.0</ele><time>2026-03-31T12:12:40.152Z</time></trkpt><trkpt lat="41.08938" lon="-0.1109117"><ele>379.5</ele><time>2026-03-31T12:12:41.152Z</time></trkpt><trkpt lat="41.0893517" lon="-0.1107217"><ele>380.0</ele><time>2026-03-31T12:12:42.152Z</time></trkpt><trkpt lat="41.0893217" lon="-0.11055"><ele>380.5</ele><time>2026-03-31T12:12:43.152Z</time></trkpt><trkpt lat="41.08929" lon="-0.1103917"><ele>381.0</ele><time>2026-03-31T12:12:44.152Z</time></trkpt><trkpt lat="41.089265" lon="-0.11025"><ele>381.0</ele><time>2026-03-31T12:12:45.152Z</time></trkpt><trkpt lat="41.0892367" lon="-0.1101217"><ele>381.0</ele><time>2026-03-31T12:12:46.153Z</time></trkpt><trkpt lat="41.0892083" lon="-0.110005"><ele>381.0</ele><time>2026-03-31T12:12:47.153Z</time></trkpt><trkpt lat="41.0891767" lon="-0.10988"><ele>381.0</ele><time>2026-03-31T12:12:48.152Z</time></trkpt><trkpt lat="41.0891383" lon="-0.1097467"><ele>381.0</ele><time>2026-03-31T12:12:49.152Z</time></trkpt><trkpt lat="41.0890933" lon="-0.1096117"><ele>380.5</ele><time>2026-03-31T12:12:50.153Z</time></trkpt><trkpt lat="41.08904" lon="-0.1094633"><ele>380.0</ele><time>2026-03-31T12:12:51.153Z</time></trkpt><trkpt lat="41.0889867" lon="-0.1093083"><ele>379.5</ele><time>2026-03-31T12:12:52.152Z</time></trkpt><trkpt lat="41.08893" lon="-0.10914"><ele>379.0</ele><time>2026-03-31T12:12:53.152Z</time></trkpt><trkpt lat="41.0888733" lon="-0.1089633"><ele>378.3333333333333</ele><time>2026-03-31T12:12:54.152Z</time></trkpt><trkpt lat="41.0888117" lon="-0.1087733"><ele>377.6666666666667</ele><time>2026-03-31T12:12:55.152Z</time></trkpt><trkpt lat="41.0887467" lon="-0.1085833"><ele>377.0</ele><time>2026-03-31T12:12:56.152Z</time></trkpt><trkpt lat="41.0886767" lon="-0.1083867"><ele>376.33333333333337</ele><time>2026-03-31T12:12:57.153Z</time></trkpt><trkpt lat="41.0886083" lon="-0.1081883"><ele>375.6666666666667</ele><time>2026-03-31T12:12:58.152Z</time></trkpt><trkpt lat="41.0885383" lon="-0.10799"><ele>375.0</ele><time>2026-03-31T12:12:59.152Z</time></trkpt><trkpt lat="41.0884617" lon="-0.1077917"><ele>375.0</ele><time>2026-03-31T12:13:00.152Z</time></trkpt><trkpt lat="41.0883983" lon="-0.107615"><ele>375.0</ele><time>2026-03-31T12:13:01.152Z</time></trkpt><trkpt lat="41.088335" lon="-0.1074367"><ele>375.0</ele><time>2026-03-31T12:13:02.152Z</time></trkpt><trkpt lat="41.08827" lon="-0.1072467"><ele>375.0</ele><time>2026-03-31T12:13:03.152Z</time></trkpt><trkpt lat="41.0882" lon="-0.1070533"><ele>375.0</ele><time>2026-03-31T12:13:04.153Z</time></trkpt><trkpt lat="41.088135" lon="-0.10686"><ele>375.0</ele><time>2026-03-31T12:13:05.152Z</time></trkpt><trkpt lat="41.0880717" lon="-0.106665"><ele>375.3333333333333</ele><time>2026-03-31T12:13:06.152Z</time></trkpt><trkpt lat="41.0880117" lon="-0.1064767"><ele>375.66666666666663</ele><time>2026-03-31T12:13:07.152Z</time></trkpt><trkpt lat="41.0879567" lon="-0.10628"><ele>376.0</ele><time>2026-03-31T12:13:08.152Z</time></trkpt><trkpt lat="41.0879017" lon="-0.1060767"><ele>376.0</ele><time>2026-03-31T12:13:09.152Z</time></trkpt><trkpt lat="41.0878483" lon="-0.1058667"><ele>376.0</ele><time>2026-03-31T12:13:10.152Z</time></trkpt><trkpt lat="41.0878017" lon="-0.10565"><ele>376.0</ele><time>2026-03-31T12:13:11.152Z</time></trkpt><trkpt lat="41.08776" lon="-0.1054417"><ele>376.3333333333333</ele><time>2026-03-31T12:13:12.152Z</time></trkpt><trkpt lat="41.0877133" lon="-0.1052333"><ele>376.6666666666667</ele><time>2026-03-31T12:13:13.152Z</time></trkpt><trkpt lat="41.0876667" lon="-0.1050267"><ele>377.0</ele><time>2026-03-31T12:13:14.153Z</time></trkpt><trkpt lat="41.0876167" lon="-0.1048217"><ele>377.0</ele><time>2026-03-31T12:13:15.152Z</time></trkpt><trkpt lat="41.0875783" lon="-0.1046333"><ele>377.0</ele><time>2026-03-31T12:13:16.153Z</time></trkpt><trkpt lat="41.0875467" lon="-0.1044583"><ele>377.0</ele><time>2026-03-31T12:13:17.152Z</time></trkpt><trkpt lat="41.087535" lon="-0.1043017"><ele>377.0</ele><time>2026-03-31T12:13:18.152Z</time></trkpt><trkpt lat="41.08753" lon="-0.104155"><ele>377.0</ele><time>2026-03-31T12:13:19.153Z</time></trkpt><trkpt lat="41.08754" lon="-0.1040017"><ele>377.0</ele><time>2026-03-31T12:13:20.152Z</time></trkpt><trkpt lat="41.0875583" lon="-0.1038433"><ele>377.0</ele><time>2026-03-31T12:13:21.153Z</time></trkpt><trkpt lat="41.08759" lon="-0.1036833"><ele>377.0</ele><time>2026-03-31T12:13:22.152Z</time></trkpt><trkpt lat="41.0876267" lon="-0.103515"><ele>377.0</ele><time>2026-03-31T12:13:23.152Z</time></trkpt><trkpt lat="41.0876783" lon="-0.1033483"><ele>377.0</ele><time>2026-03-31T12:13:24.153Z</time></trkpt><trkpt lat="41.08774" lon="-0.1031783"><ele>377.0</ele><time>2026-03-31T12:13:25.153Z</time></trkpt><trkpt lat="41.0878033" lon="-0.1030083"><ele>377.0</ele><time>2026-03-31T12:13:26.152Z</time></trkpt><trkpt lat="41.0878717" lon="-0.1028283"><ele>376.0</ele><time>2026-03-31T12:13:27.153Z</time></trkpt><trkpt lat="41.08794" lon="-0.1026483"><ele>375.0</ele><time>2026-03-31T12:13:28.153Z</time></trkpt><trkpt lat="41.088015" lon="-0.1024683"><ele>374.0</ele><time>2026-03-31T12:13:29.152Z</time></trkpt><trkpt lat="41.0880867" lon="-0.10228"><ele>373.5</ele><time>2026-03-31T12:13:30.152Z</time></trkpt><trkpt lat="41.0881517" lon="-0.1021033"><ele>373.0</ele><time>2026-03-31T12:13:31.152Z</time></trkpt><trkpt lat="41.0882133" lon="-0.10192"><ele>372.5</ele><time>2026-03-31T12:13:32.152Z</time></trkpt><trkpt lat="41.088275" lon="-0.1017483"><ele>372.0</ele><time>2026-03-31T12:13:33.152Z</time></trkpt><trkpt lat="41.0883417" lon="-0.1015833"><ele>371.75</ele><time>2026-03-31T12:13:34.153Z</time></trkpt><trkpt lat="41.0884083" lon="-0.1014033"><ele>371.5</ele><time>2026-03-31T12:13:35.152Z</time></trkpt><trkpt lat="41.0884633" lon="-0.1012317"><ele>371.25</ele><time>2026-03-31T12:13:36.152Z</time></trkpt><trkpt lat="41.08852" lon="-0.1010583"><ele>371.0</ele><time>2026-03-31T12:13:37.152Z</time></trkpt><trkpt lat="41.0885517" lon="-0.1008983"><ele>369.0</ele><time>2026-03-31T12:13:38.152Z</time></trkpt><trkpt lat="41.08858" lon="-0.1007333"><ele>367.0</ele><time>2026-03-31T12:13:39.153Z</time></trkpt><trkpt lat="41.088605" lon="-0.10056"><ele>365.0</ele><time>2026-03-31T12:13:40.152Z</time></trkpt><trkpt lat="41.08863" lon="-0.10038"><ele>363.0</ele><time>2026-03-31T12:13:41.152Z</time></trkpt><trkpt lat="41.0886367" lon="-0.100185"><ele>363.0</ele><time>2026-03-31T12:13:42.153Z</time></trkpt><trkpt lat="41.088645" lon="-0.0999817"><ele>363.0</ele><time>2026-03-31T12:13:43.153Z</time></trkpt><trkpt lat="41.0886567" lon="-0.09978"><ele>363.0</ele><time>2026-03-31T12:13:44.152Z</time></trkpt><trkpt lat="41.08867" lon="-0.099575"><ele>361.75</ele><time>2026-03-31T12:13:45.152Z</time></trkpt><trkpt lat="41.08868" lon="-0.0993833"><ele>360.5</ele><time>2026-03-31T12:13:46.153Z</time></trkpt><trkpt lat="41.08868" lon="-0.0991983"><ele>359.25</ele><time>2026-03-31T12:13:47.153Z</time></trkpt><trkpt lat="41.0886767" lon="-0.0990217"><ele>358.0</ele><time>2026-03-31T12:13:48.153Z</time></trkpt><trkpt lat="41.0886517" lon="-0.0988517"><ele>358.0</ele><time>2026-03-31T12:13:49.152Z</time></trkpt><trkpt lat="41.0886167" lon="-0.0986983"><ele>358.0</ele><time>2026-03-31T12:13:50.152Z</time></trkpt><trkpt lat="41.08857" lon="-0.0985467"><ele>358.0</ele><time>2026-03-31T12:13:51.152Z</time></trkpt><trkpt lat="41.08852" lon="-0.098385"><ele>358.0</ele><time>2026-03-31T12:13:52.153Z</time></trkpt><trkpt lat="41.088465" lon="-0.0982217"><ele>358.0</ele><time>2026-03-31T12:13:53.152Z</time></trkpt><trkpt lat="41.088405" lon="-0.0980633"><ele>358.0</ele><time>2026-03-31T12:13:54.153Z</time></trkpt><trkpt lat="41.0883467" lon="-0.0979067"><ele>358.0</ele><time>2026-03-31T12:13:55.152Z</time></trkpt><trkpt lat="41.08829" lon="-0.0977633"><ele>358.0</ele><time>2026-03-31T12:13:56.152Z</time></trkpt><trkpt lat="41.0882383" lon="-0.0976217"><ele>355.4</ele><time>2026-03-31T12:13:57.153Z</time></trkpt><trkpt lat="41.0881833" lon="-0.097485"><ele>352.79999999999995</ele><time>2026-03-31T12:13:58.153Z</time></trkpt><trkpt lat="41.0881317" lon="-0.0973483"><ele>350.2</ele><time>2026-03-31T12:13:59.152Z</time></trkpt><trkpt lat="41.0880833" lon="-0.097225"><ele>347.6</ele><time>2026-03-31T12:14:00.152Z</time></trkpt><trkpt lat="41.0880417" lon="-0.0970967"><ele>345.0</ele><time>2026-03-31T12:14:01.152Z</time></trkpt><trkpt lat="41.088" lon="-0.0969733"><ele>344.8</ele><time>2026-03-31T12:14:02.152Z</time></trkpt><trkpt lat="41.087955" lon="-0.09686"><ele>344.6</ele><time>2026-03-31T12:14:03.152Z</time></trkpt><trkpt lat="41.0879133" lon="-0.09675"><ele>344.4</ele><time>2026-03-31T12:14:04.153Z</time></trkpt><trkpt lat="41.0878717" lon="-0.09663"><ele>344.2</ele><time>2026-03-31T12:14:05.153Z</time></trkpt><trkpt lat="41.087825" lon="-0.096515"><ele>344.0</ele><time>2026-03-31T12:14:06.153Z</time></trkpt><trkpt lat="41.0877783" lon="-0.0964017"><ele>343.4</ele><time>2026-03-31T12:14:07.153Z</time></trkpt><trkpt lat="41.0877333" lon="-0.096285"><ele>342.79999999999995</ele><time>2026-03-31T12:14:08.152Z</time></trkpt><trkpt lat="41.087695" lon="-0.096165"><ele>342.20000000000005</ele><time>2026-03-31T12:14:09.152Z</time></trkpt><trkpt lat="41.0876583" lon="-0.0960583"><ele>341.6</ele><time>2026-03-31T12:14:10.152Z</time></trkpt><trkpt lat="41.0876217" lon="-0.0959483"><ele>341.0</ele><time>2026-03-31T12:14:11.153Z</time></trkpt><trkpt lat="41.0875883" lon="-0.0958367"><ele>340.33333333333337</ele><time>2026-03-31T12:14:12.153Z</time></trkpt><trkpt lat="41.0875567" lon="-0.0957233"><ele>339.6666666666667</ele><time>2026-03-31T12:14:13.153Z</time></trkpt><trkpt lat="41.0875367" lon="-0.095615"><ele>339.0</ele><time>2026-03-31T12:14:14.152Z</time></trkpt><trkpt lat="41.08752" lon="-0.0955133"><ele>338.3333333333333</ele><time>2026-03-31T12:14:15.153Z</time></trkpt><trkpt lat="41.0875117" lon="-0.0954083"><ele>337.66666666666663</ele><time>2026-03-31T12:14:16.152Z</time></trkpt><trkpt lat="41.087515" lon="-0.0953133"><ele>337.0</ele><time>2026-03-31T12:14:17.152Z</time></trkpt><trkpt lat="41.0875217" lon="-0.09522"><ele>337.0</ele><time>2026-03-31T12:14:18.152Z</time></trkpt><trkpt lat="41.087525" lon="-0.0950733"><ele>337.0</ele><time>2026-03-31T12:14:20.152Z</time></trkpt><trkpt lat="41.0875267" lon="-0.094975"><ele>337.0</ele><time>2026-03-31T12:14:22.152Z</time></trkpt><trkpt lat="41.0875667" lon="-0.09488"><ele>337.0</ele><time>2026-03-31T12:14:25.153Z</time></trkpt><trkpt lat="41.087625" lon="-0.0947867"><ele>337.0</ele><time>2026-03-31T12:14:27.152Z</time></trkpt><trkpt lat="41.0877233" lon="-0.09465"><ele>337.8</ele><time>2026-03-31T12:14:29.153Z</time></trkpt><trkpt lat="41.0877767" lon="-0.0945633"><ele>338.6</ele><time>2026-03-31T12:14:30.153Z</time></trkpt><trkpt lat="41.0878367" lon="-0.094485"><ele>339.40000000000003</ele><time>2026-03-31T12:14:31.153Z</time></trkpt><trkpt lat="41.0879117" lon="-0.0944167"><ele>340.20000000000005</ele><time>2026-03-31T12:14:32.152Z</time></trkpt><trkpt lat="41.088" lon="-0.0943517"><ele>341.0</ele><time>2026-03-31T12:14:33.152Z</time></trkpt><trkpt lat="41.0880933" lon="-0.09429"><ele>341.0</ele><time>2026-03-31T12:14:34.152Z</time></trkpt><trkpt lat="41.08819" lon="-0.094235"><ele>341.0</ele><time>2026-03-31T12:14:35.152Z</time></trkpt><trkpt lat="41.0882833" lon="-0.0941867"><ele>341.0</ele><time>2026-03-31T12:14:36.153Z</time></trkpt><trkpt lat="41.08838" lon="-0.0941267"><ele>341.0</ele><time>2026-03-31T12:14:37.153Z</time></trkpt><trkpt lat="41.0884783" lon="-0.0940767"><ele>341.0</ele><time>2026-03-31T12:14:38.152Z</time></trkpt><trkpt lat="41.0885833" lon="-0.094025"><ele>338.25</ele><time>2026-03-31T12:14:39.152Z</time></trkpt><trkpt lat="41.0886883" lon="-0.0939783"><ele>335.5</ele><time>2026-03-31T12:14:40.152Z</time></trkpt><trkpt lat="41.0887983" lon="-0.0939267"><ele>332.75</ele><time>2026-03-31T12:14:41.152Z</time></trkpt><trkpt lat="41.08891" lon="-0.0938767"><ele>330.0</ele><time>2026-03-31T12:14:42.152Z</time></trkpt><trkpt lat="41.0890133" lon="-0.093825"><ele>327.8</ele><time>2026-03-31T12:14:43.152Z</time></trkpt><trkpt lat="41.08911" lon="-0.0937717"><ele>325.6</ele><time>2026-03-31T12:14:44.152Z</time></trkpt><trkpt lat="41.0892033" lon="-0.093715"><ele>323.4</ele><time>2026-03-31T12:14:45.153Z</time></trkpt><trkpt lat="41.0892933" lon="-0.0936533"><ele>321.2</ele><time>2026-03-31T12:14:46.153Z</time></trkpt><trkpt lat="41.089385" lon="-0.09358"><ele>319.0</ele><time>2026-03-31T12:14:47.153Z</time></trkpt><trkpt lat="41.0894733" lon="-0.0934967"><ele>319.0</ele><time>2026-03-31T12:14:48.153Z</time></trkpt><trkpt lat="41.0895583" lon="-0.093415"><ele>319.0</ele><time>2026-03-31T12:14:49.152Z</time></trkpt><trkpt lat="41.08965" lon="-0.09334"><ele>319.0</ele><time>2026-03-31T12:14:50.152Z</time></trkpt><trkpt lat="41.089745" lon="-0.0932533"><ele>319.0</ele><time>2026-03-31T12:14:51.152Z</time></trkpt><trkpt lat="41.0898367" lon="-0.0931617"><ele>319.0</ele><time>2026-03-31T12:14:52.152Z</time></trkpt><trkpt lat="41.0899267" lon="-0.0930717"><ele>316.4</ele><time>2026-03-31T12:14:53.152Z</time></trkpt><trkpt lat="41.0900183" lon="-0.092985"><ele>313.79999999999995</ele><time>2026-03-31T12:14:54.152Z</time></trkpt><trkpt lat="41.0901067" lon="-0.09291"><ele>311.20000000000005</ele><time>2026-03-31T12:14:55.153Z</time></trkpt><trkpt lat="41.09019" lon="-0.0928233"><ele>308.6</ele><time>2026-03-31T12:14:56.153Z</time></trkpt><trkpt lat="41.090265" lon="-0.0927467"><ele>306.0</ele><time>2026-03-31T12:14:57.152Z</time></trkpt><trkpt lat="41.090345" lon="-0.0926667"><ele>306.0</ele><time>2026-03-31T12:14:58.153Z</time></trkpt><trkpt lat="41.0904317" lon="-0.0925733"><ele>306.0</ele><time>2026-03-31T12:14:59.152Z</time></trkpt><trkpt lat="41.090515" lon="-0.0924817"><ele>306.0</ele><time>2026-03-31T12:15:00.152Z</time></trkpt><trkpt lat="41.0905983" lon="-0.0923917"><ele>306.0</ele><time>2026-03-31T12:15:01.153Z</time></trkpt><trkpt lat="41.0906933" lon="-0.0923017"><ele>306.0</ele><time>2026-03-31T12:15:02.152Z</time></trkpt><trkpt lat="41.0907783" lon="-0.0922167"><ele>304.25</ele><time>2026-03-31T12:15:03.152Z</time></trkpt><trkpt lat="41.0908733" lon="-0.0921217"><ele>302.5</ele><time>2026-03-31T12:15:04.152Z</time></trkpt><trkpt lat="41.0909717" lon="-0.092025"><ele>300.75</ele><time>2026-03-31T12:15:05.153Z</time></trkpt><trkpt lat="41.0910633" lon="-0.0919267"><ele>299.0</ele><time>2026-03-31T12:15:06.152Z</time></trkpt><trkpt lat="41.0911583" lon="-0.0918283"><ele>299.0</ele><time>2026-03-31T12:15:07.152Z</time></trkpt><trkpt lat="41.0912467" lon="-0.09174"><ele>299.0</ele><time>2026-03-31T12:15:08.152Z</time></trkpt><trkpt lat="41.09134" lon="-0.0916433"><ele>299.0</ele><time>2026-03-31T12:15:09.153Z</time></trkpt><trkpt lat="41.0914217" lon="-0.0915433"><ele>299.0</ele><time>2026-03-31T12:15:10.152Z</time></trkpt><trkpt lat="41.0915133" lon="-0.0914583"><ele>296.5</ele><time>2026-03-31T12:15:11.152Z</time></trkpt><trkpt lat="41.0916017" lon="-0.0913667"><ele>294.0</ele><time>2026-03-31T12:15:12.153Z</time></trkpt><trkpt lat="41.091695" lon="-0.091275"><ele>291.5</ele><time>2026-03-31T12:15:13.152Z</time></trkpt><trkpt lat="41.0917917" lon="-0.0911867"><ele>289.0</ele><time>2026-03-31T12:15:14.152Z</time></trkpt><trkpt lat="41.0918867" lon="-0.0910933"><ele>289.0</ele><time>2026-03-31T12:15:15.152Z</time></trkpt><trkpt lat="41.09198" lon="-0.0909967"><ele>289.0</ele><time>2026-03-31T12:15:16.152Z</time></trkpt><trkpt lat="41.092065" lon="-0.0909033"><ele>289.0</ele><time>2026-03-31T12:15:17.152Z</time></trkpt><trkpt lat="41.0921383" lon="-0.0908117"><ele>289.0</ele><time>2026-03-31T12:15:18.152Z</time></trkpt><trkpt lat="41.09222" lon="-0.09071"><ele>289.0</ele><time>2026-03-31T12:15:19.153Z</time></trkpt><trkpt lat="41.0923017" lon="-0.0905967"><ele>287.75</ele><time>2026-03-31T12:15:20.152Z</time></trkpt><trkpt lat="41.0923833" lon="-0.0904733"><ele>286.5</ele><time>2026-03-31T12:15:21.152Z</time></trkpt><trkpt lat="41.0924533" lon="-0.0903567"><ele>285.25</ele><time>2026-03-31T12:15:22.153Z</time></trkpt><trkpt lat="41.0925167" lon="-0.0902333"><ele>284.0</ele><time>2026-03-31T12:15:23.152Z</time></trkpt><trkpt lat="41.092565" lon="-0.09011"><ele>284.0</ele><time>2026-03-31T12:15:24.152Z</time></trkpt><trkpt lat="41.0926017" lon="-0.0899833"><ele>284.0</ele><time>2026-03-31T12:15:25.153Z</time></trkpt><trkpt lat="41.0926283" lon="-0.089845"><ele>284.0</ele><time>2026-03-31T12:15:26.153Z</time></trkpt><trkpt lat="41.0926567" lon="-0.0897033"><ele>284.0</ele><time>2026-03-31T12:15:27.153Z</time></trkpt><trkpt lat="41.0926783" lon="-0.0895667"><ele>284.0</ele><time>2026-03-31T12:15:28.153Z</time></trkpt><trkpt lat="41.0926967" lon="-0.08942"><ele>284.0</ele><time>2026-03-31T12:15:29.152Z</time></trkpt><trkpt lat="41.0926967" lon="-0.0892733"><ele>284.0</ele><time>2026-03-31T12:15:30.152Z</time></trkpt><trkpt lat="41.09269" lon="-0.089135"><ele>284.0</ele><time>2026-03-31T12:15:31.152Z</time></trkpt><trkpt lat="41.0926767" lon="-0.0890067"><ele>284.0</ele><time>2026-03-31T12:15:32.152Z</time></trkpt><trkpt lat="41.0926483" lon="-0.0888783"><ele>284.0</ele><time>2026-03-31T12:15:33.152Z</time></trkpt><trkpt lat="41.09261" lon="-0.088745"><ele>284.0</ele><time>2026-03-31T12:15:34.152Z</time></trkpt><trkpt lat="41.09257" lon="-0.08861"><ele>284.0</ele><time>2026-03-31T12:15:35.153Z</time></trkpt><trkpt lat="41.0925183" lon="-0.0884667"><ele>284.0</ele><time>2026-03-31T12:15:36.152Z</time></trkpt><trkpt lat="41.0924583" lon="-0.088315"><ele>284.0</ele><time>2026-03-31T12:15:37.153Z</time></trkpt><trkpt lat="41.0924017" lon="-0.0881633"><ele>283.0</ele><time>2026-03-31T12:15:38.152Z</time></trkpt><trkpt lat="41.0923483" lon="-0.088015"><ele>282.0</ele><time>2026-03-31T12:15:39.153Z</time></trkpt><trkpt lat="41.09229" lon="-0.0878483"><ele>281.0</ele><time>2026-03-31T12:15:40.153Z</time></trkpt><trkpt lat="41.0922367" lon="-0.0876817"><ele>280.0</ele><time>2026-03-31T12:15:41.153Z</time></trkpt><trkpt lat="41.0921717" lon="-0.0875083"><ele>280.0</ele><time>2026-03-31T12:15:42.152Z</time></trkpt><trkpt lat="41.0921067" lon="-0.0873383"><ele>280.0</ele><time>2026-03-31T12:15:43.153Z</time></trkpt><trkpt lat="41.09204" lon="-0.0871717"><ele>280.0</ele><time>2026-03-31T12:15:44.152Z</time></trkpt><trkpt lat="41.091975" lon="-0.0869917"><ele>280.0</ele><time>2026-03-31T12:15:45.152Z</time></trkpt><trkpt lat="41.0919133" lon="-0.08681"><ele>280.0</ele><time>2026-03-31T12:15:46.153Z</time></trkpt><trkpt lat="41.0918567" lon="-0.08662"><ele>280.0</ele><time>2026-03-31T12:15:47.153Z</time></trkpt><trkpt lat="41.0918033" lon="-0.0864283"><ele>280.0</ele><time>2026-03-31T12:15:48.152Z</time></trkpt><trkpt lat="41.09175" lon="-0.08624"><ele>280.3333333333333</ele><time>2026-03-31T12:15:49.153Z</time></trkpt><trkpt lat="41.0917083" lon="-0.0860467"><ele>280.6666666666667</ele><time>2026-03-31T12:15:50.152Z</time></trkpt><trkpt lat="41.0916633" lon="-0.0858567"><ele>281.0</ele><time>2026-03-31T12:15:51.152Z</time></trkpt><trkpt lat="41.091615" lon="-0.0856667"><ele>279.33333333333337</ele><time>2026-03-31T12:15:52.152Z</time></trkpt><trkpt lat="41.0915617" lon="-0.0854717"><ele>277.6666666666667</ele><time>2026-03-31T12:15:53.152Z</time></trkpt><trkpt lat="41.0915117" lon="-0.08528"><ele>276.0</ele><time>2026-03-31T12:15:54.152Z</time></trkpt><trkpt lat="41.0914583" lon="-0.0850867"><ele>276.5</ele><time>2026-03-31T12:15:55.153Z</time></trkpt><trkpt lat="41.0914083" lon="-0.0848967"><ele>277.0</ele><time>2026-03-31T12:15:56.152Z</time></trkpt><trkpt lat="41.0913633" lon="-0.0847117"><ele>277.5</ele><time>2026-03-31T12:15:57.153Z</time></trkpt><trkpt lat="41.0913167" lon="-0.08453"><ele>278.0</ele><time>2026-03-31T12:15:58.153Z</time></trkpt><trkpt lat="41.0912667" lon="-0.084345"><ele>278.0</ele><time>2026-03-31T12:15:59.153Z</time></trkpt><trkpt lat="41.0912167" lon="-0.08417"><ele>278.0</ele><time>2026-03-31T12:16:00.153Z</time></trkpt><trkpt lat="41.0911667" lon="-0.0839967"><ele>278.0</ele><time>2026-03-31T12:16:01.153Z</time></trkpt><trkpt lat="41.0911233" lon="-0.0838283"><ele>278.0</ele><time>2026-03-31T12:16:02.153Z</time></trkpt><trkpt lat="41.0910783" lon="-0.0836617"><ele>277.75</ele><time>2026-03-31T12:16:03.152Z</time></trkpt><trkpt lat="41.0910267" lon="-0.0834883"><ele>277.5</ele><time>2026-03-31T12:16:04.152Z</time></trkpt><trkpt lat="41.0909767" lon="-0.0833117"><ele>277.25</ele><time>2026-03-31T12:16:05.152Z</time></trkpt><trkpt lat="41.0909267" lon="-0.0831383"><ele>277.0</ele><time>2026-03-31T12:16:06.153Z</time></trkpt><trkpt lat="41.0908717" lon="-0.0829567"><ele>276.5</ele><time>2026-03-31T12:16:07.152Z</time></trkpt><trkpt lat="41.090815" lon="-0.082775"><ele>276.0</ele><time>2026-03-31T12:16:08.152Z</time></trkpt><trkpt lat="41.09077" lon="-0.0826"><ele>275.5</ele><time>2026-03-31T12:16:09.152Z</time></trkpt><trkpt lat="41.0907283" lon="-0.08244"><ele>275.0</ele><time>2026-03-31T12:16:10.153Z</time></trkpt><trkpt lat="41.0906833" lon="-0.08228"><ele>273.75</ele><time>2026-03-31T12:16:11.153Z</time></trkpt><trkpt lat="41.090645" lon="-0.0821017"><ele>272.5</ele><time>2026-03-31T12:16:12.152Z</time></trkpt><trkpt lat="41.09061" lon="-0.081915"><ele>271.25</ele><time>2026-03-31T12:16:13.153Z</time></trkpt><trkpt lat="41.0905767" lon="-0.08172"><ele>270.0</ele><time>2026-03-31T12:16:14.152Z</time></trkpt><trkpt lat="41.0905517" lon="-0.0815217"><ele>269.6666666666667</ele><time>2026-03-31T12:16:15.153Z</time></trkpt><trkpt lat="41.090525" lon="-0.0813217"><ele>269.33333333333337</ele><time>2026-03-31T12:16:16.152Z</time></trkpt><trkpt lat="41.0904967" lon="-0.0811183"><ele>269.0</ele><time>2026-03-31T12:16:17.152Z</time></trkpt><trkpt lat="41.0904683" lon="-0.0809133"><ele>268.6666666666667</ele><time>2026-03-31T12:16:18.152Z</time></trkpt><trkpt lat="41.0904467" lon="-0.0807067"><ele>268.3333333333333</ele><time>2026-03-31T12:16:19.152Z</time></trkpt><trkpt lat="41.0904233" lon="-0.0804917"><ele>268.0</ele><time>2026-03-31T12:16:20.152Z</time></trkpt><trkpt lat="41.0904017" lon="-0.0802817"><ele>268.0</ele><time>2026-03-31T12:16:21.152Z</time></trkpt><trkpt lat="41.0903783" lon="-0.0800633"><ele>268.0</ele><time>2026-03-31T12:16:22.153Z</time></trkpt><trkpt lat="41.0903517" lon="-0.07985"><ele>268.0</ele><time>2026-03-31T12:16:23.153Z</time></trkpt><trkpt lat="41.0903333" lon="-0.07965"><ele>268.25</ele><time>2026-03-31T12:16:24.152Z</time></trkpt><trkpt lat="41.0903133" lon="-0.07946"><ele>268.5</ele><time>2026-03-31T12:16:25.152Z</time></trkpt><trkpt lat="41.0902883" lon="-0.07927"><ele>268.75</ele><time>2026-03-31T12:16:26.153Z</time></trkpt><trkpt lat="41.0902633" lon="-0.079075"><ele>269.0</ele><time>2026-03-31T12:16:27.153Z</time></trkpt><trkpt lat="41.090235" lon="-0.0788783"><ele>269.0</ele><time>2026-03-31T12:16:28.152Z</time></trkpt><trkpt lat="41.090205" lon="-0.0786967"><ele>269.0</ele><time>2026-03-31T12:16:29.153Z</time></trkpt><trkpt lat="41.0901767" lon="-0.07852"><ele>269.0</ele><time>2026-03-31T12:16:30.153Z</time></trkpt><trkpt lat="41.0901583" lon="-0.0783433"><ele>269.0</ele><time>2026-03-31T12:16:31.152Z</time></trkpt><trkpt lat="41.0901517" lon="-0.0781783"><ele>269.25</ele><time>2026-03-31T12:16:32.152Z</time></trkpt><trkpt lat="41.0901517" lon="-0.078015"><ele>269.5</ele><time>2026-03-31T12:16:33.152Z</time></trkpt><trkpt lat="41.0901683" lon="-0.077835"><ele>269.75</ele><time>2026-03-31T12:16:34.152Z</time></trkpt><trkpt lat="41.0901917" lon="-0.0776683"><ele>270.0</ele><time>2026-03-31T12:16:35.153Z</time></trkpt><trkpt lat="41.0902167" lon="-0.07749"><ele>269.5</ele><time>2026-03-31T12:16:36.153Z</time></trkpt><trkpt lat="41.090235" lon="-0.077315"><ele>269.0</ele><time>2026-03-31T12:16:37.153Z</time></trkpt><trkpt lat="41.09025" lon="-0.0771367"><ele>268.5</ele><time>2026-03-31T12:16:38.153Z</time></trkpt><trkpt lat="41.0902617" lon="-0.0769383"><ele>268.0</ele><time>2026-03-31T12:16:39.152Z</time></trkpt><trkpt lat="41.09027" lon="-0.0767483"><ele>268.5</ele><time>2026-03-31T12:16:40.153Z</time></trkpt><trkpt lat="41.0902867" lon="-0.076565"><ele>269.0</ele><time>2026-03-31T12:16:41.152Z</time></trkpt><trkpt lat="41.090305" lon="-0.0763917"><ele>269.5</ele><time>2026-03-31T12:16:42.152Z</time></trkpt><trkpt lat="41.09032" lon="-0.0762233"><ele>270.0</ele><time>2026-03-31T12:16:43.153Z</time></trkpt><trkpt lat="41.090335" lon="-0.076075"><ele>270.0</ele><time>2026-03-31T12:16:44.152Z</time></trkpt><trkpt lat="41.0903683" lon="-0.0759433"><ele>270.0</ele><time>2026-03-31T12:16:45.153Z</time></trkpt><trkpt lat="41.0904167" lon="-0.0758067"><ele>270.0</ele><time>2026-03-31T12:16:46.152Z</time></trkpt><trkpt lat="41.0904667" lon="-0.0756833"><ele>270.0</ele><time>2026-03-31T12:16:47.152Z</time></trkpt><trkpt lat="41.0905317" lon="-0.075565"><ele>270.0</ele><time>2026-03-31T12:16:48.152Z</time></trkpt><trkpt lat="41.0905967" lon="-0.0754567"><ele>269.8</ele><time>2026-03-31T12:16:49.153Z</time></trkpt><trkpt lat="41.0906633" lon="-0.0753583"><ele>269.6</ele><time>2026-03-31T12:16:50.152Z</time></trkpt><trkpt lat="41.0907417" lon="-0.075275"><ele>269.4</ele><time>2026-03-31T12:16:51.153Z</time></trkpt><trkpt lat="41.0908317" lon="-0.0752083"><ele>269.2</ele><time>2026-03-31T12:16:52.152Z</time></trkpt><trkpt lat="41.09093" lon="-0.07515"><ele>269.0</ele><time>2026-03-31T12:16:53.153Z</time></trkpt><trkpt lat="41.0910317" lon="-0.0751183"><ele>270.25</ele><time>2026-03-31T12:16:54.152Z</time></trkpt><trkpt lat="41.0911417" lon="-0.0751017"><ele>271.5</ele><time>2026-03-31T12:16:55.152Z</time></trkpt><trkpt lat="41.0912617" lon="-0.0750933"><ele>272.75</ele><time>2026-03-31T12:16:56.153Z</time></trkpt><trkpt lat="41.0913817" lon="-0.0750883"><ele>274.0</ele><time>2026-03-31T12:16:57.153Z</time></trkpt><trkpt lat="41.091515" lon="-0.0750933"><ele>274.75</ele><time>2026-03-31T12:16:58.152Z</time></trkpt><trkpt lat="41.09164" lon="-0.0751"><ele>275.5</ele><time>2026-03-31T12:16:59.153Z</time></trkpt><trkpt lat="41.0917617" lon="-0.0751117"><ele>276.25</ele><time>2026-03-31T12:17:00.153Z</time></trkpt><trkpt lat="41.091895" lon="-0.07512"><ele>277.0</ele><time>2026-03-31T12:17:01.152Z</time></trkpt><trkpt lat="41.0920183" lon="-0.0751167"><ele>277.0</ele><time>2026-03-31T12:17:02.152Z</time></trkpt><trkpt lat="41.09215" lon="-0.0751167"><ele>277.0</ele><time>2026-03-31T12:17:03.153Z</time></trkpt><trkpt lat="41.0922833" lon="-0.0751117"><ele>277.0</ele><time>2026-03-31T12:17:04.153Z</time></trkpt><trkpt lat="41.0924167" lon="-0.0751117"><ele>277.0</ele><time>2026-03-31T12:17:05.153Z</time></trkpt><trkpt lat="41.0925517" lon="-0.07512"><ele>277.0</ele><time>2026-03-31T12:17:06.153Z</time></trkpt><trkpt lat="41.092685" lon="-0.07512"><ele>277.0</ele><time>2026-03-31T12:17:07.152Z</time></trkpt><trkpt lat="41.092825" lon="-0.0751317"><ele>277.0</ele><time>2026-03-31T12:17:08.153Z</time></trkpt><trkpt lat="41.0929583" lon="-0.0751383"><ele>277.0</ele><time>2026-03-31T12:17:09.152Z</time></trkpt><trkpt lat="41.09309" lon="-0.07513"><ele>277.0</ele><time>2026-03-31T12:17:10.153Z</time></trkpt><trkpt lat="41.0932283" lon="-0.07511"><ele>277.0</ele><time>2026-03-31T12:17:11.153Z</time></trkpt><trkpt lat="41.0933683" lon="-0.0750817"><ele>277.0</ele><time>2026-03-31T12:17:12.152Z</time></trkpt><trkpt lat="41.0934983" lon="-0.0750383"><ele>277.0</ele><time>2026-03-31T12:17:13.152Z</time></trkpt><trkpt lat="41.0936283" lon="-0.0749933"><ele>277.75</ele><time>2026-03-31T12:17:14.152Z</time></trkpt><trkpt lat="41.09375" lon="-0.0749333"><ele>278.5</ele><time>2026-03-31T12:17:15.153Z</time></trkpt><trkpt lat="41.0938717" lon="-0.0748583"><ele>279.25</ele><time>2026-03-31T12:17:16.152Z</time></trkpt><trkpt lat="41.0939883" lon="-0.0747733"><ele>280.0</ele><time>2026-03-31T12:17:17.152Z</time></trkpt><trkpt lat="41.0940967" lon="-0.0746733"><ele>281.0</ele><time>2026-03-31T12:17:18.152Z</time></trkpt><trkpt lat="41.0941983" lon="-0.07458"><ele>282.0</ele><time>2026-03-31T12:17:19.152Z</time></trkpt><trkpt lat="41.09429" lon="-0.0744733"><ele>283.0</ele><time>2026-03-31T12:17:20.153Z</time></trkpt><trkpt lat="41.094375" lon="-0.074365"><ele>284.0</ele><time>2026-03-31T12:17:21.152Z</time></trkpt><trkpt lat="41.0944567" lon="-0.0742483"><ele>284.0</ele><time>2026-03-31T12:17:22.152Z</time></trkpt><trkpt lat="41.094545" lon="-0.0741383"><ele>284.0</ele><time>2026-03-31T12:17:23.153Z</time></trkpt><trkpt lat="41.0946267" lon="-0.0740417"><ele>284.0</ele><time>2026-03-31T12:17:24.152Z</time></trkpt><trkpt lat="41.0947017" lon="-0.0739667"><ele>284.0</ele><time>2026-03-31T12:17:25.152Z</time></trkpt><trkpt lat="41.0947817" lon="-0.0738933"><ele>284.0</ele><time>2026-03-31T12:17:26.153Z</time></trkpt><trkpt lat="41.0948633" lon="-0.0738233"><ele>282.4</ele><time>2026-03-31T12:17:27.152Z</time></trkpt><trkpt lat="41.0949533" lon="-0.0737683"><ele>280.79999999999995</ele><time>2026-03-31T12:17:28.152Z</time></trkpt><trkpt lat="41.0950483" lon="-0.0737317"><ele>279.20000000000005</ele><time>2026-03-31T12:17:29.152Z</time></trkpt><trkpt lat="41.0951333" lon="-0.073705"><ele>277.6</ele><time>2026-03-31T12:17:30.152Z</time></trkpt><trkpt lat="41.0952267" lon="-0.0737117"><ele>276.0</ele><time>2026-03-31T12:17:31.153Z</time></trkpt><trkpt lat="41.0953233" lon="-0.0737267"><ele>276.0</ele><time>2026-03-31T12:17:32.152Z</time></trkpt><trkpt lat="41.0954217" lon="-0.0737433"><ele>276.0</ele><time>2026-03-31T12:17:33.152Z</time></trkpt><trkpt lat="41.0955133" lon="-0.07377"><ele>276.0</ele><time>2026-03-31T12:17:34.152Z</time></trkpt><trkpt lat="41.0955967" lon="-0.0738083"><ele>276.0</ele><time>2026-03-31T12:17:35.152Z</time></trkpt><trkpt lat="41.0956733" lon="-0.0738617"><ele>276.0</ele><time>2026-03-31T12:17:36.152Z</time></trkpt><trkpt lat="41.09575" lon="-0.0739183"><ele>276.0</ele><time>2026-03-31T12:17:37.152Z</time></trkpt><trkpt lat="41.0958367" lon="-0.0739783"><ele>276.0</ele><time>2026-03-31T12:17:38.153Z</time></trkpt><trkpt lat="41.0959333" lon="-0.07403"><ele>276.0</ele><time>2026-03-31T12:17:39.153Z</time></trkpt><trkpt lat="41.09603" lon="-0.07409"><ele>276.0</ele><time>2026-03-31T12:17:40.153Z</time></trkpt><trkpt lat="41.09613" lon="-0.0741483"><ele>276.0</ele><time>2026-03-31T12:17:41.152Z</time></trkpt><trkpt lat="41.0962183" lon="-0.0741983"><ele>276.8</ele><time>2026-03-31T12:17:42.152Z</time></trkpt><trkpt lat="41.0963017" lon="-0.074245"><ele>277.6</ele><time>2026-03-31T12:17:43.153Z</time></trkpt><trkpt lat="41.0963783" lon="-0.0743"><ele>278.4</ele><time>2026-03-31T12:17:44.152Z</time></trkpt><trkpt lat="41.0964683" lon="-0.074345"><ele>279.2</ele><time>2026-03-31T12:17:45.153Z</time></trkpt><trkpt lat="41.0965567" lon="-0.0743783"><ele>280.0</ele><time>2026-03-31T12:17:46.153Z</time></trkpt><trkpt lat="41.0966583" lon="-0.0744083"><ele>280.0</ele><time>2026-03-31T12:17:47.152Z</time></trkpt><trkpt lat="41.096765" lon="-0.07444"><ele>280.0</ele><time>2026-03-31T12:17:48.153Z</time></trkpt><trkpt lat="41.0968783" lon="-0.0744533"><ele>280.0</ele><time>2026-03-31T12:17:49.153Z</time></trkpt><trkpt lat="41.0969867" lon="-0.0744567"><ele>280.0</ele><time>2026-03-31T12:17:50.153Z</time></trkpt><trkpt lat="41.0970817" lon="-0.0744417"><ele>280.0</ele><time>2026-03-31T12:17:51.153Z</time></trkpt><trkpt lat="41.0971783" lon="-0.0744117"><ele>280.0</ele><time>2026-03-31T12:17:52.153Z</time></trkpt><trkpt lat="41.0972783" lon="-0.0743633"><ele>280.0</ele><time>2026-03-31T12:17:53.153Z</time></trkpt><trkpt lat="41.0973883" lon="-0.0743033"><ele>280.0</ele><time>2026-03-31T12:17:54.152Z</time></trkpt><trkpt lat="41.09749" lon="-0.0742283"><ele>280.0</ele><time>2026-03-31T12:17:55.153Z</time></trkpt><trkpt lat="41.097595" lon="-0.0741433"><ele>276.25</ele><time>2026-03-31T12:17:56.153Z</time></trkpt><trkpt lat="41.097705" lon="-0.0740533"><ele>272.5</ele><time>2026-03-31T12:17:57.152Z</time></trkpt><trkpt lat="41.0978133" lon="-0.0739583"><ele>268.75</ele><time>2026-03-31T12:17:58.152Z</time></trkpt><trkpt lat="41.0979217" lon="-0.0738517"><ele>265.0</ele><time>2026-03-31T12:17:59.153Z</time></trkpt><trkpt lat="41.0980317" lon="-0.0737483"><ele>265.0</ele><time>2026-03-31T12:18:00.153Z</time></trkpt><trkpt lat="41.098135" lon="-0.0736383"><ele>265.0</ele><time>2026-03-31T12:18:01.153Z</time></trkpt><trkpt lat="41.0982367" lon="-0.073535"><ele>265.0</ele><time>2026-03-31T12:18:02.152Z</time></trkpt><trkpt lat="41.098325" lon="-0.073425"><ele>265.0</ele><time>2026-03-31T12:18:03.153Z</time></trkpt><trkpt lat="41.0984083" lon="-0.0733067"><ele>265.5</ele><time>2026-03-31T12:18:04.153Z</time></trkpt><trkpt lat="41.0984917" lon="-0.073175"><ele>266.0</ele><time>2026-03-31T12:18:05.152Z</time></trkpt><trkpt lat="41.0985717" lon="-0.073045"><ele>266.5</ele><time>2026-03-31T12:18:06.152Z</time></trkpt><trkpt lat="41.0986383" lon="-0.0729133"><ele>267.0</ele><time>2026-03-31T12:18:07.152Z</time></trkpt><trkpt lat="41.0987083" lon="-0.07278"><ele>267.0</ele><time>2026-03-31T12:18:08.152Z</time></trkpt><trkpt lat="41.0987833" lon="-0.0726483"><ele>267.0</ele><time>2026-03-31T12:18:09.153Z</time></trkpt><trkpt lat="41.09886" lon="-0.0725033"><ele>267.0</ele><time>2026-03-31T12:18:10.152Z</time></trkpt><trkpt lat="41.0989367" lon="-0.07236"><ele>267.0</ele><time>2026-03-31T12:18:11.153Z</time></trkpt><trkpt lat="41.09901" lon="-0.0722267"><ele>268.5</ele><time>2026-03-31T12:18:12.152Z</time></trkpt><trkpt lat="41.0990883" lon="-0.07208"><ele>270.0</ele><time>2026-03-31T12:18:13.153Z</time></trkpt><trkpt lat="41.09917" lon="-0.07193"><ele>271.5</ele><time>2026-03-31T12:18:14.153Z</time></trkpt><trkpt lat="41.09925" lon="-0.0717867"><ele>273.0</ele><time>2026-03-31T12:18:15.153Z</time></trkpt><trkpt lat="41.0993217" lon="-0.071655"><ele>274.25</ele><time>2026-03-31T12:18:16.152Z</time></trkpt><trkpt lat="41.0993983" lon="-0.0715167"><ele>275.5</ele><time>2026-03-31T12:18:17.153Z</time></trkpt><trkpt lat="41.099475" lon="-0.07138"><ele>276.75</ele><time>2026-03-31T12:18:18.153Z</time></trkpt><trkpt lat="41.0995483" lon="-0.07124"><ele>278.0</ele><time>2026-03-31T12:18:19.152Z</time></trkpt><trkpt lat="41.09962" lon="-0.071095"><ele>278.0</ele><time>2026-03-31T12:18:20.153Z</time></trkpt><trkpt lat="41.0996983" lon="-0.0709533"><ele>278.0</ele><time>2026-03-31T12:18:21.152Z</time></trkpt><trkpt lat="41.0997767" lon="-0.0708133"><ele>278.0</ele><time>2026-03-31T12:18:22.152Z</time></trkpt><trkpt lat="41.099845" lon="-0.0706717"><ele>278.0</ele><time>2026-03-31T12:18:23.152Z</time></trkpt><trkpt lat="41.0999033" lon="-0.0705267"><ele>278.75</ele><time>2026-03-31T12:18:24.152Z</time></trkpt><trkpt lat="41.0999567" lon="-0.07038"><ele>279.5</ele><time>2026-03-31T12:18:25.153Z</time></trkpt><trkpt lat="41.100005" lon="-0.0702233"><ele>280.25</ele><time>2026-03-31T12:18:26.152Z</time></trkpt><trkpt lat="41.1000533" lon="-0.0700617"><ele>281.0</ele><time>2026-03-31T12:18:27.152Z</time></trkpt><trkpt lat="41.1000917" lon="-0.0698933"><ele>281.0</ele><time>2026-03-31T12:18:28.152Z</time></trkpt><trkpt lat="41.10013" lon="-0.0697217"><ele>281.0</ele><time>2026-03-31T12:18:29.152Z</time></trkpt><trkpt lat="41.1001683" lon="-0.0695433"><ele>281.0</ele><time>2026-03-31T12:18:30.153Z</time></trkpt><trkpt lat="41.1002083" lon="-0.0693583"><ele>281.0</ele><time>2026-03-31T12:18:31.152Z</time></trkpt><trkpt lat="41.10025" lon="-0.0691667"><ele>280.25</ele><time>2026-03-31T12:18:32.153Z</time></trkpt><trkpt lat="41.1002833" lon="-0.068975"><ele>279.5</ele><time>2026-03-31T12:18:33.152Z</time></trkpt><trkpt lat="41.1003217" lon="-0.0687883"><ele>278.75</ele><time>2026-03-31T12:18:34.152Z</time></trkpt><trkpt lat="41.1003567" lon="-0.06861"><ele>278.0</ele><time>2026-03-31T12:18:35.153Z</time></trkpt><trkpt lat="41.10039" lon="-0.0684417"><ele>277.25</ele><time>2026-03-31T12:18:36.152Z</time></trkpt><trkpt lat="41.1004217" lon="-0.068275"><ele>276.5</ele><time>2026-03-31T12:18:37.152Z</time></trkpt><trkpt lat="41.1004567" lon="-0.0681133"><ele>275.75</ele><time>2026-03-31T12:18:38.153Z</time></trkpt><trkpt lat="41.1004967" lon="-0.0679583"><ele>275.0</ele><time>2026-03-31T12:18:39.152Z</time></trkpt><trkpt lat="41.100535" lon="-0.067815"><ele>275.0</ele><time>2026-03-31T12:18:40.152Z</time></trkpt><trkpt lat="41.1005767" lon="-0.0676817"><ele>275.0</ele><time>2026-03-31T12:18:41.153Z</time></trkpt><trkpt lat="41.100625" lon="-0.06757"><ele>275.0</ele><time>2026-03-31T12:18:42.153Z</time></trkpt><trkpt lat="41.1006717" lon="-0.0674733"><ele>275.0</ele><time>2026-03-31T12:18:43.153Z</time></trkpt><trkpt lat="41.10073" lon="-0.067385"><ele>275.0</ele><time>2026-03-31T12:18:44.153Z</time></trkpt><trkpt lat="41.1008017" lon="-0.0673133"><ele>274.4</ele><time>2026-03-31T12:18:45.152Z</time></trkpt><trkpt lat="41.1008733" lon="-0.0672367"><ele>273.8</ele><time>2026-03-31T12:18:46.153Z</time></trkpt><trkpt lat="41.10095" lon="-0.0671767"><ele>273.2</ele><time>2026-03-31T12:18:47.152Z</time></trkpt><trkpt lat="41.1010333" lon="-0.0671283"><ele>272.6</ele><time>2026-03-31T12:18:48.153Z</time></trkpt><trkpt lat="41.1011167" lon="-0.067085"><ele>272.0</ele><time>2026-03-31T12:18:49.153Z</time></trkpt><trkpt lat="41.101205" lon="-0.0670517"><ele>272.0</ele><time>2026-03-31T12:18:50.153Z</time></trkpt><trkpt lat="41.1012933" lon="-0.0670333"><ele>272.0</ele><time>2026-03-31T12:18:51.152Z</time></trkpt><trkpt lat="41.1013967" lon="-0.0670267"><ele>272.0</ele><time>2026-03-31T12:18:52.153Z</time></trkpt><trkpt lat="41.101495" lon="-0.0670283"><ele>272.0</ele><time>2026-03-31T12:18:53.153Z</time></trkpt><trkpt lat="41.1015883" lon="-0.06704"><ele>272.0</ele><time>2026-03-31T12:18:54.152Z</time></trkpt><trkpt lat="41.1016817" lon="-0.06705"><ele>270.8</ele><time>2026-03-31T12:18:55.152Z</time></trkpt><trkpt lat="41.1017833" lon="-0.067065"><ele>269.6</ele><time>2026-03-31T12:18:56.153Z</time></trkpt><trkpt lat="41.1018867" lon="-0.06707"><ele>268.40000000000003</ele><time>2026-03-31T12:18:57.153Z</time></trkpt><trkpt lat="41.1019967" lon="-0.0670683"><ele>267.2</ele><time>2026-03-31T12:18:58.152Z</time></trkpt><trkpt lat="41.1021083" lon="-0.067055"><ele>266.0</ele><time>2026-03-31T12:18:59.153Z</time></trkpt><trkpt lat="41.1022183" lon="-0.0670267"><ele>266.0</ele><time>2026-03-31T12:19:00.153Z</time></trkpt><trkpt lat="41.1023183" lon="-0.066975"><ele>266.0</ele><time>2026-03-31T12:19:01.152Z</time></trkpt><trkpt lat="41.102415" lon="-0.0669183"><ele>266.0</ele><time>2026-03-31T12:19:02.152Z</time></trkpt><trkpt lat="41.102505" lon="-0.0668517"><ele>266.0</ele><time>2026-03-31T12:19:03.153Z</time></trkpt><trkpt lat="41.1025867" lon="-0.0667633"><ele>266.0</ele><time>2026-03-31T12:19:04.153Z</time></trkpt><trkpt lat="41.102675" lon="-0.0666717"><ele>265.5</ele><time>2026-03-31T12:19:05.153Z</time></trkpt><trkpt lat="41.102755" lon="-0.0665633"><ele>265.0</ele><time>2026-03-31T12:19:06.152Z</time></trkpt><trkpt lat="41.1028383" lon="-0.0664533"><ele>264.5</ele><time>2026-03-31T12:19:07.152Z</time></trkpt><trkpt lat="41.1029117" lon="-0.06634"><ele>264.0</ele><time>2026-03-31T12:19:08.152Z</time></trkpt><trkpt lat="41.1029783" lon="-0.0661983"><ele>264.0</ele><time>2026-03-31T12:19:09.152Z</time></trkpt><trkpt lat="41.1030383" lon="-0.0660583"><ele>264.0</ele><time>2026-03-31T12:19:10.152Z</time></trkpt><trkpt lat="41.1030833" lon="-0.06591"><ele>264.0</ele><time>2026-03-31T12:19:11.153Z</time></trkpt><trkpt lat="41.10312" lon="-0.0657617"><ele>264.0</ele><time>2026-03-31T12:19:12.153Z</time></trkpt><trkpt lat="41.1031417" lon="-0.065615"><ele>264.5</ele><time>2026-03-31T12:19:13.152Z</time></trkpt><trkpt lat="41.1031617" lon="-0.0654683"><ele>265.0</ele><time>2026-03-31T12:19:14.152Z</time></trkpt><trkpt lat="41.1031767" lon="-0.06532"><ele>265.5</ele><time>2026-03-31T12:19:15.153Z</time></trkpt><trkpt lat="41.103175" lon="-0.0651717"><ele>266.0</ele><time>2026-03-31T12:19:16.152Z</time></trkpt><trkpt lat="41.1031783" lon="-0.0650117"><ele>266.0</ele><time>2026-03-31T12:19:17.152Z</time></trkpt><trkpt lat="41.1031667" lon="-0.06486"><ele>266.0</ele><time>2026-03-31T12:19:18.153Z</time></trkpt><trkpt lat="41.1031533" lon="-0.0647017"><ele>266.0</ele><time>2026-03-31T12:19:19.152Z</time></trkpt><trkpt lat="41.1031483" lon="-0.06455"><ele>266.0</ele><time>2026-03-31T12:19:20.152Z</time></trkpt><trkpt lat="41.1031533" lon="-0.0644017"><ele>266.0</ele><time>2026-03-31T12:19:21.152Z</time></trkpt><trkpt lat="41.1031617" lon="-0.0642533"><ele>266.0</ele><time>2026-03-31T12:19:22.153Z</time></trkpt><trkpt lat="41.10318" lon="-0.064105"><ele>266.0</ele><time>2026-03-31T12:19:23.152Z</time></trkpt><trkpt lat="41.1032" lon="-0.063965"><ele>266.0</ele><time>2026-03-31T12:19:24.152Z</time></trkpt><trkpt lat="41.1032317" lon="-0.063825"><ele>266.0</ele><time>2026-03-31T12:19:25.153Z</time></trkpt><trkpt lat="41.1032783" lon="-0.0636883"><ele>266.0</ele><time>2026-03-31T12:19:26.153Z</time></trkpt><trkpt lat="41.10334" lon="-0.0635583"><ele>266.0</ele><time>2026-03-31T12:19:27.153Z</time></trkpt><trkpt lat="41.1034017" lon="-0.0634267"><ele>266.0</ele><time>2026-03-31T12:19:28.152Z</time></trkpt><trkpt lat="41.1034767" lon="-0.0633033"><ele>266.0</ele><time>2026-03-31T12:19:29.152Z</time></trkpt><trkpt lat="41.1035517" lon="-0.0631867"><ele>266.0</ele><time>2026-03-31T12:19:30.152Z</time></trkpt><trkpt lat="41.1036267" lon="-0.06308"><ele>266.0</ele><time>2026-03-31T12:19:31.152Z</time></trkpt><trkpt lat="41.103705" lon="-0.0629917"><ele>266.0</ele><time>2026-03-31T12:19:32.152Z</time></trkpt><trkpt lat="41.10379" lon="-0.0629033"><ele>266.0</ele><time>2026-03-31T12:19:33.152Z</time></trkpt><trkpt lat="41.1038817" lon="-0.0628267"><ele>266.0</ele><time>2026-03-31T12:19:34.152Z</time></trkpt><trkpt lat="41.10399" lon="-0.0627667"><ele>268.5</ele><time>2026-03-31T12:19:35.153Z</time></trkpt><trkpt lat="41.1041017" lon="-0.06271"><ele>271.0</ele><time>2026-03-31T12:19:36.152Z</time></trkpt><trkpt lat="41.104205" lon="-0.06265"><ele>273.5</ele><time>2026-03-31T12:19:37.152Z</time></trkpt><trkpt lat="41.1043133" lon="-0.0626017"><ele>276.0</ele><time>2026-03-31T12:19:38.152Z</time></trkpt><trkpt lat="41.10443" lon="-0.0625583"><ele>276.0</ele><time>2026-03-31T12:19:39.153Z</time></trkpt><trkpt lat="41.10454" lon="-0.0625017"><ele>276.0</ele><time>2026-03-31T12:19:40.153Z</time></trkpt><trkpt lat="41.1046417" lon="-0.0624483"><ele>276.0</ele><time>2026-03-31T12:19:41.153Z</time></trkpt><trkpt lat="41.10475" lon="-0.0623983"><ele>276.0</ele><time>2026-03-31T12:19:42.152Z</time></trkpt><trkpt lat="41.1048433" lon="-0.0623383"><ele>276.0</ele><time>2026-03-31T12:19:43.153Z</time></trkpt><trkpt lat="41.10493" lon="-0.062285"><ele>275.0</ele><time>2026-03-31T12:19:44.152Z</time></trkpt><trkpt lat="41.1050067" lon="-0.0622267"><ele>274.0</ele><time>2026-03-31T12:19:45.152Z</time></trkpt><trkpt lat="41.1050817" lon="-0.0621517"><ele>273.0</ele><time>2026-03-31T12:19:46.152Z</time></trkpt><trkpt lat="41.10516" lon="-0.062065"><ele>272.0</ele><time>2026-03-31T12:19:47.153Z</time></trkpt><trkpt lat="41.1052433" lon="-0.06197"><ele>271.0</ele><time>2026-03-31T12:19:48.153Z</time></trkpt><trkpt lat="41.1053217" lon="-0.0618683"><ele>271.0</ele><time>2026-03-31T12:19:49.153Z</time></trkpt><trkpt lat="41.1053933" lon="-0.0617567"><ele>271.0</ele><time>2026-03-31T12:19:50.153Z</time></trkpt><trkpt lat="41.10545" lon="-0.0616217"><ele>271.0</ele><time>2026-03-31T12:19:51.152Z</time></trkpt><trkpt lat="41.1055067" lon="-0.0614767"><ele>271.0</ele><time>2026-03-31T12:19:52.152Z</time></trkpt><trkpt lat="41.1055533" lon="-0.0613217"><ele>270.40000000000003</ele><time>2026-03-31T12:19:53.152Z</time></trkpt><trkpt lat="41.10559" lon="-0.06117"><ele>269.8</ele><time>2026-03-31T12:19:54.153Z</time></trkpt><trkpt lat="41.1056333" lon="-0.061035"><ele>269.20000000000005</ele><time>2026-03-31T12:19:55.153Z</time></trkpt><trkpt lat="41.105685" lon="-0.06092"><ele>268.6</ele><time>2026-03-31T12:19:56.152Z</time></trkpt><trkpt lat="41.1057383" lon="-0.0608233"><ele>268.0</ele><time>2026-03-31T12:19:57.152Z</time></trkpt><trkpt lat="41.1057983" lon="-0.06072"><ele>269.4</ele><time>2026-03-31T12:19:58.152Z</time></trkpt><trkpt lat="41.1058667" lon="-0.0606267"><ele>270.8</ele><time>2026-03-31T12:19:59.153Z</time></trkpt><trkpt lat="41.105945" lon="-0.0605383"><ele>272.2</ele><time>2026-03-31T12:20:00.152Z</time></trkpt><trkpt lat="41.1060283" lon="-0.0604567"><ele>273.6</ele><time>2026-03-31T12:20:01.153Z</time></trkpt><trkpt lat="41.1061183" lon="-0.0603733"><ele>275.0</ele><time>2026-03-31T12:20:02.152Z</time></trkpt><trkpt lat="41.1062167" lon="-0.0602933"><ele>275.0</ele><time>2026-03-31T12:20:03.153Z</time></trkpt><trkpt lat="41.1063167" lon="-0.0602233"><ele>275.0</ele><time>2026-03-31T12:20:04.153Z</time></trkpt><trkpt lat="41.1064133" lon="-0.0601567"><ele>275.0</ele><time>2026-03-31T12:20:05.153Z</time></trkpt><trkpt lat="41.1065033" lon="-0.0601017"><ele>275.0</ele><time>2026-03-31T12:20:06.153Z</time></trkpt><trkpt lat="41.1065817" lon="-0.0600533"><ele>275.0</ele><time>2026-03-31T12:20:07.152Z</time></trkpt><trkpt lat="41.1066417" lon="-0.0600117"><ele>276.2</ele><time>2026-03-31T12:20:08.152Z</time></trkpt><trkpt lat="41.106725" lon="-0.059965"><ele>277.4</ele><time>2026-03-31T12:20:10.153Z</time></trkpt><trkpt lat="41.1068033" lon="-0.060025"><ele>278.6</ele><time>2026-03-31T12:20:14.152Z</time></trkpt><trkpt lat="41.10686" lon="-0.0601667"><ele>279.8</ele><time>2026-03-31T12:20:16.152Z</time></trkpt><trkpt lat="41.1069" lon="-0.060245"><ele>281.0</ele><time>2026-03-31T12:20:17.153Z</time></trkpt><trkpt lat="41.10694" lon="-0.0603383"><ele>281.0</ele><time>2026-03-31T12:20:18.152Z</time></trkpt><trkpt lat="41.106985" lon="-0.0604367"><ele>281.0</ele><time>2026-03-31T12:20:19.152Z</time></trkpt><trkpt lat="41.107035" lon="-0.0605367"><ele>281.0</ele><time>2026-03-31T12:20:20.153Z</time></trkpt><trkpt lat="41.1070783" lon="-0.0606467"><ele>281.0</ele><time>2026-03-31T12:20:21.152Z</time></trkpt><trkpt lat="41.1071283" lon="-0.0607517"><ele>281.0</ele><time>2026-03-31T12:20:22.152Z</time></trkpt><trkpt lat="41.107175" lon="-0.060855"><ele>281.2</ele><time>2026-03-31T12:20:23.152Z</time></trkpt><trkpt lat="41.1072183" lon="-0.0609617"><ele>281.40000000000003</ele><time>2026-03-31T12:20:24.152Z</time></trkpt><trkpt lat="41.1072667" lon="-0.061065"><ele>281.6</ele><time>2026-03-31T12:20:25.152Z</time></trkpt><trkpt lat="41.1073167" lon="-0.0611783"><ele>281.8</ele><time>2026-03-31T12:20:26.152Z</time></trkpt><trkpt lat="41.1073717" lon="-0.0612917"><ele>282.0</ele><time>2026-03-31T12:20:27.151Z</time></trkpt><trkpt lat="41.107425" lon="-0.06141"><ele>282.0</ele><time>2026-03-31T12:20:28.151Z</time></trkpt><trkpt lat="41.1074767" lon="-0.06153"><ele>282.0</ele><time>2026-03-31T12:20:29.151Z</time></trkpt><trkpt lat="41.1075283" lon="-0.0616533"><ele>282.0</ele><time>2026-03-31T12:20:30.151Z</time></trkpt><trkpt lat="41.1075833" lon="-0.06178"><ele>282.0</ele><time>2026-03-31T12:20:31.151Z</time></trkpt><trkpt lat="41.10764" lon="-0.0619117"><ele>282.0</ele><time>2026-03-31T12:20:32.151Z</time></trkpt><trkpt lat="41.1076967" lon="-0.0620417"><ele>282.8</ele><time>2026-03-31T12:20:33.152Z</time></trkpt><trkpt lat="41.1077517" lon="-0.062175"><ele>283.6</ele><time>2026-03-31T12:20:34.151Z</time></trkpt><trkpt lat="41.1078067" lon="-0.0623033"><ele>284.40000000000003</ele><time>2026-03-31T12:20:35.152Z</time></trkpt><trkpt lat="41.1078517" lon="-0.0624183"><ele>285.2</ele><time>2026-03-31T12:20:36.151Z</time></trkpt><trkpt lat="41.1078867" lon="-0.0625217"><ele>286.0</ele><time>2026-03-31T12:20:37.151Z</time></trkpt><trkpt lat="41.10792" lon="-0.0626033"><ele>286.8</ele><time>2026-03-31T12:20:38.152Z</time></trkpt><trkpt lat="41.1079917" lon="-0.06273"><ele>287.6</ele><time>2026-03-31T12:20:40.152Z</time></trkpt><trkpt lat="41.1080717" lon="-0.0628283"><ele>288.4</ele><time>2026-03-31T12:20:42.152Z</time></trkpt><trkpt lat="41.1081267" lon="-0.0628767"><ele>289.2</ele><time>2026-03-31T12:20:43.151Z</time></trkpt><trkpt lat="41.108195" lon="-0.0629267"><ele>290.0</ele><time>2026-03-31T12:20:44.151Z</time></trkpt><trkpt lat="41.10827" lon="-0.06297"><ele>288.2</ele><time>2026-03-31T12:20:45.151Z</time></trkpt><trkpt lat="41.10835" lon="-0.0630033"><ele>286.4</ele><time>2026-03-31T12:20:46.152Z</time></trkpt><trkpt lat="41.108435" lon="-0.0630283"><ele>284.6</ele><time>2026-03-31T12:20:47.152Z</time></trkpt><trkpt lat="41.1085267" lon="-0.063045"><ele>282.8</ele><time>2026-03-31T12:20:48.152Z</time></trkpt><trkpt lat="41.1086333" lon="-0.063065"><ele>281.0</ele><time>2026-03-31T12:20:49.151Z</time></trkpt><trkpt lat="41.1087467" lon="-0.06308"><ele>281.0</ele><time>2026-03-31T12:20:50.152Z</time></trkpt><trkpt lat="41.1088583" lon="-0.0630983"><ele>281.0</ele><time>2026-03-31T12:20:51.152Z</time></trkpt><trkpt lat="41.10897" lon="-0.063115"><ele>281.0</ele><time>2026-03-31T12:20:52.152Z</time></trkpt><trkpt lat="41.1090767" lon="-0.0631317"><ele>281.0</ele><time>2026-03-31T12:20:53.151Z</time></trkpt><trkpt lat="41.109185" lon="-0.06315"><ele>281.0</ele><time>2026-03-31T12:20:54.152Z</time></trkpt><trkpt lat="41.109295" lon="-0.06316"><ele>280.0</ele><time>2026-03-31T12:20:55.152Z</time></trkpt><trkpt lat="41.10941" lon="-0.0631833"><ele>279.0</ele><time>2026-03-31T12:20:56.151Z</time></trkpt><trkpt lat="41.1095233" lon="-0.0631983"><ele>278.0</ele><time>2026-03-31T12:20:57.151Z</time></trkpt><trkpt lat="41.1096317" lon="-0.06322"><ele>277.0</ele><time>2026-03-31T12:20:58.152Z</time></trkpt><trkpt lat="41.1097467" lon="-0.0632433"><ele>277.0</ele><time>2026-03-31T12:20:59.152Z</time></trkpt><trkpt lat="41.109865" lon="-0.063255"><ele>277.0</ele><time>2026-03-31T12:21:00.151Z</time></trkpt><trkpt lat="41.1099733" lon="-0.063265"><ele>277.0</ele><time>2026-03-31T12:21:01.152Z</time></trkpt><trkpt lat="41.1100833" lon="-0.063275"><ele>277.0</ele><time>2026-03-31T12:21:02.151Z</time></trkpt><trkpt lat="41.110195" lon="-0.0632967"><ele>277.75</ele><time>2026-03-31T12:21:03.152Z</time></trkpt><trkpt lat="41.1103133" lon="-0.0633183"><ele>278.5</ele><time>2026-03-31T12:21:04.151Z</time></trkpt><trkpt lat="41.11043" lon="-0.06334"><ele>279.25</ele><time>2026-03-31T12:21:05.152Z</time></trkpt><trkpt lat="41.110545" lon="-0.06336"><ele>280.0</ele><time>2026-03-31T12:21:06.151Z</time></trkpt><trkpt lat="41.11066" lon="-0.06338"><ele>280.5</ele><time>2026-03-31T12:21:07.151Z</time></trkpt><trkpt lat="41.110785" lon="-0.0633933"><ele>281.0</ele><time>2026-03-31T12:21:08.151Z</time></trkpt><trkpt lat="41.11091" lon="-0.063405"><ele>281.5</ele><time>2026-03-31T12:21:09.151Z</time></trkpt><trkpt lat="41.1110367" lon="-0.063425"><ele>282.0</ele><time>2026-03-31T12:21:10.152Z</time></trkpt><trkpt lat="41.1111583" lon="-0.0634483"><ele>282.0</ele><time>2026-03-31T12:21:11.152Z</time></trkpt><trkpt lat="41.1112883" lon="-0.0634667"><ele>282.0</ele><time>2026-03-31T12:21:12.151Z</time></trkpt><trkpt lat="41.1114133" lon="-0.0634867"><ele>282.0</ele><time>2026-03-31T12:21:13.152Z</time></trkpt><trkpt lat="41.1115417" lon="-0.0635133"><ele>282.0</ele><time>2026-03-31T12:21:14.151Z</time></trkpt><trkpt lat="41.11167" lon="-0.063545"><ele>282.8</ele><time>2026-03-31T12:21:15.151Z</time></trkpt><trkpt lat="41.11179" lon="-0.063565"><ele>283.6</ele><time>2026-03-31T12:21:16.151Z</time></trkpt><trkpt lat="41.1118983" lon="-0.0635767"><ele>284.40000000000003</ele><time>2026-03-31T12:21:17.151Z</time></trkpt><trkpt lat="41.111995" lon="-0.0635967"><ele>285.2</ele><time>2026-03-31T12:21:18.152Z</time></trkpt><trkpt lat="41.1120883" lon="-0.06362"><ele>286.0</ele><time>2026-03-31T12:21:19.151Z</time></trkpt><trkpt lat="41.112175" lon="-0.063635"><ele>286.0</ele><time>2026-03-31T12:21:20.152Z</time></trkpt><trkpt lat="41.112255" lon="-0.063635"><ele>286.0</ele><time>2026-03-31T12:21:21.151Z</time></trkpt><trkpt lat="41.11234" lon="-0.0636217"><ele>286.0</ele><time>2026-03-31T12:21:22.151Z</time></trkpt><trkpt lat="41.11244" lon="-0.06361"><ele>286.0</ele><time>2026-03-31T12:21:23.152Z</time></trkpt><trkpt lat="41.112545" lon="-0.063575"><ele>286.0</ele><time>2026-03-31T12:21:24.152Z</time></trkpt><trkpt lat="41.1126533" lon="-0.06354"><ele>287.0</ele><time>2026-03-31T12:21:25.151Z</time></trkpt><trkpt lat="41.1127683" lon="-0.0635067"><ele>288.0</ele><time>2026-03-31T12:21:26.151Z</time></trkpt><trkpt lat="41.1128783" lon="-0.06347"><ele>289.0</ele><time>2026-03-31T12:21:27.151Z</time></trkpt><trkpt lat="41.1129783" lon="-0.063435"><ele>290.0</ele><time>2026-03-31T12:21:28.152Z</time></trkpt><trkpt lat="41.11307" lon="-0.0633967"><ele>291.0</ele><time>2026-03-31T12:21:29.151Z</time></trkpt><trkpt lat="41.1131583" lon="-0.0633633"><ele>291.0</ele><time>2026-03-31T12:21:30.152Z</time></trkpt><trkpt lat="41.1132367" lon="-0.0633433"><ele>291.0</ele><time>2026-03-31T12:21:31.152Z</time></trkpt><trkpt lat="41.11331" lon="-0.0633167"><ele>291.0</ele><time>2026-03-31T12:21:32.152Z</time></trkpt><trkpt lat="41.11339" lon="-0.0632933"><ele>291.0</ele><time>2026-03-31T12:21:33.151Z</time></trkpt><trkpt lat="41.1134717" lon="-0.063265"><ele>291.0</ele><time>2026-03-31T12:21:34.151Z</time></trkpt><trkpt lat="41.1135533" lon="-0.0632483"><ele>291.0</ele><time>2026-03-31T12:21:35.152Z</time></trkpt><trkpt lat="41.1136433" lon="-0.0632167"><ele>289.8333333333333</ele><time>2026-03-31T12:21:36.151Z</time></trkpt><trkpt lat="41.1137367" lon="-0.0631817"><ele>288.6666666666667</ele><time>2026-03-31T12:21:37.151Z</time></trkpt><trkpt lat="41.11383" lon="-0.0631433"><ele>287.5</ele><time>2026-03-31T12:21:38.151Z</time></trkpt><trkpt lat="41.1139167" lon="-0.06311"><ele>286.33333333333337</ele><time>2026-03-31T12:21:39.151Z</time></trkpt><trkpt lat="41.114" lon="-0.0630767"><ele>285.1666666666667</ele><time>2026-03-31T12:21:40.151Z</time></trkpt><trkpt lat="41.114075" lon="-0.0630533"><ele>284.0</ele><time>2026-03-31T12:21:41.151Z</time></trkpt><trkpt lat="41.1141367" lon="-0.0630333"><ele>284.0</ele><time>2026-03-31T12:21:42.151Z</time></trkpt><trkpt lat="41.11421" lon="-0.063025"><ele>284.0</ele><time>2026-03-31T12:21:44.152Z</time></trkpt><trkpt lat="41.1141017" lon="-0.0630167"><ele>284.0</ele><time>2026-03-31T12:22:58.151Z</time></trkpt><trkpt lat="41.11403" lon="-0.0630417"><ele>284.0</ele><time>2026-03-31T12:22:59.152Z</time></trkpt><trkpt lat="41.1139567" lon="-0.0630683"><ele>284.0</ele><time>2026-03-31T12:23:00.152Z</time></trkpt><trkpt lat="41.1138733" lon="-0.06309"><ele>284.0</ele><time>2026-03-31T12:23:01.151Z</time></trkpt><trkpt lat="41.1137833" lon="-0.0631183"><ele>284.0</ele><time>2026-03-31T12:23:02.151Z</time></trkpt><trkpt lat="41.1136883" lon="-0.0631517"><ele>284.0</ele><time>2026-03-31T12:23:03.152Z</time></trkpt><trkpt lat="41.1135983" lon="-0.0631883"><ele>284.0</ele><time>2026-03-31T12:23:04.152Z</time></trkpt><trkpt lat="41.1135083" lon="-0.063235"><ele>284.0</ele><time>2026-03-31T12:23:05.152Z</time></trkpt><trkpt lat="41.1134083" lon="-0.0632767"><ele>284.0</ele><time>2026-03-31T12:23:06.152Z</time></trkpt><trkpt lat="41.11331" lon="-0.0633133"><ele>285.75</ele><time>2026-03-31T12:23:07.151Z</time></trkpt><trkpt lat="41.1132083" lon="-0.0633483"><ele>287.5</ele><time>2026-03-31T12:23:08.151Z</time></trkpt><trkpt lat="41.1130983" lon="-0.0633933"><ele>289.25</ele><time>2026-03-31T12:23:09.152Z</time></trkpt><trkpt lat="41.1129867" lon="-0.0634283"><ele>291.0</ele><time>2026-03-31T12:23:10.152Z</time></trkpt><trkpt lat="41.1128733" lon="-0.0634633"><ele>291.0</ele><time>2026-03-31T12:23:11.152Z</time></trkpt><trkpt lat="41.1127617" lon="-0.063505"><ele>291.0</ele><time>2026-03-31T12:23:12.152Z</time></trkpt><trkpt lat="41.1126433" lon="-0.063545"><ele>291.0</ele><time>2026-03-31T12:23:13.152Z</time></trkpt><trkpt lat="41.1125283" lon="-0.0635783"><ele>291.0</ele><time>2026-03-31T12:23:14.151Z</time></trkpt><trkpt lat="41.112415" lon="-0.063615"><ele>290.0</ele><time>2026-03-31T12:23:15.152Z</time></trkpt><trkpt lat="41.1123033" lon="-0.0636367"><ele>289.0</ele><time>2026-03-31T12:23:16.151Z</time></trkpt><trkpt lat="41.1121983" lon="-0.06364"><ele>288.0</ele><time>2026-03-31T12:23:17.151Z</time></trkpt><trkpt lat="41.1120933" lon="-0.0636417"><ele>287.0</ele><time>2026-03-31T12:23:18.151Z</time></trkpt><trkpt lat="41.1119767" lon="-0.06362"><ele>286.0</ele><time>2026-03-31T12:23:19.151Z</time></trkpt><trkpt lat="41.111865" lon="-0.063605"><ele>286.0</ele><time>2026-03-31T12:23:20.151Z</time></trkpt><trkpt lat="41.1117483" lon="-0.063585"><ele>286.0</ele><time>2026-03-31T12:23:21.151Z</time></trkpt><trkpt lat="41.11162" lon="-0.06356"><ele>286.0</ele><time>2026-03-31T12:23:22.152Z</time></trkpt><trkpt lat="41.1114883" lon="-0.0635367"><ele>286.0</ele><time>2026-03-31T12:23:23.152Z</time></trkpt><trkpt lat="41.1113633" lon="-0.0635133"><ele>285.0</ele><time>2026-03-31T12:23:24.151Z</time></trkpt><trkpt lat="41.1112383" lon="-0.0634933"><ele>284.0</ele><time>2026-03-31T12:23:25.151Z</time></trkpt><trkpt lat="41.11111" lon="-0.0634733"><ele>283.0</ele><time>2026-03-31T12:23:26.151Z</time></trkpt><trkpt lat="41.1109833" lon="-0.0634483"><ele>282.0</ele><time>2026-03-31T12:23:27.151Z</time></trkpt><trkpt lat="41.1108633" lon="-0.06343"><ele>282.0</ele><time>2026-03-31T12:23:28.152Z</time></trkpt><trkpt lat="41.110745" lon="-0.0634117"><ele>282.0</ele><time>2026-03-31T12:23:29.152Z</time></trkpt><trkpt lat="41.1106233" lon="-0.063395"><ele>282.0</ele><time>2026-03-31T12:23:30.152Z</time></trkpt><trkpt lat="41.1105033" lon="-0.0633733"><ele>282.0</ele><time>2026-03-31T12:23:31.151Z</time></trkpt><trkpt lat="41.1103883" lon="-0.0633517"><ele>281.5</ele><time>2026-03-31T12:23:32.151Z</time></trkpt><trkpt lat="41.1102667" lon="-0.0633283"><ele>281.0</ele><time>2026-03-31T12:23:33.151Z</time></trkpt><trkpt lat="41.1101333" lon="-0.0633017"><ele>280.5</ele><time>2026-03-31T12:23:34.151Z</time></trkpt><trkpt lat="41.11" lon="-0.0632783"><ele>280.0</ele><time>2026-03-31T12:23:35.151Z</time></trkpt><trkpt lat="41.1098683" lon="-0.0632617"><ele>279.4</ele><time>2026-03-31T12:23:36.151Z</time></trkpt><trkpt lat="41.1097467" lon="-0.0632517"><ele>278.8</ele><time>2026-03-31T12:23:37.152Z</time></trkpt><trkpt lat="41.109635" lon="-0.063235"><ele>278.2</ele><time>2026-03-31T12:23:38.152Z</time></trkpt><trkpt lat="41.1095433" lon="-0.06322"><ele>277.6</ele><time>2026-03-31T12:23:39.151Z</time></trkpt><trkpt lat="41.109455" lon="-0.0631967"><ele>277.0</ele><time>2026-03-31T12:23:40.151Z</time></trkpt><trkpt lat="41.109375" lon="-0.0631717"><ele>277.0</ele><time>2026-03-31T12:23:41.152Z</time></trkpt><trkpt lat="41.109305" lon="-0.0631567"><ele>277.0</ele><time>2026-03-31T12:23:42.152Z</time></trkpt><trkpt lat="41.10924" lon="-0.063145"><ele>277.0</ele><time>2026-03-31T12:23:43.152Z</time></trkpt><trkpt lat="41.10915" lon="-0.06314"><ele>277.0</ele><time>2026-03-31T12:23:45.152Z</time></trkpt><trkpt lat="41.1090633" lon="-0.06313"><ele>277.0</ele><time>2026-03-31T12:23:47.151Z</time></trkpt><trkpt lat="41.1089417" lon="-0.063125"><ele>277.0</ele><time>2026-03-31T12:23:49.151Z</time></trkpt><trkpt lat="41.1088717" lon="-0.0631167"><ele>277.66666666666663</ele><time>2026-03-31T12:23:50.151Z</time></trkpt><trkpt lat="41.1087983" lon="-0.0631017"><ele>278.3333333333333</ele><time>2026-03-31T12:23:51.151Z</time></trkpt><trkpt lat="41.1087233" lon="-0.0630817"><ele>279.0</ele><time>2026-03-31T12:23:52.151Z</time></trkpt><trkpt lat="41.1086433" lon="-0.0630567"><ele>279.6666666666667</ele><time>2026-03-31T12:23:53.152Z</time></trkpt><trkpt lat="41.1085633" lon="-0.06304"><ele>280.33333333333337</ele><time>2026-03-31T12:23:54.151Z</time></trkpt><trkpt lat="41.108485" lon="-0.0630183"><ele>281.0</ele><time>2026-03-31T12:23:55.151Z</time></trkpt><trkpt lat="41.108405" lon="-0.063"><ele>281.0</ele><time>2026-03-31T12:23:56.151Z</time></trkpt><trkpt lat="41.1083267" lon="-0.0629733"><ele>281.0</ele><time>2026-03-31T12:23:57.151Z</time></trkpt><trkpt lat="41.1082533" lon="-0.06294"><ele>281.0</ele><time>2026-03-31T12:23:58.151Z</time></trkpt><trkpt lat="41.1081733" lon="-0.0629"><ele>281.0</ele><time>2026-03-31T12:23:59.151Z</time></trkpt><trkpt lat="41.108095" lon="-0.0628433"><ele>281.0</ele><time>2026-03-31T12:24:00.152Z</time></trkpt><trkpt lat="41.108025" lon="-0.0627783"><ele>281.0</ele><time>2026-03-31T12:24:01.152Z</time></trkpt><trkpt lat="41.10797" lon="-0.0627067"><ele>281.83333333333337</ele><time>2026-03-31T12:24:02.151Z</time></trkpt><trkpt lat="41.10792" lon="-0.06262"><ele>282.6666666666667</ele><time>2026-03-31T12:24:03.152Z</time></trkpt><trkpt lat="41.107875" lon="-0.0625183"><ele>283.5</ele><time>2026-03-31T12:24:04.152Z</time></trkpt><trkpt lat="41.1078317" lon="-0.0624083"><ele>284.3333333333333</ele><time>2026-03-31T12:24:05.152Z</time></trkpt><trkpt lat="41.1077967" lon="-0.0623033"><ele>285.16666666666663</ele><time>2026-03-31T12:24:06.151Z</time></trkpt><trkpt lat="41.1077633" lon="-0.062205"><ele>286.0</ele><time>2026-03-31T12:24:07.151Z</time></trkpt><trkpt lat="41.1077383" lon="-0.062125"><ele>286.0</ele><time>2026-03-31T12:24:08.151Z</time></trkpt><trkpt lat="41.107695" lon="-0.0620467"><ele>286.0</ele><time>2026-03-31T12:24:10.151Z</time></trkpt><trkpt lat="41.1076283" lon="-0.0620617"><ele>286.0</ele><time>2026-03-31T12:24:15.151Z</time></trkpt><trkpt lat="41.10759" lon="-0.0621683"><ele>286.0</ele><time>2026-03-31T12:24:17.152Z</time></trkpt><trkpt lat="41.1075433" lon="-0.06229"><ele>286.0</ele><time>2026-03-31T12:24:19.151Z</time></trkpt><trkpt lat="41.10747" lon="-0.0623817"><ele>286.0</ele><time>2026-03-31T12:24:21.152Z</time></trkpt><trkpt lat="41.1073683" lon="-0.06244"><ele>287.5</ele><time>2026-03-31T12:24:23.151Z</time></trkpt><trkpt lat="41.10728" lon="-0.0625083"><ele>289.0</ele><time>2026-03-31T12:24:25.151Z</time></trkpt><trkpt lat="41.1072233" lon="-0.0625517"><ele>290.5</ele><time>2026-03-31T12:24:28.151Z</time></trkpt><trkpt lat="41.107235" lon="-0.0626567"><ele>292.0</ele><time>2026-03-31T12:24:31.151Z</time></trkpt><trkpt lat="41.10726" lon="-0.0627667"><ele>293.5</ele><time>2026-03-31T12:24:33.151Z</time></trkpt><trkpt lat="41.1072733" lon="-0.062895"><ele>295.0</ele><time>2026-03-31T12:24:35.152Z</time></trkpt><trkpt lat="41.1072833" lon="-0.0630283"><ele>295.0</ele><time>2026-03-31T12:24:37.152Z</time></trkpt><trkpt lat="41.1072917" lon="-0.06312"><ele>295.0</ele><time>2026-03-31T12:24:39.151Z</time></trkpt><trkpt lat="41.1072983" lon="-0.0632233"><ele>295.0</ele><time>2026-03-31T12:24:41.151Z</time></trkpt><trkpt lat="41.107295" lon="-0.0633317"><ele>295.0</ele><time>2026-03-31T12:24:43.151Z</time></trkpt><trkpt lat="41.1072933" lon="-0.0634567"><ele>295.0</ele><time>2026-03-31T12:24:46.151Z</time></trkpt><trkpt lat="41.107285" lon="-0.0635467"><ele>295.0</ele><time>2026-03-31T12:24:48.151Z</time></trkpt><trkpt lat="41.10722" lon="-0.0636133"><ele>295.5714285714286</ele><time>2026-03-31T12:25:00.151Z</time></trkpt><trkpt lat="41.107145" lon="-0.06362"><ele>296.14285714285717</ele><time>2026-03-31T12:25:04.152Z</time></trkpt><trkpt lat="41.10708" lon="-0.0635917"><ele>296.7142857142857</ele><time>2026-03-31T12:25:07.151Z</time></trkpt><trkpt lat="41.10702" lon="-0.063565"><ele>297.28571428571433</ele><time>2026-03-31T12:25:09.152Z</time></trkpt><trkpt lat="41.1069533" lon="-0.0635083"><ele>297.8571428571429</ele><time>2026-03-31T12:25:12.151Z</time></trkpt><trkpt lat="41.10688" lon="-0.0634867"><ele>298.42857142857144</ele><time>2026-03-31T12:25:17.151Z</time></trkpt><trkpt lat="41.1068033" lon="-0.0634633"><ele>299.0</ele><time>2026-03-31T12:25:21.152Z</time></trkpt><trkpt lat="41.10688" lon="-0.0635"><ele>299.0</ele><time>2026-03-31T12:25:41.151Z</time></trkpt><trkpt lat="41.1069417" lon="-0.0635167"><ele>299.0</ele><time>2026-03-31T12:25:44.151Z</time></trkpt><trkpt lat="41.1070183" lon="-0.0635717"><ele>299.0</ele><time>2026-03-31T12:25:48.152Z</time></trkpt><trkpt lat="41.107105" lon="-0.063605"><ele>299.0</ele><time>2026-03-31T12:25:51.152Z</time></trkpt><trkpt lat="41.10718" lon="-0.0636167"><ele>299.0</ele><time>2026-03-31T12:25:54.152Z</time></trkpt><trkpt lat="41.1072533" lon="-0.0636417"><ele>299.0</ele><time>2026-03-31T12:25:58.151Z</time></trkpt><trkpt lat="41.1072267" lon="-0.063725"><ele>299.0</ele><time>2026-03-31T12:26:02.152Z</time></trkpt></trkseg><trkseg><trkpt lat="41.1072567" lon="-0.06362"><ele>299.0</ele><time>2026-03-31T12:44:46.162Z</time></trkpt><trkpt lat="41.1072883" lon="-0.0635067"><ele>299.0</ele><time>2026-03-31T12:44:49.163Z</time></trkpt><trkpt lat="41.1073083" lon="-0.06339"><ele>299.0</ele><time>2026-03-31T12:44:52.162Z</time></trkpt><trkpt lat="41.1073033" lon="-0.0632983"><ele>299.0</ele><time>2026-03-31T12:44:54.162Z</time></trkpt><trkpt lat="41.1073033" lon="-0.0631933"><ele>299.0</ele><time>2026-03-31T12:44:56.163Z</time></trkpt><trkpt lat="41.1072917" lon="-0.063085"><ele>299.0</ele><time>2026-03-31T12:44:58.162Z</time></trkpt><trkpt lat="41.1072733" lon="-0.0629833"><ele>298.33333333333337</ele><time>2026-03-31T12:45:00.162Z</time></trkpt><trkpt lat="41.107255" lon="-0.0628733"><ele>297.6666666666667</ele><time>2026-03-31T12:45:03.163Z</time></trkpt><trkpt lat="41.1072383" lon="-0.0627633"><ele>297.0</ele><time>2026-03-31T12:45:05.162Z</time></trkpt><trkpt lat="41.107215" lon="-0.06264"><ele>296.3333333333333</ele><time>2026-03-31T12:45:07.163Z</time></trkpt><trkpt lat="41.10724" lon="-0.0625417"><ele>295.66666666666663</ele><time>2026-03-31T12:45:10.162Z</time></trkpt><trkpt lat="41.10732" lon="-0.0624867"><ele>295.0</ele><time>2026-03-31T12:45:13.163Z</time></trkpt><trkpt lat="41.1073767" lon="-0.06245"><ele>293.7142857142857</ele><time>2026-03-31T12:45:15.163Z</time></trkpt><trkpt lat="41.1074383" lon="-0.0624167"><ele>292.42857142857144</ele><time>2026-03-31T12:45:17.163Z</time></trkpt><trkpt lat="41.1075183" lon="-0.062345"><ele>291.1428571428571</ele><time>2026-03-31T12:45:20.162Z</time></trkpt><trkpt lat="41.107565" lon="-0.0622633"><ele>289.8571428571429</ele><time>2026-03-31T12:45:22.163Z</time></trkpt><trkpt lat="41.1076" lon="-0.0621817"><ele>288.57142857142856</ele><time>2026-03-31T12:45:24.163Z</time></trkpt><trkpt lat="41.107625" lon="-0.0621017"><ele>287.2857142857143</ele><time>2026-03-31T12:45:26.162Z</time></trkpt><trkpt lat="41.1076433" lon="-0.06202"><ele>286.0</ele><time>2026-03-31T12:45:28.162Z</time></trkpt><trkpt lat="41.1076317" lon="-0.0619217"><ele>286.0</ele><time>2026-03-31T12:45:30.162Z</time></trkpt><trkpt lat="41.1076" lon="-0.061825"><ele>286.0</ele><time>2026-03-31T12:45:32.162Z</time></trkpt><trkpt lat="41.1075433" lon="-0.0617117"><ele>286.0</ele><time>2026-03-31T12:45:34.162Z</time></trkpt><trkpt lat="41.1075067" lon="-0.0616433"><ele>286.0</ele><time>2026-03-31T12:45:35.163Z</time></trkpt><trkpt lat="41.1074667" lon="-0.0615533"><ele>286.0</ele><time>2026-03-31T12:45:36.163Z</time></trkpt><trkpt lat="41.1074267" lon="-0.061465"><ele>286.0</ele><time>2026-03-31T12:45:37.162Z</time></trkpt><trkpt lat="41.10739" lon="-0.061375"><ele>286.0</ele><time>2026-03-31T12:45:38.163Z</time></trkpt><trkpt lat="41.107345" lon="-0.0612783"><ele>286.0</ele><time>2026-03-31T12:45:39.162Z</time></trkpt><trkpt lat="41.1073" lon="-0.0611833"><ele>286.0</ele><time>2026-03-31T12:45:40.162Z</time></trkpt><trkpt lat="41.1072567" lon="-0.06109"><ele>286.0</ele><time>2026-03-31T12:45:41.162Z</time></trkpt><trkpt lat="41.107215" lon="-0.0609983"><ele>286.0</ele><time>2026-03-31T12:45:42.162Z</time></trkpt><trkpt lat="41.1071733" lon="-0.0609017"><ele>286.0</ele><time>2026-03-31T12:45:43.162Z</time></trkpt><trkpt lat="41.1071233" lon="-0.060805"><ele>285.16666666666663</ele><time>2026-03-31T12:45:44.162Z</time></trkpt><trkpt lat="41.10708" lon="-0.0607083"><ele>284.3333333333333</ele><time>2026-03-31T12:45:45.162Z</time></trkpt><trkpt lat="41.1070333" lon="-0.060615"><ele>283.5</ele><time>2026-03-31T12:45:46.162Z</time></trkpt><trkpt lat="41.10699" lon="-0.0605283"><ele>282.6666666666667</ele><time>2026-03-31T12:45:47.162Z</time></trkpt><trkpt lat="41.10695" lon="-0.0604467"><ele>281.83333333333337</ele><time>2026-03-31T12:45:48.162Z</time></trkpt><trkpt lat="41.106915" lon="-0.0603667"><ele>281.0</ele><time>2026-03-31T12:45:49.163Z</time></trkpt><trkpt lat="41.1068817" lon="-0.060295"><ele>281.0</ele><time>2026-03-31T12:45:50.163Z</time></trkpt><trkpt lat="41.10682" lon="-0.0601717"><ele>281.0</ele><time>2026-03-31T12:45:52.163Z</time></trkpt><trkpt lat="41.10678" lon="-0.06008"><ele>281.0</ele><time>2026-03-31T12:45:54.163Z</time></trkpt><trkpt lat="41.106775" lon="-0.05997"><ele>281.0</ele><time>2026-03-31T12:45:57.162Z</time></trkpt><trkpt lat="41.1068483" lon="-0.0598717"><ele>281.0</ele><time>2026-03-31T12:46:00.162Z</time></trkpt><trkpt lat="41.106935" lon="-0.0598217"><ele>281.2</ele><time>2026-03-31T12:46:02.162Z</time></trkpt><trkpt lat="41.10703" lon="-0.0597683"><ele>281.40000000000003</ele><time>2026-03-31T12:46:04.163Z</time></trkpt><trkpt lat="41.1070983" lon="-0.0597283"><ele>281.6</ele><time>2026-03-31T12:46:05.162Z</time></trkpt><trkpt lat="41.107185" lon="-0.059675"><ele>281.8</ele><time>2026-03-31T12:46:06.163Z</time></trkpt><trkpt lat="41.1072817" lon="-0.0596183"><ele>282.0</ele><time>2026-03-31T12:46:07.163Z</time></trkpt><trkpt lat="41.10738" lon="-0.059555"><ele>280.8</ele><time>2026-03-31T12:46:08.162Z</time></trkpt><trkpt lat="41.107475" lon="-0.05949"><ele>279.6</ele><time>2026-03-31T12:46:09.162Z</time></trkpt><trkpt lat="41.1075667" lon="-0.059425"><ele>278.40000000000003</ele><time>2026-03-31T12:46:10.162Z</time></trkpt><trkpt lat="41.107665" lon="-0.0593667"><ele>277.2</ele><time>2026-03-31T12:46:11.163Z</time></trkpt><trkpt lat="41.10776" lon="-0.0593"><ele>276.0</ele><time>2026-03-31T12:46:12.162Z</time></trkpt><trkpt lat="41.107855" lon="-0.059235"><ele>276.0</ele><time>2026-03-31T12:46:13.163Z</time></trkpt><trkpt lat="41.1079517" lon="-0.0591767"><ele>276.0</ele><time>2026-03-31T12:46:14.162Z</time></trkpt><trkpt lat="41.108045" lon="-0.059115"><ele>276.0</ele><time>2026-03-31T12:46:15.162Z</time></trkpt><trkpt lat="41.108145" lon="-0.0590567"><ele>276.0</ele><time>2026-03-31T12:46:16.162Z</time></trkpt><trkpt lat="41.1082483" lon="-0.0589917"><ele>276.0</ele><time>2026-03-31T12:46:17.162Z</time></trkpt><trkpt lat="41.108345" lon="-0.0589317"><ele>274.6</ele><time>2026-03-31T12:46:18.163Z</time></trkpt><trkpt lat="41.1084367" lon="-0.05888"><ele>273.20000000000005</ele><time>2026-03-31T12:46:19.163Z</time></trkpt><trkpt lat="41.1085333" lon="-0.0588283"><ele>271.79999999999995</ele><time>2026-03-31T12:46:20.162Z</time></trkpt><trkpt lat="41.1086317" lon="-0.0587633"><ele>270.4</ele><time>2026-03-31T12:46:21.163Z</time></trkpt><trkpt lat="41.1087267" lon="-0.0587033"><ele>269.0</ele><time>2026-03-31T12:46:22.162Z</time></trkpt><trkpt lat="41.1088183" lon="-0.0586383"><ele>269.0</ele><time>2026-03-31T12:46:23.163Z</time></trkpt><trkpt lat="41.1089033" lon="-0.0585683"><ele>269.0</ele><time>2026-03-31T12:46:24.162Z</time></trkpt><trkpt lat="41.1089867" lon="-0.0584933"><ele>269.0</ele><time>2026-03-31T12:46:25.162Z</time></trkpt><trkpt lat="41.1090617" lon="-0.0584117"><ele>269.0</ele><time>2026-03-31T12:46:26.163Z</time></trkpt><trkpt lat="41.1091283" lon="-0.05832"><ele>269.0</ele><time>2026-03-31T12:46:27.162Z</time></trkpt><trkpt lat="41.1091933" lon="-0.058225"><ele>268.83333333333337</ele><time>2026-03-31T12:46:28.162Z</time></trkpt><trkpt lat="41.10925" lon="-0.058125"><ele>268.6666666666667</ele><time>2026-03-31T12:46:29.162Z</time></trkpt><trkpt lat="41.1092983" lon="-0.0580267"><ele>268.5</ele><time>2026-03-31T12:46:30.162Z</time></trkpt><trkpt lat="41.1093417" lon="-0.0579217"><ele>268.3333333333333</ele><time>2026-03-31T12:46:31.162Z</time></trkpt><trkpt lat="41.1093717" lon="-0.0578217"><ele>268.16666666666663</ele><time>2026-03-31T12:46:32.163Z</time></trkpt><trkpt lat="41.109395" lon="-0.0577167"><ele>268.0</ele><time>2026-03-31T12:46:33.163Z</time></trkpt><trkpt lat="41.1094133" lon="-0.0576"><ele>268.0</ele><time>2026-03-31T12:46:34.163Z</time></trkpt><trkpt lat="41.10943" lon="-0.0574817"><ele>268.0</ele><time>2026-03-31T12:46:35.163Z</time></trkpt><trkpt lat="41.10944" lon="-0.057365"><ele>268.0</ele><time>2026-03-31T12:46:36.162Z</time></trkpt><trkpt lat="41.1094417" lon="-0.0572417"><ele>268.0</ele><time>2026-03-31T12:46:37.163Z</time></trkpt><trkpt lat="41.10944" lon="-0.0571133"><ele>268.0</ele><time>2026-03-31T12:46:38.163Z</time></trkpt><trkpt lat="41.109435" lon="-0.0569883"><ele>268.3333333333333</ele><time>2026-03-31T12:46:39.163Z</time></trkpt><trkpt lat="41.109425" lon="-0.0568783"><ele>268.66666666666663</ele><time>2026-03-31T12:46:40.162Z</time></trkpt><trkpt lat="41.1094317" lon="-0.0567733"><ele>269.0</ele><time>2026-03-31T12:46:41.163Z</time></trkpt><trkpt lat="41.1094467" lon="-0.0566633"><ele>269.3333333333333</ele><time>2026-03-31T12:46:42.163Z</time></trkpt><trkpt lat="41.1094683" lon="-0.0565533"><ele>269.6666666666667</ele><time>2026-03-31T12:46:43.162Z</time></trkpt><trkpt lat="41.1094917" lon="-0.056445"><ele>270.0</ele><time>2026-03-31T12:46:44.162Z</time></trkpt><trkpt lat="41.1095267" lon="-0.05634"><ele>270.0</ele><time>2026-03-31T12:46:45.162Z</time></trkpt><trkpt lat="41.10957" lon="-0.0562383"><ele>270.0</ele><time>2026-03-31T12:46:46.162Z</time></trkpt><trkpt lat="41.1096217" lon="-0.0561467"><ele>270.0</ele><time>2026-03-31T12:46:47.162Z</time></trkpt><trkpt lat="41.109675" lon="-0.0560683"><ele>270.0</ele><time>2026-03-31T12:46:48.162Z</time></trkpt><trkpt lat="41.1097267" lon="-0.056"><ele>270.0</ele><time>2026-03-31T12:46:49.163Z</time></trkpt><trkpt lat="41.1097833" lon="-0.0559367"><ele>270.0</ele><time>2026-03-31T12:46:50.162Z</time></trkpt><trkpt lat="41.1098433" lon="-0.0558833"><ele>269.6666666666667</ele><time>2026-03-31T12:46:51.163Z</time></trkpt><trkpt lat="41.10991" lon="-0.0558383"><ele>269.3333333333333</ele><time>2026-03-31T12:46:52.162Z</time></trkpt><trkpt lat="41.1099833" lon="-0.0558"><ele>269.0</ele><time>2026-03-31T12:46:53.162Z</time></trkpt><trkpt lat="41.1100483" lon="-0.0557717"><ele>268.66666666666663</ele><time>2026-03-31T12:46:54.162Z</time></trkpt><trkpt lat="41.11012" lon="-0.055755"><ele>268.3333333333333</ele><time>2026-03-31T12:46:55.162Z</time></trkpt><trkpt lat="41.1102017" lon="-0.0557383"><ele>268.0</ele><time>2026-03-31T12:46:56.162Z</time></trkpt><trkpt lat="41.1102833" lon="-0.0557267"><ele>268.0</ele><time>2026-03-31T12:46:57.163Z</time></trkpt><trkpt lat="41.1103617" lon="-0.0557233"><ele>268.0</ele><time>2026-03-31T12:46:58.162Z</time></trkpt><trkpt lat="41.11045" lon="-0.05573"><ele>268.0</ele><time>2026-03-31T12:46:59.162Z</time></trkpt><trkpt lat="41.11054" lon="-0.0557367"><ele>268.0</ele><time>2026-03-31T12:47:00.162Z</time></trkpt><trkpt lat="41.1106283" lon="-0.0557533"><ele>268.0</ele><time>2026-03-31T12:47:01.162Z</time></trkpt><trkpt lat="41.1107217" lon="-0.055775"><ele>268.0</ele><time>2026-03-31T12:47:02.163Z</time></trkpt><trkpt lat="41.1108117" lon="-0.0558"><ele>268.0</ele><time>2026-03-31T12:47:03.162Z</time></trkpt><trkpt lat="41.1108983" lon="-0.0558267"><ele>268.0</ele><time>2026-03-31T12:47:04.162Z</time></trkpt><trkpt lat="41.1109967" lon="-0.0558567"><ele>268.0</ele><time>2026-03-31T12:47:05.162Z</time></trkpt><trkpt lat="41.1110833" lon="-0.0558767"><ele>268.0</ele><time>2026-03-31T12:47:06.163Z</time></trkpt><trkpt lat="41.11116" lon="-0.0559"><ele>268.0</ele><time>2026-03-31T12:47:07.162Z</time></trkpt><trkpt lat="41.1112417" lon="-0.0559283"><ele>268.0</ele><time>2026-03-31T12:47:08.163Z</time></trkpt><trkpt lat="41.11133" lon="-0.0559567"><ele>268.0</ele><time>2026-03-31T12:47:09.162Z</time></trkpt><trkpt lat="41.1114217" lon="-0.05597"><ele>268.0</ele><time>2026-03-31T12:47:10.162Z</time></trkpt><trkpt lat="41.111515" lon="-0.0559717"><ele>268.0</ele><time>2026-03-31T12:47:11.162Z</time></trkpt><trkpt lat="41.1116183" lon="-0.055965"><ele>268.0</ele><time>2026-03-31T12:47:12.163Z</time></trkpt><trkpt lat="41.1117183" lon="-0.05594"><ele>268.0</ele><time>2026-03-31T12:47:13.163Z</time></trkpt><trkpt lat="41.1118183" lon="-0.0559117"><ele>266.8</ele><time>2026-03-31T12:47:14.163Z</time></trkpt><trkpt lat="41.1119167" lon="-0.0558817"><ele>265.6</ele><time>2026-03-31T12:47:15.162Z</time></trkpt><trkpt lat="41.1120067" lon="-0.0558383"><ele>264.4</ele><time>2026-03-31T12:47:16.162Z</time></trkpt><trkpt lat="41.1120967" lon="-0.0557867"><ele>263.2</ele><time>2026-03-31T12:47:17.162Z</time></trkpt><trkpt lat="41.1121833" lon="-0.0557267"><ele>262.0</ele><time>2026-03-31T12:47:18.163Z</time></trkpt><trkpt lat="41.1122567" lon="-0.0556717"><ele>261.66666666666663</ele><time>2026-03-31T12:47:19.163Z</time></trkpt><trkpt lat="41.112325" lon="-0.0556117"><ele>261.3333333333333</ele><time>2026-03-31T12:47:20.162Z</time></trkpt><trkpt lat="41.112375" lon="-0.0555567"><ele>261.0</ele><time>2026-03-31T12:47:21.162Z</time></trkpt><trkpt lat="41.1124317" lon="-0.0554667"><ele>260.6666666666667</ele><time>2026-03-31T12:47:23.163Z</time></trkpt><trkpt lat="41.112495" lon="-0.0554083"><ele>260.33333333333337</ele><time>2026-03-31T12:47:26.162Z</time></trkpt><trkpt lat="41.1125833" lon="-0.0552733"><ele>260.0</ele><time>2026-03-31T12:49:30.163Z</time></trkpt><trkpt lat="41.1126917" lon="-0.055055"><ele>260.0</ele><time>2026-03-31T12:49:33.163Z</time></trkpt><trkpt lat="41.112745" lon="-0.05498"><ele>260.0</ele><time>2026-03-31T12:49:34.162Z</time></trkpt><trkpt lat="41.1128333" lon="-0.05483"><ele>260.0</ele><time>2026-03-31T12:49:36.162Z</time></trkpt><trkpt lat="41.1129283" lon="-0.05466"><ele>260.0</ele><time>2026-03-31T12:49:38.162Z</time></trkpt><trkpt lat="41.1130233" lon="-0.05448"><ele>260.5</ele><time>2026-03-31T12:49:40.162Z</time></trkpt><trkpt lat="41.1131333" lon="-0.054275"><ele>261.0</ele><time>2026-03-31T12:49:42.162Z</time></trkpt><trkpt lat="41.113195" lon="-0.0541767"><ele>261.5</ele><time>2026-03-31T12:49:43.162Z</time></trkpt><trkpt lat="41.1132567" lon="-0.054075"><ele>262.0</ele><time>2026-03-31T12:49:44.163Z</time></trkpt><trkpt lat="41.113375" lon="-0.05387"><ele>266.0</ele><time>2026-03-31T12:49:46.163Z</time></trkpt><trkpt lat="41.1134783" lon="-0.0536817"><ele>270.0</ele><time>2026-03-31T12:49:48.162Z</time></trkpt><trkpt lat="41.1135783" lon="-0.0534983"><ele>274.0</ele><time>2026-03-31T12:49:50.163Z</time></trkpt><trkpt lat="41.1137417" lon="-0.0531767"><ele>274.3333333333333</ele><time>2026-03-31T12:49:53.162Z</time></trkpt><trkpt lat="41.11381" lon="-0.053055"><ele>274.6666666666667</ele><time>2026-03-31T12:49:54.162Z</time></trkpt><trkpt lat="41.1139583" lon="-0.0528117"><ele>275.0</ele><time>2026-03-31T12:49:56.163Z</time></trkpt><trkpt lat="41.1140933" lon="-0.0525783"><ele>277.0</ele><time>2026-03-31T12:49:58.163Z</time></trkpt><trkpt lat="41.11423" lon="-0.0523383"><ele>279.0</ele><time>2026-03-31T12:50:00.162Z</time></trkpt><trkpt lat="41.1143667" lon="-0.0520817"><ele>279.0</ele><time>2026-03-31T12:50:02.163Z</time></trkpt><trkpt lat="41.114505" lon="-0.051835"><ele>279.0</ele><time>2026-03-31T12:50:04.162Z</time></trkpt><trkpt lat="41.11464" lon="-0.05161"><ele>279.0</ele><time>2026-03-31T12:50:06.161Z</time></trkpt><trkpt lat="41.114755" lon="-0.0513917"><ele>279.3333333333333</ele><time>2026-03-31T12:50:08.161Z</time></trkpt><trkpt lat="41.1148667" lon="-0.0511967"><ele>279.66666666666663</ele><time>2026-03-31T12:50:10.161Z</time></trkpt><trkpt lat="41.1149667" lon="-0.0510067"><ele>280.0</ele><time>2026-03-31T12:50:12.162Z</time></trkpt><trkpt lat="41.1150817" lon="-0.0507933"><ele>280.25</ele><time>2026-03-31T12:50:14.161Z</time></trkpt><trkpt lat="41.1151383" lon="-0.0506833"><ele>280.5</ele><time>2026-03-31T12:50:15.161Z</time></trkpt><trkpt lat="41.1151983" lon="-0.05057"><ele>280.75</ele><time>2026-03-31T12:50:16.161Z</time></trkpt><trkpt lat="41.1152617" lon="-0.0504633"><ele>281.0</ele><time>2026-03-31T12:50:17.162Z</time></trkpt><trkpt lat="41.11539" lon="-0.05026"><ele>281.0</ele><time>2026-03-31T12:50:19.161Z</time></trkpt><trkpt lat="41.11553" lon="-0.0500867"><ele>281.0</ele><time>2026-03-31T12:50:21.162Z</time></trkpt><trkpt lat="41.1156917" lon="-0.0499217"><ele>281.0</ele><time>2026-03-31T12:50:23.161Z</time></trkpt><trkpt lat="41.1158767" lon="-0.0498"><ele>280.33333333333337</ele><time>2026-03-31T12:50:25.161Z</time></trkpt><trkpt lat="41.1160767" lon="-0.0497217"><ele>279.6666666666667</ele><time>2026-03-31T12:50:27.162Z</time></trkpt><trkpt lat="41.1162767" lon="-0.0496567"><ele>279.0</ele><time>2026-03-31T12:50:29.162Z</time></trkpt><trkpt lat="41.1164783" lon="-0.0495867"><ele>279.0</ele><time>2026-03-31T12:50:31.162Z</time></trkpt><trkpt lat="41.1165817" lon="-0.0495517"><ele>279.0</ele><time>2026-03-31T12:50:32.162Z</time></trkpt><trkpt lat="41.1166917" lon="-0.0495167"><ele>279.0</ele><time>2026-03-31T12:50:33.162Z</time></trkpt><trkpt lat="41.1169267" lon="-0.04944"><ele>279.0</ele><time>2026-03-31T12:50:35.162Z</time></trkpt><trkpt lat="41.11705" lon="-0.0493967"><ele>279.0</ele><time>2026-03-31T12:50:36.162Z</time></trkpt><trkpt lat="41.1172833" lon="-0.0493233"><ele>279.0</ele><time>2026-03-31T12:50:38.162Z</time></trkpt><trkpt lat="41.1175233" lon="-0.04924"><ele>279.3333333333333</ele><time>2026-03-31T12:50:40.161Z</time></trkpt><trkpt lat="41.1177633" lon="-0.0491617"><ele>279.66666666666663</ele><time>2026-03-31T12:50:42.162Z</time></trkpt><trkpt lat="41.1178867" lon="-0.0491117"><ele>280.0</ele><time>2026-03-31T12:50:43.161Z</time></trkpt><trkpt lat="41.11801" lon="-0.0490767"><ele>280.0</ele><time>2026-03-31T12:50:44.161Z</time></trkpt><trkpt lat="41.1181267" lon="-0.049035"><ele>280.0</ele><time>2026-03-31T12:50:45.162Z</time></trkpt><trkpt lat="41.1182367" lon="-0.0489883"><ele>280.0</ele><time>2026-03-31T12:50:46.162Z</time></trkpt><trkpt lat="41.1183467" lon="-0.04895"><ele>280.0</ele><time>2026-03-31T12:50:47.162Z</time></trkpt><trkpt lat="41.1184583" lon="-0.0489117"><ele>281.5</ele><time>2026-03-31T12:50:48.161Z</time></trkpt><trkpt lat="41.1185683" lon="-0.0488767"><ele>283.0</ele><time>2026-03-31T12:50:49.161Z</time></trkpt><trkpt lat="41.1187783" lon="-0.0488083"><ele>284.5</ele><time>2026-03-31T12:50:51.161Z</time></trkpt><trkpt lat="41.118885" lon="-0.04877"><ele>286.0</ele><time>2026-03-31T12:50:52.161Z</time></trkpt><trkpt lat="41.1189917" lon="-0.0487317"><ele>286.66666666666663</ele><time>2026-03-31T12:50:53.161Z</time></trkpt><trkpt lat="41.1191033" lon="-0.0486883"><ele>287.3333333333333</ele><time>2026-03-31T12:50:54.161Z</time></trkpt><trkpt lat="41.1193317" lon="-0.0486"><ele>288.0</ele><time>2026-03-31T12:50:56.162Z</time></trkpt><trkpt lat="41.1195533" lon="-0.0485267"><ele>288.0</ele><time>2026-03-31T12:50:58.162Z</time></trkpt><trkpt lat="41.1196667" lon="-0.04849"><ele>288.0</ele><time>2026-03-31T12:50:59.162Z</time></trkpt><trkpt lat="41.11977" lon="-0.04847"><ele>288.0</ele><time>2026-03-31T12:51:00.161Z</time></trkpt><trkpt lat="41.1198583" lon="-0.04845"><ele>288.0</ele><time>2026-03-31T12:51:01.161Z</time></trkpt><trkpt lat="41.119955" lon="-0.0484417"><ele>288.0</ele><time>2026-03-31T12:51:02.161Z</time></trkpt><trkpt lat="41.1200433" lon="-0.0484367"><ele>288.6</ele><time>2026-03-31T12:51:03.161Z</time></trkpt><trkpt lat="41.1201333" lon="-0.0484533"><ele>289.20000000000005</ele><time>2026-03-31T12:51:04.161Z</time></trkpt><trkpt lat="41.1202217" lon="-0.0484917"><ele>289.8</ele><time>2026-03-31T12:51:05.161Z</time></trkpt><trkpt lat="41.1203133" lon="-0.0485383"><ele>290.40000000000003</ele><time>2026-03-31T12:51:06.162Z</time></trkpt><trkpt lat="41.1204017" lon="-0.048595"><ele>291.0</ele><time>2026-03-31T12:51:07.161Z</time></trkpt><trkpt lat="41.120485" lon="-0.0486667"><ele>291.0</ele><time>2026-03-31T12:51:08.161Z</time></trkpt><trkpt lat="41.120555" lon="-0.0487517"><ele>291.0</ele><time>2026-03-31T12:51:09.161Z</time></trkpt><trkpt lat="41.1206317" lon="-0.048845"><ele>291.0</ele><time>2026-03-31T12:51:10.161Z</time></trkpt><trkpt lat="41.1207" lon="-0.04894"><ele>291.0</ele><time>2026-03-31T12:51:11.161Z</time></trkpt><trkpt lat="41.120775" lon="-0.0490433"><ele>291.0</ele><time>2026-03-31T12:51:12.162Z</time></trkpt><trkpt lat="41.1208567" lon="-0.04915"><ele>290.5</ele><time>2026-03-31T12:51:13.162Z</time></trkpt><trkpt lat="41.1209317" lon="-0.0492517"><ele>290.0</ele><time>2026-03-31T12:51:14.162Z</time></trkpt><trkpt lat="41.121015" lon="-0.0493567"><ele>289.5</ele><time>2026-03-31T12:51:15.162Z</time></trkpt><trkpt lat="41.121095" lon="-0.0494617"><ele>289.0</ele><time>2026-03-31T12:51:16.162Z</time></trkpt><trkpt lat="41.12118" lon="-0.0495667"><ele>289.0</ele><time>2026-03-31T12:51:17.161Z</time></trkpt><trkpt lat="41.121265" lon="-0.0496617"><ele>289.0</ele><time>2026-03-31T12:51:18.162Z</time></trkpt><trkpt lat="41.121345" lon="-0.0497533"><ele>289.0</ele><time>2026-03-31T12:51:19.161Z</time></trkpt><trkpt lat="41.1214183" lon="-0.0498483"><ele>289.0</ele><time>2026-03-31T12:51:20.162Z</time></trkpt><trkpt lat="41.12149" lon="-0.0499433"><ele>289.0</ele><time>2026-03-31T12:51:21.162Z</time></trkpt><trkpt lat="41.12156" lon="-0.0500417"><ele>289.0</ele><time>2026-03-31T12:51:22.161Z</time></trkpt><trkpt lat="41.1216367" lon="-0.0501317"><ele>289.0</ele><time>2026-03-31T12:51:23.162Z</time></trkpt><trkpt lat="41.1217117" lon="-0.0502233"><ele>289.0</ele><time>2026-03-31T12:51:24.161Z</time></trkpt><trkpt lat="41.1217933" lon="-0.050305"><ele>289.0</ele><time>2026-03-31T12:51:25.161Z</time></trkpt><trkpt lat="41.1218767" lon="-0.050375"><ele>289.0</ele><time>2026-03-31T12:51:26.161Z</time></trkpt><trkpt lat="41.1219617" lon="-0.0504333"><ele>289.0</ele><time>2026-03-31T12:51:27.161Z</time></trkpt><trkpt lat="41.122045" lon="-0.05048"><ele>289.0</ele><time>2026-03-31T12:51:28.162Z</time></trkpt><trkpt lat="41.12214" lon="-0.0505033"><ele>289.0</ele><time>2026-03-31T12:51:29.162Z</time></trkpt><trkpt lat="41.1222417" lon="-0.0505183"><ele>289.0</ele><time>2026-03-31T12:51:30.161Z</time></trkpt><trkpt lat="41.1223433" lon="-0.0505283"><ele>289.0</ele><time>2026-03-31T12:51:31.162Z</time></trkpt><trkpt lat="41.1224433" lon="-0.0505217"><ele>287.4</ele><time>2026-03-31T12:51:32.162Z</time></trkpt><trkpt lat="41.1225367" lon="-0.0505"><ele>285.79999999999995</ele><time>2026-03-31T12:51:33.161Z</time></trkpt><trkpt lat="41.1226283" lon="-0.05046"><ele>284.20000000000005</ele><time>2026-03-31T12:51:34.162Z</time></trkpt><trkpt lat="41.12273" lon="-0.0504067"><ele>282.6</ele><time>2026-03-31T12:51:35.161Z</time></trkpt><trkpt lat="41.1228167" lon="-0.0503417"><ele>281.0</ele><time>2026-03-31T12:51:36.161Z</time></trkpt><trkpt lat="41.12289" lon="-0.0502583"><ele>281.0</ele><time>2026-03-31T12:51:37.161Z</time></trkpt><trkpt lat="41.12296" lon="-0.0501667"><ele>281.0</ele><time>2026-03-31T12:51:38.161Z</time></trkpt><trkpt lat="41.123015" lon="-0.0500583"><ele>281.0</ele><time>2026-03-31T12:51:39.161Z</time></trkpt><trkpt lat="41.1230717" lon="-0.04995"><ele>281.0</ele><time>2026-03-31T12:51:40.161Z</time></trkpt><trkpt lat="41.123125" lon="-0.04982"><ele>281.0</ele><time>2026-03-31T12:51:41.162Z</time></trkpt><trkpt lat="41.1231683" lon="-0.0496917"><ele>280.8</ele><time>2026-03-31T12:51:42.162Z</time></trkpt><trkpt lat="41.1231883" lon="-0.0495567"><ele>280.6</ele><time>2026-03-31T12:51:43.161Z</time></trkpt><trkpt lat="41.1232067" lon="-0.049415"><ele>280.4</ele><time>2026-03-31T12:51:44.162Z</time></trkpt><trkpt lat="41.1232183" lon="-0.04926"><ele>280.2</ele><time>2026-03-31T12:51:45.161Z</time></trkpt><trkpt lat="41.123225" lon="-0.0491083"><ele>280.0</ele><time>2026-03-31T12:51:46.161Z</time></trkpt><trkpt lat="41.12323" lon="-0.0489567"><ele>277.75</ele><time>2026-03-31T12:51:47.161Z</time></trkpt><trkpt lat="41.1232383" lon="-0.0488017"><ele>275.5</ele><time>2026-03-31T12:51:48.162Z</time></trkpt><trkpt lat="41.1232517" lon="-0.0486517"><ele>273.25</ele><time>2026-03-31T12:51:49.162Z</time></trkpt><trkpt lat="41.1232633" lon="-0.0485017"><ele>271.0</ele><time>2026-03-31T12:51:50.161Z</time></trkpt><trkpt lat="41.1232717" lon="-0.04835"><ele>270.0</ele><time>2026-03-31T12:51:51.162Z</time></trkpt><trkpt lat="41.1232733" lon="-0.0482033"><ele>269.0</ele><time>2026-03-31T12:51:52.162Z</time></trkpt><trkpt lat="41.1232833" lon="-0.0480467"><ele>268.0</ele><time>2026-03-31T12:51:53.161Z</time></trkpt><trkpt lat="41.123295" lon="-0.0478883"><ele>267.0</ele><time>2026-03-31T12:51:54.161Z</time></trkpt><trkpt lat="41.123305" lon="-0.0477333"><ele>267.0</ele><time>2026-03-31T12:51:55.161Z</time></trkpt><trkpt lat="41.1233083" lon="-0.0475767"><ele>267.0</ele><time>2026-03-31T12:51:56.161Z</time></trkpt><trkpt lat="41.123315" lon="-0.0474267"><ele>267.0</ele><time>2026-03-31T12:51:57.161Z</time></trkpt><trkpt lat="41.1233217" lon="-0.04728"><ele>267.0</ele><time>2026-03-31T12:51:58.162Z</time></trkpt><trkpt lat="41.123335" lon="-0.0471333"><ele>266.4</ele><time>2026-03-31T12:51:59.162Z</time></trkpt><trkpt lat="41.1233517" lon="-0.047005"><ele>265.79999999999995</ele><time>2026-03-31T12:52:00.162Z</time></trkpt><trkpt lat="41.1233683" lon="-0.0468733"><ele>265.2</ele><time>2026-03-31T12:52:01.162Z</time></trkpt><trkpt lat="41.1233917" lon="-0.0467417"><ele>264.59999999999997</ele><time>2026-03-31T12:52:02.161Z</time></trkpt><trkpt lat="41.1234217" lon="-0.04661"><ele>264.0</ele><time>2026-03-31T12:52:03.161Z</time></trkpt><trkpt lat="41.1234617" lon="-0.0464983"><ele>263.1666666666667</ele><time>2026-03-31T12:52:04.161Z</time></trkpt><trkpt lat="41.123505" lon="-0.0463967"><ele>262.3333333333333</ele><time>2026-03-31T12:52:05.162Z</time></trkpt><trkpt lat="41.12355" lon="-0.0463067"><ele>261.5</ele><time>2026-03-31T12:52:06.162Z</time></trkpt><trkpt lat="41.123605" lon="-0.0462167"><ele>260.66666666666663</ele><time>2026-03-31T12:52:07.161Z</time></trkpt><trkpt lat="41.123665" lon="-0.04613"><ele>259.8333333333333</ele><time>2026-03-31T12:52:08.161Z</time></trkpt><trkpt lat="41.1237317" lon="-0.0460583"><ele>259.0</ele><time>2026-03-31T12:52:09.161Z</time></trkpt><trkpt lat="41.1238067" lon="-0.0459867"><ele>259.0</ele><time>2026-03-31T12:52:10.161Z</time></trkpt><trkpt lat="41.12388" lon="-0.0459317"><ele>259.0</ele><time>2026-03-31T12:52:11.161Z</time></trkpt><trkpt lat="41.1239667" lon="-0.0458783"><ele>259.0</ele><time>2026-03-31T12:52:12.161Z</time></trkpt><trkpt lat="41.1240567" lon="-0.0458367"><ele>259.0</ele><time>2026-03-31T12:52:13.162Z</time></trkpt><trkpt lat="41.1241467" lon="-0.045795"><ele>259.0</ele><time>2026-03-31T12:52:14.161Z</time></trkpt><trkpt lat="41.1242333" lon="-0.04575"><ele>259.4</ele><time>2026-03-31T12:52:15.161Z</time></trkpt><trkpt lat="41.1243233" lon="-0.045715"><ele>259.79999999999995</ele><time>2026-03-31T12:52:16.161Z</time></trkpt><trkpt lat="41.1244117" lon="-0.0456783"><ele>260.20000000000005</ele><time>2026-03-31T12:52:17.162Z</time></trkpt><trkpt lat="41.1245067" lon="-0.0456383"><ele>260.6</ele><time>2026-03-31T12:52:18.161Z</time></trkpt><trkpt lat="41.1246017" lon="-0.0455967"><ele>261.0</ele><time>2026-03-31T12:52:19.161Z</time></trkpt><trkpt lat="41.1246917" lon="-0.0455567"><ele>261.0</ele><time>2026-03-31T12:52:20.162Z</time></trkpt><trkpt lat="41.1247917" lon="-0.0455233"><ele>261.0</ele><time>2026-03-31T12:52:21.161Z</time></trkpt><trkpt lat="41.12489" lon="-0.04549"><ele>261.0</ele><time>2026-03-31T12:52:22.162Z</time></trkpt><trkpt lat="41.124985" lon="-0.0454467"><ele>261.0</ele><time>2026-03-31T12:52:23.161Z</time></trkpt><trkpt lat="41.1250867" lon="-0.045405"><ele>261.0</ele><time>2026-03-31T12:52:24.162Z</time></trkpt><trkpt lat="41.1251933" lon="-0.0453633"><ele>260.2</ele><time>2026-03-31T12:52:25.161Z</time></trkpt><trkpt lat="41.1252883" lon="-0.0453217"><ele>259.40000000000003</ele><time>2026-03-31T12:52:26.161Z</time></trkpt><trkpt lat="41.125395" lon="-0.045275"><ele>258.6</ele><time>2026-03-31T12:52:27.161Z</time></trkpt><trkpt lat="41.1255017" lon="-0.04523"><ele>257.8</ele><time>2026-03-31T12:52:28.161Z</time></trkpt><trkpt lat="41.1256" lon="-0.04519"><ele>257.0</ele><time>2026-03-31T12:52:29.161Z</time></trkpt><trkpt lat="41.1256967" lon="-0.0451417"><ele>255.2</ele><time>2026-03-31T12:52:30.162Z</time></trkpt><trkpt lat="41.1258033" lon="-0.0451"><ele>253.39999999999998</ele><time>2026-03-31T12:52:31.162Z</time></trkpt><trkpt lat="41.1259133" lon="-0.0450583"><ele>251.60000000000002</ele><time>2026-03-31T12:52:32.161Z</time></trkpt><trkpt lat="41.1260133" lon="-0.0450133"><ele>249.8</ele><time>2026-03-31T12:52:33.161Z</time></trkpt><trkpt lat="41.1261183" lon="-0.0449717"><ele>248.0</ele><time>2026-03-31T12:52:34.162Z</time></trkpt><trkpt lat="41.1262167" lon="-0.0449283"><ele>247.83333333333334</ele><time>2026-03-31T12:52:35.162Z</time></trkpt><trkpt lat="41.126305" lon="-0.04489"><ele>247.66666666666669</ele><time>2026-03-31T12:52:36.161Z</time></trkpt><trkpt lat="41.1263933" lon="-0.044845"><ele>247.5</ele><time>2026-03-31T12:52:37.161Z</time></trkpt><trkpt lat="41.126485" lon="-0.0448133"><ele>247.33333333333331</ele><time>2026-03-31T12:52:38.162Z</time></trkpt><trkpt lat="41.1265683" lon="-0.04478"><ele>247.16666666666666</ele><time>2026-03-31T12:52:39.161Z</time></trkpt><trkpt lat="41.126645" lon="-0.04475"><ele>247.0</ele><time>2026-03-31T12:52:40.162Z</time></trkpt><trkpt lat="41.1267583" lon="-0.044705"><ele>245.83333333333331</ele><time>2026-03-31T12:52:42.161Z</time></trkpt><trkpt lat="41.1268383" lon="-0.0446733"><ele>244.66666666666666</ele><time>2026-03-31T12:52:44.162Z</time></trkpt><trkpt lat="41.1269167" lon="-0.0446883"><ele>243.5</ele><time>2026-03-31T12:52:47.162Z</time></trkpt><trkpt lat="41.1269833" lon="-0.0446533"><ele>242.33333333333331</ele><time>2026-03-31T12:54:09.161Z</time></trkpt><trkpt lat="41.1270567" lon="-0.0445983"><ele>241.16666666666666</ele><time>2026-03-31T12:54:11.161Z</time></trkpt><trkpt lat="41.12718" lon="-0.04454"><ele>240.0</ele><time>2026-03-31T12:54:13.161Z</time></trkpt><trkpt lat="41.127245" lon="-0.0445117"><ele>240.0</ele><time>2026-03-31T12:54:14.162Z</time></trkpt><trkpt lat="41.127315" lon="-0.04448"><ele>240.0</ele><time>2026-03-31T12:54:15.161Z</time></trkpt><trkpt lat="41.127395" lon="-0.0444433"><ele>240.0</ele><time>2026-03-31T12:54:16.162Z</time></trkpt><trkpt lat="41.1274817" lon="-0.0444067"><ele>240.0</ele><time>2026-03-31T12:54:17.162Z</time></trkpt><trkpt lat="41.12758" lon="-0.0443667"><ele>240.0</ele><time>2026-03-31T12:54:18.162Z</time></trkpt><trkpt lat="41.12768" lon="-0.0443317"><ele>240.6</ele><time>2026-03-31T12:54:19.162Z</time></trkpt><trkpt lat="41.1277717" lon="-0.044295"><ele>241.2</ele><time>2026-03-31T12:54:20.161Z</time></trkpt><trkpt lat="41.1278617" lon="-0.04426"><ele>241.8</ele><time>2026-03-31T12:54:21.162Z</time></trkpt><trkpt lat="41.1279583" lon="-0.0442217"><ele>242.4</ele><time>2026-03-31T12:54:22.162Z</time></trkpt><trkpt lat="41.1280533" lon="-0.0441767"><ele>243.0</ele><time>2026-03-31T12:54:23.162Z</time></trkpt><trkpt lat="41.1281467" lon="-0.0441317"><ele>244.4</ele><time>2026-03-31T12:54:24.161Z</time></trkpt><trkpt lat="41.1282483" lon="-0.044095"><ele>245.8</ele><time>2026-03-31T12:54:25.162Z</time></trkpt><trkpt lat="41.1283533" lon="-0.0440517"><ele>247.2</ele><time>2026-03-31T12:54:26.161Z</time></trkpt><trkpt lat="41.128455" lon="-0.0440033"><ele>248.6</ele><time>2026-03-31T12:54:27.161Z</time></trkpt><trkpt lat="41.1285617" lon="-0.043955"><ele>250.0</ele><time>2026-03-31T12:54:28.162Z</time></trkpt><trkpt lat="41.12866" lon="-0.0439117"><ele>250.0</ele><time>2026-03-31T12:54:29.161Z</time></trkpt><trkpt lat="41.1287583" lon="-0.0438767"><ele>250.0</ele><time>2026-03-31T12:54:30.162Z</time></trkpt><trkpt lat="41.1288583" lon="-0.0438317"><ele>250.0</ele><time>2026-03-31T12:54:31.161Z</time></trkpt><trkpt lat="41.128955" lon="-0.0437867"><ele>250.0</ele><time>2026-03-31T12:54:32.161Z</time></trkpt><trkpt lat="41.1290467" lon="-0.04375"><ele>250.0</ele><time>2026-03-31T12:54:33.161Z</time></trkpt><trkpt lat="41.129135" lon="-0.0437183"><ele>249.8</ele><time>2026-03-31T12:54:34.161Z</time></trkpt><trkpt lat="41.1292233" lon="-0.043685"><ele>249.6</ele><time>2026-03-31T12:54:35.162Z</time></trkpt><trkpt lat="41.1293117" lon="-0.0436467"><ele>249.39999999999998</ele><time>2026-03-31T12:54:36.161Z</time></trkpt><trkpt lat="41.1294" lon="-0.043605"><ele>249.2</ele><time>2026-03-31T12:54:37.161Z</time></trkpt><trkpt lat="41.129495" lon="-0.043565"><ele>249.0</ele><time>2026-03-31T12:54:38.162Z</time></trkpt><trkpt lat="41.1295883" lon="-0.0435233"><ele>249.0</ele><time>2026-03-31T12:54:39.162Z</time></trkpt><trkpt lat="41.1296883" lon="-0.0434867"><ele>248.99999999999997</ele><time>2026-03-31T12:54:40.162Z</time></trkpt><trkpt lat="41.1297817" lon="-0.0434433"><ele>248.99999999999997</ele><time>2026-03-31T12:54:41.162Z</time></trkpt><trkpt lat="41.12988" lon="-0.0433983"><ele>249.0</ele><time>2026-03-31T12:54:42.162Z</time></trkpt><trkpt lat="41.12998" lon="-0.04335"><ele>249.0</ele><time>2026-03-31T12:54:43.162Z</time></trkpt><trkpt lat="41.1300817" lon="-0.043305"><ele>250.2</ele><time>2026-03-31T12:54:44.161Z</time></trkpt><trkpt lat="41.1301817" lon="-0.0432717"><ele>251.39999999999998</ele><time>2026-03-31T12:54:45.161Z</time></trkpt><trkpt lat="41.1302817" lon="-0.0432367"><ele>252.6</ele><time>2026-03-31T12:54:46.161Z</time></trkpt><trkpt lat="41.1303817" lon="-0.0432117"><ele>253.8</ele><time>2026-03-31T12:54:47.161Z</time></trkpt><trkpt lat="41.1304883" lon="-0.0431933"><ele>255.0</ele><time>2026-03-31T12:54:48.162Z</time></trkpt><trkpt lat="41.1305967" lon="-0.0431717"><ele>255.0</ele><time>2026-03-31T12:54:49.161Z</time></trkpt><trkpt lat="41.1307133" lon="-0.043165"><ele>255.0</ele><time>2026-03-31T12:54:50.162Z</time></trkpt><trkpt lat="41.13083" lon="-0.0431583"><ele>255.0</ele><time>2026-03-31T12:54:51.162Z</time></trkpt><trkpt lat="41.130945" lon="-0.0431583"><ele>255.0</ele><time>2026-03-31T12:54:52.161Z</time></trkpt><trkpt lat="41.1310567" lon="-0.0431733"><ele>254.75</ele><time>2026-03-31T12:54:53.162Z</time></trkpt><trkpt lat="41.13117" lon="-0.0431967"><ele>254.5</ele><time>2026-03-31T12:54:54.161Z</time></trkpt><trkpt lat="41.1312833" lon="-0.04323"><ele>254.25</ele><time>2026-03-31T12:54:55.161Z</time></trkpt><trkpt lat="41.1313967" lon="-0.0432683"><ele>254.0</ele><time>2026-03-31T12:54:56.161Z</time></trkpt><trkpt lat="41.13152" lon="-0.0433067"><ele>255.0</ele><time>2026-03-31T12:54:57.161Z</time></trkpt><trkpt lat="41.1316333" lon="-0.0433517"><ele>256.0</ele><time>2026-03-31T12:54:58.162Z</time></trkpt><trkpt lat="41.1317417" lon="-0.0434083"><ele>257.0</ele><time>2026-03-31T12:54:59.162Z</time></trkpt><trkpt lat="41.131845" lon="-0.0434767"><ele>258.0</ele><time>2026-03-31T12:55:00.162Z</time></trkpt><trkpt lat="41.1319483" lon="-0.0435567"><ele>258.0</ele><time>2026-03-31T12:55:01.161Z</time></trkpt><trkpt lat="41.1320467" lon="-0.04364"><ele>258.0</ele><time>2026-03-31T12:55:02.162Z</time></trkpt><trkpt lat="41.1321517" lon="-0.0437217"><ele>258.0</ele><time>2026-03-31T12:55:03.161Z</time></trkpt><trkpt lat="41.13225" lon="-0.043805"><ele>258.0</ele><time>2026-03-31T12:55:04.161Z</time></trkpt><trkpt lat="41.1323467" lon="-0.0438883"><ele>257.4</ele><time>2026-03-31T12:55:05.162Z</time></trkpt><trkpt lat="41.1324333" lon="-0.0439717"><ele>256.8</ele><time>2026-03-31T12:55:06.162Z</time></trkpt><trkpt lat="41.1325233" lon="-0.044045"><ele>256.2</ele><time>2026-03-31T12:55:07.161Z</time></trkpt><trkpt lat="41.1326083" lon="-0.0441183"><ele>255.6</ele><time>2026-03-31T12:55:08.162Z</time></trkpt><trkpt lat="41.13269" lon="-0.0441817"><ele>255.0</ele><time>2026-03-31T12:55:09.161Z</time></trkpt><trkpt lat="41.1327633" lon="-0.04424"><ele>255.0</ele><time>2026-03-31T12:55:10.161Z</time></trkpt><trkpt lat="41.1328317" lon="-0.044295"><ele>255.0</ele><time>2026-03-31T12:55:11.161Z</time></trkpt><trkpt lat="41.1329" lon="-0.04434"><ele>255.0</ele><time>2026-03-31T12:55:12.162Z</time></trkpt><trkpt lat="41.132965" lon="-0.0443833"><ele>255.0</ele><time>2026-03-31T12:55:13.161Z</time></trkpt><trkpt lat="41.1330333" lon="-0.0444383"><ele>255.0</ele><time>2026-03-31T12:55:14.161Z</time></trkpt><trkpt lat="41.1331083" lon="-0.0445017"><ele>255.0</ele><time>2026-03-31T12:55:15.161Z</time></trkpt><trkpt lat="41.1331917" lon="-0.0445767"><ele>256.4</ele><time>2026-03-31T12:55:16.161Z</time></trkpt><trkpt lat="41.13328" lon="-0.0446583"><ele>257.8</ele><time>2026-03-31T12:55:17.161Z</time></trkpt><trkpt lat="41.1333733" lon="-0.0447367"><ele>259.2</ele><time>2026-03-31T12:55:18.162Z</time></trkpt><trkpt lat="41.13347" lon="-0.0448117"><ele>260.6</ele><time>2026-03-31T12:55:19.162Z</time></trkpt><trkpt lat="41.1335567" lon="-0.0448833"><ele>262.0</ele><time>2026-03-31T12:55:20.161Z</time></trkpt><trkpt lat="41.1336483" lon="-0.0449617"><ele>262.2</ele><time>2026-03-31T12:55:21.161Z</time></trkpt><trkpt lat="41.13374" lon="-0.0450417"><ele>262.4</ele><time>2026-03-31T12:55:22.161Z</time></trkpt><trkpt lat="41.1338333" lon="-0.0451183"><ele>262.6</ele><time>2026-03-31T12:55:23.162Z</time></trkpt><trkpt lat="41.1339283" lon="-0.0451933"><ele>262.8</ele><time>2026-03-31T12:55:24.161Z</time></trkpt><trkpt lat="41.1340233" lon="-0.0452717"><ele>263.0</ele><time>2026-03-31T12:55:25.161Z</time></trkpt><trkpt lat="41.1341233" lon="-0.04535"><ele>263.0</ele><time>2026-03-31T12:55:26.162Z</time></trkpt><trkpt lat="41.134215" lon="-0.0454333"><ele>263.0</ele><time>2026-03-31T12:55:27.161Z</time></trkpt><trkpt lat="41.1343067" lon="-0.0455117"><ele>263.0</ele><time>2026-03-31T12:55:28.161Z</time></trkpt><trkpt lat="41.1343933" lon="-0.0455867"><ele>263.0</ele><time>2026-03-31T12:55:29.162Z</time></trkpt><trkpt lat="41.1344783" lon="-0.0456583"><ele>263.0</ele><time>2026-03-31T12:55:30.161Z</time></trkpt><trkpt lat="41.134565" lon="-0.045725"><ele>263.0</ele><time>2026-03-31T12:55:31.161Z</time></trkpt><trkpt lat="41.1346483" lon="-0.0457933"><ele>263.0</ele><time>2026-03-31T12:55:32.161Z</time></trkpt><trkpt lat="41.1347333" lon="-0.0458583"><ele>263.0</ele><time>2026-03-31T12:55:33.162Z</time></trkpt><trkpt lat="41.13482" lon="-0.045925"><ele>263.0</ele><time>2026-03-31T12:55:34.162Z</time></trkpt><trkpt lat="41.134905" lon="-0.0459983"><ele>263.0</ele><time>2026-03-31T12:55:35.162Z</time></trkpt><trkpt lat="41.134995" lon="-0.0460717"><ele>265.0</ele><time>2026-03-31T12:55:36.161Z</time></trkpt><trkpt lat="41.1350967" lon="-0.0461467"><ele>267.0</ele><time>2026-03-31T12:55:37.162Z</time></trkpt><trkpt lat="41.1351917" lon="-0.0462233"><ele>269.0</ele><time>2026-03-31T12:55:38.162Z</time></trkpt><trkpt lat="41.135295" lon="-0.046305"><ele>271.0</ele><time>2026-03-31T12:55:39.161Z</time></trkpt><trkpt lat="41.1353917" lon="-0.0463967"><ele>271.0</ele><time>2026-03-31T12:55:40.161Z</time></trkpt><trkpt lat="41.1354917" lon="-0.0464883"><ele>271.0</ele><time>2026-03-31T12:55:41.162Z</time></trkpt><trkpt lat="41.1356017" lon="-0.0465783"><ele>271.0</ele><time>2026-03-31T12:55:42.161Z</time></trkpt><trkpt lat="41.135705" lon="-0.04666"><ele>271.0</ele><time>2026-03-31T12:55:43.161Z</time></trkpt><trkpt lat="41.1358083" lon="-0.0467417"><ele>271.25</ele><time>2026-03-31T12:55:44.161Z</time></trkpt><trkpt lat="41.1359083" lon="-0.0468233"><ele>271.5</ele><time>2026-03-31T12:55:45.162Z</time></trkpt><trkpt lat="41.1360117" lon="-0.0469017"><ele>271.75</ele><time>2026-03-31T12:55:46.162Z</time></trkpt><trkpt lat="41.13611" lon="-0.04698"><ele>272.0</ele><time>2026-03-31T12:55:47.162Z</time></trkpt><trkpt lat="41.1362117" lon="-0.0470567"><ele>272.0</ele><time>2026-03-31T12:55:48.161Z</time></trkpt><trkpt lat="41.1363117" lon="-0.04714"><ele>272.0</ele><time>2026-03-31T12:55:49.161Z</time></trkpt><trkpt lat="41.13641" lon="-0.0472217"><ele>272.0</ele><time>2026-03-31T12:55:50.161Z</time></trkpt><trkpt lat="41.1365083" lon="-0.0473083"><ele>272.0</ele><time>2026-03-31T12:55:51.161Z</time></trkpt><trkpt lat="41.1366033" lon="-0.047395"><ele>272.5</ele><time>2026-03-31T12:55:52.161Z</time></trkpt><trkpt lat="41.1366983" lon="-0.047485"><ele>273.0</ele><time>2026-03-31T12:55:53.161Z</time></trkpt><trkpt lat="41.1367917" lon="-0.0475817"><ele>273.5</ele><time>2026-03-31T12:55:54.161Z</time></trkpt><trkpt lat="41.13688" lon="-0.04768"><ele>274.0</ele><time>2026-03-31T12:55:55.162Z</time></trkpt><trkpt lat="41.136975" lon="-0.0477867"><ele>274.0</ele><time>2026-03-31T12:55:56.161Z</time></trkpt><trkpt lat="41.1370617" lon="-0.0478933"><ele>274.0</ele><time>2026-03-31T12:55:57.162Z</time></trkpt><trkpt lat="41.1371483" lon="-0.047995"><ele>274.0</ele><time>2026-03-31T12:55:58.161Z</time></trkpt><trkpt lat="41.1372367" lon="-0.048095"><ele>274.0</ele><time>2026-03-31T12:55:59.161Z</time></trkpt><trkpt lat="41.1373217" lon="-0.04819"><ele>275.0</ele><time>2026-03-31T12:56:00.161Z</time></trkpt><trkpt lat="41.13741" lon="-0.048295"><ele>276.0</ele><time>2026-03-31T12:56:01.161Z</time></trkpt><trkpt lat="41.1374967" lon="-0.0484"><ele>277.0</ele><time>2026-03-31T12:56:02.161Z</time></trkpt><trkpt lat="41.1375833" lon="-0.0485117"><ele>278.0</ele><time>2026-03-31T12:56:03.161Z</time></trkpt><trkpt lat="41.137675" lon="-0.0486217"><ele>278.0</ele><time>2026-03-31T12:56:04.162Z</time></trkpt><trkpt lat="41.13776" lon="-0.0487233"><ele>278.0</ele><time>2026-03-31T12:56:05.162Z</time></trkpt><trkpt lat="41.1378483" lon="-0.0488317"><ele>278.0</ele><time>2026-03-31T12:56:06.162Z</time></trkpt><trkpt lat="41.13794" lon="-0.0489367"><ele>278.0</ele><time>2026-03-31T12:56:07.161Z</time></trkpt><trkpt lat="41.1380317" lon="-0.0490433"><ele>278.25</ele><time>2026-03-31T12:56:08.162Z</time></trkpt><trkpt lat="41.1381217" lon="-0.04914"><ele>278.5</ele><time>2026-03-31T12:56:09.162Z</time></trkpt><trkpt lat="41.1382033" lon="-0.049245"><ele>278.75</ele><time>2026-03-31T12:56:10.161Z</time></trkpt><trkpt lat="41.138285" lon="-0.04935"><ele>279.0</ele><time>2026-03-31T12:56:11.161Z</time></trkpt><trkpt lat="41.138365" lon="-0.0494467"><ele>279.0</ele><time>2026-03-31T12:56:12.161Z</time></trkpt><trkpt lat="41.13845" lon="-0.0495533"><ele>279.0</ele><time>2026-03-31T12:56:13.162Z</time></trkpt><trkpt lat="41.138535" lon="-0.049645"><ele>279.0</ele><time>2026-03-31T12:56:14.161Z</time></trkpt><trkpt lat="41.138625" lon="-0.0497333"><ele>279.0</ele><time>2026-03-31T12:56:15.161Z</time></trkpt><trkpt lat="41.1387217" lon="-0.04982"><ele>279.0</ele><time>2026-03-31T12:56:16.162Z</time></trkpt><trkpt lat="41.1388133" lon="-0.0499183"><ele>279.0</ele><time>2026-03-31T12:56:17.162Z</time></trkpt><trkpt lat="41.1389083" lon="-0.0500117"><ele>279.0</ele><time>2026-03-31T12:56:18.162Z</time></trkpt><trkpt lat="41.139005" lon="-0.0501033"><ele>279.0</ele><time>2026-03-31T12:56:19.161Z</time></trkpt><trkpt lat="41.1391067" lon="-0.050195"><ele>276.25</ele><time>2026-03-31T12:56:20.161Z</time></trkpt><trkpt lat="41.139205" lon="-0.0502867"><ele>273.5</ele><time>2026-03-31T12:56:21.162Z</time></trkpt><trkpt lat="41.139305" lon="-0.050375"><ele>270.75</ele><time>2026-03-31T12:56:22.161Z</time></trkpt><trkpt lat="41.1393983" lon="-0.050465"><ele>268.0</ele><time>2026-03-31T12:56:23.161Z</time></trkpt><trkpt lat="41.139485" lon="-0.0505517"><ele>268.0</ele><time>2026-03-31T12:56:24.161Z</time></trkpt><trkpt lat="41.1395633" lon="-0.0506317"><ele>268.0</ele><time>2026-03-31T12:56:25.161Z</time></trkpt><trkpt lat="41.1396417" lon="-0.050705"><ele>268.0</ele><time>2026-03-31T12:56:26.161Z</time></trkpt><trkpt lat="41.1397233" lon="-0.0507767"><ele>268.0</ele><time>2026-03-31T12:56:27.161Z</time></trkpt><trkpt lat="41.13981" lon="-0.0508383"><ele>268.0</ele><time>2026-03-31T12:56:28.161Z</time></trkpt><trkpt lat="41.1398933" lon="-0.0508983"><ele>266.6</ele><time>2026-03-31T12:56:29.161Z</time></trkpt><trkpt lat="41.1399833" lon="-0.05094"><ele>265.20000000000005</ele><time>2026-03-31T12:56:30.162Z</time></trkpt><trkpt lat="41.1400767" lon="-0.05098"><ele>263.8</ele><time>2026-03-31T12:56:31.162Z</time></trkpt><trkpt lat="41.1401683" lon="-0.0510017"><ele>262.40000000000003</ele><time>2026-03-31T12:56:32.161Z</time></trkpt><trkpt lat="41.1402667" lon="-0.051"><ele>261.0</ele><time>2026-03-31T12:56:33.161Z</time></trkpt><trkpt lat="41.14037" lon="-0.0509883"><ele>261.0</ele><time>2026-03-31T12:56:34.162Z</time></trkpt><trkpt lat="41.1404817" lon="-0.0509583"><ele>261.0</ele><time>2026-03-31T12:56:35.161Z</time></trkpt><trkpt lat="41.1405833" lon="-0.05092"><ele>261.0</ele><time>2026-03-31T12:56:36.161Z</time></trkpt><trkpt lat="41.1406767" lon="-0.0508617"><ele>261.0</ele><time>2026-03-31T12:56:37.161Z</time></trkpt><trkpt lat="41.1407683" lon="-0.0507783"><ele>261.0</ele><time>2026-03-31T12:56:38.161Z</time></trkpt><trkpt lat="41.140855" lon="-0.05069"><ele>260.0</ele><time>2026-03-31T12:56:39.162Z</time></trkpt><trkpt lat="41.1409483" lon="-0.0505867"><ele>259.0</ele><time>2026-03-31T12:56:40.161Z</time></trkpt><trkpt lat="41.1410383" lon="-0.0504917"><ele>258.0</ele><time>2026-03-31T12:56:41.162Z</time></trkpt><trkpt lat="41.14113" lon="-0.0504017"><ele>257.0</ele><time>2026-03-31T12:56:42.162Z</time></trkpt><trkpt lat="41.14122" lon="-0.05031"><ele>257.0</ele><time>2026-03-31T12:56:43.162Z</time></trkpt><trkpt lat="41.14131" lon="-0.05022"><ele>257.0</ele><time>2026-03-31T12:56:44.162Z</time></trkpt><trkpt lat="41.1414067" lon="-0.050125"><ele>257.0</ele><time>2026-03-31T12:56:45.161Z</time></trkpt><trkpt lat="41.1415033" lon="-0.0500267"><ele>257.0</ele><time>2026-03-31T12:56:46.162Z</time></trkpt><trkpt lat="41.1415933" lon="-0.0499267"><ele>257.5</ele><time>2026-03-31T12:56:47.162Z</time></trkpt><trkpt lat="41.141685" lon="-0.049825"><ele>258.0</ele><time>2026-03-31T12:56:48.162Z</time></trkpt><trkpt lat="41.1417817" lon="-0.0497333"><ele>258.5</ele><time>2026-03-31T12:56:49.161Z</time></trkpt><trkpt lat="41.14188" lon="-0.0496367"><ele>259.0</ele><time>2026-03-31T12:56:50.162Z</time></trkpt><trkpt lat="41.1419783" lon="-0.04954"><ele>259.0</ele><time>2026-03-31T12:56:51.162Z</time></trkpt><trkpt lat="41.1420783" lon="-0.04944"><ele>259.0</ele><time>2026-03-31T12:56:52.161Z</time></trkpt><trkpt lat="41.14217" lon="-0.0493433"><ele>259.0</ele><time>2026-03-31T12:56:53.161Z</time></trkpt><trkpt lat="41.1422583" lon="-0.0492433"><ele>259.0</ele><time>2026-03-31T12:56:54.161Z</time></trkpt><trkpt lat="41.14234" lon="-0.0491567"><ele>258.4</ele><time>2026-03-31T12:56:55.162Z</time></trkpt><trkpt lat="41.1424233" lon="-0.0490767"><ele>257.79999999999995</ele><time>2026-03-31T12:56:56.161Z</time></trkpt><trkpt lat="41.1425" lon="-0.0489983"><ele>257.20000000000005</ele><time>2026-03-31T12:56:57.162Z</time></trkpt><trkpt lat="41.1425733" lon="-0.0489267"><ele>256.6</ele><time>2026-03-31T12:56:58.161Z</time></trkpt><trkpt lat="41.142645" lon="-0.0488517"><ele>256.0</ele><time>2026-03-31T12:56:59.161Z</time></trkpt><trkpt lat="41.14272" lon="-0.04877"><ele>256.0</ele><time>2026-03-31T12:57:00.162Z</time></trkpt><trkpt lat="41.1427917" lon="-0.0487"><ele>256.0</ele><time>2026-03-31T12:57:01.161Z</time></trkpt><trkpt lat="41.1428617" lon="-0.0486283"><ele>256.0</ele><time>2026-03-31T12:57:02.161Z</time></trkpt><trkpt lat="41.1429367" lon="-0.048555"><ele>256.0</ele><time>2026-03-31T12:57:03.161Z</time></trkpt><trkpt lat="41.143015" lon="-0.0484783"><ele>256.0</ele><time>2026-03-31T12:57:04.16Z</time></trkpt><trkpt lat="41.1430983" lon="-0.0483967"><ele>256.0</ele><time>2026-03-31T12:57:05.16Z</time></trkpt><trkpt lat="41.143185" lon="-0.04831"><ele>256.0</ele><time>2026-03-31T12:57:06.16Z</time></trkpt><trkpt lat="41.1432717" lon="-0.0482233"><ele>256.0</ele><time>2026-03-31T12:57:07.16Z</time></trkpt><trkpt lat="41.14336" lon="-0.04813"><ele>256.0</ele><time>2026-03-31T12:57:08.16Z</time></trkpt><trkpt lat="41.14345" lon="-0.0480417"><ele>256.0</ele><time>2026-03-31T12:57:09.16Z</time></trkpt><trkpt lat="41.14354" lon="-0.0479483"><ele>255.5</ele><time>2026-03-31T12:57:10.16Z</time></trkpt><trkpt lat="41.1436317" lon="-0.0478567"><ele>255.0</ele><time>2026-03-31T12:57:11.16Z</time></trkpt><trkpt lat="41.1437233" lon="-0.047765"><ele>254.5</ele><time>2026-03-31T12:57:12.161Z</time></trkpt><trkpt lat="41.1438133" lon="-0.04768"><ele>254.0</ele><time>2026-03-31T12:57:13.16Z</time></trkpt><trkpt lat="41.1439017" lon="-0.0475833"><ele>254.0</ele><time>2026-03-31T12:57:14.161Z</time></trkpt><trkpt lat="41.1439933" lon="-0.0474867"><ele>254.0</ele><time>2026-03-31T12:57:15.16Z</time></trkpt><trkpt lat="41.1440833" lon="-0.047395"><ele>254.0</ele><time>2026-03-31T12:57:16.16Z</time></trkpt><trkpt lat="41.1441733" lon="-0.0472983"><ele>254.0</ele><time>2026-03-31T12:57:17.16Z</time></trkpt><trkpt lat="41.14426" lon="-0.0472083"><ele>253.39999999999998</ele><time>2026-03-31T12:57:18.16Z</time></trkpt><trkpt lat="41.14435" lon="-0.0471233"><ele>252.79999999999998</ele><time>2026-03-31T12:57:19.161Z</time></trkpt><trkpt lat="41.144435" lon="-0.0470317"><ele>252.20000000000002</ele><time>2026-03-31T12:57:20.16Z</time></trkpt><trkpt lat="41.1445217" lon="-0.04695"><ele>251.60000000000002</ele><time>2026-03-31T12:57:21.161Z</time></trkpt><trkpt lat="41.1446117" lon="-0.0468667"><ele>251.0</ele><time>2026-03-31T12:57:22.16Z</time></trkpt><trkpt lat="41.1447033" lon="-0.0467883"><ele>251.0</ele><time>2026-03-31T12:57:23.161Z</time></trkpt><trkpt lat="41.144795" lon="-0.0467017"><ele>251.00000000000003</ele><time>2026-03-31T12:57:24.16Z</time></trkpt><trkpt lat="41.1448817" lon="-0.0466167"><ele>251.00000000000003</ele><time>2026-03-31T12:57:25.161Z</time></trkpt><trkpt lat="41.144955" lon="-0.046535"><ele>251.0</ele><time>2026-03-31T12:57:26.161Z</time></trkpt><trkpt lat="41.1450233" lon="-0.046455"><ele>251.0</ele><time>2026-03-31T12:57:27.161Z</time></trkpt><trkpt lat="41.1450867" lon="-0.0463817"><ele>251.50000000000003</ele><time>2026-03-31T12:57:28.16Z</time></trkpt><trkpt lat="41.145145" lon="-0.0463167"><ele>252.0</ele><time>2026-03-31T12:57:29.16Z</time></trkpt><trkpt lat="41.1452167" lon="-0.0462317"><ele>252.5</ele><time>2026-03-31T12:57:31.161Z</time></trkpt><trkpt lat="41.14519" lon="-0.0461517"><ele>253.0</ele><time>2026-03-31T12:57:36.161Z</time></trkpt><trkpt lat="41.145135" lon="-0.0460667"><ele>253.50000000000003</ele><time>2026-03-31T12:57:37.161Z</time></trkpt><trkpt lat="41.1450733" lon="-0.0459833"><ele>254.0</ele><time>2026-03-31T12:57:38.161Z</time></trkpt><trkpt lat="41.145" lon="-0.0459183"><ele>254.00000000000003</ele><time>2026-03-31T12:57:39.161Z</time></trkpt><trkpt lat="41.1449283" lon="-0.04587"><ele>254.0</ele><time>2026-03-31T12:57:40.161Z</time></trkpt><trkpt lat="41.144845" lon="-0.0458383"><ele>254.0</ele><time>2026-03-31T12:57:41.16Z</time></trkpt><trkpt lat="41.1447583" lon="-0.0458233"><ele>254.0</ele><time>2026-03-31T12:57:42.16Z</time></trkpt><trkpt lat="41.144675" lon="-0.0458233"><ele>254.00000000000003</ele><time>2026-03-31T12:57:43.161Z</time></trkpt><trkpt lat="41.1445967" lon="-0.0458367"><ele>254.0</ele><time>2026-03-31T12:57:44.16Z</time></trkpt><trkpt lat="41.1445233" lon="-0.04586"><ele>253.33333333333334</ele><time>2026-03-31T12:57:45.161Z</time></trkpt><trkpt lat="41.14445" lon="-0.0458717"><ele>252.66666666666669</ele><time>2026-03-31T12:57:46.161Z</time></trkpt><trkpt lat="41.1443783" lon="-0.04588"><ele>252.0</ele><time>2026-03-31T12:57:47.16Z</time></trkpt><trkpt lat="41.1443067" lon="-0.0458733"><ele>251.33333333333331</ele><time>2026-03-31T12:57:48.161Z</time></trkpt><trkpt lat="41.1442383" lon="-0.0458533"><ele>250.66666666666666</ele><time>2026-03-31T12:57:49.16Z</time></trkpt><trkpt lat="41.14416" lon="-0.0458183"><ele>250.0</ele><time>2026-03-31T12:57:50.161Z</time></trkpt><trkpt lat="41.14408" lon="-0.0457667"><ele>251.0</ele><time>2026-03-31T12:57:51.16Z</time></trkpt><trkpt lat="41.1440017" lon="-0.0457033"><ele>252.0</ele><time>2026-03-31T12:57:52.16Z</time></trkpt><trkpt lat="41.143925" lon="-0.0456367"><ele>253.0</ele><time>2026-03-31T12:57:53.16Z</time></trkpt><trkpt lat="41.14385" lon="-0.04556"><ele>254.0</ele><time>2026-03-31T12:57:54.16Z</time></trkpt><trkpt lat="41.1437717" lon="-0.0454783"><ele>255.0</ele><time>2026-03-31T12:57:55.16Z</time></trkpt><trkpt lat="41.1436933" lon="-0.045395"><ele>255.0</ele><time>2026-03-31T12:57:56.161Z</time></trkpt><trkpt lat="41.1436167" lon="-0.0453117"><ele>255.0</ele><time>2026-03-31T12:57:57.16Z</time></trkpt><trkpt lat="41.1435367" lon="-0.0452283"><ele>255.0</ele><time>2026-03-31T12:57:58.16Z</time></trkpt><trkpt lat="41.1434583" lon="-0.0451467"><ele>255.0</ele><time>2026-03-31T12:57:59.161Z</time></trkpt><trkpt lat="41.1433783" lon="-0.045065"><ele>255.0</ele><time>2026-03-31T12:58:00.161Z</time></trkpt><trkpt lat="41.1432983" lon="-0.0449817"><ele>255.6</ele><time>2026-03-31T12:58:01.161Z</time></trkpt><trkpt lat="41.1432183" lon="-0.0448967"><ele>256.2</ele><time>2026-03-31T12:58:02.161Z</time></trkpt><trkpt lat="41.143145" lon="-0.0448083"><ele>256.8</ele><time>2026-03-31T12:58:03.16Z</time></trkpt><trkpt lat="41.1430683" lon="-0.0447183"><ele>257.4</ele><time>2026-03-31T12:58:04.16Z</time></trkpt><trkpt lat="41.14299" lon="-0.0446183"><ele>258.0</ele><time>2026-03-31T12:58:05.161Z</time></trkpt><trkpt lat="41.1429217" lon="-0.0445183"><ele>256.4</ele><time>2026-03-31T12:58:06.16Z</time></trkpt><trkpt lat="41.1428667" lon="-0.0444217"><ele>254.8</ele><time>2026-03-31T12:58:07.161Z</time></trkpt><trkpt lat="41.14282" lon="-0.0443317"><ele>253.2</ele><time>2026-03-31T12:58:08.161Z</time></trkpt><trkpt lat="41.14278" lon="-0.0442317"><ele>251.6</ele><time>2026-03-31T12:58:09.161Z</time></trkpt><trkpt lat="41.1427367" lon="-0.044115"><ele>250.0</ele><time>2026-03-31T12:58:10.16Z</time></trkpt><trkpt lat="41.142695" lon="-0.0439933"><ele>250.0</ele><time>2026-03-31T12:58:11.161Z</time></trkpt><trkpt lat="41.14265" lon="-0.0438583"><ele>250.0</ele><time>2026-03-31T12:58:12.161Z</time></trkpt><trkpt lat="41.1426067" lon="-0.0437167"><ele>250.0</ele><time>2026-03-31T12:58:13.161Z</time></trkpt><trkpt lat="41.1425717" lon="-0.043565"><ele>250.0</ele><time>2026-03-31T12:58:14.16Z</time></trkpt><trkpt lat="41.1425367" lon="-0.0434167"><ele>250.5</ele><time>2026-03-31T12:58:15.161Z</time></trkpt><trkpt lat="41.1425033" lon="-0.04327"><ele>251.0</ele><time>2026-03-31T12:58:16.161Z</time></trkpt><trkpt lat="41.1424667" lon="-0.0431267"><ele>251.5</ele><time>2026-03-31T12:58:17.16Z</time></trkpt><trkpt lat="41.142435" lon="-0.04298"><ele>252.0</ele><time>2026-03-31T12:58:18.16Z</time></trkpt><trkpt lat="41.1424033" lon="-0.0428367"><ele>250.75</ele><time>2026-03-31T12:58:19.161Z</time></trkpt><trkpt lat="41.1423683" lon="-0.042685"><ele>249.5</ele><time>2026-03-31T12:58:20.16Z</time></trkpt><trkpt lat="41.1423267" lon="-0.0425317"><ele>248.25</ele><time>2026-03-31T12:58:21.16Z</time></trkpt><trkpt lat="41.1422933" lon="-0.0423867"><ele>247.0</ele><time>2026-03-31T12:58:22.16Z</time></trkpt><trkpt lat="41.1422667" lon="-0.042255"><ele>247.0</ele><time>2026-03-31T12:58:23.16Z</time></trkpt><trkpt lat="41.1422417" lon="-0.042125"><ele>247.0</ele><time>2026-03-31T12:58:24.16Z</time></trkpt><trkpt lat="41.1422183" lon="-0.0419983"><ele>247.0</ele><time>2026-03-31T12:58:25.16Z</time></trkpt><trkpt lat="41.142215" lon="-0.0418633"><ele>247.0</ele><time>2026-03-31T12:58:26.16Z</time></trkpt><trkpt lat="41.1422167" lon="-0.04174"><ele>247.0</ele><time>2026-03-31T12:58:27.161Z</time></trkpt><trkpt lat="41.1422283" lon="-0.0416167"><ele>246.8</ele><time>2026-03-31T12:58:28.161Z</time></trkpt><trkpt lat="41.142245" lon="-0.041495"><ele>246.6</ele><time>2026-03-31T12:58:29.161Z</time></trkpt><trkpt lat="41.1422533" lon="-0.041365"><ele>246.40000000000003</ele><time>2026-03-31T12:58:30.16Z</time></trkpt><trkpt lat="41.1422467" lon="-0.0412433"><ele>246.20000000000002</ele><time>2026-03-31T12:58:31.16Z</time></trkpt><trkpt lat="41.1422367" lon="-0.04112"><ele>246.0</ele><time>2026-03-31T12:58:32.161Z</time></trkpt><trkpt lat="41.1422067" lon="-0.0409867"><ele>246.0</ele><time>2026-03-31T12:58:33.161Z</time></trkpt><trkpt lat="41.1421683" lon="-0.04086"><ele>246.00000000000003</ele><time>2026-03-31T12:58:34.16Z</time></trkpt><trkpt lat="41.1421333" lon="-0.04075"><ele>246.00000000000003</ele><time>2026-03-31T12:58:35.16Z</time></trkpt><trkpt lat="41.1420917" lon="-0.0406583"><ele>246.0</ele><time>2026-03-31T12:58:36.161Z</time></trkpt><trkpt lat="41.1420367" lon="-0.040565"><ele>246.0</ele><time>2026-03-31T12:58:37.161Z</time></trkpt><trkpt lat="41.1419783" lon="-0.040465"><ele>245.8</ele><time>2026-03-31T12:58:38.161Z</time></trkpt><trkpt lat="41.1419217" lon="-0.0403633"><ele>245.60000000000002</ele><time>2026-03-31T12:58:39.16Z</time></trkpt><trkpt lat="41.141865" lon="-0.0402567"><ele>245.4</ele><time>2026-03-31T12:58:40.16Z</time></trkpt><trkpt lat="41.141805" lon="-0.04015"><ele>245.2</ele><time>2026-03-31T12:58:41.16Z</time></trkpt><trkpt lat="41.14176" lon="-0.0400533"><ele>245.0</ele><time>2026-03-31T12:58:42.16Z</time></trkpt><trkpt lat="41.1417167" lon="-0.03997"><ele>245.33333333333334</ele><time>2026-03-31T12:58:43.16Z</time></trkpt><trkpt lat="41.1416833" lon="-0.0398917"><ele>245.66666666666669</ele><time>2026-03-31T12:58:44.16Z</time></trkpt><trkpt lat="41.141635" lon="-0.0397383"><ele>246.0</ele><time>2026-03-31T12:58:46.16Z</time></trkpt><trkpt lat="41.14163" lon="-0.0396367"><ele>246.33333333333331</ele><time>2026-03-31T12:58:47.161Z</time></trkpt><trkpt lat="41.1416283" lon="-0.0395417"><ele>246.66666666666666</ele><time>2026-03-31T12:58:48.16Z</time></trkpt><trkpt lat="41.1416333" lon="-0.03943"><ele>247.0</ele><time>2026-03-31T12:58:49.16Z</time></trkpt><trkpt lat="41.141635" lon="-0.0393167"><ele>246.99999999999997</ele><time>2026-03-31T12:58:50.16Z</time></trkpt><trkpt lat="41.141635" lon="-0.0392017"><ele>247.0</ele><time>2026-03-31T12:58:51.16Z</time></trkpt><trkpt lat="41.14164" lon="-0.03908"><ele>247.0</ele><time>2026-03-31T12:58:52.16Z</time></trkpt><trkpt lat="41.1416467" lon="-0.0389567"><ele>247.0</ele><time>2026-03-31T12:58:53.16Z</time></trkpt><trkpt lat="41.1416583" lon="-0.03884"><ele>246.99999999999997</ele><time>2026-03-31T12:58:54.161Z</time></trkpt><trkpt lat="41.141675" lon="-0.0387317"><ele>247.0</ele><time>2026-03-31T12:58:55.16Z</time></trkpt><trkpt lat="41.1416983" lon="-0.0386283"><ele>246.33333333333331</ele><time>2026-03-31T12:58:56.16Z</time></trkpt><trkpt lat="41.1417333" lon="-0.038535"><ele>245.66666666666666</ele><time>2026-03-31T12:58:57.16Z</time></trkpt><trkpt lat="41.1417867" lon="-0.0384483"><ele>245.0</ele><time>2026-03-31T12:58:58.16Z</time></trkpt><trkpt lat="41.14185" lon="-0.038375"><ele>244.33333333333331</ele><time>2026-03-31T12:58:59.16Z</time></trkpt><trkpt lat="41.14192" lon="-0.038315"><ele>243.66666666666666</ele><time>2026-03-31T12:59:00.16Z</time></trkpt><trkpt lat="41.142" lon="-0.0382783"><ele>243.0</ele><time>2026-03-31T12:59:01.161Z</time></trkpt><trkpt lat="41.1420883" lon="-0.0382467"><ele>242.4</ele><time>2026-03-31T12:59:02.16Z</time></trkpt><trkpt lat="41.14218" lon="-0.038225"><ele>241.8</ele><time>2026-03-31T12:59:03.16Z</time></trkpt><trkpt lat="41.1422817" lon="-0.03821"><ele>241.2</ele><time>2026-03-31T12:59:04.16Z</time></trkpt><trkpt lat="41.1423867" lon="-0.0382"><ele>240.6</ele><time>2026-03-31T12:59:05.16Z</time></trkpt><trkpt lat="41.14249" lon="-0.0381867"><ele>240.0</ele><time>2026-03-31T12:59:06.161Z</time></trkpt><trkpt lat="41.1425833" lon="-0.0381767"><ele>240.0</ele><time>2026-03-31T12:59:07.16Z</time></trkpt><trkpt lat="41.14268" lon="-0.03816"><ele>240.0</ele><time>2026-03-31T12:59:08.16Z</time></trkpt><trkpt lat="41.14278" lon="-0.0381533"><ele>240.0</ele><time>2026-03-31T12:59:09.16Z</time></trkpt><trkpt lat="41.14288" lon="-0.0381467"><ele>240.0</ele><time>2026-03-31T12:59:10.161Z</time></trkpt><trkpt lat="41.1429733" lon="-0.0381217"><ele>240.0</ele><time>2026-03-31T12:59:11.16Z</time></trkpt><trkpt lat="41.1430633" lon="-0.0380833"><ele>240.0</ele><time>2026-03-31T12:59:12.161Z</time></trkpt><trkpt lat="41.1431417" lon="-0.0380233"><ele>240.0</ele><time>2026-03-31T12:59:13.161Z</time></trkpt><trkpt lat="41.1432017" lon="-0.0379517"><ele>240.0</ele><time>2026-03-31T12:59:14.16Z</time></trkpt><trkpt lat="41.1432567" lon="-0.03787"><ele>240.0</ele><time>2026-03-31T12:59:15.161Z</time></trkpt><trkpt lat="41.143305" lon="-0.03777"><ele>240.0</ele><time>2026-03-31T12:59:16.16Z</time></trkpt><trkpt lat="41.1433567" lon="-0.0376567"><ele>240.0</ele><time>2026-03-31T12:59:17.16Z</time></trkpt><trkpt lat="41.1434233" lon="-0.0375583"><ele>239.0</ele><time>2026-03-31T12:59:18.16Z</time></trkpt><trkpt lat="41.1435" lon="-0.0374517"><ele>238.0</ele><time>2026-03-31T12:59:19.16Z</time></trkpt><trkpt lat="41.1435767" lon="-0.037355"><ele>237.0</ele><time>2026-03-31T12:59:20.16Z</time></trkpt><trkpt lat="41.143655" lon="-0.03725"><ele>236.0</ele><time>2026-03-31T12:59:21.161Z</time></trkpt><trkpt lat="41.1437367" lon="-0.0371583"><ele>235.0</ele><time>2026-03-31T12:59:22.161Z</time></trkpt><trkpt lat="41.143815" lon="-0.03707"><ele>235.0</ele><time>2026-03-31T12:59:23.16Z</time></trkpt><trkpt lat="41.1438967" lon="-0.0369783"><ele>235.0</ele><time>2026-03-31T12:59:24.161Z</time></trkpt><trkpt lat="41.1439683" lon="-0.0368933"><ele>235.0</ele><time>2026-03-31T12:59:25.16Z</time></trkpt><trkpt lat="41.144045" lon="-0.0367967"><ele>235.0</ele><time>2026-03-31T12:59:26.16Z</time></trkpt><trkpt lat="41.1441183" lon="-0.0366983"><ele>235.0</ele><time>2026-03-31T12:59:27.16Z</time></trkpt><trkpt lat="41.1441883" lon="-0.0365933"><ele>235.4</ele><time>2026-03-31T12:59:28.161Z</time></trkpt><trkpt lat="41.14425" lon="-0.0364917"><ele>235.8</ele><time>2026-03-31T12:59:29.16Z</time></trkpt><trkpt lat="41.144305" lon="-0.0363967"><ele>236.2</ele><time>2026-03-31T12:59:30.16Z</time></trkpt><trkpt lat="41.1443483" lon="-0.0362967"><ele>236.6</ele><time>2026-03-31T12:59:31.161Z</time></trkpt><trkpt lat="41.1443833" lon="-0.0361833"><ele>237.0</ele><time>2026-03-31T12:59:32.161Z</time></trkpt><trkpt lat="41.1444067" lon="-0.03606"><ele>237.0</ele><time>2026-03-31T12:59:33.16Z</time></trkpt><trkpt lat="41.144425" lon="-0.03593"><ele>237.0</ele><time>2026-03-31T12:59:34.16Z</time></trkpt><trkpt lat="41.1444283" lon="-0.03581"><ele>237.0</ele><time>2026-03-31T12:59:35.161Z</time></trkpt><trkpt lat="41.1444267" lon="-0.0356883"><ele>237.0</ele><time>2026-03-31T12:59:36.16Z</time></trkpt><trkpt lat="41.1444233" lon="-0.0355667"><ele>237.0</ele><time>2026-03-31T12:59:37.16Z</time></trkpt><trkpt lat="41.14442" lon="-0.0354467"><ele>236.39999999999998</ele><time>2026-03-31T12:59:38.16Z</time></trkpt><trkpt lat="41.1444083" lon="-0.03533"><ele>235.79999999999998</ele><time>2026-03-31T12:59:39.161Z</time></trkpt><trkpt lat="41.1443833" lon="-0.0352167"><ele>235.2</ele><time>2026-03-31T12:59:40.16Z</time></trkpt><trkpt lat="41.144335" lon="-0.03511"><ele>234.6</ele><time>2026-03-31T12:59:41.16Z</time></trkpt><trkpt lat="41.1442867" lon="-0.0350183"><ele>234.0</ele><time>2026-03-31T12:59:42.16Z</time></trkpt><trkpt lat="41.1442233" lon="-0.034925"><ele>234.0</ele><time>2026-03-31T12:59:43.16Z</time></trkpt><trkpt lat="41.1441567" lon="-0.03483"><ele>233.99999999999997</ele><time>2026-03-31T12:59:44.161Z</time></trkpt><trkpt lat="41.14409" lon="-0.03473"><ele>233.99999999999997</ele><time>2026-03-31T12:59:45.161Z</time></trkpt><trkpt lat="41.1440217" lon="-0.034635"><ele>234.0</ele><time>2026-03-31T12:59:46.16Z</time></trkpt><trkpt lat="41.1439467" lon="-0.03455"><ele>234.0</ele><time>2026-03-31T12:59:47.16Z</time></trkpt><trkpt lat="41.1438733" lon="-0.034475"><ele>235.39999999999998</ele><time>2026-03-31T12:59:48.161Z</time></trkpt><trkpt lat="41.1437833" lon="-0.0344067"><ele>236.79999999999998</ele><time>2026-03-31T12:59:49.161Z</time></trkpt><trkpt lat="41.1436933" lon="-0.0343483"><ele>238.20000000000002</ele><time>2026-03-31T12:59:50.161Z</time></trkpt><trkpt lat="41.1436017" lon="-0.0342967"><ele>239.60000000000002</ele><time>2026-03-31T12:59:51.161Z</time></trkpt><trkpt lat="41.14351" lon="-0.0342533"><ele>241.0</ele><time>2026-03-31T12:59:52.16Z</time></trkpt><trkpt lat="41.1434133" lon="-0.0342033"><ele>241.0</ele><time>2026-03-31T12:59:53.16Z</time></trkpt><trkpt lat="41.14332" lon="-0.0341383"><ele>241.00000000000003</ele><time>2026-03-31T12:59:54.161Z</time></trkpt><trkpt lat="41.14324" lon="-0.03407"><ele>241.00000000000003</ele><time>2026-03-31T12:59:55.161Z</time></trkpt><trkpt lat="41.1431617" lon="-0.0339833"><ele>241.0</ele><time>2026-03-31T12:59:56.161Z</time></trkpt><trkpt lat="41.1430917" lon="-0.0338767"><ele>241.0</ele><time>2026-03-31T12:59:57.16Z</time></trkpt><trkpt lat="41.1430183" lon="-0.0337667"><ele>240.4</ele><time>2026-03-31T12:59:58.16Z</time></trkpt><trkpt lat="41.142955" lon="-0.0336533"><ele>239.8</ele><time>2026-03-31T12:59:59.16Z</time></trkpt><trkpt lat="41.1428983" lon="-0.0335467"><ele>239.20000000000002</ele><time>2026-03-31T13:00:00.161Z</time></trkpt><trkpt lat="41.1428517" lon="-0.0334367"><ele>238.60000000000002</ele><time>2026-03-31T13:00:01.16Z</time></trkpt><trkpt lat="41.1428183" lon="-0.03332"><ele>238.0</ele><time>2026-03-31T13:00:02.161Z</time></trkpt><trkpt lat="41.14278" lon="-0.0332033"><ele>238.0</ele><time>2026-03-31T13:00:03.16Z</time></trkpt><trkpt lat="41.1427483" lon="-0.033075"><ele>238.0</ele><time>2026-03-31T13:00:04.16Z</time></trkpt><trkpt lat="41.1427183" lon="-0.0329417"><ele>238.0</ele><time>2026-03-31T13:00:05.161Z</time></trkpt><trkpt lat="41.142685" lon="-0.032805"><ele>238.0</ele><time>2026-03-31T13:00:06.16Z</time></trkpt><trkpt lat="41.1426483" lon="-0.0326783"><ele>238.0</ele><time>2026-03-31T13:00:07.16Z</time></trkpt><trkpt lat="41.142605" lon="-0.0325617"><ele>238.4</ele><time>2026-03-31T13:00:08.16Z</time></trkpt><trkpt lat="41.1425483" lon="-0.0324433"><ele>238.8</ele><time>2026-03-31T13:00:09.16Z</time></trkpt><trkpt lat="41.142495" lon="-0.0323267"><ele>239.2</ele><time>2026-03-31T13:00:10.161Z</time></trkpt><trkpt lat="41.1424317" lon="-0.032215"><ele>239.6</ele><time>2026-03-31T13:00:11.161Z</time></trkpt><trkpt lat="41.1423683" lon="-0.0321067"><ele>240.0</ele><time>2026-03-31T13:00:12.16Z</time></trkpt><trkpt lat="41.142295" lon="-0.0320117"><ele>240.0</ele><time>2026-03-31T13:00:13.161Z</time></trkpt><trkpt lat="41.1422133" lon="-0.0319267"><ele>240.0</ele><time>2026-03-31T13:00:14.161Z</time></trkpt><trkpt lat="41.1421267" lon="-0.0318483"><ele>240.0</ele><time>2026-03-31T13:00:15.161Z</time></trkpt><trkpt lat="41.1420333" lon="-0.031775"><ele>240.0</ele><time>2026-03-31T13:00:16.161Z</time></trkpt><trkpt lat="41.1419417" lon="-0.0317083"><ele>240.0</ele><time>2026-03-31T13:00:17.16Z</time></trkpt><trkpt lat="41.141855" lon="-0.0316483"><ele>240.0</ele><time>2026-03-31T13:00:18.16Z</time></trkpt><trkpt lat="41.1417667" lon="-0.0316"><ele>240.0</ele><time>2026-03-31T13:00:19.16Z</time></trkpt><trkpt lat="41.1416767" lon="-0.0315633"><ele>240.0</ele><time>2026-03-31T13:00:20.161Z</time></trkpt><trkpt lat="41.14158" lon="-0.0315417"><ele>240.0</ele><time>2026-03-31T13:00:21.161Z</time></trkpt><trkpt lat="41.14148" lon="-0.031535"><ele>240.0</ele><time>2026-03-31T13:00:22.16Z</time></trkpt><trkpt lat="41.1413817" lon="-0.03154"><ele>239.33333333333334</ele><time>2026-03-31T13:00:23.16Z</time></trkpt><trkpt lat="41.1412867" lon="-0.031555"><ele>238.66666666666669</ele><time>2026-03-31T13:00:24.16Z</time></trkpt><trkpt lat="41.1412067" lon="-0.0315583"><ele>238.0</ele><time>2026-03-31T13:00:25.16Z</time></trkpt><trkpt lat="41.1411367" lon="-0.031555"><ele>237.33333333333334</ele><time>2026-03-31T13:00:26.16Z</time></trkpt><trkpt lat="41.1410667" lon="-0.0315367"><ele>236.66666666666669</ele><time>2026-03-31T13:00:27.16Z</time></trkpt><trkpt lat="41.1409983" lon="-0.03151"><ele>236.0</ele><time>2026-03-31T13:00:28.16Z</time></trkpt><trkpt lat="41.1409267" lon="-0.0314717"><ele>236.00000000000003</ele><time>2026-03-31T13:00:29.161Z</time></trkpt><trkpt lat="41.1408467" lon="-0.03143"><ele>236.0</ele><time>2026-03-31T13:00:30.161Z</time></trkpt><trkpt lat="41.1407733" lon="-0.03138"><ele>236.0</ele><time>2026-03-31T13:00:31.161Z</time></trkpt><trkpt lat="41.1406933" lon="-0.0313217"><ele>236.0</ele><time>2026-03-31T13:00:32.161Z</time></trkpt><trkpt lat="41.1406167" lon="-0.031265"><ele>236.00000000000003</ele><time>2026-03-31T13:00:33.161Z</time></trkpt><trkpt lat="41.1405467" lon="-0.031205"><ele>236.0</ele><time>2026-03-31T13:00:34.161Z</time></trkpt><trkpt lat="41.1404817" lon="-0.031145"><ele>235.66666666666669</ele><time>2026-03-31T13:00:35.16Z</time></trkpt><trkpt lat="41.14042" lon="-0.0310767"><ele>235.33333333333334</ele><time>2026-03-31T13:00:36.16Z</time></trkpt><trkpt lat="41.140355" lon="-0.0309933"><ele>235.0</ele><time>2026-03-31T13:00:37.161Z</time></trkpt><trkpt lat="41.1403017" lon="-0.0309033"><ele>234.66666666666669</ele><time>2026-03-31T13:00:38.16Z</time></trkpt><trkpt lat="41.14025" lon="-0.0308167"><ele>234.33333333333334</ele><time>2026-03-31T13:00:39.16Z</time></trkpt><trkpt lat="41.1401917" lon="-0.03073"><ele>234.0</ele><time>2026-03-31T13:00:40.16Z</time></trkpt><trkpt lat="41.1401283" lon="-0.030645"><ele>234.79999999999998</ele><time>2026-03-31T13:00:41.161Z</time></trkpt><trkpt lat="41.140055" lon="-0.03057"><ele>235.59999999999997</ele><time>2026-03-31T13:00:42.16Z</time></trkpt><trkpt lat="41.1399733" lon="-0.030505"><ele>236.4</ele><time>2026-03-31T13:00:43.16Z</time></trkpt><trkpt lat="41.1398833" lon="-0.0304483"><ele>237.2</ele><time>2026-03-31T13:00:44.16Z</time></trkpt><trkpt lat="41.139795" lon="-0.03041"><ele>238.0</ele><time>2026-03-31T13:00:45.16Z</time></trkpt><trkpt lat="41.1397217" lon="-0.0303667"><ele>237.99999999999997</ele><time>2026-03-31T13:00:46.161Z</time></trkpt><trkpt lat="41.1396567" lon="-0.0303333"><ele>238.0</ele><time>2026-03-31T13:00:47.161Z</time></trkpt><trkpt lat="41.1395617" lon="-0.0303017"><ele>238.0</ele><time>2026-03-31T13:00:49.16Z</time></trkpt><trkpt lat="41.1394917" lon="-0.0302667"><ele>238.0</ele><time>2026-03-31T13:00:53.16Z</time></trkpt><trkpt lat="41.13956" lon="-0.0302667"><ele>237.99999999999997</ele><time>2026-03-31T13:02:14.16Z</time></trkpt><trkpt lat="41.1394933" lon="-0.0302867"><ele>238.0</ele><time>2026-03-31T13:02:17.16Z</time></trkpt><trkpt lat="41.1393867" lon="-0.0302667"><ele>238.0</ele><time>2026-03-31T13:02:19.16Z</time></trkpt><trkpt lat="41.1392583" lon="-0.0302767"><ele>238.0</ele><time>2026-03-31T13:02:21.16Z</time></trkpt><trkpt lat="41.1391817" lon="-0.0302883"><ele>238.0</ele><time>2026-03-31T13:02:22.16Z</time></trkpt><trkpt lat="41.1390933" lon="-0.0303033"><ele>238.0</ele><time>2026-03-31T13:02:23.16Z</time></trkpt><trkpt lat="41.1390017" lon="-0.0303183"><ele>238.0</ele><time>2026-03-31T13:02:24.161Z</time></trkpt><trkpt lat="41.1389033" lon="-0.03033"><ele>237.60000000000002</ele><time>2026-03-31T13:02:25.16Z</time></trkpt><trkpt lat="41.1388067" lon="-0.030335"><ele>237.20000000000002</ele><time>2026-03-31T13:02:26.161Z</time></trkpt><trkpt lat="41.1387083" lon="-0.03033"><ele>236.8</ele><time>2026-03-31T13:02:27.16Z</time></trkpt><trkpt lat="41.1386067" lon="-0.0303283"><ele>236.4</ele><time>2026-03-31T13:02:28.16Z</time></trkpt><trkpt lat="41.13851" lon="-0.0303233"><ele>236.0</ele><time>2026-03-31T13:02:29.161Z</time></trkpt><trkpt lat="41.13841" lon="-0.03031"><ele>236.0</ele><time>2026-03-31T13:02:30.161Z</time></trkpt><trkpt lat="41.1383117" lon="-0.030295"><ele>236.00000000000003</ele><time>2026-03-31T13:02:31.16Z</time></trkpt><trkpt lat="41.1382133" lon="-0.030275"><ele>236.00000000000003</ele><time>2026-03-31T13:02:32.161Z</time></trkpt><trkpt lat="41.1381167" lon="-0.0302483"><ele>236.0</ele><time>2026-03-31T13:02:33.161Z</time></trkpt><trkpt lat="41.1380217" lon="-0.0302183"><ele>236.0</ele><time>2026-03-31T13:02:34.16Z</time></trkpt><trkpt lat="41.1379267" lon="-0.0301883"><ele>236.20000000000002</ele><time>2026-03-31T13:02:35.16Z</time></trkpt><trkpt lat="41.1378317" lon="-0.0301633"><ele>236.40000000000003</ele><time>2026-03-31T13:02:36.16Z</time></trkpt><trkpt lat="41.1377383" lon="-0.0301367"><ele>236.6</ele><time>2026-03-31T13:02:37.16Z</time></trkpt><trkpt lat="41.13765" lon="-0.03011"><ele>236.8</ele><time>2026-03-31T13:02:38.161Z</time></trkpt><trkpt lat="41.13756" lon="-0.0300817"><ele>237.0</ele><time>2026-03-31T13:02:39.16Z</time></trkpt><trkpt lat="41.1374633" lon="-0.0300567"><ele>237.0</ele><time>2026-03-31T13:02:40.16Z</time></trkpt><trkpt lat="41.13737" lon="-0.0300317"><ele>237.0</ele><time>2026-03-31T13:02:41.161Z</time></trkpt><trkpt lat="41.137275" lon="-0.03"><ele>237.0</ele><time>2026-03-31T13:02:42.16Z</time></trkpt><trkpt lat="41.1371817" lon="-0.0299567"><ele>237.0</ele><time>2026-03-31T13:02:43.161Z</time></trkpt><trkpt lat="41.1370917" lon="-0.029905"><ele>237.0</ele><time>2026-03-31T13:02:44.16Z</time></trkpt><trkpt lat="41.13701" lon="-0.029835"><ele>236.8</ele><time>2026-03-31T13:02:45.161Z</time></trkpt><trkpt lat="41.1369267" lon="-0.0297483"><ele>236.6</ele><time>2026-03-31T13:02:46.16Z</time></trkpt><trkpt lat="41.1368483" lon="-0.029655"><ele>236.40000000000003</ele><time>2026-03-31T13:02:47.16Z</time></trkpt><trkpt lat="41.1367717" lon="-0.0295667"><ele>236.20000000000002</ele><time>2026-03-31T13:02:48.161Z</time></trkpt><trkpt lat="41.136695" lon="-0.0294983"><ele>236.0</ele><time>2026-03-31T13:02:49.16Z</time></trkpt><trkpt lat="41.136615" lon="-0.0294367"><ele>236.16666666666669</ele><time>2026-03-31T13:02:50.16Z</time></trkpt><trkpt lat="41.136535" lon="-0.0293883"><ele>236.33333333333334</ele><time>2026-03-31T13:02:51.161Z</time></trkpt><trkpt lat="41.1364483" lon="-0.0293467"><ele>236.5</ele><time>2026-03-31T13:02:52.16Z</time></trkpt><trkpt lat="41.1363683" lon="-0.029305"><ele>236.66666666666669</ele><time>2026-03-31T13:02:53.16Z</time></trkpt><trkpt lat="41.1363017" lon="-0.0292583"><ele>236.83333333333334</ele><time>2026-03-31T13:02:54.16Z</time></trkpt><trkpt lat="41.1362467" lon="-0.0291933"><ele>237.0</ele><time>2026-03-31T13:02:55.161Z</time></trkpt><trkpt lat="41.1362" lon="-0.029105"><ele>238.0</ele><time>2026-03-31T13:02:56.161Z</time></trkpt><trkpt lat="41.1361617" lon="-0.0290067"><ele>239.0</ele><time>2026-03-31T13:02:57.16Z</time></trkpt><trkpt lat="41.1361233" lon="-0.0288933"><ele>240.0</ele><time>2026-03-31T13:02:58.16Z</time></trkpt><trkpt lat="41.1360867" lon="-0.0287733"><ele>241.0</ele><time>2026-03-31T13:02:59.16Z</time></trkpt><trkpt lat="41.1360433" lon="-0.0286633"><ele>242.0</ele><time>2026-03-31T13:03:00.161Z</time></trkpt><trkpt lat="41.135995" lon="-0.028565"><ele>242.0</ele><time>2026-03-31T13:03:01.161Z</time></trkpt><trkpt lat="41.1359367" lon="-0.0284683"><ele>242.0</ele><time>2026-03-31T13:03:02.161Z</time></trkpt><trkpt lat="41.1358717" lon="-0.0283733"><ele>242.0</ele><time>2026-03-31T13:03:03.16Z</time></trkpt><trkpt lat="41.13581" lon="-0.02827"><ele>242.0</ele><time>2026-03-31T13:03:04.16Z</time></trkpt><trkpt lat="41.1357583" lon="-0.0281717"><ele>242.0</ele><time>2026-03-31T13:03:05.16Z</time></trkpt><trkpt lat="41.135715" lon="-0.028075"><ele>242.2</ele><time>2026-03-31T13:03:06.16Z</time></trkpt><trkpt lat="41.13568" lon="-0.0279733"><ele>242.39999999999998</ele><time>2026-03-31T13:03:07.16Z</time></trkpt><trkpt lat="41.1356567" lon="-0.0278667"><ele>242.60000000000002</ele><time>2026-03-31T13:03:08.16Z</time></trkpt><trkpt lat="41.135635" lon="-0.027745"><ele>242.8</ele><time>2026-03-31T13:03:09.161Z</time></trkpt><trkpt lat="41.1356183" lon="-0.0276133"><ele>243.0</ele><time>2026-03-31T13:03:10.16Z</time></trkpt><trkpt lat="41.1356033" lon="-0.02748"><ele>243.2</ele><time>2026-03-31T13:03:11.161Z</time></trkpt><trkpt lat="41.1355817" lon="-0.0273433"><ele>243.4</ele><time>2026-03-31T13:03:12.16Z</time></trkpt><trkpt lat="41.1355617" lon="-0.02721"><ele>243.59999999999997</ele><time>2026-03-31T13:03:13.16Z</time></trkpt><trkpt lat="41.135545" lon="-0.027075"><ele>243.79999999999998</ele><time>2026-03-31T13:03:14.16Z</time></trkpt><trkpt lat="41.13552" lon="-0.0269433"><ele>244.0</ele><time>2026-03-31T13:03:15.16Z</time></trkpt><trkpt lat="41.1355" lon="-0.026825"><ele>244.0</ele><time>2026-03-31T13:03:16.16Z</time></trkpt><trkpt lat="41.1354783" lon="-0.026705"><ele>243.99999999999997</ele><time>2026-03-31T13:03:17.16Z</time></trkpt><trkpt lat="41.135455" lon="-0.026595"><ele>243.99999999999997</ele><time>2026-03-31T13:03:18.16Z</time></trkpt><trkpt lat="41.1354267" lon="-0.0264817"><ele>244.0</ele><time>2026-03-31T13:03:19.16Z</time></trkpt><trkpt lat="41.1353983" lon="-0.0263617"><ele>244.0</ele><time>2026-03-31T13:03:20.16Z</time></trkpt><trkpt lat="41.1353733" lon="-0.026235"><ele>244.33333333333331</ele><time>2026-03-31T13:03:21.16Z</time></trkpt><trkpt lat="41.1353467" lon="-0.0261067"><ele>244.66666666666666</ele><time>2026-03-31T13:03:22.16Z</time></trkpt><trkpt lat="41.1353133" lon="-0.0259867"><ele>245.0</ele><time>2026-03-31T13:03:23.16Z</time></trkpt><trkpt lat="41.1352767" lon="-0.0258783"><ele>245.33333333333331</ele><time>2026-03-31T13:03:24.16Z</time></trkpt><trkpt lat="41.1352467" lon="-0.0257733"><ele>245.66666666666666</ele><time>2026-03-31T13:03:25.161Z</time></trkpt><trkpt lat="41.1352167" lon="-0.0256917"><ele>246.0</ele><time>2026-03-31T13:03:26.16Z</time></trkpt><trkpt lat="41.1351983" lon="-0.025515"><ele>246.33333333333334</ele><time>2026-03-31T13:03:28.161Z</time></trkpt><trkpt lat="41.1351983" lon="-0.0254167"><ele>246.66666666666669</ele><time>2026-03-31T13:03:29.16Z</time></trkpt><trkpt lat="41.13521" lon="-0.0253067"><ele>247.0</ele><time>2026-03-31T13:03:30.16Z</time></trkpt><trkpt lat="41.1352217" lon="-0.0251867"><ele>247.33333333333334</ele><time>2026-03-31T13:03:31.161Z</time></trkpt><trkpt lat="41.13524" lon="-0.02506"><ele>247.66666666666669</ele><time>2026-03-31T13:03:32.16Z</time></trkpt><trkpt lat="41.13526" lon="-0.024935"><ele>248.0</ele><time>2026-03-31T13:03:33.161Z</time></trkpt><trkpt lat="41.135285" lon="-0.02482"><ele>248.00000000000003</ele><time>2026-03-31T13:03:34.16Z</time></trkpt><trkpt lat="41.1353067" lon="-0.0247067"><ele>248.0</ele><time>2026-03-31T13:03:35.16Z</time></trkpt><trkpt lat="41.1353267" lon="-0.0246"><ele>248.0</ele><time>2026-03-31T13:03:36.16Z</time></trkpt><trkpt lat="41.1353483" lon="-0.0245033"><ele>248.0</ele><time>2026-03-31T13:03:37.161Z</time></trkpt><trkpt lat="41.1353667" lon="-0.024405"><ele>248.00000000000003</ele><time>2026-03-31T13:03:38.16Z</time></trkpt><trkpt lat="41.1353833" lon="-0.024305"><ele>248.0</ele><time>2026-03-31T13:03:39.16Z</time></trkpt><trkpt lat="41.1353983" lon="-0.0242167"><ele>247.8</ele><time>2026-03-31T13:03:40.16Z</time></trkpt><trkpt lat="41.1354033" lon="-0.0240717"><ele>247.60000000000002</ele><time>2026-03-31T13:03:42.16Z</time></trkpt><trkpt lat="41.135395" lon="-0.0239383"><ele>247.39999999999998</ele><time>2026-03-31T13:03:44.16Z</time></trkpt><trkpt lat="41.1353783" lon="-0.0238367"><ele>247.2</ele><time>2026-03-31T13:03:47.159Z</time></trkpt><trkpt lat="41.1354733" lon="-0.02381"><ele>247.0</ele><time>2026-03-31T13:03:51.159Z</time></trkpt><trkpt lat="41.1355583" lon="-0.0238417"><ele>247.0</ele><time>2026-03-31T13:03:53.159Z</time></trkpt><trkpt lat="41.1356467" lon="-0.0238917"><ele>247.0</ele><time>2026-03-31T13:03:55.159Z</time></trkpt><trkpt lat="41.13572" lon="-0.0239517"><ele>247.0</ele><time>2026-03-31T13:03:57.159Z</time></trkpt><trkpt lat="41.135795" lon="-0.0239683"><ele>247.0</ele><time>2026-03-31T13:03:59.159Z</time></trkpt><trkpt lat="41.1359033" lon="-0.0239633"><ele>247.0</ele><time>2026-03-31T13:04:01.159Z</time></trkpt><trkpt lat="41.1360133" lon="-0.02396"><ele>246.83333333333331</ele><time>2026-03-31T13:04:03.159Z</time></trkpt><trkpt lat="41.1361333" lon="-0.0239533"><ele>246.66666666666666</ele><time>2026-03-31T13:04:05.16Z</time></trkpt><trkpt lat="41.1361967" lon="-0.0239533"><ele>246.5</ele><time>2026-03-31T13:04:06.16Z</time></trkpt><trkpt lat="41.136265" lon="-0.023965"><ele>246.33333333333331</ele><time>2026-03-31T13:04:07.159Z</time></trkpt><trkpt lat="41.1363333" lon="-0.0239783"><ele>246.16666666666666</ele><time>2026-03-31T13:04:08.159Z</time></trkpt><trkpt lat="41.136395" lon="-0.0239983"><ele>246.0</ele><time>2026-03-31T13:04:09.159Z</time></trkpt><trkpt lat="41.1364567" lon="-0.02403"><ele>246.0</ele><time>2026-03-31T13:04:10.16Z</time></trkpt><trkpt lat="41.13652" lon="-0.0240733"><ele>246.0</ele><time>2026-03-31T13:04:11.159Z</time></trkpt><trkpt lat="41.1365767" lon="-0.0241267"><ele>246.0</ele><time>2026-03-31T13:04:12.159Z</time></trkpt><trkpt lat="41.136635" lon="-0.024185"><ele>246.0</ele><time>2026-03-31T13:04:13.16Z</time></trkpt><trkpt lat="41.1366983" lon="-0.024235"><ele>246.0</ele><time>2026-03-31T13:04:14.16Z</time></trkpt><trkpt lat="41.1367583" lon="-0.0242617"><ele>246.0</ele><time>2026-03-31T13:04:15.159Z</time></trkpt><trkpt lat="41.1368683" lon="-0.0242617"><ele>252.0</ele><time>2026-03-31T13:04:17.16Z</time></trkpt><trkpt lat="41.1369383" lon="-0.0242133"><ele>252.0</ele><time>2026-03-31T13:04:20.159Z</time></trkpt></trkseg><trkseg><trkpt lat="41.1369467" lon="-0.0242967"><ele>252.0</ele><time>2026-03-31T14:04:00.163Z</time></trkpt><trkpt lat="41.13686" lon="-0.0243033"><ele>252.0</ele><time>2026-03-31T14:04:02.162Z</time></trkpt><trkpt lat="41.1367517" lon="-0.0243033"><ele>252.0</ele><time>2026-03-31T14:04:04.163Z</time></trkpt><trkpt lat="41.1366417" lon="-0.02423"><ele>252.0</ele><time>2026-03-31T14:04:06.163Z</time></trkpt><trkpt lat="41.1365517" lon="-0.0241433"><ele>252.0</ele><time>2026-03-31T14:04:08.163Z</time></trkpt><trkpt lat="41.1364633" lon="-0.0240633"><ele>250.8</ele><time>2026-03-31T14:04:10.162Z</time></trkpt><trkpt lat="41.1363517" lon="-0.0240067"><ele>249.6</ele><time>2026-03-31T14:04:12.162Z</time></trkpt><trkpt lat="41.13629" lon="-0.02399"><ele>248.40000000000003</ele><time>2026-03-31T14:04:13.162Z</time></trkpt><trkpt lat="41.136175" lon="-0.02397"><ele>247.20000000000002</ele><time>2026-03-31T14:04:15.162Z</time></trkpt><trkpt lat="41.13606" lon="-0.0239617"><ele>246.0</ele><time>2026-03-31T14:04:17.161Z</time></trkpt><trkpt lat="41.13594" lon="-0.023965"><ele>246.0</ele><time>2026-03-31T14:04:19.161Z</time></trkpt><trkpt lat="41.1358283" lon="-0.02399"><ele>246.00000000000003</ele><time>2026-03-31T14:04:21.162Z</time></trkpt><trkpt lat="41.1357383" lon="-0.024015"><ele>246.00000000000003</ele><time>2026-03-31T14:04:23.162Z</time></trkpt><trkpt lat="41.1356367" lon="-0.0240717"><ele>246.0</ele><time>2026-03-31T14:04:25.162Z</time></trkpt><trkpt lat="41.13554" lon="-0.0241417"><ele>246.0</ele><time>2026-03-31T14:04:27.161Z</time></trkpt><trkpt lat="41.1354633" lon="-0.0242317"><ele>246.4</ele><time>2026-03-31T14:04:29.161Z</time></trkpt><trkpt lat="41.1354033" lon="-0.0243617"><ele>246.8</ele><time>2026-03-31T14:04:31.161Z</time></trkpt><trkpt lat="41.1353833" lon="-0.0244567"><ele>247.20000000000002</ele><time>2026-03-31T14:04:32.162Z</time></trkpt><trkpt lat="41.1353583" lon="-0.02457"><ele>247.60000000000002</ele><time>2026-03-31T14:04:33.161Z</time></trkpt><trkpt lat="41.1353333" lon="-0.0246883"><ele>248.0</ele><time>2026-03-31T14:04:34.161Z</time></trkpt><trkpt lat="41.135305" lon="-0.0247967"><ele>248.00000000000003</ele><time>2026-03-31T14:04:35.162Z</time></trkpt><trkpt lat="41.1352817" lon="-0.0249117"><ele>248.0</ele><time>2026-03-31T14:04:36.161Z</time></trkpt><trkpt lat="41.1352667" lon="-0.0250217"><ele>248.0</ele><time>2026-03-31T14:04:37.162Z</time></trkpt><trkpt lat="41.1352483" lon="-0.0251333"><ele>248.0</ele><time>2026-03-31T14:04:38.161Z</time></trkpt><trkpt lat="41.1352383" lon="-0.025255"><ele>248.00000000000003</ele><time>2026-03-31T14:04:39.161Z</time></trkpt><trkpt lat="41.1352333" lon="-0.025375"><ele>248.0</ele><time>2026-03-31T14:04:40.161Z</time></trkpt><trkpt lat="41.13523" lon="-0.0254867"><ele>248.16666666666669</ele><time>2026-03-31T14:04:41.161Z</time></trkpt><trkpt lat="41.13524" lon="-0.0256033"><ele>248.33333333333334</ele><time>2026-03-31T14:04:42.162Z</time></trkpt><trkpt lat="41.1352583" lon="-0.0257167"><ele>248.5</ele><time>2026-03-31T14:04:43.162Z</time></trkpt><trkpt lat="41.1352883" lon="-0.025835"><ele>248.66666666666669</ele><time>2026-03-31T14:04:44.162Z</time></trkpt><trkpt lat="41.1353117" lon="-0.0259417"><ele>248.83333333333334</ele><time>2026-03-31T14:04:45.162Z</time></trkpt><trkpt lat="41.1353433" lon="-0.0260567"><ele>249.0</ele><time>2026-03-31T14:04:46.161Z</time></trkpt><trkpt lat="41.13538" lon="-0.026175"><ele>248.39999999999998</ele><time>2026-03-31T14:04:47.161Z</time></trkpt><trkpt lat="41.1354117" lon="-0.0263117"><ele>247.79999999999998</ele><time>2026-03-31T14:04:48.161Z</time></trkpt><trkpt lat="41.1354417" lon="-0.026445"><ele>247.20000000000002</ele><time>2026-03-31T14:04:49.162Z</time></trkpt><trkpt lat="41.1354733" lon="-0.0265867"><ele>246.60000000000002</ele><time>2026-03-31T14:04:50.161Z</time></trkpt><trkpt lat="41.1355067" lon="-0.0267183"><ele>246.0</ele><time>2026-03-31T14:04:51.161Z</time></trkpt><trkpt lat="41.1355383" lon="-0.0268567"><ele>245.60000000000002</ele><time>2026-03-31T14:04:52.162Z</time></trkpt><trkpt lat="41.1355667" lon="-0.02699"><ele>245.20000000000002</ele><time>2026-03-31T14:04:53.162Z</time></trkpt><trkpt lat="41.135595" lon="-0.0271383"><ele>244.79999999999998</ele><time>2026-03-31T14:04:54.161Z</time></trkpt><trkpt lat="41.1356183" lon="-0.0272767"><ele>244.39999999999998</ele><time>2026-03-31T14:04:55.162Z</time></trkpt><trkpt lat="41.1356417" lon="-0.027415"><ele>244.0</ele><time>2026-03-31T14:04:56.162Z</time></trkpt><trkpt lat="41.13566" lon="-0.0275583"><ele>243.83333333333331</ele><time>2026-03-31T14:04:57.162Z</time></trkpt><trkpt lat="41.13567" lon="-0.027685"><ele>243.66666666666666</ele><time>2026-03-31T14:04:58.162Z</time></trkpt><trkpt lat="41.1356883" lon="-0.0278133"><ele>243.5</ele><time>2026-03-31T14:04:59.162Z</time></trkpt><trkpt lat="41.135705" lon="-0.0279267"><ele>243.33333333333331</ele><time>2026-03-31T14:05:00.161Z</time></trkpt><trkpt lat="41.1357267" lon="-0.028035"><ele>243.16666666666666</ele><time>2026-03-31T14:05:01.161Z</time></trkpt><trkpt lat="41.1357567" lon="-0.0281267"><ele>243.0</ele><time>2026-03-31T14:05:02.161Z</time></trkpt><trkpt lat="41.1358017" lon="-0.02822"><ele>242.8</ele><time>2026-03-31T14:05:03.161Z</time></trkpt><trkpt lat="41.1358583" lon="-0.028315"><ele>242.60000000000002</ele><time>2026-03-31T14:05:04.161Z</time></trkpt><trkpt lat="41.13592" lon="-0.02841"><ele>242.39999999999998</ele><time>2026-03-31T14:05:05.161Z</time></trkpt><trkpt lat="41.1359767" lon="-0.02851"><ele>242.2</ele><time>2026-03-31T14:05:06.162Z</time></trkpt><trkpt lat="41.1360283" lon="-0.028615"><ele>242.0</ele><time>2026-03-31T14:05:07.161Z</time></trkpt><trkpt lat="41.13608" lon="-0.028715"><ele>242.00000000000003</ele><time>2026-03-31T14:05:08.161Z</time></trkpt><trkpt lat="41.136125" lon="-0.028815"><ele>242.0</ele><time>2026-03-31T14:05:09.161Z</time></trkpt><trkpt lat="41.1361667" lon="-0.0289133"><ele>242.0</ele><time>2026-03-31T14:05:10.162Z</time></trkpt><trkpt lat="41.1362017" lon="-0.0290083"><ele>242.0</ele><time>2026-03-31T14:05:11.162Z</time></trkpt><trkpt lat="41.1362333" lon="-0.0290967"><ele>242.00000000000003</ele><time>2026-03-31T14:05:12.162Z</time></trkpt><trkpt lat="41.1362733" lon="-0.0291833"><ele>242.0</ele><time>2026-03-31T14:05:13.162Z</time></trkpt><trkpt lat="41.136325" lon="-0.029255"><ele>241.0</ele><time>2026-03-31T14:05:14.162Z</time></trkpt><trkpt lat="41.136395" lon="-0.029315"><ele>240.0</ele><time>2026-03-31T14:05:15.161Z</time></trkpt><trkpt lat="41.1364717" lon="-0.02936"><ele>239.0</ele><time>2026-03-31T14:05:16.161Z</time></trkpt><trkpt lat="41.1366283" lon="-0.0294433"><ele>238.0</ele><time>2026-03-31T14:05:18.162Z</time></trkpt><trkpt lat="41.1367083" lon="-0.0294967"><ele>237.0</ele><time>2026-03-31T14:05:19.162Z</time></trkpt><trkpt lat="41.13679" lon="-0.0295667"><ele>236.8</ele><time>2026-03-31T14:05:20.162Z</time></trkpt><trkpt lat="41.1368617" lon="-0.029635"><ele>236.6</ele><time>2026-03-31T14:05:21.161Z</time></trkpt><trkpt lat="41.1369317" lon="-0.02971"><ele>236.40000000000003</ele><time>2026-03-31T14:05:22.161Z</time></trkpt><trkpt lat="41.1370067" lon="-0.0297883"><ele>236.20000000000002</ele><time>2026-03-31T14:05:23.162Z</time></trkpt><trkpt lat="41.137085" lon="-0.0298567"><ele>236.0</ele><time>2026-03-31T14:05:24.162Z</time></trkpt><trkpt lat="41.1371633" lon="-0.0299267"><ele>236.20000000000002</ele><time>2026-03-31T14:05:25.161Z</time></trkpt><trkpt lat="41.1372467" lon="-0.0299767"><ele>236.40000000000003</ele><time>2026-03-31T14:05:26.162Z</time></trkpt><trkpt lat="41.1373367" lon="-0.0300183"><ele>236.6</ele><time>2026-03-31T14:05:27.162Z</time></trkpt><trkpt lat="41.13744" lon="-0.03005"><ele>236.8</ele><time>2026-03-31T14:05:28.161Z</time></trkpt><trkpt lat="41.1375367" lon="-0.03008"><ele>237.0</ele><time>2026-03-31T14:05:29.161Z</time></trkpt><trkpt lat="41.13764" lon="-0.0301083"><ele>237.0</ele><time>2026-03-31T14:05:30.161Z</time></trkpt><trkpt lat="41.1377417" lon="-0.0301417"><ele>237.0</ele><time>2026-03-31T14:05:31.162Z</time></trkpt><trkpt lat="41.137845" lon="-0.030175"><ele>237.0</ele><time>2026-03-31T14:05:32.161Z</time></trkpt><trkpt lat="41.137945" lon="-0.0302033"><ele>237.0</ele><time>2026-03-31T14:05:33.161Z</time></trkpt><trkpt lat="41.1380417" lon="-0.0302333"><ele>237.0</ele><time>2026-03-31T14:05:34.162Z</time></trkpt><trkpt lat="41.13814" lon="-0.0302617"><ele>236.8</ele><time>2026-03-31T14:05:35.162Z</time></trkpt><trkpt lat="41.13824" lon="-0.0302867"><ele>236.6</ele><time>2026-03-31T14:05:36.161Z</time></trkpt><trkpt lat="41.1383433" lon="-0.030305"><ele>236.40000000000003</ele><time>2026-03-31T14:05:37.161Z</time></trkpt><trkpt lat="41.1384517" lon="-0.0303183"><ele>236.20000000000002</ele><time>2026-03-31T14:05:38.162Z</time></trkpt><trkpt lat="41.1385583" lon="-0.030325"><ele>236.0</ele><time>2026-03-31T14:05:39.162Z</time></trkpt><trkpt lat="41.1386617" lon="-0.0303317"><ele>236.0</ele><time>2026-03-31T14:05:40.161Z</time></trkpt><trkpt lat="41.1387633" lon="-0.0303317"><ele>236.00000000000003</ele><time>2026-03-31T14:05:41.161Z</time></trkpt><trkpt lat="41.1388633" lon="-0.03033"><ele>236.00000000000003</ele><time>2026-03-31T14:05:42.161Z</time></trkpt><trkpt lat="41.1389583" lon="-0.030325"><ele>236.0</ele><time>2026-03-31T14:05:43.162Z</time></trkpt><trkpt lat="41.1390567" lon="-0.030315"><ele>236.0</ele><time>2026-03-31T14:05:44.162Z</time></trkpt><trkpt lat="41.13915" lon="-0.0303017"><ele>236.33333333333334</ele><time>2026-03-31T14:05:45.161Z</time></trkpt><trkpt lat="41.13923" lon="-0.0302883"><ele>236.66666666666669</ele><time>2026-03-31T14:05:46.161Z</time></trkpt><trkpt lat="41.1393133" lon="-0.030275"><ele>237.0</ele><time>2026-03-31T14:05:47.162Z</time></trkpt><trkpt lat="41.1393917" lon="-0.030265"><ele>237.33333333333331</ele><time>2026-03-31T14:05:48.161Z</time></trkpt><trkpt lat="41.1394733" lon="-0.0302867"><ele>237.66666666666666</ele><time>2026-03-31T14:05:49.161Z</time></trkpt><trkpt lat="41.1395583" lon="-0.0303167"><ele>238.0</ele><time>2026-03-31T14:05:50.161Z</time></trkpt><trkpt lat="41.1396383" lon="-0.0303517"><ele>238.0</ele><time>2026-03-31T14:05:51.162Z</time></trkpt><trkpt lat="41.13973" lon="-0.0303883"><ele>238.0</ele><time>2026-03-31T14:05:52.162Z</time></trkpt><trkpt lat="41.13982" lon="-0.0304333"><ele>238.0</ele><time>2026-03-31T14:05:53.161Z</time></trkpt><trkpt lat="41.1399133" lon="-0.0304867"><ele>238.0</ele><time>2026-03-31T14:05:54.162Z</time></trkpt><trkpt lat="41.140005" lon="-0.0305383"><ele>238.0</ele><time>2026-03-31T14:05:55.161Z</time></trkpt><trkpt lat="41.1400917" lon="-0.0306"><ele>237.0</ele><time>2026-03-31T14:05:56.162Z</time></trkpt><trkpt lat="41.1401717" lon="-0.0306683"><ele>236.0</ele><time>2026-03-31T14:05:57.161Z</time></trkpt><trkpt lat="41.14024" lon="-0.0307517"><ele>235.0</ele><time>2026-03-31T14:05:58.162Z</time></trkpt><trkpt lat="41.1403833" lon="-0.0309667"><ele>234.0</ele><time>2026-03-31T14:06:00.162Z</time></trkpt><trkpt lat="41.1404483" lon="-0.0310633"><ele>234.0</ele><time>2026-03-31T14:06:01.161Z</time></trkpt><trkpt lat="41.1405167" lon="-0.0311467"><ele>233.99999999999997</ele><time>2026-03-31T14:06:02.162Z</time></trkpt><trkpt lat="41.14059" lon="-0.03122"><ele>233.99999999999997</ele><time>2026-03-31T14:06:03.162Z</time></trkpt><trkpt lat="41.14067" lon="-0.0312867"><ele>234.0</ele><time>2026-03-31T14:06:04.161Z</time></trkpt><trkpt lat="41.1407533" lon="-0.0313533"><ele>234.0</ele><time>2026-03-31T14:06:05.161Z</time></trkpt><trkpt lat="41.1408433" lon="-0.031415"><ele>234.39999999999998</ele><time>2026-03-31T14:06:06.162Z</time></trkpt><trkpt lat="41.1409333" lon="-0.0314717"><ele>234.79999999999998</ele><time>2026-03-31T14:06:07.162Z</time></trkpt><trkpt lat="41.1410183" lon="-0.0315133"><ele>235.20000000000002</ele><time>2026-03-31T14:06:08.162Z</time></trkpt><trkpt lat="41.1411067" lon="-0.03155"><ele>235.60000000000002</ele><time>2026-03-31T14:06:09.161Z</time></trkpt><trkpt lat="41.1411967" lon="-0.0315667"><ele>236.0</ele><time>2026-03-31T14:06:10.161Z</time></trkpt><trkpt lat="41.14129" lon="-0.0315667"><ele>236.0</ele><time>2026-03-31T14:06:11.162Z</time></trkpt><trkpt lat="41.1413933" lon="-0.0315517"><ele>236.00000000000003</ele><time>2026-03-31T14:06:12.161Z</time></trkpt><trkpt lat="41.141495" lon="-0.031545"><ele>236.00000000000003</ele><time>2026-03-31T14:06:13.162Z</time></trkpt><trkpt lat="41.1415917" lon="-0.0315467"><ele>236.0</ele><time>2026-03-31T14:06:14.162Z</time></trkpt><trkpt lat="41.1416833" lon="-0.0315617"><ele>236.0</ele><time>2026-03-31T14:06:15.162Z</time></trkpt><trkpt lat="41.141775" lon="-0.0316"><ele>236.8</ele><time>2026-03-31T14:06:16.162Z</time></trkpt><trkpt lat="41.1418717" lon="-0.0316483"><ele>237.60000000000002</ele><time>2026-03-31T14:06:17.161Z</time></trkpt><trkpt lat="41.1419667" lon="-0.0317117"><ele>238.4</ele><time>2026-03-31T14:06:18.162Z</time></trkpt><trkpt lat="41.142065" lon="-0.0317833"><ele>239.2</ele><time>2026-03-31T14:06:19.162Z</time></trkpt><trkpt lat="41.142155" lon="-0.031855"><ele>240.0</ele><time>2026-03-31T14:06:20.162Z</time></trkpt><trkpt lat="41.142235" lon="-0.0319367"><ele>240.0</ele><time>2026-03-31T14:06:21.162Z</time></trkpt><trkpt lat="41.14231" lon="-0.0320117"><ele>240.0</ele><time>2026-03-31T14:06:22.162Z</time></trkpt><trkpt lat="41.142385" lon="-0.0321067"><ele>240.0</ele><time>2026-03-31T14:06:23.162Z</time></trkpt><trkpt lat="41.1424467" lon="-0.0322133"><ele>240.0</ele><time>2026-03-31T14:06:24.161Z</time></trkpt><trkpt lat="41.1425117" lon="-0.0323283"><ele>240.0</ele><time>2026-03-31T14:06:25.162Z</time></trkpt><trkpt lat="41.1425717" lon="-0.0324433"><ele>239.6</ele><time>2026-03-31T14:06:26.162Z</time></trkpt><trkpt lat="41.1426233" lon="-0.0325617"><ele>239.2</ele><time>2026-03-31T14:06:27.161Z</time></trkpt><trkpt lat="41.1426733" lon="-0.0326767"><ele>238.8</ele><time>2026-03-31T14:06:28.162Z</time></trkpt><trkpt lat="41.1427167" lon="-0.03281"><ele>238.4</ele><time>2026-03-31T14:06:29.162Z</time></trkpt><trkpt lat="41.1427517" lon="-0.0329517"><ele>238.0</ele><time>2026-03-31T14:06:30.162Z</time></trkpt><trkpt lat="41.1427783" lon="-0.0330867"><ele>238.0</ele><time>2026-03-31T14:06:31.162Z</time></trkpt><trkpt lat="41.1428083" lon="-0.0332133"><ele>238.0</ele><time>2026-03-31T14:06:32.161Z</time></trkpt><trkpt lat="41.1428467" lon="-0.0333333"><ele>238.0</ele><time>2026-03-31T14:06:33.162Z</time></trkpt><trkpt lat="41.1428833" lon="-0.03345"><ele>238.0</ele><time>2026-03-31T14:06:34.162Z</time></trkpt><trkpt lat="41.1429267" lon="-0.0335583"><ele>238.0</ele><time>2026-03-31T14:06:35.161Z</time></trkpt><trkpt lat="41.142975" lon="-0.0336617"><ele>238.0</ele><time>2026-03-31T14:06:36.161Z</time></trkpt><trkpt lat="41.1430383" lon="-0.03376"><ele>238.0</ele><time>2026-03-31T14:06:37.161Z</time></trkpt><trkpt lat="41.14311" lon="-0.0338633"><ele>238.0</ele><time>2026-03-31T14:06:38.161Z</time></trkpt><trkpt lat="41.1431817" lon="-0.0339683"><ele>238.0</ele><time>2026-03-31T14:06:39.161Z</time></trkpt><trkpt lat="41.1432617" lon="-0.0340667"><ele>238.0</ele><time>2026-03-31T14:06:40.161Z</time></trkpt><trkpt lat="41.1433533" lon="-0.0341533"><ele>238.60000000000002</ele><time>2026-03-31T14:06:41.161Z</time></trkpt><trkpt lat="41.143445" lon="-0.0342233"><ele>239.20000000000002</ele><time>2026-03-31T14:06:42.161Z</time></trkpt><trkpt lat="41.1435433" lon="-0.0342783"><ele>239.8</ele><time>2026-03-31T14:06:43.161Z</time></trkpt><trkpt lat="41.1436533" lon="-0.03433"><ele>240.4</ele><time>2026-03-31T14:06:44.161Z</time></trkpt><trkpt lat="41.1437567" lon="-0.0343867"><ele>241.0</ele><time>2026-03-31T14:06:45.161Z</time></trkpt><trkpt lat="41.14385" lon="-0.0344533"><ele>241.0</ele><time>2026-03-31T14:06:46.162Z</time></trkpt><trkpt lat="41.1439367" lon="-0.0345383"><ele>241.00000000000003</ele><time>2026-03-31T14:06:47.161Z</time></trkpt><trkpt lat="41.1440217" lon="-0.03463"><ele>241.00000000000003</ele><time>2026-03-31T14:06:48.161Z</time></trkpt><trkpt lat="41.144105" lon="-0.034725"><ele>241.0</ele><time>2026-03-31T14:06:49.162Z</time></trkpt><trkpt lat="41.144185" lon="-0.03483"><ele>241.0</ele><time>2026-03-31T14:06:50.162Z</time></trkpt><trkpt lat="41.1442583" lon="-0.0349417"><ele>239.60000000000002</ele><time>2026-03-31T14:06:51.161Z</time></trkpt><trkpt lat="41.1443183" lon="-0.0350433"><ele>238.20000000000002</ele><time>2026-03-31T14:06:52.161Z</time></trkpt><trkpt lat="41.144365" lon="-0.03514"><ele>236.79999999999998</ele><time>2026-03-31T14:06:53.162Z</time></trkpt><trkpt lat="41.1444" lon="-0.0352417"><ele>235.39999999999998</ele><time>2026-03-31T14:06:54.162Z</time></trkpt><trkpt lat="41.1444283" lon="-0.0353633"><ele>234.0</ele><time>2026-03-31T14:06:55.162Z</time></trkpt><trkpt lat="41.1444517" lon="-0.0354933"><ele>234.0</ele><time>2026-03-31T14:06:56.161Z</time></trkpt><trkpt lat="41.144455" lon="-0.0356283"><ele>233.99999999999997</ele><time>2026-03-31T14:06:57.161Z</time></trkpt><trkpt lat="41.1444567" lon="-0.0357667"><ele>233.99999999999997</ele><time>2026-03-31T14:06:58.162Z</time></trkpt><trkpt lat="41.14445" lon="-0.0359017"><ele>234.0</ele><time>2026-03-31T14:06:59.162Z</time></trkpt><trkpt lat="41.1444467" lon="-0.036035"><ele>234.0</ele><time>2026-03-31T14:07:00.162Z</time></trkpt><trkpt lat="41.1444283" lon="-0.036155"><ele>234.6</ele><time>2026-03-31T14:07:01.161Z</time></trkpt><trkpt lat="41.1443967" lon="-0.0362683"><ele>235.2</ele><time>2026-03-31T14:07:02.162Z</time></trkpt><trkpt lat="41.1443533" lon="-0.0363817"><ele>235.79999999999998</ele><time>2026-03-31T14:07:03.161Z</time></trkpt><trkpt lat="41.1443" lon="-0.0364967"><ele>236.39999999999998</ele><time>2026-03-31T14:07:04.162Z</time></trkpt><trkpt lat="41.1442367" lon="-0.036605"><ele>237.0</ele><time>2026-03-31T14:07:05.161Z</time></trkpt><trkpt lat="41.144165" lon="-0.036705"><ele>237.2</ele><time>2026-03-31T14:07:06.161Z</time></trkpt><trkpt lat="41.1440883" lon="-0.0367983"><ele>237.39999999999998</ele><time>2026-03-31T14:07:07.161Z</time></trkpt><trkpt lat="41.1440083" lon="-0.0368867"><ele>237.60000000000002</ele><time>2026-03-31T14:07:08.161Z</time></trkpt><trkpt lat="41.1439317" lon="-0.0369767"><ele>237.8</ele><time>2026-03-31T14:07:09.162Z</time></trkpt><trkpt lat="41.14386" lon="-0.0370717"><ele>238.0</ele><time>2026-03-31T14:07:10.162Z</time></trkpt><trkpt lat="41.1437833" lon="-0.0371633"><ele>238.4</ele><time>2026-03-31T14:07:11.161Z</time></trkpt><trkpt lat="41.1437067" lon="-0.0372567"><ele>238.8</ele><time>2026-03-31T14:07:12.162Z</time></trkpt><trkpt lat="41.1436283" lon="-0.0373483"><ele>239.2</ele><time>2026-03-31T14:07:13.162Z</time></trkpt><trkpt lat="41.14355" lon="-0.0374433"><ele>239.6</ele><time>2026-03-31T14:07:14.161Z</time></trkpt><trkpt lat="41.1434733" lon="-0.03754"><ele>240.0</ele><time>2026-03-31T14:07:15.162Z</time></trkpt><trkpt lat="41.1433933" lon="-0.03764"><ele>240.0</ele><time>2026-03-31T14:07:16.162Z</time></trkpt><trkpt lat="41.143335" lon="-0.03774"><ele>240.0</ele><time>2026-03-31T14:07:17.161Z</time></trkpt><trkpt lat="41.1432917" lon="-0.0378367"><ele>240.0</ele><time>2026-03-31T14:07:18.161Z</time></trkpt><trkpt lat="41.14324" lon="-0.0379217"><ele>240.0</ele><time>2026-03-31T14:07:19.161Z</time></trkpt><trkpt lat="41.1431867" lon="-0.0380067"><ele>240.0</ele><time>2026-03-31T14:07:20.162Z</time></trkpt><trkpt lat="41.1431267" lon="-0.0380667"><ele>240.0</ele><time>2026-03-31T14:07:21.162Z</time></trkpt><trkpt lat="41.14305" lon="-0.0381167"><ele>240.0</ele><time>2026-03-31T14:07:22.161Z</time></trkpt><trkpt lat="41.1429467" lon="-0.0381533"><ele>240.0</ele><time>2026-03-31T14:07:23.159Z</time></trkpt><trkpt lat="41.1428383" lon="-0.038175"><ele>240.0</ele><time>2026-03-31T14:07:24.161Z</time></trkpt><trkpt lat="41.1427233" lon="-0.0381917"><ele>240.0</ele><time>2026-03-31T14:07:25.161Z</time></trkpt><trkpt lat="41.1426033" lon="-0.0382"><ele>240.0</ele><time>2026-03-31T14:07:26.162Z</time></trkpt><trkpt lat="41.1424833" lon="-0.03821"><ele>240.0</ele><time>2026-03-31T14:07:27.161Z</time></trkpt><trkpt lat="41.1423633" lon="-0.0382117"><ele>240.0</ele><time>2026-03-31T14:07:28.162Z</time></trkpt><trkpt lat="41.14225" lon="-0.0382183"><ele>240.0</ele><time>2026-03-31T14:07:29.161Z</time></trkpt><trkpt lat="41.1421433" lon="-0.0382333"><ele>239.6</ele><time>2026-03-31T14:07:30.161Z</time></trkpt><trkpt lat="41.1420367" lon="-0.0382633"><ele>239.2</ele><time>2026-03-31T14:07:31.162Z</time></trkpt><trkpt lat="41.141945" lon="-0.0383083"><ele>238.8</ele><time>2026-03-31T14:07:32.162Z</time></trkpt><trkpt lat="41.14187" lon="-0.0383683"><ele>238.4</ele><time>2026-03-31T14:07:33.161Z</time></trkpt><trkpt lat="41.1418033" lon="-0.0384533"><ele>238.0</ele><time>2026-03-31T14:07:34.16Z</time></trkpt><trkpt lat="41.141745" lon="-0.0385567"><ele>239.0</ele><time>2026-03-31T14:07:35.161Z</time></trkpt><trkpt lat="41.141705" lon="-0.0386717"><ele>240.0</ele><time>2026-03-31T14:07:36.161Z</time></trkpt><trkpt lat="41.14168" lon="-0.0388083"><ele>241.0</ele><time>2026-03-31T14:07:37.161Z</time></trkpt><trkpt lat="41.14166" lon="-0.0389483"><ele>242.0</ele><time>2026-03-31T14:07:38.162Z</time></trkpt><trkpt lat="41.14165" lon="-0.0391"><ele>243.0</ele><time>2026-03-31T14:07:39.161Z</time></trkpt><trkpt lat="41.1416483" lon="-0.03925"><ele>243.8</ele><time>2026-03-31T14:07:40.161Z</time></trkpt><trkpt lat="41.141655" lon="-0.039405"><ele>244.60000000000002</ele><time>2026-03-31T14:07:41.162Z</time></trkpt><trkpt lat="41.1416583" lon="-0.0395483"><ele>245.39999999999998</ele><time>2026-03-31T14:07:42.161Z</time></trkpt><trkpt lat="41.1416667" lon="-0.03968"><ele>246.2</ele><time>2026-03-31T14:07:43.161Z</time></trkpt><trkpt lat="41.1416833" lon="-0.0397967"><ele>247.0</ele><time>2026-03-31T14:07:44.162Z</time></trkpt><trkpt lat="41.14171" lon="-0.039905"><ele>246.6</ele><time>2026-03-31T14:07:45.162Z</time></trkpt><trkpt lat="41.14175" lon="-0.0400183"><ele>246.2</ele><time>2026-03-31T14:07:46.162Z</time></trkpt><trkpt lat="41.1418017" lon="-0.040125"><ele>245.8</ele><time>2026-03-31T14:07:47.161Z</time></trkpt><trkpt lat="41.1418617" lon="-0.040235"><ele>245.4</ele><time>2026-03-31T14:07:48.162Z</time></trkpt><trkpt lat="41.1419267" lon="-0.0403483"><ele>245.0</ele><time>2026-03-31T14:07:49.161Z</time></trkpt><trkpt lat="41.1419917" lon="-0.0404667"><ele>245.0</ele><time>2026-03-31T14:07:50.161Z</time></trkpt><trkpt lat="41.1420533" lon="-0.04058"><ele>245.0</ele><time>2026-03-31T14:07:51.162Z</time></trkpt><trkpt lat="41.1421133" lon="-0.0406917"><ele>245.0</ele><time>2026-03-31T14:07:52.161Z</time></trkpt><trkpt lat="41.142165" lon="-0.0408067"><ele>245.0</ele><time>2026-03-31T14:07:53.161Z</time></trkpt><trkpt lat="41.142205" lon="-0.04093"><ele>245.0</ele><time>2026-03-31T14:07:54.161Z</time></trkpt><trkpt lat="41.14224" lon="-0.0410567"><ele>245.2</ele><time>2026-03-31T14:07:55.161Z</time></trkpt><trkpt lat="41.1422633" lon="-0.041205"><ele>245.4</ele><time>2026-03-31T14:07:56.162Z</time></trkpt><trkpt lat="41.1422717" lon="-0.0413483"><ele>245.60000000000002</ele><time>2026-03-31T14:07:57.161Z</time></trkpt><trkpt lat="41.1422717" lon="-0.041485"><ele>245.8</ele><time>2026-03-31T14:07:58.161Z</time></trkpt><trkpt lat="41.1422567" lon="-0.0416217"><ele>246.0</ele><time>2026-03-31T14:07:59.161Z</time></trkpt><trkpt lat="41.1422367" lon="-0.04177"><ele>246.20000000000002</ele><time>2026-03-31T14:08:00.162Z</time></trkpt><trkpt lat="41.1422333" lon="-0.041905"><ele>246.40000000000003</ele><time>2026-03-31T14:08:01.161Z</time></trkpt><trkpt lat="41.1422333" lon="-0.0420383"><ele>246.6</ele><time>2026-03-31T14:08:02.161Z</time></trkpt><trkpt lat="41.14225" lon="-0.0421717"><ele>246.8</ele><time>2026-03-31T14:08:03.162Z</time></trkpt><trkpt lat="41.1422833" lon="-0.0423217"><ele>247.0</ele><time>2026-03-31T14:08:04.162Z</time></trkpt><trkpt lat="41.1423217" lon="-0.0424683"><ele>247.0</ele><time>2026-03-31T14:08:05.162Z</time></trkpt><trkpt lat="41.142355" lon="-0.0426133"><ele>247.0</ele><time>2026-03-31T14:08:06.161Z</time></trkpt><trkpt lat="41.1423933" lon="-0.04277"><ele>247.0</ele><time>2026-03-31T14:08:07.161Z</time></trkpt><trkpt lat="41.14243" lon="-0.0429217"><ele>247.0</ele><time>2026-03-31T14:08:08.161Z</time></trkpt><trkpt lat="41.1424667" lon="-0.04307"><ele>247.75</ele><time>2026-03-31T14:08:09.161Z</time></trkpt><trkpt lat="41.1425033" lon="-0.043215"><ele>248.5</ele><time>2026-03-31T14:08:10.161Z</time></trkpt><trkpt lat="41.142535" lon="-0.0433617"><ele>249.25</ele><time>2026-03-31T14:08:11.161Z</time></trkpt><trkpt lat="41.1425683" lon="-0.0435017"><ele>250.0</ele><time>2026-03-31T14:08:12.161Z</time></trkpt><trkpt lat="41.1426067" lon="-0.0436533"><ele>250.0</ele><time>2026-03-31T14:08:13.162Z</time></trkpt><trkpt lat="41.1426433" lon="-0.043805"><ele>250.0</ele><time>2026-03-31T14:08:14.161Z</time></trkpt><trkpt lat="41.1426833" lon="-0.0439517"><ele>250.0</ele><time>2026-03-31T14:08:15.161Z</time></trkpt><trkpt lat="41.1427283" lon="-0.0441"><ele>250.0</ele><time>2026-03-31T14:08:16.162Z</time></trkpt><trkpt lat="41.14278" lon="-0.0442483"><ele>249.8</ele><time>2026-03-31T14:08:17.162Z</time></trkpt><trkpt lat="41.1428317" lon="-0.04437"><ele>249.6</ele><time>2026-03-31T14:08:18.161Z</time></trkpt><trkpt lat="41.1428967" lon="-0.0444783"><ele>249.39999999999998</ele><time>2026-03-31T14:08:19.161Z</time></trkpt><trkpt lat="41.1429717" lon="-0.0445833"><ele>249.2</ele><time>2026-03-31T14:08:20.161Z</time></trkpt><trkpt lat="41.14305" lon="-0.0446917"><ele>249.0</ele><time>2026-03-31T14:08:21.161Z</time></trkpt><trkpt lat="41.14313" lon="-0.0448083"><ele>249.0</ele><time>2026-03-31T14:08:22.161Z</time></trkpt><trkpt lat="41.1432133" lon="-0.0449133"><ele>249.0</ele><time>2026-03-31T14:08:23.162Z</time></trkpt><trkpt lat="41.143295" lon="-0.0450133"><ele>249.0</ele><time>2026-03-31T14:08:24.161Z</time></trkpt><trkpt lat="41.143385" lon="-0.0451117"><ele>249.0</ele><time>2026-03-31T14:08:25.162Z</time></trkpt><trkpt lat="41.14348" lon="-0.0452083"><ele>250.5</ele><time>2026-03-31T14:08:26.162Z</time></trkpt><trkpt lat="41.1435767" lon="-0.045305"><ele>252.0</ele><time>2026-03-31T14:08:27.161Z</time></trkpt><trkpt lat="41.143675" lon="-0.0454017"><ele>253.5</ele><time>2026-03-31T14:08:28.162Z</time></trkpt><trkpt lat="41.1437717" lon="-0.0454967"><ele>255.0</ele><time>2026-03-31T14:08:29.161Z</time></trkpt><trkpt lat="41.1438667" lon="-0.0455867"><ele>255.0</ele><time>2026-03-31T14:08:30.162Z</time></trkpt><trkpt lat="41.1439533" lon="-0.0456767"><ele>255.0</ele><time>2026-03-31T14:08:31.161Z</time></trkpt><trkpt lat="41.1440317" lon="-0.0457567"><ele>255.0</ele><time>2026-03-31T14:08:32.161Z</time></trkpt><trkpt lat="41.1441133" lon="-0.045815"><ele>255.0</ele><time>2026-03-31T14:08:33.161Z</time></trkpt><trkpt lat="41.1441917" lon="-0.0458533"><ele>255.0</ele><time>2026-03-31T14:08:34.161Z</time></trkpt><trkpt lat="41.1442717" lon="-0.0458883"><ele>254.0</ele><time>2026-03-31T14:08:35.162Z</time></trkpt><trkpt lat="41.1443567" lon="-0.0459033"><ele>253.0</ele><time>2026-03-31T14:08:36.162Z</time></trkpt><trkpt lat="41.1444467" lon="-0.0459017"><ele>252.0</ele><time>2026-03-31T14:08:37.161Z</time></trkpt><trkpt lat="41.144535" lon="-0.045895"><ele>251.0</ele><time>2026-03-31T14:08:38.161Z</time></trkpt><trkpt lat="41.1446283" lon="-0.04589"><ele>250.0</ele><time>2026-03-31T14:08:39.161Z</time></trkpt><trkpt lat="41.1447267" lon="-0.0458917"><ele>249.99999999999997</ele><time>2026-03-31T14:08:40.161Z</time></trkpt><trkpt lat="41.1448183" lon="-0.0459033"><ele>250.0</ele><time>2026-03-31T14:08:41.161Z</time></trkpt><trkpt lat="41.144905" lon="-0.04593"><ele>250.0</ele><time>2026-03-31T14:08:42.161Z</time></trkpt><trkpt lat="41.1449783" lon="-0.0459783"><ele>250.0</ele><time>2026-03-31T14:08:43.161Z</time></trkpt><trkpt lat="41.145045" lon="-0.0460417"><ele>249.99999999999997</ele><time>2026-03-31T14:08:44.162Z</time></trkpt><trkpt lat="41.1451133" lon="-0.0461"><ele>250.0</ele><time>2026-03-31T14:08:45.161Z</time></trkpt><trkpt lat="41.1451667" lon="-0.04615"><ele>250.66666666666666</ele><time>2026-03-31T14:08:46.161Z</time></trkpt><trkpt lat="41.145245" lon="-0.0461983"><ele>251.33333333333331</ele><time>2026-03-31T14:08:48.162Z</time></trkpt><trkpt lat="41.1453167" lon="-0.0461967"><ele>252.0</ele><time>2026-03-31T14:08:50.161Z</time></trkpt><trkpt lat="41.145395" lon="-0.046135"><ele>252.66666666666669</ele><time>2026-03-31T14:08:52.162Z</time></trkpt><trkpt lat="41.14545" lon="-0.0460767"><ele>253.33333333333334</ele><time>2026-03-31T14:08:53.161Z</time></trkpt><trkpt lat="41.1455117" lon="-0.0460083"><ele>254.0</ele><time>2026-03-31T14:08:54.162Z</time></trkpt><trkpt lat="41.1455783" lon="-0.0459333"><ele>254.0</ele><time>2026-03-31T14:08:55.162Z</time></trkpt><trkpt lat="41.1456483" lon="-0.045855"><ele>253.99999999999997</ele><time>2026-03-31T14:08:56.161Z</time></trkpt><trkpt lat="41.1457267" lon="-0.0457733"><ele>253.99999999999997</ele><time>2026-03-31T14:08:57.161Z</time></trkpt><trkpt lat="41.1458117" lon="-0.0456917"><ele>254.0</ele><time>2026-03-31T14:08:58.162Z</time></trkpt><trkpt lat="41.1458933" lon="-0.0456"><ele>254.0</ele><time>2026-03-31T14:08:59.161Z</time></trkpt><trkpt lat="41.1459767" lon="-0.0455067"><ele>256.25</ele><time>2026-03-31T14:09:00.161Z</time></trkpt><trkpt lat="41.146075" lon="-0.0454033"><ele>258.5</ele><time>2026-03-31T14:09:01.162Z</time></trkpt><trkpt lat="41.14617" lon="-0.045305"><ele>260.75</ele><time>2026-03-31T14:09:02.162Z</time></trkpt><trkpt lat="41.14626" lon="-0.045205"><ele>263.0</ele><time>2026-03-31T14:09:03.161Z</time></trkpt><trkpt lat="41.1463533" lon="-0.0451167"><ele>263.0</ele><time>2026-03-31T14:09:04.161Z</time></trkpt><trkpt lat="41.1464367" lon="-0.0450317"><ele>263.0</ele><time>2026-03-31T14:09:05.161Z</time></trkpt><trkpt lat="41.14652" lon="-0.0449417"><ele>263.0</ele><time>2026-03-31T14:09:06.161Z</time></trkpt><trkpt lat="41.1466033" lon="-0.044855"><ele>263.0</ele><time>2026-03-31T14:09:07.162Z</time></trkpt><trkpt lat="41.1466917" lon="-0.0447617"><ele>263.0</ele><time>2026-03-31T14:09:08.161Z</time></trkpt><trkpt lat="41.1467767" lon="-0.0446833"><ele>264.0</ele><time>2026-03-31T14:09:09.161Z</time></trkpt><trkpt lat="41.1468583" lon="-0.0445983"><ele>265.0</ele><time>2026-03-31T14:09:10.162Z</time></trkpt><trkpt lat="41.1469433" lon="-0.04452"><ele>266.0</ele><time>2026-03-31T14:09:11.162Z</time></trkpt><trkpt lat="41.14703" lon="-0.0444333"><ele>267.0</ele><time>2026-03-31T14:09:12.162Z</time></trkpt><trkpt lat="41.1471267" lon="-0.044345"><ele>268.0</ele><time>2026-03-31T14:09:13.162Z</time></trkpt><trkpt lat="41.1472217" lon="-0.0442483"><ele>268.0</ele><time>2026-03-31T14:09:14.161Z</time></trkpt><trkpt lat="41.1473133" lon="-0.0441533"><ele>268.0</ele><time>2026-03-31T14:09:15.161Z</time></trkpt><trkpt lat="41.1474067" lon="-0.0440517"><ele>268.0</ele><time>2026-03-31T14:09:16.162Z</time></trkpt><trkpt lat="41.1474983" lon="-0.0439533"><ele>268.0</ele><time>2026-03-31T14:09:17.161Z</time></trkpt><trkpt lat="41.147595" lon="-0.043855"><ele>268.75</ele><time>2026-03-31T14:09:18.161Z</time></trkpt><trkpt lat="41.1476867" lon="-0.0437517"><ele>269.5</ele><time>2026-03-31T14:09:19.162Z</time></trkpt><trkpt lat="41.1477833" lon="-0.0436517"><ele>270.25</ele><time>2026-03-31T14:09:20.162Z</time></trkpt><trkpt lat="41.1478817" lon="-0.04355"><ele>271.0</ele><time>2026-03-31T14:09:21.161Z</time></trkpt><trkpt lat="41.1479783" lon="-0.0434567"><ele>271.0</ele><time>2026-03-31T14:09:22.162Z</time></trkpt><trkpt lat="41.148075" lon="-0.0433667"><ele>271.0</ele><time>2026-03-31T14:09:23.162Z</time></trkpt><trkpt lat="41.1481667" lon="-0.04327"><ele>271.0</ele><time>2026-03-31T14:09:24.161Z</time></trkpt><trkpt lat="41.1482567" lon="-0.0431783"><ele>271.0</ele><time>2026-03-31T14:09:25.162Z</time></trkpt><trkpt lat="41.148355" lon="-0.0430833"><ele>270.25</ele><time>2026-03-31T14:09:26.161Z</time></trkpt><trkpt lat="41.1484433" lon="-0.04299"><ele>269.5</ele><time>2026-03-31T14:09:27.162Z</time></trkpt><trkpt lat="41.148535" lon="-0.0428983"><ele>268.75</ele><time>2026-03-31T14:09:28.161Z</time></trkpt><trkpt lat="41.1486267" lon="-0.042795"><ele>268.0</ele><time>2026-03-31T14:09:29.161Z</time></trkpt><trkpt lat="41.1487233" lon="-0.0426967"><ele>268.0</ele><time>2026-03-31T14:09:30.161Z</time></trkpt><trkpt lat="41.1488183" lon="-0.042605"><ele>268.0</ele><time>2026-03-31T14:09:31.162Z</time></trkpt><trkpt lat="41.1489183" lon="-0.0425083"><ele>268.0</ele><time>2026-03-31T14:09:32.161Z</time></trkpt><trkpt lat="41.14902" lon="-0.0423967"><ele>268.0</ele><time>2026-03-31T14:09:33.161Z</time></trkpt><trkpt lat="41.14912" lon="-0.0422933"><ele>266.75</ele><time>2026-03-31T14:09:34.161Z</time></trkpt><trkpt lat="41.149215" lon="-0.0421983"><ele>265.5</ele><time>2026-03-31T14:09:35.161Z</time></trkpt><trkpt lat="41.14931" lon="-0.0421033"><ele>264.25</ele><time>2026-03-31T14:09:36.161Z</time></trkpt><trkpt lat="41.1494" lon="-0.042015"><ele>263.0</ele><time>2026-03-31T14:09:37.162Z</time></trkpt><trkpt lat="41.1494867" lon="-0.0419383"><ele>263.0</ele><time>2026-03-31T14:09:38.161Z</time></trkpt><trkpt lat="41.14957" lon="-0.0418517"><ele>263.0</ele><time>2026-03-31T14:09:39.161Z</time></trkpt><trkpt lat="41.1496583" lon="-0.0417683"><ele>263.0</ele><time>2026-03-31T14:09:40.162Z</time></trkpt><trkpt lat="41.14975" lon="-0.0416833"><ele>263.0</ele><time>2026-03-31T14:09:41.161Z</time></trkpt><trkpt lat="41.14984" lon="-0.0416133"><ele>263.0</ele><time>2026-03-31T14:09:42.161Z</time></trkpt><trkpt lat="41.1499433" lon="-0.0415433"><ele>263.25</ele><time>2026-03-31T14:09:43.162Z</time></trkpt><trkpt lat="41.15006" lon="-0.0414817"><ele>263.5</ele><time>2026-03-31T14:09:44.161Z</time></trkpt><trkpt lat="41.150185" lon="-0.0414233"><ele>263.75</ele><time>2026-03-31T14:09:45.161Z</time></trkpt><trkpt lat="41.1503117" lon="-0.0413717"><ele>264.0</ele><time>2026-03-31T14:09:46.161Z</time></trkpt><trkpt lat="41.1504367" lon="-0.0413283"><ele>264.0</ele><time>2026-03-31T14:09:47.161Z</time></trkpt><trkpt lat="41.1505667" lon="-0.0412917"><ele>264.0</ele><time>2026-03-31T14:09:48.162Z</time></trkpt><trkpt lat="41.1507" lon="-0.04126"><ele>264.0</ele><time>2026-03-31T14:09:49.161Z</time></trkpt><trkpt lat="41.1508283" lon="-0.0412333"><ele>264.0</ele><time>2026-03-31T14:09:50.162Z</time></trkpt><trkpt lat="41.1509567" lon="-0.0412"><ele>263.5</ele><time>2026-03-31T14:09:51.162Z</time></trkpt><trkpt lat="41.1510883" lon="-0.041175"><ele>263.0</ele><time>2026-03-31T14:09:52.161Z</time></trkpt><trkpt lat="41.1512183" lon="-0.041145"><ele>262.5</ele><time>2026-03-31T14:09:53.161Z</time></trkpt><trkpt lat="41.15134" lon="-0.0411117"><ele>262.0</ele><time>2026-03-31T14:09:54.161Z</time></trkpt><trkpt lat="41.1514667" lon="-0.041085"><ele>261.5</ele><time>2026-03-31T14:09:55.161Z</time></trkpt><trkpt lat="41.1515933" lon="-0.041055"><ele>261.0</ele><time>2026-03-31T14:09:56.161Z</time></trkpt><trkpt lat="41.1517217" lon="-0.0410233"><ele>260.5</ele><time>2026-03-31T14:09:57.161Z</time></trkpt><trkpt lat="41.15185" lon="-0.040995"><ele>260.0</ele><time>2026-03-31T14:09:58.162Z</time></trkpt><trkpt lat="41.151985" lon="-0.0409633"><ele>260.0</ele><time>2026-03-31T14:09:59.161Z</time></trkpt><trkpt lat="41.1521133" lon="-0.0409333"><ele>260.0</ele><time>2026-03-31T14:10:00.162Z</time></trkpt><trkpt lat="41.1522367" lon="-0.0409067"><ele>260.0</ele><time>2026-03-31T14:10:01.162Z</time></trkpt><trkpt lat="41.1523583" lon="-0.040875"><ele>260.0</ele><time>2026-03-31T14:10:02.161Z</time></trkpt><trkpt lat="41.1524733" lon="-0.040845"><ele>260.75</ele><time>2026-03-31T14:10:03.161Z</time></trkpt><trkpt lat="41.15259" lon="-0.04081"><ele>261.5</ele><time>2026-03-31T14:10:04.161Z</time></trkpt><trkpt lat="41.15271" lon="-0.040775"><ele>262.25</ele><time>2026-03-31T14:10:05.162Z</time></trkpt><trkpt lat="41.1528267" lon="-0.0407483"><ele>263.0</ele><time>2026-03-31T14:10:06.161Z</time></trkpt><trkpt lat="41.152945" lon="-0.040725"><ele>263.0</ele><time>2026-03-31T14:10:07.161Z</time></trkpt><trkpt lat="41.1530633" lon="-0.040695"><ele>263.0</ele><time>2026-03-31T14:10:08.161Z</time></trkpt><trkpt lat="41.1531883" lon="-0.0406583"><ele>263.0</ele><time>2026-03-31T14:10:09.162Z</time></trkpt><trkpt lat="41.1533183" lon="-0.0406233"><ele>263.0</ele><time>2026-03-31T14:10:10.161Z</time></trkpt><trkpt lat="41.153445" lon="-0.0405883"><ele>262.0</ele><time>2026-03-31T14:10:11.161Z</time></trkpt><trkpt lat="41.153575" lon="-0.0405633"><ele>261.0</ele><time>2026-03-31T14:10:12.162Z</time></trkpt><trkpt lat="41.1537033" lon="-0.04054"><ele>260.0</ele><time>2026-03-31T14:10:13.161Z</time></trkpt><trkpt lat="41.15383" lon="-0.0405"><ele>259.0</ele><time>2026-03-31T14:10:14.161Z</time></trkpt><trkpt lat="41.1539483" lon="-0.040465"><ele>259.0</ele><time>2026-03-31T14:10:15.161Z</time></trkpt><trkpt lat="41.1540667" lon="-0.040435"><ele>259.0</ele><time>2026-03-31T14:10:16.161Z</time></trkpt><trkpt lat="41.1541817" lon="-0.04041"><ele>259.0</ele><time>2026-03-31T14:10:17.161Z</time></trkpt><trkpt lat="41.1542917" lon="-0.0403867"><ele>259.0</ele><time>2026-03-31T14:10:18.162Z</time></trkpt><trkpt lat="41.1543983" lon="-0.040355"><ele>259.0</ele><time>2026-03-31T14:10:19.161Z</time></trkpt><trkpt lat="41.1545017" lon="-0.04032"><ele>259.0</ele><time>2026-03-31T14:10:20.162Z</time></trkpt><trkpt lat="41.1546" lon="-0.0402783"><ele>259.0</ele><time>2026-03-31T14:10:21.161Z</time></trkpt><trkpt lat="41.154695" lon="-0.040225"><ele>259.0</ele><time>2026-03-31T14:10:22.161Z</time></trkpt><trkpt lat="41.1547933" lon="-0.0401617"><ele>259.0</ele><time>2026-03-31T14:10:23.161Z</time></trkpt><trkpt lat="41.1548867" lon="-0.0400867"><ele>259.25</ele><time>2026-03-31T14:10:24.162Z</time></trkpt><trkpt lat="41.154975" lon="-0.0399967"><ele>259.5</ele><time>2026-03-31T14:10:25.162Z</time></trkpt><trkpt lat="41.1550567" lon="-0.0398883"><ele>259.75</ele><time>2026-03-31T14:10:26.162Z</time></trkpt><trkpt lat="41.1551317" lon="-0.0397633"><ele>260.0</ele><time>2026-03-31T14:10:27.162Z</time></trkpt><trkpt lat="41.1552183" lon="-0.0396417"><ele>259.25</ele><time>2026-03-31T14:10:28.161Z</time></trkpt><trkpt lat="41.1553" lon="-0.0395067"><ele>258.5</ele><time>2026-03-31T14:10:29.162Z</time></trkpt><trkpt lat="41.1553817" lon="-0.0393683"><ele>257.75</ele><time>2026-03-31T14:10:30.161Z</time></trkpt><trkpt lat="41.1554617" lon="-0.0392367"><ele>257.0</ele><time>2026-03-31T14:10:31.161Z</time></trkpt><trkpt lat="41.1555417" lon="-0.0391033"><ele>257.25</ele><time>2026-03-31T14:10:32.161Z</time></trkpt><trkpt lat="41.155625" lon="-0.03897"><ele>257.5</ele><time>2026-03-31T14:10:33.162Z</time></trkpt><trkpt lat="41.155705" lon="-0.0388367"><ele>257.75</ele><time>2026-03-31T14:10:34.162Z</time></trkpt><trkpt lat="41.1557867" lon="-0.0387067"><ele>258.0</ele><time>2026-03-31T14:10:35.162Z</time></trkpt><trkpt lat="41.155865" lon="-0.038575"><ele>258.0</ele><time>2026-03-31T14:10:36.162Z</time></trkpt><trkpt lat="41.155945" lon="-0.0384417"><ele>258.0</ele><time>2026-03-31T14:10:37.161Z</time></trkpt><trkpt lat="41.1560217" lon="-0.0383267"><ele>258.0</ele><time>2026-03-31T14:10:38.162Z</time></trkpt><trkpt lat="41.156095" lon="-0.0382067"><ele>258.0</ele><time>2026-03-31T14:10:39.162Z</time></trkpt><trkpt lat="41.1561717" lon="-0.03809"><ele>257.25</ele><time>2026-03-31T14:10:40.161Z</time></trkpt><trkpt lat="41.156245" lon="-0.037965"><ele>256.5</ele><time>2026-03-31T14:10:41.162Z</time></trkpt><trkpt lat="41.156325" lon="-0.0378433"><ele>255.75</ele><time>2026-03-31T14:10:42.162Z</time></trkpt><trkpt lat="41.156405" lon="-0.037725"><ele>255.0</ele><time>2026-03-31T14:10:43.161Z</time></trkpt><trkpt lat="41.1564833" lon="-0.0376017"><ele>256.5</ele><time>2026-03-31T14:10:44.162Z</time></trkpt><trkpt lat="41.1565583" lon="-0.0374683"><ele>258.0</ele><time>2026-03-31T14:10:45.161Z</time></trkpt><trkpt lat="41.1566317" lon="-0.0373367"><ele>259.5</ele><time>2026-03-31T14:10:46.161Z</time></trkpt><trkpt lat="41.1567083" lon="-0.0372083"><ele>261.0</ele><time>2026-03-31T14:10:47.162Z</time></trkpt><trkpt lat="41.1567817" lon="-0.0370817"><ele>261.0</ele><time>2026-03-31T14:10:48.161Z</time></trkpt><trkpt lat="41.1568617" lon="-0.0369567"><ele>261.0</ele><time>2026-03-31T14:10:49.162Z</time></trkpt><trkpt lat="41.156935" lon="-0.0368317"><ele>261.0</ele><time>2026-03-31T14:10:50.162Z</time></trkpt><trkpt lat="41.1570083" lon="-0.0366933"><ele>261.0</ele><time>2026-03-31T14:10:51.162Z</time></trkpt><trkpt lat="41.15709" lon="-0.0365533"><ele>262.0</ele><time>2026-03-31T14:10:52.161Z</time></trkpt><trkpt lat="41.157165" lon="-0.03642"><ele>263.0</ele><time>2026-03-31T14:10:53.162Z</time></trkpt><trkpt lat="41.1572467" lon="-0.0362967"><ele>264.0</ele><time>2026-03-31T14:10:54.161Z</time></trkpt><trkpt lat="41.1573217" lon="-0.03617"><ele>265.0</ele><time>2026-03-31T14:10:55.161Z</time></trkpt><trkpt lat="41.157395" lon="-0.036045"><ele>266.0</ele><time>2026-03-31T14:10:56.162Z</time></trkpt><trkpt lat="41.15747" lon="-0.0359167"><ele>267.0</ele><time>2026-03-31T14:10:57.161Z</time></trkpt><trkpt lat="41.157545" lon="-0.0357967"><ele>268.0</ele><time>2026-03-31T14:10:58.161Z</time></trkpt><trkpt lat="41.1576217" lon="-0.0356733"><ele>269.0</ele><time>2026-03-31T14:10:59.161Z</time></trkpt><trkpt lat="41.1576983" lon="-0.0355633"><ele>270.0</ele><time>2026-03-31T14:11:00.161Z</time></trkpt><trkpt lat="41.1577667" lon="-0.035455"><ele>271.0</ele><time>2026-03-31T14:11:01.161Z</time></trkpt><trkpt lat="41.1578367" lon="-0.0353417"><ele>272.0</ele><time>2026-03-31T14:11:02.162Z</time></trkpt><trkpt lat="41.1579067" lon="-0.0352267"><ele>273.0</ele><time>2026-03-31T14:11:03.162Z</time></trkpt><trkpt lat="41.1579733" lon="-0.0351217"><ele>274.0</ele><time>2026-03-31T14:11:04.161Z</time></trkpt><trkpt lat="41.1580467" lon="-0.0350033"><ele>274.0</ele><time>2026-03-31T14:11:05.161Z</time></trkpt><trkpt lat="41.15812" lon="-0.0348783"><ele>274.0</ele><time>2026-03-31T14:11:06.161Z</time></trkpt><trkpt lat="41.1581883" lon="-0.0347583"><ele>274.0</ele><time>2026-03-31T14:11:07.161Z</time></trkpt><trkpt lat="41.158265" lon="-0.0346283"><ele>274.0</ele><time>2026-03-31T14:11:08.161Z</time></trkpt><trkpt lat="41.1583367" lon="-0.034505"><ele>274.75</ele><time>2026-03-31T14:11:09.162Z</time></trkpt><trkpt lat="41.1584117" lon="-0.0343817"><ele>275.5</ele><time>2026-03-31T14:11:10.161Z</time></trkpt><trkpt lat="41.15849" lon="-0.03426"><ele>276.25</ele><time>2026-03-31T14:11:11.161Z</time></trkpt><trkpt lat="41.15857" lon="-0.0341317"><ele>277.0</ele><time>2026-03-31T14:11:12.161Z</time></trkpt><trkpt lat="41.1586433" lon="-0.0339933"><ele>277.25</ele><time>2026-03-31T14:11:13.162Z</time></trkpt><trkpt lat="41.1587233" lon="-0.0338667"><ele>277.5</ele><time>2026-03-31T14:11:14.161Z</time></trkpt><trkpt lat="41.1588117" lon="-0.0337367"><ele>277.75</ele><time>2026-03-31T14:11:15.161Z</time></trkpt><trkpt lat="41.1588917" lon="-0.0336017"><ele>278.0</ele><time>2026-03-31T14:11:16.161Z</time></trkpt><trkpt lat="41.158965" lon="-0.0334767"><ele>278.0</ele><time>2026-03-31T14:11:17.162Z</time></trkpt><trkpt lat="41.1590317" lon="-0.0333383"><ele>278.0</ele><time>2026-03-31T14:11:18.162Z</time></trkpt><trkpt lat="41.1590883" lon="-0.0332"><ele>278.0</ele><time>2026-03-31T14:11:19.161Z</time></trkpt><trkpt lat="41.1591483" lon="-0.0330483"><ele>278.0</ele><time>2026-03-31T14:11:20.161Z</time></trkpt><trkpt lat="41.1591967" lon="-0.0328983"><ele>279.25</ele><time>2026-03-31T14:11:21.161Z</time></trkpt><trkpt lat="41.1592317" lon="-0.0327483"><ele>280.5</ele><time>2026-03-31T14:11:22.162Z</time></trkpt><trkpt lat="41.159265" lon="-0.0325867"><ele>281.75</ele><time>2026-03-31T14:11:23.161Z</time></trkpt><trkpt lat="41.1592867" lon="-0.032415"><ele>283.0</ele><time>2026-03-31T14:11:24.161Z</time></trkpt><trkpt lat="41.1592967" lon="-0.032245"><ele>283.0</ele><time>2026-03-31T14:11:25.161Z</time></trkpt><trkpt lat="41.1593067" lon="-0.0320833"><ele>283.0</ele><time>2026-03-31T14:11:26.161Z</time></trkpt><trkpt lat="41.1593133" lon="-0.0319083"><ele>283.0</ele><time>2026-03-31T14:11:27.162Z</time></trkpt><trkpt lat="41.1593183" lon="-0.031735"><ele>283.0</ele><time>2026-03-31T14:11:28.162Z</time></trkpt><trkpt lat="41.1593067" lon="-0.0315583"><ele>283.75</ele><time>2026-03-31T14:11:29.162Z</time></trkpt><trkpt lat="41.1592917" lon="-0.031385"><ele>284.5</ele><time>2026-03-31T14:11:30.161Z</time></trkpt><trkpt lat="41.1592717" lon="-0.0312083"><ele>285.25</ele><time>2026-03-31T14:11:31.162Z</time></trkpt><trkpt lat="41.159245" lon="-0.031025"><ele>286.0</ele><time>2026-03-31T14:11:32.162Z</time></trkpt><trkpt lat="41.15921" lon="-0.0308517"><ele>286.75</ele><time>2026-03-31T14:11:33.162Z</time></trkpt><trkpt lat="41.1591783" lon="-0.030675"><ele>287.5</ele><time>2026-03-31T14:11:34.161Z</time></trkpt><trkpt lat="41.159155" lon="-0.0304967"><ele>288.25</ele><time>2026-03-31T14:11:35.162Z</time></trkpt><trkpt lat="41.1591233" lon="-0.030325"><ele>289.0</ele><time>2026-03-31T14:11:36.161Z</time></trkpt><trkpt lat="41.159095" lon="-0.0301467"><ele>289.75</ele><time>2026-03-31T14:11:37.162Z</time></trkpt><trkpt lat="41.1590683" lon="-0.0299717"><ele>290.5</ele><time>2026-03-31T14:11:38.162Z</time></trkpt><trkpt lat="41.1590317" lon="-0.0297883"><ele>291.25</ele><time>2026-03-31T14:11:39.161Z</time></trkpt><trkpt lat="41.1589983" lon="-0.0296117"><ele>292.0</ele><time>2026-03-31T14:11:40.162Z</time></trkpt><trkpt lat="41.1589617" lon="-0.0294367"><ele>290.5</ele><time>2026-03-31T14:11:41.162Z</time></trkpt><trkpt lat="41.1589167" lon="-0.029275"><ele>289.0</ele><time>2026-03-31T14:11:42.162Z</time></trkpt><trkpt lat="41.1588683" lon="-0.029115"><ele>287.5</ele><time>2026-03-31T14:11:43.162Z</time></trkpt><trkpt lat="41.1588217" lon="-0.0289533"><ele>286.0</ele><time>2026-03-31T14:11:44.161Z</time></trkpt><trkpt lat="41.158775" lon="-0.0287917"><ele>286.0</ele><time>2026-03-31T14:11:45.161Z</time></trkpt><trkpt lat="41.1587233" lon="-0.0286233"><ele>286.0</ele><time>2026-03-31T14:11:46.161Z</time></trkpt><trkpt lat="41.1586733" lon="-0.02846"><ele>286.0</ele><time>2026-03-31T14:11:47.161Z</time></trkpt><trkpt lat="41.1586217" lon="-0.0283017"><ele>286.0</ele><time>2026-03-31T14:11:48.161Z</time></trkpt><trkpt lat="41.158575" lon="-0.02815"><ele>287.25</ele><time>2026-03-31T14:11:49.162Z</time></trkpt><trkpt lat="41.1585167" lon="-0.028"><ele>288.5</ele><time>2026-03-31T14:11:50.162Z</time></trkpt><trkpt lat="41.1584567" lon="-0.0278683"><ele>289.75</ele><time>2026-03-31T14:11:51.162Z</time></trkpt><trkpt lat="41.1583833" lon="-0.0277467"><ele>291.0</ele><time>2026-03-31T14:11:52.162Z</time></trkpt><trkpt lat="41.15831" lon="-0.0276367"><ele>291.0</ele><time>2026-03-31T14:11:53.161Z</time></trkpt><trkpt lat="41.1582267" lon="-0.0275367"><ele>291.0</ele><time>2026-03-31T14:11:54.162Z</time></trkpt><trkpt lat="41.1581383" lon="-0.0274383"><ele>291.0</ele><time>2026-03-31T14:11:55.161Z</time></trkpt><trkpt lat="41.1580467" lon="-0.0273433"><ele>291.0</ele><time>2026-03-31T14:11:56.162Z</time></trkpt><trkpt lat="41.157945" lon="-0.0272467"><ele>290.25</ele><time>2026-03-31T14:11:57.162Z</time></trkpt><trkpt lat="41.1578467" lon="-0.0271567"><ele>289.5</ele><time>2026-03-31T14:11:58.162Z</time></trkpt><trkpt lat="41.1577617" lon="-0.0270683"><ele>288.75</ele><time>2026-03-31T14:11:59.162Z</time></trkpt><trkpt lat="41.15766" lon="-0.026975"><ele>288.0</ele><time>2026-03-31T14:12:00.161Z</time></trkpt><trkpt lat="41.1575583" lon="-0.026875"><ele>288.0</ele><time>2026-03-31T14:12:01.161Z</time></trkpt><trkpt lat="41.15746" lon="-0.0267767"><ele>288.0</ele><time>2026-03-31T14:12:02.161Z</time></trkpt><trkpt lat="41.1573733" lon="-0.026675"><ele>288.0</ele><time>2026-03-31T14:12:03.162Z</time></trkpt><trkpt lat="41.1572883" lon="-0.0265767"><ele>288.0</ele><time>2026-03-31T14:12:04.161Z</time></trkpt><trkpt lat="41.1572083" lon="-0.026475"><ele>286.5</ele><time>2026-03-31T14:12:05.161Z</time></trkpt><trkpt lat="41.1571317" lon="-0.0263617"><ele>285.0</ele><time>2026-03-31T14:12:06.162Z</time></trkpt><trkpt lat="41.1570583" lon="-0.026245"><ele>283.5</ele><time>2026-03-31T14:12:07.161Z</time></trkpt><trkpt lat="41.1569883" lon="-0.0261183"><ele>282.0</ele><time>2026-03-31T14:12:08.161Z</time></trkpt><trkpt lat="41.156925" lon="-0.0259867"><ele>282.0</ele><time>2026-03-31T14:12:09.161Z</time></trkpt><trkpt lat="41.1568617" lon="-0.0258483"><ele>282.0</ele><time>2026-03-31T14:12:10.161Z</time></trkpt><trkpt lat="41.156805" lon="-0.0257017"><ele>282.0</ele><time>2026-03-31T14:12:11.161Z</time></trkpt><trkpt lat="41.1567533" lon="-0.02555"><ele>282.0</ele><time>2026-03-31T14:12:12.161Z</time></trkpt><trkpt lat="41.1567067" lon="-0.0254"><ele>281.25</ele><time>2026-03-31T14:12:13.161Z</time></trkpt><trkpt lat="41.156665" lon="-0.0252417"><ele>280.5</ele><time>2026-03-31T14:12:14.162Z</time></trkpt><trkpt lat="41.1566167" lon="-0.02508"><ele>279.75</ele><time>2026-03-31T14:12:15.161Z</time></trkpt><trkpt lat="41.1565583" lon="-0.0249167"><ele>279.0</ele><time>2026-03-31T14:12:16.161Z</time></trkpt><trkpt lat="41.1565117" lon="-0.02476"><ele>279.0</ele><time>2026-03-31T14:12:17.161Z</time></trkpt><trkpt lat="41.1564667" lon="-0.0246"><ele>279.0</ele><time>2026-03-31T14:12:18.161Z</time></trkpt><trkpt lat="41.1564217" lon="-0.0244317"><ele>279.0</ele><time>2026-03-31T14:12:19.162Z</time></trkpt><trkpt lat="41.1563683" lon="-0.0242667"><ele>279.0</ele><time>2026-03-31T14:12:20.162Z</time></trkpt><trkpt lat="41.1563067" lon="-0.0240983"><ele>280.0</ele><time>2026-03-31T14:12:21.162Z</time></trkpt><trkpt lat="41.156255" lon="-0.0239333"><ele>281.0</ele><time>2026-03-31T14:12:22.162Z</time></trkpt><trkpt lat="41.15621" lon="-0.023775"><ele>282.0</ele><time>2026-03-31T14:12:23.161Z</time></trkpt><trkpt lat="41.1561633" lon="-0.0236217"><ele>283.0</ele><time>2026-03-31T14:12:24.161Z</time></trkpt><trkpt lat="41.15612" lon="-0.02347"><ele>283.0</ele><time>2026-03-31T14:12:25.162Z</time></trkpt><trkpt lat="41.1560783" lon="-0.0233217"><ele>283.0</ele><time>2026-03-31T14:12:26.162Z</time></trkpt><trkpt lat="41.1560383" lon="-0.02317"><ele>283.0</ele><time>2026-03-31T14:12:27.162Z</time></trkpt><trkpt lat="41.155995" lon="-0.023025"><ele>283.0</ele><time>2026-03-31T14:12:28.162Z</time></trkpt><trkpt lat="41.1559517" lon="-0.022875"><ele>283.5</ele><time>2026-03-31T14:12:29.161Z</time></trkpt><trkpt lat="41.155915" lon="-0.0227233"><ele>284.0</ele><time>2026-03-31T14:12:30.161Z</time></trkpt><trkpt lat="41.1558783" lon="-0.02257"><ele>284.5</ele><time>2026-03-31T14:12:31.162Z</time></trkpt><trkpt lat="41.1558567" lon="-0.022405"><ele>285.0</ele><time>2026-03-31T14:12:32.161Z</time></trkpt><trkpt lat="41.15584" lon="-0.022235"><ele>283.5</ele><time>2026-03-31T14:12:33.162Z</time></trkpt><trkpt lat="41.1558333" lon="-0.02207"><ele>282.0</ele><time>2026-03-31T14:12:34.161Z</time></trkpt><trkpt lat="41.1558383" lon="-0.0219117"><ele>280.5</ele><time>2026-03-31T14:12:35.161Z</time></trkpt><trkpt lat="41.1558367" lon="-0.021765"><ele>279.0</ele><time>2026-03-31T14:12:36.161Z</time></trkpt><trkpt lat="41.1558517" lon="-0.021625"><ele>277.59999999999997</ele><time>2026-03-31T14:12:37.161Z</time></trkpt><trkpt lat="41.155875" lon="-0.0214983"><ele>276.2</ele><time>2026-03-31T14:12:38.161Z</time></trkpt><trkpt lat="41.1559033" lon="-0.0213683"><ele>274.79999999999995</ele><time>2026-03-31T14:12:39.161Z</time></trkpt><trkpt lat="41.1559483" lon="-0.021235"><ele>273.4</ele><time>2026-03-31T14:12:40.162Z</time></trkpt><trkpt lat="41.1560067" lon="-0.0211033"><ele>272.0</ele><time>2026-03-31T14:12:41.162Z</time></trkpt><trkpt lat="41.1560767" lon="-0.02097"><ele>272.0</ele><time>2026-03-31T14:12:42.162Z</time></trkpt><trkpt lat="41.15616" lon="-0.0208467"><ele>272.0</ele><time>2026-03-31T14:12:43.162Z</time></trkpt><trkpt lat="41.156255" lon="-0.0207367"><ele>272.0</ele><time>2026-03-31T14:12:44.161Z</time></trkpt><trkpt lat="41.1563567" lon="-0.0206383"><ele>272.0</ele><time>2026-03-31T14:12:45.161Z</time></trkpt><trkpt lat="41.15646" lon="-0.0205467"><ele>270.5</ele><time>2026-03-31T14:12:46.161Z</time></trkpt><trkpt lat="41.15657" lon="-0.0204633"><ele>269.0</ele><time>2026-03-31T14:12:47.162Z</time></trkpt><trkpt lat="41.156685" lon="-0.0203717"><ele>267.5</ele><time>2026-03-31T14:12:48.161Z</time></trkpt><trkpt lat="41.1567917" lon="-0.020285"><ele>266.0</ele><time>2026-03-31T14:12:49.161Z</time></trkpt><trkpt lat="41.1569017" lon="-0.0201883"><ele>266.0</ele><time>2026-03-31T14:12:50.161Z</time></trkpt><trkpt lat="41.1570133" lon="-0.0200967"><ele>266.0</ele><time>2026-03-31T14:12:51.161Z</time></trkpt><trkpt lat="41.15712" lon="-0.020005"><ele>266.0</ele><time>2026-03-31T14:12:52.162Z</time></trkpt><trkpt lat="41.1572333" lon="-0.019925"><ele>266.0</ele><time>2026-03-31T14:12:53.161Z</time></trkpt><trkpt lat="41.157335" lon="-0.0198333"><ele>264.5</ele><time>2026-03-31T14:12:54.161Z</time></trkpt><trkpt lat="41.157435" lon="-0.01975"><ele>263.0</ele><time>2026-03-31T14:12:55.161Z</time></trkpt><trkpt lat="41.157535" lon="-0.0196617"><ele>261.5</ele><time>2026-03-31T14:12:56.162Z</time></trkpt><trkpt lat="41.157635" lon="-0.0195717"><ele>260.0</ele><time>2026-03-31T14:12:57.162Z</time></trkpt><trkpt lat="41.1577283" lon="-0.0194833"><ele>260.0</ele><time>2026-03-31T14:12:58.162Z</time></trkpt><trkpt lat="41.1578167" lon="-0.0193783"><ele>260.0</ele><time>2026-03-31T14:12:59.162Z</time></trkpt><trkpt lat="41.1579" lon="-0.0192633"><ele>260.0</ele><time>2026-03-31T14:13:00.162Z</time></trkpt><trkpt lat="41.15798" lon="-0.01914"><ele>260.0</ele><time>2026-03-31T14:13:01.162Z</time></trkpt><trkpt lat="41.1580483" lon="-0.01901"><ele>259.5</ele><time>2026-03-31T14:13:02.161Z</time></trkpt><trkpt lat="41.1581133" lon="-0.0188667"><ele>259.0</ele><time>2026-03-31T14:13:03.161Z</time></trkpt><trkpt lat="41.1581733" lon="-0.0187133"><ele>258.5</ele><time>2026-03-31T14:13:04.161Z</time></trkpt><trkpt lat="41.1582267" lon="-0.0185667"><ele>258.0</ele><time>2026-03-31T14:13:05.161Z</time></trkpt><trkpt lat="41.1582733" lon="-0.0184117"><ele>256.25</ele><time>2026-03-31T14:13:06.161Z</time></trkpt><trkpt lat="41.1583117" lon="-0.0182533"><ele>254.5</ele><time>2026-03-31T14:13:07.161Z</time></trkpt><trkpt lat="41.1583433" lon="-0.018095"><ele>252.75</ele><time>2026-03-31T14:13:08.161Z</time></trkpt><trkpt lat="41.1583617" lon="-0.01793"><ele>251.0</ele><time>2026-03-31T14:13:09.161Z</time></trkpt><trkpt lat="41.1583767" lon="-0.0177617"><ele>251.0</ele><time>2026-03-31T14:13:10.162Z</time></trkpt><trkpt lat="41.1583817" lon="-0.0175917"><ele>251.0</ele><time>2026-03-31T14:13:11.162Z</time></trkpt><trkpt lat="41.158375" lon="-0.0174233"><ele>251.0</ele><time>2026-03-31T14:13:12.161Z</time></trkpt><trkpt lat="41.1583667" lon="-0.0172417"><ele>251.0</ele><time>2026-03-31T14:13:13.162Z</time></trkpt><trkpt lat="41.1583467" lon="-0.0170567"><ele>250.0</ele><time>2026-03-31T14:13:14.161Z</time></trkpt><trkpt lat="41.1583167" lon="-0.0168783"><ele>249.0</ele><time>2026-03-31T14:13:15.162Z</time></trkpt><trkpt lat="41.15828" lon="-0.0167083"><ele>248.0</ele><time>2026-03-31T14:13:16.161Z</time></trkpt><trkpt lat="41.1582317" lon="-0.0165533"><ele>247.0</ele><time>2026-03-31T14:13:17.161Z</time></trkpt><trkpt lat="41.1581783" lon="-0.0164067"><ele>246.0</ele><time>2026-03-31T14:13:18.162Z</time></trkpt><trkpt lat="41.1581217" lon="-0.0162667"><ele>245.0</ele><time>2026-03-31T14:13:19.162Z</time></trkpt><trkpt lat="41.1580433" lon="-0.0161267"><ele>244.0</ele><time>2026-03-31T14:13:20.161Z</time></trkpt><trkpt lat="41.1579567" lon="-0.0159867"><ele>243.0</ele><time>2026-03-31T14:13:21.161Z</time></trkpt><trkpt lat="41.1578567" lon="-0.01586"><ele>242.5</ele><time>2026-03-31T14:13:22.162Z</time></trkpt><trkpt lat="41.1577533" lon="-0.0157517"><ele>242.0</ele><time>2026-03-31T14:13:23.161Z</time></trkpt><trkpt lat="41.15765" lon="-0.015665"><ele>241.5</ele><time>2026-03-31T14:13:24.161Z</time></trkpt><trkpt lat="41.1575383" lon="-0.0155767"><ele>241.0</ele><time>2026-03-31T14:13:25.161Z</time></trkpt><trkpt lat="41.1574267" lon="-0.0154983"><ele>240.75</ele><time>2026-03-31T14:13:26.161Z</time></trkpt><trkpt lat="41.1573067" lon="-0.01542"><ele>240.5</ele><time>2026-03-31T14:13:27.161Z</time></trkpt><trkpt lat="41.1571883" lon="-0.015345"><ele>240.25</ele><time>2026-03-31T14:13:28.162Z</time></trkpt><trkpt lat="41.1570733" lon="-0.01527"><ele>240.0</ele><time>2026-03-31T14:13:29.161Z</time></trkpt><trkpt lat="41.156955" lon="-0.0151917"><ele>240.0</ele><time>2026-03-31T14:13:30.161Z</time></trkpt><trkpt lat="41.1568383" lon="-0.0151133"><ele>240.0</ele><time>2026-03-31T14:13:31.161Z</time></trkpt><trkpt lat="41.1567217" lon="-0.01504"><ele>240.0</ele><time>2026-03-31T14:13:32.161Z</time></trkpt><trkpt lat="41.1566017" lon="-0.0149683"><ele>240.0</ele><time>2026-03-31T14:13:33.162Z</time></trkpt><trkpt lat="41.1564867" lon="-0.0148917"><ele>239.75</ele><time>2026-03-31T14:13:34.161Z</time></trkpt><trkpt lat="41.15637" lon="-0.014815"><ele>239.5</ele><time>2026-03-31T14:13:35.162Z</time></trkpt><trkpt lat="41.1562567" lon="-0.014745"><ele>239.25</ele><time>2026-03-31T14:13:36.161Z</time></trkpt><trkpt lat="41.156145" lon="-0.0146683"><ele>239.0</ele><time>2026-03-31T14:13:37.161Z</time></trkpt><trkpt lat="41.1560217" lon="-0.0145917"><ele>239.0</ele><time>2026-03-31T14:13:38.161Z</time></trkpt><trkpt lat="41.1559033" lon="-0.0145167"><ele>239.0</ele><time>2026-03-31T14:13:39.161Z</time></trkpt><trkpt lat="41.1557883" lon="-0.0144467"><ele>239.0</ele><time>2026-03-31T14:13:40.161Z</time></trkpt><trkpt lat="41.1556767" lon="-0.0143717"><ele>239.0</ele><time>2026-03-31T14:13:41.161Z</time></trkpt><trkpt lat="41.1555633" lon="-0.0142983"><ele>239.0</ele><time>2026-03-31T14:13:42.161Z</time></trkpt><trkpt lat="41.1554517" lon="-0.01423"><ele>239.0</ele><time>2026-03-31T14:13:43.161Z</time></trkpt><trkpt lat="41.1553433" lon="-0.0141517"><ele>239.0</ele><time>2026-03-31T14:13:44.162Z</time></trkpt><trkpt lat="41.15523" lon="-0.014065"><ele>239.0</ele><time>2026-03-31T14:13:45.161Z</time></trkpt><trkpt lat="41.1551217" lon="-0.0139717"><ele>238.75</ele><time>2026-03-31T14:13:46.162Z</time></trkpt><trkpt lat="41.1550167" lon="-0.013875"><ele>238.5</ele><time>2026-03-31T14:13:47.162Z</time></trkpt><trkpt lat="41.1549167" lon="-0.01377"><ele>238.25</ele><time>2026-03-31T14:13:48.162Z</time></trkpt><trkpt lat="41.1548167" lon="-0.0136567"><ele>238.0</ele><time>2026-03-31T14:13:49.161Z</time></trkpt><trkpt lat="41.154715" lon="-0.0135467"><ele>238.0</ele><time>2026-03-31T14:13:50.161Z</time></trkpt><trkpt lat="41.1546133" lon="-0.0134233"><ele>238.0</ele><time>2026-03-31T14:13:51.162Z</time></trkpt><trkpt lat="41.1545067" lon="-0.0133083"><ele>238.0</ele><time>2026-03-31T14:13:52.161Z</time></trkpt><trkpt lat="41.1543967" lon="-0.0131917"><ele>238.0</ele><time>2026-03-31T14:13:53.161Z</time></trkpt><trkpt lat="41.1542917" lon="-0.0130717"><ele>237.5</ele><time>2026-03-31T14:13:54.161Z</time></trkpt><trkpt lat="41.1541833" lon="-0.0129517"><ele>237.0</ele><time>2026-03-31T14:13:55.161Z</time></trkpt><trkpt lat="41.1540767" lon="-0.0128333"><ele>236.5</ele><time>2026-03-31T14:13:56.162Z</time></trkpt><trkpt lat="41.1539633" lon="-0.01271"><ele>236.0</ele><time>2026-03-31T14:13:57.162Z</time></trkpt><trkpt lat="41.1538567" lon="-0.0125883"><ele>235.33333333333334</ele><time>2026-03-31T14:13:58.161Z</time></trkpt><trkpt lat="41.1537367" lon="-0.0124583"><ele>234.66666666666669</ele><time>2026-03-31T14:13:59.161Z</time></trkpt><trkpt lat="41.1536183" lon="-0.0123367"><ele>234.0</ele><time>2026-03-31T14:14:00.161Z</time></trkpt><trkpt lat="41.1535017" lon="-0.0122033"><ele>234.0</ele><time>2026-03-31T14:14:01.161Z</time></trkpt><trkpt lat="41.15339" lon="-0.0120767"><ele>234.0</ele><time>2026-03-31T14:14:02.161Z</time></trkpt><trkpt lat="41.1532717" lon="-0.0119433"><ele>234.0</ele><time>2026-03-31T14:14:03.161Z</time></trkpt><trkpt lat="41.1531483" lon="-0.0118067"><ele>234.33333333333331</ele><time>2026-03-31T14:14:04.161Z</time></trkpt><trkpt lat="41.153025" lon="-0.01167"><ele>234.66666666666666</ele><time>2026-03-31T14:14:05.162Z</time></trkpt><trkpt lat="41.1529017" lon="-0.011535"><ele>235.0</ele><time>2026-03-31T14:14:06.161Z</time></trkpt><trkpt lat="41.15278" lon="-0.0113983"><ele>235.0</ele><time>2026-03-31T14:14:07.161Z</time></trkpt><trkpt lat="41.1526483" lon="-0.0112633"><ele>235.0</ele><time>2026-03-31T14:14:08.161Z</time></trkpt><trkpt lat="41.1525233" lon="-0.0111217"><ele>235.0</ele><time>2026-03-31T14:14:09.162Z</time></trkpt><trkpt lat="41.1523933" lon="-0.0109817"><ele>235.66666666666666</ele><time>2026-03-31T14:14:10.162Z</time></trkpt><trkpt lat="41.1522667" lon="-0.0108467"><ele>236.33333333333331</ele><time>2026-03-31T14:14:11.161Z</time></trkpt><trkpt lat="41.1521467" lon="-0.0107083"><ele>237.0</ele><time>2026-03-31T14:14:12.161Z</time></trkpt><trkpt lat="41.1520217" lon="-0.0105733"><ele>237.33333333333331</ele><time>2026-03-31T14:14:13.162Z</time></trkpt><trkpt lat="41.151895" lon="-0.0104433"><ele>237.66666666666666</ele><time>2026-03-31T14:14:14.161Z</time></trkpt><trkpt lat="41.15178" lon="-0.01031"><ele>238.0</ele><time>2026-03-31T14:14:15.162Z</time></trkpt><trkpt lat="41.1516533" lon="-0.0101733"><ele>238.0</ele><time>2026-03-31T14:14:16.162Z</time></trkpt><trkpt lat="41.1515283" lon="-0.0100367"><ele>238.0</ele><time>2026-03-31T14:14:17.162Z</time></trkpt><trkpt lat="41.1514017" lon="-0.009895"><ele>238.0</ele><time>2026-03-31T14:14:18.161Z</time></trkpt><trkpt lat="41.1512683" lon="-0.0097517"><ele>239.0</ele><time>2026-03-31T14:14:19.161Z</time></trkpt><trkpt lat="41.15114" lon="-0.0096117"><ele>240.0</ele><time>2026-03-31T14:14:20.161Z</time></trkpt><trkpt lat="41.1510133" lon="-0.0094733"><ele>241.0</ele><time>2026-03-31T14:14:21.161Z</time></trkpt><trkpt lat="41.1508883" lon="-0.0093367"><ele>241.0</ele><time>2026-03-31T14:14:22.161Z</time></trkpt><trkpt lat="41.150765" lon="-0.0092"><ele>241.0</ele><time>2026-03-31T14:14:23.161Z</time></trkpt><trkpt lat="41.1506517" lon="-0.00907"><ele>241.0</ele><time>2026-03-31T14:14:24.162Z</time></trkpt><trkpt lat="41.150535" lon="-0.00895"><ele>242.0</ele><time>2026-03-31T14:14:25.161Z</time></trkpt><trkpt lat="41.1504183" lon="-0.00882"><ele>243.0</ele><time>2026-03-31T14:14:26.162Z</time></trkpt><trkpt lat="41.1503" lon="-0.0086917"><ele>244.0</ele><time>2026-03-31T14:14:27.162Z</time></trkpt><trkpt lat="41.15018" lon="-0.008555"><ele>244.0</ele><time>2026-03-31T14:14:28.162Z</time></trkpt><trkpt lat="41.1500667" lon="-0.0084183"><ele>244.0</ele><time>2026-03-31T14:14:29.161Z</time></trkpt><trkpt lat="41.1499433" lon="-0.008285"><ele>244.0</ele><time>2026-03-31T14:14:30.162Z</time></trkpt><trkpt lat="41.1498183" lon="-0.0081467"><ele>243.0</ele><time>2026-03-31T14:14:31.161Z</time></trkpt><trkpt lat="41.14969" lon="-0.0080117"><ele>242.0</ele><time>2026-03-31T14:14:32.161Z</time></trkpt><trkpt lat="41.149565" lon="-0.00788"><ele>241.0</ele><time>2026-03-31T14:14:33.161Z</time></trkpt><trkpt lat="41.14944" lon="-0.0077467"><ele>241.0</ele><time>2026-03-31T14:14:34.161Z</time></trkpt><trkpt lat="41.1493183" lon="-0.00761"><ele>241.0</ele><time>2026-03-31T14:14:35.161Z</time></trkpt><trkpt lat="41.1491967" lon="-0.007475"><ele>241.0</ele><time>2026-03-31T14:14:36.161Z</time></trkpt><trkpt lat="41.14907" lon="-0.0073433"><ele>241.0</ele><time>2026-03-31T14:14:37.16Z</time></trkpt><trkpt lat="41.1489417" lon="-0.0072117"><ele>241.0</ele><time>2026-03-31T14:14:38.16Z</time></trkpt><trkpt lat="41.1488083" lon="-0.0070733"><ele>241.0</ele><time>2026-03-31T14:14:39.16Z</time></trkpt><trkpt lat="41.1486717" lon="-0.0069433"><ele>241.0</ele><time>2026-03-31T14:14:40.16Z</time></trkpt><trkpt lat="41.1485433" lon="-0.0068017"><ele>241.0</ele><time>2026-03-31T14:14:41.16Z</time></trkpt><trkpt lat="41.1484133" lon="-0.0066567"><ele>241.0</ele><time>2026-03-31T14:14:42.16Z</time></trkpt><trkpt lat="41.1482917" lon="-0.0065133"><ele>241.33333333333331</ele><time>2026-03-31T14:14:43.16Z</time></trkpt><trkpt lat="41.1481733" lon="-0.0063683"><ele>241.66666666666669</ele><time>2026-03-31T14:14:44.16Z</time></trkpt><trkpt lat="41.1480583" lon="-0.006235"><ele>242.0</ele><time>2026-03-31T14:14:45.161Z</time></trkpt><trkpt lat="41.1479417" lon="-0.0061033"><ele>242.0</ele><time>2026-03-31T14:14:46.161Z</time></trkpt><trkpt lat="41.1478283" lon="-0.0059733"><ele>242.0</ele><time>2026-03-31T14:14:47.16Z</time></trkpt><trkpt lat="41.147705" lon="-0.0058317"><ele>242.0</ele><time>2026-03-31T14:14:48.16Z</time></trkpt><trkpt lat="41.14758" lon="-0.0057067"><ele>242.0</ele><time>2026-03-31T14:14:49.161Z</time></trkpt><trkpt lat="41.1474567" lon="-0.0055817"><ele>242.0</ele><time>2026-03-31T14:14:50.161Z</time></trkpt><trkpt lat="41.1473317" lon="-0.00546"><ele>242.0</ele><time>2026-03-31T14:14:51.16Z</time></trkpt><trkpt lat="41.1472217" lon="-0.00534"><ele>242.0</ele><time>2026-03-31T14:14:52.16Z</time></trkpt><trkpt lat="41.1471183" lon="-0.005235"><ele>242.0</ele><time>2026-03-31T14:14:53.161Z</time></trkpt><trkpt lat="41.147035" lon="-0.00513"><ele>242.0</ele><time>2026-03-31T14:14:54.16Z</time></trkpt><trkpt lat="41.1469733" lon="-0.0050417"><ele>242.0</ele><time>2026-03-31T14:14:55.161Z</time></trkpt><trkpt lat="41.14692" lon="-0.00497"><ele>242.0</ele><time>2026-03-31T14:14:56.16Z</time></trkpt><trkpt lat="41.1468733" lon="-0.0049083"><ele>241.8</ele><time>2026-03-31T14:14:57.161Z</time></trkpt><trkpt lat="41.14686" lon="-0.0047633"><ele>241.6</ele><time>2026-03-31T14:14:59.16Z</time></trkpt><trkpt lat="41.1468867" lon="-0.00467"><ele>241.40000000000003</ele><time>2026-03-31T14:15:00.16Z</time></trkpt><trkpt lat="41.1469017" lon="-0.004555"><ele>241.20000000000002</ele><time>2026-03-31T14:15:01.161Z</time></trkpt><trkpt lat="41.1468867" lon="-0.0044167"><ele>241.0</ele><time>2026-03-31T14:15:02.16Z</time></trkpt><trkpt lat="41.1468467" lon="-0.0042383"><ele>240.0</ele><time>2026-03-31T14:15:03.16Z</time></trkpt><trkpt lat="41.1468017" lon="-0.0040417"><ele>239.0</ele><time>2026-03-31T14:15:04.161Z</time></trkpt><trkpt lat="41.1467483" lon="-0.003825"><ele>238.0</ele><time>2026-03-31T14:15:05.161Z</time></trkpt><trkpt lat="41.1466933" lon="-0.003605"><ele>238.0</ele><time>2026-03-31T14:15:06.161Z</time></trkpt><trkpt lat="41.14664" lon="-0.0033783"><ele>238.0</ele><time>2026-03-31T14:15:07.16Z</time></trkpt><trkpt lat="41.1465983" lon="-0.0031617"><ele>238.0</ele><time>2026-03-31T14:15:08.16Z</time></trkpt><trkpt lat="41.1465767" lon="-0.002935"><ele>237.0</ele><time>2026-03-31T14:15:09.161Z</time></trkpt><trkpt lat="41.146575" lon="-0.0027183"><ele>236.0</ele><time>2026-03-31T14:15:10.16Z</time></trkpt><trkpt lat="41.1466083" lon="-0.002505"><ele>235.0</ele><time>2026-03-31T14:15:11.161Z</time></trkpt><trkpt lat="41.14668" lon="-0.0022983"><ele>233.66666666666666</ele><time>2026-03-31T14:15:12.161Z</time></trkpt><trkpt lat="41.14678" lon="-0.0021"><ele>232.33333333333331</ele><time>2026-03-31T14:15:13.16Z</time></trkpt><trkpt lat="41.1468967" lon="-0.0019183"><ele>231.0</ele><time>2026-03-31T14:15:14.16Z</time></trkpt><trkpt lat="41.1470267" lon="-0.0017367"><ele>232.0</ele><time>2026-03-31T14:15:15.16Z</time></trkpt><trkpt lat="41.1471517" lon="-0.0015717"><ele>233.0</ele><time>2026-03-31T14:15:16.16Z</time></trkpt><trkpt lat="41.147285" lon="-0.00141"><ele>234.0</ele><time>2026-03-31T14:15:17.161Z</time></trkpt><trkpt lat="41.14741" lon="-0.0012667"><ele>230.66666666666669</ele><time>2026-03-31T14:15:18.161Z</time></trkpt><trkpt lat="41.14754" lon="-0.0011217"><ele>227.33333333333334</ele><time>2026-03-31T14:15:19.161Z</time></trkpt><trkpt lat="41.1476417" lon="-9.617E-4"><ele>224.0</ele><time>2026-03-31T14:15:20.16Z</time></trkpt><trkpt lat="41.1477117" lon="-7.717E-4"><ele>222.75</ele><time>2026-03-31T14:15:21.16Z</time></trkpt><trkpt lat="41.1477433" lon="-5.767E-4"><ele>221.5</ele><time>2026-03-31T14:15:22.161Z</time></trkpt><trkpt lat="41.147765" lon="-3.8E-4"><ele>220.25</ele><time>2026-03-31T14:15:23.16Z</time></trkpt><trkpt lat="41.1477817" lon="-2.05E-4"><ele>219.0</ele><time>2026-03-31T14:15:24.16Z</time></trkpt><trkpt lat="41.1477983" lon="-4.0E-5"><ele>219.0</ele><time>2026-03-31T14:15:25.161Z</time></trkpt><trkpt lat="41.1478183" lon="1.317E-4"><ele>219.0</ele><time>2026-03-31T14:15:26.161Z</time></trkpt><trkpt lat="41.14784" lon="3.0E-4"><ele>219.0</ele><time>2026-03-31T14:15:27.161Z</time></trkpt><trkpt lat="41.1478733" lon="4.767E-4"><ele>219.0</ele><time>2026-03-31T14:15:28.161Z</time></trkpt><trkpt lat="41.1479233" lon="6.6E-4"><ele>217.66666666666669</ele><time>2026-03-31T14:15:29.16Z</time></trkpt><trkpt lat="41.1479917" lon="8.45E-4"><ele>216.33333333333334</ele><time>2026-03-31T14:15:30.16Z</time></trkpt><trkpt lat="41.14808" lon="0.0010117"><ele>215.0</ele><time>2026-03-31T14:15:31.16Z</time></trkpt><trkpt lat="41.1481783" lon="0.0011667"><ele>213.75</ele><time>2026-03-31T14:15:32.16Z</time></trkpt><trkpt lat="41.148275" lon="0.0013283"><ele>212.5</ele><time>2026-03-31T14:15:33.161Z</time></trkpt><trkpt lat="41.14835" lon="0.0015"><ele>211.25</ele><time>2026-03-31T14:15:34.161Z</time></trkpt><trkpt lat="41.1484033" lon="0.0016767"><ele>210.0</ele><time>2026-03-31T14:15:35.16Z</time></trkpt><trkpt lat="41.1484417" lon="0.0018683"><ele>210.0</ele><time>2026-03-31T14:15:36.16Z</time></trkpt><trkpt lat="41.1484817" lon="0.0020783"><ele>210.0</ele><time>2026-03-31T14:15:37.161Z</time></trkpt><trkpt lat="41.1485233" lon="0.00229"><ele>210.0</ele><time>2026-03-31T14:15:38.161Z</time></trkpt><trkpt lat="41.1485583" lon="0.0024983"><ele>209.66666666666669</ele><time>2026-03-31T14:15:39.161Z</time></trkpt><trkpt lat="41.1486133" lon="0.0027083"><ele>209.33333333333334</ele><time>2026-03-31T14:15:40.16Z</time></trkpt><trkpt lat="41.1486867" lon="0.0029133"><ele>209.0</ele><time>2026-03-31T14:15:41.16Z</time></trkpt><trkpt lat="41.1487517" lon="0.0031117"><ele>209.0</ele><time>2026-03-31T14:15:42.16Z</time></trkpt><trkpt lat="41.1488233" lon="0.0032967"><ele>209.0</ele><time>2026-03-31T14:15:43.16Z</time></trkpt><trkpt lat="41.1488933" lon="0.003475"><ele>209.0</ele><time>2026-03-31T14:15:44.161Z</time></trkpt><trkpt lat="41.14897" lon="0.003655"><ele>207.66666666666669</ele><time>2026-03-31T14:15:45.16Z</time></trkpt><trkpt lat="41.1490567" lon="0.0038233"><ele>206.33333333333331</ele><time>2026-03-31T14:15:46.161Z</time></trkpt><trkpt lat="41.1491467" lon="0.00399"><ele>205.0</ele><time>2026-03-31T14:15:47.161Z</time></trkpt><trkpt lat="41.1492467" lon="0.0041483"><ele>203.66666666666666</ele><time>2026-03-31T14:15:48.161Z</time></trkpt><trkpt lat="41.1493567" lon="0.0043033"><ele>202.33333333333331</ele><time>2026-03-31T14:15:49.161Z</time></trkpt><trkpt lat="41.149465" lon="0.0044633"><ele>201.0</ele><time>2026-03-31T14:15:50.16Z</time></trkpt><trkpt lat="41.1495767" lon="0.00463"><ele>201.0</ele><time>2026-03-31T14:15:51.16Z</time></trkpt><trkpt lat="41.1496867" lon="0.0048133"><ele>201.0</ele><time>2026-03-31T14:15:52.161Z</time></trkpt><trkpt lat="41.1497883" lon="0.0049967"><ele>201.0</ele><time>2026-03-31T14:15:53.16Z</time></trkpt><trkpt lat="41.1498817" lon="0.0051917"><ele>200.66666666666669</ele><time>2026-03-31T14:15:54.16Z</time></trkpt><trkpt lat="41.1499517" lon="0.005395"><ele>200.33333333333334</ele><time>2026-03-31T14:15:55.161Z</time></trkpt><trkpt lat="41.1500183" lon="0.005595"><ele>200.0</ele><time>2026-03-31T14:15:56.16Z</time></trkpt><trkpt lat="41.1500883" lon="0.0057983"><ele>200.33333333333334</ele><time>2026-03-31T14:15:57.161Z</time></trkpt><trkpt lat="41.1501683" lon="0.006005"><ele>200.66666666666669</ele><time>2026-03-31T14:15:58.16Z</time></trkpt><trkpt lat="41.15026" lon="0.0062067"><ele>201.0</ele><time>2026-03-31T14:15:59.161Z</time></trkpt><trkpt lat="41.1503567" lon="0.0063983"><ele>201.0</ele><time>2026-03-31T14:16:00.161Z</time></trkpt><trkpt lat="41.1504617" lon="0.00655"><ele>201.0</ele><time>2026-03-31T14:16:01.16Z</time></trkpt><trkpt lat="41.1505867" lon="0.0066883"><ele>201.0</ele><time>2026-03-31T14:16:02.161Z</time></trkpt><trkpt lat="41.15072" lon="0.006815"><ele>203.0</ele><time>2026-03-31T14:16:03.161Z</time></trkpt><trkpt lat="41.1508617" lon="0.0069333"><ele>205.0</ele><time>2026-03-31T14:16:04.16Z</time></trkpt><trkpt lat="41.1510133" lon="0.0070383"><ele>207.0</ele><time>2026-03-31T14:16:05.16Z</time></trkpt><trkpt lat="41.1511717" lon="0.007125"><ele>207.0</ele><time>2026-03-31T14:16:06.161Z</time></trkpt><trkpt lat="41.1513417" lon="0.0072083"><ele>207.0</ele><time>2026-03-31T14:16:07.16Z</time></trkpt><trkpt lat="41.15152" lon="0.007295"><ele>207.0</ele><time>2026-03-31T14:16:08.16Z</time></trkpt><trkpt lat="41.1516867" lon="0.007365"><ele>205.66666666666669</ele><time>2026-03-31T14:16:09.16Z</time></trkpt><trkpt lat="41.1518517" lon="0.0074433"><ele>204.33333333333334</ele><time>2026-03-31T14:16:10.16Z</time></trkpt><trkpt lat="41.15202" lon="0.0075133"><ele>203.0</ele><time>2026-03-31T14:16:11.16Z</time></trkpt><trkpt lat="41.152185" lon="0.0075883"><ele>203.0</ele><time>2026-03-31T14:16:12.16Z</time></trkpt><trkpt lat="41.1523483" lon="0.00765"><ele>203.0</ele><time>2026-03-31T14:16:13.161Z</time></trkpt><trkpt lat="41.1525033" lon="0.00771"><ele>203.0</ele><time>2026-03-31T14:16:14.161Z</time></trkpt><trkpt lat="41.1526583" lon="0.0077317"><ele>203.33333333333334</ele><time>2026-03-31T14:16:15.161Z</time></trkpt><trkpt lat="41.1528117" lon="0.0077217"><ele>203.66666666666669</ele><time>2026-03-31T14:16:16.16Z</time></trkpt><trkpt lat="41.1529667" lon="0.007685"><ele>204.0</ele><time>2026-03-31T14:16:17.161Z</time></trkpt><trkpt lat="41.15312" lon="0.0076233"><ele>203.66666666666669</ele><time>2026-03-31T14:16:18.16Z</time></trkpt><trkpt lat="41.1532783" lon="0.0075517"><ele>203.33333333333334</ele><time>2026-03-31T14:16:19.161Z</time></trkpt><trkpt lat="41.1534433" lon="0.00748"><ele>203.0</ele><time>2026-03-31T14:16:20.16Z</time></trkpt><trkpt lat="41.153605" lon="0.0074117"><ele>203.0</ele><time>2026-03-31T14:16:21.161Z</time></trkpt><trkpt lat="41.15377" lon="0.0073733"><ele>203.0</ele><time>2026-03-31T14:16:22.16Z</time></trkpt><trkpt lat="41.1539467" lon="0.0073433"><ele>203.0</ele><time>2026-03-31T14:16:23.16Z</time></trkpt><trkpt lat="41.154125" lon="0.0073267"><ele>203.0</ele><time>2026-03-31T14:16:24.16Z</time></trkpt><trkpt lat="41.154305" lon="0.0073183"><ele>203.0</ele><time>2026-03-31T14:16:25.16Z</time></trkpt><trkpt lat="41.1544867" lon="0.00733"><ele>203.0</ele><time>2026-03-31T14:16:26.16Z</time></trkpt><trkpt lat="41.1546633" lon="0.007355"><ele>203.0</ele><time>2026-03-31T14:16:27.16Z</time></trkpt><trkpt lat="41.1548317" lon="0.0074067"><ele>203.0</ele><time>2026-03-31T14:16:28.16Z</time></trkpt><trkpt lat="41.1550033" lon="0.00749"><ele>203.0</ele><time>2026-03-31T14:16:29.16Z</time></trkpt><trkpt lat="41.155165" lon="0.0076017"><ele>201.66666666666669</ele><time>2026-03-31T14:16:30.16Z</time></trkpt><trkpt lat="41.1553333" lon="0.00771"><ele>200.33333333333331</ele><time>2026-03-31T14:16:31.16Z</time></trkpt><trkpt lat="41.1555033" lon="0.0078217"><ele>199.0</ele><time>2026-03-31T14:16:32.16Z</time></trkpt><trkpt lat="41.155665" lon="0.0079317"><ele>201.33333333333331</ele><time>2026-03-31T14:16:33.161Z</time></trkpt><trkpt lat="41.1558217" lon="0.0080367"><ele>203.66666666666669</ele><time>2026-03-31T14:16:34.161Z</time></trkpt><trkpt lat="41.1559767" lon="0.0081317"><ele>206.0</ele><time>2026-03-31T14:16:35.161Z</time></trkpt><trkpt lat="41.1561333" lon="0.0082417"><ele>206.33333333333334</ele><time>2026-03-31T14:16:36.161Z</time></trkpt><trkpt lat="41.15629" lon="0.0083467"><ele>206.66666666666669</ele><time>2026-03-31T14:16:37.16Z</time></trkpt><trkpt lat="41.1564467" lon="0.0084533"><ele>207.0</ele><time>2026-03-31T14:16:38.161Z</time></trkpt><trkpt lat="41.1566067" lon="0.0085633"><ele>207.0</ele><time>2026-03-31T14:16:39.161Z</time></trkpt><trkpt lat="41.1567567" lon="0.0086667"><ele>207.0</ele><time>2026-03-31T14:16:40.16Z</time></trkpt><trkpt lat="41.1569183" lon="0.0087767"><ele>207.0</ele><time>2026-03-31T14:16:41.16Z</time></trkpt><trkpt lat="41.1570833" lon="0.0088917"><ele>207.0</ele><time>2026-03-31T14:16:42.161Z</time></trkpt><trkpt lat="41.1572383" lon="0.008995"><ele>207.0</ele><time>2026-03-31T14:16:43.161Z</time></trkpt><trkpt lat="41.1573917" lon="0.0090983"><ele>207.0</ele><time>2026-03-31T14:16:44.16Z</time></trkpt><trkpt lat="41.1575467" lon="0.009205"><ele>207.0</ele><time>2026-03-31T14:16:45.16Z</time></trkpt><trkpt lat="41.1576933" lon="0.0093133"><ele>207.0</ele><time>2026-03-31T14:16:46.161Z</time></trkpt><trkpt lat="41.1578383" lon="0.009415"><ele>207.0</ele><time>2026-03-31T14:16:47.161Z</time></trkpt><trkpt lat="41.1579717" lon="0.0095067"><ele>207.0</ele><time>2026-03-31T14:16:48.161Z</time></trkpt><trkpt lat="41.1581017" lon="0.0096117"><ele>207.0</ele><time>2026-03-31T14:16:49.161Z</time></trkpt><trkpt lat="41.1582267" lon="0.0097167"><ele>207.0</ele><time>2026-03-31T14:16:50.16Z</time></trkpt><trkpt lat="41.15835" lon="0.009835"><ele>207.0</ele><time>2026-03-31T14:16:51.16Z</time></trkpt><trkpt lat="41.15846" lon="0.0099633"><ele>207.0</ele><time>2026-03-31T14:16:52.16Z</time></trkpt><trkpt lat="41.15855" lon="0.0101083"><ele>207.0</ele><time>2026-03-31T14:16:53.16Z</time></trkpt><trkpt lat="41.15861" lon="0.0102717"><ele>207.0</ele><time>2026-03-31T14:16:54.16Z</time></trkpt><trkpt lat="41.1586633" lon="0.01044"><ele>207.0</ele><time>2026-03-31T14:16:55.16Z</time></trkpt><trkpt lat="41.1587167" lon="0.0106067"><ele>207.0</ele><time>2026-03-31T14:16:56.161Z</time></trkpt><trkpt lat="41.15876" lon="0.0107717"><ele>207.0</ele><time>2026-03-31T14:16:57.16Z</time></trkpt><trkpt lat="41.1587917" lon="0.0109383"><ele>207.0</ele><time>2026-03-31T14:16:58.16Z</time></trkpt><trkpt lat="41.1588267" lon="0.0110983"><ele>205.5</ele><time>2026-03-31T14:16:59.161Z</time></trkpt><trkpt lat="41.1588683" lon="0.0112617"><ele>204.0</ele><time>2026-03-31T14:17:00.16Z</time></trkpt><trkpt lat="41.1589117" lon="0.0114233"><ele>202.5</ele><time>2026-03-31T14:17:01.16Z</time></trkpt><trkpt lat="41.158965" lon="0.0116"><ele>201.0</ele><time>2026-03-31T14:17:02.16Z</time></trkpt><trkpt lat="41.1590117" lon="0.0117717"><ele>199.66666666666669</ele><time>2026-03-31T14:17:03.16Z</time></trkpt><trkpt lat="41.1590617" lon="0.011955"><ele>198.33333333333334</ele><time>2026-03-31T14:17:04.16Z</time></trkpt><trkpt lat="41.1591133" lon="0.0121467"><ele>197.0</ele><time>2026-03-31T14:17:05.161Z</time></trkpt><trkpt lat="41.159165" lon="0.01235"><ele>196.33333333333334</ele><time>2026-03-31T14:17:06.161Z</time></trkpt><trkpt lat="41.1592233" lon="0.0125567"><ele>195.66666666666669</ele><time>2026-03-31T14:17:07.16Z</time></trkpt><trkpt lat="41.1592733" lon="0.012765"><ele>195.0</ele><time>2026-03-31T14:17:08.16Z</time></trkpt><trkpt lat="41.15933" lon="0.0129733"><ele>195.0</ele><time>2026-03-31T14:17:09.161Z</time></trkpt><trkpt lat="41.1594033" lon="0.0131783"><ele>195.0</ele><time>2026-03-31T14:17:10.16Z</time></trkpt><trkpt lat="41.159485" lon="0.0133867"><ele>195.0</ele><time>2026-03-31T14:17:11.161Z</time></trkpt><trkpt lat="41.159565" lon="0.013585"><ele>194.66666666666669</ele><time>2026-03-31T14:17:12.161Z</time></trkpt><trkpt lat="41.1596567" lon="0.0137783"><ele>194.33333333333334</ele><time>2026-03-31T14:17:13.161Z</time></trkpt><trkpt lat="41.1597683" lon="0.0139517"><ele>194.0</ele><time>2026-03-31T14:17:14.16Z</time></trkpt><trkpt lat="41.1598967" lon="0.0141033"><ele>197.0</ele><time>2026-03-31T14:17:15.16Z</time></trkpt><trkpt lat="41.160025" lon="0.0142283"><ele>200.0</ele><time>2026-03-31T14:17:16.161Z</time></trkpt><trkpt lat="41.160155" lon="0.0143133"><ele>203.0</ele><time>2026-03-31T14:17:17.16Z</time></trkpt><trkpt lat="41.16028" lon="0.0143517"><ele>206.0</ele><time>2026-03-31T14:17:18.161Z</time></trkpt><trkpt lat="41.1604067" lon="0.0143517"><ele>206.0</ele><time>2026-03-31T14:17:19.16Z</time></trkpt><trkpt lat="41.1605217" lon="0.0142983"><ele>206.0</ele><time>2026-03-31T14:17:20.161Z</time></trkpt><trkpt lat="41.1606367" lon="0.0142083"><ele>206.0</ele><time>2026-03-31T14:17:21.16Z</time></trkpt><trkpt lat="41.16075" lon="0.0140967"><ele>206.0</ele><time>2026-03-31T14:17:22.161Z</time></trkpt><trkpt lat="41.1608633" lon="0.0139767"><ele>208.0</ele><time>2026-03-31T14:17:23.16Z</time></trkpt><trkpt lat="41.1609917" lon="0.0138667"><ele>210.0</ele><time>2026-03-31T14:17:24.161Z</time></trkpt><trkpt lat="41.161135" lon="0.0137617"><ele>212.0</ele><time>2026-03-31T14:17:25.16Z</time></trkpt><trkpt lat="41.1612817" lon="0.013675"><ele>212.0</ele><time>2026-03-31T14:17:26.16Z</time></trkpt><trkpt lat="41.1614283" lon="0.0135967"><ele>212.0</ele><time>2026-03-31T14:17:27.16Z</time></trkpt><trkpt lat="41.1615817" lon="0.0135333"><ele>212.0</ele><time>2026-03-31T14:17:28.16Z</time></trkpt><trkpt lat="41.1617317" lon="0.0134833"><ele>211.33333333333334</ele><time>2026-03-31T14:17:29.16Z</time></trkpt><trkpt lat="41.1618867" lon="0.0134533"><ele>210.66666666666669</ele><time>2026-03-31T14:17:30.16Z</time></trkpt><trkpt lat="41.16205" lon="0.0134417"><ele>210.0</ele><time>2026-03-31T14:17:31.16Z</time></trkpt><trkpt lat="41.162215" lon="0.0134517"><ele>209.66666666666669</ele><time>2026-03-31T14:17:32.16Z</time></trkpt><trkpt lat="41.1623783" lon="0.013495"><ele>209.33333333333334</ele><time>2026-03-31T14:17:33.161Z</time></trkpt><trkpt lat="41.1625333" lon="0.0135767"><ele>209.0</ele><time>2026-03-31T14:17:34.16Z</time></trkpt><trkpt lat="41.1626583" lon="0.0137017"><ele>209.0</ele><time>2026-03-31T14:17:35.16Z</time></trkpt><trkpt lat="41.1627633" lon="0.0138617"><ele>209.0</ele><time>2026-03-31T14:17:36.16Z</time></trkpt><trkpt lat="41.1628333" lon="0.01406"><ele>209.0</ele><time>2026-03-31T14:17:37.161Z</time></trkpt><trkpt lat="41.16288" lon="0.0142833"><ele>208.0</ele><time>2026-03-31T14:17:38.16Z</time></trkpt><trkpt lat="41.16293" lon="0.01451"><ele>207.0</ele><time>2026-03-31T14:17:39.161Z</time></trkpt><trkpt lat="41.162975" lon="0.014745"><ele>206.0</ele><time>2026-03-31T14:17:40.161Z</time></trkpt><trkpt lat="41.1630117" lon="0.0149683"><ele>206.33333333333334</ele><time>2026-03-31T14:17:41.161Z</time></trkpt><trkpt lat="41.1630617" lon="0.0151833"><ele>206.66666666666669</ele><time>2026-03-31T14:17:42.16Z</time></trkpt><trkpt lat="41.163115" lon="0.0153733"><ele>207.0</ele><time>2026-03-31T14:17:43.16Z</time></trkpt><trkpt lat="41.1631967" lon="0.015535"><ele>208.33333333333331</ele><time>2026-03-31T14:17:44.16Z</time></trkpt><trkpt lat="41.1632867" lon="0.0156967"><ele>209.66666666666666</ele><time>2026-03-31T14:17:45.161Z</time></trkpt><trkpt lat="41.1633917" lon="0.0158483"><ele>211.0</ele><time>2026-03-31T14:17:46.16Z</time></trkpt><trkpt lat="41.1635117" lon="0.0160067"><ele>211.0</ele><time>2026-03-31T14:17:47.16Z</time></trkpt><trkpt lat="41.1636267" lon="0.016185"><ele>211.0</ele><time>2026-03-31T14:17:48.161Z</time></trkpt><trkpt lat="41.1637317" lon="0.0163833"><ele>211.0</ele><time>2026-03-31T14:17:49.161Z</time></trkpt><trkpt lat="41.1638367" lon="0.0165917"><ele>210.66666666666666</ele><time>2026-03-31T14:17:50.161Z</time></trkpt><trkpt lat="41.1639367" lon="0.0168217"><ele>210.33333333333331</ele><time>2026-03-31T14:17:51.161Z</time></trkpt><trkpt lat="41.1640083" lon="0.0170517"><ele>210.0</ele><time>2026-03-31T14:17:52.16Z</time></trkpt><trkpt lat="41.1640717" lon="0.017295"><ele>212.0</ele><time>2026-03-31T14:17:53.161Z</time></trkpt><trkpt lat="41.164125" lon="0.0175283"><ele>214.0</ele><time>2026-03-31T14:17:54.16Z</time></trkpt><trkpt lat="41.16417" lon="0.01776"><ele>216.0</ele><time>2026-03-31T14:17:55.161Z</time></trkpt><trkpt lat="41.16422" lon="0.01798"><ele>216.0</ele><time>2026-03-31T14:17:56.16Z</time></trkpt><trkpt lat="41.16428" lon="0.0182033"><ele>216.0</ele><time>2026-03-31T14:17:57.16Z</time></trkpt><trkpt lat="41.1643567" lon="0.0184117"><ele>216.0</ele><time>2026-03-31T14:17:58.161Z</time></trkpt><trkpt lat="41.1644483" lon="0.0186"><ele>215.33333333333331</ele><time>2026-03-31T14:17:59.16Z</time></trkpt><trkpt lat="41.1645583" lon="0.018775"><ele>214.66666666666666</ele><time>2026-03-31T14:18:00.16Z</time></trkpt><trkpt lat="41.1646817" lon="0.0189417"><ele>214.0</ele><time>2026-03-31T14:18:01.16Z</time></trkpt><trkpt lat="41.1648217" lon="0.0190883"><ele>214.66666666666666</ele><time>2026-03-31T14:18:02.161Z</time></trkpt><trkpt lat="41.1649683" lon="0.0192117"><ele>215.33333333333331</ele><time>2026-03-31T14:18:03.161Z</time></trkpt><trkpt lat="41.16512" lon="0.01932"><ele>216.0</ele><time>2026-03-31T14:18:04.161Z</time></trkpt><trkpt lat="41.16528" lon="0.0194067"><ele>216.0</ele><time>2026-03-31T14:18:05.161Z</time></trkpt><trkpt lat="41.16545" lon="0.0194783"><ele>216.0</ele><time>2026-03-31T14:18:06.161Z</time></trkpt><trkpt lat="41.16562" lon="0.0195317"><ele>216.0</ele><time>2026-03-31T14:18:07.161Z</time></trkpt><trkpt lat="41.165795" lon="0.0195767"><ele>217.0</ele><time>2026-03-31T14:18:08.16Z</time></trkpt><trkpt lat="41.1659683" lon="0.0196217"><ele>218.0</ele><time>2026-03-31T14:18:09.16Z</time></trkpt><trkpt lat="41.1661533" lon="0.0196633"><ele>219.0</ele><time>2026-03-31T14:18:10.16Z</time></trkpt><trkpt lat="41.16633" lon="0.0197017"><ele>219.0</ele><time>2026-03-31T14:18:11.161Z</time></trkpt><trkpt lat="41.1665017" lon="0.0197467"><ele>219.0</ele><time>2026-03-31T14:18:12.16Z</time></trkpt><trkpt lat="41.1666717" lon="0.0197967"><ele>219.0</ele><time>2026-03-31T14:18:13.161Z</time></trkpt><trkpt lat="41.1668467" lon="0.0198417"><ele>219.0</ele><time>2026-03-31T14:18:14.161Z</time></trkpt><trkpt lat="41.16702" lon="0.0198783"><ele>219.0</ele><time>2026-03-31T14:18:15.16Z</time></trkpt><trkpt lat="41.1671933" lon="0.0199133"><ele>219.0</ele><time>2026-03-31T14:18:16.161Z</time></trkpt><trkpt lat="41.16737" lon="0.01994"><ele>219.0</ele><time>2026-03-31T14:18:17.16Z</time></trkpt><trkpt lat="41.16755" lon="0.0199633"><ele>219.0</ele><time>2026-03-31T14:18:18.161Z</time></trkpt><trkpt lat="41.1677333" lon="0.0199717"><ele>219.0</ele><time>2026-03-31T14:18:19.161Z</time></trkpt><trkpt lat="41.1679183" lon="0.0199733"><ele>218.66666666666669</ele><time>2026-03-31T14:18:20.16Z</time></trkpt><trkpt lat="41.1681017" lon="0.0199883"><ele>218.33333333333334</ele><time>2026-03-31T14:18:21.161Z</time></trkpt><trkpt lat="41.1682783" lon="0.0200133"><ele>218.0</ele><time>2026-03-31T14:18:22.16Z</time></trkpt><trkpt lat="41.16845" lon="0.0200483"><ele>218.0</ele><time>2026-03-31T14:18:23.16Z</time></trkpt><trkpt lat="41.16862" lon="0.0200767"><ele>218.0</ele><time>2026-03-31T14:18:24.16Z</time></trkpt><trkpt lat="41.16879" lon="0.0200867"><ele>218.0</ele><time>2026-03-31T14:18:25.161Z</time></trkpt><trkpt lat="41.1689633" lon="0.0200833"><ele>216.66666666666669</ele><time>2026-03-31T14:18:26.16Z</time></trkpt><trkpt lat="41.1691367" lon="0.0200483"><ele>215.33333333333331</ele><time>2026-03-31T14:18:27.16Z</time></trkpt><trkpt lat="41.1693067" lon="0.02"><ele>214.0</ele><time>2026-03-31T14:18:28.16Z</time></trkpt><trkpt lat="41.1694667" lon="0.01993"><ele>214.0</ele><time>2026-03-31T14:18:29.16Z</time></trkpt><trkpt lat="41.169615" lon="0.0198383"><ele>214.0</ele><time>2026-03-31T14:18:30.161Z</time></trkpt><trkpt lat="41.1697617" lon="0.0197233"><ele>214.0</ele><time>2026-03-31T14:18:31.16Z</time></trkpt><trkpt lat="41.1698817" lon="0.0195683"><ele>213.66666666666666</ele><time>2026-03-31T14:18:32.161Z</time></trkpt><trkpt lat="41.1699883" lon="0.0193967"><ele>213.33333333333331</ele><time>2026-03-31T14:18:33.16Z</time></trkpt><trkpt lat="41.170095" lon="0.0192167"><ele>213.0</ele><time>2026-03-31T14:18:34.16Z</time></trkpt><trkpt lat="41.1702017" lon="0.01903"><ele>213.0</ele><time>2026-03-31T14:18:35.16Z</time></trkpt><trkpt lat="41.1703133" lon="0.0188467"><ele>213.0</ele><time>2026-03-31T14:18:36.161Z</time></trkpt><trkpt lat="41.1704383" lon="0.0186717"><ele>213.0</ele><time>2026-03-31T14:18:37.161Z</time></trkpt><trkpt lat="41.1705717" lon="0.0185083"><ele>212.0</ele><time>2026-03-31T14:18:38.16Z</time></trkpt><trkpt lat="41.1707167" lon="0.0183317"><ele>211.0</ele><time>2026-03-31T14:18:39.161Z</time></trkpt><trkpt lat="41.1708617" lon="0.0181617"><ele>210.0</ele><time>2026-03-31T14:18:40.16Z</time></trkpt><trkpt lat="41.17101" lon="0.017985"><ele>210.0</ele><time>2026-03-31T14:18:41.161Z</time></trkpt><trkpt lat="41.1711567" lon="0.0178133"><ele>210.0</ele><time>2026-03-31T14:18:42.16Z</time></trkpt><trkpt lat="41.171305" lon="0.01764"><ele>210.0</ele><time>2026-03-31T14:18:43.16Z</time></trkpt><trkpt lat="41.1714567" lon="0.0174683"><ele>209.33333333333331</ele><time>2026-03-31T14:18:44.161Z</time></trkpt><trkpt lat="41.1716033" lon="0.0173"><ele>208.66666666666666</ele><time>2026-03-31T14:18:45.16Z</time></trkpt><trkpt lat="41.1717533" lon="0.01714"><ele>208.0</ele><time>2026-03-31T14:18:46.161Z</time></trkpt><trkpt lat="41.1719067" lon="0.0169833"><ele>208.0</ele><time>2026-03-31T14:18:47.161Z</time></trkpt><trkpt lat="41.1720633" lon="0.0168233"><ele>208.0</ele><time>2026-03-31T14:18:48.16Z</time></trkpt><trkpt lat="41.1722117" lon="0.0166617"><ele>208.0</ele><time>2026-03-31T14:18:49.16Z</time></trkpt><trkpt lat="41.1723617" lon="0.0165067"><ele>208.66666666666666</ele><time>2026-03-31T14:18:50.161Z</time></trkpt><trkpt lat="41.1725083" lon="0.0163533"><ele>209.33333333333331</ele><time>2026-03-31T14:18:51.161Z</time></trkpt><trkpt lat="41.17266" lon="0.0162033"><ele>210.0</ele><time>2026-03-31T14:18:52.16Z</time></trkpt><trkpt lat="41.172815" lon="0.01607"><ele>210.0</ele><time>2026-03-31T14:18:53.16Z</time></trkpt><trkpt lat="41.17297" lon="0.0159317"><ele>210.0</ele><time>2026-03-31T14:18:54.16Z</time></trkpt><trkpt lat="41.1731267" lon="0.0158"><ele>210.0</ele><time>2026-03-31T14:18:55.16Z</time></trkpt><trkpt lat="41.173275" lon="0.0156717"><ele>211.33333333333331</ele><time>2026-03-31T14:18:56.161Z</time></trkpt><trkpt lat="41.17342" lon="0.01555"><ele>212.66666666666666</ele><time>2026-03-31T14:18:57.16Z</time></trkpt><trkpt lat="41.1735617" lon="0.0154117"><ele>214.0</ele><time>2026-03-31T14:18:58.161Z</time></trkpt><trkpt lat="41.1737033" lon="0.0152683"><ele>214.0</ele><time>2026-03-31T14:18:59.161Z</time></trkpt><trkpt lat="41.17384" lon="0.0151167"><ele>214.0</ele><time>2026-03-31T14:19:00.161Z</time></trkpt><trkpt lat="41.1739717" lon="0.0149617"><ele>214.0</ele><time>2026-03-31T14:19:01.16Z</time></trkpt><trkpt lat="41.17411" lon="0.0148133"><ele>216.0</ele><time>2026-03-31T14:19:02.161Z</time></trkpt><trkpt lat="41.1742483" lon="0.01467"><ele>218.0</ele><time>2026-03-31T14:19:03.161Z</time></trkpt><trkpt lat="41.1743833" lon="0.0145217"><ele>220.0</ele><time>2026-03-31T14:19:04.16Z</time></trkpt><trkpt lat="41.17452" lon="0.0143617"><ele>220.0</ele><time>2026-03-31T14:19:05.161Z</time></trkpt><trkpt lat="41.1746533" lon="0.0142017"><ele>220.0</ele><time>2026-03-31T14:19:06.16Z</time></trkpt><trkpt lat="41.1747867" lon="0.0140467"><ele>220.0</ele><time>2026-03-31T14:19:07.161Z</time></trkpt><trkpt lat="41.17492" lon="0.0138983"><ele>218.0</ele><time>2026-03-31T14:19:08.16Z</time></trkpt><trkpt lat="41.1750467" lon="0.0137567"><ele>216.0</ele><time>2026-03-31T14:19:09.16Z</time></trkpt><trkpt lat="41.1751583" lon="0.0136233"><ele>214.0</ele><time>2026-03-31T14:19:10.161Z</time></trkpt><trkpt lat="41.1752633" lon="0.0134933"><ele>214.0</ele><time>2026-03-31T14:19:11.161Z</time></trkpt><trkpt lat="41.17536" lon="0.013355"><ele>214.0</ele><time>2026-03-31T14:19:12.161Z</time></trkpt><trkpt lat="41.17545" lon="0.0132067"><ele>214.0</ele><time>2026-03-31T14:19:13.16Z</time></trkpt><trkpt lat="41.1755067" lon="0.013035"><ele>214.0</ele><time>2026-03-31T14:19:14.161Z</time></trkpt><trkpt lat="41.1755417" lon="0.0128433"><ele>215.0</ele><time>2026-03-31T14:19:15.161Z</time></trkpt><trkpt lat="41.1755517" lon="0.0126317"><ele>216.0</ele><time>2026-03-31T14:19:16.161Z</time></trkpt><trkpt lat="41.1755367" lon="0.012415"><ele>217.0</ele><time>2026-03-31T14:19:17.161Z</time></trkpt><trkpt lat="41.1755167" lon="0.0121983"><ele>215.33333333333331</ele><time>2026-03-31T14:19:18.16Z</time></trkpt><trkpt lat="41.1754917" lon="0.01198"><ele>213.66666666666669</ele><time>2026-03-31T14:19:19.16Z</time></trkpt><trkpt lat="41.17548" lon="0.0117583"><ele>212.0</ele><time>2026-03-31T14:19:20.16Z</time></trkpt><trkpt lat="41.175475" lon="0.011535"><ele>212.0</ele><time>2026-03-31T14:19:21.16Z</time></trkpt><trkpt lat="41.1754783" lon="0.0113233"><ele>212.0</ele><time>2026-03-31T14:19:22.16Z</time></trkpt><trkpt lat="41.17551" lon="0.011105"><ele>212.0</ele><time>2026-03-31T14:19:23.161Z</time></trkpt><trkpt lat="41.17556" lon="0.0109083"><ele>211.33333333333334</ele><time>2026-03-31T14:19:24.161Z</time></trkpt><trkpt lat="41.17564" lon="0.0107183"><ele>210.66666666666669</ele><time>2026-03-31T14:19:25.161Z</time></trkpt><trkpt lat="41.1757567" lon="0.01055"><ele>210.0</ele><time>2026-03-31T14:19:26.16Z</time></trkpt><trkpt lat="41.1758733" lon="0.0103733"><ele>210.0</ele><time>2026-03-31T14:19:27.16Z</time></trkpt><trkpt lat="41.1759867" lon="0.0101967"><ele>210.0</ele><time>2026-03-31T14:19:28.16Z</time></trkpt><trkpt lat="41.1761" lon="0.0100267"><ele>210.0</ele><time>2026-03-31T14:19:29.16Z</time></trkpt><trkpt lat="41.1762117" lon="0.00985"><ele>212.0</ele><time>2026-03-31T14:19:30.16Z</time></trkpt><trkpt lat="41.17632" lon="0.0096783"><ele>214.0</ele><time>2026-03-31T14:19:31.161Z</time></trkpt><trkpt lat="41.1764283" lon="0.00952"><ele>216.0</ele><time>2026-03-31T14:19:32.161Z</time></trkpt><trkpt lat="41.1765367" lon="0.0093683"><ele>211.66666666666669</ele><time>2026-03-31T14:19:33.161Z</time></trkpt><trkpt lat="41.17665" lon="0.0092117"><ele>207.33333333333334</ele><time>2026-03-31T14:19:34.161Z</time></trkpt><trkpt lat="41.1767567" lon="0.0090567"><ele>203.0</ele><time>2026-03-31T14:19:35.16Z</time></trkpt><trkpt lat="41.1768683" lon="0.0089267"><ele>203.0</ele><time>2026-03-31T14:19:36.161Z</time></trkpt><trkpt lat="41.176995" lon="0.008825"><ele>203.0</ele><time>2026-03-31T14:19:37.16Z</time></trkpt><trkpt lat="41.1771433" lon="0.0087667"><ele>203.0</ele><time>2026-03-31T14:19:38.161Z</time></trkpt><trkpt lat="41.177295" lon="0.0087433"><ele>202.75</ele><time>2026-03-31T14:19:39.16Z</time></trkpt><trkpt lat="41.1774383" lon="0.0087533"><ele>202.5</ele><time>2026-03-31T14:19:40.161Z</time></trkpt><trkpt lat="41.177585" lon="0.00877"><ele>202.25</ele><time>2026-03-31T14:19:41.161Z</time></trkpt><trkpt lat="41.177735" lon="0.008785"><ele>202.0</ele><time>2026-03-31T14:19:42.16Z</time></trkpt><trkpt lat="41.1778767" lon="0.0087817"><ele>202.0</ele><time>2026-03-31T14:19:43.16Z</time></trkpt><trkpt lat="41.1780067" lon="0.008765"><ele>202.0</ele><time>2026-03-31T14:19:44.161Z</time></trkpt><trkpt lat="41.1781333" lon="0.0086967"><ele>202.0</ele><time>2026-03-31T14:19:45.16Z</time></trkpt><trkpt lat="41.17824" lon="0.0086017"><ele>202.0</ele><time>2026-03-31T14:19:46.16Z</time></trkpt><trkpt lat="41.17832" lon="0.00849"><ele>203.2</ele><time>2026-03-31T14:19:47.16Z</time></trkpt><trkpt lat="41.17839" lon="0.0083783"><ele>204.39999999999998</ele><time>2026-03-31T14:19:48.16Z</time></trkpt><trkpt lat="41.178455" lon="0.0082733"><ele>205.60000000000002</ele><time>2026-03-31T14:19:49.16Z</time></trkpt><trkpt lat="41.1785233" lon="0.008165"><ele>206.8</ele><time>2026-03-31T14:19:50.161Z</time></trkpt><trkpt lat="41.178585" lon="0.0080533"><ele>208.0</ele><time>2026-03-31T14:19:51.16Z</time></trkpt><trkpt lat="41.1786467" lon="0.007955"><ele>208.0</ele><time>2026-03-31T14:19:52.16Z</time></trkpt><trkpt lat="41.1786983" lon="0.0078683"><ele>208.0</ele><time>2026-03-31T14:19:53.161Z</time></trkpt><trkpt lat="41.1787433" lon="0.0077667"><ele>208.0</ele><time>2026-03-31T14:19:54.16Z</time></trkpt><trkpt lat="41.1787883" lon="0.0076483"><ele>208.0</ele><time>2026-03-31T14:19:55.161Z</time></trkpt><trkpt lat="41.178835" lon="0.0074967"><ele>208.0</ele><time>2026-03-31T14:19:56.161Z</time></trkpt><trkpt lat="41.1788883" lon="0.007325"><ele>209.33333333333331</ele><time>2026-03-31T14:19:57.161Z</time></trkpt><trkpt lat="41.1789483" lon="0.007115"><ele>210.66666666666669</ele><time>2026-03-31T14:19:58.161Z</time></trkpt><trkpt lat="41.1790183" lon="0.00691"><ele>212.0</ele><time>2026-03-31T14:19:59.161Z</time></trkpt><trkpt lat="41.1790817" lon="0.0067133"><ele>212.66666666666669</ele><time>2026-03-31T14:20:00.16Z</time></trkpt><trkpt lat="41.1791517" lon="0.0065217"><ele>213.33333333333331</ele><time>2026-03-31T14:20:01.16Z</time></trkpt><trkpt lat="41.1792133" lon="0.006335"><ele>214.0</ele><time>2026-03-31T14:20:02.161Z</time></trkpt><trkpt lat="41.1792883" lon="0.00615"><ele>214.0</ele><time>2026-03-31T14:20:03.161Z</time></trkpt><trkpt lat="41.1793817" lon="0.0059783"><ele>214.0</ele><time>2026-03-31T14:20:04.16Z</time></trkpt><trkpt lat="41.179505" lon="0.005825"><ele>214.0</ele><time>2026-03-31T14:20:05.16Z</time></trkpt><trkpt lat="41.1796483" lon="0.0056833"><ele>214.0</ele><time>2026-03-31T14:20:06.161Z</time></trkpt><trkpt lat="41.1797833" lon="0.005545"><ele>214.0</ele><time>2026-03-31T14:20:07.16Z</time></trkpt><trkpt lat="41.1799033" lon="0.0054033"><ele>214.0</ele><time>2026-03-31T14:20:08.16Z</time></trkpt><trkpt lat="41.1800083" lon="0.005245"><ele>214.33333333333331</ele><time>2026-03-31T14:20:09.16Z</time></trkpt><trkpt lat="41.180095" lon="0.0050633"><ele>214.66666666666669</ele><time>2026-03-31T14:20:10.161Z</time></trkpt><trkpt lat="41.1801533" lon="0.0048583"><ele>215.0</ele><time>2026-03-31T14:20:11.16Z</time></trkpt><trkpt lat="41.1802" lon="0.0046483"><ele>215.66666666666669</ele><time>2026-03-31T14:20:12.161Z</time></trkpt><trkpt lat="41.1802433" lon="0.00444"><ele>216.33333333333331</ele><time>2026-03-31T14:20:13.16Z</time></trkpt><trkpt lat="41.1802917" lon="0.0042517"><ele>217.0</ele><time>2026-03-31T14:20:14.16Z</time></trkpt><trkpt lat="41.1803267" lon="0.0040667"><ele>217.75</ele><time>2026-03-31T14:20:15.161Z</time></trkpt><trkpt lat="41.1803367" lon="0.0038867"><ele>218.5</ele><time>2026-03-31T14:20:16.16Z</time></trkpt><trkpt lat="41.1803067" lon="0.003705"><ele>219.25</ele><time>2026-03-31T14:20:17.16Z</time></trkpt><trkpt lat="41.1802533" lon="0.0035283"><ele>220.0</ele><time>2026-03-31T14:20:18.161Z</time></trkpt><trkpt lat="41.1801833" lon="0.003355"><ele>221.66666666666666</ele><time>2026-03-31T14:20:19.161Z</time></trkpt><trkpt lat="41.18013" lon="0.0031633"><ele>223.33333333333331</ele><time>2026-03-31T14:20:20.161Z</time></trkpt><trkpt lat="41.1800917" lon="0.0029517"><ele>225.0</ele><time>2026-03-31T14:20:21.16Z</time></trkpt><trkpt lat="41.1800867" lon="0.00273"><ele>225.0</ele><time>2026-03-31T14:20:22.161Z</time></trkpt><trkpt lat="41.1800933" lon="0.0025"><ele>225.0</ele><time>2026-03-31T14:20:23.161Z</time></trkpt><trkpt lat="41.1801233" lon="0.0022683"><ele>225.0</ele><time>2026-03-31T14:20:24.16Z</time></trkpt><trkpt lat="41.1801583" lon="0.0020367"><ele>225.0</ele><time>2026-03-31T14:20:25.16Z</time></trkpt><trkpt lat="41.18019" lon="0.00181"><ele>225.0</ele><time>2026-03-31T14:20:26.161Z</time></trkpt><trkpt lat="41.1802183" lon="0.0015767"><ele>225.0</ele><time>2026-03-31T14:20:27.161Z</time></trkpt><trkpt lat="41.1802467" lon="0.001335"><ele>225.66666666666669</ele><time>2026-03-31T14:20:28.16Z</time></trkpt><trkpt lat="41.18027" lon="0.0011033"><ele>226.33333333333334</ele><time>2026-03-31T14:20:29.16Z</time></trkpt><trkpt lat="41.180295" lon="8.75E-4"><ele>227.0</ele><time>2026-03-31T14:20:30.16Z</time></trkpt><trkpt lat="41.180325" lon="6.833E-4"><ele>227.25</ele><time>2026-03-31T14:20:31.16Z</time></trkpt><trkpt lat="41.18036" lon="5.067E-4"><ele>227.5</ele><time>2026-03-31T14:20:32.16Z</time></trkpt><trkpt lat="41.1804117" lon="3.333E-4"><ele>227.75</ele><time>2026-03-31T14:20:33.16Z</time></trkpt><trkpt lat="41.1804817" lon="1.55E-4"><ele>228.0</ele><time>2026-03-31T14:20:34.16Z</time></trkpt><trkpt lat="41.180565" lon="-2.83E-5"><ele>228.0</ele><time>2026-03-31T14:20:35.16Z</time></trkpt><trkpt lat="41.1806517" lon="-2.2E-4"><ele>228.0</ele><time>2026-03-31T14:20:36.161Z</time></trkpt><trkpt lat="41.18074" lon="-4.133E-4"><ele>228.0</ele><time>2026-03-31T14:20:37.161Z</time></trkpt><trkpt lat="41.1808333" lon="-6.0E-4"><ele>228.33333333333331</ele><time>2026-03-31T14:20:38.161Z</time></trkpt><trkpt lat="41.1809283" lon="-7.85E-4"><ele>228.66666666666666</ele><time>2026-03-31T14:20:39.161Z</time></trkpt><trkpt lat="41.1810167" lon="-9.683E-4"><ele>229.0</ele><time>2026-03-31T14:20:40.16Z</time></trkpt><trkpt lat="41.18112" lon="-0.0011567"><ele>229.0</ele><time>2026-03-31T14:20:41.161Z</time></trkpt><trkpt lat="41.1812283" lon="-0.0013333"><ele>229.0</ele><time>2026-03-31T14:20:42.16Z</time></trkpt><trkpt lat="41.1813467" lon="-0.001505"><ele>229.0</ele><time>2026-03-31T14:20:43.16Z</time></trkpt><trkpt lat="41.1814817" lon="-0.00167"><ele>230.0</ele><time>2026-03-31T14:20:44.16Z</time></trkpt><trkpt lat="41.1816283" lon="-0.00183"><ele>231.0</ele><time>2026-03-31T14:20:45.161Z</time></trkpt><trkpt lat="41.1817717" lon="-0.0019867"><ele>232.0</ele><time>2026-03-31T14:20:46.16Z</time></trkpt><trkpt lat="41.1819183" lon="-0.0021533"><ele>232.0</ele><time>2026-03-31T14:20:47.161Z</time></trkpt><trkpt lat="41.182065" lon="-0.002325"><ele>232.0</ele><time>2026-03-31T14:20:48.16Z</time></trkpt><trkpt lat="41.1822067" lon="-0.0024933"><ele>232.0</ele><time>2026-03-31T14:20:49.161Z</time></trkpt><trkpt lat="41.1823567" lon="-0.0026617"><ele>232.0</ele><time>2026-03-31T14:20:50.16Z</time></trkpt><trkpt lat="41.1825067" lon="-0.0028333"><ele>232.0</ele><time>2026-03-31T14:20:51.16Z</time></trkpt><trkpt lat="41.1826433" lon="-0.0030033"><ele>232.0</ele><time>2026-03-31T14:20:52.16Z</time></trkpt><trkpt lat="41.182775" lon="-0.00317"><ele>232.33333333333331</ele><time>2026-03-31T14:20:53.161Z</time></trkpt><trkpt lat="41.1828867" lon="-0.0033383"><ele>232.66666666666669</ele><time>2026-03-31T14:20:54.16Z</time></trkpt><trkpt lat="41.18299" lon="-0.0035167"><ele>233.0</ele><time>2026-03-31T14:20:55.161Z</time></trkpt><trkpt lat="41.18308" lon="-0.0037117"><ele>233.0</ele><time>2026-03-31T14:20:56.16Z</time></trkpt><trkpt lat="41.1831767" lon="-0.0039167"><ele>233.0</ele><time>2026-03-31T14:20:57.161Z</time></trkpt><trkpt lat="41.18327" lon="-0.0041233"><ele>233.0</ele><time>2026-03-31T14:20:58.16Z</time></trkpt><trkpt lat="41.1833667" lon="-0.00433"><ele>232.33333333333334</ele><time>2026-03-31T14:20:59.161Z</time></trkpt><trkpt lat="41.1834617" lon="-0.0045317"><ele>231.66666666666669</ele><time>2026-03-31T14:21:00.16Z</time></trkpt><trkpt lat="41.1835633" lon="-0.0047367"><ele>231.0</ele><time>2026-03-31T14:21:01.16Z</time></trkpt><trkpt lat="41.1836583" lon="-0.0049517"><ele>231.33333333333331</ele><time>2026-03-31T14:21:02.161Z</time></trkpt><trkpt lat="41.183755" lon="-0.00517"><ele>231.66666666666666</ele><time>2026-03-31T14:21:03.161Z</time></trkpt><trkpt lat="41.1838533" lon="-0.005385"><ele>232.0</ele><time>2026-03-31T14:21:04.161Z</time></trkpt><trkpt lat="41.1839583" lon="-0.0055983"><ele>231.66666666666666</ele><time>2026-03-31T14:21:05.16Z</time></trkpt><trkpt lat="41.18406" lon="-0.0058183"><ele>231.33333333333331</ele><time>2026-03-31T14:21:06.161Z</time></trkpt><trkpt lat="41.1841583" lon="-0.006035"><ele>231.0</ele><time>2026-03-31T14:21:07.16Z</time></trkpt><trkpt lat="41.1842583" lon="-0.0062517"><ele>231.0</ele><time>2026-03-31T14:21:08.161Z</time></trkpt><trkpt lat="41.1843567" lon="-0.0064683"><ele>231.0</ele><time>2026-03-31T14:21:09.161Z</time></trkpt><trkpt lat="41.1844583" lon="-0.0066833"><ele>231.0</ele><time>2026-03-31T14:21:10.161Z</time></trkpt><trkpt lat="41.184555" lon="-0.0068933"><ele>231.0</ele><time>2026-03-31T14:21:11.16Z</time></trkpt><trkpt lat="41.1846517" lon="-0.0071167"><ele>231.0</ele><time>2026-03-31T14:21:12.161Z</time></trkpt><trkpt lat="41.18475" lon="-0.007335"><ele>231.0</ele><time>2026-03-31T14:21:13.161Z</time></trkpt><trkpt lat="41.184855" lon="-0.0075567"><ele>229.0</ele><time>2026-03-31T14:21:14.161Z</time></trkpt><trkpt lat="41.18496" lon="-0.00777"><ele>227.0</ele><time>2026-03-31T14:21:15.161Z</time></trkpt><trkpt lat="41.1850767" lon="-0.007975"><ele>225.0</ele><time>2026-03-31T14:21:16.16Z</time></trkpt><trkpt lat="41.1851933" lon="-0.0081667"><ele>226.33333333333331</ele><time>2026-03-31T14:21:17.16Z</time></trkpt><trkpt lat="41.1853183" lon="-0.0083483"><ele>227.66666666666666</ele><time>2026-03-31T14:21:18.161Z</time></trkpt><trkpt lat="41.1854567" lon="-0.0085267"><ele>229.0</ele><time>2026-03-31T14:21:19.16Z</time></trkpt><trkpt lat="41.185595" lon="-0.0086967"><ele>228.0</ele><time>2026-03-31T14:21:20.161Z</time></trkpt><trkpt lat="41.18573" lon="-0.008875"><ele>227.0</ele><time>2026-03-31T14:21:21.161Z</time></trkpt><trkpt lat="41.1858717" lon="-0.009045"><ele>226.0</ele><time>2026-03-31T14:21:22.16Z</time></trkpt><trkpt lat="41.1860067" lon="-0.0092133"><ele>226.0</ele><time>2026-03-31T14:21:23.161Z</time></trkpt><trkpt lat="41.186135" lon="-0.0093783"><ele>226.0</ele><time>2026-03-31T14:21:24.161Z</time></trkpt><trkpt lat="41.1862633" lon="-0.0095567"><ele>226.0</ele><time>2026-03-31T14:21:25.16Z</time></trkpt><trkpt lat="41.1863917" lon="-0.0097367"><ele>226.33333333333331</ele><time>2026-03-31T14:21:26.161Z</time></trkpt><trkpt lat="41.1865117" lon="-0.0099267"><ele>226.66666666666669</ele><time>2026-03-31T14:21:27.16Z</time></trkpt><trkpt lat="41.18662" lon="-0.0101233"><ele>227.0</ele><time>2026-03-31T14:21:28.16Z</time></trkpt><trkpt lat="41.18672" lon="-0.0103367"><ele>227.66666666666669</ele><time>2026-03-31T14:21:29.16Z</time></trkpt><trkpt lat="41.18681" lon="-0.01057"><ele>228.33333333333331</ele><time>2026-03-31T14:21:30.16Z</time></trkpt><trkpt lat="41.18689" lon="-0.0108083"><ele>229.0</ele><time>2026-03-31T14:21:31.161Z</time></trkpt><trkpt lat="41.1869417" lon="-0.0110683"><ele>229.0</ele><time>2026-03-31T14:21:32.16Z</time></trkpt><trkpt lat="41.18696" lon="-0.01132"><ele>229.0</ele><time>2026-03-31T14:21:33.161Z</time></trkpt><trkpt lat="41.1869633" lon="-0.011575"><ele>229.0</ele><time>2026-03-31T14:21:34.161Z</time></trkpt><trkpt lat="41.186985" lon="-0.011825"><ele>229.0</ele><time>2026-03-31T14:21:35.16Z</time></trkpt><trkpt lat="41.1870367" lon="-0.0120583"><ele>229.0</ele><time>2026-03-31T14:21:36.16Z</time></trkpt><trkpt lat="41.1871233" lon="-0.0122733"><ele>229.0</ele><time>2026-03-31T14:21:37.161Z</time></trkpt><trkpt lat="41.1872433" lon="-0.0124767"><ele>228.0</ele><time>2026-03-31T14:21:38.161Z</time></trkpt><trkpt lat="41.1873533" lon="-0.0126767"><ele>227.0</ele><time>2026-03-31T14:21:39.161Z</time></trkpt><trkpt lat="41.18745" lon="-0.012885"><ele>226.0</ele><time>2026-03-31T14:21:40.16Z</time></trkpt><trkpt lat="41.1875333" lon="-0.0130983"><ele>226.0</ele><time>2026-03-31T14:21:41.16Z</time></trkpt><trkpt lat="41.187605" lon="-0.0133033"><ele>226.0</ele><time>2026-03-31T14:21:42.161Z</time></trkpt><trkpt lat="41.18767" lon="-0.0134933"><ele>226.0</ele><time>2026-03-31T14:21:43.16Z</time></trkpt><trkpt lat="41.1877317" lon="-0.0136917"><ele>225.33333333333331</ele><time>2026-03-31T14:21:44.16Z</time></trkpt><trkpt lat="41.1877983" lon="-0.013885"><ele>224.66666666666669</ele><time>2026-03-31T14:21:45.161Z</time></trkpt><trkpt lat="41.1878817" lon="-0.0140633"><ele>224.0</ele><time>2026-03-31T14:21:46.16Z</time></trkpt><trkpt lat="41.1879933" lon="-0.0142117"><ele>223.33333333333334</ele><time>2026-03-31T14:21:47.16Z</time></trkpt><trkpt lat="41.1881217" lon="-0.0143517"><ele>222.66666666666669</ele><time>2026-03-31T14:21:48.161Z</time></trkpt><trkpt lat="41.18824" lon="-0.014495"><ele>222.0</ele><time>2026-03-31T14:21:49.16Z</time></trkpt><trkpt lat="41.18835" lon="-0.0146667"><ele>222.0</ele><time>2026-03-31T14:21:50.161Z</time></trkpt><trkpt lat="41.1884383" lon="-0.0148633"><ele>222.0</ele><time>2026-03-31T14:21:51.161Z</time></trkpt><trkpt lat="41.1885133" lon="-0.015075"><ele>222.0</ele><time>2026-03-31T14:21:52.16Z</time></trkpt><trkpt lat="41.1885667" lon="-0.0152967"><ele>222.66666666666669</ele><time>2026-03-31T14:21:53.16Z</time></trkpt><trkpt lat="41.18862" lon="-0.0155333"><ele>223.33333333333334</ele><time>2026-03-31T14:21:54.16Z</time></trkpt><trkpt lat="41.1886633" lon="-0.015765"><ele>224.0</ele><time>2026-03-31T14:21:55.161Z</time></trkpt><trkpt lat="41.188715" lon="-0.0159867"><ele>224.66666666666669</ele><time>2026-03-31T14:21:56.161Z</time></trkpt><trkpt lat="41.188785" lon="-0.0161817"><ele>225.33333333333331</ele><time>2026-03-31T14:21:57.161Z</time></trkpt><trkpt lat="41.1888783" lon="-0.01636"><ele>226.0</ele><time>2026-03-31T14:21:58.16Z</time></trkpt><trkpt lat="41.1889983" lon="-0.0165367"><ele>223.0</ele><time>2026-03-31T14:21:59.161Z</time></trkpt><trkpt lat="41.18913" lon="-0.0167133"><ele>220.0</ele><time>2026-03-31T14:22:00.161Z</time></trkpt><trkpt lat="41.1892717" lon="-0.01687"><ele>217.0</ele><time>2026-03-31T14:22:01.16Z</time></trkpt><trkpt lat="41.1894267" lon="-0.0170017"><ele>217.0</ele><time>2026-03-31T14:22:02.161Z</time></trkpt><trkpt lat="41.1896033" lon="-0.017095"><ele>217.0</ele><time>2026-03-31T14:22:03.16Z</time></trkpt><trkpt lat="41.1897917" lon="-0.017155"><ele>217.0</ele><time>2026-03-31T14:22:04.16Z</time></trkpt><trkpt lat="41.1899833" lon="-0.0172"><ele>216.33333333333331</ele><time>2026-03-31T14:22:05.16Z</time></trkpt><trkpt lat="41.1901767" lon="-0.0172517"><ele>215.66666666666669</ele><time>2026-03-31T14:22:06.161Z</time></trkpt><trkpt lat="41.19037" lon="-0.0173067"><ele>215.0</ele><time>2026-03-31T14:22:07.16Z</time></trkpt><trkpt lat="41.1905633" lon="-0.0173567"><ele>215.0</ele><time>2026-03-31T14:22:08.16Z</time></trkpt><trkpt lat="41.1907467" lon="-0.017415"><ele>215.0</ele><time>2026-03-31T14:22:09.16Z</time></trkpt><trkpt lat="41.1909283" lon="-0.0174867"><ele>215.0</ele><time>2026-03-31T14:22:10.161Z</time></trkpt><trkpt lat="41.1911083" lon="-0.0175783"><ele>215.0</ele><time>2026-03-31T14:22:11.16Z</time></trkpt><trkpt lat="41.19127" lon="-0.017675"><ele>215.0</ele><time>2026-03-31T14:22:12.16Z</time></trkpt><trkpt lat="41.1914167" lon="-0.0177767"><ele>215.0</ele><time>2026-03-31T14:22:13.161Z</time></trkpt><trkpt lat="41.191565" lon="-0.0178883"><ele>215.33333333333334</ele><time>2026-03-31T14:22:14.161Z</time></trkpt><trkpt lat="41.191715" lon="-0.0180133"><ele>215.66666666666669</ele><time>2026-03-31T14:22:15.16Z</time></trkpt><trkpt lat="41.1918633" lon="-0.0181117"><ele>216.0</ele><time>2026-03-31T14:22:16.16Z</time></trkpt><trkpt lat="41.1920267" lon="-0.0181683"><ele>216.0</ele><time>2026-03-31T14:22:17.161Z</time></trkpt><trkpt lat="41.1921833" lon="-0.0181683"><ele>216.0</ele><time>2026-03-31T14:22:18.16Z</time></trkpt><trkpt lat="41.1923467" lon="-0.0181083"><ele>216.0</ele><time>2026-03-31T14:22:19.16Z</time></trkpt><trkpt lat="41.1924933" lon="-0.01801"><ele>217.0</ele><time>2026-03-31T14:22:20.161Z</time></trkpt><trkpt lat="41.1926283" lon="-0.0179"><ele>218.0</ele><time>2026-03-31T14:22:21.16Z</time></trkpt><trkpt lat="41.1927617" lon="-0.0177767"><ele>219.0</ele><time>2026-03-31T14:22:22.16Z</time></trkpt><trkpt lat="41.1929083" lon="-0.017665"><ele>219.0</ele><time>2026-03-31T14:22:23.16Z</time></trkpt><trkpt lat="41.1930633" lon="-0.0175683"><ele>219.0</ele><time>2026-03-31T14:22:24.16Z</time></trkpt><trkpt lat="41.1932367" lon="-0.0175017"><ele>219.0</ele><time>2026-03-31T14:22:25.16Z</time></trkpt><trkpt lat="41.19341" lon="-0.0174517"><ele>220.0</ele><time>2026-03-31T14:22:26.16Z</time></trkpt><trkpt lat="41.193575" lon="-0.0174267"><ele>221.0</ele><time>2026-03-31T14:22:27.16Z</time></trkpt><trkpt lat="41.1937267" lon="-0.0174417"><ele>222.0</ele><time>2026-03-31T14:22:28.161Z</time></trkpt><trkpt lat="41.1938683" lon="-0.0174933"><ele>222.33333333333331</ele><time>2026-03-31T14:22:29.16Z</time></trkpt><trkpt lat="41.194005" lon="-0.0176017"><ele>222.66666666666666</ele><time>2026-03-31T14:22:30.16Z</time></trkpt><trkpt lat="41.1941333" lon="-0.0177267"><ele>223.0</ele><time>2026-03-31T14:22:31.161Z</time></trkpt><trkpt lat="41.1942533" lon="-0.0178667"><ele>223.0</ele><time>2026-03-31T14:22:32.161Z</time></trkpt><trkpt lat="41.1943917" lon="-0.01797"><ele>223.0</ele><time>2026-03-31T14:22:33.16Z</time></trkpt><trkpt lat="41.19456" lon="-0.0180167"><ele>223.0</ele><time>2026-03-31T14:22:34.161Z</time></trkpt><trkpt lat="41.1947283" lon="-0.018005"><ele>224.0</ele><time>2026-03-31T14:22:35.16Z</time></trkpt><trkpt lat="41.1948917" lon="-0.0179567"><ele>225.0</ele><time>2026-03-31T14:22:36.161Z</time></trkpt><trkpt lat="41.1950717" lon="-0.0179033"><ele>226.0</ele><time>2026-03-31T14:22:37.161Z</time></trkpt><trkpt lat="41.1952517" lon="-0.0178317"><ele>226.0</ele><time>2026-03-31T14:22:38.16Z</time></trkpt><trkpt lat="41.1954367" lon="-0.0177633"><ele>226.0</ele><time>2026-03-31T14:22:39.16Z</time></trkpt><trkpt lat="41.195615" lon="-0.017685"><ele>226.0</ele><time>2026-03-31T14:22:40.16Z</time></trkpt><trkpt lat="41.1957917" lon="-0.0176117"><ele>225.33333333333331</ele><time>2026-03-31T14:22:41.16Z</time></trkpt><trkpt lat="41.1959533" lon="-0.0175233"><ele>224.66666666666669</ele><time>2026-03-31T14:22:42.159Z</time></trkpt><trkpt lat="41.1960867" lon="-0.0174233"><ele>224.0</ele><time>2026-03-31T14:22:43.16Z</time></trkpt><trkpt lat="41.196225" lon="-0.0173017"><ele>224.0</ele><time>2026-03-31T14:22:44.161Z</time></trkpt><trkpt lat="41.196345" lon="-0.0171517"><ele>224.0</ele><time>2026-03-31T14:22:45.16Z</time></trkpt><trkpt lat="41.1964733" lon="-0.0169967"><ele>224.0</ele><time>2026-03-31T14:22:46.161Z</time></trkpt><trkpt lat="41.1966083" lon="-0.016845"><ele>221.66666666666669</ele><time>2026-03-31T14:22:47.161Z</time></trkpt><trkpt lat="41.19674" lon="-0.01668"><ele>219.33333333333331</ele><time>2026-03-31T14:22:48.16Z</time></trkpt><trkpt lat="41.1968717" lon="-0.016505"><ele>217.0</ele><time>2026-03-31T14:22:49.16Z</time></trkpt><trkpt lat="41.1969917" lon="-0.0163183"><ele>216.66666666666666</ele><time>2026-03-31T14:22:50.161Z</time></trkpt><trkpt lat="41.1970983" lon="-0.0161133"><ele>216.33333333333331</ele><time>2026-03-31T14:22:51.16Z</time></trkpt><trkpt lat="41.1972067" lon="-0.015915"><ele>216.0</ele><time>2026-03-31T14:22:52.161Z</time></trkpt><trkpt lat="41.19731" lon="-0.0157117"><ele>216.0</ele><time>2026-03-31T14:22:53.16Z</time></trkpt><trkpt lat="41.1974083" lon="-0.0154883"><ele>216.0</ele><time>2026-03-31T14:22:54.161Z</time></trkpt><trkpt lat="41.1975083" lon="-0.0152733"><ele>216.0</ele><time>2026-03-31T14:22:55.16Z</time></trkpt><trkpt lat="41.1976033" lon="-0.0150683"><ele>215.66666666666669</ele><time>2026-03-31T14:22:56.16Z</time></trkpt><trkpt lat="41.1976917" lon="-0.0148717"><ele>215.33333333333334</ele><time>2026-03-31T14:22:57.161Z</time></trkpt><trkpt lat="41.1978" lon="-0.01469"><ele>215.0</ele><time>2026-03-31T14:22:58.161Z</time></trkpt><trkpt lat="41.1979383" lon="-0.014525"><ele>215.0</ele><time>2026-03-31T14:22:59.16Z</time></trkpt><trkpt lat="41.19809" lon="-0.0143883"><ele>215.0</ele><time>2026-03-31T14:23:00.16Z</time></trkpt><trkpt lat="41.1982467" lon="-0.0142667"><ele>215.0</ele><time>2026-03-31T14:23:01.16Z</time></trkpt><trkpt lat="41.198405" lon="-0.014155"><ele>217.33333333333334</ele><time>2026-03-31T14:23:02.16Z</time></trkpt><trkpt lat="41.1985733" lon="-0.0140517"><ele>219.66666666666669</ele><time>2026-03-31T14:23:03.161Z</time></trkpt><trkpt lat="41.1987483" lon="-0.013955"><ele>222.0</ele><time>2026-03-31T14:23:04.16Z</time></trkpt><trkpt lat="41.1989183" lon="-0.0138633"><ele>222.0</ele><time>2026-03-31T14:23:05.161Z</time></trkpt><trkpt lat="41.199095" lon="-0.0137683"><ele>222.0</ele><time>2026-03-31T14:23:06.16Z</time></trkpt><trkpt lat="41.1992667" lon="-0.013665"><ele>222.0</ele><time>2026-03-31T14:23:07.16Z</time></trkpt><trkpt lat="41.1994367" lon="-0.01356"><ele>222.0</ele><time>2026-03-31T14:23:08.16Z</time></trkpt><trkpt lat="41.19961" lon="-0.013455"><ele>222.0</ele><time>2026-03-31T14:23:09.16Z</time></trkpt><trkpt lat="41.1997833" lon="-0.01336"><ele>222.0</ele><time>2026-03-31T14:23:10.161Z</time></trkpt><trkpt lat="41.19996" lon="-0.0132683"><ele>220.66666666666669</ele><time>2026-03-31T14:23:11.161Z</time></trkpt><trkpt lat="41.2001383" lon="-0.01318"><ele>219.33333333333334</ele><time>2026-03-31T14:23:12.16Z</time></trkpt><trkpt lat="41.2003133" lon="-0.0131017"><ele>218.0</ele><time>2026-03-31T14:23:13.161Z</time></trkpt><trkpt lat="41.20049" lon="-0.0130183"><ele>218.0</ele><time>2026-03-31T14:23:14.16Z</time></trkpt><trkpt lat="41.200665" lon="-0.0129383"><ele>218.0</ele><time>2026-03-31T14:23:15.161Z</time></trkpt><trkpt lat="41.200835" lon="-0.0128633"><ele>218.0</ele><time>2026-03-31T14:23:16.16Z</time></trkpt><trkpt lat="41.2009967" lon="-0.0127983"><ele>219.66666666666669</ele><time>2026-03-31T14:23:17.161Z</time></trkpt><trkpt lat="41.20115" lon="-0.0127467"><ele>221.33333333333331</ele><time>2026-03-31T14:23:18.16Z</time></trkpt><trkpt lat="41.2013" lon="-0.0127167"><ele>223.0</ele><time>2026-03-31T14:23:19.16Z</time></trkpt><trkpt lat="41.201455" lon="-0.01272"><ele>222.66666666666666</ele><time>2026-03-31T14:23:20.16Z</time></trkpt><trkpt lat="41.2016083" lon="-0.01276"><ele>222.33333333333331</ele><time>2026-03-31T14:23:21.16Z</time></trkpt><trkpt lat="41.20176" lon="-0.0128383"><ele>222.0</ele><time>2026-03-31T14:23:22.161Z</time></trkpt><trkpt lat="41.2019017" lon="-0.01296"><ele>222.0</ele><time>2026-03-31T14:23:23.16Z</time></trkpt><trkpt lat="41.202035" lon="-0.0130883"><ele>222.0</ele><time>2026-03-31T14:23:24.161Z</time></trkpt><trkpt lat="41.2021767" lon="-0.013235"><ele>222.0</ele><time>2026-03-31T14:23:25.161Z</time></trkpt><trkpt lat="41.202315" lon="-0.0133667"><ele>220.66666666666669</ele><time>2026-03-31T14:23:26.161Z</time></trkpt><trkpt lat="41.2024817" lon="-0.0134767"><ele>219.33333333333334</ele><time>2026-03-31T14:23:27.161Z</time></trkpt><trkpt lat="41.2026533" lon="-0.0135567"><ele>218.0</ele><time>2026-03-31T14:23:28.16Z</time></trkpt><trkpt lat="41.2028433" lon="-0.0136067"><ele>218.0</ele><time>2026-03-31T14:23:29.16Z</time></trkpt><trkpt lat="41.2030333" lon="-0.01364"><ele>218.0</ele><time>2026-03-31T14:23:30.16Z</time></trkpt><trkpt lat="41.2032333" lon="-0.0136683"><ele>218.0</ele><time>2026-03-31T14:23:31.16Z</time></trkpt><trkpt lat="41.2034417" lon="-0.0136833"><ele>216.66666666666669</ele><time>2026-03-31T14:23:32.161Z</time></trkpt><trkpt lat="41.20364" lon="-0.0136833"><ele>215.33333333333331</ele><time>2026-03-31T14:23:33.16Z</time></trkpt><trkpt lat="41.2038383" lon="-0.0136867"><ele>214.0</ele><time>2026-03-31T14:23:34.16Z</time></trkpt><trkpt lat="41.2040267" lon="-0.0136983"><ele>213.33333333333331</ele><time>2026-03-31T14:23:35.16Z</time></trkpt><trkpt lat="41.2042217" lon="-0.0137017"><ele>212.66666666666669</ele><time>2026-03-31T14:23:36.16Z</time></trkpt><trkpt lat="41.2044133" lon="-0.0136933"><ele>212.0</ele><time>2026-03-31T14:23:37.16Z</time></trkpt><trkpt lat="41.204605" lon="-0.013665"><ele>212.0</ele><time>2026-03-31T14:23:38.161Z</time></trkpt><trkpt lat="41.2047967" lon="-0.013635"><ele>212.0</ele><time>2026-03-31T14:23:39.161Z</time></trkpt><trkpt lat="41.20499" lon="-0.0135983"><ele>212.0</ele><time>2026-03-31T14:23:40.161Z</time></trkpt><trkpt lat="41.2051833" lon="-0.0135667"><ele>211.0</ele><time>2026-03-31T14:23:41.16Z</time></trkpt><trkpt lat="41.2053833" lon="-0.0135233"><ele>210.0</ele><time>2026-03-31T14:23:42.161Z</time></trkpt><trkpt lat="41.2055783" lon="-0.0134833"><ele>209.0</ele><time>2026-03-31T14:23:43.161Z</time></trkpt><trkpt lat="41.2057767" lon="-0.0134367"><ele>207.66666666666669</ele><time>2026-03-31T14:23:44.16Z</time></trkpt><trkpt lat="41.2059783" lon="-0.0133983"><ele>206.33333333333331</ele><time>2026-03-31T14:23:45.16Z</time></trkpt><trkpt lat="41.2061833" lon="-0.013355"><ele>205.0</ele><time>2026-03-31T14:23:46.161Z</time></trkpt><trkpt lat="41.2063833" lon="-0.01331"><ele>203.66666666666666</ele><time>2026-03-31T14:23:47.16Z</time></trkpt><trkpt lat="41.2065867" lon="-0.0132533"><ele>202.33333333333331</ele><time>2026-03-31T14:23:48.16Z</time></trkpt><trkpt lat="41.206775" lon="-0.0131817"><ele>201.0</ele><time>2026-03-31T14:23:49.161Z</time></trkpt><trkpt lat="41.20695" lon="-0.013095"><ele>201.0</ele><time>2026-03-31T14:23:50.161Z</time></trkpt><trkpt lat="41.2071167" lon="-0.0130183"><ele>201.0</ele><time>2026-03-31T14:23:51.161Z</time></trkpt><trkpt lat="41.2072933" lon="-0.0129567"><ele>201.0</ele><time>2026-03-31T14:23:52.16Z</time></trkpt><trkpt lat="41.207475" lon="-0.0129067"><ele>200.0</ele><time>2026-03-31T14:23:53.161Z</time></trkpt><trkpt lat="41.2076667" lon="-0.0128717"><ele>199.0</ele><time>2026-03-31T14:23:54.161Z</time></trkpt><trkpt lat="41.2078617" lon="-0.0128483"><ele>198.0</ele><time>2026-03-31T14:23:55.161Z</time></trkpt><trkpt lat="41.2080567" lon="-0.0128333"><ele>196.66666666666669</ele><time>2026-03-31T14:23:56.16Z</time></trkpt><trkpt lat="41.208255" lon="-0.0128183"><ele>195.33333333333334</ele><time>2026-03-31T14:23:57.161Z</time></trkpt><trkpt lat="41.208445" lon="-0.0127933"><ele>194.0</ele><time>2026-03-31T14:23:58.16Z</time></trkpt><trkpt lat="41.2086333" lon="-0.01276"><ele>194.0</ele><time>2026-03-31T14:23:59.16Z</time></trkpt><trkpt lat="41.2088183" lon="-0.0127283"><ele>194.0</ele><time>2026-03-31T14:24:00.161Z</time></trkpt><trkpt lat="41.2089917" lon="-0.0126983"><ele>194.0</ele><time>2026-03-31T14:24:01.161Z</time></trkpt><trkpt lat="41.2091617" lon="-0.0126617"><ele>194.33333333333334</ele><time>2026-03-31T14:24:02.161Z</time></trkpt><trkpt lat="41.20933" lon="-0.01262"><ele>194.66666666666669</ele><time>2026-03-31T14:24:03.16Z</time></trkpt><trkpt lat="41.2094883" lon="-0.0125683"><ele>195.0</ele><time>2026-03-31T14:24:04.16Z</time></trkpt><trkpt lat="41.209655" lon="-0.0125167"><ele>193.33333333333334</ele><time>2026-03-31T14:24:05.16Z</time></trkpt><trkpt lat="41.2098" lon="-0.0124383"><ele>191.66666666666669</ele><time>2026-03-31T14:24:06.16Z</time></trkpt><trkpt lat="41.20994" lon="-0.0123417"><ele>190.0</ele><time>2026-03-31T14:24:07.161Z</time></trkpt><trkpt lat="41.21008" lon="-0.01222"><ele>189.66666666666669</ele><time>2026-03-31T14:24:08.161Z</time></trkpt><trkpt lat="41.2102133" lon="-0.0120783"><ele>189.33333333333334</ele><time>2026-03-31T14:24:09.16Z</time></trkpt><trkpt lat="41.21034" lon="-0.01192"><ele>189.0</ele><time>2026-03-31T14:24:10.161Z</time></trkpt><trkpt lat="41.2104667" lon="-0.0117533"><ele>188.66666666666666</ele><time>2026-03-31T14:24:11.16Z</time></trkpt><trkpt lat="41.210595" lon="-0.0115817"><ele>188.33333333333331</ele><time>2026-03-31T14:24:12.161Z</time></trkpt><trkpt lat="41.2107233" lon="-0.01141"><ele>188.0</ele><time>2026-03-31T14:24:13.16Z</time></trkpt><trkpt lat="41.2108617" lon="-0.011245"><ele>189.33333333333331</ele><time>2026-03-31T14:24:14.16Z</time></trkpt><trkpt lat="41.211005" lon="-0.011095"><ele>190.66666666666666</ele><time>2026-03-31T14:24:15.16Z</time></trkpt><trkpt lat="41.2111633" lon="-0.010965"><ele>192.0</ele><time>2026-03-31T14:24:16.16Z</time></trkpt><trkpt lat="41.2113167" lon="-0.0108433"><ele>193.0</ele><time>2026-03-31T14:24:17.161Z</time></trkpt><trkpt lat="41.2114783" lon="-0.0107433"><ele>194.0</ele><time>2026-03-31T14:24:18.16Z</time></trkpt><trkpt lat="41.2116417" lon="-0.0106433"><ele>195.0</ele><time>2026-03-31T14:24:19.16Z</time></trkpt><trkpt lat="41.2118017" lon="-0.0105467"><ele>195.0</ele><time>2026-03-31T14:24:20.161Z</time></trkpt><trkpt lat="41.2119617" lon="-0.0104617"><ele>195.0</ele><time>2026-03-31T14:24:21.16Z</time></trkpt><trkpt lat="41.2121267" lon="-0.0103817"><ele>195.0</ele><time>2026-03-31T14:24:22.16Z</time></trkpt><trkpt lat="41.2122933" lon="-0.0103"><ele>194.66666666666669</ele><time>2026-03-31T14:24:23.161Z</time></trkpt><trkpt lat="41.2124533" lon="-0.0102033"><ele>194.33333333333334</ele><time>2026-03-31T14:24:24.16Z</time></trkpt><trkpt lat="41.2126017" lon="-0.0100717"><ele>194.0</ele><time>2026-03-31T14:24:25.161Z</time></trkpt><trkpt lat="41.2127283" lon="-0.0099"><ele>194.0</ele><time>2026-03-31T14:24:26.16Z</time></trkpt><trkpt lat="41.21286" lon="-0.0097283"><ele>194.0</ele><time>2026-03-31T14:24:27.16Z</time></trkpt><trkpt lat="41.2129933" lon="-0.009545"><ele>194.0</ele><time>2026-03-31T14:24:28.16Z</time></trkpt><trkpt lat="41.2131267" lon="-0.00936"><ele>193.66666666666669</ele><time>2026-03-31T14:24:29.16Z</time></trkpt><trkpt lat="41.213265" lon="-0.009195"><ele>193.33333333333331</ele><time>2026-03-31T14:24:30.16Z</time></trkpt><trkpt lat="41.2134033" lon="-0.0090267"><ele>193.0</ele><time>2026-03-31T14:24:31.16Z</time></trkpt><trkpt lat="41.213545" lon="-0.00887"><ele>193.0</ele><time>2026-03-31T14:24:32.16Z</time></trkpt><trkpt lat="41.2136817" lon="-0.008725"><ele>193.0</ele><time>2026-03-31T14:24:33.16Z</time></trkpt><trkpt lat="41.2138133" lon="-0.0086083"><ele>193.0</ele><time>2026-03-31T14:24:34.161Z</time></trkpt><trkpt lat="41.2139367" lon="-0.0085083"><ele>193.0</ele><time>2026-03-31T14:24:35.16Z</time></trkpt><trkpt lat="41.2140517" lon="-0.0084283"><ele>193.0</ele><time>2026-03-31T14:24:36.16Z</time></trkpt><trkpt lat="41.2141467" lon="-0.0083617"><ele>193.0</ele><time>2026-03-31T14:24:37.161Z</time></trkpt><trkpt lat="41.2142183" lon="-0.0083117"><ele>193.0</ele><time>2026-03-31T14:24:38.161Z</time></trkpt><trkpt lat="41.2142833" lon="-0.0082033"><ele>193.0</ele><time>2026-03-31T14:24:40.161Z</time></trkpt><trkpt lat="41.2143083" lon="-0.0080317"><ele>192.0</ele><time>2026-03-31T14:24:42.16Z</time></trkpt><trkpt lat="41.2143017" lon="-0.00792"><ele>191.0</ele><time>2026-03-31T14:24:43.161Z</time></trkpt><trkpt lat="41.21427" lon="-0.00777"><ele>190.0</ele><time>2026-03-31T14:24:44.16Z</time></trkpt><trkpt lat="41.2142333" lon="-0.007605"><ele>189.0</ele><time>2026-03-31T14:24:45.16Z</time></trkpt><trkpt lat="41.2141983" lon="-0.0074133"><ele>188.33333333333334</ele><time>2026-03-31T14:24:46.16Z</time></trkpt><trkpt lat="41.2141817" lon="-0.00721"><ele>187.66666666666669</ele><time>2026-03-31T14:24:47.16Z</time></trkpt><trkpt lat="41.2141717" lon="-0.0069917"><ele>187.0</ele><time>2026-03-31T14:24:48.159Z</time></trkpt><trkpt lat="41.2141717" lon="-0.00676"><ele>187.0</ele><time>2026-03-31T14:24:49.16Z</time></trkpt><trkpt lat="41.2141783" lon="-0.0065233"><ele>187.0</ele><time>2026-03-31T14:24:50.16Z</time></trkpt><trkpt lat="41.21421" lon="-0.00628"><ele>187.0</ele><time>2026-03-31T14:24:51.159Z</time></trkpt><trkpt lat="41.2142567" lon="-0.0060283"><ele>187.33333333333334</ele><time>2026-03-31T14:24:52.159Z</time></trkpt><trkpt lat="41.2143267" lon="-0.0057767"><ele>187.66666666666666</ele><time>2026-03-31T14:24:53.16Z</time></trkpt><trkpt lat="41.2144067" lon="-0.005515"><ele>188.0</ele><time>2026-03-31T14:24:54.16Z</time></trkpt><trkpt lat="41.2144983" lon="-0.0052517"><ele>188.5</ele><time>2026-03-31T14:24:55.159Z</time></trkpt><trkpt lat="41.2145883" lon="-0.00498"><ele>189.0</ele><time>2026-03-31T14:24:56.159Z</time></trkpt><trkpt lat="41.2146767" lon="-0.0047"><ele>189.0</ele><time>2026-03-31T14:24:57.16Z</time></trkpt><trkpt lat="41.2147683" lon="-0.0044117"><ele>189.0</ele><time>2026-03-31T14:24:58.159Z</time></trkpt><trkpt lat="41.2148567" lon="-0.00412"><ele>186.0</ele><time>2026-03-31T14:24:59.16Z</time></trkpt><trkpt lat="41.214925" lon="-0.0038167"><ele>183.0</ele><time>2026-03-31T14:25:00.159Z</time></trkpt><trkpt lat="41.214975" lon="-0.0035033"><ele>181.5</ele><time>2026-03-31T14:25:01.159Z</time></trkpt><trkpt lat="41.215" lon="-0.00318"><ele>180.0</ele><time>2026-03-31T14:25:02.16Z</time></trkpt><trkpt lat="41.2150017" lon="-0.0028567"><ele>180.0</ele><time>2026-03-31T14:25:03.16Z</time></trkpt><trkpt lat="41.2149817" lon="-0.002515"><ele>180.0</ele><time>2026-03-31T14:25:04.159Z</time></trkpt><trkpt lat="41.2149683" lon="-0.002165"><ele>178.5</ele><time>2026-03-31T14:25:05.159Z</time></trkpt><trkpt lat="41.2149483" lon="-0.001815"><ele>177.0</ele><time>2026-03-31T14:25:06.159Z</time></trkpt><trkpt lat="41.214935" lon="-0.0014683"><ele>175.5</ele><time>2026-03-31T14:25:07.16Z</time></trkpt><trkpt lat="41.2149117" lon="-0.0011217"><ele>174.0</ele><time>2026-03-31T14:25:08.159Z</time></trkpt><trkpt lat="41.2148867" lon="-7.833E-4"><ele>173.5</ele><time>2026-03-31T14:25:09.159Z</time></trkpt><trkpt lat="41.2148683" lon="-4.433E-4"><ele>173.0</ele><time>2026-03-31T14:25:10.16Z</time></trkpt><trkpt lat="41.21486" lon="-1.117E-4"><ele>173.0</ele><time>2026-03-31T14:25:11.159Z</time></trkpt><trkpt lat="41.2148383" lon="2.267E-4"><ele>173.0</ele><time>2026-03-31T14:25:12.16Z</time></trkpt><trkpt lat="41.2147933" lon="5.567E-4"><ele>177.0</ele><time>2026-03-31T14:25:13.159Z</time></trkpt><trkpt lat="41.2147517" lon="8.867E-4"><ele>181.0</ele><time>2026-03-31T14:25:14.159Z</time></trkpt><trkpt lat="41.2147033" lon="0.001225"><ele>181.0</ele><time>2026-03-31T14:25:15.159Z</time></trkpt><trkpt lat="41.2146567" lon="0.001565"><ele>181.0</ele><time>2026-03-31T14:25:16.159Z</time></trkpt><trkpt lat="41.2145983" lon="0.0019"><ele>179.5</ele><time>2026-03-31T14:25:17.159Z</time></trkpt><trkpt lat="41.214555" lon="0.0022417"><ele>178.0</ele><time>2026-03-31T14:25:18.159Z</time></trkpt><trkpt lat="41.21451" lon="0.0025833"><ele>175.5</ele><time>2026-03-31T14:25:19.16Z</time></trkpt><trkpt lat="41.2144667" lon="0.0029217"><ele>173.0</ele><time>2026-03-31T14:25:20.159Z</time></trkpt><trkpt lat="41.2144217" lon="0.0032683"><ele>170.5</ele><time>2026-03-31T14:25:21.159Z</time></trkpt><trkpt lat="41.2143733" lon="0.0036067"><ele>168.0</ele><time>2026-03-31T14:25:22.159Z</time></trkpt><trkpt lat="41.2143083" lon="0.0039417"><ele>166.5</ele><time>2026-03-31T14:25:23.16Z</time></trkpt><trkpt lat="41.2142467" lon="0.0042667"><ele>165.0</ele><time>2026-03-31T14:25:24.16Z</time></trkpt><trkpt lat="41.214185" lon="0.0045967"><ele>165.0</ele><time>2026-03-31T14:25:25.16Z</time></trkpt><trkpt lat="41.2141033" lon="0.0049183"><ele>165.0</ele><time>2026-03-31T14:25:26.159Z</time></trkpt><trkpt lat="41.214005" lon="0.005235"><ele>163.5</ele><time>2026-03-31T14:25:27.16Z</time></trkpt><trkpt lat="41.2139083" lon="0.00554"><ele>162.0</ele><time>2026-03-31T14:25:28.159Z</time></trkpt><trkpt lat="41.213805" lon="0.0058367"><ele>162.0</ele><time>2026-03-31T14:25:29.159Z</time></trkpt><trkpt lat="41.2136933" lon="0.006115"><ele>162.0</ele><time>2026-03-31T14:25:30.159Z</time></trkpt><trkpt lat="41.2135783" lon="0.0063917"><ele>162.0</ele><time>2026-03-31T14:25:31.159Z</time></trkpt><trkpt lat="41.2134583" lon="0.00666"><ele>162.0</ele><time>2026-03-31T14:25:32.159Z</time></trkpt><trkpt lat="41.21334" lon="0.0069317"><ele>161.0</ele><time>2026-03-31T14:25:33.16Z</time></trkpt><trkpt lat="41.2132183" lon="0.0072067"><ele>160.0</ele><time>2026-03-31T14:25:34.159Z</time></trkpt><trkpt lat="41.2130967" lon="0.0074733"><ele>159.0</ele><time>2026-03-31T14:25:35.159Z</time></trkpt><trkpt lat="41.21298" lon="0.0077383"><ele>158.0</ele><time>2026-03-31T14:25:36.159Z</time></trkpt><trkpt lat="41.2128517" lon="0.008"><ele>158.0</ele><time>2026-03-31T14:25:37.159Z</time></trkpt><trkpt lat="41.2127283" lon="0.0082517"><ele>158.0</ele><time>2026-03-31T14:25:38.159Z</time></trkpt><trkpt lat="41.2125917" lon="0.0085133"><ele>157.0</ele><time>2026-03-31T14:25:39.16Z</time></trkpt><trkpt lat="41.2124483" lon="0.0087717"><ele>156.0</ele><time>2026-03-31T14:25:40.159Z</time></trkpt><trkpt lat="41.2123" lon="0.00903"><ele>154.5</ele><time>2026-03-31T14:25:41.16Z</time></trkpt><trkpt lat="41.2121583" lon="0.0092833"><ele>153.0</ele><time>2026-03-31T14:25:42.159Z</time></trkpt><trkpt lat="41.212" lon="0.0095417"><ele>153.0</ele><time>2026-03-31T14:25:43.159Z</time></trkpt><trkpt lat="41.2118417" lon="0.0097817"><ele>153.0</ele><time>2026-03-31T14:25:44.159Z</time></trkpt><trkpt lat="41.211675" lon="0.009995"><ele>149.0</ele><time>2026-03-31T14:25:45.16Z</time></trkpt><trkpt lat="41.2114917" lon="0.010195"><ele>145.0</ele><time>2026-03-31T14:25:46.159Z</time></trkpt><trkpt lat="41.2112883" lon="0.0103667"><ele>144.0</ele><time>2026-03-31T14:25:47.16Z</time></trkpt><trkpt lat="41.2110817" lon="0.01053"><ele>143.0</ele><time>2026-03-31T14:25:48.16Z</time></trkpt><trkpt lat="41.210855" lon="0.0106817"><ele>140.0</ele><time>2026-03-31T14:25:49.16Z</time></trkpt><trkpt lat="41.21063" lon="0.01083"><ele>137.0</ele><time>2026-03-31T14:25:50.16Z</time></trkpt><trkpt lat="41.2104067" lon="0.01097"><ele>137.0</ele><time>2026-03-31T14:25:51.16Z</time></trkpt><trkpt lat="41.2101883" lon="0.0111033"><ele>137.0</ele><time>2026-03-31T14:25:52.159Z</time></trkpt><trkpt lat="41.2099633" lon="0.011235"><ele>136.5</ele><time>2026-03-31T14:25:53.159Z</time></trkpt><trkpt lat="41.20974" lon="0.0113617"><ele>136.0</ele><time>2026-03-31T14:25:54.159Z</time></trkpt><trkpt lat="41.2095217" lon="0.0114883"><ele>136.0</ele><time>2026-03-31T14:25:55.16Z</time></trkpt><trkpt lat="41.2093" lon="0.01163"><ele>136.0</ele><time>2026-03-31T14:25:56.16Z</time></trkpt><trkpt lat="41.209085" lon="0.0117983"><ele>137.5</ele><time>2026-03-31T14:25:57.16Z</time></trkpt><trkpt lat="41.208885" lon="0.0119767"><ele>139.0</ele><time>2026-03-31T14:25:58.159Z</time></trkpt><trkpt lat="41.2087033" lon="0.01219"><ele>139.0</ele><time>2026-03-31T14:25:59.16Z</time></trkpt><trkpt lat="41.2085367" lon="0.0124167"><ele>139.0</ele><time>2026-03-31T14:26:00.16Z</time></trkpt><trkpt lat="41.2083817" lon="0.0126567"><ele>139.0</ele><time>2026-03-31T14:26:01.159Z</time></trkpt><trkpt lat="41.20823" lon="0.0129033"><ele>139.0</ele><time>2026-03-31T14:26:02.159Z</time></trkpt><trkpt lat="41.208105" lon="0.013175"><ele>140.5</ele><time>2026-03-31T14:26:03.16Z</time></trkpt><trkpt lat="41.20801" lon="0.0134617"><ele>142.0</ele><time>2026-03-31T14:26:04.159Z</time></trkpt><trkpt lat="41.2079283" lon="0.0137633"><ele>142.0</ele><time>2026-03-31T14:26:05.16Z</time></trkpt><trkpt lat="41.2078817" lon="0.0140683"><ele>142.0</ele><time>2026-03-31T14:26:06.159Z</time></trkpt><trkpt lat="41.207835" lon="0.0143767"><ele>144.5</ele><time>2026-03-31T14:26:07.16Z</time></trkpt><trkpt lat="41.207805" lon="0.0146967"><ele>147.0</ele><time>2026-03-31T14:26:08.16Z</time></trkpt><trkpt lat="41.2078" lon="0.0150133"><ele>148.0</ele><time>2026-03-31T14:26:09.159Z</time></trkpt><trkpt lat="41.20781" lon="0.0153417"><ele>149.0</ele><time>2026-03-31T14:26:10.16Z</time></trkpt><trkpt lat="41.2078267" lon="0.01567"><ele>150.5</ele><time>2026-03-31T14:26:11.159Z</time></trkpt><trkpt lat="41.20785" lon="0.0159917"><ele>152.0</ele><time>2026-03-31T14:26:12.16Z</time></trkpt><trkpt lat="41.2078683" lon="0.0163183"><ele>152.0</ele><time>2026-03-31T14:26:13.159Z</time></trkpt><trkpt lat="41.207885" lon="0.0166417"><ele>152.0</ele><time>2026-03-31T14:26:14.159Z</time></trkpt><trkpt lat="41.207905" lon="0.0169517"><ele>155.5</ele><time>2026-03-31T14:26:15.159Z</time></trkpt><trkpt lat="41.2079267" lon="0.0172633"><ele>159.0</ele><time>2026-03-31T14:26:16.16Z</time></trkpt><trkpt lat="41.2079467" lon="0.0175733"><ele>161.0</ele><time>2026-03-31T14:26:17.159Z</time></trkpt><trkpt lat="41.20797" lon="0.0178883"><ele>163.0</ele><time>2026-03-31T14:26:18.16Z</time></trkpt><trkpt lat="41.2079883" lon="0.0182017"><ele>165.0</ele><time>2026-03-31T14:26:19.16Z</time></trkpt><trkpt lat="41.2080083" lon="0.0185217"><ele>167.0</ele><time>2026-03-31T14:26:20.159Z</time></trkpt><trkpt lat="41.2080317" lon="0.0188433"><ele>168.0</ele><time>2026-03-31T14:26:21.159Z</time></trkpt><trkpt lat="41.2080533" lon="0.0191683"><ele>169.0</ele><time>2026-03-31T14:26:22.16Z</time></trkpt><trkpt lat="41.2080667" lon="0.01949"><ele>169.0</ele><time>2026-03-31T14:26:23.16Z</time></trkpt><trkpt lat="41.208095" lon="0.0198183"><ele>169.0</ele><time>2026-03-31T14:26:24.16Z</time></trkpt><trkpt lat="41.2081167" lon="0.0201467"><ele>167.5</ele><time>2026-03-31T14:26:25.16Z</time></trkpt><trkpt lat="41.2081367" lon="0.0204767"><ele>166.0</ele><time>2026-03-31T14:26:26.16Z</time></trkpt><trkpt lat="41.2081617" lon="0.02082"><ele>166.0</ele><time>2026-03-31T14:26:27.159Z</time></trkpt><trkpt lat="41.2081817" lon="0.0211633"><ele>166.0</ele><time>2026-03-31T14:26:28.16Z</time></trkpt><trkpt lat="41.2082033" lon="0.0215017"><ele>165.0</ele><time>2026-03-31T14:26:29.16Z</time></trkpt><trkpt lat="41.2082283" lon="0.0218333"><ele>164.0</ele><time>2026-03-31T14:26:30.16Z</time></trkpt><trkpt lat="41.2082483" lon="0.02217"><ele>164.5</ele><time>2026-03-31T14:26:31.16Z</time></trkpt><trkpt lat="41.208275" lon="0.0224933"><ele>165.0</ele><time>2026-03-31T14:26:32.159Z</time></trkpt><trkpt lat="41.2082967" lon="0.0228167"><ele>165.0</ele><time>2026-03-31T14:26:33.159Z</time></trkpt><trkpt lat="41.2083133" lon="0.0231483"><ele>165.0</ele><time>2026-03-31T14:26:34.159Z</time></trkpt><trkpt lat="41.208335" lon="0.0234683"><ele>165.5</ele><time>2026-03-31T14:26:35.16Z</time></trkpt><trkpt lat="41.20836" lon="0.0237867"><ele>166.0</ele><time>2026-03-31T14:26:36.159Z</time></trkpt><trkpt lat="41.208385" lon="0.02411"><ele>165.0</ele><time>2026-03-31T14:26:37.16Z</time></trkpt><trkpt lat="41.2084033" lon="0.0244433"><ele>164.0</ele><time>2026-03-31T14:26:38.159Z</time></trkpt><trkpt lat="41.2084217" lon="0.0247683"><ele>165.5</ele><time>2026-03-31T14:26:39.16Z</time></trkpt><trkpt lat="41.208435" lon="0.0250983"><ele>167.0</ele><time>2026-03-31T14:26:40.159Z</time></trkpt><trkpt lat="41.2084433" lon="0.025425"><ele>167.0</ele><time>2026-03-31T14:26:41.159Z</time></trkpt><trkpt lat="41.20846" lon="0.02574"><ele>167.0</ele><time>2026-03-31T14:26:42.16Z</time></trkpt><trkpt lat="41.2084767" lon="0.0260467"><ele>168.0</ele><time>2026-03-31T14:26:43.16Z</time></trkpt><trkpt lat="41.2084883" lon="0.0263517"><ele>169.0</ele><time>2026-03-31T14:26:44.159Z</time></trkpt><trkpt lat="41.2085" lon="0.02665"><ele>170.0</ele><time>2026-03-31T14:26:45.159Z</time></trkpt><trkpt lat="41.208505" lon="0.0269633"><ele>171.0</ele><time>2026-03-31T14:26:46.16Z</time></trkpt><trkpt lat="41.208505" lon="0.02729"><ele>171.5</ele><time>2026-03-31T14:26:47.16Z</time></trkpt><trkpt lat="41.2085" lon="0.0276133"><ele>172.0</ele><time>2026-03-31T14:26:48.159Z</time></trkpt><trkpt lat="41.2084933" lon="0.0279417"><ele>172.0</ele><time>2026-03-31T14:26:49.159Z</time></trkpt><trkpt lat="41.2084867" lon="0.0282833"><ele>172.0</ele><time>2026-03-31T14:26:50.159Z</time></trkpt><trkpt lat="41.2084833" lon="0.028625"><ele>172.5</ele><time>2026-03-31T14:26:51.159Z</time></trkpt><trkpt lat="41.208475" lon="0.0289667"><ele>173.0</ele><time>2026-03-31T14:26:52.16Z</time></trkpt><trkpt lat="41.20847" lon="0.029305"><ele>173.0</ele><time>2026-03-31T14:26:53.16Z</time></trkpt><trkpt lat="41.2084667" lon="0.02965"><ele>173.0</ele><time>2026-03-31T14:26:54.16Z</time></trkpt><trkpt lat="41.2084617" lon="0.0299917"><ele>173.5</ele><time>2026-03-31T14:26:55.159Z</time></trkpt><trkpt lat="41.208455" lon="0.0303333"><ele>174.0</ele><time>2026-03-31T14:26:56.159Z</time></trkpt><trkpt lat="41.2084517" lon="0.03068"><ele>174.5</ele><time>2026-03-31T14:26:57.16Z</time></trkpt><trkpt lat="41.2084517" lon="0.0310233"><ele>175.0</ele><time>2026-03-31T14:26:58.16Z</time></trkpt><trkpt lat="41.2084483" lon="0.03137"><ele>174.0</ele><time>2026-03-31T14:26:59.16Z</time></trkpt><trkpt lat="41.2084417" lon="0.0317017"><ele>173.0</ele><time>2026-03-31T14:27:00.159Z</time></trkpt><trkpt lat="41.208415" lon="0.032045"><ele>173.0</ele><time>2026-03-31T14:27:01.16Z</time></trkpt><trkpt lat="41.2083783" lon="0.032375"><ele>173.0</ele><time>2026-03-31T14:27:02.159Z</time></trkpt><trkpt lat="41.2083067" lon="0.03269"><ele>173.5</ele><time>2026-03-31T14:27:03.159Z</time></trkpt><trkpt lat="41.2082017" lon="0.0330117"><ele>174.0</ele><time>2026-03-31T14:27:04.159Z</time></trkpt><trkpt lat="41.2080917" lon="0.0333067"><ele>178.0</ele><time>2026-03-31T14:27:05.159Z</time></trkpt><trkpt lat="41.2079733" lon="0.0336017"><ele>182.0</ele><time>2026-03-31T14:27:06.16Z</time></trkpt><trkpt lat="41.2078483" lon="0.0338967"><ele>181.5</ele><time>2026-03-31T14:27:07.16Z</time></trkpt><trkpt lat="41.2077217" lon="0.0341833"><ele>181.0</ele><time>2026-03-31T14:27:08.159Z</time></trkpt><trkpt lat="41.2075933" lon="0.034475"><ele>181.0</ele><time>2026-03-31T14:27:09.159Z</time></trkpt><trkpt lat="41.207465" lon="0.0347667"><ele>181.0</ele><time>2026-03-31T14:27:10.159Z</time></trkpt><trkpt lat="41.2073467" lon="0.0350567"><ele>183.0</ele><time>2026-03-31T14:27:11.159Z</time></trkpt><trkpt lat="41.20722" lon="0.0353567"><ele>185.0</ele><time>2026-03-31T14:27:12.16Z</time></trkpt><trkpt lat="41.20709" lon="0.0356383"><ele>186.5</ele><time>2026-03-31T14:27:13.159Z</time></trkpt><trkpt lat="41.20695" lon="0.0359183"><ele>188.0</ele><time>2026-03-31T14:27:14.159Z</time></trkpt><trkpt lat="41.2068" lon="0.0361917"><ele>188.0</ele><time>2026-03-31T14:27:15.159Z</time></trkpt><trkpt lat="41.2066467" lon="0.0364683"><ele>188.0</ele><time>2026-03-31T14:27:16.159Z</time></trkpt><trkpt lat="41.2064933" lon="0.036745"><ele>193.5</ele><time>2026-03-31T14:27:17.159Z</time></trkpt><trkpt lat="41.2063367" lon="0.0370217"><ele>199.0</ele><time>2026-03-31T14:27:18.159Z</time></trkpt><trkpt lat="41.206185" lon="0.0372967"><ele>198.0</ele><time>2026-03-31T14:27:19.16Z</time></trkpt><trkpt lat="41.2060283" lon="0.0375633"><ele>197.0</ele><time>2026-03-31T14:27:20.16Z</time></trkpt><trkpt lat="41.205865" lon="0.0378317"><ele>197.0</ele><time>2026-03-31T14:27:21.159Z</time></trkpt><trkpt lat="41.2057" lon="0.0380983"><ele>197.0</ele><time>2026-03-31T14:27:22.159Z</time></trkpt><trkpt lat="41.20553" lon="0.038355"><ele>196.5</ele><time>2026-03-31T14:27:23.16Z</time></trkpt><trkpt lat="41.2053517" lon="0.0386"><ele>196.0</ele><time>2026-03-31T14:27:24.16Z</time></trkpt><trkpt lat="41.2051583" lon="0.0388333"><ele>196.0</ele><time>2026-03-31T14:27:25.159Z</time></trkpt><trkpt lat="41.2049667" lon="0.03905"><ele>196.0</ele><time>2026-03-31T14:27:26.159Z</time></trkpt><trkpt lat="41.204765" lon="0.03925"><ele>195.5</ele><time>2026-03-31T14:27:27.16Z</time></trkpt><trkpt lat="41.2045617" lon="0.0394517"><ele>195.0</ele><time>2026-03-31T14:27:28.159Z</time></trkpt><trkpt lat="41.2043533" lon="0.039635"><ele>195.0</ele><time>2026-03-31T14:27:29.16Z</time></trkpt><trkpt lat="41.2041367" lon="0.0398083"><ele>195.0</ele><time>2026-03-31T14:27:30.16Z</time></trkpt><trkpt lat="41.2039117" lon="0.0399767"><ele>193.5</ele><time>2026-03-31T14:27:31.16Z</time></trkpt><trkpt lat="41.2036817" lon="0.04013"><ele>192.0</ele><time>2026-03-31T14:27:32.16Z</time></trkpt><trkpt lat="41.2034483" lon="0.04027"><ele>192.0</ele><time>2026-03-31T14:27:33.159Z</time></trkpt><trkpt lat="41.2032233" lon="0.0404117"><ele>192.0</ele><time>2026-03-31T14:27:34.159Z</time></trkpt><trkpt lat="41.2029883" lon="0.0405467"><ele>190.5</ele><time>2026-03-31T14:27:35.159Z</time></trkpt><trkpt lat="41.20276" lon="0.040675"><ele>189.0</ele><time>2026-03-31T14:27:36.159Z</time></trkpt><trkpt lat="41.202525" lon="0.0408117"><ele>189.0</ele><time>2026-03-31T14:27:37.159Z</time></trkpt><trkpt lat="41.2023033" lon="0.0409483"><ele>189.0</ele><time>2026-03-31T14:27:38.16Z</time></trkpt><trkpt lat="41.2020767" lon="0.0410783"><ele>189.0</ele><time>2026-03-31T14:27:39.16Z</time></trkpt><trkpt lat="41.201855" lon="0.04121"><ele>189.0</ele><time>2026-03-31T14:27:40.159Z</time></trkpt><trkpt lat="41.201635" lon="0.041345"><ele>185.0</ele><time>2026-03-31T14:27:41.159Z</time></trkpt><trkpt lat="41.2014067" lon="0.0414717"><ele>181.0</ele><time>2026-03-31T14:27:42.16Z</time></trkpt><trkpt lat="41.20118" lon="0.041605"><ele>184.0</ele><time>2026-03-31T14:27:43.16Z</time></trkpt><trkpt lat="41.2009567" lon="0.041735"><ele>187.0</ele><time>2026-03-31T14:27:44.159Z</time></trkpt><trkpt lat="41.200725" lon="0.041865"><ele>180.0</ele><time>2026-03-31T14:27:45.159Z</time></trkpt><trkpt lat="41.2004933" lon="0.0419933"><ele>173.0</ele><time>2026-03-31T14:27:46.16Z</time></trkpt><trkpt lat="41.2002633" lon="0.0421267"><ele>173.0</ele><time>2026-03-31T14:27:47.159Z</time></trkpt><trkpt lat="41.200035" lon="0.042255"><ele>173.0</ele><time>2026-03-31T14:27:48.159Z</time></trkpt><trkpt lat="41.1998067" lon="0.0423733"><ele>171.5</ele><time>2026-03-31T14:27:49.16Z</time></trkpt><trkpt lat="41.1995717" lon="0.042465"><ele>170.0</ele><time>2026-03-31T14:27:50.159Z</time></trkpt><trkpt lat="41.19933" lon="0.0425167"><ele>170.0</ele><time>2026-03-31T14:27:51.159Z</time></trkpt><trkpt lat="41.1990817" lon="0.0425467"><ele>170.0</ele><time>2026-03-31T14:27:52.16Z</time></trkpt><trkpt lat="41.1988317" lon="0.0425533"><ele>169.5</ele><time>2026-03-31T14:27:53.159Z</time></trkpt><trkpt lat="41.1985733" lon="0.042555"><ele>169.0</ele><time>2026-03-31T14:27:54.159Z</time></trkpt><trkpt lat="41.1983183" lon="0.0425617"><ele>167.0</ele><time>2026-03-31T14:27:55.16Z</time></trkpt><trkpt lat="41.1980683" lon="0.042575"><ele>165.0</ele><time>2026-03-31T14:27:56.16Z</time></trkpt><trkpt lat="41.197825" lon="0.0426183"><ele>165.0</ele><time>2026-03-31T14:27:57.159Z</time></trkpt><trkpt lat="41.1975933" lon="0.0427017"><ele>165.0</ele><time>2026-03-31T14:27:58.16Z</time></trkpt><trkpt lat="41.19737" lon="0.0428083"><ele>163.5</ele><time>2026-03-31T14:27:59.159Z</time></trkpt><trkpt lat="41.197155" lon="0.042925"><ele>162.0</ele><time>2026-03-31T14:28:00.159Z</time></trkpt><trkpt lat="41.196945" lon="0.043055"><ele>162.0</ele><time>2026-03-31T14:28:01.16Z</time></trkpt><trkpt lat="41.19674" lon="0.0431783"><ele>162.0</ele><time>2026-03-31T14:28:02.16Z</time></trkpt><trkpt lat="41.19653" lon="0.0433017"><ele>162.5</ele><time>2026-03-31T14:28:03.159Z</time></trkpt><trkpt lat="41.1963183" lon="0.0434217"><ele>163.0</ele><time>2026-03-31T14:28:04.16Z</time></trkpt><trkpt lat="41.1961" lon="0.0435483"><ele>163.0</ele><time>2026-03-31T14:28:05.16Z</time></trkpt><trkpt lat="41.1958867" lon="0.0436667"><ele>163.0</ele><time>2026-03-31T14:28:06.16Z</time></trkpt><trkpt lat="41.195675" lon="0.0437883"><ele>162.5</ele><time>2026-03-31T14:28:07.16Z</time></trkpt><trkpt lat="41.1954633" lon="0.0438983"><ele>162.0</ele><time>2026-03-31T14:28:08.159Z</time></trkpt><trkpt lat="41.1952533" lon="0.0440217"><ele>163.5</ele><time>2026-03-31T14:28:09.159Z</time></trkpt><trkpt lat="41.1950333" lon="0.0441417"><ele>165.0</ele><time>2026-03-31T14:28:10.159Z</time></trkpt><trkpt lat="41.19483" lon="0.0442533"><ele>165.5</ele><time>2026-03-31T14:28:11.159Z</time></trkpt><trkpt lat="41.1946183" lon="0.0443733"><ele>166.0</ele><time>2026-03-31T14:28:12.16Z</time></trkpt><trkpt lat="41.19441" lon="0.0444967"><ele>166.0</ele><time>2026-03-31T14:28:13.159Z</time></trkpt><trkpt lat="41.194205" lon="0.0446133"><ele>166.0</ele><time>2026-03-31T14:28:14.16Z</time></trkpt><trkpt lat="41.1940033" lon="0.0447367"><ele>166.0</ele><time>2026-03-31T14:28:15.159Z</time></trkpt><trkpt lat="41.1938" lon="0.0448517"><ele>166.66666666666669</ele><time>2026-03-31T14:28:16.159Z</time></trkpt><trkpt lat="41.1935933" lon="0.0449667"><ele>167.33333333333334</ele><time>2026-03-31T14:28:17.16Z</time></trkpt><trkpt lat="41.193395" lon="0.0450833"><ele>168.0</ele><time>2026-03-31T14:28:18.16Z</time></trkpt><trkpt lat="41.19318" lon="0.0452067"><ele>169.0</ele><time>2026-03-31T14:28:19.159Z</time></trkpt><trkpt lat="41.1929767" lon="0.0453283"><ele>170.0</ele><time>2026-03-31T14:28:20.159Z</time></trkpt><trkpt lat="41.1927717" lon="0.0454383"><ele>171.0</ele><time>2026-03-31T14:28:21.159Z</time></trkpt><trkpt lat="41.1925667" lon="0.0455533"><ele>171.0</ele><time>2026-03-31T14:28:22.159Z</time></trkpt><trkpt lat="41.1923533" lon="0.0456667"><ele>171.0</ele><time>2026-03-31T14:28:23.16Z</time></trkpt><trkpt lat="41.1921283" lon="0.0457833"><ele>171.5</ele><time>2026-03-31T14:28:24.159Z</time></trkpt><trkpt lat="41.191895" lon="0.0458933"><ele>172.0</ele><time>2026-03-31T14:28:25.159Z</time></trkpt><trkpt lat="41.19166" lon="0.046005"><ele>172.0</ele><time>2026-03-31T14:28:26.159Z</time></trkpt><trkpt lat="41.1914233" lon="0.046115"><ele>172.0</ele><time>2026-03-31T14:28:27.16Z</time></trkpt><trkpt lat="41.1911883" lon="0.0462233"><ele>172.0</ele><time>2026-03-31T14:28:28.16Z</time></trkpt><trkpt lat="41.1909483" lon="0.0463283"><ele>172.0</ele><time>2026-03-31T14:28:29.159Z</time></trkpt><trkpt lat="41.190715" lon="0.046445"><ele>172.5</ele><time>2026-03-31T14:28:30.16Z</time></trkpt><trkpt lat="41.1904817" lon="0.0465467"><ele>173.0</ele><time>2026-03-31T14:28:31.16Z</time></trkpt><trkpt lat="41.190245" lon="0.0466533"><ele>173.0</ele><time>2026-03-31T14:28:32.16Z</time></trkpt><trkpt lat="41.1900017" lon="0.046755"><ele>173.0</ele><time>2026-03-31T14:28:33.16Z</time></trkpt><trkpt lat="41.189765" lon="0.0468567"><ele>173.0</ele><time>2026-03-31T14:28:34.16Z</time></trkpt><trkpt lat="41.1895267" lon="0.04696"><ele>173.0</ele><time>2026-03-31T14:28:35.159Z</time></trkpt><trkpt lat="41.1892933" lon="0.0470667"><ele>173.0</ele><time>2026-03-31T14:28:36.16Z</time></trkpt><trkpt lat="41.18906" lon="0.0471633"><ele>173.0</ele><time>2026-03-31T14:28:37.159Z</time></trkpt><trkpt lat="41.1888333" lon="0.0472617"><ele>172.5</ele><time>2026-03-31T14:28:38.159Z</time></trkpt><trkpt lat="41.1886017" lon="0.04736"><ele>172.0</ele><time>2026-03-31T14:28:39.159Z</time></trkpt><trkpt lat="41.1883717" lon="0.04746"><ele>174.5</ele><time>2026-03-31T14:28:40.159Z</time></trkpt><trkpt lat="41.1881433" lon="0.0475517"><ele>177.0</ele><time>2026-03-31T14:28:41.159Z</time></trkpt><trkpt lat="41.1879083" lon="0.0476417"><ele>177.0</ele><time>2026-03-31T14:28:42.159Z</time></trkpt><trkpt lat="41.1876683" lon="0.0477317"><ele>177.0</ele><time>2026-03-31T14:28:43.16Z</time></trkpt><trkpt lat="41.1874383" lon="0.0478267"><ele>181.0</ele><time>2026-03-31T14:28:44.16Z</time></trkpt><trkpt lat="41.1871967" lon="0.0479233"><ele>185.0</ele><time>2026-03-31T14:28:45.159Z</time></trkpt><trkpt lat="41.186955" lon="0.0480133"><ele>185.0</ele><time>2026-03-31T14:28:46.159Z</time></trkpt><trkpt lat="41.18671" lon="0.0480933"><ele>185.0</ele><time>2026-03-31T14:28:47.159Z</time></trkpt><trkpt lat="41.1864767" lon="0.0481717"><ele>184.0</ele><time>2026-03-31T14:28:48.159Z</time></trkpt><trkpt lat="41.1862367" lon="0.0482467"><ele>183.0</ele><time>2026-03-31T14:28:49.16Z</time></trkpt><trkpt lat="41.1859967" lon="0.0483217"><ele>183.0</ele><time>2026-03-31T14:28:50.16Z</time></trkpt><trkpt lat="41.18576" lon="0.0483917"><ele>183.0</ele><time>2026-03-31T14:28:51.159Z</time></trkpt><trkpt lat="41.1855267" lon="0.04846"><ele>187.0</ele><time>2026-03-31T14:28:52.159Z</time></trkpt><trkpt lat="41.1852967" lon="0.0485283"><ele>191.0</ele><time>2026-03-31T14:28:53.159Z</time></trkpt><trkpt lat="41.185065" lon="0.048595"><ele>191.5</ele><time>2026-03-31T14:28:54.159Z</time></trkpt><trkpt lat="41.1848267" lon="0.0486617"><ele>192.0</ele><time>2026-03-31T14:28:55.16Z</time></trkpt><trkpt lat="41.1845767" lon="0.0487283"><ele>192.0</ele><time>2026-03-31T14:28:56.159Z</time></trkpt><trkpt lat="41.1843383" lon="0.0488033"><ele>192.0</ele><time>2026-03-31T14:28:57.159Z</time></trkpt><trkpt lat="41.1840917" lon="0.04888"><ele>189.0</ele><time>2026-03-31T14:28:58.159Z</time></trkpt><trkpt lat="41.1838417" lon="0.0489483"><ele>186.0</ele><time>2026-03-31T14:28:59.159Z</time></trkpt><trkpt lat="41.18359" lon="0.0490217"><ele>186.0</ele><time>2026-03-31T14:29:00.16Z</time></trkpt><trkpt lat="41.1833417" lon="0.0490967"><ele>186.0</ele><time>2026-03-31T14:29:01.16Z</time></trkpt><trkpt lat="41.1830883" lon="0.049175"><ele>187.0</ele><time>2026-03-31T14:29:02.159Z</time></trkpt><trkpt lat="41.18284" lon="0.04926"><ele>188.0</ele><time>2026-03-31T14:29:03.159Z</time></trkpt><trkpt lat="41.1825867" lon="0.0493383"><ele>188.0</ele><time>2026-03-31T14:29:04.159Z</time></trkpt><trkpt lat="41.182335" lon="0.04941"><ele>188.0</ele><time>2026-03-31T14:29:05.159Z</time></trkpt><trkpt lat="41.1820867" lon="0.0494817"><ele>188.0</ele><time>2026-03-31T14:29:06.159Z</time></trkpt><trkpt lat="41.1818383" lon="0.0495533"><ele>188.0</ele><time>2026-03-31T14:29:07.159Z</time></trkpt><trkpt lat="41.1816" lon="0.0496333"><ele>187.5</ele><time>2026-03-31T14:29:08.159Z</time></trkpt><trkpt lat="41.1813733" lon="0.0497383"><ele>187.0</ele><time>2026-03-31T14:29:09.159Z</time></trkpt><trkpt lat="41.18115" lon="0.0498667"><ele>190.0</ele><time>2026-03-31T14:29:10.159Z</time></trkpt><trkpt lat="41.1809333" lon="0.050015"><ele>193.0</ele><time>2026-03-31T14:29:11.159Z</time></trkpt><trkpt lat="41.1807267" lon="0.0501783"><ele>191.5</ele><time>2026-03-31T14:29:12.159Z</time></trkpt><trkpt lat="41.18052" lon="0.050365"><ele>190.0</ele><time>2026-03-31T14:29:13.159Z</time></trkpt><trkpt lat="41.1803183" lon="0.0505733"><ele>190.0</ele><time>2026-03-31T14:29:14.159Z</time></trkpt><trkpt lat="41.1801117" lon="0.05079"><ele>190.0</ele><time>2026-03-31T14:29:15.16Z</time></trkpt><trkpt lat="41.179915" lon="0.0510133"><ele>191.5</ele><time>2026-03-31T14:29:16.16Z</time></trkpt><trkpt lat="41.17972" lon="0.051235"><ele>193.0</ele><time>2026-03-31T14:29:17.159Z</time></trkpt><trkpt lat="41.17953" lon="0.051465"><ele>195.5</ele><time>2026-03-31T14:29:18.16Z</time></trkpt><trkpt lat="41.179345" lon="0.05171"><ele>198.0</ele><time>2026-03-31T14:29:19.16Z</time></trkpt><trkpt lat="41.1791667" lon="0.0519583"><ele>198.5</ele><time>2026-03-31T14:29:20.16Z</time></trkpt><trkpt lat="41.1789967" lon="0.0522233"><ele>199.0</ele><time>2026-03-31T14:29:21.159Z</time></trkpt><trkpt lat="41.17884" lon="0.0525017"><ele>199.0</ele><time>2026-03-31T14:29:22.16Z</time></trkpt><trkpt lat="41.178705" lon="0.0527867"><ele>199.0</ele><time>2026-03-31T14:29:23.159Z</time></trkpt><trkpt lat="41.1785783" lon="0.0530767"><ele>198.0</ele><time>2026-03-31T14:29:24.16Z</time></trkpt><trkpt lat="41.1784633" lon="0.053365"><ele>197.0</ele><time>2026-03-31T14:29:25.159Z</time></trkpt><trkpt lat="41.1783533" lon="0.0536483"><ele>197.0</ele><time>2026-03-31T14:29:26.159Z</time></trkpt><trkpt lat="41.1782367" lon="0.0539383"><ele>197.0</ele><time>2026-03-31T14:29:27.16Z</time></trkpt><trkpt lat="41.1781167" lon="0.0542267"><ele>201.0</ele><time>2026-03-31T14:29:28.159Z</time></trkpt><trkpt lat="41.1779983" lon="0.05451"><ele>205.0</ele><time>2026-03-31T14:29:29.16Z</time></trkpt><trkpt lat="41.1778833" lon="0.0547967"><ele>202.0</ele><time>2026-03-31T14:29:30.159Z</time></trkpt><trkpt lat="41.1777633" lon="0.05509"><ele>199.0</ele><time>2026-03-31T14:29:31.159Z</time></trkpt><trkpt lat="41.1776483" lon="0.0553767"><ele>199.0</ele><time>2026-03-31T14:29:32.16Z</time></trkpt><trkpt lat="41.1775367" lon="0.05566"><ele>199.0</ele><time>2026-03-31T14:29:33.159Z</time></trkpt><trkpt lat="41.1774267" lon="0.0559317"><ele>203.0</ele><time>2026-03-31T14:29:34.159Z</time></trkpt><trkpt lat="41.1773117" lon="0.0562033"><ele>207.0</ele><time>2026-03-31T14:29:35.159Z</time></trkpt><trkpt lat="41.1772" lon="0.0564667"><ele>204.0</ele><time>2026-03-31T14:29:36.16Z</time></trkpt><trkpt lat="41.177085" lon="0.0567333"><ele>201.0</ele><time>2026-03-31T14:29:37.16Z</time></trkpt><trkpt lat="41.176975" lon="0.057"><ele>201.0</ele><time>2026-03-31T14:29:38.159Z</time></trkpt><trkpt lat="41.17687" lon="0.0572583"><ele>201.0</ele><time>2026-03-31T14:29:39.159Z</time></trkpt><trkpt lat="41.17676" lon="0.0575283"><ele>201.5</ele><time>2026-03-31T14:29:40.159Z</time></trkpt><trkpt lat="41.1766517" lon="0.0578033"><ele>202.0</ele><time>2026-03-31T14:29:41.16Z</time></trkpt><trkpt lat="41.1765417" lon="0.0580717"><ele>202.0</ele><time>2026-03-31T14:29:42.159Z</time></trkpt><trkpt lat="41.17643" lon="0.0583383"><ele>202.0</ele><time>2026-03-31T14:29:43.16Z</time></trkpt><trkpt lat="41.17631" lon="0.0586083"><ele>202.0</ele><time>2026-03-31T14:29:44.159Z</time></trkpt><trkpt lat="41.1761983" lon="0.0588867"><ele>202.0</ele><time>2026-03-31T14:29:45.16Z</time></trkpt><trkpt lat="41.1760867" lon="0.05917"><ele>202.5</ele><time>2026-03-31T14:29:46.159Z</time></trkpt><trkpt lat="41.1759783" lon="0.0594483"><ele>203.0</ele><time>2026-03-31T14:29:47.159Z</time></trkpt><trkpt lat="41.1758717" lon="0.0597217"><ele>204.0</ele><time>2026-03-31T14:29:48.16Z</time></trkpt><trkpt lat="41.1757567" lon="0.059995"><ele>205.0</ele><time>2026-03-31T14:29:49.16Z</time></trkpt><trkpt lat="41.1756483" lon="0.06026"><ele>205.0</ele><time>2026-03-31T14:29:50.16Z</time></trkpt><trkpt lat="41.1755467" lon="0.06051"><ele>205.0</ele><time>2026-03-31T14:29:51.159Z</time></trkpt><trkpt lat="41.17545" lon="0.0607633"><ele>205.0</ele><time>2026-03-31T14:29:52.159Z</time></trkpt><trkpt lat="41.1753483" lon="0.0610133"><ele>206.0</ele><time>2026-03-31T14:29:53.159Z</time></trkpt><trkpt lat="41.1752367" lon="0.06127"><ele>207.0</ele><time>2026-03-31T14:29:54.159Z</time></trkpt><trkpt lat="41.1751317" lon="0.0615267"><ele>208.0</ele><time>2026-03-31T14:29:55.16Z</time></trkpt><trkpt lat="41.1750267" lon="0.0617883"><ele>208.0</ele><time>2026-03-31T14:29:56.159Z</time></trkpt><trkpt lat="41.1749217" lon="0.0620483"><ele>208.0</ele><time>2026-03-31T14:29:57.16Z</time></trkpt><trkpt lat="41.174815" lon="0.0623083"><ele>208.0</ele><time>2026-03-31T14:29:58.159Z</time></trkpt><trkpt lat="41.17471" lon="0.0625683"><ele>208.0</ele><time>2026-03-31T14:29:59.159Z</time></trkpt><trkpt lat="41.1746083" lon="0.0628317"><ele>208.0</ele><time>2026-03-31T14:30:00.159Z</time></trkpt><trkpt lat="41.1745" lon="0.0630917"><ele>208.0</ele><time>2026-03-31T14:30:01.16Z</time></trkpt><trkpt lat="41.1743967" lon="0.063355"><ele>208.0</ele><time>2026-03-31T14:30:02.159Z</time></trkpt><trkpt lat="41.1742833" lon="0.063615"><ele>208.0</ele><time>2026-03-31T14:30:03.159Z</time></trkpt><trkpt lat="41.17417" lon="0.0638733"><ele>208.0</ele><time>2026-03-31T14:30:04.159Z</time></trkpt><trkpt lat="41.1740583" lon="0.0641383"><ele>208.0</ele><time>2026-03-31T14:30:05.16Z</time></trkpt><trkpt lat="41.1739467" lon="0.0644"><ele>210.5</ele><time>2026-03-31T14:30:06.159Z</time></trkpt><trkpt lat="41.173835" lon="0.06467"><ele>213.0</ele><time>2026-03-31T14:30:07.16Z</time></trkpt><trkpt lat="41.1737267" lon="0.064935"><ele>213.33333333333331</ele><time>2026-03-31T14:30:08.16Z</time></trkpt><trkpt lat="41.1736267" lon="0.0651983"><ele>213.66666666666666</ele><time>2026-03-31T14:30:09.16Z</time></trkpt><trkpt lat="41.173525" lon="0.06545"><ele>214.0</ele><time>2026-03-31T14:30:10.16Z</time></trkpt><trkpt lat="41.1734267" lon="0.0657067"><ele>213.66666666666666</ele><time>2026-03-31T14:30:11.159Z</time></trkpt><trkpt lat="41.1733283" lon="0.065955"><ele>213.33333333333331</ele><time>2026-03-31T14:30:12.159Z</time></trkpt><trkpt lat="41.1732267" lon="0.0662017"><ele>213.0</ele><time>2026-03-31T14:30:13.159Z</time></trkpt><trkpt lat="41.1731383" lon="0.066445"><ele>216.0</ele><time>2026-03-31T14:30:14.16Z</time></trkpt><trkpt lat="41.17305" lon="0.06669"><ele>219.0</ele><time>2026-03-31T14:30:15.16Z</time></trkpt><trkpt lat="41.1729567" lon="0.066935"><ele>222.0</ele><time>2026-03-31T14:30:16.159Z</time></trkpt><trkpt lat="41.1728583" lon="0.0671817"><ele>222.0</ele><time>2026-03-31T14:30:17.159Z</time></trkpt><trkpt lat="41.1727617" lon="0.0674217"><ele>222.0</ele><time>2026-03-31T14:30:18.16Z</time></trkpt><trkpt lat="41.172665" lon="0.06767"><ele>222.0</ele><time>2026-03-31T14:30:19.159Z</time></trkpt><trkpt lat="41.172565" lon="0.0679167"><ele>221.0</ele><time>2026-03-31T14:30:20.16Z</time></trkpt><trkpt lat="41.172465" lon="0.0681583"><ele>220.0</ele><time>2026-03-31T14:30:21.159Z</time></trkpt><trkpt lat="41.1723633" lon="0.0683967"><ele>219.0</ele><time>2026-03-31T14:30:22.16Z</time></trkpt><trkpt lat="41.1722633" lon="0.06863"><ele>221.0</ele><time>2026-03-31T14:30:23.159Z</time></trkpt><trkpt lat="41.17215" lon="0.06886"><ele>223.0</ele><time>2026-03-31T14:30:24.16Z</time></trkpt><trkpt lat="41.172035" lon="0.069085"><ele>225.0</ele><time>2026-03-31T14:30:25.159Z</time></trkpt><trkpt lat="41.1719083" lon="0.0692983"><ele>225.66666666666669</ele><time>2026-03-31T14:30:26.159Z</time></trkpt><trkpt lat="41.1717683" lon="0.0695067"><ele>226.33333333333334</ele><time>2026-03-31T14:30:27.159Z</time></trkpt><trkpt lat="41.1716283" lon="0.06971"><ele>227.0</ele><time>2026-03-31T14:30:28.159Z</time></trkpt><trkpt lat="41.1714733" lon="0.0699217"><ele>226.5</ele><time>2026-03-31T14:30:29.159Z</time></trkpt><trkpt lat="41.1713167" lon="0.0701383"><ele>226.0</ele><time>2026-03-31T14:30:30.159Z</time></trkpt><trkpt lat="41.1711467" lon="0.0703633"><ele>226.0</ele><time>2026-03-31T14:30:31.159Z</time></trkpt><trkpt lat="41.1709783" lon="0.070585"><ele>226.0</ele><time>2026-03-31T14:30:32.159Z</time></trkpt><trkpt lat="41.1708067" lon="0.0708"><ele>229.0</ele><time>2026-03-31T14:30:33.159Z</time></trkpt><trkpt lat="41.1706383" lon="0.07103"><ele>232.0</ele><time>2026-03-31T14:30:34.159Z</time></trkpt><trkpt lat="41.17046" lon="0.07125"><ele>232.0</ele><time>2026-03-31T14:30:35.16Z</time></trkpt><trkpt lat="41.1702867" lon="0.071475"><ele>232.0</ele><time>2026-03-31T14:30:36.159Z</time></trkpt><trkpt lat="41.1701083" lon="0.0716917"><ele>232.5</ele><time>2026-03-31T14:30:37.159Z</time></trkpt><trkpt lat="41.1699267" lon="0.07191"><ele>233.0</ele><time>2026-03-31T14:30:38.159Z</time></trkpt><trkpt lat="41.1697417" lon="0.0721317"><ele>233.0</ele><time>2026-03-31T14:30:39.159Z</time></trkpt><trkpt lat="41.1695633" lon="0.0723483"><ele>233.0</ele><time>2026-03-31T14:30:40.16Z</time></trkpt><trkpt lat="41.1693683" lon="0.0725733"><ele>232.0</ele><time>2026-03-31T14:30:41.159Z</time></trkpt><trkpt lat="41.169175" lon="0.0727917"><ele>231.0</ele><time>2026-03-31T14:30:42.159Z</time></trkpt><trkpt lat="41.1689817" lon="0.0730033"><ele>235.0</ele><time>2026-03-31T14:30:43.16Z</time></trkpt><trkpt lat="41.1687917" lon="0.0732183"><ele>239.0</ele><time>2026-03-31T14:30:44.159Z</time></trkpt><trkpt lat="41.1686083" lon="0.0734267"><ele>239.0</ele><time>2026-03-31T14:30:45.159Z</time></trkpt><trkpt lat="41.1684183" lon="0.0736317"><ele>239.0</ele><time>2026-03-31T14:30:46.159Z</time></trkpt><trkpt lat="41.1682267" lon="0.0738383"><ele>241.5</ele><time>2026-03-31T14:30:47.159Z</time></trkpt><trkpt lat="41.16804" lon="0.07405"><ele>244.0</ele><time>2026-03-31T14:30:48.159Z</time></trkpt><trkpt lat="41.1678517" lon="0.0742583"><ele>244.0</ele><time>2026-03-31T14:30:49.16Z</time></trkpt><trkpt lat="41.1676633" lon="0.0744767"><ele>244.0</ele><time>2026-03-31T14:30:50.16Z</time></trkpt><trkpt lat="41.1674733" lon="0.0746933"><ele>243.5</ele><time>2026-03-31T14:30:51.16Z</time></trkpt><trkpt lat="41.1672833" lon="0.07491"><ele>243.0</ele><time>2026-03-31T14:30:52.16Z</time></trkpt><trkpt lat="41.1670917" lon="0.0751267"><ele>243.0</ele><time>2026-03-31T14:30:53.159Z</time></trkpt><trkpt lat="41.1669017" lon="0.0753367"><ele>243.0</ele><time>2026-03-31T14:30:54.16Z</time></trkpt><trkpt lat="41.1667083" lon="0.07555"><ele>245.0</ele><time>2026-03-31T14:30:55.16Z</time></trkpt><trkpt lat="41.1665167" lon="0.0757567"><ele>247.0</ele><time>2026-03-31T14:30:56.159Z</time></trkpt><trkpt lat="41.1663283" lon="0.0759733"><ele>247.0</ele><time>2026-03-31T14:30:57.16Z</time></trkpt><trkpt lat="41.1661283" lon="0.076195"><ele>247.0</ele><time>2026-03-31T14:30:58.159Z</time></trkpt><trkpt lat="41.1659283" lon="0.0764117"><ele>247.5</ele><time>2026-03-31T14:30:59.16Z</time></trkpt><trkpt lat="41.1657367" lon="0.0766367"><ele>248.0</ele><time>2026-03-31T14:31:00.16Z</time></trkpt><trkpt lat="41.16554" lon="0.0768483"><ele>250.5</ele><time>2026-03-31T14:31:01.159Z</time></trkpt><trkpt lat="41.165345" lon="0.077075"><ele>253.0</ele><time>2026-03-31T14:31:02.159Z</time></trkpt><trkpt lat="41.1651467" lon="0.0772867"><ele>253.5</ele><time>2026-03-31T14:31:03.159Z</time></trkpt><trkpt lat="41.1649533" lon="0.0775033"><ele>254.0</ele><time>2026-03-31T14:31:04.159Z</time></trkpt><trkpt lat="41.1647633" lon="0.0777117"><ele>254.0</ele><time>2026-03-31T14:31:05.159Z</time></trkpt><trkpt lat="41.1645733" lon="0.077925"><ele>254.0</ele><time>2026-03-31T14:31:06.159Z</time></trkpt><trkpt lat="41.1643917" lon="0.0781367"><ele>255.0</ele><time>2026-03-31T14:31:07.159Z</time></trkpt><trkpt lat="41.1642117" lon="0.0783433"><ele>256.0</ele><time>2026-03-31T14:31:08.16Z</time></trkpt><trkpt lat="41.1640283" lon="0.0785517"><ele>260.5</ele><time>2026-03-31T14:31:09.16Z</time></trkpt><trkpt lat="41.1638567" lon="0.0787433"><ele>265.0</ele><time>2026-03-31T14:31:10.16Z</time></trkpt><trkpt lat="41.1636817" lon="0.0789333"><ele>263.66666666666663</ele><time>2026-03-31T14:31:11.159Z</time></trkpt><trkpt lat="41.163525" lon="0.0791033"><ele>262.3333333333333</ele><time>2026-03-31T14:31:12.159Z</time></trkpt><trkpt lat="41.1633817" lon="0.079265"><ele>261.0</ele><time>2026-03-31T14:31:13.159Z</time></trkpt><trkpt lat="41.1632467" lon="0.079415"><ele>261.3333333333333</ele><time>2026-03-31T14:31:14.159Z</time></trkpt><trkpt lat="41.1631117" lon="0.0795633"><ele>261.66666666666663</ele><time>2026-03-31T14:31:15.16Z</time></trkpt><trkpt lat="41.1629883" lon="0.0797033"><ele>262.0</ele><time>2026-03-31T14:31:16.159Z</time></trkpt><trkpt lat="41.1628767" lon="0.0798333"><ele>261.75</ele><time>2026-03-31T14:31:17.159Z</time></trkpt><trkpt lat="41.1627633" lon="0.0799583"><ele>261.5</ele><time>2026-03-31T14:31:18.159Z</time></trkpt><trkpt lat="41.1626567" lon="0.0800667"><ele>261.25</ele><time>2026-03-31T14:31:19.16Z</time></trkpt><trkpt lat="41.162545" lon="0.0801783"><ele>261.0</ele><time>2026-03-31T14:31:20.159Z</time></trkpt><trkpt lat="41.16243" lon="0.0803033"><ele>264.3333333333333</ele><time>2026-03-31T14:31:21.16Z</time></trkpt><trkpt lat="41.16231" lon="0.0804533"><ele>267.66666666666663</ele><time>2026-03-31T14:31:22.159Z</time></trkpt><trkpt lat="41.1621733" lon="0.08061"><ele>271.0</ele><time>2026-03-31T14:31:23.16Z</time></trkpt><trkpt lat="41.162045" lon="0.080775"><ele>271.0</ele><time>2026-03-31T14:31:24.159Z</time></trkpt><trkpt lat="41.1619083" lon="0.0809317"><ele>271.0</ele><time>2026-03-31T14:31:25.159Z</time></trkpt><trkpt lat="41.1617533" lon="0.081085"><ele>271.0</ele><time>2026-03-31T14:31:26.159Z</time></trkpt><trkpt lat="41.161595" lon="0.081245"><ele>273.3333333333333</ele><time>2026-03-31T14:31:27.159Z</time></trkpt><trkpt lat="41.1614233" lon="0.0814183"><ele>275.6666666666667</ele><time>2026-03-31T14:31:28.159Z</time></trkpt><trkpt lat="41.1612633" lon="0.08161"><ele>278.0</ele><time>2026-03-31T14:31:29.16Z</time></trkpt><trkpt lat="41.161095" lon="0.0818017"><ele>278.0</ele><time>2026-03-31T14:31:30.159Z</time></trkpt><trkpt lat="41.1609167" lon="0.081995"><ele>278.0</ele><time>2026-03-31T14:31:31.159Z</time></trkpt><trkpt lat="41.16074" lon="0.0821917"><ele>281.33333333333337</ele><time>2026-03-31T14:31:32.16Z</time></trkpt><trkpt lat="41.1605733" lon="0.0823917"><ele>284.6666666666667</ele><time>2026-03-31T14:31:33.16Z</time></trkpt><trkpt lat="41.16041" lon="0.0825867"><ele>288.0</ele><time>2026-03-31T14:31:34.16Z</time></trkpt><trkpt lat="41.1602433" lon="0.08279"><ele>289.0</ele><time>2026-03-31T14:31:35.159Z</time></trkpt><trkpt lat="41.1600867" lon="0.083015"><ele>290.0</ele><time>2026-03-31T14:31:36.159Z</time></trkpt><trkpt lat="41.1599367" lon="0.0832533"><ele>288.0</ele><time>2026-03-31T14:31:37.159Z</time></trkpt><trkpt lat="41.1597917" lon="0.0835"><ele>286.0</ele><time>2026-03-31T14:31:38.159Z</time></trkpt><trkpt lat="41.159665" lon="0.0837583"><ele>286.0</ele><time>2026-03-31T14:31:39.159Z</time></trkpt><trkpt lat="41.15954" lon="0.0840267"><ele>286.0</ele><time>2026-03-31T14:31:40.16Z</time></trkpt><trkpt lat="41.1594217" lon="0.0843117"><ele>286.0</ele><time>2026-03-31T14:31:41.16Z</time></trkpt><trkpt lat="41.15932" lon="0.084605"><ele>286.0</ele><time>2026-03-31T14:31:42.159Z</time></trkpt><trkpt lat="41.15922" lon="0.0849183"><ele>286.0</ele><time>2026-03-31T14:31:43.159Z</time></trkpt><trkpt lat="41.1591467" lon="0.0852433"><ele>286.0</ele><time>2026-03-31T14:31:44.159Z</time></trkpt><trkpt lat="41.1590883" lon="0.0855667"><ele>288.0</ele><time>2026-03-31T14:31:45.159Z</time></trkpt><trkpt lat="41.1590667" lon="0.08588"><ele>290.0</ele><time>2026-03-31T14:31:46.16Z</time></trkpt><trkpt lat="41.1590367" lon="0.0862133"><ele>290.5</ele><time>2026-03-31T14:31:47.16Z</time></trkpt><trkpt lat="41.1590083" lon="0.086555"><ele>291.0</ele><time>2026-03-31T14:31:48.16Z</time></trkpt><trkpt lat="41.1589767" lon="0.08689"><ele>291.0</ele><time>2026-03-31T14:31:49.16Z</time></trkpt><trkpt lat="41.1589433" lon="0.08722"><ele>291.0</ele><time>2026-03-31T14:31:50.16Z</time></trkpt><trkpt lat="41.1588967" lon="0.0875533"><ele>294.0</ele><time>2026-03-31T14:31:51.159Z</time></trkpt><trkpt lat="41.1588383" lon="0.0878783"><ele>297.0</ele><time>2026-03-31T14:31:52.159Z</time></trkpt><trkpt lat="41.15878" lon="0.0882"><ele>296.0</ele><time>2026-03-31T14:31:53.159Z</time></trkpt><trkpt lat="41.158695" lon="0.0885133"><ele>295.0</ele><time>2026-03-31T14:31:54.16Z</time></trkpt><trkpt lat="41.1585983" lon="0.0888183"><ele>294.5</ele><time>2026-03-31T14:31:55.16Z</time></trkpt><trkpt lat="41.1584933" lon="0.089125"><ele>294.0</ele><time>2026-03-31T14:31:56.159Z</time></trkpt><trkpt lat="41.158375" lon="0.0894283"><ele>294.0</ele><time>2026-03-31T14:31:57.159Z</time></trkpt><trkpt lat="41.1582467" lon="0.0897317"><ele>294.0</ele><time>2026-03-31T14:31:58.159Z</time></trkpt><trkpt lat="41.1581283" lon="0.0900283"><ele>293.0</ele><time>2026-03-31T14:31:59.159Z</time></trkpt><trkpt lat="41.15801" lon="0.090325"><ele>292.0</ele><time>2026-03-31T14:32:00.159Z</time></trkpt><trkpt lat="41.15789" lon="0.09063"><ele>297.0</ele><time>2026-03-31T14:32:01.16Z</time></trkpt><trkpt lat="41.15777" lon="0.0909367"><ele>302.0</ele><time>2026-03-31T14:32:02.159Z</time></trkpt><trkpt lat="41.15766" lon="0.0912433"><ele>302.0</ele><time>2026-03-31T14:32:03.16Z</time></trkpt><trkpt lat="41.1575483" lon="0.0915517"><ele>302.0</ele><time>2026-03-31T14:32:04.16Z</time></trkpt><trkpt lat="41.1574417" lon="0.0918483"><ele>300.0</ele><time>2026-03-31T14:32:05.159Z</time></trkpt><trkpt lat="41.157335" lon="0.0921517"><ele>298.0</ele><time>2026-03-31T14:32:06.16Z</time></trkpt><trkpt lat="41.1572167" lon="0.0924533"><ele>298.0</ele><time>2026-03-31T14:32:07.159Z</time></trkpt><trkpt lat="41.15711" lon="0.092745"><ele>298.0</ele><time>2026-03-31T14:32:08.16Z</time></trkpt><trkpt lat="41.1570033" lon="0.0930417"><ele>300.0</ele><time>2026-03-31T14:32:09.159Z</time></trkpt><trkpt lat="41.1568983" lon="0.09333"><ele>302.0</ele><time>2026-03-31T14:32:10.159Z</time></trkpt><trkpt lat="41.1568017" lon="0.09362"><ele>302.0</ele><time>2026-03-31T14:32:11.159Z</time></trkpt><trkpt lat="41.1567017" lon="0.0939017"><ele>302.0</ele><time>2026-03-31T14:32:12.16Z</time></trkpt><trkpt lat="41.1565883" lon="0.0941833"><ele>300.0</ele><time>2026-03-31T14:32:13.159Z</time></trkpt><trkpt lat="41.1564533" lon="0.0944633"><ele>298.0</ele><time>2026-03-31T14:32:14.16Z</time></trkpt><trkpt lat="41.156315" lon="0.0947317"><ele>302.0</ele><time>2026-03-31T14:32:15.159Z</time></trkpt><trkpt lat="41.15614" lon="0.09498"><ele>306.0</ele><time>2026-03-31T14:32:16.159Z</time></trkpt><trkpt lat="41.1559567" lon="0.095215"><ele>306.0</ele><time>2026-03-31T14:32:17.16Z</time></trkpt><trkpt lat="41.1557667" lon="0.0954233"><ele>306.0</ele><time>2026-03-31T14:32:18.159Z</time></trkpt><trkpt lat="41.1555783" lon="0.095615"><ele>308.5</ele><time>2026-03-31T14:32:19.159Z</time></trkpt><trkpt lat="41.1553833" lon="0.0957867"><ele>311.0</ele><time>2026-03-31T14:32:20.159Z</time></trkpt><trkpt lat="41.1551667" lon="0.0959467"><ele>311.0</ele><time>2026-03-31T14:32:21.16Z</time></trkpt><trkpt lat="41.1549533" lon="0.09611"><ele>311.0</ele><time>2026-03-31T14:32:22.16Z</time></trkpt><trkpt lat="41.154755" lon="0.0962733"><ele>311.5</ele><time>2026-03-31T14:32:23.159Z</time></trkpt><trkpt lat="41.1545583" lon="0.09644"><ele>312.0</ele><time>2026-03-31T14:32:24.159Z</time></trkpt><trkpt lat="41.154375" lon="0.0966367"><ele>312.0</ele><time>2026-03-31T14:32:25.16Z</time></trkpt><trkpt lat="41.1542067" lon="0.0968483"><ele>312.0</ele><time>2026-03-31T14:32:26.16Z</time></trkpt><trkpt lat="41.15406" lon="0.0970883"><ele>313.5</ele><time>2026-03-31T14:32:27.159Z</time></trkpt><trkpt lat="41.1539283" lon="0.0973383"><ele>315.0</ele><time>2026-03-31T14:32:28.159Z</time></trkpt><trkpt lat="41.1538133" lon="0.0976033"><ele>317.0</ele><time>2026-03-31T14:32:29.16Z</time></trkpt><trkpt lat="41.1537083" lon="0.097875"><ele>319.0</ele><time>2026-03-31T14:32:30.159Z</time></trkpt><trkpt lat="41.1536067" lon="0.0981483"><ele>317.66666666666663</ele><time>2026-03-31T14:32:31.159Z</time></trkpt><trkpt lat="41.1535133" lon="0.0984133"><ele>316.3333333333333</ele><time>2026-03-31T14:32:32.159Z</time></trkpt><trkpt lat="41.1534083" lon="0.0986783"><ele>315.0</ele><time>2026-03-31T14:32:33.16Z</time></trkpt><trkpt lat="41.1533117" lon="0.0989433"><ele>314.0</ele><time>2026-03-31T14:32:34.159Z</time></trkpt><trkpt lat="41.15321" lon="0.09921"><ele>313.0</ele><time>2026-03-31T14:32:35.159Z</time></trkpt><trkpt lat="41.1531083" lon="0.0994817"><ele>317.0</ele><time>2026-03-31T14:32:36.159Z</time></trkpt><trkpt lat="41.1530067" lon="0.0997483"><ele>321.0</ele><time>2026-03-31T14:32:37.159Z</time></trkpt><trkpt lat="41.1528983" lon="0.1000167"><ele>321.0</ele><time>2026-03-31T14:32:38.16Z</time></trkpt><trkpt lat="41.1527933" lon="0.1002767"><ele>321.0</ele><time>2026-03-31T14:32:39.159Z</time></trkpt><trkpt lat="41.1526717" lon="0.100535"><ele>318.0</ele><time>2026-03-31T14:32:40.159Z</time></trkpt><trkpt lat="41.1525383" lon="0.1007783"><ele>315.0</ele><time>2026-03-31T14:32:41.16Z</time></trkpt><trkpt lat="41.1523883" lon="0.1010117"><ele>319.0</ele><time>2026-03-31T14:32:42.16Z</time></trkpt><trkpt lat="41.15223" lon="0.101245"><ele>323.0</ele><time>2026-03-31T14:32:43.159Z</time></trkpt><trkpt lat="41.1520617" lon="0.10147"><ele>319.5</ele><time>2026-03-31T14:32:44.16Z</time></trkpt><trkpt lat="41.1518917" lon="0.10169"><ele>316.0</ele><time>2026-03-31T14:32:45.159Z</time></trkpt><trkpt lat="41.1517283" lon="0.1019"><ele>316.0</ele><time>2026-03-31T14:32:46.159Z</time></trkpt><trkpt lat="41.1515633" lon="0.1021117"><ele>316.0</ele><time>2026-03-31T14:32:47.159Z</time></trkpt><trkpt lat="41.15139" lon="0.1023183"><ele>317.5</ele><time>2026-03-31T14:32:48.159Z</time></trkpt><trkpt lat="41.1512267" lon="0.1025267"><ele>319.0</ele><time>2026-03-31T14:32:49.159Z</time></trkpt><trkpt lat="41.1510583" lon="0.10273"><ele>319.0</ele><time>2026-03-31T14:32:50.16Z</time></trkpt><trkpt lat="41.1509017" lon="0.1029283"><ele>319.0</ele><time>2026-03-31T14:32:51.16Z</time></trkpt><trkpt lat="41.1507433" lon="0.1031283"><ele>319.0</ele><time>2026-03-31T14:32:52.159Z</time></trkpt><trkpt lat="41.1505817" lon="0.1033317"><ele>319.66666666666663</ele><time>2026-03-31T14:32:53.159Z</time></trkpt><trkpt lat="41.1504117" lon="0.1035283"><ele>320.3333333333333</ele><time>2026-03-31T14:32:54.16Z</time></trkpt><trkpt lat="41.1502517" lon="0.1037333"><ele>321.0</ele><time>2026-03-31T14:32:55.159Z</time></trkpt><trkpt lat="41.1500917" lon="0.1039333"><ele>320.0</ele><time>2026-03-31T14:32:56.159Z</time></trkpt><trkpt lat="41.1499267" lon="0.1041333"><ele>319.0</ele><time>2026-03-31T14:32:57.16Z</time></trkpt><trkpt lat="41.1497583" lon="0.10434"><ele>323.5</ele><time>2026-03-31T14:32:58.16Z</time></trkpt><trkpt lat="41.149595" lon="0.1045533"><ele>328.0</ele><time>2026-03-31T14:32:59.159Z</time></trkpt><trkpt lat="41.1494267" lon="0.1047717"><ele>327.0</ele><time>2026-03-31T14:33:00.159Z</time></trkpt><trkpt lat="41.1492567" lon="0.1049933"><ele>326.0</ele><time>2026-03-31T14:33:01.16Z</time></trkpt><trkpt lat="41.1490917" lon="0.1052183"><ele>326.5</ele><time>2026-03-31T14:33:02.159Z</time></trkpt><trkpt lat="41.1489317" lon="0.1054483"><ele>327.0</ele><time>2026-03-31T14:33:03.16Z</time></trkpt><trkpt lat="41.1487767" lon="0.1056867"><ele>327.5</ele><time>2026-03-31T14:33:04.16Z</time></trkpt><trkpt lat="41.1486233" lon="0.10592"><ele>328.0</ele><time>2026-03-31T14:33:05.159Z</time></trkpt><trkpt lat="41.1484817" lon="0.1061683"><ele>328.0</ele><time>2026-03-31T14:33:06.159Z</time></trkpt><trkpt lat="41.148335" lon="0.1064283"><ele>328.0</ele><time>2026-03-31T14:33:07.16Z</time></trkpt><trkpt lat="41.1481867" lon="0.1067067"><ele>335.5</ele><time>2026-03-31T14:33:08.159Z</time></trkpt><trkpt lat="41.1480517" lon="0.1069967"><ele>343.0</ele><time>2026-03-31T14:33:09.16Z</time></trkpt><trkpt lat="41.147915" lon="0.1073"><ele>338.5</ele><time>2026-03-31T14:33:10.16Z</time></trkpt><trkpt lat="41.147785" lon="0.107615"><ele>334.0</ele><time>2026-03-31T14:33:11.159Z</time></trkpt><trkpt lat="41.1476567" lon="0.107925"><ele>331.5</ele><time>2026-03-31T14:33:12.16Z</time></trkpt><trkpt lat="41.14752" lon="0.1082467"><ele>329.0</ele><time>2026-03-31T14:33:13.16Z</time></trkpt><trkpt lat="41.1473767" lon="0.1085583"><ele>329.0</ele><time>2026-03-31T14:33:14.159Z</time></trkpt><trkpt lat="41.147225" lon="0.10887"><ele>329.0</ele><time>2026-03-31T14:33:15.16Z</time></trkpt><trkpt lat="41.1470817" lon="0.10918"><ele>328.5</ele><time>2026-03-31T14:33:16.159Z</time></trkpt><trkpt lat="41.1469467" lon="0.10949"><ele>328.0</ele><time>2026-03-31T14:33:17.16Z</time></trkpt><trkpt lat="41.1467983" lon="0.1098033"><ele>328.0</ele><time>2026-03-31T14:33:18.159Z</time></trkpt><trkpt lat="41.1466433" lon="0.1101083"><ele>328.0</ele><time>2026-03-31T14:33:19.159Z</time></trkpt><trkpt lat="41.1464883" lon="0.1103983"><ele>328.0</ele><time>2026-03-31T14:33:20.159Z</time></trkpt><trkpt lat="41.1463233" lon="0.11069"><ele>328.0</ele><time>2026-03-31T14:33:21.159Z</time></trkpt><trkpt lat="41.1461483" lon="0.110975"><ele>328.0</ele><time>2026-03-31T14:33:22.16Z</time></trkpt><trkpt lat="41.14597" lon="0.1112583"><ele>328.0</ele><time>2026-03-31T14:33:23.16Z</time></trkpt><trkpt lat="41.145795" lon="0.1115383"><ele>327.0</ele><time>2026-03-31T14:33:24.159Z</time></trkpt><trkpt lat="41.1456283" lon="0.1118133"><ele>326.0</ele><time>2026-03-31T14:33:25.159Z</time></trkpt><trkpt lat="41.14546" lon="0.1120933"><ele>326.0</ele><time>2026-03-31T14:33:26.159Z</time></trkpt><trkpt lat="41.1452933" lon="0.1123633"><ele>326.0</ele><time>2026-03-31T14:33:27.159Z</time></trkpt><trkpt lat="41.1451317" lon="0.112625"><ele>325.5</ele><time>2026-03-31T14:33:28.159Z</time></trkpt><trkpt lat="41.1449667" lon="0.1128833"><ele>325.0</ele><time>2026-03-31T14:33:29.159Z</time></trkpt><trkpt lat="41.1447967" lon="0.1131533"><ele>326.5</ele><time>2026-03-31T14:33:30.159Z</time></trkpt><trkpt lat="41.14463" lon="0.1134117"><ele>328.0</ele><time>2026-03-31T14:33:31.159Z</time></trkpt><trkpt lat="41.14446" lon="0.113685"><ele>328.0</ele><time>2026-03-31T14:33:32.159Z</time></trkpt><trkpt lat="41.1442933" lon="0.1139533"><ele>328.0</ele><time>2026-03-31T14:33:33.159Z</time></trkpt><trkpt lat="41.1441267" lon="0.1142183"><ele>327.5</ele><time>2026-03-31T14:33:34.159Z</time></trkpt><trkpt lat="41.1439583" lon="0.1144917"><ele>327.0</ele><time>2026-03-31T14:33:35.159Z</time></trkpt><trkpt lat="41.143785" lon="0.1147633"><ele>326.5</ele><time>2026-03-31T14:33:36.159Z</time></trkpt><trkpt lat="41.1436183" lon="0.1150333"><ele>326.0</ele><time>2026-03-31T14:33:37.16Z</time></trkpt><trkpt lat="41.1434533" lon="0.1153017"><ele>326.0</ele><time>2026-03-31T14:33:38.16Z</time></trkpt><trkpt lat="41.1432883" lon="0.1155667"><ele>326.0</ele><time>2026-03-31T14:33:39.159Z</time></trkpt><trkpt lat="41.14313" lon="0.115835"><ele>325.5</ele><time>2026-03-31T14:33:40.159Z</time></trkpt><trkpt lat="41.14297" lon="0.1161083"><ele>325.0</ele><time>2026-03-31T14:33:41.159Z</time></trkpt><trkpt lat="41.1428217" lon="0.11639"><ele>323.5</ele><time>2026-03-31T14:33:42.159Z</time></trkpt><trkpt lat="41.1426667" lon="0.11668"><ele>322.0</ele><time>2026-03-31T14:33:43.159Z</time></trkpt><trkpt lat="41.1425183" lon="0.1169683"><ele>322.0</ele><time>2026-03-31T14:33:44.159Z</time></trkpt><trkpt lat="41.14237" lon="0.117255"><ele>322.0</ele><time>2026-03-31T14:33:45.16Z</time></trkpt><trkpt lat="41.1422317" lon="0.117545"><ele>322.0</ele><time>2026-03-31T14:33:46.159Z</time></trkpt><trkpt lat="41.1420883" lon="0.1178233"><ele>322.0</ele><time>2026-03-31T14:33:47.159Z</time></trkpt><trkpt lat="41.1419417" lon="0.1180967"><ele>320.0</ele><time>2026-03-31T14:33:48.159Z</time></trkpt><trkpt lat="41.1417883" lon="0.1183583"><ele>318.0</ele><time>2026-03-31T14:33:49.16Z</time></trkpt><trkpt lat="41.1416167" lon="0.1186167"><ele>320.0</ele><time>2026-03-31T14:33:50.159Z</time></trkpt><trkpt lat="41.141425" lon="0.118865"><ele>322.0</ele><time>2026-03-31T14:33:51.159Z</time></trkpt><trkpt lat="41.1412267" lon="0.119085"><ele>317.5</ele><time>2026-03-31T14:33:52.159Z</time></trkpt><trkpt lat="41.1410233" lon="0.1192883"><ele>313.0</ele><time>2026-03-31T14:33:53.16Z</time></trkpt><trkpt lat="41.1408267" lon="0.11949"><ele>315.0</ele><time>2026-03-31T14:33:54.159Z</time></trkpt><trkpt lat="41.1406283" lon="0.119685"><ele>317.0</ele><time>2026-03-31T14:33:55.16Z</time></trkpt><trkpt lat="41.1404317" lon="0.1198783"><ele>311.5</ele><time>2026-03-31T14:33:56.159Z</time></trkpt><trkpt lat="41.1402367" lon="0.12007"><ele>306.0</ele><time>2026-03-31T14:33:57.159Z</time></trkpt><trkpt lat="41.1400317" lon="0.1202617"><ele>306.5</ele><time>2026-03-31T14:33:58.16Z</time></trkpt><trkpt lat="41.1398233" lon="0.120445"><ele>307.0</ele><time>2026-03-31T14:33:59.159Z</time></trkpt><trkpt lat="41.1396117" lon="0.12062"><ele>301.5</ele><time>2026-03-31T14:34:00.159Z</time></trkpt><trkpt lat="41.1393917" lon="0.1207833"><ele>296.0</ele><time>2026-03-31T14:34:01.159Z</time></trkpt><trkpt lat="41.1391733" lon="0.1209367"><ele>295.0</ele><time>2026-03-31T14:34:02.159Z</time></trkpt><trkpt lat="41.1389567" lon="0.1210883"><ele>294.0</ele><time>2026-03-31T14:34:03.159Z</time></trkpt><trkpt lat="41.1387333" lon="0.1212417"><ele>294.0</ele><time>2026-03-31T14:34:04.16Z</time></trkpt><trkpt lat="41.138515" lon="0.1213917"><ele>294.0</ele><time>2026-03-31T14:34:05.16Z</time></trkpt><trkpt lat="41.1382967" lon="0.1215467"><ele>290.0</ele><time>2026-03-31T14:34:06.16Z</time></trkpt><trkpt lat="41.1380817" lon="0.1217067"><ele>286.0</ele><time>2026-03-31T14:34:07.159Z</time></trkpt><trkpt lat="41.1378667" lon="0.121865"><ele>286.0</ele><time>2026-03-31T14:34:08.159Z</time></trkpt><trkpt lat="41.13766" lon="0.1220333"><ele>286.0</ele><time>2026-03-31T14:34:09.159Z</time></trkpt><trkpt lat="41.1374533" lon="0.122205"><ele>285.5</ele><time>2026-03-31T14:34:10.16Z</time></trkpt><trkpt lat="41.1372433" lon="0.12238"><ele>285.0</ele><time>2026-03-31T14:34:11.159Z</time></trkpt><trkpt lat="41.137035" lon="0.1225533"><ele>285.0</ele><time>2026-03-31T14:34:12.159Z</time></trkpt><trkpt lat="41.13683" lon="0.1227283"><ele>285.0</ele><time>2026-03-31T14:34:13.159Z</time></trkpt><trkpt lat="41.136635" lon="0.122905"><ele>285.0</ele><time>2026-03-31T14:34:14.16Z</time></trkpt><trkpt lat="41.1364383" lon="0.1230817"><ele>285.0</ele><time>2026-03-31T14:34:15.16Z</time></trkpt><trkpt lat="41.13624" lon="0.1232583"><ele>285.0</ele><time>2026-03-31T14:34:16.16Z</time></trkpt><trkpt lat="41.136045" lon="0.1234283"><ele>285.0</ele><time>2026-03-31T14:34:17.159Z</time></trkpt><trkpt lat="41.1358483" lon="0.1236033"><ele>290.5</ele><time>2026-03-31T14:34:18.159Z</time></trkpt><trkpt lat="41.135655" lon="0.12377"><ele>296.0</ele><time>2026-03-31T14:34:19.159Z</time></trkpt><trkpt lat="41.1354567" lon="0.1239417"><ele>295.5</ele><time>2026-03-31T14:34:20.16Z</time></trkpt><trkpt lat="41.1352583" lon="0.1241133"><ele>295.0</ele><time>2026-03-31T14:34:21.159Z</time></trkpt><trkpt lat="41.1350617" lon="0.1242967"><ele>297.0</ele><time>2026-03-31T14:34:22.159Z</time></trkpt><trkpt lat="41.134855" lon="0.1244733"><ele>299.0</ele><time>2026-03-31T14:34:23.159Z</time></trkpt><trkpt lat="41.1346383" lon="0.1246433"><ele>299.0</ele><time>2026-03-31T14:34:24.16Z</time></trkpt><trkpt lat="41.134415" lon="0.1248033"><ele>299.0</ele><time>2026-03-31T14:34:25.159Z</time></trkpt><trkpt lat="41.134185" lon="0.1249567"><ele>296.5</ele><time>2026-03-31T14:34:26.16Z</time></trkpt><trkpt lat="41.1339583" lon="0.125095"><ele>294.0</ele><time>2026-03-31T14:34:27.159Z</time></trkpt><trkpt lat="41.133725" lon="0.1252183"><ele>294.0</ele><time>2026-03-31T14:34:28.159Z</time></trkpt><trkpt lat="41.13349" lon="0.12533"><ele>294.0</ele><time>2026-03-31T14:34:29.159Z</time></trkpt><trkpt lat="41.1332567" lon="0.125435"><ele>293.5</ele><time>2026-03-31T14:34:30.16Z</time></trkpt><trkpt lat="41.13303" lon="0.125535"><ele>293.0</ele><time>2026-03-31T14:34:31.16Z</time></trkpt><trkpt lat="41.132795" lon="0.125635"><ele>293.0</ele><time>2026-03-31T14:34:32.159Z</time></trkpt><trkpt lat="41.132565" lon="0.1257267"><ele>293.0</ele><time>2026-03-31T14:34:33.159Z</time></trkpt><trkpt lat="41.1323417" lon="0.1258167"><ele>290.5</ele><time>2026-03-31T14:34:34.159Z</time></trkpt><trkpt lat="41.1321167" lon="0.125915"><ele>288.0</ele><time>2026-03-31T14:34:35.159Z</time></trkpt><trkpt lat="41.1318933" lon="0.1260317"><ele>288.0</ele><time>2026-03-31T14:34:36.159Z</time></trkpt><trkpt lat="41.1316733" lon="0.12617"><ele>288.0</ele><time>2026-03-31T14:34:37.159Z</time></trkpt><trkpt lat="41.1314617" lon="0.1263183"><ele>286.5</ele><time>2026-03-31T14:34:38.159Z</time></trkpt><trkpt lat="41.131255" lon="0.1264867"><ele>285.0</ele><time>2026-03-31T14:34:39.159Z</time></trkpt><trkpt lat="41.1310567" lon="0.1266683"><ele>284.0</ele><time>2026-03-31T14:34:40.159Z</time></trkpt><trkpt lat="41.130865" lon="0.12686"><ele>283.0</ele><time>2026-03-31T14:34:41.16Z</time></trkpt><trkpt lat="41.1306833" lon="0.1270617"><ele>282.66666666666663</ele><time>2026-03-31T14:34:42.16Z</time></trkpt><trkpt lat="41.1305233" lon="0.1272617"><ele>282.3333333333333</ele><time>2026-03-31T14:34:43.159Z</time></trkpt><trkpt lat="41.1303783" lon="0.127455"><ele>282.0</ele><time>2026-03-31T14:34:44.16Z</time></trkpt><trkpt lat="41.1302483" lon="0.1276483"><ele>282.6666666666667</ele><time>2026-03-31T14:34:45.159Z</time></trkpt><trkpt lat="41.130145" lon="0.1278317"><ele>283.33333333333337</ele><time>2026-03-31T14:34:46.16Z</time></trkpt><trkpt lat="41.13004" lon="0.128005"><ele>284.0</ele><time>2026-03-31T14:34:47.159Z</time></trkpt><trkpt lat="41.129955" lon="0.1281717"><ele>282.5</ele><time>2026-03-31T14:34:48.159Z</time></trkpt><trkpt lat="41.1298767" lon="0.1283367"><ele>281.0</ele><time>2026-03-31T14:34:49.16Z</time></trkpt><trkpt lat="41.1298017" lon="0.1284967"><ele>279.5</ele><time>2026-03-31T14:34:50.159Z</time></trkpt><trkpt lat="41.1297283" lon="0.1286467"><ele>278.0</ele><time>2026-03-31T14:34:51.159Z</time></trkpt><trkpt lat="41.1296533" lon="0.1287917"><ele>278.0</ele><time>2026-03-31T14:34:52.16Z</time></trkpt><trkpt lat="41.1295933" lon="0.1289333"><ele>278.0</ele><time>2026-03-31T14:34:53.16Z</time></trkpt><trkpt lat="41.1295383" lon="0.1290467"><ele>278.0</ele><time>2026-03-31T14:34:54.16Z</time></trkpt><trkpt lat="41.129485" lon="0.1291517"><ele>278.0</ele><time>2026-03-31T14:34:55.159Z</time></trkpt><trkpt lat="41.1294183" lon="0.1292333"><ele>278.0</ele><time>2026-03-31T14:34:56.16Z</time></trkpt><trkpt lat="41.12935" lon="0.1292883"><ele>278.2</ele><time>2026-03-31T14:34:57.159Z</time></trkpt><trkpt lat="41.1292717" lon="0.1293317"><ele>278.4</ele><time>2026-03-31T14:34:58.16Z</time></trkpt><trkpt lat="41.129185" lon="0.1293633"><ele>278.59999999999997</ele><time>2026-03-31T14:34:59.16Z</time></trkpt><trkpt lat="41.129095" lon="0.1294133"><ele>278.8</ele><time>2026-03-31T14:35:00.159Z</time></trkpt><trkpt lat="41.1290167" lon="0.1295017"><ele>279.0</ele><time>2026-03-31T14:35:01.159Z</time></trkpt><trkpt lat="41.12897" lon="0.1296133"><ele>279.0</ele><time>2026-03-31T14:35:02.159Z</time></trkpt><trkpt lat="41.12895" lon="0.1297383"><ele>279.0</ele><time>2026-03-31T14:35:03.16Z</time></trkpt><trkpt lat="41.1289667" lon="0.12987"><ele>279.0</ele><time>2026-03-31T14:35:04.16Z</time></trkpt><trkpt lat="41.12902" lon="0.129985"><ele>279.0</ele><time>2026-03-31T14:35:05.159Z</time></trkpt><trkpt lat="41.1291067" lon="0.1300533"><ele>279.0</ele><time>2026-03-31T14:35:06.159Z</time></trkpt><trkpt lat="41.1292133" lon="0.1300683"><ele>278.25</ele><time>2026-03-31T14:35:07.16Z</time></trkpt><trkpt lat="41.1293233" lon="0.130045"><ele>277.5</ele><time>2026-03-31T14:35:08.16Z</time></trkpt><trkpt lat="41.1294383" lon="0.12999"><ele>276.75</ele><time>2026-03-31T14:35:09.159Z</time></trkpt><trkpt lat="41.1295683" lon="0.1299267"><ele>276.0</ele><time>2026-03-31T14:35:10.159Z</time></trkpt><trkpt lat="41.1297067" lon="0.1298767"><ele>276.0</ele><time>2026-03-31T14:35:11.16Z</time></trkpt><trkpt lat="41.1298517" lon="0.1298417"><ele>276.0</ele><time>2026-03-31T14:35:12.159Z</time></trkpt><trkpt lat="41.130005" lon="0.1298233"><ele>276.0</ele><time>2026-03-31T14:35:13.16Z</time></trkpt><trkpt lat="41.1301617" lon="0.129795"><ele>277.3333333333333</ele><time>2026-03-31T14:35:14.159Z</time></trkpt><trkpt lat="41.130325" lon="0.129765"><ele>278.66666666666663</ele><time>2026-03-31T14:35:15.16Z</time></trkpt><trkpt lat="41.1304867" lon="0.1297317"><ele>280.0</ele><time>2026-03-31T14:35:16.159Z</time></trkpt><trkpt lat="41.130655" lon="0.1297083"><ele>277.66666666666663</ele><time>2026-03-31T14:35:17.16Z</time></trkpt><trkpt lat="41.1308267" lon="0.1297"><ele>275.3333333333333</ele><time>2026-03-31T14:35:18.16Z</time></trkpt><trkpt lat="41.1310083" lon="0.1296967"><ele>273.0</ele><time>2026-03-31T14:35:19.16Z</time></trkpt><trkpt lat="41.1311967" lon="0.1296967"><ele>273.0</ele><time>2026-03-31T14:35:20.16Z</time></trkpt><trkpt lat="41.1313867" lon="0.129725"><ele>273.0</ele><time>2026-03-31T14:35:21.159Z</time></trkpt><trkpt lat="41.131575" lon="0.1297717"><ele>273.0</ele><time>2026-03-31T14:35:22.16Z</time></trkpt><trkpt lat="41.131765" lon="0.1298433"><ele>272.6666666666667</ele><time>2026-03-31T14:35:23.159Z</time></trkpt><trkpt lat="41.1319533" lon="0.1299417"><ele>272.33333333333337</ele><time>2026-03-31T14:35:24.16Z</time></trkpt><trkpt lat="41.132135" lon="0.1300583"><ele>272.0</ele><time>2026-03-31T14:35:25.159Z</time></trkpt><trkpt lat="41.1323133" lon="0.1301967"><ele>273.33333333333337</ele><time>2026-03-31T14:35:26.159Z</time></trkpt><trkpt lat="41.1324817" lon="0.1303583"><ele>274.6666666666667</ele><time>2026-03-31T14:35:27.16Z</time></trkpt><trkpt lat="41.1326433" lon="0.1305333"><ele>276.0</ele><time>2026-03-31T14:35:28.159Z</time></trkpt><trkpt lat="41.1328167" lon="0.1307083"><ele>277.0</ele><time>2026-03-31T14:35:29.159Z</time></trkpt><trkpt lat="41.132985" lon="0.130875"><ele>278.0</ele><time>2026-03-31T14:35:30.159Z</time></trkpt><trkpt lat="41.1331533" lon="0.1310417"><ele>279.0</ele><time>2026-03-31T14:35:31.16Z</time></trkpt><trkpt lat="41.1333333" lon="0.1312067"><ele>279.0</ele><time>2026-03-31T14:35:32.159Z</time></trkpt><trkpt lat="41.133525" lon="0.1313617"><ele>279.0</ele><time>2026-03-31T14:35:33.159Z</time></trkpt><trkpt lat="41.1337367" lon="0.13149"><ele>276.5</ele><time>2026-03-31T14:35:34.16Z</time></trkpt><trkpt lat="41.13396" lon="0.13158"><ele>274.0</ele><time>2026-03-31T14:35:35.159Z</time></trkpt><trkpt lat="41.1341833" lon="0.1316517"><ele>274.0</ele><time>2026-03-31T14:35:36.159Z</time></trkpt><trkpt lat="41.1344167" lon="0.1316833"><ele>274.0</ele><time>2026-03-31T14:35:37.16Z</time></trkpt><trkpt lat="41.13465" lon="0.1316817"><ele>274.0</ele><time>2026-03-31T14:35:38.159Z</time></trkpt><trkpt lat="41.134885" lon="0.131655"><ele>274.0</ele><time>2026-03-31T14:35:39.159Z</time></trkpt><trkpt lat="41.1351183" lon="0.1316033"><ele>278.5</ele><time>2026-03-31T14:35:40.16Z</time></trkpt><trkpt lat="41.1353417" lon="0.1315433"><ele>283.0</ele><time>2026-03-31T14:35:41.159Z</time></trkpt><trkpt lat="41.1355633" lon="0.13147"><ele>275.5</ele><time>2026-03-31T14:35:42.159Z</time></trkpt><trkpt lat="41.135785" lon="0.1314067"><ele>268.0</ele><time>2026-03-31T14:35:43.159Z</time></trkpt><trkpt lat="41.1360067" lon="0.13135"><ele>268.0</ele><time>2026-03-31T14:35:44.16Z</time></trkpt><trkpt lat="41.1362183" lon="0.131285"><ele>268.0</ele><time>2026-03-31T14:35:45.16Z</time></trkpt><trkpt lat="41.1364233" lon="0.13123"><ele>268.0</ele><time>2026-03-31T14:35:46.16Z</time></trkpt><trkpt lat="41.136625" lon="0.1311783"><ele>268.66666666666663</ele><time>2026-03-31T14:35:47.159Z</time></trkpt><trkpt lat="41.13683" lon="0.1311183"><ele>269.3333333333333</ele><time>2026-03-31T14:35:48.159Z</time></trkpt><trkpt lat="41.1370367" lon="0.1310583"><ele>270.0</ele><time>2026-03-31T14:35:49.159Z</time></trkpt><trkpt lat="41.137245" lon="0.1310067"><ele>272.0</ele><time>2026-03-31T14:35:50.159Z</time></trkpt><trkpt lat="41.1374567" lon="0.130955"><ele>274.0</ele><time>2026-03-31T14:35:51.16Z</time></trkpt><trkpt lat="41.1376717" lon="0.1308933"><ele>276.0</ele><time>2026-03-31T14:35:52.159Z</time></trkpt><trkpt lat="41.1378833" lon="0.1308383"><ele>276.0</ele><time>2026-03-31T14:35:53.16Z</time></trkpt><trkpt lat="41.1381" lon="0.1307767"><ele>276.0</ele><time>2026-03-31T14:35:54.159Z</time></trkpt><trkpt lat="41.1383183" lon="0.1307183"><ele>276.0</ele><time>2026-03-31T14:35:55.159Z</time></trkpt><trkpt lat="41.1385283" lon="0.1306633"><ele>278.3333333333333</ele><time>2026-03-31T14:35:56.159Z</time></trkpt><trkpt lat="41.13874" lon="0.1305967"><ele>280.66666666666663</ele><time>2026-03-31T14:35:57.159Z</time></trkpt><trkpt lat="41.1389583" lon="0.1305367"><ele>283.0</ele><time>2026-03-31T14:35:58.16Z</time></trkpt><trkpt lat="41.1391767" lon="0.1304817"><ele>286.5</ele><time>2026-03-31T14:35:59.16Z</time></trkpt><trkpt lat="41.1393983" lon="0.1304283"><ele>290.0</ele><time>2026-03-31T14:36:00.159Z</time></trkpt><trkpt lat="41.1396217" lon="0.1303817"><ele>290.0</ele><time>2026-03-31T14:36:01.159Z</time></trkpt><trkpt lat="41.1398483" lon="0.1303467"><ele>290.0</ele><time>2026-03-31T14:36:02.159Z</time></trkpt><trkpt lat="41.1400667" lon="0.1303383"><ele>290.0</ele><time>2026-03-31T14:36:03.16Z</time></trkpt><trkpt lat="41.1403067" lon="0.13037"><ele>293.0</ele><time>2026-03-31T14:36:04.159Z</time></trkpt><trkpt lat="41.1405283" lon="0.130425"><ele>296.0</ele><time>2026-03-31T14:36:05.159Z</time></trkpt><trkpt lat="41.1407467" lon="0.130515"><ele>296.0</ele><time>2026-03-31T14:36:06.16Z</time></trkpt><trkpt lat="41.1409583" lon="0.1306317"><ele>296.0</ele><time>2026-03-31T14:36:07.16Z</time></trkpt><trkpt lat="41.1411667" lon="0.1307767"><ele>294.5</ele><time>2026-03-31T14:36:08.159Z</time></trkpt><trkpt lat="41.1413583" lon="0.1309467"><ele>293.0</ele><time>2026-03-31T14:36:09.159Z</time></trkpt><trkpt lat="41.141555" lon="0.13112"><ele>290.5</ele><time>2026-03-31T14:36:10.159Z</time></trkpt><trkpt lat="41.1417617" lon="0.1312933"><ele>288.0</ele><time>2026-03-31T14:36:11.16Z</time></trkpt><trkpt lat="41.1419767" lon="0.1314483"><ele>285.0</ele><time>2026-03-31T14:36:12.159Z</time></trkpt><trkpt lat="41.1421967" lon="0.13157"><ele>282.0</ele><time>2026-03-31T14:36:13.16Z</time></trkpt><trkpt lat="41.14243" lon="0.131655"><ele>281.0</ele><time>2026-03-31T14:36:14.159Z</time></trkpt><trkpt lat="41.142665" lon="0.1317283"><ele>280.0</ele><time>2026-03-31T14:36:15.159Z</time></trkpt><trkpt lat="41.1429033" lon="0.131775"><ele>280.0</ele><time>2026-03-31T14:36:16.159Z</time></trkpt><trkpt lat="41.1431633" lon="0.1317933"><ele>280.0</ele><time>2026-03-31T14:36:17.159Z</time></trkpt><trkpt lat="41.1434217" lon="0.13179"><ele>277.5</ele><time>2026-03-31T14:36:18.159Z</time></trkpt><trkpt lat="41.1436817" lon="0.13179"><ele>275.0</ele><time>2026-03-31T14:36:19.159Z</time></trkpt><trkpt lat="41.14394" lon="0.1318033"><ele>272.0</ele><time>2026-03-31T14:36:20.16Z</time></trkpt><trkpt lat="41.1441967" lon="0.1318217"><ele>269.0</ele><time>2026-03-31T14:36:21.159Z</time></trkpt><trkpt lat="41.1444567" lon="0.13185"><ele>269.0</ele><time>2026-03-31T14:36:22.159Z</time></trkpt><trkpt lat="41.1447133" lon="0.1318883"><ele>269.0</ele><time>2026-03-31T14:36:23.159Z</time></trkpt><trkpt lat="41.14497" lon="0.131935"><ele>269.5</ele><time>2026-03-31T14:36:24.16Z</time></trkpt><trkpt lat="41.14523" lon="0.1319883"><ele>270.0</ele><time>2026-03-31T14:36:25.16Z</time></trkpt><trkpt lat="41.1454917" lon="0.1320417"><ele>270.0</ele><time>2026-03-31T14:36:26.159Z</time></trkpt><trkpt lat="41.1457417" lon="0.1321017"><ele>270.0</ele><time>2026-03-31T14:36:27.16Z</time></trkpt><trkpt lat="41.145995" lon="0.1321717"><ele>270.0</ele><time>2026-03-31T14:36:28.159Z</time></trkpt><trkpt lat="41.146245" lon="0.13223"><ele>270.0</ele><time>2026-03-31T14:36:29.16Z</time></trkpt><trkpt lat="41.1464883" lon="0.1322883"><ele>271.0</ele><time>2026-03-31T14:36:30.16Z</time></trkpt><trkpt lat="41.1467367" lon="0.132345"><ele>272.0</ele><time>2026-03-31T14:36:31.159Z</time></trkpt><trkpt lat="41.1469883" lon="0.1323967"><ele>270.0</ele><time>2026-03-31T14:36:32.159Z</time></trkpt><trkpt lat="41.1472383" lon="0.1324517"><ele>268.0</ele><time>2026-03-31T14:36:33.159Z</time></trkpt><trkpt lat="41.1474867" lon="0.1325083"><ele>267.0</ele><time>2026-03-31T14:36:34.16Z</time></trkpt><trkpt lat="41.1477317" lon="0.1325683"><ele>266.0</ele><time>2026-03-31T14:36:35.159Z</time></trkpt><trkpt lat="41.1479733" lon="0.13263"><ele>267.0</ele><time>2026-03-31T14:36:36.16Z</time></trkpt><trkpt lat="41.148215" lon="0.1326883"><ele>268.0</ele><time>2026-03-31T14:36:37.159Z</time></trkpt><trkpt lat="41.1484583" lon="0.13274"><ele>268.0</ele><time>2026-03-31T14:36:38.159Z</time></trkpt><trkpt lat="41.148705" lon="0.1327833"><ele>268.0</ele><time>2026-03-31T14:36:39.159Z</time></trkpt><trkpt lat="41.14895" lon="0.13281"><ele>267.0</ele><time>2026-03-31T14:36:40.159Z</time></trkpt><trkpt lat="41.1492017" lon="0.1328133"><ele>266.0</ele><time>2026-03-31T14:36:41.159Z</time></trkpt><trkpt lat="41.1494517" lon="0.1328083"><ele>266.0</ele><time>2026-03-31T14:36:42.16Z</time></trkpt><trkpt lat="41.1496983" lon="0.1327867"><ele>266.0</ele><time>2026-03-31T14:36:43.159Z</time></trkpt><trkpt lat="41.1499483" lon="0.1327583"><ele>266.0</ele><time>2026-03-31T14:36:44.159Z</time></trkpt><trkpt lat="41.1501917" lon="0.132725"><ele>266.0</ele><time>2026-03-31T14:36:45.16Z</time></trkpt><trkpt lat="41.1504317" lon="0.1326867"><ele>266.0</ele><time>2026-03-31T14:36:46.159Z</time></trkpt><trkpt lat="41.150675" lon="0.1326467"><ele>266.0</ele><time>2026-03-31T14:36:47.159Z</time></trkpt><trkpt lat="41.1509183" lon="0.132605"><ele>266.0</ele><time>2026-03-31T14:36:48.16Z</time></trkpt><trkpt lat="41.1511633" lon="0.1325717"><ele>266.0</ele><time>2026-03-31T14:36:49.159Z</time></trkpt><trkpt lat="41.151415" lon="0.1325333"><ele>266.0</ele><time>2026-03-31T14:36:50.16Z</time></trkpt><trkpt lat="41.15167" lon="0.1325017"><ele>266.0</ele><time>2026-03-31T14:36:51.158Z</time></trkpt><trkpt lat="41.151925" lon="0.1324683"><ele>266.0</ele><time>2026-03-31T14:36:52.16Z</time></trkpt><trkpt lat="41.1521783" lon="0.13245"><ele>266.0</ele><time>2026-03-31T14:36:53.159Z</time></trkpt><trkpt lat="41.1524283" lon="0.13245"><ele>267.0</ele><time>2026-03-31T14:36:54.16Z</time></trkpt><trkpt lat="41.152685" lon="0.1324583"><ele>268.0</ele><time>2026-03-31T14:36:55.159Z</time></trkpt><trkpt lat="41.1529317" lon="0.1324733"><ele>268.0</ele><time>2026-03-31T14:36:56.159Z</time></trkpt><trkpt lat="41.153175" lon="0.1324767"><ele>268.0</ele><time>2026-03-31T14:36:57.16Z</time></trkpt><trkpt lat="41.153415" lon="0.1324917"><ele>266.0</ele><time>2026-03-31T14:36:58.16Z</time></trkpt><trkpt lat="41.1536583" lon="0.1324833"><ele>264.0</ele><time>2026-03-31T14:36:59.16Z</time></trkpt><trkpt lat="41.1539" lon="0.1324733"><ele>261.5</ele><time>2026-03-31T14:37:00.16Z</time></trkpt><trkpt lat="41.1541333" lon="0.1324433"><ele>259.0</ele><time>2026-03-31T14:37:01.159Z</time></trkpt><trkpt lat="41.15437" lon="0.13243"><ele>259.0</ele><time>2026-03-31T14:37:02.159Z</time></trkpt><trkpt lat="41.154605" lon="0.132415"><ele>259.0</ele><time>2026-03-31T14:37:03.16Z</time></trkpt><trkpt lat="41.1548383" lon="0.132395"><ele>265.5</ele><time>2026-03-31T14:37:04.16Z</time></trkpt><trkpt lat="41.1550783" lon="0.1323767"><ele>272.0</ele><time>2026-03-31T14:37:05.159Z</time></trkpt><trkpt lat="41.1553117" lon="0.1323583"><ele>272.0</ele><time>2026-03-31T14:37:06.159Z</time></trkpt><trkpt lat="41.1555533" lon="0.1323333"><ele>272.0</ele><time>2026-03-31T14:37:07.159Z</time></trkpt><trkpt lat="41.1557867" lon="0.1323117"><ele>269.0</ele><time>2026-03-31T14:37:08.159Z</time></trkpt><trkpt lat="41.1560233" lon="0.1322933"><ele>266.0</ele><time>2026-03-31T14:37:09.159Z</time></trkpt><trkpt lat="41.15626" lon="0.1322717"><ele>266.0</ele><time>2026-03-31T14:37:10.16Z</time></trkpt><trkpt lat="41.156505" lon="0.1322483"><ele>266.0</ele><time>2026-03-31T14:37:11.16Z</time></trkpt><trkpt lat="41.156765" lon="0.1322183"><ele>268.0</ele><time>2026-03-31T14:37:12.159Z</time></trkpt><trkpt lat="41.15702" lon="0.1321917"><ele>270.0</ele><time>2026-03-31T14:37:13.16Z</time></trkpt><trkpt lat="41.157265" lon="0.1321683"><ele>264.0</ele><time>2026-03-31T14:37:14.159Z</time></trkpt><trkpt lat="41.1574933" lon="0.1321533"><ele>258.0</ele><time>2026-03-31T14:37:15.159Z</time></trkpt><trkpt lat="41.157725" lon="0.1321367"><ele>258.0</ele><time>2026-03-31T14:37:16.159Z</time></trkpt><trkpt lat="41.1579533" lon="0.13211"><ele>258.0</ele><time>2026-03-31T14:37:17.159Z</time></trkpt><trkpt lat="41.1581917" lon="0.13209"><ele>257.0</ele><time>2026-03-31T14:37:18.159Z</time></trkpt><trkpt lat="41.1584333" lon="0.1320667"><ele>256.0</ele><time>2026-03-31T14:37:19.16Z</time></trkpt><trkpt lat="41.1586733" lon="0.13205"><ele>256.0</ele><time>2026-03-31T14:37:20.16Z</time></trkpt><trkpt lat="41.158915" lon="0.1320233"><ele>256.0</ele><time>2026-03-31T14:37:21.159Z</time></trkpt><trkpt lat="41.1591583" lon="0.132"><ele>258.5</ele><time>2026-03-31T14:37:22.159Z</time></trkpt><trkpt lat="41.15941" lon="0.1319683"><ele>261.0</ele><time>2026-03-31T14:37:23.159Z</time></trkpt><trkpt lat="41.1596533" lon="0.131945"><ele>260.5</ele><time>2026-03-31T14:37:24.159Z</time></trkpt><trkpt lat="41.1599" lon="0.1319117"><ele>260.0</ele><time>2026-03-31T14:37:25.159Z</time></trkpt><trkpt lat="41.1601333" lon="0.1318633"><ele>260.0</ele><time>2026-03-31T14:37:26.16Z</time></trkpt><trkpt lat="41.1603533" lon="0.1318083"><ele>260.0</ele><time>2026-03-31T14:37:27.16Z</time></trkpt><trkpt lat="41.1605533" lon="0.1317467"><ele>260.0</ele><time>2026-03-31T14:37:28.16Z</time></trkpt><trkpt lat="41.160745" lon="0.1316767"><ele>259.33333333333337</ele><time>2026-03-31T14:37:29.16Z</time></trkpt><trkpt lat="41.1609383" lon="0.13161"><ele>258.6666666666667</ele><time>2026-03-31T14:37:30.159Z</time></trkpt><trkpt lat="41.16113" lon="0.1315467"><ele>258.0</ele><time>2026-03-31T14:37:31.159Z</time></trkpt><trkpt lat="41.16132" lon="0.1314883"><ele>258.0</ele><time>2026-03-31T14:37:32.159Z</time></trkpt><trkpt lat="41.161515" lon="0.1314483"><ele>258.0</ele><time>2026-03-31T14:37:33.16Z</time></trkpt><trkpt lat="41.1617167" lon="0.1314133"><ele>258.0</ele><time>2026-03-31T14:37:34.16Z</time></trkpt><trkpt lat="41.1619117" lon="0.131385"><ele>257.0</ele><time>2026-03-31T14:37:35.16Z</time></trkpt><trkpt lat="41.162105" lon="0.1313667"><ele>256.0</ele><time>2026-03-31T14:37:36.159Z</time></trkpt><trkpt lat="41.16229" lon="0.131365"><ele>255.0</ele><time>2026-03-31T14:37:37.159Z</time></trkpt><trkpt lat="41.1624917" lon="0.1313667"><ele>254.33333333333331</ele><time>2026-03-31T14:37:38.159Z</time></trkpt><trkpt lat="41.162685" lon="0.1313633"><ele>253.66666666666666</ele><time>2026-03-31T14:37:39.159Z</time></trkpt><trkpt lat="41.1628783" lon="0.1313817"><ele>253.0</ele><time>2026-03-31T14:37:40.159Z</time></trkpt><trkpt lat="41.1630733" lon="0.1314133"><ele>251.66666666666666</ele><time>2026-03-31T14:37:41.159Z</time></trkpt><trkpt lat="41.1632767" lon="0.13145"><ele>250.33333333333331</ele><time>2026-03-31T14:37:42.159Z</time></trkpt><trkpt lat="41.1634767" lon="0.131495"><ele>249.0</ele><time>2026-03-31T14:37:43.16Z</time></trkpt><trkpt lat="41.1636783" lon="0.1315617"><ele>248.33333333333331</ele><time>2026-03-31T14:37:44.16Z</time></trkpt><trkpt lat="41.1638817" lon="0.13164"><ele>247.66666666666666</ele><time>2026-03-31T14:37:45.159Z</time></trkpt><trkpt lat="41.1640833" lon="0.131725"><ele>247.0</ele><time>2026-03-31T14:37:46.159Z</time></trkpt><trkpt lat="41.1642917" lon="0.1318183"><ele>250.0</ele><time>2026-03-31T14:37:47.16Z</time></trkpt><trkpt lat="41.164505" lon="0.1319067"><ele>253.0</ele><time>2026-03-31T14:37:48.159Z</time></trkpt><trkpt lat="41.164725" lon="0.132"><ele>253.5</ele><time>2026-03-31T14:37:49.159Z</time></trkpt><trkpt lat="41.1649467" lon="0.132085"><ele>254.0</ele><time>2026-03-31T14:37:50.159Z</time></trkpt><trkpt lat="41.1651717" lon="0.1321717"><ele>254.0</ele><time>2026-03-31T14:37:51.16Z</time></trkpt><trkpt lat="41.1654033" lon="0.1322517"><ele>254.0</ele><time>2026-03-31T14:37:52.159Z</time></trkpt><trkpt lat="41.16564" lon="0.1323317"><ele>252.0</ele><time>2026-03-31T14:37:53.159Z</time></trkpt><trkpt lat="41.1658767" lon="0.1324083"><ele>250.0</ele><time>2026-03-31T14:37:54.16Z</time></trkpt><trkpt lat="41.166115" lon="0.1324833"><ele>250.0</ele><time>2026-03-31T14:37:55.159Z</time></trkpt><trkpt lat="41.1663533" lon="0.1325717"><ele>250.0</ele><time>2026-03-31T14:37:56.159Z</time></trkpt><trkpt lat="41.166595" lon="0.1326467"><ele>251.0</ele><time>2026-03-31T14:37:57.159Z</time></trkpt><trkpt lat="41.1668317" lon="0.132725"><ele>252.0</ele><time>2026-03-31T14:37:58.16Z</time></trkpt><trkpt lat="41.1670667" lon="0.132805"><ele>252.0</ele><time>2026-03-31T14:37:59.16Z</time></trkpt><trkpt lat="41.1673" lon="0.132885"><ele>252.0</ele><time>2026-03-31T14:38:00.16Z</time></trkpt><trkpt lat="41.1675367" lon="0.132955"><ele>249.5</ele><time>2026-03-31T14:38:01.159Z</time></trkpt><trkpt lat="41.1677767" lon="0.1330283"><ele>247.0</ele><time>2026-03-31T14:38:02.16Z</time></trkpt><trkpt lat="41.1680117" lon="0.1331033"><ele>246.5</ele><time>2026-03-31T14:38:03.159Z</time></trkpt><trkpt lat="41.1682467" lon="0.1331733"><ele>246.0</ele><time>2026-03-31T14:38:04.16Z</time></trkpt><trkpt lat="41.168485" lon="0.1332483"><ele>245.5</ele><time>2026-03-31T14:38:05.16Z</time></trkpt><trkpt lat="41.1687167" lon="0.1333133"><ele>245.0</ele><time>2026-03-31T14:38:06.159Z</time></trkpt><trkpt lat="41.16894" lon="0.133385"><ele>245.5</ele><time>2026-03-31T14:38:07.159Z</time></trkpt><trkpt lat="41.169165" lon="0.1334533"><ele>246.0</ele><time>2026-03-31T14:38:08.159Z</time></trkpt><trkpt lat="41.1693883" lon="0.1335233"><ele>246.0</ele><time>2026-03-31T14:38:09.159Z</time></trkpt><trkpt lat="41.1696133" lon="0.1335917"><ele>246.0</ele><time>2026-03-31T14:38:10.159Z</time></trkpt><trkpt lat="41.1698367" lon="0.1336633"><ele>244.5</ele><time>2026-03-31T14:38:11.159Z</time></trkpt><trkpt lat="41.1700667" lon="0.1337367"><ele>243.0</ele><time>2026-03-31T14:38:12.159Z</time></trkpt><trkpt lat="41.1703" lon="0.1338117"><ele>243.0</ele><time>2026-03-31T14:38:13.159Z</time></trkpt><trkpt lat="41.1705267" lon="0.133885"><ele>243.0</ele><time>2026-03-31T14:38:14.159Z</time></trkpt><trkpt lat="41.1707567" lon="0.1339633"><ele>244.0</ele><time>2026-03-31T14:38:15.159Z</time></trkpt><trkpt lat="41.1709917" lon="0.1340333"><ele>245.0</ele><time>2026-03-31T14:38:16.159Z</time></trkpt><trkpt lat="41.1712267" lon="0.134115"><ele>245.0</ele><time>2026-03-31T14:38:17.16Z</time></trkpt><trkpt lat="41.1714583" lon="0.1341917"><ele>245.0</ele><time>2026-03-31T14:38:18.16Z</time></trkpt><trkpt lat="41.17169" lon="0.1342667"><ele>245.5</ele><time>2026-03-31T14:38:19.159Z</time></trkpt><trkpt lat="41.171925" lon="0.134335"><ele>246.0</ele><time>2026-03-31T14:38:20.16Z</time></trkpt><trkpt lat="41.172165" lon="0.1344083"><ele>247.0</ele><time>2026-03-31T14:38:21.16Z</time></trkpt><trkpt lat="41.1724083" lon="0.13448"><ele>248.0</ele><time>2026-03-31T14:38:22.159Z</time></trkpt><trkpt lat="41.1726417" lon="0.1345517"><ele>248.0</ele><time>2026-03-31T14:38:23.159Z</time></trkpt><trkpt lat="41.17288" lon="0.13464"><ele>248.0</ele><time>2026-03-31T14:38:24.159Z</time></trkpt><trkpt lat="41.1731217" lon="0.13474"><ele>251.5</ele><time>2026-03-31T14:38:25.158Z</time></trkpt><trkpt lat="41.173355" lon="0.13486"><ele>255.0</ele><time>2026-03-31T14:38:26.159Z</time></trkpt><trkpt lat="41.1735767" lon="0.135005"><ele>255.0</ele><time>2026-03-31T14:38:27.158Z</time></trkpt><trkpt lat="41.1737967" lon="0.1351733"><ele>255.0</ele><time>2026-03-31T14:38:28.158Z</time></trkpt><trkpt lat="41.174005" lon="0.1353767"><ele>254.5</ele><time>2026-03-31T14:38:29.158Z</time></trkpt><trkpt lat="41.1742017" lon="0.1355883"><ele>254.0</ele><time>2026-03-31T14:38:30.159Z</time></trkpt><trkpt lat="41.1743767" lon="0.1358167"><ele>254.0</ele><time>2026-03-31T14:38:31.158Z</time></trkpt><trkpt lat="41.174535" lon="0.1360667"><ele>254.0</ele><time>2026-03-31T14:38:32.159Z</time></trkpt><trkpt lat="41.174685" lon="0.13635"><ele>254.0</ele><time>2026-03-31T14:38:33.158Z</time></trkpt><trkpt lat="41.1748233" lon="0.1366333"><ele>254.0</ele><time>2026-03-31T14:38:34.158Z</time></trkpt><trkpt lat="41.1749483" lon="0.1369267"><ele>252.0</ele><time>2026-03-31T14:38:35.158Z</time></trkpt><trkpt lat="41.175065" lon="0.1372333"><ele>250.0</ele><time>2026-03-31T14:38:36.159Z</time></trkpt><trkpt lat="41.1751767" lon="0.1375467"><ele>250.0</ele><time>2026-03-31T14:38:37.159Z</time></trkpt><trkpt lat="41.1752917" lon="0.1378583"><ele>250.0</ele><time>2026-03-31T14:38:38.158Z</time></trkpt><trkpt lat="41.1754033" lon="0.1381717"><ele>249.5</ele><time>2026-03-31T14:38:39.158Z</time></trkpt><trkpt lat="41.1755133" lon="0.1384817"><ele>249.0</ele><time>2026-03-31T14:38:40.159Z</time></trkpt><trkpt lat="41.175625" lon="0.138785"><ele>249.5</ele><time>2026-03-31T14:38:41.159Z</time></trkpt><trkpt lat="41.1757333" lon="0.139085"><ele>250.0</ele><time>2026-03-31T14:38:42.158Z</time></trkpt><trkpt lat="41.175845" lon="0.1393867"><ele>250.0</ele><time>2026-03-31T14:38:43.159Z</time></trkpt><trkpt lat="41.1759517" lon="0.1396833"><ele>250.0</ele><time>2026-03-31T14:38:44.158Z</time></trkpt><trkpt lat="41.1760583" lon="0.1399833"><ele>250.5</ele><time>2026-03-31T14:38:45.158Z</time></trkpt><trkpt lat="41.17617" lon="0.1402783"><ele>251.0</ele><time>2026-03-31T14:38:46.158Z</time></trkpt><trkpt lat="41.1762833" lon="0.140575"><ele>250.0</ele><time>2026-03-31T14:38:47.159Z</time></trkpt><trkpt lat="41.1763833" lon="0.1408733"><ele>249.0</ele><time>2026-03-31T14:38:48.158Z</time></trkpt><trkpt lat="41.17649" lon="0.14117"><ele>249.5</ele><time>2026-03-31T14:38:49.159Z</time></trkpt><trkpt lat="41.1765967" lon="0.1414667"><ele>250.0</ele><time>2026-03-31T14:38:50.159Z</time></trkpt><trkpt lat="41.1767033" lon="0.1417617"><ele>251.0</ele><time>2026-03-31T14:38:51.158Z</time></trkpt><trkpt lat="41.17681" lon="0.1420567"><ele>252.0</ele><time>2026-03-31T14:38:52.159Z</time></trkpt><trkpt lat="41.17691" lon="0.1423533"><ele>251.5</ele><time>2026-03-31T14:38:53.159Z</time></trkpt><trkpt lat="41.1770033" lon="0.1426567"><ele>251.0</ele><time>2026-03-31T14:38:54.159Z</time></trkpt><trkpt lat="41.1770917" lon="0.142965"><ele>252.5</ele><time>2026-03-31T14:38:55.159Z</time></trkpt><trkpt lat="41.1771583" lon="0.1432967"><ele>254.0</ele><time>2026-03-31T14:38:56.158Z</time></trkpt><trkpt lat="41.1772117" lon="0.1436233"><ele>254.0</ele><time>2026-03-31T14:38:57.158Z</time></trkpt><trkpt lat="41.1772583" lon="0.14395"><ele>254.0</ele><time>2026-03-31T14:38:58.159Z</time></trkpt><trkpt lat="41.1772983" lon="0.14428"><ele>256.5</ele><time>2026-03-31T14:38:59.158Z</time></trkpt><trkpt lat="41.1773383" lon="0.1446167"><ele>259.0</ele><time>2026-03-31T14:39:00.158Z</time></trkpt><trkpt lat="41.1773733" lon="0.1449633"><ele>263.0</ele><time>2026-03-31T14:39:01.158Z</time></trkpt><trkpt lat="41.1774083" lon="0.1453"><ele>267.0</ele><time>2026-03-31T14:39:02.159Z</time></trkpt><trkpt lat="41.1774417" lon="0.1456333"><ele>268.0</ele><time>2026-03-31T14:39:03.159Z</time></trkpt><trkpt lat="41.17748" lon="0.1459667"><ele>269.0</ele><time>2026-03-31T14:39:04.159Z</time></trkpt><trkpt lat="41.17753" lon="0.1462917"><ele>267.0</ele><time>2026-03-31T14:39:05.158Z</time></trkpt><trkpt lat="41.1776033" lon="0.1466267"><ele>265.0</ele><time>2026-03-31T14:39:06.158Z</time></trkpt><trkpt lat="41.177695" lon="0.1469467"><ele>265.0</ele><time>2026-03-31T14:39:07.159Z</time></trkpt><trkpt lat="41.1778067" lon="0.1472633"><ele>265.0</ele><time>2026-03-31T14:39:08.158Z</time></trkpt><trkpt lat="41.1779167" lon="0.147575"><ele>263.5</ele><time>2026-03-31T14:39:09.159Z</time></trkpt><trkpt lat="41.1780317" lon="0.1478867"><ele>262.0</ele><time>2026-03-31T14:39:10.158Z</time></trkpt><trkpt lat="41.17814" lon="0.1481867"><ele>263.0</ele><time>2026-03-31T14:39:11.159Z</time></trkpt><trkpt lat="41.17824" lon="0.1484733"><ele>264.0</ele><time>2026-03-31T14:39:12.158Z</time></trkpt><trkpt lat="41.1783483" lon="0.14875"><ele>264.0</ele><time>2026-03-31T14:39:13.158Z</time></trkpt><trkpt lat="41.178455" lon="0.1490083"><ele>264.0</ele><time>2026-03-31T14:39:14.158Z</time></trkpt><trkpt lat="41.178575" lon="0.14925"><ele>264.0</ele><time>2026-03-31T14:39:15.159Z</time></trkpt><trkpt lat="41.1787117" lon="0.149465"><ele>264.6666666666667</ele><time>2026-03-31T14:39:16.159Z</time></trkpt><trkpt lat="41.1788683" lon="0.14966"><ele>265.33333333333337</ele><time>2026-03-31T14:39:17.158Z</time></trkpt><trkpt lat="41.1790333" lon="0.149835"><ele>266.0</ele><time>2026-03-31T14:39:18.158Z</time></trkpt><trkpt lat="41.1792033" lon="0.1499933"><ele>264.33333333333337</ele><time>2026-03-31T14:39:19.158Z</time></trkpt><trkpt lat="41.1793883" lon="0.1501317"><ele>262.6666666666667</ele><time>2026-03-31T14:39:20.158Z</time></trkpt><trkpt lat="41.1795783" lon="0.1502483"><ele>261.0</ele><time>2026-03-31T14:39:21.158Z</time></trkpt><trkpt lat="41.1797917" lon="0.1503433"><ele>258.0</ele><time>2026-03-31T14:39:22.158Z</time></trkpt><trkpt lat="41.180015" lon="0.1504033"><ele>255.0</ele><time>2026-03-31T14:39:23.158Z</time></trkpt><trkpt lat="41.1802367" lon="0.1504367"><ele>255.0</ele><time>2026-03-31T14:39:24.158Z</time></trkpt><trkpt lat="41.1804517" lon="0.150455"><ele>255.0</ele><time>2026-03-31T14:39:25.159Z</time></trkpt><trkpt lat="41.1806633" lon="0.1504733"><ele>255.0</ele><time>2026-03-31T14:39:26.158Z</time></trkpt><trkpt lat="41.1808767" lon="0.1504917"><ele>253.33333333333331</ele><time>2026-03-31T14:39:27.158Z</time></trkpt><trkpt lat="41.1810833" lon="0.1505117"><ele>251.66666666666666</ele><time>2026-03-31T14:39:28.159Z</time></trkpt><trkpt lat="41.1812883" lon="0.1505367"><ele>250.0</ele><time>2026-03-31T14:39:29.159Z</time></trkpt><trkpt lat="41.1815017" lon="0.15056"><ele>250.0</ele><time>2026-03-31T14:39:30.158Z</time></trkpt><trkpt lat="41.1817033" lon="0.15058"><ele>250.0</ele><time>2026-03-31T14:39:31.158Z</time></trkpt><trkpt lat="41.1819083" lon="0.1506017"><ele>250.0</ele><time>2026-03-31T14:39:32.158Z</time></trkpt><trkpt lat="41.1821083" lon="0.150625"><ele>250.0</ele><time>2026-03-31T14:39:33.159Z</time></trkpt><trkpt lat="41.1823083" lon="0.15065"><ele>250.0</ele><time>2026-03-31T14:39:34.159Z</time></trkpt><trkpt lat="41.18251" lon="0.1506817"><ele>250.0</ele><time>2026-03-31T14:39:35.158Z</time></trkpt><trkpt lat="41.1827083" lon="0.150705"><ele>249.66666666666666</ele><time>2026-03-31T14:39:36.159Z</time></trkpt><trkpt lat="41.1829133" lon="0.1507233"><ele>249.33333333333331</ele><time>2026-03-31T14:39:37.158Z</time></trkpt><trkpt lat="41.1831067" lon="0.1507433"><ele>249.0</ele><time>2026-03-31T14:39:38.158Z</time></trkpt><trkpt lat="41.1833" lon="0.150765"><ele>250.0</ele><time>2026-03-31T14:39:39.159Z</time></trkpt><trkpt lat="41.1834967" lon="0.150785"><ele>251.0</ele><time>2026-03-31T14:39:40.158Z</time></trkpt><trkpt lat="41.1836917" lon="0.15081"><ele>252.0</ele><time>2026-03-31T14:39:41.159Z</time></trkpt><trkpt lat="41.1838733" lon="0.1508367"><ele>252.66666666666669</ele><time>2026-03-31T14:39:42.159Z</time></trkpt><trkpt lat="41.1840433" lon="0.1508533"><ele>253.33333333333334</ele><time>2026-03-31T14:39:43.159Z</time></trkpt><trkpt lat="41.1842067" lon="0.15088"><ele>254.0</ele><time>2026-03-31T14:39:44.158Z</time></trkpt><trkpt lat="41.18437" lon="0.1509"><ele>254.0</ele><time>2026-03-31T14:39:45.158Z</time></trkpt><trkpt lat="41.184525" lon="0.1509233"><ele>254.0</ele><time>2026-03-31T14:39:46.159Z</time></trkpt><trkpt lat="41.18467" lon="0.1509433"><ele>254.0</ele><time>2026-03-31T14:39:47.158Z</time></trkpt><trkpt lat="41.1848067" lon="0.1509633"><ele>254.0</ele><time>2026-03-31T14:39:48.159Z</time></trkpt><trkpt lat="41.1849333" lon="0.15099"><ele>253.5</ele><time>2026-03-31T14:39:49.158Z</time></trkpt><trkpt lat="41.1850633" lon="0.1510233"><ele>253.0</ele><time>2026-03-31T14:39:50.159Z</time></trkpt><trkpt lat="41.1851817" lon="0.1510483"><ele>252.5</ele><time>2026-03-31T14:39:51.158Z</time></trkpt><trkpt lat="41.185295" lon="0.151065"><ele>252.0</ele><time>2026-03-31T14:39:52.158Z</time></trkpt><trkpt lat="41.1853983" lon="0.1510833"><ele>252.0</ele><time>2026-03-31T14:39:53.158Z</time></trkpt><trkpt lat="41.1854767" lon="0.1511283"><ele>252.0</ele><time>2026-03-31T14:39:54.159Z</time></trkpt><trkpt lat="41.1855433" lon="0.1512217"><ele>252.0</ele><time>2026-03-31T14:39:55.159Z</time></trkpt><trkpt lat="41.1855733" lon="0.1513367"><ele>252.0</ele><time>2026-03-31T14:39:56.158Z</time></trkpt><trkpt lat="41.18557" lon="0.1514733"><ele>252.0</ele><time>2026-03-31T14:39:57.159Z</time></trkpt><trkpt lat="41.1855267" lon="0.1516133"><ele>251.33333333333331</ele><time>2026-03-31T14:39:58.159Z</time></trkpt><trkpt lat="41.1854567" lon="0.1517767"><ele>250.66666666666666</ele><time>2026-03-31T14:39:59.159Z</time></trkpt><trkpt lat="41.1853933" lon="0.15196"><ele>250.0</ele><time>2026-03-31T14:40:00.158Z</time></trkpt><trkpt lat="41.185325" lon="0.1521567"><ele>248.0</ele><time>2026-03-31T14:40:01.158Z</time></trkpt><trkpt lat="41.185245" lon="0.1523767"><ele>246.0</ele><time>2026-03-31T14:40:02.159Z</time></trkpt><trkpt lat="41.1851633" lon="0.1525933"><ele>244.0</ele><time>2026-03-31T14:40:03.159Z</time></trkpt><trkpt lat="41.1850867" lon="0.152815"><ele>244.0</ele><time>2026-03-31T14:40:04.159Z</time></trkpt><trkpt lat="41.18501" lon="0.153045"><ele>244.0</ele><time>2026-03-31T14:40:05.158Z</time></trkpt><trkpt lat="41.1849283" lon="0.1532833"><ele>244.0</ele><time>2026-03-31T14:40:06.158Z</time></trkpt><trkpt lat="41.1848383" lon="0.15353"><ele>244.66666666666666</ele><time>2026-03-31T14:40:07.158Z</time></trkpt><trkpt lat="41.1847567" lon="0.1537817"><ele>245.33333333333331</ele><time>2026-03-31T14:40:08.159Z</time></trkpt><trkpt lat="41.184675" lon="0.15403"><ele>246.0</ele><time>2026-03-31T14:40:09.159Z</time></trkpt><trkpt lat="41.1845833" lon="0.1542867"><ele>247.66666666666669</ele><time>2026-03-31T14:40:10.159Z</time></trkpt><trkpt lat="41.184485" lon="0.15454"><ele>249.33333333333334</ele><time>2026-03-31T14:40:11.159Z</time></trkpt><trkpt lat="41.1843867" lon="0.15478"><ele>251.0</ele><time>2026-03-31T14:40:12.158Z</time></trkpt><trkpt lat="41.1842767" lon="0.155025"><ele>251.33333333333334</ele><time>2026-03-31T14:40:13.158Z</time></trkpt><trkpt lat="41.1841533" lon="0.15527"><ele>251.66666666666669</ele><time>2026-03-31T14:40:14.158Z</time></trkpt><trkpt lat="41.1840283" lon="0.1555067"><ele>252.0</ele><time>2026-03-31T14:40:15.158Z</time></trkpt><trkpt lat="41.1839" lon="0.1557483"><ele>251.33333333333331</ele><time>2026-03-31T14:40:16.159Z</time></trkpt><trkpt lat="41.18378" lon="0.15598"><ele>250.66666666666666</ele><time>2026-03-31T14:40:17.158Z</time></trkpt><trkpt lat="41.1836717" lon="0.1562017"><ele>250.0</ele><time>2026-03-31T14:40:18.159Z</time></trkpt><trkpt lat="41.1835583" lon="0.1564233"><ele>249.0</ele><time>2026-03-31T14:40:19.159Z</time></trkpt><trkpt lat="41.1834417" lon="0.1566367"><ele>248.0</ele><time>2026-03-31T14:40:20.158Z</time></trkpt><trkpt lat="41.183325" lon="0.1568417"><ele>247.0</ele><time>2026-03-31T14:40:21.158Z</time></trkpt><trkpt lat="41.1832183" lon="0.1570383"><ele>247.66666666666666</ele><time>2026-03-31T14:40:22.158Z</time></trkpt><trkpt lat="41.1831217" lon="0.1572283"><ele>248.33333333333331</ele><time>2026-03-31T14:40:23.159Z</time></trkpt><trkpt lat="41.183025" lon="0.1574217"><ele>249.0</ele><time>2026-03-31T14:40:24.159Z</time></trkpt><trkpt lat="41.1829317" lon="0.157615"><ele>247.66666666666669</ele><time>2026-03-31T14:40:25.158Z</time></trkpt><trkpt lat="41.1828433" lon="0.157805"><ele>246.33333333333334</ele><time>2026-03-31T14:40:26.158Z</time></trkpt><trkpt lat="41.1827383" lon="0.15799"><ele>245.0</ele><time>2026-03-31T14:40:27.158Z</time></trkpt><trkpt lat="41.1826383" lon="0.15817"><ele>243.0</ele><time>2026-03-31T14:40:28.158Z</time></trkpt><trkpt lat="41.18254" lon="0.1583467"><ele>241.0</ele><time>2026-03-31T14:40:29.158Z</time></trkpt><trkpt lat="41.1824483" lon="0.158505"><ele>239.0</ele><time>2026-03-31T14:40:30.159Z</time></trkpt><trkpt lat="41.1823483" lon="0.1586483"><ele>239.5</ele><time>2026-03-31T14:40:31.158Z</time></trkpt><trkpt lat="41.1822417" lon="0.1587833"><ele>240.0</ele><time>2026-03-31T14:40:32.158Z</time></trkpt><trkpt lat="41.1821333" lon="0.1588867"><ele>240.5</ele><time>2026-03-31T14:40:33.159Z</time></trkpt><trkpt lat="41.1820233" lon="0.1589717"><ele>241.0</ele><time>2026-03-31T14:40:34.158Z</time></trkpt><trkpt lat="41.1819317" lon="0.1590283"><ele>239.66666666666666</ele><time>2026-03-31T14:40:35.158Z</time></trkpt><trkpt lat="41.18187" lon="0.1590667"><ele>238.33333333333331</ele><time>2026-03-31T14:40:36.158Z</time></trkpt><trkpt lat="41.1818183" lon="0.15915"><ele>237.0</ele><time>2026-03-31T14:40:38.158Z</time></trkpt><trkpt lat="41.1819067" lon="0.15922"><ele>235.66666666666669</ele><time>2026-03-31T14:40:41.158Z</time></trkpt><trkpt lat="41.1819717" lon="0.1592167"><ele>234.33333333333334</ele><time>2026-03-31T14:40:42.159Z</time></trkpt><trkpt lat="41.1820567" lon="0.1591967"><ele>233.0</ele><time>2026-03-31T14:40:43.158Z</time></trkpt><trkpt lat="41.1821633" lon="0.15918"><ele>233.0</ele><time>2026-03-31T14:40:44.158Z</time></trkpt><trkpt lat="41.1822767" lon="0.1591783"><ele>233.0</ele><time>2026-03-31T14:40:45.158Z</time></trkpt><trkpt lat="41.1824017" lon="0.1591833"><ele>233.0</ele><time>2026-03-31T14:40:46.158Z</time></trkpt><trkpt lat="41.1825267" lon="0.1592033"><ele>233.0</ele><time>2026-03-31T14:40:47.159Z</time></trkpt><trkpt lat="41.1826483" lon="0.1592267"><ele>232.75</ele><time>2026-03-31T14:40:48.159Z</time></trkpt><trkpt lat="41.1827783" lon="0.1592567"><ele>232.5</ele><time>2026-03-31T14:40:49.159Z</time></trkpt><trkpt lat="41.1829083" lon="0.1592967"><ele>232.25</ele><time>2026-03-31T14:40:50.158Z</time></trkpt><trkpt lat="41.1830217" lon="0.1593233"><ele>232.0</ele><time>2026-03-31T14:40:51.159Z</time></trkpt><trkpt lat="41.183135" lon="0.1593483"><ele>232.5</ele><time>2026-03-31T14:40:52.158Z</time></trkpt><trkpt lat="41.18325" lon="0.1593483"><ele>233.0</ele><time>2026-03-31T14:40:53.159Z</time></trkpt><trkpt lat="41.1833683" lon="0.1593417"><ele>233.5</ele><time>2026-03-31T14:40:54.158Z</time></trkpt><trkpt lat="41.1834817" lon="0.1593267"><ele>234.0</ele><time>2026-03-31T14:40:55.158Z</time></trkpt><trkpt lat="41.18359" lon="0.1593067"><ele>234.0</ele><time>2026-03-31T14:40:56.158Z</time></trkpt><trkpt lat="41.1837083" lon="0.1592883"><ele>234.0</ele><time>2026-03-31T14:40:57.158Z</time></trkpt><trkpt lat="41.183835" lon="0.1592833"><ele>234.0</ele><time>2026-03-31T14:40:58.158Z</time></trkpt><trkpt lat="41.1839517" lon="0.159295"><ele>234.0</ele><time>2026-03-31T14:40:59.158Z</time></trkpt><trkpt lat="41.18406" lon="0.1593183"><ele>234.0</ele><time>2026-03-31T14:41:00.158Z</time></trkpt><trkpt lat="41.1841483" lon="0.1593433"><ele>234.0</ele><time>2026-03-31T14:41:01.159Z</time></trkpt><trkpt lat="41.1842483" lon="0.1593767"><ele>234.0</ele><time>2026-03-31T14:41:02.158Z</time></trkpt><trkpt lat="41.1843417" lon="0.1594017"><ele>234.0</ele><time>2026-03-31T14:41:03.158Z</time></trkpt><trkpt lat="41.1844267" lon="0.1594267"><ele>234.0</ele><time>2026-03-31T14:41:04.158Z</time></trkpt><trkpt lat="41.1844933" lon="0.1594533"><ele>234.0</ele><time>2026-03-31T14:41:05.158Z</time></trkpt><trkpt lat="41.1845833" lon="0.15949"><ele>234.0</ele><time>2026-03-31T14:41:07.159Z</time></trkpt><trkpt lat="41.1846083" lon="0.15958"><ele>233.99999999999997</ele><time>2026-03-31T14:41:12.158Z</time></trkpt><trkpt lat="41.1846817" lon="0.1596633"><ele>233.99999999999997</ele><time>2026-03-31T14:41:15.158Z</time></trkpt><trkpt lat="41.1847567" lon="0.1597167"><ele>234.0</ele><time>2026-03-31T14:41:18.159Z</time></trkpt><trkpt lat="41.1848167" lon="0.15967"><ele>234.0</ele><time>2026-03-31T14:41:22.158Z</time></trkpt><trkpt lat="41.1848117" lon="0.16051"><ele>232.83333333333334</ele><time>2026-03-31T14:47:37.157Z</time></trkpt><trkpt lat="41.1847967" lon="0.1605933"><ele>231.66666666666669</ele><time>2026-03-31T14:48:47.157Z</time></trkpt><trkpt lat="41.1848367" lon="0.16051"><ele>230.5</ele><time>2026-03-31T14:49:05.158Z</time></trkpt><trkpt lat="41.1848383" lon="0.1603533"><ele>229.33333333333334</ele><time>2026-03-31T14:49:07.157Z</time></trkpt><trkpt lat="41.1848333" lon="0.16026"><ele>228.16666666666669</ele><time>2026-03-31T14:49:08.157Z</time></trkpt><trkpt lat="41.1848167" lon="0.160175"><ele>227.0</ele><time>2026-03-31T14:49:09.157Z</time></trkpt><trkpt lat="41.1848067" lon="0.16009"><ele>227.00000000000003</ele><time>2026-03-31T14:49:10.158Z</time></trkpt><trkpt lat="41.1847983" lon="0.1600017"><ele>227.0</ele><time>2026-03-31T14:49:11.158Z</time></trkpt><trkpt lat="41.1848" lon="0.1599067"><ele>227.0</ele><time>2026-03-31T14:49:12.158Z</time></trkpt><trkpt lat="41.1848033" lon="0.159815"><ele>227.0</ele><time>2026-03-31T14:49:13.157Z</time></trkpt><trkpt lat="41.18477" lon="0.1596783"><ele>227.00000000000003</ele><time>2026-03-31T14:49:15.157Z</time></trkpt><trkpt lat="41.1846683" lon="0.159625"><ele>227.0</ele><time>2026-03-31T14:49:17.157Z</time></trkpt><trkpt lat="41.184605" lon="0.159535"><ele>228.39999999999998</ele><time>2026-03-31T14:49:19.157Z</time></trkpt><trkpt lat="41.1845583" lon="0.159465"><ele>229.79999999999998</ele><time>2026-03-31T14:49:21.158Z</time></trkpt><trkpt lat="41.1844917" lon="0.159435"><ele>231.2</ele><time>2026-03-31T14:49:22.157Z</time></trkpt><trkpt lat="41.1843983" lon="0.1594067"><ele>232.6</ele><time>2026-03-31T14:49:23.158Z</time></trkpt><trkpt lat="41.184285" lon="0.1593683"><ele>234.0</ele><time>2026-03-31T14:49:24.157Z</time></trkpt><trkpt lat="41.184175" lon="0.15934"><ele>234.0</ele><time>2026-03-31T14:49:25.157Z</time></trkpt><trkpt lat="41.184055" lon="0.1593083"><ele>234.0</ele><time>2026-03-31T14:49:26.158Z</time></trkpt><trkpt lat="41.18393" lon="0.1592983"><ele>234.0</ele><time>2026-03-31T14:49:27.158Z</time></trkpt><trkpt lat="41.1837967" lon="0.1592867"><ele>234.0</ele><time>2026-03-31T14:49:28.157Z</time></trkpt><trkpt lat="41.1836767" lon="0.1593"><ele>234.0</ele><time>2026-03-31T14:49:29.157Z</time></trkpt><trkpt lat="41.1835467" lon="0.159325"><ele>234.0</ele><time>2026-03-31T14:49:30.158Z</time></trkpt><trkpt lat="41.1834283" lon="0.1593467"><ele>234.0</ele><time>2026-03-31T14:49:31.157Z</time></trkpt><trkpt lat="41.1833033" lon="0.1593583"><ele>234.0</ele><time>2026-03-31T14:49:32.157Z</time></trkpt><trkpt lat="41.1831817" lon="0.15935"><ele>233.5</ele><time>2026-03-31T14:49:33.158Z</time></trkpt><trkpt lat="41.18305" lon="0.1593283"><ele>233.0</ele><time>2026-03-31T14:49:34.157Z</time></trkpt><trkpt lat="41.18292" lon="0.1592967"><ele>232.5</ele><time>2026-03-31T14:49:35.157Z</time></trkpt><trkpt lat="41.1827917" lon="0.159265"><ele>232.0</ele><time>2026-03-31T14:49:36.158Z</time></trkpt><trkpt lat="41.18266" lon="0.15923"><ele>232.0</ele><time>2026-03-31T14:49:37.158Z</time></trkpt><trkpt lat="41.1825233" lon="0.159215"><ele>232.0</ele><time>2026-03-31T14:49:38.158Z</time></trkpt><trkpt lat="41.18239" lon="0.15921"><ele>232.0</ele><time>2026-03-31T14:49:39.157Z</time></trkpt><trkpt lat="41.1822717" lon="0.1592083"><ele>232.0</ele><time>2026-03-31T14:49:40.158Z</time></trkpt><trkpt lat="41.1821633" lon="0.1592067"><ele>232.2</ele><time>2026-03-31T14:49:41.157Z</time></trkpt><trkpt lat="41.1820667" lon="0.1592033"><ele>232.39999999999998</ele><time>2026-03-31T14:49:42.157Z</time></trkpt><trkpt lat="41.1819767" lon="0.1592"><ele>232.60000000000002</ele><time>2026-03-31T14:49:43.158Z</time></trkpt><trkpt lat="41.1819033" lon="0.1591933"><ele>232.8</ele><time>2026-03-31T14:49:44.158Z</time></trkpt><trkpt lat="41.1818117" lon="0.1591583"><ele>233.0</ele><time>2026-03-31T14:49:46.158Z</time></trkpt><trkpt lat="41.1816833" lon="0.15917"><ele>233.0</ele><time>2026-03-31T14:49:48.158Z</time></trkpt><trkpt lat="41.1815933" lon="0.159215"><ele>233.0</ele><time>2026-03-31T14:49:49.157Z</time></trkpt><trkpt lat="41.181495" lon="0.15928"><ele>233.0</ele><time>2026-03-31T14:49:50.158Z</time></trkpt><trkpt lat="41.1813867" lon="0.1593467"><ele>233.0</ele><time>2026-03-31T14:49:51.157Z</time></trkpt><trkpt lat="41.18127" lon="0.159425"><ele>234.4</ele><time>2026-03-31T14:49:52.158Z</time></trkpt><trkpt lat="41.181155" lon="0.1595233"><ele>235.8</ele><time>2026-03-31T14:49:53.157Z</time></trkpt><trkpt lat="41.1810567" lon="0.159615"><ele>237.2</ele><time>2026-03-31T14:49:54.158Z</time></trkpt><trkpt lat="41.180975" lon="0.15969"><ele>238.6</ele><time>2026-03-31T14:49:55.158Z</time></trkpt><trkpt lat="41.18092" lon="0.1597383"><ele>240.0</ele><time>2026-03-31T14:49:56.158Z</time></trkpt><trkpt lat="41.1808683" lon="0.1597983"><ele>237.6</ele><time>2026-03-31T14:49:59.157Z</time></trkpt><trkpt lat="41.1808583" lon="0.1599183"><ele>235.2</ele><time>2026-03-31T14:50:11.157Z</time></trkpt><trkpt lat="41.180825" lon="0.1600117"><ele>232.8</ele><time>2026-03-31T14:50:12.158Z</time></trkpt><trkpt lat="41.1807717" lon="0.1601283"><ele>230.4</ele><time>2026-03-31T14:50:13.157Z</time></trkpt><trkpt lat="41.1807267" lon="0.160275"><ele>228.0</ele><time>2026-03-31T14:50:14.157Z</time></trkpt><trkpt lat="41.1806867" lon="0.1604433"><ele>228.33333333333331</ele><time>2026-03-31T14:50:15.157Z</time></trkpt><trkpt lat="41.1806483" lon="0.1606367"><ele>228.66666666666666</ele><time>2026-03-31T14:50:16.157Z</time></trkpt><trkpt lat="41.1806017" lon="0.1608333"><ele>229.0</ele><time>2026-03-31T14:50:17.157Z</time></trkpt><trkpt lat="41.180555" lon="0.161035"><ele>228.33333333333331</ele><time>2026-03-31T14:50:18.158Z</time></trkpt><trkpt lat="41.180515" lon="0.1612483"><ele>227.66666666666669</ele><time>2026-03-31T14:50:19.158Z</time></trkpt><trkpt lat="41.1804733" lon="0.1614583"><ele>227.0</ele><time>2026-03-31T14:50:20.157Z</time></trkpt><trkpt lat="41.1804283" lon="0.161675"><ele>227.0</ele><time>2026-03-31T14:50:21.157Z</time></trkpt><trkpt lat="41.1803933" lon="0.1618917"><ele>227.0</ele><time>2026-03-31T14:50:22.157Z</time></trkpt><trkpt lat="41.1803483" lon="0.1621067"><ele>227.0</ele><time>2026-03-31T14:50:23.157Z</time></trkpt><trkpt lat="41.1803083" lon="0.1623183"><ele>226.33333333333334</ele><time>2026-03-31T14:50:24.157Z</time></trkpt><trkpt lat="41.1802733" lon="0.1625317"><ele>225.66666666666669</ele><time>2026-03-31T14:50:25.158Z</time></trkpt><trkpt lat="41.1802417" lon="0.1627383"><ele>225.0</ele><time>2026-03-31T14:50:26.158Z</time></trkpt><trkpt lat="41.1802033" lon="0.1629217"><ele>225.0</ele><time>2026-03-31T14:50:27.157Z</time></trkpt><trkpt lat="41.1801667" lon="0.16311"><ele>225.0</ele><time>2026-03-31T14:50:28.158Z</time></trkpt><trkpt lat="41.1801333" lon="0.1632967"><ele>225.0</ele><time>2026-03-31T14:50:29.158Z</time></trkpt><trkpt lat="41.1800983" lon="0.1634683"><ele>225.0</ele><time>2026-03-31T14:50:30.157Z</time></trkpt><trkpt lat="41.18006" lon="0.16364"><ele>224.0</ele><time>2026-03-31T14:50:31.157Z</time></trkpt><trkpt lat="41.18003" lon="0.16381"><ele>223.0</ele><time>2026-03-31T14:50:32.158Z</time></trkpt><trkpt lat="41.1799967" lon="0.1639767"><ele>222.0</ele><time>2026-03-31T14:50:33.158Z</time></trkpt><trkpt lat="41.1799583" lon="0.164135"><ele>221.0</ele><time>2026-03-31T14:50:34.158Z</time></trkpt><trkpt lat="41.1799317" lon="0.1643017"><ele>221.0</ele><time>2026-03-31T14:50:35.157Z</time></trkpt><trkpt lat="41.1798967" lon="0.16445"><ele>221.0</ele><time>2026-03-31T14:50:36.157Z</time></trkpt><trkpt lat="41.1798617" lon="0.1646033"><ele>221.0</ele><time>2026-03-31T14:50:37.157Z</time></trkpt><trkpt lat="41.179825" lon="0.1647583"><ele>221.0</ele><time>2026-03-31T14:50:38.158Z</time></trkpt><trkpt lat="41.179795" lon="0.1649117"><ele>221.5</ele><time>2026-03-31T14:50:39.158Z</time></trkpt><trkpt lat="41.1797617" lon="0.165085"><ele>222.0</ele><time>2026-03-31T14:50:40.157Z</time></trkpt><trkpt lat="41.17974" lon="0.1652667"><ele>222.5</ele><time>2026-03-31T14:50:41.158Z</time></trkpt><trkpt lat="41.1797" lon="0.1654517"><ele>223.0</ele><time>2026-03-31T14:50:42.157Z</time></trkpt><trkpt lat="41.1796583" lon="0.1656283"><ele>223.0</ele><time>2026-03-31T14:50:43.157Z</time></trkpt><trkpt lat="41.1796267" lon="0.1658"><ele>223.0</ele><time>2026-03-31T14:50:44.157Z</time></trkpt><trkpt lat="41.179595" lon="0.1659617"><ele>223.0</ele><time>2026-03-31T14:50:45.158Z</time></trkpt><trkpt lat="41.17956" lon="0.1661367"><ele>223.0</ele><time>2026-03-31T14:50:46.158Z</time></trkpt><trkpt lat="41.1795167" lon="0.1662983"><ele>223.0</ele><time>2026-03-31T14:50:47.157Z</time></trkpt><trkpt lat="41.1794667" lon="0.1664583"><ele>223.0</ele><time>2026-03-31T14:50:48.157Z</time></trkpt><trkpt lat="41.17943" lon="0.1666"><ele>223.0</ele><time>2026-03-31T14:50:49.157Z</time></trkpt><trkpt lat="41.1793983" lon="0.16673"><ele>223.0</ele><time>2026-03-31T14:50:50.157Z</time></trkpt><trkpt lat="41.17937" lon="0.1668633"><ele>224.60000000000002</ele><time>2026-03-31T14:50:51.157Z</time></trkpt><trkpt lat="41.1793533" lon="0.1670017"><ele>226.20000000000002</ele><time>2026-03-31T14:50:52.157Z</time></trkpt><trkpt lat="41.1793417" lon="0.1671367"><ele>227.8</ele><time>2026-03-31T14:50:53.157Z</time></trkpt><trkpt lat="41.179335" lon="0.1672767"><ele>229.4</ele><time>2026-03-31T14:50:54.158Z</time></trkpt><trkpt lat="41.1793467" lon="0.16741"><ele>231.0</ele><time>2026-03-31T14:50:55.157Z</time></trkpt><trkpt lat="41.1793633" lon="0.167535"><ele>232.0</ele><time>2026-03-31T14:50:56.157Z</time></trkpt><trkpt lat="41.1794" lon="0.1676267"><ele>233.0</ele><time>2026-03-31T14:50:57.157Z</time></trkpt><trkpt lat="41.1794467" lon="0.1677067"><ele>234.0</ele><time>2026-03-31T14:50:58.158Z</time></trkpt><trkpt lat="41.1795067" lon="0.1677733"><ele>235.0</ele><time>2026-03-31T14:50:59.158Z</time></trkpt><trkpt lat="41.17957" lon="0.1678067"><ele>236.0</ele><time>2026-03-31T14:51:00.157Z</time></trkpt><trkpt lat="41.1796867" lon="0.16783"><ele>237.0</ele><time>2026-03-31T14:51:02.157Z</time></trkpt><trkpt lat="41.1797983" lon="0.16777"><ele>236.33333333333334</ele><time>2026-03-31T14:51:04.157Z</time></trkpt><trkpt lat="41.17986" lon="0.1677367"><ele>235.66666666666669</ele><time>2026-03-31T14:51:05.157Z</time></trkpt><trkpt lat="41.1799433" lon="0.1677233"><ele>235.0</ele><time>2026-03-31T14:51:06.158Z</time></trkpt><trkpt lat="41.1800367" lon="0.1677117"><ele>234.33333333333334</ele><time>2026-03-31T14:51:07.157Z</time></trkpt><trkpt lat="41.1801417" lon="0.1677033"><ele>233.66666666666669</ele><time>2026-03-31T14:51:08.158Z</time></trkpt><trkpt lat="41.180235" lon="0.16769"><ele>233.0</ele><time>2026-03-31T14:51:09.157Z</time></trkpt><trkpt lat="41.1803267" lon="0.167685"><ele>233.0</ele><time>2026-03-31T14:51:10.158Z</time></trkpt><trkpt lat="41.18041" lon="0.1677117"><ele>233.0</ele><time>2026-03-31T14:51:11.158Z</time></trkpt><trkpt lat="41.1805" lon="0.1677517"><ele>233.0</ele><time>2026-03-31T14:51:12.158Z</time></trkpt><trkpt lat="41.1806" lon="0.1677983"><ele>233.0</ele><time>2026-03-31T14:51:13.158Z</time></trkpt><trkpt lat="41.180705" lon="0.167835"><ele>233.0</ele><time>2026-03-31T14:51:14.157Z</time></trkpt><trkpt lat="41.1808167" lon="0.1678283"><ele>233.0</ele><time>2026-03-31T14:51:15.157Z</time></trkpt><trkpt lat="41.1809433" lon="0.1677983"><ele>233.0</ele><time>2026-03-31T14:51:16.158Z</time></trkpt><trkpt lat="41.181075" lon="0.16776"><ele>233.0</ele><time>2026-03-31T14:51:17.157Z</time></trkpt><trkpt lat="41.181205" lon="0.16773"><ele>233.0</ele><time>2026-03-31T14:51:18.157Z</time></trkpt><trkpt lat="41.1813433" lon="0.1677"><ele>233.0</ele><time>2026-03-31T14:51:19.157Z</time></trkpt><trkpt lat="41.1814733" lon="0.1676717"><ele>233.0</ele><time>2026-03-31T14:51:20.158Z</time></trkpt><trkpt lat="41.1815983" lon="0.1676733"><ele>233.0</ele><time>2026-03-31T14:51:21.157Z</time></trkpt><trkpt lat="41.1817317" lon="0.1677083"><ele>233.0</ele><time>2026-03-31T14:51:22.158Z</time></trkpt><trkpt lat="41.1818417" lon="0.16779"><ele>232.60000000000002</ele><time>2026-03-31T14:51:23.158Z</time></trkpt><trkpt lat="41.1819183" lon="0.16791"><ele>232.20000000000002</ele><time>2026-03-31T14:51:24.157Z</time></trkpt><trkpt lat="41.1819617" lon="0.1680517"><ele>231.8</ele><time>2026-03-31T14:51:25.157Z</time></trkpt><trkpt lat="41.181975" lon="0.1681917"><ele>231.4</ele><time>2026-03-31T14:51:26.157Z</time></trkpt><trkpt lat="41.1819517" lon="0.1683317"><ele>231.0</ele><time>2026-03-31T14:51:27.157Z</time></trkpt><trkpt lat="41.1819017" lon="0.1684683"><ele>234.5</ele><time>2026-03-31T14:51:28.157Z</time></trkpt><trkpt lat="41.1818267" lon="0.1686033"><ele>238.0</ele><time>2026-03-31T14:51:29.157Z</time></trkpt><trkpt lat="41.1817283" lon="0.1687467"><ele>241.5</ele><time>2026-03-31T14:51:30.158Z</time></trkpt><trkpt lat="41.181645" lon="0.1689017"><ele>245.0</ele><time>2026-03-31T14:51:31.158Z</time></trkpt><trkpt lat="41.1815883" lon="0.16907"><ele>245.0</ele><time>2026-03-31T14:51:32.157Z</time></trkpt><trkpt lat="41.18156" lon="0.169255"><ele>245.0</ele><time>2026-03-31T14:51:33.157Z</time></trkpt><trkpt lat="41.1815567" lon="0.16945"><ele>245.0</ele><time>2026-03-31T14:51:34.157Z</time></trkpt><trkpt lat="41.18158" lon="0.1696533"><ele>245.0</ele><time>2026-03-31T14:51:35.157Z</time></trkpt><trkpt lat="41.1816167" lon="0.1698533"><ele>245.0</ele><time>2026-03-31T14:51:36.157Z</time></trkpt><trkpt lat="41.1816733" lon="0.1700533"><ele>245.0</ele><time>2026-03-31T14:51:37.157Z</time></trkpt><trkpt lat="41.18172" lon="0.17026"><ele>245.0</ele><time>2026-03-31T14:51:38.157Z</time></trkpt><trkpt lat="41.1817717" lon="0.17046"><ele>245.0</ele><time>2026-03-31T14:51:39.158Z</time></trkpt><trkpt lat="41.181815" lon="0.1706633"><ele>245.0</ele><time>2026-03-31T14:51:40.157Z</time></trkpt><trkpt lat="41.18186" lon="0.170855"><ele>245.0</ele><time>2026-03-31T14:51:41.157Z</time></trkpt><trkpt lat="41.18191" lon="0.17105"><ele>246.33333333333334</ele><time>2026-03-31T14:51:42.158Z</time></trkpt><trkpt lat="41.18198" lon="0.1712333"><ele>247.66666666666669</ele><time>2026-03-31T14:51:43.157Z</time></trkpt><trkpt lat="41.1820717" lon="0.1714067"><ele>249.0</ele><time>2026-03-31T14:51:44.158Z</time></trkpt><trkpt lat="41.18219" lon="0.1715633"><ele>249.33333333333331</ele><time>2026-03-31T14:51:45.157Z</time></trkpt><trkpt lat="41.182325" lon="0.1717017"><ele>249.66666666666666</ele><time>2026-03-31T14:51:46.158Z</time></trkpt><trkpt lat="41.1824783" lon="0.1718133"><ele>250.0</ele><time>2026-03-31T14:51:47.157Z</time></trkpt><trkpt lat="41.1826417" lon="0.1719033"><ele>250.0</ele><time>2026-03-31T14:51:48.157Z</time></trkpt><trkpt lat="41.1828067" lon="0.17198"><ele>250.0</ele><time>2026-03-31T14:51:49.158Z</time></trkpt><trkpt lat="41.18297" lon="0.1720683"><ele>250.0</ele><time>2026-03-31T14:51:50.157Z</time></trkpt><trkpt lat="41.18313" lon="0.1721733"><ele>253.33333333333331</ele><time>2026-03-31T14:51:51.157Z</time></trkpt><trkpt lat="41.1832783" lon="0.1723"><ele>256.6666666666667</ele><time>2026-03-31T14:51:52.157Z</time></trkpt><trkpt lat="41.1834067" lon="0.172455"><ele>260.0</ele><time>2026-03-31T14:51:53.157Z</time></trkpt><trkpt lat="41.1835467" lon="0.1726217"><ele>260.0</ele><time>2026-03-31T14:51:54.157Z</time></trkpt><trkpt lat="41.1836767" lon="0.1727917"><ele>260.0</ele><time>2026-03-31T14:51:55.158Z</time></trkpt><trkpt lat="41.183825" lon="0.1729483"><ele>260.0</ele><time>2026-03-31T14:51:56.157Z</time></trkpt><trkpt lat="41.183975" lon="0.1730967"><ele>260.0</ele><time>2026-03-31T14:51:57.158Z</time></trkpt><trkpt lat="41.18414" lon="0.17323"><ele>260.0</ele><time>2026-03-31T14:51:58.158Z</time></trkpt><trkpt lat="41.1843033" lon="0.173365"><ele>260.0</ele><time>2026-03-31T14:51:59.157Z</time></trkpt><trkpt lat="41.1844633" lon="0.1734917"><ele>260.0</ele><time>2026-03-31T14:52:00.158Z</time></trkpt><trkpt lat="41.1846217" lon="0.1736267"><ele>260.0</ele><time>2026-03-31T14:52:01.157Z</time></trkpt><trkpt lat="41.18477" lon="0.17378"><ele>260.0</ele><time>2026-03-31T14:52:02.158Z</time></trkpt><trkpt lat="41.1848883" lon="0.1739467"><ele>260.0</ele><time>2026-03-31T14:52:03.157Z</time></trkpt><trkpt lat="41.1849967" lon="0.1741333"><ele>260.0</ele><time>2026-03-31T14:52:04.157Z</time></trkpt><trkpt lat="41.1850817" lon="0.174335"><ele>260.0</ele><time>2026-03-31T14:52:05.157Z</time></trkpt><trkpt lat="41.1851667" lon="0.17454"><ele>260.0</ele><time>2026-03-31T14:52:06.158Z</time></trkpt><trkpt lat="41.18524" lon="0.174745"><ele>260.0</ele><time>2026-03-31T14:52:07.158Z</time></trkpt><trkpt lat="41.1853083" lon="0.1749483"><ele>260.0</ele><time>2026-03-31T14:52:08.158Z</time></trkpt><trkpt lat="41.185375" lon="0.1751467"><ele>259.0</ele><time>2026-03-31T14:52:09.158Z</time></trkpt><trkpt lat="41.18545" lon="0.17535"><ele>258.0</ele><time>2026-03-31T14:52:10.157Z</time></trkpt><trkpt lat="41.1855367" lon="0.1755533"><ele>257.0</ele><time>2026-03-31T14:52:11.158Z</time></trkpt><trkpt lat="41.1856517" lon="0.17575"><ele>254.66666666666669</ele><time>2026-03-31T14:52:12.157Z</time></trkpt><trkpt lat="41.1857733" lon="0.1759317"><ele>252.33333333333331</ele><time>2026-03-31T14:52:13.157Z</time></trkpt><trkpt lat="41.1859" lon="0.1761017"><ele>250.0</ele><time>2026-03-31T14:52:14.157Z</time></trkpt><trkpt lat="41.1860483" lon="0.17625"><ele>250.0</ele><time>2026-03-31T14:52:15.157Z</time></trkpt><trkpt lat="41.1862133" lon="0.1763867"><ele>250.0</ele><time>2026-03-31T14:52:16.157Z</time></trkpt><trkpt lat="41.1864" lon="0.1764917"><ele>250.0</ele><time>2026-03-31T14:52:17.158Z</time></trkpt><trkpt lat="41.1866" lon="0.1766"><ele>246.33333333333331</ele><time>2026-03-31T14:52:18.157Z</time></trkpt><trkpt lat="41.18678" lon="0.1766983"><ele>242.66666666666669</ele><time>2026-03-31T14:52:19.158Z</time></trkpt><trkpt lat="41.1869667" lon="0.1767967"><ele>239.0</ele><time>2026-03-31T14:52:20.158Z</time></trkpt><trkpt lat="41.1871567" lon="0.1768967"><ele>239.0</ele><time>2026-03-31T14:52:21.157Z</time></trkpt><trkpt lat="41.1873417" lon="0.176995"><ele>239.0</ele><time>2026-03-31T14:52:22.157Z</time></trkpt><trkpt lat="41.187515" lon="0.1770933"><ele>239.0</ele><time>2026-03-31T14:52:23.158Z</time></trkpt><trkpt lat="41.1876983" lon="0.1771883"><ele>239.33333333333334</ele><time>2026-03-31T14:52:24.158Z</time></trkpt><trkpt lat="41.187885" lon="0.177275"><ele>239.66666666666669</ele><time>2026-03-31T14:52:25.157Z</time></trkpt><trkpt lat="41.1880567" lon="0.1773483"><ele>240.0</ele><time>2026-03-31T14:52:26.157Z</time></trkpt><trkpt lat="41.188235" lon="0.17741"><ele>237.33333333333331</ele><time>2026-03-31T14:52:27.157Z</time></trkpt><trkpt lat="41.188415" lon="0.177455"><ele>234.66666666666666</ele><time>2026-03-31T14:52:28.157Z</time></trkpt><trkpt lat="41.18861" lon="0.177485"><ele>232.0</ele><time>2026-03-31T14:52:29.157Z</time></trkpt><trkpt lat="41.1888033" lon="0.1775133"><ele>232.0</ele><time>2026-03-31T14:52:30.157Z</time></trkpt><trkpt lat="41.18899" lon="0.1775517"><ele>232.0</ele><time>2026-03-31T14:52:31.158Z</time></trkpt><trkpt lat="41.189165" lon="0.1776233"><ele>232.0</ele><time>2026-03-31T14:52:32.157Z</time></trkpt><trkpt lat="41.1893333" lon="0.1777167"><ele>231.0</ele><time>2026-03-31T14:52:33.157Z</time></trkpt><trkpt lat="41.1894833" lon="0.17785"><ele>230.0</ele><time>2026-03-31T14:52:34.158Z</time></trkpt><trkpt lat="41.189625" lon="0.1780083"><ele>229.0</ele><time>2026-03-31T14:52:35.157Z</time></trkpt><trkpt lat="41.18974" lon="0.17818"><ele>227.66666666666666</ele><time>2026-03-31T14:52:36.157Z</time></trkpt><trkpt lat="41.1898317" lon="0.1783817"><ele>226.33333333333331</ele><time>2026-03-31T14:52:37.157Z</time></trkpt><trkpt lat="41.18989" lon="0.17861"><ele>225.0</ele><time>2026-03-31T14:52:38.158Z</time></trkpt><trkpt lat="41.1899333" lon="0.1788533"><ele>225.66666666666669</ele><time>2026-03-31T14:52:39.158Z</time></trkpt><trkpt lat="41.189955" lon="0.1790983"><ele>226.33333333333334</ele><time>2026-03-31T14:52:40.157Z</time></trkpt><trkpt lat="41.18997" lon="0.1793533"><ele>227.0</ele><time>2026-03-31T14:52:41.158Z</time></trkpt><trkpt lat="41.189985" lon="0.179615"><ele>228.0</ele><time>2026-03-31T14:52:42.157Z</time></trkpt><trkpt lat="41.1900133" lon="0.1798783"><ele>229.0</ele><time>2026-03-31T14:52:43.158Z</time></trkpt><trkpt lat="41.1900533" lon="0.180135"><ele>230.0</ele><time>2026-03-31T14:52:44.157Z</time></trkpt><trkpt lat="41.1901133" lon="0.18039"><ele>230.0</ele><time>2026-03-31T14:52:45.158Z</time></trkpt><trkpt lat="41.1901867" lon="0.1806333"><ele>230.0</ele><time>2026-03-31T14:52:46.157Z</time></trkpt><trkpt lat="41.190255" lon="0.1808667"><ele>230.0</ele><time>2026-03-31T14:52:47.157Z</time></trkpt><trkpt lat="41.1903183" lon="0.1810833"><ele>229.66666666666669</ele><time>2026-03-31T14:52:48.158Z</time></trkpt><trkpt lat="41.190375" lon="0.181295"><ele>229.33333333333331</ele><time>2026-03-31T14:52:49.157Z</time></trkpt><trkpt lat="41.1904183" lon="0.1815183"><ele>229.0</ele><time>2026-03-31T14:52:50.157Z</time></trkpt><trkpt lat="41.190425" lon="0.18176"><ele>227.33333333333331</ele><time>2026-03-31T14:52:51.157Z</time></trkpt><trkpt lat="41.190405" lon="0.1819967"><ele>225.66666666666669</ele><time>2026-03-31T14:52:52.157Z</time></trkpt><trkpt lat="41.19037" lon="0.1822433"><ele>224.0</ele><time>2026-03-31T14:52:53.157Z</time></trkpt><trkpt lat="41.1903217" lon="0.1824817"><ele>223.33333333333334</ele><time>2026-03-31T14:52:54.157Z</time></trkpt><trkpt lat="41.1902717" lon="0.182725"><ele>222.66666666666669</ele><time>2026-03-31T14:52:55.158Z</time></trkpt><trkpt lat="41.1902233" lon="0.1829767"><ele>222.0</ele><time>2026-03-31T14:52:56.157Z</time></trkpt><trkpt lat="41.19019" lon="0.1832383"><ele>221.33333333333331</ele><time>2026-03-31T14:52:57.157Z</time></trkpt><trkpt lat="41.19018" lon="0.1834917"><ele>220.66666666666666</ele><time>2026-03-31T14:52:58.158Z</time></trkpt><trkpt lat="41.1901883" lon="0.183745"><ele>220.0</ele><time>2026-03-31T14:52:59.157Z</time></trkpt><trkpt lat="41.190215" lon="0.18399"><ele>222.0</ele><time>2026-03-31T14:53:00.157Z</time></trkpt><trkpt lat="41.1902467" lon="0.1842317"><ele>224.0</ele><time>2026-03-31T14:53:01.158Z</time></trkpt><trkpt lat="41.1902917" lon="0.184485"><ele>226.0</ele><time>2026-03-31T14:53:02.157Z</time></trkpt><trkpt lat="41.1903333" lon="0.1847383"><ele>225.0</ele><time>2026-03-31T14:53:03.158Z</time></trkpt><trkpt lat="41.1903883" lon="0.1849733"><ele>224.0</ele><time>2026-03-31T14:53:04.157Z</time></trkpt><trkpt lat="41.1904383" lon="0.185215"><ele>223.0</ele><time>2026-03-31T14:53:05.157Z</time></trkpt><trkpt lat="41.1904767" lon="0.1854617"><ele>224.33333333333331</ele><time>2026-03-31T14:53:06.158Z</time></trkpt><trkpt lat="41.1904867" lon="0.1857033"><ele>225.66666666666669</ele><time>2026-03-31T14:53:07.158Z</time></trkpt><trkpt lat="41.1904683" lon="0.1859417"><ele>227.0</ele><time>2026-03-31T14:53:08.157Z</time></trkpt><trkpt lat="41.1904067" lon="0.1861783"><ele>227.0</ele><time>2026-03-31T14:53:09.158Z</time></trkpt><trkpt lat="41.1903383" lon="0.18642"><ele>227.0</ele><time>2026-03-31T14:53:10.158Z</time></trkpt><trkpt lat="41.1902667" lon="0.1866683"><ele>227.0</ele><time>2026-03-31T14:53:11.158Z</time></trkpt><trkpt lat="41.1902033" lon="0.1869067"><ele>228.0</ele><time>2026-03-31T14:53:12.157Z</time></trkpt><trkpt lat="41.190145" lon="0.1871467"><ele>229.0</ele><time>2026-03-31T14:53:13.157Z</time></trkpt><trkpt lat="41.1901017" lon="0.1873883"><ele>230.0</ele><time>2026-03-31T14:53:14.157Z</time></trkpt><trkpt lat="41.19008" lon="0.18763"><ele>228.0</ele><time>2026-03-31T14:53:15.157Z</time></trkpt><trkpt lat="41.1900933" lon="0.1878717"><ele>226.0</ele><time>2026-03-31T14:53:16.158Z</time></trkpt><trkpt lat="41.1901333" lon="0.1881033"><ele>224.0</ele><time>2026-03-31T14:53:17.157Z</time></trkpt><trkpt lat="41.1901933" lon="0.18834"><ele>223.0</ele><time>2026-03-31T14:53:18.157Z</time></trkpt><trkpt lat="41.19027" lon="0.188575"><ele>222.0</ele><time>2026-03-31T14:53:19.157Z</time></trkpt><trkpt lat="41.1903433" lon="0.188805"><ele>221.0</ele><time>2026-03-31T14:53:20.157Z</time></trkpt><trkpt lat="41.1904183" lon="0.1890367"><ele>221.0</ele><time>2026-03-31T14:53:21.157Z</time></trkpt><trkpt lat="41.19049" lon="0.189255"><ele>221.0</ele><time>2026-03-31T14:53:22.157Z</time></trkpt><trkpt lat="41.1905683" lon="0.18947"><ele>221.0</ele><time>2026-03-31T14:53:23.158Z</time></trkpt><trkpt lat="41.1906633" lon="0.1896717"><ele>221.0</ele><time>2026-03-31T14:53:24.157Z</time></trkpt><trkpt lat="41.1907767" lon="0.1898667"><ele>221.0</ele><time>2026-03-31T14:53:25.158Z</time></trkpt><trkpt lat="41.190905" lon="0.1900433"><ele>221.0</ele><time>2026-03-31T14:53:26.157Z</time></trkpt><trkpt lat="41.191045" lon="0.1902033"><ele>221.0</ele><time>2026-03-31T14:53:27.157Z</time></trkpt><trkpt lat="41.191205" lon="0.1903617"><ele>221.0</ele><time>2026-03-31T14:53:28.158Z</time></trkpt><trkpt lat="41.1913417" lon="0.1905317"><ele>221.0</ele><time>2026-03-31T14:53:29.158Z</time></trkpt><trkpt lat="41.19144" lon="0.19072"><ele>220.0</ele><time>2026-03-31T14:53:30.157Z</time></trkpt><trkpt lat="41.191515" lon="0.190925"><ele>219.0</ele><time>2026-03-31T14:53:31.157Z</time></trkpt><trkpt lat="41.191565" lon="0.191155"><ele>218.0</ele><time>2026-03-31T14:53:32.157Z</time></trkpt><trkpt lat="41.1916" lon="0.1914033"><ele>218.33333333333334</ele><time>2026-03-31T14:53:33.157Z</time></trkpt><trkpt lat="41.1916017" lon="0.19165"><ele>218.66666666666669</ele><time>2026-03-31T14:53:34.158Z</time></trkpt><trkpt lat="41.1915867" lon="0.1919083"><ele>219.0</ele><time>2026-03-31T14:53:35.158Z</time></trkpt><trkpt lat="41.1915883" lon="0.1921733"><ele>218.33333333333331</ele><time>2026-03-31T14:53:36.158Z</time></trkpt><trkpt lat="41.1916083" lon="0.1924283"><ele>217.66666666666666</ele><time>2026-03-31T14:53:37.158Z</time></trkpt><trkpt lat="41.19167" lon="0.1926617"><ele>217.0</ele><time>2026-03-31T14:53:38.157Z</time></trkpt><trkpt lat="41.191755" lon="0.1928717"><ele>217.0</ele><time>2026-03-31T14:53:39.158Z</time></trkpt><trkpt lat="41.1918717" lon="0.1930517"><ele>217.0</ele><time>2026-03-31T14:53:40.157Z</time></trkpt><trkpt lat="41.1920083" lon="0.19322"><ele>217.0</ele><time>2026-03-31T14:53:41.158Z</time></trkpt><trkpt lat="41.19214" lon="0.19339"><ele>217.0</ele><time>2026-03-31T14:53:42.157Z</time></trkpt><trkpt lat="41.1922533" lon="0.19356"><ele>217.0</ele><time>2026-03-31T14:53:43.158Z</time></trkpt><trkpt lat="41.1923383" lon="0.1937483"><ele>217.0</ele><time>2026-03-31T14:53:44.158Z</time></trkpt><trkpt lat="41.192405" lon="0.1939483"><ele>218.33333333333331</ele><time>2026-03-31T14:53:45.157Z</time></trkpt><trkpt lat="41.1924517" lon="0.19416"><ele>219.66666666666669</ele><time>2026-03-31T14:53:46.157Z</time></trkpt><trkpt lat="41.1924667" lon="0.1943917"><ele>221.0</ele><time>2026-03-31T14:53:47.157Z</time></trkpt><trkpt lat="41.1924483" lon="0.1946283"><ele>222.66666666666669</ele><time>2026-03-31T14:53:48.158Z</time></trkpt><trkpt lat="41.1924067" lon="0.1948733"><ele>224.33333333333331</ele><time>2026-03-31T14:53:49.157Z</time></trkpt><trkpt lat="41.1923483" lon="0.195105"><ele>226.0</ele><time>2026-03-31T14:53:50.156Z</time></trkpt><trkpt lat="41.1922733" lon="0.195345"><ele>226.0</ele><time>2026-03-31T14:53:51.156Z</time></trkpt><trkpt lat="41.1922067" lon="0.195585"><ele>226.0</ele><time>2026-03-31T14:53:52.156Z</time></trkpt><trkpt lat="41.1921433" lon="0.19583"><ele>226.0</ele><time>2026-03-31T14:53:53.156Z</time></trkpt><trkpt lat="41.1920783" lon="0.196065"><ele>227.66666666666666</ele><time>2026-03-31T14:53:54.156Z</time></trkpt><trkpt lat="41.1920283" lon="0.19628"><ele>229.33333333333331</ele><time>2026-03-31T14:53:55.156Z</time></trkpt><trkpt lat="41.1919683" lon="0.19649"><ele>231.0</ele><time>2026-03-31T14:53:56.157Z</time></trkpt><trkpt lat="41.1919233" lon="0.196705"><ele>233.0</ele><time>2026-03-31T14:53:57.156Z</time></trkpt><trkpt lat="41.1918983" lon="0.1969267"><ele>235.0</ele><time>2026-03-31T14:53:58.156Z</time></trkpt><trkpt lat="41.1918983" lon="0.1971383"><ele>237.0</ele><time>2026-03-31T14:53:59.156Z</time></trkpt><trkpt lat="41.1919283" lon="0.1973317"><ele>238.0</ele><time>2026-03-31T14:54:00.157Z</time></trkpt><trkpt lat="41.191985" lon="0.1975083"><ele>239.0</ele><time>2026-03-31T14:54:01.156Z</time></trkpt><trkpt lat="41.192065" lon="0.1976717"><ele>240.0</ele><time>2026-03-31T14:54:02.156Z</time></trkpt><trkpt lat="41.1921633" lon="0.1978267"><ele>241.0</ele><time>2026-03-31T14:54:03.157Z</time></trkpt><trkpt lat="41.19228" lon="0.1979633"><ele>242.66666666666666</ele><time>2026-03-31T14:54:04.157Z</time></trkpt><trkpt lat="41.19239" lon="0.1981033"><ele>244.33333333333331</ele><time>2026-03-31T14:54:05.156Z</time></trkpt><trkpt lat="41.1925067" lon="0.19824"><ele>246.0</ele><time>2026-03-31T14:54:06.157Z</time></trkpt><trkpt lat="41.19261" lon="0.1983933"><ele>248.66666666666669</ele><time>2026-03-31T14:54:07.156Z</time></trkpt><trkpt lat="41.1927017" lon="0.1985583"><ele>251.33333333333334</ele><time>2026-03-31T14:54:08.156Z</time></trkpt><trkpt lat="41.1927717" lon="0.198755"><ele>254.0</ele><time>2026-03-31T14:54:09.156Z</time></trkpt><trkpt lat="41.1928117" lon="0.1989567"><ele>258.6666666666667</ele><time>2026-03-31T14:54:10.157Z</time></trkpt><trkpt lat="41.19284" lon="0.1991617"><ele>263.3333333333333</ele><time>2026-03-31T14:54:11.156Z</time></trkpt><trkpt lat="41.1928467" lon="0.19936"><ele>268.0</ele><time>2026-03-31T14:54:12.157Z</time></trkpt><trkpt lat="41.1928533" lon="0.1995683"><ele>268.0</ele><time>2026-03-31T14:54:13.157Z</time></trkpt><trkpt lat="41.19287" lon="0.1997533"><ele>268.0</ele><time>2026-03-31T14:54:14.156Z</time></trkpt><trkpt lat="41.192905" lon="0.1999283"><ele>268.0</ele><time>2026-03-31T14:54:15.156Z</time></trkpt><trkpt lat="41.1929717" lon="0.2001033"><ele>268.0</ele><time>2026-03-31T14:54:16.157Z</time></trkpt><trkpt lat="41.1930583" lon="0.2002717"><ele>269.0</ele><time>2026-03-31T14:54:17.156Z</time></trkpt><trkpt lat="41.1931733" lon="0.2004233"><ele>270.0</ele><time>2026-03-31T14:54:18.156Z</time></trkpt><trkpt lat="41.1933033" lon="0.200565"><ele>271.0</ele><time>2026-03-31T14:54:19.157Z</time></trkpt><trkpt lat="41.1934483" lon="0.200695"><ele>271.0</ele><time>2026-03-31T14:54:20.156Z</time></trkpt><trkpt lat="41.193585" lon="0.2008383"><ele>271.0</ele><time>2026-03-31T14:54:21.156Z</time></trkpt><trkpt lat="41.1936967" lon="0.2010033"><ele>271.0</ele><time>2026-03-31T14:54:22.157Z</time></trkpt><trkpt lat="41.193785" lon="0.2011833"><ele>271.0</ele><time>2026-03-31T14:54:23.156Z</time></trkpt><trkpt lat="41.1938583" lon="0.2013417"><ele>271.0</ele><time>2026-03-31T14:54:24.157Z</time></trkpt><trkpt lat="41.1939183" lon="0.20148"><ele>271.0</ele><time>2026-03-31T14:54:25.157Z</time></trkpt><trkpt lat="41.1939917" lon="0.2016"><ele>271.0</ele><time>2026-03-31T14:54:26.156Z</time></trkpt><trkpt lat="41.1940783" lon="0.2017067"><ele>270.0</ele><time>2026-03-31T14:54:27.156Z</time></trkpt><trkpt lat="41.1941767" lon="0.201785"><ele>269.0</ele><time>2026-03-31T14:54:28.157Z</time></trkpt><trkpt lat="41.1942933" lon="0.2018033"><ele>268.0</ele><time>2026-03-31T14:54:29.157Z</time></trkpt><trkpt lat="41.19441" lon="0.20177"><ele>267.0</ele><time>2026-03-31T14:54:30.156Z</time></trkpt><trkpt lat="41.1945217" lon="0.2016733"><ele>267.0</ele><time>2026-03-31T14:54:31.156Z</time></trkpt><trkpt lat="41.1946217" lon="0.201545"><ele>267.0</ele><time>2026-03-31T14:54:32.157Z</time></trkpt><trkpt lat="41.1946667" lon="0.201395"><ele>267.0</ele><time>2026-03-31T14:54:33.157Z</time></trkpt><trkpt lat="41.1946883" lon="0.2012267"><ele>267.0</ele><time>2026-03-31T14:54:34.156Z</time></trkpt><trkpt lat="41.1947" lon="0.2010533"><ele>267.4</ele><time>2026-03-31T14:54:35.156Z</time></trkpt><trkpt lat="41.1947433" lon="0.2009"><ele>267.79999999999995</ele><time>2026-03-31T14:54:36.156Z</time></trkpt><trkpt lat="41.19481" lon="0.2007917"><ele>268.2</ele><time>2026-03-31T14:54:37.157Z</time></trkpt><trkpt lat="41.1948983" lon="0.20073"><ele>268.59999999999997</ele><time>2026-03-31T14:54:38.157Z</time></trkpt><trkpt lat="41.1949883" lon="0.2007333"><ele>269.0</ele><time>2026-03-31T14:54:39.157Z</time></trkpt><trkpt lat="41.1950683" lon="0.200795"><ele>269.0</ele><time>2026-03-31T14:54:40.156Z</time></trkpt><trkpt lat="41.195135" lon="0.2009017"><ele>269.0</ele><time>2026-03-31T14:54:41.156Z</time></trkpt><trkpt lat="41.1951633" lon="0.2010467"><ele>269.0</ele><time>2026-03-31T14:54:42.156Z</time></trkpt><trkpt lat="41.1951517" lon="0.2011933"><ele>269.0</ele><time>2026-03-31T14:54:43.156Z</time></trkpt><trkpt lat="41.19511" lon="0.20134"><ele>269.0</ele><time>2026-03-31T14:54:44.156Z</time></trkpt><trkpt lat="41.1950183" lon="0.20152"><ele>268.33333333333337</ele><time>2026-03-31T14:54:45.157Z</time></trkpt><trkpt lat="41.19494" lon="0.2016967"><ele>267.6666666666667</ele><time>2026-03-31T14:54:46.157Z</time></trkpt><trkpt lat="41.1948733" lon="0.2018833"><ele>267.0</ele><time>2026-03-31T14:54:47.156Z</time></trkpt><trkpt lat="41.1948183" lon="0.2020867"><ele>267.0</ele><time>2026-03-31T14:54:48.156Z</time></trkpt><trkpt lat="41.194775" lon="0.2023017"><ele>267.0</ele><time>2026-03-31T14:54:49.156Z</time></trkpt><trkpt lat="41.19475" lon="0.2025167"><ele>267.0</ele><time>2026-03-31T14:54:50.156Z</time></trkpt><trkpt lat="41.1947083" lon="0.2027483"><ele>263.3333333333333</ele><time>2026-03-31T14:54:51.157Z</time></trkpt><trkpt lat="41.1946883" lon="0.2029833"><ele>259.66666666666663</ele><time>2026-03-31T14:54:52.156Z</time></trkpt><trkpt lat="41.1946733" lon="0.2032133"><ele>256.0</ele><time>2026-03-31T14:54:53.157Z</time></trkpt><trkpt lat="41.1946817" lon="0.2034467"><ele>252.33333333333331</ele><time>2026-03-31T14:54:54.157Z</time></trkpt><trkpt lat="41.1947017" lon="0.2036817"><ele>248.66666666666669</ele><time>2026-03-31T14:54:55.156Z</time></trkpt><trkpt lat="41.1947267" lon="0.2039167"><ele>245.0</ele><time>2026-03-31T14:54:56.156Z</time></trkpt><trkpt lat="41.194755" lon="0.2041517"><ele>244.33333333333334</ele><time>2026-03-31T14:54:57.156Z</time></trkpt><trkpt lat="41.1947833" lon="0.2043817"><ele>243.66666666666669</ele><time>2026-03-31T14:54:58.157Z</time></trkpt><trkpt lat="41.1948183" lon="0.2046233"><ele>243.0</ele><time>2026-03-31T14:54:59.157Z</time></trkpt><trkpt lat="41.19486" lon="0.20487"><ele>241.33333333333331</ele><time>2026-03-31T14:55:00.156Z</time></trkpt><trkpt lat="41.1949117" lon="0.205115"><ele>239.66666666666666</ele><time>2026-03-31T14:55:01.157Z</time></trkpt><trkpt lat="41.19498" lon="0.205355"><ele>238.0</ele><time>2026-03-31T14:55:02.156Z</time></trkpt><trkpt lat="41.1950583" lon="0.205585"><ele>236.0</ele><time>2026-03-31T14:55:03.156Z</time></trkpt><trkpt lat="41.19515" lon="0.20581"><ele>234.0</ele><time>2026-03-31T14:55:04.156Z</time></trkpt><trkpt lat="41.1952467" lon="0.2060317"><ele>232.0</ele><time>2026-03-31T14:55:05.157Z</time></trkpt><trkpt lat="41.195345" lon="0.206245"><ele>232.0</ele><time>2026-03-31T14:55:06.156Z</time></trkpt><trkpt lat="41.1954317" lon="0.2064683"><ele>232.0</ele><time>2026-03-31T14:55:07.156Z</time></trkpt><trkpt lat="41.1955033" lon="0.2066917"><ele>232.0</ele><time>2026-03-31T14:55:08.156Z</time></trkpt><trkpt lat="41.1955567" lon="0.2069317"><ele>231.33333333333331</ele><time>2026-03-31T14:55:09.156Z</time></trkpt><trkpt lat="41.195575" lon="0.2071717"><ele>230.66666666666669</ele><time>2026-03-31T14:55:10.157Z</time></trkpt><trkpt lat="41.195595" lon="0.20739"><ele>230.0</ele><time>2026-03-31T14:55:11.156Z</time></trkpt><trkpt lat="41.195615" lon="0.2075967"><ele>230.0</ele><time>2026-03-31T14:55:12.157Z</time></trkpt><trkpt lat="41.1956583" lon="0.2077783"><ele>230.0</ele><time>2026-03-31T14:55:13.157Z</time></trkpt><trkpt lat="41.1957383" lon="0.2079533"><ele>230.0</ele><time>2026-03-31T14:55:14.157Z</time></trkpt><trkpt lat="41.1958283" lon="0.2081417"><ele>227.66666666666669</ele><time>2026-03-31T14:55:15.156Z</time></trkpt><trkpt lat="41.1959067" lon="0.2083433"><ele>225.33333333333331</ele><time>2026-03-31T14:55:16.156Z</time></trkpt><trkpt lat="41.1959683" lon="0.2085683"><ele>223.0</ele><time>2026-03-31T14:55:17.156Z</time></trkpt><trkpt lat="41.196025" lon="0.208805"><ele>220.66666666666666</ele><time>2026-03-31T14:55:18.157Z</time></trkpt><trkpt lat="41.1960717" lon="0.2090433"><ele>218.33333333333331</ele><time>2026-03-31T14:55:19.157Z</time></trkpt><trkpt lat="41.1961183" lon="0.2092833"><ele>216.0</ele><time>2026-03-31T14:55:20.157Z</time></trkpt><trkpt lat="41.1961667" lon="0.209515"><ele>216.0</ele><time>2026-03-31T14:55:21.156Z</time></trkpt><trkpt lat="41.19622" lon="0.20974"><ele>216.0</ele><time>2026-03-31T14:55:22.156Z</time></trkpt><trkpt lat="41.19627" lon="0.2099517"><ele>216.0</ele><time>2026-03-31T14:55:23.156Z</time></trkpt><trkpt lat="41.196345" lon="0.210155"><ele>214.66666666666669</ele><time>2026-03-31T14:55:24.156Z</time></trkpt><trkpt lat="41.1964433" lon="0.21034"><ele>213.33333333333334</ele><time>2026-03-31T14:55:25.157Z</time></trkpt><trkpt lat="41.1965633" lon="0.21051"><ele>212.0</ele><time>2026-03-31T14:55:26.156Z</time></trkpt><trkpt lat="41.1967133" lon="0.21067"><ele>211.33333333333334</ele><time>2026-03-31T14:55:27.157Z</time></trkpt><trkpt lat="41.1968567" lon="0.21084"><ele>210.66666666666669</ele><time>2026-03-31T14:55:28.157Z</time></trkpt><trkpt lat="41.1969983" lon="0.211025"><ele>210.0</ele><time>2026-03-31T14:55:29.156Z</time></trkpt><trkpt lat="41.1971317" lon="0.2112183"><ele>210.0</ele><time>2026-03-31T14:55:30.156Z</time></trkpt><trkpt lat="41.1972533" lon="0.2114183"><ele>210.0</ele><time>2026-03-31T14:55:31.157Z</time></trkpt><trkpt lat="41.19737" lon="0.2116267"><ele>210.0</ele><time>2026-03-31T14:55:32.156Z</time></trkpt><trkpt lat="41.19747" lon="0.2118417"><ele>207.0</ele><time>2026-03-31T14:55:33.157Z</time></trkpt><trkpt lat="41.197575" lon="0.2120567"><ele>204.0</ele><time>2026-03-31T14:55:34.156Z</time></trkpt><trkpt lat="41.1976817" lon="0.21226"><ele>201.0</ele><time>2026-03-31T14:55:35.156Z</time></trkpt><trkpt lat="41.19779" lon="0.2124583"><ele>201.0</ele><time>2026-03-31T14:55:36.156Z</time></trkpt><trkpt lat="41.1979183" lon="0.21264"><ele>201.0</ele><time>2026-03-31T14:55:37.157Z</time></trkpt><trkpt lat="41.1980567" lon="0.2128117"><ele>201.0</ele><time>2026-03-31T14:55:38.156Z</time></trkpt><trkpt lat="41.1981933" lon="0.21299"><ele>200.66666666666669</ele><time>2026-03-31T14:55:39.156Z</time></trkpt><trkpt lat="41.19832" lon="0.2131867"><ele>200.33333333333334</ele><time>2026-03-31T14:55:40.156Z</time></trkpt><trkpt lat="41.198425" lon="0.213415"><ele>200.0</ele><time>2026-03-31T14:55:41.157Z</time></trkpt><trkpt lat="41.1985083" lon="0.2136533"><ele>200.0</ele><time>2026-03-31T14:55:42.157Z</time></trkpt><trkpt lat="41.19858" lon="0.2138983"><ele>200.0</ele><time>2026-03-31T14:55:43.156Z</time></trkpt><trkpt lat="41.1986433" lon="0.2141433"><ele>200.0</ele><time>2026-03-31T14:55:44.156Z</time></trkpt><trkpt lat="41.1987067" lon="0.2143767"><ele>198.33333333333334</ele><time>2026-03-31T14:55:45.156Z</time></trkpt><trkpt lat="41.198765" lon="0.214605"><ele>196.66666666666669</ele><time>2026-03-31T14:55:46.157Z</time></trkpt><trkpt lat="41.1988233" lon="0.21481"><ele>195.0</ele><time>2026-03-31T14:55:47.156Z</time></trkpt><trkpt lat="41.19888" lon="0.2150067"><ele>195.0</ele><time>2026-03-31T14:55:48.156Z</time></trkpt><trkpt lat="41.19894" lon="0.2151817"><ele>195.0</ele><time>2026-03-31T14:55:49.156Z</time></trkpt><trkpt lat="41.199015" lon="0.2153367"><ele>195.0</ele><time>2026-03-31T14:55:50.156Z</time></trkpt><trkpt lat="41.1991133" lon="0.2154867"><ele>195.0</ele><time>2026-03-31T14:55:51.156Z</time></trkpt><trkpt lat="41.1992317" lon="0.2155967"><ele>197.75</ele><time>2026-03-31T14:55:52.157Z</time></trkpt><trkpt lat="41.1993617" lon="0.2156417"><ele>200.5</ele><time>2026-03-31T14:55:53.157Z</time></trkpt><trkpt lat="41.1995033" lon="0.215645"><ele>203.25</ele><time>2026-03-31T14:55:54.157Z</time></trkpt><trkpt lat="41.1996517" lon="0.2156083"><ele>206.0</ele><time>2026-03-31T14:55:55.156Z</time></trkpt><trkpt lat="41.1998067" lon="0.2155383"><ele>207.66666666666669</ele><time>2026-03-31T14:55:56.156Z</time></trkpt><trkpt lat="41.199955" lon="0.21546"><ele>209.33333333333331</ele><time>2026-03-31T14:55:57.156Z</time></trkpt><trkpt lat="41.200105" lon="0.21538"><ele>211.0</ele><time>2026-03-31T14:55:58.156Z</time></trkpt><trkpt lat="41.2002683" lon="0.2153167"><ele>211.0</ele><time>2026-03-31T14:55:59.157Z</time></trkpt><trkpt lat="41.2004267" lon="0.215275"><ele>211.0</ele><time>2026-03-31T14:56:00.157Z</time></trkpt><trkpt lat="41.2005933" lon="0.21525"><ele>211.0</ele><time>2026-03-31T14:56:01.156Z</time></trkpt><trkpt lat="41.20075" lon="0.2152083"><ele>209.33333333333331</ele><time>2026-03-31T14:56:02.157Z</time></trkpt><trkpt lat="41.2008983" lon="0.2151417"><ele>207.66666666666669</ele><time>2026-03-31T14:56:03.156Z</time></trkpt><trkpt lat="41.2010317" lon="0.2150467"><ele>206.0</ele><time>2026-03-31T14:56:04.156Z</time></trkpt><trkpt lat="41.2011583" lon="0.2149183"><ele>206.33333333333334</ele><time>2026-03-31T14:56:05.156Z</time></trkpt><trkpt lat="41.20128" lon="0.2147967"><ele>206.66666666666669</ele><time>2026-03-31T14:56:06.157Z</time></trkpt><trkpt lat="41.2014267" lon="0.2147"><ele>207.0</ele><time>2026-03-31T14:56:07.157Z</time></trkpt><trkpt lat="41.2015767" lon="0.2146583"><ele>207.0</ele><time>2026-03-31T14:56:08.156Z</time></trkpt><trkpt lat="41.2017333" lon="0.2146767"><ele>207.0</ele><time>2026-03-31T14:56:09.157Z</time></trkpt><trkpt lat="41.2018767" lon="0.2147483"><ele>207.0</ele><time>2026-03-31T14:56:10.157Z</time></trkpt><trkpt lat="41.2020083" lon="0.214865"><ele>206.0</ele><time>2026-03-31T14:56:11.156Z</time></trkpt><trkpt lat="41.2021217" lon="0.2150083"><ele>205.0</ele><time>2026-03-31T14:56:12.157Z</time></trkpt><trkpt lat="41.2022383" lon="0.215145"><ele>204.0</ele><time>2026-03-31T14:56:13.156Z</time></trkpt><trkpt lat="41.2023733" lon="0.2152533"><ele>207.33333333333331</ele><time>2026-03-31T14:56:14.156Z</time></trkpt><trkpt lat="41.2025467" lon="0.2153283"><ele>210.66666666666666</ele><time>2026-03-31T14:56:15.156Z</time></trkpt><trkpt lat="41.202705" lon="0.21539"><ele>214.0</ele><time>2026-03-31T14:56:16.157Z</time></trkpt><trkpt lat="41.202855" lon="0.2154583"><ele>214.0</ele><time>2026-03-31T14:56:17.157Z</time></trkpt><trkpt lat="41.2029917" lon="0.2155667"><ele>214.0</ele><time>2026-03-31T14:56:18.157Z</time></trkpt><trkpt lat="41.2031183" lon="0.2157167"><ele>214.0</ele><time>2026-03-31T14:56:19.156Z</time></trkpt><trkpt lat="41.203225" lon="0.2158867"><ele>216.66666666666666</ele><time>2026-03-31T14:56:20.156Z</time></trkpt><trkpt lat="41.2033167" lon="0.2160667"><ele>219.33333333333331</ele><time>2026-03-31T14:56:21.156Z</time></trkpt><trkpt lat="41.203385" lon="0.216255"><ele>222.0</ele><time>2026-03-31T14:56:22.157Z</time></trkpt><trkpt lat="41.2034383" lon="0.2164633"><ele>222.0</ele><time>2026-03-31T14:56:23.157Z</time></trkpt><trkpt lat="41.2034883" lon="0.2166817"><ele>222.0</ele><time>2026-03-31T14:56:24.157Z</time></trkpt><trkpt lat="41.2035433" lon="0.216905"><ele>222.0</ele><time>2026-03-31T14:56:25.157Z</time></trkpt><trkpt lat="41.203615" lon="0.2171283"><ele>222.33333333333331</ele><time>2026-03-31T14:56:26.156Z</time></trkpt><trkpt lat="41.2037" lon="0.2173467"><ele>222.66666666666666</ele><time>2026-03-31T14:56:27.157Z</time></trkpt><trkpt lat="41.20379" lon="0.2175633"><ele>223.0</ele><time>2026-03-31T14:56:28.157Z</time></trkpt><trkpt lat="41.2038883" lon="0.2177717"><ele>223.0</ele><time>2026-03-31T14:56:29.157Z</time></trkpt><trkpt lat="41.203995" lon="0.2179683"><ele>223.0</ele><time>2026-03-31T14:56:30.156Z</time></trkpt><trkpt lat="41.2041" lon="0.2181533"><ele>223.0</ele><time>2026-03-31T14:56:31.157Z</time></trkpt><trkpt lat="41.204205" lon="0.21834"><ele>219.66666666666666</ele><time>2026-03-31T14:56:32.156Z</time></trkpt><trkpt lat="41.2043083" lon="0.2185233"><ele>216.33333333333331</ele><time>2026-03-31T14:56:33.156Z</time></trkpt><trkpt lat="41.2044" lon="0.2187033"><ele>213.0</ele><time>2026-03-31T14:56:34.157Z</time></trkpt><trkpt lat="41.2044833" lon="0.2189"><ele>214.0</ele><time>2026-03-31T14:56:35.156Z</time></trkpt><trkpt lat="41.204555" lon="0.2191017"><ele>215.0</ele><time>2026-03-31T14:56:36.156Z</time></trkpt><trkpt lat="41.2046083" lon="0.2193217"><ele>216.0</ele><time>2026-03-31T14:56:37.156Z</time></trkpt><trkpt lat="41.2046433" lon="0.2195533"><ele>216.0</ele><time>2026-03-31T14:56:38.156Z</time></trkpt><trkpt lat="41.20468" lon="0.2197917"><ele>216.0</ele><time>2026-03-31T14:56:39.156Z</time></trkpt><trkpt lat="41.20472" lon="0.2200217"><ele>216.0</ele><time>2026-03-31T14:56:40.157Z</time></trkpt><trkpt lat="41.2047817" lon="0.2202217"><ele>212.66666666666669</ele><time>2026-03-31T14:56:41.156Z</time></trkpt><trkpt lat="41.2048467" lon="0.220405"><ele>209.33333333333334</ele><time>2026-03-31T14:56:42.156Z</time></trkpt><trkpt lat="41.2049267" lon="0.220575"><ele>206.0</ele><time>2026-03-31T14:56:43.157Z</time></trkpt><trkpt lat="41.2050317" lon="0.2207267"><ele>206.0</ele><time>2026-03-31T14:56:44.156Z</time></trkpt><trkpt lat="41.205175" lon="0.2208433"><ele>206.0</ele><time>2026-03-31T14:56:45.157Z</time></trkpt><trkpt lat="41.20534" lon="0.2209317"><ele>206.0</ele><time>2026-03-31T14:56:46.157Z</time></trkpt><trkpt lat="41.205515" lon="0.2210033"><ele>204.66666666666669</ele><time>2026-03-31T14:56:47.156Z</time></trkpt><trkpt lat="41.2056867" lon="0.22108"><ele>203.33333333333331</ele><time>2026-03-31T14:56:48.156Z</time></trkpt><trkpt lat="41.2058633" lon="0.2211583"><ele>202.0</ele><time>2026-03-31T14:56:49.157Z</time></trkpt><trkpt lat="41.206035" lon="0.2212367"><ele>202.0</ele><time>2026-03-31T14:56:50.157Z</time></trkpt><trkpt lat="41.2061967" lon="0.2213"><ele>202.0</ele><time>2026-03-31T14:56:51.156Z</time></trkpt><trkpt lat="41.2063667" lon="0.2213633"><ele>202.0</ele><time>2026-03-31T14:56:52.156Z</time></trkpt><trkpt lat="41.2065217" lon="0.2214267"><ele>200.33333333333331</ele><time>2026-03-31T14:56:53.157Z</time></trkpt><trkpt lat="41.2066617" lon="0.2215017"><ele>198.66666666666669</ele><time>2026-03-31T14:56:54.156Z</time></trkpt><trkpt lat="41.20679" lon="0.2216"><ele>197.0</ele><time>2026-03-31T14:56:55.156Z</time></trkpt><trkpt lat="41.206905" lon="0.22174"><ele>197.0</ele><time>2026-03-31T14:56:56.157Z</time></trkpt><trkpt lat="41.20698" lon="0.2219233"><ele>197.0</ele><time>2026-03-31T14:56:57.156Z</time></trkpt><trkpt lat="41.2070133" lon="0.2221367"><ele>197.0</ele><time>2026-03-31T14:56:58.156Z</time></trkpt><trkpt lat="41.207015" lon="0.2223633"><ele>196.66666666666669</ele><time>2026-03-31T14:56:59.157Z</time></trkpt><trkpt lat="41.2070083" lon="0.2226033"><ele>196.33333333333331</ele><time>2026-03-31T14:57:00.156Z</time></trkpt><trkpt lat="41.207005" lon="0.2228467"><ele>196.0</ele><time>2026-03-31T14:57:01.157Z</time></trkpt><trkpt lat="41.20702" lon="0.223085"><ele>196.0</ele><time>2026-03-31T14:57:02.157Z</time></trkpt><trkpt lat="41.2070533" lon="0.2233267"><ele>196.0</ele><time>2026-03-31T14:57:03.157Z</time></trkpt><trkpt lat="41.207085" lon="0.2235767"><ele>196.0</ele><time>2026-03-31T14:57:04.157Z</time></trkpt><trkpt lat="41.2071067" lon="0.22383"><ele>195.66666666666666</ele><time>2026-03-31T14:57:05.157Z</time></trkpt><trkpt lat="41.2071067" lon="0.224075"><ele>195.33333333333331</ele><time>2026-03-31T14:57:06.156Z</time></trkpt><trkpt lat="41.2070933" lon="0.2243217"><ele>195.0</ele><time>2026-03-31T14:57:07.156Z</time></trkpt><trkpt lat="41.2070817" lon="0.2245667"><ele>194.33333333333331</ele><time>2026-03-31T14:57:08.156Z</time></trkpt><trkpt lat="41.2070733" lon="0.2248167"><ele>193.66666666666666</ele><time>2026-03-31T14:57:09.156Z</time></trkpt><trkpt lat="41.207075" lon="0.225055"><ele>193.0</ele><time>2026-03-31T14:57:10.156Z</time></trkpt><trkpt lat="41.2070983" lon="0.22529"><ele>193.0</ele><time>2026-03-31T14:57:11.156Z</time></trkpt><trkpt lat="41.20715" lon="0.2255017"><ele>193.0</ele><time>2026-03-31T14:57:12.156Z</time></trkpt><trkpt lat="41.2072233" lon="0.2257"><ele>193.0</ele><time>2026-03-31T14:57:13.157Z</time></trkpt><trkpt lat="41.2073267" lon="0.225895"><ele>195.0</ele><time>2026-03-31T14:57:14.157Z</time></trkpt><trkpt lat="41.207445" lon="0.2260833"><ele>197.0</ele><time>2026-03-31T14:57:15.156Z</time></trkpt><trkpt lat="41.2075733" lon="0.2262683"><ele>199.0</ele><time>2026-03-31T14:57:16.156Z</time></trkpt><trkpt lat="41.2077017" lon="0.2264583"><ele>197.66666666666666</ele><time>2026-03-31T14:57:17.156Z</time></trkpt><trkpt lat="41.20782" lon="0.226645"><ele>196.33333333333331</ele><time>2026-03-31T14:57:18.157Z</time></trkpt><trkpt lat="41.2079433" lon="0.2268283"><ele>195.0</ele><time>2026-03-31T14:57:19.156Z</time></trkpt><trkpt lat="41.2080633" lon="0.2270183"><ele>195.0</ele><time>2026-03-31T14:57:20.157Z</time></trkpt><trkpt lat="41.2081533" lon="0.227205"><ele>195.0</ele><time>2026-03-31T14:57:21.157Z</time></trkpt><trkpt lat="41.20822" lon="0.2274083"><ele>195.0</ele><time>2026-03-31T14:57:22.157Z</time></trkpt><trkpt lat="41.2082467" lon="0.22764"><ele>196.33333333333331</ele><time>2026-03-31T14:57:23.156Z</time></trkpt><trkpt lat="41.2082617" lon="0.2278767"><ele>197.66666666666666</ele><time>2026-03-31T14:57:24.157Z</time></trkpt><trkpt lat="41.20826" lon="0.2281117"><ele>199.0</ele><time>2026-03-31T14:57:25.156Z</time></trkpt><trkpt lat="41.2082617" lon="0.2283333"><ele>199.0</ele><time>2026-03-31T14:57:26.156Z</time></trkpt><trkpt lat="41.2082733" lon="0.2285467"><ele>199.0</ele><time>2026-03-31T14:57:27.157Z</time></trkpt><trkpt lat="41.2083083" lon="0.2287367"><ele>199.0</ele><time>2026-03-31T14:57:28.157Z</time></trkpt><trkpt lat="41.2083767" lon="0.22891"><ele>198.66666666666666</ele><time>2026-03-31T14:57:29.156Z</time></trkpt><trkpt lat="41.20846" lon="0.2290767"><ele>198.33333333333331</ele><time>2026-03-31T14:57:30.157Z</time></trkpt><trkpt lat="41.2085467" lon="0.2292517"><ele>198.0</ele><time>2026-03-31T14:57:31.157Z</time></trkpt><trkpt lat="41.2086083" lon="0.22944"><ele>198.0</ele><time>2026-03-31T14:57:32.157Z</time></trkpt><trkpt lat="41.20863" lon="0.2296367"><ele>198.0</ele><time>2026-03-31T14:57:33.157Z</time></trkpt><trkpt lat="41.2086083" lon="0.2298383"><ele>198.0</ele><time>2026-03-31T14:57:34.156Z</time></trkpt><trkpt lat="41.20855" lon="0.2300417"><ele>197.33333333333331</ele><time>2026-03-31T14:57:35.157Z</time></trkpt><trkpt lat="41.2084617" lon="0.2302183"><ele>196.66666666666666</ele><time>2026-03-31T14:57:36.156Z</time></trkpt><trkpt lat="41.2083567" lon="0.23038"><ele>196.0</ele><time>2026-03-31T14:57:37.156Z</time></trkpt><trkpt lat="41.2082683" lon="0.2305367"><ele>195.33333333333331</ele><time>2026-03-31T14:57:38.157Z</time></trkpt><trkpt lat="41.208225" lon="0.23072"><ele>194.66666666666669</ele><time>2026-03-31T14:57:39.157Z</time></trkpt><trkpt lat="41.2082067" lon="0.23092"><ele>194.0</ele><time>2026-03-31T14:57:40.156Z</time></trkpt><trkpt lat="41.208215" lon="0.2311383"><ele>194.0</ele><time>2026-03-31T14:57:41.156Z</time></trkpt><trkpt lat="41.2082433" lon="0.23136"><ele>194.0</ele><time>2026-03-31T14:57:42.157Z</time></trkpt><trkpt lat="41.20829" lon="0.2315767"><ele>194.0</ele><time>2026-03-31T14:57:43.157Z</time></trkpt><trkpt lat="41.2083383" lon="0.2317867"><ele>194.0</ele><time>2026-03-31T14:57:44.157Z</time></trkpt><trkpt lat="41.2083733" lon="0.2319967"><ele>194.0</ele><time>2026-03-31T14:57:45.156Z</time></trkpt><trkpt lat="41.20841" lon="0.2322017"><ele>194.0</ele><time>2026-03-31T14:57:46.157Z</time></trkpt><trkpt lat="41.2084417" lon="0.2324067"><ele>195.0</ele><time>2026-03-31T14:57:47.156Z</time></trkpt><trkpt lat="41.20847" lon="0.232605"><ele>196.0</ele><time>2026-03-31T14:57:48.156Z</time></trkpt><trkpt lat="41.20849" lon="0.2328117"><ele>197.0</ele><time>2026-03-31T14:57:49.156Z</time></trkpt><trkpt lat="41.2085" lon="0.2330283"><ele>197.0</ele><time>2026-03-31T14:57:50.157Z</time></trkpt><trkpt lat="41.20849" lon="0.2332417"><ele>197.0</ele><time>2026-03-31T14:57:51.157Z</time></trkpt><trkpt lat="41.2084683" lon="0.233465"><ele>197.0</ele><time>2026-03-31T14:57:52.156Z</time></trkpt><trkpt lat="41.2084367" lon="0.23368"><ele>197.0</ele><time>2026-03-31T14:57:53.156Z</time></trkpt><trkpt lat="41.2084017" lon="0.2338883"><ele>197.0</ele><time>2026-03-31T14:57:54.156Z</time></trkpt><trkpt lat="41.2083633" lon="0.234095"><ele>197.0</ele><time>2026-03-31T14:57:55.157Z</time></trkpt><trkpt lat="41.20833" lon="0.2342833"><ele>197.0</ele><time>2026-03-31T14:57:56.156Z</time></trkpt><trkpt lat="41.2083083" lon="0.234465"><ele>197.0</ele><time>2026-03-31T14:57:57.156Z</time></trkpt><trkpt lat="41.2082883" lon="0.234635"><ele>197.0</ele><time>2026-03-31T14:57:58.157Z</time></trkpt><trkpt lat="41.2082583" lon="0.234805"><ele>197.0</ele><time>2026-03-31T14:57:59.156Z</time></trkpt><trkpt lat="41.20823" lon="0.2349633"><ele>196.25</ele><time>2026-03-31T14:58:00.157Z</time></trkpt><trkpt lat="41.2082033" lon="0.2351317"><ele>195.5</ele><time>2026-03-31T14:58:01.157Z</time></trkpt><trkpt lat="41.2081767" lon="0.2353017"><ele>194.75</ele><time>2026-03-31T14:58:02.156Z</time></trkpt><trkpt lat="41.208155" lon="0.2354667"><ele>194.0</ele><time>2026-03-31T14:58:03.156Z</time></trkpt><trkpt lat="41.2081167" lon="0.23565"><ele>193.5</ele><time>2026-03-31T14:58:04.156Z</time></trkpt><trkpt lat="41.2080833" lon="0.2358367"><ele>193.0</ele><time>2026-03-31T14:58:05.156Z</time></trkpt><trkpt lat="41.2080533" lon="0.2360317"><ele>192.5</ele><time>2026-03-31T14:58:06.157Z</time></trkpt><trkpt lat="41.2080183" lon="0.23623"><ele>192.0</ele><time>2026-03-31T14:58:07.156Z</time></trkpt><trkpt lat="41.2079867" lon="0.2364183"><ele>192.5</ele><time>2026-03-31T14:58:08.156Z</time></trkpt><trkpt lat="41.2079583" lon="0.236605"><ele>193.0</ele><time>2026-03-31T14:58:09.156Z</time></trkpt><trkpt lat="41.20793" lon="0.2367833"><ele>193.5</ele><time>2026-03-31T14:58:10.157Z</time></trkpt><trkpt lat="41.2079" lon="0.23696"><ele>194.0</ele><time>2026-03-31T14:58:11.156Z</time></trkpt><trkpt lat="41.207865" lon="0.2371383"><ele>192.5</ele><time>2026-03-31T14:58:12.157Z</time></trkpt><trkpt lat="41.207835" lon="0.23731"><ele>191.0</ele><time>2026-03-31T14:58:13.156Z</time></trkpt><trkpt lat="41.20781" lon="0.2374717"><ele>189.5</ele><time>2026-03-31T14:58:14.156Z</time></trkpt><trkpt lat="41.207785" lon="0.237625"><ele>188.0</ele><time>2026-03-31T14:58:15.157Z</time></trkpt><trkpt lat="41.207755" lon="0.2377817"><ele>188.0</ele><time>2026-03-31T14:58:16.156Z</time></trkpt><trkpt lat="41.2077233" lon="0.23794"><ele>188.0</ele><time>2026-03-31T14:58:17.156Z</time></trkpt><trkpt lat="41.2076983" lon="0.238095"><ele>188.0</ele><time>2026-03-31T14:58:18.156Z</time></trkpt><trkpt lat="41.20767" lon="0.23826"><ele>188.0</ele><time>2026-03-31T14:58:19.157Z</time></trkpt><trkpt lat="41.2076533" lon="0.2384317"><ele>187.0</ele><time>2026-03-31T14:58:20.156Z</time></trkpt><trkpt lat="41.2076267" lon="0.2385967"><ele>186.0</ele><time>2026-03-31T14:58:21.157Z</time></trkpt><trkpt lat="41.2075983" lon="0.238775"><ele>185.0</ele><time>2026-03-31T14:58:22.156Z</time></trkpt><trkpt lat="41.2075967" lon="0.2389417"><ele>184.0</ele><time>2026-03-31T14:58:23.157Z</time></trkpt><trkpt lat="41.20761" lon="0.2390983"><ele>183.5</ele><time>2026-03-31T14:58:24.157Z</time></trkpt><trkpt lat="41.2076183" lon="0.239255"><ele>183.0</ele><time>2026-03-31T14:58:25.156Z</time></trkpt><trkpt lat="41.2076233" lon="0.2394133"><ele>182.5</ele><time>2026-03-31T14:58:26.156Z</time></trkpt><trkpt lat="41.2076333" lon="0.2395583"><ele>182.0</ele><time>2026-03-31T14:58:27.156Z</time></trkpt><trkpt lat="41.2076533" lon="0.2397067"><ele>181.8</ele><time>2026-03-31T14:58:28.156Z</time></trkpt><trkpt lat="41.2076717" lon="0.2398517"><ele>181.6</ele><time>2026-03-31T14:58:29.157Z</time></trkpt><trkpt lat="41.207685" lon="0.2399967"><ele>181.4</ele><time>2026-03-31T14:58:30.157Z</time></trkpt><trkpt lat="41.2077" lon="0.2401217"><ele>181.20000000000002</ele><time>2026-03-31T14:58:31.157Z</time></trkpt><trkpt lat="41.2077083" lon="0.2402283"><ele>181.0</ele><time>2026-03-31T14:58:32.157Z</time></trkpt><trkpt lat="41.2077133" lon="0.240315"><ele>181.0</ele><time>2026-03-31T14:58:33.156Z</time></trkpt><trkpt lat="41.2077233" lon="0.2404433"><ele>181.0</ele><time>2026-03-31T14:58:35.157Z</time></trkpt><trkpt lat="41.207745" lon="0.240555"><ele>181.0</ele><time>2026-03-31T14:58:37.156Z</time></trkpt><trkpt lat="41.2077233" lon="0.2406717"><ele>181.0</ele><time>2026-03-31T14:58:39.156Z</time></trkpt><trkpt lat="41.207635" lon="0.2407017"><ele>181.0</ele><time>2026-03-31T14:58:41.157Z</time></trkpt><trkpt lat="41.2075233" lon="0.2406567"><ele>181.0</ele><time>2026-03-31T14:58:43.156Z</time></trkpt><trkpt lat="41.2074667" lon="0.2406133"><ele>181.0</ele><time>2026-03-31T14:58:44.157Z</time></trkpt><trkpt lat="41.2074" lon="0.2405517"><ele>181.0</ele><time>2026-03-31T14:58:45.156Z</time></trkpt><trkpt lat="41.2073333" lon="0.2404917"><ele>181.0</ele><time>2026-03-31T14:58:46.156Z</time></trkpt><trkpt lat="41.2072683" lon="0.240425"><ele>181.0</ele><time>2026-03-31T14:58:47.156Z</time></trkpt><trkpt lat="41.2072133" lon="0.240355"><ele>181.0</ele><time>2026-03-31T14:58:48.156Z</time></trkpt><trkpt lat="41.2071617" lon="0.240295"><ele>180.28571428571428</ele><time>2026-03-31T14:58:49.156Z</time></trkpt><trkpt lat="41.2071183" lon="0.24023"><ele>179.57142857142856</ele><time>2026-03-31T14:58:50.157Z</time></trkpt><trkpt lat="41.20707" lon="0.2401667"><ele>178.85714285714286</ele><time>2026-03-31T14:58:51.156Z</time></trkpt><trkpt lat="41.207025" lon="0.2401033"><ele>178.14285714285714</ele><time>2026-03-31T14:58:52.157Z</time></trkpt><trkpt lat="41.20698" lon="0.24004"><ele>177.42857142857142</ele><time>2026-03-31T14:58:53.156Z</time></trkpt><trkpt lat="41.2069333" lon="0.2399833"><ele>176.71428571428572</ele><time>2026-03-31T14:58:54.156Z</time></trkpt><trkpt lat="41.20688" lon="0.2399283"><ele>176.0</ele><time>2026-03-31T14:58:55.156Z</time></trkpt><trkpt lat="41.206825" lon="0.239865"><ele>176.0</ele><time>2026-03-31T14:58:56.156Z</time></trkpt><trkpt lat="41.2067667" lon="0.2398217"><ele>176.0</ele><time>2026-03-31T14:58:57.157Z</time></trkpt><trkpt lat="41.2067017" lon="0.2397967"><ele>176.0</ele><time>2026-03-31T14:58:58.156Z</time></trkpt><trkpt lat="41.2066383" lon="0.23979"><ele>176.0</ele><time>2026-03-31T14:58:59.156Z</time></trkpt><trkpt lat="41.2065083" lon="0.2398067"><ele>176.0</ele><time>2026-03-31T14:59:01.156Z</time></trkpt><trkpt lat="41.206435" lon="0.23983"><ele>176.0</ele><time>2026-03-31T14:59:02.156Z</time></trkpt><trkpt lat="41.2063483" lon="0.23986"><ele>174.0</ele><time>2026-03-31T14:59:03.157Z</time></trkpt><trkpt lat="41.20625" lon="0.2398917"><ele>172.0</ele><time>2026-03-31T14:59:04.156Z</time></trkpt><trkpt lat="41.20615" lon="0.2399283"><ele>170.0</ele><time>2026-03-31T14:59:05.157Z</time></trkpt><trkpt lat="41.2060533" lon="0.23997"><ele>168.0</ele><time>2026-03-31T14:59:06.156Z</time></trkpt><trkpt lat="41.2059533" lon="0.24001"><ele>166.0</ele><time>2026-03-31T14:59:07.156Z</time></trkpt><trkpt lat="41.205855" lon="0.2400483"><ele>166.0</ele><time>2026-03-31T14:59:08.157Z</time></trkpt><trkpt lat="41.2057683" lon="0.2400833"><ele>166.0</ele><time>2026-03-31T14:59:09.157Z</time></trkpt><trkpt lat="41.2057017" lon="0.24011"><ele>166.0</ele><time>2026-03-31T14:59:10.156Z</time></trkpt><trkpt lat="41.2056233" lon="0.2400867"><ele>166.0</ele><time>2026-03-31T14:59:12.157Z</time></trkpt><trkpt lat="41.2055717" lon="0.2399483"><ele>166.0</ele><time>2026-03-31T14:59:14.157Z</time></trkpt><trkpt lat="41.20556" lon="0.2398217"><ele>161.75</ele><time>2026-03-31T14:59:15.156Z</time></trkpt><trkpt lat="41.2055517" lon="0.2396717"><ele>157.5</ele><time>2026-03-31T14:59:16.157Z</time></trkpt><trkpt lat="41.2055433" lon="0.2395017"><ele>153.25</ele><time>2026-03-31T14:59:17.157Z</time></trkpt><trkpt lat="41.2055383" lon="0.2393267"><ele>149.0</ele><time>2026-03-31T14:59:18.156Z</time></trkpt><trkpt lat="41.2055317" lon="0.23915"><ele>149.0</ele><time>2026-03-31T14:59:19.156Z</time></trkpt><trkpt lat="41.205525" lon="0.238965"><ele>149.0</ele><time>2026-03-31T14:59:20.156Z</time></trkpt><trkpt lat="41.2055133" lon="0.2387817"><ele>149.0</ele><time>2026-03-31T14:59:21.157Z</time></trkpt><trkpt lat="41.2055067" lon="0.2385983"><ele>149.0</ele><time>2026-03-31T14:59:22.157Z</time></trkpt><trkpt lat="41.2055033" lon="0.2384083"><ele>149.0</ele><time>2026-03-31T14:59:23.156Z</time></trkpt><trkpt lat="41.205495" lon="0.238225"><ele>149.0</ele><time>2026-03-31T14:59:24.157Z</time></trkpt><trkpt lat="41.20548" lon="0.238035"><ele>149.0</ele><time>2026-03-31T14:59:25.156Z</time></trkpt><trkpt lat="41.20546" lon="0.2378433"><ele>149.0</ele><time>2026-03-31T14:59:26.156Z</time></trkpt><trkpt lat="41.20543" lon="0.2376467"><ele>148.66666666666666</ele><time>2026-03-31T14:59:27.156Z</time></trkpt><trkpt lat="41.205395" lon="0.2374367"><ele>148.33333333333334</ele><time>2026-03-31T14:59:28.157Z</time></trkpt><trkpt lat="41.205355" lon="0.2372283"><ele>148.0</ele><time>2026-03-31T14:59:29.157Z</time></trkpt><trkpt lat="41.2053067" lon="0.237025"><ele>148.5</ele><time>2026-03-31T14:59:30.157Z</time></trkpt><trkpt lat="41.2052683" lon="0.2368217"><ele>149.0</ele><time>2026-03-31T14:59:31.157Z</time></trkpt><trkpt lat="41.2052383" lon="0.2366333"><ele>149.5</ele><time>2026-03-31T14:59:32.156Z</time></trkpt><trkpt lat="41.2052117" lon="0.2364583"><ele>150.0</ele><time>2026-03-31T14:59:33.157Z</time></trkpt><trkpt lat="41.2051967" lon="0.2362933"><ele>151.0</ele><time>2026-03-31T14:59:34.156Z</time></trkpt><trkpt lat="41.2051833" lon="0.236135"><ele>152.0</ele><time>2026-03-31T14:59:35.157Z</time></trkpt><trkpt lat="41.2051633" lon="0.2359867"><ele>153.0</ele><time>2026-03-31T14:59:36.157Z</time></trkpt><trkpt lat="41.205135" lon="0.2358533"><ele>154.0</ele><time>2026-03-31T14:59:37.156Z</time></trkpt><trkpt lat="41.20509" lon="0.235735"><ele>155.0</ele><time>2026-03-31T14:59:38.156Z</time></trkpt><trkpt lat="41.2050117" lon="0.2356433"><ele>154.0</ele><time>2026-03-31T14:59:39.157Z</time></trkpt><trkpt lat="41.2049133" lon="0.235575"><ele>153.0</ele><time>2026-03-31T14:59:40.156Z</time></trkpt><trkpt lat="41.20481" lon="0.235525"><ele>152.0</ele><time>2026-03-31T14:59:41.156Z</time></trkpt><trkpt lat="41.2046933" lon="0.2355117"><ele>151.0</ele><time>2026-03-31T14:59:42.156Z</time></trkpt><trkpt lat="41.20456" lon="0.2354933"><ele>149.25</ele><time>2026-03-31T14:59:43.157Z</time></trkpt><trkpt lat="41.2044217" lon="0.2354683"><ele>147.5</ele><time>2026-03-31T14:59:44.156Z</time></trkpt><trkpt lat="41.204285" lon="0.235435"><ele>145.75</ele><time>2026-03-31T14:59:45.157Z</time></trkpt><trkpt lat="41.2041433" lon="0.2354033"><ele>144.0</ele><time>2026-03-31T14:59:46.157Z</time></trkpt><trkpt lat="41.204005" lon="0.2353783"><ele>146.33333333333334</ele><time>2026-03-31T14:59:47.157Z</time></trkpt><trkpt lat="41.2038583" lon="0.2353467"><ele>148.66666666666669</ele><time>2026-03-31T14:59:48.156Z</time></trkpt><trkpt lat="41.2036983" lon="0.2353083"><ele>151.0</ele><time>2026-03-31T14:59:49.157Z</time></trkpt><trkpt lat="41.203525" lon="0.2352783"><ele>151.0</ele><time>2026-03-31T14:59:50.157Z</time></trkpt><trkpt lat="41.2033583" lon="0.2352517"><ele>151.0</ele><time>2026-03-31T14:59:51.156Z</time></trkpt><trkpt lat="41.2031967" lon="0.2352233"><ele>151.0</ele><time>2026-03-31T14:59:52.156Z</time></trkpt><trkpt lat="41.2030433" lon="0.2351933"><ele>152.5</ele><time>2026-03-31T14:59:53.156Z</time></trkpt><trkpt lat="41.2029033" lon="0.2351417"><ele>154.0</ele><time>2026-03-31T14:59:54.156Z</time></trkpt><trkpt lat="41.2027633" lon="0.2350667"><ele>155.5</ele><time>2026-03-31T14:59:55.157Z</time></trkpt><trkpt lat="41.202635" lon="0.2349567"><ele>157.0</ele><time>2026-03-31T14:59:56.157Z</time></trkpt><trkpt lat="41.2025183" lon="0.2348133"><ele>156.33333333333334</ele><time>2026-03-31T14:59:57.156Z</time></trkpt><trkpt lat="41.2024217" lon="0.23466"><ele>155.66666666666666</ele><time>2026-03-31T14:59:58.156Z</time></trkpt><trkpt lat="41.20233" lon="0.2345"><ele>155.0</ele><time>2026-03-31T14:59:59.156Z</time></trkpt><trkpt lat="41.2022467" lon="0.2343217"><ele>159.33333333333331</ele><time>2026-03-31T15:00:00.157Z</time></trkpt><trkpt lat="41.2021817" lon="0.23413"><ele>163.66666666666666</ele><time>2026-03-31T15:00:01.156Z</time></trkpt><trkpt lat="41.2021133" lon="0.233925"><ele>168.0</ele><time>2026-03-31T15:00:02.156Z</time></trkpt><trkpt lat="41.2020533" lon="0.2337167"><ele>168.33333333333334</ele><time>2026-03-31T15:00:03.157Z</time></trkpt><trkpt lat="41.2019983" lon="0.2335083"><ele>168.66666666666669</ele><time>2026-03-31T15:00:04.157Z</time></trkpt><trkpt lat="41.2019417" lon="0.2332983"><ele>169.0</ele><time>2026-03-31T15:00:05.156Z</time></trkpt><trkpt lat="41.2018717" lon="0.2330817"><ele>167.33333333333334</ele><time>2026-03-31T15:00:06.156Z</time></trkpt><trkpt lat="41.2017717" lon="0.2328767"><ele>165.66666666666666</ele><time>2026-03-31T15:00:07.157Z</time></trkpt><trkpt lat="41.2016683" lon="0.2326767"><ele>164.0</ele><time>2026-03-31T15:00:08.157Z</time></trkpt><trkpt lat="41.2015567" lon="0.23247"><ele>165.33333333333331</ele><time>2026-03-31T15:00:09.157Z</time></trkpt><trkpt lat="41.2014517" lon="0.2322767"><ele>166.66666666666666</ele><time>2026-03-31T15:00:10.157Z</time></trkpt><trkpt lat="41.2013567" lon="0.2320917"><ele>168.0</ele><time>2026-03-31T15:00:11.157Z</time></trkpt><trkpt lat="41.2012633" lon="0.2319267"><ele>168.0</ele><time>2026-03-31T15:00:12.157Z</time></trkpt><trkpt lat="41.201155" lon="0.231785"><ele>168.0</ele><time>2026-03-31T15:00:13.156Z</time></trkpt><trkpt lat="41.201045" lon="0.2316933"><ele>168.0</ele><time>2026-03-31T15:00:14.156Z</time></trkpt><trkpt lat="41.2009183" lon="0.2316517"><ele>168.0</ele><time>2026-03-31T15:00:15.156Z</time></trkpt><trkpt lat="41.2007733" lon="0.2316667"><ele>167.33333333333334</ele><time>2026-03-31T15:00:16.157Z</time></trkpt><trkpt lat="41.20062" lon="0.2317233"><ele>166.66666666666669</ele><time>2026-03-31T15:00:17.157Z</time></trkpt><trkpt lat="41.2004667" lon="0.2317817"><ele>166.0</ele><time>2026-03-31T15:00:18.157Z</time></trkpt><trkpt lat="41.20031" lon="0.2318533"><ele>166.0</ele><time>2026-03-31T15:00:19.156Z</time></trkpt><trkpt lat="41.200165" lon="0.2319567"><ele>166.0</ele><time>2026-03-31T15:00:20.157Z</time></trkpt><trkpt lat="41.2000383" lon="0.2320983"><ele>166.0</ele><time>2026-03-31T15:00:21.157Z</time></trkpt><trkpt lat="41.199935" lon="0.232255"><ele>167.75</ele><time>2026-03-31T15:00:22.156Z</time></trkpt><trkpt lat="41.1998583" lon="0.2324283"><ele>169.5</ele><time>2026-03-31T15:00:23.157Z</time></trkpt><trkpt lat="41.19982" lon="0.2326117"><ele>171.25</ele><time>2026-03-31T15:00:24.157Z</time></trkpt><trkpt lat="41.199825" lon="0.2328117"><ele>173.0</ele><time>2026-03-31T15:00:25.156Z</time></trkpt><trkpt lat="41.199865" lon="0.2330133"><ele>174.75</ele><time>2026-03-31T15:00:26.157Z</time></trkpt><trkpt lat="41.199915" lon="0.2332167"><ele>176.5</ele><time>2026-03-31T15:00:27.156Z</time></trkpt><trkpt lat="41.1999383" lon="0.2334067"><ele>178.25</ele><time>2026-03-31T15:00:28.157Z</time></trkpt><trkpt lat="41.199935" lon="0.2335867"><ele>180.0</ele><time>2026-03-31T15:00:29.156Z</time></trkpt><trkpt lat="41.199895" lon="0.2337583"><ele>179.33333333333334</ele><time>2026-03-31T15:00:30.156Z</time></trkpt><trkpt lat="41.1998117" lon="0.2339183"><ele>178.66666666666669</ele><time>2026-03-31T15:00:31.157Z</time></trkpt><trkpt lat="41.199715" lon="0.23408"><ele>178.0</ele><time>2026-03-31T15:00:32.156Z</time></trkpt><trkpt lat="41.1996333" lon="0.2342483"><ele>178.0</ele><time>2026-03-31T15:00:33.157Z</time></trkpt><trkpt lat="41.19954" lon="0.2344133"><ele>178.0</ele><time>2026-03-31T15:00:34.156Z</time></trkpt><trkpt lat="41.1994217" lon="0.234555"><ele>178.0</ele><time>2026-03-31T15:00:35.156Z</time></trkpt><trkpt lat="41.199275" lon="0.2346683"><ele>178.0</ele><time>2026-03-31T15:00:36.156Z</time></trkpt><trkpt lat="41.199115" lon="0.2347683"><ele>178.0</ele><time>2026-03-31T15:00:37.156Z</time></trkpt><trkpt lat="41.1989683" lon="0.234855"><ele>178.0</ele><time>2026-03-31T15:00:38.157Z</time></trkpt><trkpt lat="41.1988333" lon="0.234935"><ele>177.75</ele><time>2026-03-31T15:00:39.157Z</time></trkpt><trkpt lat="41.1987267" lon="0.2350267"><ele>177.5</ele><time>2026-03-31T15:00:40.156Z</time></trkpt><trkpt lat="41.1986317" lon="0.2351583"><ele>177.25</ele><time>2026-03-31T15:00:41.156Z</time></trkpt><trkpt lat="41.1985767" lon="0.2353133"><ele>177.0</ele><time>2026-03-31T15:00:42.157Z</time></trkpt><trkpt lat="41.1985583" lon="0.2354833"><ele>181.66666666666666</ele><time>2026-03-31T15:00:43.157Z</time></trkpt><trkpt lat="41.19857" lon="0.2356767"><ele>186.33333333333331</ele><time>2026-03-31T15:00:44.157Z</time></trkpt><trkpt lat="41.198585" lon="0.2358817"><ele>191.0</ele><time>2026-03-31T15:00:45.157Z</time></trkpt><trkpt lat="41.198565" lon="0.2360817"><ele>191.0</ele><time>2026-03-31T15:00:46.156Z</time></trkpt><trkpt lat="41.1984983" lon="0.23627"><ele>191.0</ele><time>2026-03-31T15:00:47.157Z</time></trkpt><trkpt lat="41.1984083" lon="0.2364233"><ele>191.0</ele><time>2026-03-31T15:00:48.156Z</time></trkpt><trkpt lat="41.1982933" lon="0.2365483"><ele>191.20000000000002</ele><time>2026-03-31T15:00:49.156Z</time></trkpt><trkpt lat="41.1981683" lon="0.2366183"><ele>191.4</ele><time>2026-03-31T15:00:50.157Z</time></trkpt><trkpt lat="41.1980633" lon="0.2366183"><ele>191.6</ele><time>2026-03-31T15:00:51.157Z</time></trkpt><trkpt lat="41.1979767" lon="0.23656"><ele>191.8</ele><time>2026-03-31T15:00:52.157Z</time></trkpt><trkpt lat="41.1979167" lon="0.2364583"><ele>192.0</ele><time>2026-03-31T15:00:53.156Z</time></trkpt><trkpt lat="41.1978633" lon="0.2363283"><ele>189.0</ele><time>2026-03-31T15:00:54.155Z</time></trkpt><trkpt lat="41.1977967" lon="0.2362"><ele>186.0</ele><time>2026-03-31T15:00:55.155Z</time></trkpt><trkpt lat="41.197715" lon="0.2361117"><ele>183.0</ele><time>2026-03-31T15:00:56.155Z</time></trkpt><trkpt lat="41.1976167" lon="0.2360933"><ele>180.0</ele><time>2026-03-31T15:00:57.155Z</time></trkpt><trkpt lat="41.1974983" lon="0.2361433"><ele>177.0</ele><time>2026-03-31T15:00:58.156Z</time></trkpt><trkpt lat="41.1973767" lon="0.2362283"><ele>175.25</ele><time>2026-03-31T15:00:59.155Z</time></trkpt><trkpt lat="41.1972617" lon="0.2363167"><ele>173.5</ele><time>2026-03-31T15:01:00.155Z</time></trkpt><trkpt lat="41.1971617" lon="0.2364033"><ele>171.75</ele><time>2026-03-31T15:01:01.155Z</time></trkpt><trkpt lat="41.1970767" lon="0.2365183"><ele>170.0</ele><time>2026-03-31T15:01:02.156Z</time></trkpt><trkpt lat="41.197035" lon="0.2366617"><ele>170.0</ele><time>2026-03-31T15:01:03.155Z</time></trkpt><trkpt lat="41.1970417" lon="0.23682"><ele>170.0</ele><time>2026-03-31T15:01:04.155Z</time></trkpt><trkpt lat="41.1970983" lon="0.2369767"><ele>170.0</ele><time>2026-03-31T15:01:05.155Z</time></trkpt><trkpt lat="41.19718" lon="0.2371283"><ele>170.0</ele><time>2026-03-31T15:01:06.155Z</time></trkpt><trkpt lat="41.1972583" lon="0.2372817"><ele>171.0</ele><time>2026-03-31T15:01:07.156Z</time></trkpt><trkpt lat="41.1973133" lon="0.2374517"><ele>172.0</ele><time>2026-03-31T15:01:08.156Z</time></trkpt><trkpt lat="41.1973517" lon="0.2376283"><ele>173.0</ele><time>2026-03-31T15:01:09.155Z</time></trkpt><trkpt lat="41.1973617" lon="0.2378133"><ele>174.0</ele><time>2026-03-31T15:01:10.156Z</time></trkpt><trkpt lat="41.1973417" lon="0.2379983"><ele>177.0</ele><time>2026-03-31T15:01:11.156Z</time></trkpt><trkpt lat="41.1972983" lon="0.238165"><ele>180.0</ele><time>2026-03-31T15:01:12.155Z</time></trkpt><trkpt lat="41.1972233" lon="0.2382933"><ele>183.0</ele><time>2026-03-31T15:01:13.155Z</time></trkpt><trkpt lat="41.1971267" lon="0.2383633"><ele>186.0</ele><time>2026-03-31T15:01:14.155Z</time></trkpt><trkpt lat="41.1970233" lon="0.23837"><ele>186.0</ele><time>2026-03-31T15:01:15.156Z</time></trkpt><trkpt lat="41.1969117" lon="0.2383217"><ele>186.0</ele><time>2026-03-31T15:01:16.155Z</time></trkpt><trkpt lat="41.1968117" lon="0.23823"><ele>186.0</ele><time>2026-03-31T15:01:17.155Z</time></trkpt><trkpt lat="41.1967033" lon="0.2381267"><ele>186.0</ele><time>2026-03-31T15:01:18.156Z</time></trkpt><trkpt lat="41.1966017" lon="0.238045"><ele>184.25</ele><time>2026-03-31T15:01:19.155Z</time></trkpt><trkpt lat="41.1964833" lon="0.2380183"><ele>182.5</ele><time>2026-03-31T15:01:20.155Z</time></trkpt><trkpt lat="41.1963567" lon="0.238065"><ele>180.75</ele><time>2026-03-31T15:01:21.156Z</time></trkpt><trkpt lat="41.1962467" lon="0.2381767"><ele>179.0</ele><time>2026-03-31T15:01:22.155Z</time></trkpt><trkpt lat="41.19615" lon="0.2383283"><ele>179.0</ele><time>2026-03-31T15:01:23.156Z</time></trkpt><trkpt lat="41.1960667" lon="0.2384983"><ele>179.0</ele><time>2026-03-31T15:01:24.156Z</time></trkpt><trkpt lat="41.1960067" lon="0.23869"><ele>179.0</ele><time>2026-03-31T15:01:25.156Z</time></trkpt><trkpt lat="41.1959617" lon="0.2389"><ele>180.66666666666666</ele><time>2026-03-31T15:01:26.156Z</time></trkpt><trkpt lat="41.1959483" lon="0.239125"><ele>182.33333333333334</ele><time>2026-03-31T15:01:27.155Z</time></trkpt><trkpt lat="41.1959533" lon="0.239355"><ele>184.0</ele><time>2026-03-31T15:01:28.156Z</time></trkpt><trkpt lat="41.1959483" lon="0.2395733"><ele>185.33333333333334</ele><time>2026-03-31T15:01:29.156Z</time></trkpt><trkpt lat="41.1959317" lon="0.2398033"><ele>186.66666666666666</ele><time>2026-03-31T15:01:30.156Z</time></trkpt><trkpt lat="41.1959167" lon="0.24002"><ele>188.0</ele><time>2026-03-31T15:01:31.156Z</time></trkpt><trkpt lat="41.1958917" lon="0.2402217"><ele>188.0</ele><time>2026-03-31T15:01:32.155Z</time></trkpt><trkpt lat="41.1958533" lon="0.2404183"><ele>188.0</ele><time>2026-03-31T15:01:33.155Z</time></trkpt><trkpt lat="41.19578" lon="0.2405817"><ele>188.0</ele><time>2026-03-31T15:01:34.155Z</time></trkpt><trkpt lat="41.1956867" lon="0.2407183"><ele>188.0</ele><time>2026-03-31T15:01:35.155Z</time></trkpt><trkpt lat="41.1955817" lon="0.24082"><ele>188.25</ele><time>2026-03-31T15:01:36.155Z</time></trkpt><trkpt lat="41.1954733" lon="0.2408867"><ele>188.5</ele><time>2026-03-31T15:01:37.155Z</time></trkpt><trkpt lat="41.1953533" lon="0.24091"><ele>188.75</ele><time>2026-03-31T15:01:38.156Z</time></trkpt><trkpt lat="41.19524" lon="0.240885"><ele>189.0</ele><time>2026-03-31T15:01:39.155Z</time></trkpt><trkpt lat="41.1951167" lon="0.240835"><ele>189.0</ele><time>2026-03-31T15:01:40.156Z</time></trkpt><trkpt lat="41.1950183" lon="0.240755"><ele>189.0</ele><time>2026-03-31T15:01:41.155Z</time></trkpt><trkpt lat="41.1949467" lon="0.24064"><ele>189.0</ele><time>2026-03-31T15:01:42.155Z</time></trkpt><trkpt lat="41.1949017" lon="0.2404833"><ele>189.0</ele><time>2026-03-31T15:01:43.156Z</time></trkpt><trkpt lat="41.1948967" lon="0.2403083"><ele>189.75</ele><time>2026-03-31T15:01:44.156Z</time></trkpt><trkpt lat="41.1949383" lon="0.2401367"><ele>190.5</ele><time>2026-03-31T15:01:45.155Z</time></trkpt><trkpt lat="41.195005" lon="0.2399683"><ele>191.25</ele><time>2026-03-31T15:01:46.156Z</time></trkpt><trkpt lat="41.1950517" lon="0.2397933"><ele>192.0</ele><time>2026-03-31T15:01:47.155Z</time></trkpt><trkpt lat="41.1950783" lon="0.23961"><ele>191.0</ele><time>2026-03-31T15:01:48.155Z</time></trkpt><trkpt lat="41.1950967" lon="0.2394167"><ele>190.0</ele><time>2026-03-31T15:01:49.156Z</time></trkpt><trkpt lat="41.1951067" lon="0.2392233"><ele>189.0</ele><time>2026-03-31T15:01:50.155Z</time></trkpt><trkpt lat="41.1951117" lon="0.2390283"><ele>188.0</ele><time>2026-03-31T15:01:51.155Z</time></trkpt><trkpt lat="41.19509" lon="0.2388567"><ele>188.0</ele><time>2026-03-31T15:01:52.155Z</time></trkpt><trkpt lat="41.195025" lon="0.2386933"><ele>188.0</ele><time>2026-03-31T15:01:53.155Z</time></trkpt><trkpt lat="41.19494" lon="0.2385567"><ele>188.0</ele><time>2026-03-31T15:01:54.155Z</time></trkpt><trkpt lat="41.19485" lon="0.2384683"><ele>188.0</ele><time>2026-03-31T15:01:55.156Z</time></trkpt><trkpt lat="41.19475" lon="0.238425"><ele>184.5</ele><time>2026-03-31T15:01:56.155Z</time></trkpt><trkpt lat="41.1946483" lon="0.2384217"><ele>181.0</ele><time>2026-03-31T15:01:57.155Z</time></trkpt><trkpt lat="41.19454" lon="0.2384867"><ele>177.5</ele><time>2026-03-31T15:01:58.155Z</time></trkpt><trkpt lat="41.1944367" lon="0.2385883"><ele>174.0</ele><time>2026-03-31T15:01:59.156Z</time></trkpt><trkpt lat="41.194335" lon="0.2387167"><ele>174.0</ele><time>2026-03-31T15:02:00.156Z</time></trkpt><trkpt lat="41.1942417" lon="0.2388667"><ele>174.0</ele><time>2026-03-31T15:02:01.155Z</time></trkpt><trkpt lat="41.1941533" lon="0.2390233"><ele>174.0</ele><time>2026-03-31T15:02:02.155Z</time></trkpt><trkpt lat="41.1940683" lon="0.2391733"><ele>174.0</ele><time>2026-03-31T15:02:03.155Z</time></trkpt><trkpt lat="41.1939867" lon="0.2393183"><ele>177.25</ele><time>2026-03-31T15:02:04.155Z</time></trkpt><trkpt lat="41.1939083" lon="0.2394633"><ele>180.5</ele><time>2026-03-31T15:02:05.156Z</time></trkpt><trkpt lat="41.1938083" lon="0.239575"><ele>183.75</ele><time>2026-03-31T15:02:06.155Z</time></trkpt><trkpt lat="41.193685" lon="0.2396667"><ele>187.0</ele><time>2026-03-31T15:02:07.155Z</time></trkpt><trkpt lat="41.19356" lon="0.2397167"><ele>187.0</ele><time>2026-03-31T15:02:08.155Z</time></trkpt><trkpt lat="41.193435" lon="0.239705"><ele>187.0</ele><time>2026-03-31T15:02:09.155Z</time></trkpt><trkpt lat="41.19332" lon="0.23963"><ele>187.0</ele><time>2026-03-31T15:02:10.155Z</time></trkpt><trkpt lat="41.1932433" lon="0.2395017"><ele>187.0</ele><time>2026-03-31T15:02:11.156Z</time></trkpt><trkpt lat="41.193205" lon="0.239345"><ele>187.0</ele><time>2026-03-31T15:02:12.155Z</time></trkpt><trkpt lat="41.1931983" lon="0.2391717"><ele>187.0</ele><time>2026-03-31T15:02:13.155Z</time></trkpt><trkpt lat="41.1931983" lon="0.2390017"><ele>187.0</ele><time>2026-03-31T15:02:14.156Z</time></trkpt><trkpt lat="41.1932" lon="0.2388483"><ele>187.0</ele><time>2026-03-31T15:02:15.156Z</time></trkpt><trkpt lat="41.19318" lon="0.2387283"><ele>184.39999999999998</ele><time>2026-03-31T15:02:16.155Z</time></trkpt><trkpt lat="41.1931417" lon="0.238645"><ele>181.79999999999998</ele><time>2026-03-31T15:02:17.156Z</time></trkpt><trkpt lat="41.1930617" lon="0.2385883"><ele>179.2</ele><time>2026-03-31T15:02:18.156Z</time></trkpt><trkpt lat="41.1929583" lon="0.2385767"><ele>176.6</ele><time>2026-03-31T15:02:19.155Z</time></trkpt><trkpt lat="41.192815" lon="0.238595"><ele>174.0</ele><time>2026-03-31T15:02:20.155Z</time></trkpt><trkpt lat="41.1926533" lon="0.2386183"><ele>174.0</ele><time>2026-03-31T15:02:21.156Z</time></trkpt><trkpt lat="41.19249" lon="0.23864"><ele>174.0</ele><time>2026-03-31T15:02:22.156Z</time></trkpt><trkpt lat="41.1923183" lon="0.2386533"><ele>174.0</ele><time>2026-03-31T15:02:23.156Z</time></trkpt><trkpt lat="41.192145" lon="0.2386683"><ele>173.0</ele><time>2026-03-31T15:02:24.155Z</time></trkpt><trkpt lat="41.191975" lon="0.238685"><ele>172.0</ele><time>2026-03-31T15:02:25.155Z</time></trkpt><trkpt lat="41.1918133" lon="0.2387117"><ele>171.0</ele><time>2026-03-31T15:02:26.156Z</time></trkpt><trkpt lat="41.191645" lon="0.2387167"><ele>173.66666666666666</ele><time>2026-03-31T15:02:27.155Z</time></trkpt><trkpt lat="41.19148" lon="0.2386783"><ele>176.33333333333331</ele><time>2026-03-31T15:02:28.155Z</time></trkpt><trkpt lat="41.19132" lon="0.2386183"><ele>179.0</ele><time>2026-03-31T15:02:29.156Z</time></trkpt><trkpt lat="41.1911683" lon="0.2385383"><ele>179.0</ele><time>2026-03-31T15:02:30.156Z</time></trkpt><trkpt lat="41.1910283" lon="0.2384217"><ele>179.0</ele><time>2026-03-31T15:02:31.155Z</time></trkpt><trkpt lat="41.19089" lon="0.238315"><ele>179.0</ele><time>2026-03-31T15:02:32.156Z</time></trkpt><trkpt lat="41.1907417" lon="0.2382283"><ele>177.33333333333331</ele><time>2026-03-31T15:02:33.155Z</time></trkpt><trkpt lat="41.1905833" lon="0.238165"><ele>175.66666666666666</ele><time>2026-03-31T15:02:34.155Z</time></trkpt><trkpt lat="41.19042" lon="0.2380967"><ele>174.0</ele><time>2026-03-31T15:02:35.155Z</time></trkpt><trkpt lat="41.1902533" lon="0.2380283"><ele>174.0</ele><time>2026-03-31T15:02:36.156Z</time></trkpt><trkpt lat="41.1900883" lon="0.2379683"><ele>174.0</ele><time>2026-03-31T15:02:37.155Z</time></trkpt><trkpt lat="41.1899183" lon="0.23791"><ele>174.0</ele><time>2026-03-31T15:02:38.155Z</time></trkpt><trkpt lat="41.189745" lon="0.2378633"><ele>176.33333333333334</ele><time>2026-03-31T15:02:39.155Z</time></trkpt><trkpt lat="41.1895767" lon="0.2378267"><ele>178.66666666666669</ele><time>2026-03-31T15:02:40.155Z</time></trkpt><trkpt lat="41.1894133" lon="0.23779"><ele>181.0</ele><time>2026-03-31T15:02:41.155Z</time></trkpt><trkpt lat="41.1892733" lon="0.2377683"><ele>181.0</ele><time>2026-03-31T15:02:42.156Z</time></trkpt><trkpt lat="41.18914" lon="0.2377783"><ele>181.0</ele><time>2026-03-31T15:02:43.155Z</time></trkpt><trkpt lat="41.189" lon="0.2378367"><ele>181.0</ele><time>2026-03-31T15:02:44.155Z</time></trkpt><trkpt lat="41.1888567" lon="0.2379283"><ele>181.0</ele><time>2026-03-31T15:02:45.155Z</time></trkpt><trkpt lat="41.188715" lon="0.2380367"><ele>183.0</ele><time>2026-03-31T15:02:46.156Z</time></trkpt><trkpt lat="41.188585" lon="0.238135"><ele>185.0</ele><time>2026-03-31T15:02:47.156Z</time></trkpt><trkpt lat="41.1884683" lon="0.2382617"><ele>187.0</ele><time>2026-03-31T15:02:48.155Z</time></trkpt><trkpt lat="41.1883733" lon="0.2384117"><ele>189.0</ele><time>2026-03-31T15:02:49.155Z</time></trkpt><trkpt lat="41.1882967" lon="0.2385867"><ele>189.0</ele><time>2026-03-31T15:02:50.155Z</time></trkpt><trkpt lat="41.1882367" lon="0.2387833"><ele>189.0</ele><time>2026-03-31T15:02:51.155Z</time></trkpt><trkpt lat="41.1881983" lon="0.23899"><ele>189.0</ele><time>2026-03-31T15:02:52.155Z</time></trkpt><trkpt lat="41.18819" lon="0.2392117"><ele>191.66666666666669</ele><time>2026-03-31T15:02:53.155Z</time></trkpt><trkpt lat="41.1882" lon="0.2394333"><ele>194.33333333333334</ele><time>2026-03-31T15:02:54.156Z</time></trkpt><trkpt lat="41.1882017" lon="0.23964"><ele>197.0</ele><time>2026-03-31T15:02:55.155Z</time></trkpt><trkpt lat="41.1881933" lon="0.2398367"><ele>197.25</ele><time>2026-03-31T15:02:56.155Z</time></trkpt><trkpt lat="41.1881633" lon="0.2400183"><ele>197.5</ele><time>2026-03-31T15:02:57.155Z</time></trkpt><trkpt lat="41.1880917" lon="0.2401733"><ele>197.75</ele><time>2026-03-31T15:02:58.155Z</time></trkpt><trkpt lat="41.18798" lon="0.240285"><ele>198.0</ele><time>2026-03-31T15:02:59.155Z</time></trkpt><trkpt lat="41.187845" lon="0.24036"><ele>198.0</ele><time>2026-03-31T15:03:00.155Z</time></trkpt><trkpt lat="41.1876917" lon="0.2403983"><ele>198.0</ele><time>2026-03-31T15:03:01.155Z</time></trkpt><trkpt lat="41.1875417" lon="0.2404167"><ele>198.0</ele><time>2026-03-31T15:03:02.156Z</time></trkpt><trkpt lat="41.18739" lon="0.2404217"><ele>199.5</ele><time>2026-03-31T15:03:03.155Z</time></trkpt><trkpt lat="41.187245" lon="0.240385"><ele>201.0</ele><time>2026-03-31T15:03:04.156Z</time></trkpt><trkpt lat="41.1871233" lon="0.2403067"><ele>202.5</ele><time>2026-03-31T15:03:05.155Z</time></trkpt><trkpt lat="41.1870067" lon="0.2401883"><ele>204.0</ele><time>2026-03-31T15:03:06.156Z</time></trkpt><trkpt lat="41.18689" lon="0.2400517"><ele>204.0</ele><time>2026-03-31T15:03:07.155Z</time></trkpt><trkpt lat="41.1867867" lon="0.2398917"><ele>204.0</ele><time>2026-03-31T15:03:08.155Z</time></trkpt><trkpt lat="41.1867167" lon="0.2397067"><ele>204.0</ele><time>2026-03-31T15:03:09.155Z</time></trkpt><trkpt lat="41.1866683" lon="0.2395"><ele>203.33333333333331</ele><time>2026-03-31T15:03:10.155Z</time></trkpt><trkpt lat="41.1866283" lon="0.2392883"><ele>202.66666666666666</ele><time>2026-03-31T15:03:11.155Z</time></trkpt><trkpt lat="41.1865867" lon="0.2390817"><ele>202.0</ele><time>2026-03-31T15:03:12.155Z</time></trkpt><trkpt lat="41.18656" lon="0.2388817"><ele>202.0</ele><time>2026-03-31T15:03:13.155Z</time></trkpt><trkpt lat="41.18653" lon="0.2387067"><ele>202.0</ele><time>2026-03-31T15:03:14.155Z</time></trkpt><trkpt lat="41.1864833" lon="0.2385633"><ele>202.0</ele><time>2026-03-31T15:03:15.156Z</time></trkpt><trkpt lat="41.1864217" lon="0.238455"><ele>202.0</ele><time>2026-03-31T15:03:16.156Z</time></trkpt><trkpt lat="41.1863433" lon="0.23838"><ele>203.5</ele><time>2026-03-31T15:03:17.156Z</time></trkpt><trkpt lat="41.1862483" lon="0.238345"><ele>205.0</ele><time>2026-03-31T15:03:18.155Z</time></trkpt><trkpt lat="41.1861433" lon="0.2383333"><ele>206.5</ele><time>2026-03-31T15:03:19.155Z</time></trkpt><trkpt lat="41.186025" lon="0.2383267"><ele>208.0</ele><time>2026-03-31T15:03:20.156Z</time></trkpt><trkpt lat="41.185895" lon="0.2383033"><ele>208.0</ele><time>2026-03-31T15:03:21.156Z</time></trkpt><trkpt lat="41.1857667" lon="0.2382817"><ele>208.0</ele><time>2026-03-31T15:03:22.155Z</time></trkpt><trkpt lat="41.1856233" lon="0.2383017"><ele>208.0</ele><time>2026-03-31T15:03:23.155Z</time></trkpt><trkpt lat="41.18548" lon="0.2383667"><ele>208.0</ele><time>2026-03-31T15:03:24.155Z</time></trkpt><trkpt lat="41.1853417" lon="0.23846"><ele>208.66666666666666</ele><time>2026-03-31T15:03:25.155Z</time></trkpt><trkpt lat="41.1852033" lon="0.23856"><ele>209.33333333333331</ele><time>2026-03-31T15:03:26.156Z</time></trkpt><trkpt lat="41.1850683" lon="0.2386567"><ele>210.0</ele><time>2026-03-31T15:03:27.155Z</time></trkpt><trkpt lat="41.1849333" lon="0.2387483"><ele>211.33333333333331</ele><time>2026-03-31T15:03:28.155Z</time></trkpt><trkpt lat="41.1847917" lon="0.2388083"><ele>212.66666666666666</ele><time>2026-03-31T15:03:29.155Z</time></trkpt><trkpt lat="41.1846417" lon="0.238835"><ele>214.0</ele><time>2026-03-31T15:03:30.155Z</time></trkpt><trkpt lat="41.1844917" lon="0.2388167"><ele>214.0</ele><time>2026-03-31T15:03:31.155Z</time></trkpt><trkpt lat="41.1843383" lon="0.2387833"><ele>214.0</ele><time>2026-03-31T15:03:32.156Z</time></trkpt><trkpt lat="41.1841817" lon="0.238765"><ele>214.0</ele><time>2026-03-31T15:03:33.156Z</time></trkpt><trkpt lat="41.1840217" lon="0.2387417"><ele>213.33333333333331</ele><time>2026-03-31T15:03:34.156Z</time></trkpt><trkpt lat="41.18386" lon="0.238715"><ele>212.66666666666669</ele><time>2026-03-31T15:03:35.156Z</time></trkpt><trkpt lat="41.183705" lon="0.2386783"><ele>212.0</ele><time>2026-03-31T15:03:36.156Z</time></trkpt><trkpt lat="41.183545" lon="0.23865"><ele>212.0</ele><time>2026-03-31T15:03:37.155Z</time></trkpt><trkpt lat="41.18339" lon="0.2386217"><ele>212.0</ele><time>2026-03-31T15:03:38.156Z</time></trkpt><trkpt lat="41.183245" lon="0.2385717"><ele>212.0</ele><time>2026-03-31T15:03:39.155Z</time></trkpt><trkpt lat="41.18312" lon="0.2384683"><ele>211.0</ele><time>2026-03-31T15:03:40.156Z</time></trkpt><trkpt lat="41.18302" lon="0.2383217"><ele>210.0</ele><time>2026-03-31T15:03:41.156Z</time></trkpt><trkpt lat="41.18293" lon="0.23816"><ele>209.0</ele><time>2026-03-31T15:03:42.156Z</time></trkpt><trkpt lat="41.182825" lon="0.237995"><ele>208.33333333333334</ele><time>2026-03-31T15:03:43.155Z</time></trkpt><trkpt lat="41.182695" lon="0.2378517"><ele>207.66666666666669</ele><time>2026-03-31T15:03:44.155Z</time></trkpt><trkpt lat="41.182545" lon="0.2377317"><ele>207.0</ele><time>2026-03-31T15:03:45.155Z</time></trkpt><trkpt lat="41.1823817" lon="0.2376233"><ele>207.0</ele><time>2026-03-31T15:03:46.155Z</time></trkpt><trkpt lat="41.1822167" lon="0.23751"><ele>207.0</ele><time>2026-03-31T15:03:47.155Z</time></trkpt><trkpt lat="41.1820533" lon="0.2374"><ele>207.0</ele><time>2026-03-31T15:03:48.155Z</time></trkpt><trkpt lat="41.1819083" lon="0.2372967"><ele>204.33333333333331</ele><time>2026-03-31T15:03:49.156Z</time></trkpt><trkpt lat="41.1817533" lon="0.23722"><ele>201.66666666666666</ele><time>2026-03-31T15:03:50.155Z</time></trkpt><trkpt lat="41.1816017" lon="0.2371383"><ele>199.0</ele><time>2026-03-31T15:03:51.156Z</time></trkpt><trkpt lat="41.1814833" lon="0.2370917"><ele>198.33333333333331</ele><time>2026-03-31T15:03:52.156Z</time></trkpt><trkpt lat="41.18135" lon="0.23708"><ele>197.66666666666669</ele><time>2026-03-31T15:03:53.155Z</time></trkpt><trkpt lat="41.1811967" lon="0.2371117"><ele>197.0</ele><time>2026-03-31T15:03:54.155Z</time></trkpt><trkpt lat="41.18102" lon="0.23715"><ele>197.0</ele><time>2026-03-31T15:03:55.156Z</time></trkpt><trkpt lat="41.180845" lon="0.2371867"><ele>197.0</ele><time>2026-03-31T15:03:56.156Z</time></trkpt><trkpt lat="41.18066" lon="0.2372283"><ele>197.0</ele><time>2026-03-31T15:03:57.156Z</time></trkpt><trkpt lat="41.180475" lon="0.237265"><ele>198.33333333333334</ele><time>2026-03-31T15:03:58.156Z</time></trkpt><trkpt lat="41.1802867" lon="0.2373033"><ele>199.66666666666669</ele><time>2026-03-31T15:03:59.155Z</time></trkpt><trkpt lat="41.1800967" lon="0.2373333"><ele>201.0</ele><time>2026-03-31T15:04:00.156Z</time></trkpt><trkpt lat="41.1799133" lon="0.2373683"><ele>202.33333333333331</ele><time>2026-03-31T15:04:01.155Z</time></trkpt><trkpt lat="41.1797267" lon="0.237405"><ele>203.66666666666666</ele><time>2026-03-31T15:04:02.156Z</time></trkpt><trkpt lat="41.1795417" lon="0.2374383"><ele>205.0</ele><time>2026-03-31T15:04:03.156Z</time></trkpt><trkpt lat="41.17936" lon="0.2374667"><ele>205.0</ele><time>2026-03-31T15:04:04.156Z</time></trkpt><trkpt lat="41.17918" lon="0.237495"><ele>205.0</ele><time>2026-03-31T15:04:05.156Z</time></trkpt><trkpt lat="41.1790033" lon="0.2375333"><ele>205.0</ele><time>2026-03-31T15:04:06.155Z</time></trkpt><trkpt lat="41.1788217" lon="0.237565"><ele>207.0</ele><time>2026-03-31T15:04:07.156Z</time></trkpt><trkpt lat="41.1786467" lon="0.2375983"><ele>209.0</ele><time>2026-03-31T15:04:08.156Z</time></trkpt><trkpt lat="41.1784633" lon="0.2376467"><ele>211.0</ele><time>2026-03-31T15:04:09.156Z</time></trkpt><trkpt lat="41.17828" lon="0.2377067"><ele>212.33333333333331</ele><time>2026-03-31T15:04:10.156Z</time></trkpt><trkpt lat="41.1780917" lon="0.2377783"><ele>213.66666666666669</ele><time>2026-03-31T15:04:11.155Z</time></trkpt><trkpt lat="41.17791" lon="0.2378467"><ele>215.0</ele><time>2026-03-31T15:04:12.156Z</time></trkpt><trkpt lat="41.1777383" lon="0.23792"><ele>215.0</ele><time>2026-03-31T15:04:13.155Z</time></trkpt><trkpt lat="41.1775467" lon="0.2379883"><ele>215.0</ele><time>2026-03-31T15:04:14.155Z</time></trkpt><trkpt lat="41.17737" lon="0.2380617"><ele>215.0</ele><time>2026-03-31T15:04:15.156Z</time></trkpt><trkpt lat="41.1772" lon="0.2381183"><ele>214.66666666666669</ele><time>2026-03-31T15:04:16.155Z</time></trkpt><trkpt lat="41.1770483" lon="0.238155"><ele>214.33333333333331</ele><time>2026-03-31T15:04:17.155Z</time></trkpt><trkpt lat="41.17689" lon="0.2381617"><ele>214.0</ele><time>2026-03-31T15:04:18.156Z</time></trkpt><trkpt lat="41.1767217" lon="0.23814"><ele>216.0</ele><time>2026-03-31T15:04:19.156Z</time></trkpt><trkpt lat="41.1765433" lon="0.2381217"><ele>218.0</ele><time>2026-03-31T15:04:20.156Z</time></trkpt><trkpt lat="41.1763583" lon="0.23811"><ele>220.0</ele><time>2026-03-31T15:04:21.155Z</time></trkpt><trkpt lat="41.176155" lon="0.238095"><ele>220.33333333333331</ele><time>2026-03-31T15:04:22.155Z</time></trkpt><trkpt lat="41.1759567" lon="0.2380817"><ele>220.66666666666669</ele><time>2026-03-31T15:04:23.155Z</time></trkpt><trkpt lat="41.17575" lon="0.23807"><ele>221.0</ele><time>2026-03-31T15:04:24.155Z</time></trkpt><trkpt lat="41.1755417" lon="0.2380583"><ele>220.33333333333334</ele><time>2026-03-31T15:04:25.155Z</time></trkpt><trkpt lat="41.17534" lon="0.2380433"><ele>219.66666666666669</ele><time>2026-03-31T15:04:26.156Z</time></trkpt><trkpt lat="41.1751367" lon="0.2380267"><ele>219.0</ele><time>2026-03-31T15:04:27.155Z</time></trkpt><trkpt lat="41.1749283" lon="0.2380117"><ele>220.33333333333331</ele><time>2026-03-31T15:04:28.155Z</time></trkpt><trkpt lat="41.1747133" lon="0.23799"><ele>221.66666666666666</ele><time>2026-03-31T15:04:29.156Z</time></trkpt><trkpt lat="41.1745033" lon="0.237975"><ele>223.0</ele><time>2026-03-31T15:04:30.156Z</time></trkpt><trkpt lat="41.1742883" lon="0.23796"><ele>223.0</ele><time>2026-03-31T15:04:31.155Z</time></trkpt><trkpt lat="41.1740717" lon="0.2379417"><ele>223.0</ele><time>2026-03-31T15:04:32.156Z</time></trkpt><trkpt lat="41.1738667" lon="0.2379267"><ele>223.0</ele><time>2026-03-31T15:04:33.155Z</time></trkpt><trkpt lat="41.1736633" lon="0.2379117"><ele>225.0</ele><time>2026-03-31T15:04:34.155Z</time></trkpt><trkpt lat="41.1734533" lon="0.2378967"><ele>227.0</ele><time>2026-03-31T15:04:35.156Z</time></trkpt><trkpt lat="41.1732483" lon="0.2378817"><ele>229.0</ele><time>2026-03-31T15:04:36.156Z</time></trkpt><trkpt lat="41.173055" lon="0.2378683"><ele>232.33333333333331</ele><time>2026-03-31T15:04:37.156Z</time></trkpt><trkpt lat="41.172865" lon="0.2378483"><ele>235.66666666666669</ele><time>2026-03-31T15:04:38.155Z</time></trkpt><trkpt lat="41.1726817" lon="0.2378367"><ele>239.0</ele><time>2026-03-31T15:04:39.155Z</time></trkpt><trkpt lat="41.1724883" lon="0.2378167"><ele>240.33333333333334</ele><time>2026-03-31T15:04:40.156Z</time></trkpt><trkpt lat="41.1722967" lon="0.2378017"><ele>241.66666666666669</ele><time>2026-03-31T15:04:41.155Z</time></trkpt><trkpt lat="41.1721067" lon="0.2377883"><ele>243.0</ele><time>2026-03-31T15:04:42.156Z</time></trkpt><trkpt lat="41.17192" lon="0.2377667"><ele>243.0</ele><time>2026-03-31T15:04:43.155Z</time></trkpt><trkpt lat="41.1717333" lon="0.2377433"><ele>243.0</ele><time>2026-03-31T15:04:44.155Z</time></trkpt><trkpt lat="41.17156" lon="0.237725"><ele>243.0</ele><time>2026-03-31T15:04:45.156Z</time></trkpt><trkpt lat="41.17139" lon="0.23771"><ele>247.33333333333331</ele><time>2026-03-31T15:04:46.155Z</time></trkpt><trkpt lat="41.1712233" lon="0.23771"><ele>251.66666666666666</ele><time>2026-03-31T15:04:47.156Z</time></trkpt><trkpt lat="41.171065" lon="0.23775"><ele>256.0</ele><time>2026-03-31T15:04:48.155Z</time></trkpt><trkpt lat="41.170925" lon="0.2378333"><ele>256.0</ele><time>2026-03-31T15:04:49.156Z</time></trkpt><trkpt lat="41.170805" lon="0.2379467"><ele>256.0</ele><time>2026-03-31T15:04:50.155Z</time></trkpt><trkpt lat="41.1707" lon="0.238055"><ele>256.0</ele><time>2026-03-31T15:04:51.155Z</time></trkpt><trkpt lat="41.1706017" lon="0.2381133"><ele>256.0</ele><time>2026-03-31T15:04:52.155Z</time></trkpt><trkpt lat="41.1704967" lon="0.2381117"><ele>254.60000000000002</ele><time>2026-03-31T15:04:53.156Z</time></trkpt><trkpt lat="41.1704033" lon="0.23807"><ele>253.20000000000002</ele><time>2026-03-31T15:04:54.155Z</time></trkpt><trkpt lat="41.1703183" lon="0.2380033"><ele>251.79999999999998</ele><time>2026-03-31T15:04:55.156Z</time></trkpt><trkpt lat="41.170235" lon="0.2379183"><ele>250.39999999999998</ele><time>2026-03-31T15:04:56.155Z</time></trkpt><trkpt lat="41.1701767" lon="0.23781"><ele>249.0</ele><time>2026-03-31T15:04:57.155Z</time></trkpt><trkpt lat="41.1701433" lon="0.2376717"><ele>249.0</ele><time>2026-03-31T15:04:58.156Z</time></trkpt><trkpt lat="41.170125" lon="0.2375167"><ele>249.0</ele><time>2026-03-31T15:04:59.156Z</time></trkpt><trkpt lat="41.1701117" lon="0.237345"><ele>249.0</ele><time>2026-03-31T15:05:00.155Z</time></trkpt><trkpt lat="41.1701083" lon="0.2371667"><ele>249.0</ele><time>2026-03-31T15:05:01.156Z</time></trkpt><trkpt lat="41.1701083" lon="0.2369867"><ele>250.75</ele><time>2026-03-31T15:05:02.156Z</time></trkpt><trkpt lat="41.1701117" lon="0.2368067"><ele>252.5</ele><time>2026-03-31T15:05:03.156Z</time></trkpt><trkpt lat="41.1701017" lon="0.236625"><ele>254.25</ele><time>2026-03-31T15:05:04.156Z</time></trkpt><trkpt lat="41.170075" lon="0.2364567"><ele>256.0</ele><time>2026-03-31T15:05:05.155Z</time></trkpt><trkpt lat="41.170025" lon="0.2363167"><ele>257.0</ele><time>2026-03-31T15:05:06.155Z</time></trkpt><trkpt lat="41.16994" lon="0.2362133"><ele>258.0</ele><time>2026-03-31T15:05:07.155Z</time></trkpt><trkpt lat="41.1698333" lon="0.23615"><ele>259.0</ele><time>2026-03-31T15:05:08.156Z</time></trkpt><trkpt lat="41.16971" lon="0.2361383"><ele>260.0</ele><time>2026-03-31T15:05:09.156Z</time></trkpt><trkpt lat="41.16959" lon="0.23618"><ele>259.0</ele><time>2026-03-31T15:05:10.155Z</time></trkpt><trkpt lat="41.1694667" lon="0.2362717"><ele>258.0</ele><time>2026-03-31T15:05:11.155Z</time></trkpt><trkpt lat="41.1693483" lon="0.23641"><ele>257.0</ele><time>2026-03-31T15:05:12.156Z</time></trkpt><trkpt lat="41.1692317" lon="0.2365717"><ele>257.0</ele><time>2026-03-31T15:05:13.156Z</time></trkpt><trkpt lat="41.1691167" lon="0.2367383"><ele>257.0</ele><time>2026-03-31T15:05:14.155Z</time></trkpt><trkpt lat="41.16902" lon="0.2368917"><ele>257.0</ele><time>2026-03-31T15:05:15.155Z</time></trkpt><trkpt lat="41.1689267" lon="0.2370417"><ele>257.75</ele><time>2026-03-31T15:05:16.156Z</time></trkpt><trkpt lat="41.1688417" lon="0.2371767"><ele>258.5</ele><time>2026-03-31T15:05:17.156Z</time></trkpt><trkpt lat="41.1687417" lon="0.2372733"><ele>259.25</ele><time>2026-03-31T15:05:18.155Z</time></trkpt><trkpt lat="41.168625" lon="0.2373333"><ele>260.0</ele><time>2026-03-31T15:05:19.156Z</time></trkpt><trkpt lat="41.1685033" lon="0.2373517"><ele>260.0</ele><time>2026-03-31T15:05:20.155Z</time></trkpt><trkpt lat="41.1683783" lon="0.2373383"><ele>260.0</ele><time>2026-03-31T15:05:21.155Z</time></trkpt><trkpt lat="41.16826" lon="0.23728"><ele>260.0</ele><time>2026-03-31T15:05:22.155Z</time></trkpt><trkpt lat="41.16815" lon="0.2371817"><ele>260.0</ele><time>2026-03-31T15:05:23.155Z</time></trkpt><trkpt lat="41.1680433" lon="0.237055"><ele>262.75</ele><time>2026-03-31T15:05:24.155Z</time></trkpt><trkpt lat="41.16794" lon="0.23692"><ele>265.5</ele><time>2026-03-31T15:05:25.155Z</time></trkpt><trkpt lat="41.167845" lon="0.236785"><ele>268.25</ele><time>2026-03-31T15:05:26.156Z</time></trkpt><trkpt lat="41.1677283" lon="0.2366717"><ele>271.0</ele><time>2026-03-31T15:05:27.155Z</time></trkpt><trkpt lat="41.1676283" lon="0.2365817"><ele>271.0</ele><time>2026-03-31T15:05:28.155Z</time></trkpt><trkpt lat="41.16753" lon="0.2365483"><ele>271.0</ele><time>2026-03-31T15:05:29.155Z</time></trkpt><trkpt lat="41.1674267" lon="0.236575"><ele>271.0</ele><time>2026-03-31T15:05:30.155Z</time></trkpt><trkpt lat="41.167335" lon="0.2366667"><ele>271.0</ele><time>2026-03-31T15:05:31.155Z</time></trkpt><trkpt lat="41.1672567" lon="0.23679"><ele>271.0</ele><time>2026-03-31T15:05:32.155Z</time></trkpt><trkpt lat="41.1671867" lon="0.2369583"><ele>273.75</ele><time>2026-03-31T15:05:33.156Z</time></trkpt><trkpt lat="41.167105" lon="0.2371183"><ele>276.5</ele><time>2026-03-31T15:05:34.155Z</time></trkpt><trkpt lat="41.1670133" lon="0.2372333"><ele>279.25</ele><time>2026-03-31T15:05:35.155Z</time></trkpt><trkpt lat="41.16691" lon="0.2373"><ele>282.0</ele><time>2026-03-31T15:05:36.155Z</time></trkpt><trkpt lat="41.16681" lon="0.2373"><ele>282.0</ele><time>2026-03-31T15:05:37.155Z</time></trkpt><trkpt lat="41.1667133" lon="0.2372417"><ele>282.0</ele><time>2026-03-31T15:05:38.155Z</time></trkpt><trkpt lat="41.16661" lon="0.237165"><ele>282.0</ele><time>2026-03-31T15:05:39.156Z</time></trkpt><trkpt lat="41.1664983" lon="0.2371017"><ele>282.0</ele><time>2026-03-31T15:05:40.156Z</time></trkpt><trkpt lat="41.166375" lon="0.23705"><ele>282.75</ele><time>2026-03-31T15:05:41.156Z</time></trkpt><trkpt lat="41.166265" lon="0.23704"><ele>283.5</ele><time>2026-03-31T15:05:42.155Z</time></trkpt><trkpt lat="41.1661533" lon="0.2370583"><ele>284.25</ele><time>2026-03-31T15:05:43.156Z</time></trkpt><trkpt lat="41.1660583" lon="0.2371367"><ele>285.0</ele><time>2026-03-31T15:05:44.155Z</time></trkpt><trkpt lat="41.1659783" lon="0.2372683"><ele>283.25</ele><time>2026-03-31T15:05:45.156Z</time></trkpt><trkpt lat="41.1658967" lon="0.2374317"><ele>281.5</ele><time>2026-03-31T15:05:46.156Z</time></trkpt><trkpt lat="41.1658117" lon="0.237595"><ele>279.75</ele><time>2026-03-31T15:05:47.155Z</time></trkpt><trkpt lat="41.1657217" lon="0.2377383"><ele>278.0</ele><time>2026-03-31T15:05:48.156Z</time></trkpt><trkpt lat="41.1656283" lon="0.2378583"><ele>281.75</ele><time>2026-03-31T15:05:49.155Z</time></trkpt><trkpt lat="41.16552" lon="0.2379317"><ele>285.5</ele><time>2026-03-31T15:05:50.155Z</time></trkpt><trkpt lat="41.1654" lon="0.2379517"><ele>289.25</ele><time>2026-03-31T15:05:51.156Z</time></trkpt><trkpt lat="41.165275" lon="0.237945"><ele>293.0</ele><time>2026-03-31T15:05:52.156Z</time></trkpt><trkpt lat="41.1651467" lon="0.23794"><ele>293.0</ele><time>2026-03-31T15:05:53.155Z</time></trkpt><trkpt lat="41.165005" lon="0.237935"><ele>293.0</ele><time>2026-03-31T15:05:54.156Z</time></trkpt><trkpt lat="41.1648467" lon="0.2379467"><ele>293.0</ele><time>2026-03-31T15:05:55.156Z</time></trkpt><trkpt lat="41.1646867" lon="0.2380083"><ele>292.6666666666667</ele><time>2026-03-31T15:05:56.155Z</time></trkpt><trkpt lat="41.16454" lon="0.2381033"><ele>292.3333333333333</ele><time>2026-03-31T15:05:57.156Z</time></trkpt><trkpt lat="41.1644067" lon="0.23822"><ele>292.0</ele><time>2026-03-31T15:05:58.155Z</time></trkpt><trkpt lat="41.1642767" lon="0.2383567"><ele>291.3333333333333</ele><time>2026-03-31T15:05:59.155Z</time></trkpt><trkpt lat="41.1641733" lon="0.2385167"><ele>290.6666666666667</ele><time>2026-03-31T15:06:00.155Z</time></trkpt><trkpt lat="41.1640817" lon="0.2386983"><ele>290.0</ele><time>2026-03-31T15:06:01.156Z</time></trkpt><trkpt lat="41.1640067" lon="0.23889"><ele>290.33333333333337</ele><time>2026-03-31T15:06:02.155Z</time></trkpt><trkpt lat="41.1639433" lon="0.2390733"><ele>290.6666666666667</ele><time>2026-03-31T15:06:03.156Z</time></trkpt><trkpt lat="41.1638767" lon="0.239255"><ele>291.0</ele><time>2026-03-31T15:06:04.156Z</time></trkpt><trkpt lat="41.16383" lon="0.2394533"><ele>291.0</ele><time>2026-03-31T15:06:05.155Z</time></trkpt><trkpt lat="41.163825" lon="0.23966"><ele>291.0</ele><time>2026-03-31T15:06:06.155Z</time></trkpt><trkpt lat="41.1638583" lon="0.2398483"><ele>291.0</ele><time>2026-03-31T15:06:07.155Z</time></trkpt><trkpt lat="41.1638783" lon="0.2400283"><ele>291.0</ele><time>2026-03-31T15:06:08.156Z</time></trkpt><trkpt lat="41.1638667" lon="0.2401883"><ele>291.25</ele><time>2026-03-31T15:06:09.155Z</time></trkpt><trkpt lat="41.163815" lon="0.2403383"><ele>291.5</ele><time>2026-03-31T15:06:10.155Z</time></trkpt><trkpt lat="41.1637267" lon="0.2404783"><ele>291.75</ele><time>2026-03-31T15:06:11.155Z</time></trkpt><trkpt lat="41.1636417" lon="0.24062"><ele>292.0</ele><time>2026-03-31T15:06:12.155Z</time></trkpt><trkpt lat="41.163545" lon="0.240765"><ele>292.66666666666663</ele><time>2026-03-31T15:06:13.156Z</time></trkpt><trkpt lat="41.16345" lon="0.240915"><ele>293.3333333333333</ele><time>2026-03-31T15:06:14.155Z</time></trkpt><trkpt lat="41.1633483" lon="0.2410717"><ele>294.0</ele><time>2026-03-31T15:06:15.156Z</time></trkpt><trkpt lat="41.1632433" lon="0.241235"><ele>293.6666666666667</ele><time>2026-03-31T15:06:16.155Z</time></trkpt><trkpt lat="41.1631583" lon="0.2414183"><ele>293.33333333333337</ele><time>2026-03-31T15:06:17.155Z</time></trkpt><trkpt lat="41.163105" lon="0.2416167"><ele>293.0</ele><time>2026-03-31T15:06:18.155Z</time></trkpt><trkpt lat="41.163065" lon="0.2417883"><ele>293.0</ele><time>2026-03-31T15:06:19.155Z</time></trkpt><trkpt lat="41.1630083" lon="0.241955"><ele>293.0</ele><time>2026-03-31T15:06:20.155Z</time></trkpt><trkpt lat="41.1629233" lon="0.2420817"><ele>293.0</ele><time>2026-03-31T15:06:21.155Z</time></trkpt><trkpt lat="41.162815" lon="0.2421733"><ele>293.0</ele><time>2026-03-31T15:06:22.155Z</time></trkpt><trkpt lat="41.1626933" lon="0.2422483"><ele>291.0</ele><time>2026-03-31T15:06:23.155Z</time></trkpt><trkpt lat="41.1625633" lon="0.2423483"><ele>289.0</ele><time>2026-03-31T15:06:24.155Z</time></trkpt><trkpt lat="41.1624483" lon="0.2424867"><ele>287.0</ele><time>2026-03-31T15:06:25.155Z</time></trkpt><trkpt lat="41.1623517" lon="0.2426483"><ele>287.0</ele><time>2026-03-31T15:06:26.155Z</time></trkpt><trkpt lat="41.16226" lon="0.242825"><ele>287.0</ele><time>2026-03-31T15:06:27.155Z</time></trkpt><trkpt lat="41.16216" lon="0.2430083"><ele>287.0</ele><time>2026-03-31T15:06:28.155Z</time></trkpt><trkpt lat="41.16206" lon="0.24319"><ele>289.33333333333337</ele><time>2026-03-31T15:06:29.156Z</time></trkpt><trkpt lat="41.1619667" lon="0.2433683"><ele>291.6666666666667</ele><time>2026-03-31T15:06:30.155Z</time></trkpt><trkpt lat="41.1618867" lon="0.2435517"><ele>294.0</ele><time>2026-03-31T15:06:31.155Z</time></trkpt><trkpt lat="41.161825" lon="0.2437483"><ele>294.0</ele><time>2026-03-31T15:06:32.155Z</time></trkpt><trkpt lat="41.1617717" lon="0.243955"><ele>294.0</ele><time>2026-03-31T15:06:33.155Z</time></trkpt><trkpt lat="41.1617267" lon="0.2441633"><ele>294.0</ele><time>2026-03-31T15:06:34.155Z</time></trkpt><trkpt lat="41.16168" lon="0.2443767"><ele>296.6666666666667</ele><time>2026-03-31T15:06:35.155Z</time></trkpt><trkpt lat="41.1616367" lon="0.2445867"><ele>299.33333333333337</ele><time>2026-03-31T15:06:36.155Z</time></trkpt><trkpt lat="41.16159" lon="0.2447917"><ele>302.0</ele><time>2026-03-31T15:06:37.156Z</time></trkpt><trkpt lat="41.1615283" lon="0.2449617"><ele>304.25</ele><time>2026-03-31T15:06:38.156Z</time></trkpt><trkpt lat="41.1614433" lon="0.2450833"><ele>306.5</ele><time>2026-03-31T15:06:39.155Z</time></trkpt><trkpt lat="41.1613383" lon="0.2451717"><ele>308.75</ele><time>2026-03-31T15:06:40.155Z</time></trkpt><trkpt lat="41.16122" lon="0.2452417"><ele>311.0</ele><time>2026-03-31T15:06:41.155Z</time></trkpt><trkpt lat="41.161095" lon="0.2452917"><ele>311.0</ele><time>2026-03-31T15:06:42.156Z</time></trkpt><trkpt lat="41.160975" lon="0.2453367"><ele>311.0</ele><time>2026-03-31T15:06:43.155Z</time></trkpt><trkpt lat="41.1608683" lon="0.24536"><ele>311.0</ele><time>2026-03-31T15:06:44.156Z</time></trkpt><trkpt lat="41.1607717" lon="0.2453533"><ele>311.0</ele><time>2026-03-31T15:06:45.155Z</time></trkpt><trkpt lat="41.1606817" lon="0.2453067"><ele>311.0</ele><time>2026-03-31T15:06:46.155Z</time></trkpt><trkpt lat="41.1605867" lon="0.2452467"><ele>310.2</ele><time>2026-03-31T15:06:47.155Z</time></trkpt><trkpt lat="41.16051" lon="0.24522"><ele>309.40000000000003</ele><time>2026-03-31T15:06:48.155Z</time></trkpt><trkpt lat="41.1604233" lon="0.245225"><ele>308.6</ele><time>2026-03-31T15:06:49.156Z</time></trkpt><trkpt lat="41.1603433" lon="0.2452767"><ele>307.8</ele><time>2026-03-31T15:06:50.156Z</time></trkpt><trkpt lat="41.160285" lon="0.2453783"><ele>307.0</ele><time>2026-03-31T15:06:51.156Z</time></trkpt><trkpt lat="41.1602633" lon="0.245525"><ele>307.5</ele><time>2026-03-31T15:06:52.156Z</time></trkpt><trkpt lat="41.160285" lon="0.2456917"><ele>308.0</ele><time>2026-03-31T15:06:53.156Z</time></trkpt><trkpt lat="41.1603317" lon="0.245865"><ele>308.5</ele><time>2026-03-31T15:06:54.156Z</time></trkpt><trkpt lat="41.1603883" lon="0.2460433"><ele>309.0</ele><time>2026-03-31T15:06:55.156Z</time></trkpt><trkpt lat="41.1604133" lon="0.2462267"><ele>309.0</ele><time>2026-03-31T15:06:56.156Z</time></trkpt><trkpt lat="41.1603767" lon="0.2463783"><ele>309.0</ele><time>2026-03-31T15:06:57.155Z</time></trkpt><trkpt lat="41.1603017" lon="0.2465033"><ele>309.0</ele><time>2026-03-31T15:06:58.155Z</time></trkpt><trkpt lat="41.1601983" lon="0.2466017"><ele>309.0</ele><time>2026-03-31T15:06:59.155Z</time></trkpt><trkpt lat="41.1600983" lon="0.2467133"><ele>309.25</ele><time>2026-03-31T15:07:00.155Z</time></trkpt><trkpt lat="41.1600333" lon="0.24684"><ele>309.5</ele><time>2026-03-31T15:07:01.156Z</time></trkpt><trkpt lat="41.1600083" lon="0.246975"><ele>309.75</ele><time>2026-03-31T15:07:02.156Z</time></trkpt><trkpt lat="41.160015" lon="0.247125"><ele>310.0</ele><time>2026-03-31T15:07:03.155Z</time></trkpt><trkpt lat="41.16005" lon="0.2472833"><ele>310.25</ele><time>2026-03-31T15:07:04.155Z</time></trkpt><trkpt lat="41.1601117" lon="0.2474433"><ele>310.5</ele><time>2026-03-31T15:07:05.155Z</time></trkpt><trkpt lat="41.1601617" lon="0.2476017"><ele>310.75</ele><time>2026-03-31T15:07:06.156Z</time></trkpt><trkpt lat="41.1601733" lon="0.2477617"><ele>311.0</ele><time>2026-03-31T15:07:07.155Z</time></trkpt><trkpt lat="41.1601367" lon="0.2479133"><ele>311.0</ele><time>2026-03-31T15:07:08.156Z</time></trkpt><trkpt lat="41.1600667" lon="0.248035"><ele>311.0</ele><time>2026-03-31T15:07:09.155Z</time></trkpt><trkpt lat="41.159975" lon="0.2481333"><ele>311.0</ele><time>2026-03-31T15:07:10.155Z</time></trkpt><trkpt lat="41.159865" lon="0.2482317"><ele>311.0</ele><time>2026-03-31T15:07:11.155Z</time></trkpt><trkpt lat="41.15975" lon="0.2483383"><ele>313.0</ele><time>2026-03-31T15:07:12.156Z</time></trkpt><trkpt lat="41.15964" lon="0.2484633"><ele>315.0</ele><time>2026-03-31T15:07:13.156Z</time></trkpt><trkpt lat="41.159545" lon="0.24862"><ele>317.0</ele><time>2026-03-31T15:07:14.155Z</time></trkpt><trkpt lat="41.159465" lon="0.2488083"><ele>316.6666666666667</ele><time>2026-03-31T15:07:15.156Z</time></trkpt><trkpt lat="41.1594" lon="0.2490117"><ele>316.3333333333333</ele><time>2026-03-31T15:07:16.156Z</time></trkpt><trkpt lat="41.1593633" lon="0.2492383"><ele>316.0</ele><time>2026-03-31T15:07:17.156Z</time></trkpt><trkpt lat="41.15933" lon="0.2494817"><ele>316.0</ele><time>2026-03-31T15:07:18.155Z</time></trkpt><trkpt lat="41.1592817" lon="0.2497417"><ele>316.0</ele><time>2026-03-31T15:07:19.155Z</time></trkpt><trkpt lat="41.1592267" lon="0.250015"><ele>316.0</ele><time>2026-03-31T15:07:20.156Z</time></trkpt><trkpt lat="41.159185" lon="0.250275"><ele>315.0</ele><time>2026-03-31T15:07:21.156Z</time></trkpt><trkpt lat="41.1591417" lon="0.25055"><ele>314.0</ele><time>2026-03-31T15:07:22.155Z</time></trkpt><trkpt lat="41.1590933" lon="0.2508333"><ele>313.0</ele><time>2026-03-31T15:07:23.155Z</time></trkpt><trkpt lat="41.159045" lon="0.2511333"><ele>315.0</ele><time>2026-03-31T15:07:24.155Z</time></trkpt><trkpt lat="41.158985" lon="0.2514367"><ele>317.0</ele><time>2026-03-31T15:07:25.155Z</time></trkpt><trkpt lat="41.1589267" lon="0.25173"><ele>317.0</ele><time>2026-03-31T15:07:26.155Z</time></trkpt><trkpt lat="41.1588683" lon="0.2520333"><ele>317.0</ele><time>2026-03-31T15:07:27.155Z</time></trkpt><trkpt lat="41.1588083" lon="0.252335"><ele>317.0</ele><time>2026-03-31T15:07:28.155Z</time></trkpt><trkpt lat="41.1587567" lon="0.2526333"><ele>317.0</ele><time>2026-03-31T15:07:29.156Z</time></trkpt><trkpt lat="41.1587017" lon="0.2529333"><ele>315.5</ele><time>2026-03-31T15:07:30.156Z</time></trkpt><trkpt lat="41.1586433" lon="0.2532233"><ele>314.0</ele><time>2026-03-31T15:07:31.155Z</time></trkpt><trkpt lat="41.1585817" lon="0.25351"><ele>314.0</ele><time>2026-03-31T15:07:32.155Z</time></trkpt><trkpt lat="41.158525" lon="0.2537933"><ele>314.0</ele><time>2026-03-31T15:07:33.155Z</time></trkpt><trkpt lat="41.1584667" lon="0.2540717"><ele>314.0</ele><time>2026-03-31T15:07:34.155Z</time></trkpt><trkpt lat="41.158415" lon="0.2543283"><ele>313.33333333333337</ele><time>2026-03-31T15:07:35.156Z</time></trkpt><trkpt lat="41.1583683" lon="0.2545733"><ele>312.6666666666667</ele><time>2026-03-31T15:07:36.155Z</time></trkpt><trkpt lat="41.1583167" lon="0.254805"><ele>312.0</ele><time>2026-03-31T15:07:37.155Z</time></trkpt><trkpt lat="41.158275" lon="0.255025"><ele>311.3333333333333</ele><time>2026-03-31T15:07:38.155Z</time></trkpt><trkpt lat="41.15824" lon="0.25524"><ele>310.66666666666663</ele><time>2026-03-31T15:07:39.155Z</time></trkpt><trkpt lat="41.1581917" lon="0.2554433"><ele>310.0</ele><time>2026-03-31T15:07:40.155Z</time></trkpt><trkpt lat="41.1581167" lon="0.255615"><ele>308.0</ele><time>2026-03-31T15:07:41.156Z</time></trkpt><trkpt lat="41.1580217" lon="0.25576"><ele>306.0</ele><time>2026-03-31T15:07:42.155Z</time></trkpt><trkpt lat="41.157895" lon="0.2558783"><ele>304.0</ele><time>2026-03-31T15:07:43.155Z</time></trkpt><trkpt lat="41.157765" lon="0.25599"><ele>304.0</ele><time>2026-03-31T15:07:44.155Z</time></trkpt><trkpt lat="41.157615" lon="0.256115"><ele>304.0</ele><time>2026-03-31T15:07:45.156Z</time></trkpt><trkpt lat="41.1574633" lon="0.2562617"><ele>304.0</ele><time>2026-03-31T15:07:46.156Z</time></trkpt><trkpt lat="41.157305" lon="0.256405"><ele>302.3333333333333</ele><time>2026-03-31T15:07:47.156Z</time></trkpt><trkpt lat="41.15715" lon="0.25655"><ele>300.6666666666667</ele><time>2026-03-31T15:07:48.155Z</time></trkpt><trkpt lat="41.1569967" lon="0.2566867"><ele>299.0</ele><time>2026-03-31T15:07:49.156Z</time></trkpt><trkpt lat="41.1568433" lon="0.2568233"><ele>299.0</ele><time>2026-03-31T15:07:50.155Z</time></trkpt><trkpt lat="41.1566917" lon="0.256945"><ele>299.0</ele><time>2026-03-31T15:07:51.155Z</time></trkpt><trkpt lat="41.15655" lon="0.2570567"><ele>299.0</ele><time>2026-03-31T15:07:52.155Z</time></trkpt><trkpt lat="41.15642" lon="0.2571783"><ele>302.25</ele><time>2026-03-31T15:07:53.156Z</time></trkpt><trkpt lat="41.1563233" lon="0.2573133"><ele>305.5</ele><time>2026-03-31T15:07:54.155Z</time></trkpt><trkpt lat="41.1562767" lon="0.2574667"><ele>308.75</ele><time>2026-03-31T15:07:55.155Z</time></trkpt><trkpt lat="41.1562567" lon="0.257645"><ele>312.0</ele><time>2026-03-31T15:07:56.156Z</time></trkpt><trkpt lat="41.1562517" lon="0.2578433"><ele>312.0</ele><time>2026-03-31T15:07:57.156Z</time></trkpt><trkpt lat="41.1562667" lon="0.258055"><ele>312.0</ele><time>2026-03-31T15:07:58.155Z</time></trkpt><trkpt lat="41.1562733" lon="0.2582783"><ele>312.0</ele><time>2026-03-31T15:07:59.155Z</time></trkpt><trkpt lat="41.156275" lon="0.25851"><ele>311.6666666666667</ele><time>2026-03-31T15:08:00.155Z</time></trkpt><trkpt lat="41.15627" lon="0.2587583"><ele>311.33333333333337</ele><time>2026-03-31T15:08:01.155Z</time></trkpt><trkpt lat="41.156275" lon="0.25901"><ele>311.0</ele><time>2026-03-31T15:08:02.156Z</time></trkpt><trkpt lat="41.1562783" lon="0.259265"><ele>311.0</ele><time>2026-03-31T15:08:03.156Z</time></trkpt><trkpt lat="41.1562833" lon="0.2595067"><ele>311.0</ele><time>2026-03-31T15:08:04.155Z</time></trkpt><trkpt lat="41.1562767" lon="0.2597333"><ele>311.0</ele><time>2026-03-31T15:08:05.156Z</time></trkpt><trkpt lat="41.1562717" lon="0.2599383"><ele>311.0</ele><time>2026-03-31T15:08:06.155Z</time></trkpt><trkpt lat="41.15624" lon="0.2601283"><ele>311.0</ele><time>2026-03-31T15:08:07.155Z</time></trkpt><trkpt lat="41.15618" lon="0.2603083"><ele>311.0</ele><time>2026-03-31T15:08:08.155Z</time></trkpt><trkpt lat="41.1560933" lon="0.2604767"><ele>311.0</ele><time>2026-03-31T15:08:09.155Z</time></trkpt><trkpt lat="41.1559983" lon="0.26064"><ele>309.6666666666667</ele><time>2026-03-31T15:08:10.155Z</time></trkpt><trkpt lat="41.1559033" lon="0.260815"><ele>308.3333333333333</ele><time>2026-03-31T15:08:11.156Z</time></trkpt><trkpt lat="41.1558333" lon="0.2610133"><ele>307.0</ele><time>2026-03-31T15:08:12.155Z</time></trkpt><trkpt lat="41.1557917" lon="0.2612183"><ele>307.0</ele><time>2026-03-31T15:08:13.155Z</time></trkpt><trkpt lat="41.1557767" lon="0.2614267"><ele>307.0</ele><time>2026-03-31T15:08:14.155Z</time></trkpt><trkpt lat="41.1557967" lon="0.261625"><ele>307.0</ele><time>2026-03-31T15:08:15.156Z</time></trkpt><trkpt lat="41.1558033" lon="0.2618"><ele>307.0</ele><time>2026-03-31T15:08:16.156Z</time></trkpt><trkpt lat="41.1557717" lon="0.261935"><ele>307.25</ele><time>2026-03-31T15:08:17.155Z</time></trkpt><trkpt lat="41.155705" lon="0.262045"><ele>307.5</ele><time>2026-03-31T15:08:18.156Z</time></trkpt><trkpt lat="41.155605" lon="0.26213"><ele>307.75</ele><time>2026-03-31T15:08:19.155Z</time></trkpt><trkpt lat="41.1554633" lon="0.2622117"><ele>308.0</ele><time>2026-03-31T15:08:20.155Z</time></trkpt><trkpt lat="41.155315" lon="0.2622933"><ele>307.5</ele><time>2026-03-31T15:08:21.155Z</time></trkpt><trkpt lat="41.155175" lon="0.262365"><ele>307.0</ele><time>2026-03-31T15:08:22.155Z</time></trkpt><trkpt lat="41.1550483" lon="0.2624517"><ele>306.5</ele><time>2026-03-31T15:08:23.156Z</time></trkpt><trkpt lat="41.1549417" lon="0.26256"><ele>306.0</ele><time>2026-03-31T15:08:24.155Z</time></trkpt><trkpt lat="41.1548517" lon="0.2627067"><ele>306.0</ele><time>2026-03-31T15:08:25.156Z</time></trkpt><trkpt lat="41.1547867" lon="0.262905"><ele>306.0</ele><time>2026-03-31T15:08:26.155Z</time></trkpt><trkpt lat="41.1547133" lon="0.263125"><ele>306.0</ele><time>2026-03-31T15:08:27.155Z</time></trkpt><trkpt lat="41.1546383" lon="0.2633467"><ele>305.6666666666667</ele><time>2026-03-31T15:08:28.156Z</time></trkpt><trkpt lat="41.1545667" lon="0.26357"><ele>305.33333333333337</ele><time>2026-03-31T15:08:29.155Z</time></trkpt><trkpt lat="41.1544833" lon="0.263785"><ele>305.0</ele><time>2026-03-31T15:08:30.155Z</time></trkpt><trkpt lat="41.1543967" lon="0.2640167"><ele>303.33333333333337</ele><time>2026-03-31T15:08:31.156Z</time></trkpt><trkpt lat="41.154315" lon="0.2642433"><ele>301.6666666666667</ele><time>2026-03-31T15:08:32.156Z</time></trkpt><trkpt lat="41.1542367" lon="0.26447"><ele>300.0</ele><time>2026-03-31T15:08:33.155Z</time></trkpt><trkpt lat="41.15416" lon="0.264685"><ele>298.3333333333333</ele><time>2026-03-31T15:08:34.155Z</time></trkpt><trkpt lat="41.1540917" lon="0.2649017"><ele>296.66666666666663</ele><time>2026-03-31T15:08:35.155Z</time></trkpt><trkpt lat="41.154035" lon="0.265115"><ele>295.0</ele><time>2026-03-31T15:08:36.156Z</time></trkpt><trkpt lat="41.153985" lon="0.2653233"><ele>295.0</ele><time>2026-03-31T15:08:37.156Z</time></trkpt><trkpt lat="41.1539483" lon="0.2655267"><ele>295.0</ele><time>2026-03-31T15:08:38.155Z</time></trkpt><trkpt lat="41.1539217" lon="0.2657167"><ele>295.0</ele><time>2026-03-31T15:08:39.155Z</time></trkpt><trkpt lat="41.153885" lon="0.2659133"><ele>294.0</ele><time>2026-03-31T15:08:40.155Z</time></trkpt><trkpt lat="41.1538217" lon="0.2661117"><ele>293.0</ele><time>2026-03-31T15:08:41.156Z</time></trkpt><trkpt lat="41.153735" lon="0.2662917"><ele>292.0</ele><time>2026-03-31T15:08:42.156Z</time></trkpt><trkpt lat="41.15361" lon="0.2664567"><ele>291.0</ele><time>2026-03-31T15:08:43.155Z</time></trkpt><trkpt lat="41.1534817" lon="0.266625"><ele>290.0</ele><time>2026-03-31T15:08:44.155Z</time></trkpt><trkpt lat="41.1533467" lon="0.2667933"><ele>289.0</ele><time>2026-03-31T15:08:45.156Z</time></trkpt><trkpt lat="41.153215" lon="0.26696"><ele>286.66666666666663</ele><time>2026-03-31T15:08:46.156Z</time></trkpt><trkpt lat="41.153085" lon="0.2671233"><ele>284.3333333333333</ele><time>2026-03-31T15:08:47.155Z</time></trkpt><trkpt lat="41.1529617" lon="0.2672867"><ele>282.0</ele><time>2026-03-31T15:08:48.155Z</time></trkpt><trkpt lat="41.1528583" lon="0.2674317"><ele>280.75</ele><time>2026-03-31T15:08:49.156Z</time></trkpt><trkpt lat="41.1527767" lon="0.2675733"><ele>279.5</ele><time>2026-03-31T15:08:50.156Z</time></trkpt><trkpt lat="41.1527333" lon="0.2677383"><ele>278.25</ele><time>2026-03-31T15:08:51.155Z</time></trkpt><trkpt lat="41.152715" lon="0.2679367"><ele>277.0</ele><time>2026-03-31T15:08:52.155Z</time></trkpt><trkpt lat="41.1527033" lon="0.2681383"><ele>276.5</ele><time>2026-03-31T15:08:53.155Z</time></trkpt><trkpt lat="41.15271" lon="0.268345"><ele>276.0</ele><time>2026-03-31T15:08:54.156Z</time></trkpt><trkpt lat="41.1527017" lon="0.2685367"><ele>275.5</ele><time>2026-03-31T15:08:55.155Z</time></trkpt><trkpt lat="41.152685" lon="0.2687133"><ele>275.0</ele><time>2026-03-31T15:08:56.156Z</time></trkpt><trkpt lat="41.1526567" lon="0.268875"><ele>274.5</ele><time>2026-03-31T15:08:57.155Z</time></trkpt><trkpt lat="41.1525933" lon="0.2690067"><ele>274.0</ele><time>2026-03-31T15:08:58.156Z</time></trkpt><trkpt lat="41.1524983" lon="0.2690883"><ele>273.5</ele><time>2026-03-31T15:08:59.155Z</time></trkpt><trkpt lat="41.1523633" lon="0.2691483"><ele>273.0</ele><time>2026-03-31T15:09:00.155Z</time></trkpt><trkpt lat="41.1522117" lon="0.2692033"><ele>273.0</ele><time>2026-03-31T15:09:01.156Z</time></trkpt><trkpt lat="41.1520633" lon="0.2692533"><ele>273.0</ele><time>2026-03-31T15:09:02.155Z</time></trkpt><trkpt lat="41.15192" lon="0.2693"><ele>273.0</ele><time>2026-03-31T15:09:03.156Z</time></trkpt><trkpt lat="41.1517867" lon="0.2693617"><ele>273.0</ele><time>2026-03-31T15:09:04.156Z</time></trkpt><trkpt lat="41.1516867" lon="0.2694667"><ele>273.0</ele><time>2026-03-31T15:09:05.156Z</time></trkpt><trkpt lat="41.1516183" lon="0.2696083"><ele>273.0</ele><time>2026-03-31T15:09:06.155Z</time></trkpt><trkpt lat="41.151575" lon="0.2697833"><ele>273.0</ele><time>2026-03-31T15:09:07.155Z</time></trkpt><trkpt lat="41.1515467" lon="0.269965"><ele>273.0</ele><time>2026-03-31T15:09:08.156Z</time></trkpt><trkpt lat="41.1515217" lon="0.2701383"><ele>274.5</ele><time>2026-03-31T15:09:09.155Z</time></trkpt><trkpt lat="41.1514817" lon="0.2702883"><ele>276.0</ele><time>2026-03-31T15:09:10.155Z</time></trkpt><trkpt lat="41.1514183" lon="0.27042"><ele>277.5</ele><time>2026-03-31T15:09:11.155Z</time></trkpt><trkpt lat="41.1513283" lon="0.2705133"><ele>279.0</ele><time>2026-03-31T15:09:12.155Z</time></trkpt><trkpt lat="41.15121" lon="0.2705983"><ele>275.6666666666667</ele><time>2026-03-31T15:09:13.155Z</time></trkpt><trkpt lat="41.1510633" lon="0.2706667"><ele>272.33333333333337</ele><time>2026-03-31T15:09:14.155Z</time></trkpt><trkpt lat="41.1509217" lon="0.27076"><ele>269.0</ele><time>2026-03-31T15:09:15.155Z</time></trkpt><trkpt lat="41.15077" lon="0.2708483"><ele>272.33333333333337</ele><time>2026-03-31T15:09:16.156Z</time></trkpt><trkpt lat="41.1506183" lon="0.2709417"><ele>275.6666666666667</ele><time>2026-03-31T15:09:17.155Z</time></trkpt><trkpt lat="41.1504717" lon="0.2710333"><ele>279.0</ele><time>2026-03-31T15:09:18.155Z</time></trkpt><trkpt lat="41.150315" lon="0.2711383"><ele>279.0</ele><time>2026-03-31T15:09:19.155Z</time></trkpt><trkpt lat="41.1501567" lon="0.2712283"><ele>279.0</ele><time>2026-03-31T15:09:20.155Z</time></trkpt><trkpt lat="41.1499833" lon="0.27133"><ele>279.0</ele><time>2026-03-31T15:09:21.155Z</time></trkpt><trkpt lat="41.1498167" lon="0.271445"><ele>279.0</ele><time>2026-03-31T15:09:22.156Z</time></trkpt><trkpt lat="41.149655" lon="0.2715817"><ele>279.0</ele><time>2026-03-31T15:09:23.155Z</time></trkpt><trkpt lat="41.1494967" lon="0.2717383"><ele>279.0</ele><time>2026-03-31T15:09:24.155Z</time></trkpt><trkpt lat="41.14934" lon="0.2718867"><ele>279.0</ele><time>2026-03-31T15:09:25.155Z</time></trkpt><trkpt lat="41.1491817" lon="0.27204"><ele>279.0</ele><time>2026-03-31T15:09:26.156Z</time></trkpt><trkpt lat="41.149025" lon="0.272195"><ele>279.0</ele><time>2026-03-31T15:09:27.155Z</time></trkpt><trkpt lat="41.1488733" lon="0.272335"><ele>279.0</ele><time>2026-03-31T15:09:28.155Z</time></trkpt><trkpt lat="41.1487217" lon="0.27247"><ele>279.0</ele><time>2026-03-31T15:09:29.155Z</time></trkpt><trkpt lat="41.1485817" lon="0.2725933"><ele>279.0</ele><time>2026-03-31T15:09:30.155Z</time></trkpt><trkpt lat="41.1484433" lon="0.2727283"><ele>279.0</ele><time>2026-03-31T15:09:31.156Z</time></trkpt><trkpt lat="41.148315" lon="0.2728917"><ele>279.0</ele><time>2026-03-31T15:09:32.155Z</time></trkpt><trkpt lat="41.1482033" lon="0.2730717"><ele>279.0</ele><time>2026-03-31T15:09:33.155Z</time></trkpt><trkpt lat="41.1480967" lon="0.2732667"><ele>277.6666666666667</ele><time>2026-03-31T15:09:34.155Z</time></trkpt><trkpt lat="41.1479817" lon="0.2734567"><ele>276.33333333333337</ele><time>2026-03-31T15:09:35.156Z</time></trkpt><trkpt lat="41.1478717" lon="0.2736583"><ele>275.0</ele><time>2026-03-31T15:09:36.155Z</time></trkpt><trkpt lat="41.1477567" lon="0.2738617"><ele>273.0</ele><time>2026-03-31T15:09:37.155Z</time></trkpt><trkpt lat="41.147635" lon="0.27407"><ele>271.0</ele><time>2026-03-31T15:09:38.156Z</time></trkpt><trkpt lat="41.14751" lon="0.2742783"><ele>269.0</ele><time>2026-03-31T15:09:39.156Z</time></trkpt><trkpt lat="41.1473967" lon="0.274475"><ele>268.6666666666667</ele><time>2026-03-31T15:09:40.155Z</time></trkpt><trkpt lat="41.147285" lon="0.2746683"><ele>268.3333333333333</ele><time>2026-03-31T15:09:41.155Z</time></trkpt><trkpt lat="41.1471833" lon="0.2748517"><ele>268.0</ele><time>2026-03-31T15:09:42.155Z</time></trkpt><trkpt lat="41.1470817" lon="0.2750317"><ele>268.0</ele><time>2026-03-31T15:09:43.156Z</time></trkpt><trkpt lat="41.1469933" lon="0.2751917"><ele>268.0</ele><time>2026-03-31T15:09:44.155Z</time></trkpt><trkpt lat="41.1468767" lon="0.27532"><ele>268.0</ele><time>2026-03-31T15:09:45.156Z</time></trkpt><trkpt lat="41.1467283" lon="0.27541"><ele>268.0</ele><time>2026-03-31T15:09:46.156Z</time></trkpt><trkpt lat="41.1465683" lon="0.2754717"><ele>268.0</ele><time>2026-03-31T15:09:47.156Z</time></trkpt><trkpt lat="41.1463983" lon="0.275525"><ele>268.0</ele><time>2026-03-31T15:09:48.155Z</time></trkpt><trkpt lat="41.146225" lon="0.2755783"><ele>267.0</ele><time>2026-03-31T15:09:49.155Z</time></trkpt><trkpt lat="41.1460633" lon="0.2756267"><ele>266.0</ele><time>2026-03-31T15:09:50.155Z</time></trkpt><trkpt lat="41.1459117" lon="0.27565"><ele>265.0</ele><time>2026-03-31T15:09:51.156Z</time></trkpt><trkpt lat="41.1457733" lon="0.2756283"><ele>266.5</ele><time>2026-03-31T15:09:52.155Z</time></trkpt><trkpt lat="41.1456333" lon="0.2755483"><ele>268.0</ele><time>2026-03-31T15:09:53.155Z</time></trkpt><trkpt lat="41.1455067" lon="0.2754583"><ele>269.5</ele><time>2026-03-31T15:09:54.155Z</time></trkpt><trkpt lat="41.1453783" lon="0.2753717"><ele>271.0</ele><time>2026-03-31T15:09:55.155Z</time></trkpt><trkpt lat="41.145255" lon="0.2753083"><ele>271.0</ele><time>2026-03-31T15:09:56.155Z</time></trkpt><trkpt lat="41.1451283" lon="0.2752567"><ele>271.0</ele><time>2026-03-31T15:09:57.155Z</time></trkpt><trkpt lat="41.14499" lon="0.2752267"><ele>271.0</ele><time>2026-03-31T15:09:58.156Z</time></trkpt><trkpt lat="41.144845" lon="0.2752233"><ele>271.0</ele><time>2026-03-31T15:09:59.156Z</time></trkpt><trkpt lat="41.144695" lon="0.2752217"><ele>271.66666666666663</ele><time>2026-03-31T15:10:00.156Z</time></trkpt><trkpt lat="41.14454" lon="0.2752133"><ele>272.3333333333333</ele><time>2026-03-31T15:10:01.156Z</time></trkpt><trkpt lat="41.144375" lon="0.27521"><ele>273.0</ele><time>2026-03-31T15:10:02.155Z</time></trkpt><trkpt lat="41.1442133" lon="0.2751933"><ele>273.0</ele><time>2026-03-31T15:10:03.155Z</time></trkpt><trkpt lat="41.1440483" lon="0.275185"><ele>273.0</ele><time>2026-03-31T15:10:04.155Z</time></trkpt><trkpt lat="41.1438767" lon="0.2751683"><ele>273.0</ele><time>2026-03-31T15:10:05.156Z</time></trkpt><trkpt lat="41.143705" lon="0.2751417"><ele>273.3333333333333</ele><time>2026-03-31T15:10:06.156Z</time></trkpt><trkpt lat="41.1435133" lon="0.2751133"><ele>273.66666666666663</ele><time>2026-03-31T15:10:07.156Z</time></trkpt><trkpt lat="41.1433233" lon="0.2750783"><ele>274.0</ele><time>2026-03-31T15:10:08.156Z</time></trkpt><trkpt lat="41.14313" lon="0.2750433"><ele>275.66666666666663</ele><time>2026-03-31T15:10:09.155Z</time></trkpt><trkpt lat="41.142935" lon="0.2750183"><ele>277.3333333333333</ele><time>2026-03-31T15:10:10.156Z</time></trkpt><trkpt lat="41.142745" lon="0.2750183"><ele>279.0</ele><time>2026-03-31T15:10:11.156Z</time></trkpt><trkpt lat="41.142555" lon="0.2750417"><ele>282.3333333333333</ele><time>2026-03-31T15:10:12.155Z</time></trkpt><trkpt lat="41.1423617" lon="0.2751067"><ele>285.66666666666663</ele><time>2026-03-31T15:10:13.155Z</time></trkpt><trkpt lat="41.1421817" lon="0.2751733"><ele>289.0</ele><time>2026-03-31T15:10:14.156Z</time></trkpt><trkpt lat="41.141995" lon="0.27525"><ele>289.0</ele><time>2026-03-31T15:10:15.155Z</time></trkpt><trkpt lat="41.1418233" lon="0.2753367"><ele>289.0</ele><time>2026-03-31T15:10:16.156Z</time></trkpt><trkpt lat="41.14165" lon="0.2754467"><ele>289.0</ele><time>2026-03-31T15:10:17.156Z</time></trkpt><trkpt lat="41.1414883" lon="0.2755733"><ele>287.66666666666663</ele><time>2026-03-31T15:10:18.155Z</time></trkpt><trkpt lat="41.1413283" lon="0.275685"><ele>286.3333333333333</ele><time>2026-03-31T15:10:19.155Z</time></trkpt><trkpt lat="41.141165" lon="0.2758267"><ele>285.0</ele><time>2026-03-31T15:10:20.156Z</time></trkpt><trkpt lat="41.1410083" lon="0.2759883"><ele>285.0</ele><time>2026-03-31T15:10:21.155Z</time></trkpt><trkpt lat="41.140855" lon="0.2761683"><ele>285.0</ele><time>2026-03-31T15:10:22.156Z</time></trkpt><trkpt lat="41.1407067" lon="0.276335"><ele>285.0</ele><time>2026-03-31T15:10:23.156Z</time></trkpt><trkpt lat="41.140565" lon="0.2765167"><ele>285.0</ele><time>2026-03-31T15:10:24.156Z</time></trkpt><trkpt lat="41.1404433" lon="0.27672"><ele>285.0</ele><time>2026-03-31T15:10:25.155Z</time></trkpt><trkpt lat="41.1403317" lon="0.27693"><ele>285.0</ele><time>2026-03-31T15:10:26.156Z</time></trkpt><trkpt lat="41.1402183" lon="0.27714"><ele>283.6666666666667</ele><time>2026-03-31T15:10:27.156Z</time></trkpt><trkpt lat="41.1400933" lon="0.2773517"><ele>282.33333333333337</ele><time>2026-03-31T15:10:28.156Z</time></trkpt><trkpt lat="41.1399717" lon="0.2775633"><ele>281.0</ele><time>2026-03-31T15:10:29.155Z</time></trkpt><trkpt lat="41.1398433" lon="0.2777633"><ele>281.0</ele><time>2026-03-31T15:10:30.156Z</time></trkpt><trkpt lat="41.1396967" lon="0.2779367"><ele>281.0</ele><time>2026-03-31T15:10:31.156Z</time></trkpt><trkpt lat="41.13955" lon="0.2781"><ele>281.0</ele><time>2026-03-31T15:10:32.156Z</time></trkpt><trkpt lat="41.1393883" lon="0.278275"><ele>279.33333333333337</ele><time>2026-03-31T15:10:33.155Z</time></trkpt><trkpt lat="41.1392217" lon="0.278455"><ele>277.6666666666667</ele><time>2026-03-31T15:10:34.156Z</time></trkpt><trkpt lat="41.1390633" lon="0.2786367"><ele>276.0</ele><time>2026-03-31T15:10:35.155Z</time></trkpt><trkpt lat="41.1389017" lon="0.2788267"><ele>276.6666666666667</ele><time>2026-03-31T15:10:36.156Z</time></trkpt><trkpt lat="41.1387317" lon="0.27901"><ele>277.33333333333337</ele><time>2026-03-31T15:10:37.156Z</time></trkpt><trkpt lat="41.13856" lon="0.279185"><ele>278.0</ele><time>2026-03-31T15:10:38.155Z</time></trkpt><trkpt lat="41.138385" lon="0.2793583"><ele>280.33333333333337</ele><time>2026-03-31T15:10:39.155Z</time></trkpt><trkpt lat="41.1382067" lon="0.27953"><ele>282.6666666666667</ele><time>2026-03-31T15:10:40.155Z</time></trkpt><trkpt lat="41.1380283" lon="0.2797"><ele>285.0</ele><time>2026-03-31T15:10:41.156Z</time></trkpt><trkpt lat="41.1378467" lon="0.2798717"><ele>285.0</ele><time>2026-03-31T15:10:42.156Z</time></trkpt><trkpt lat="41.1376683" lon="0.2800333"><ele>285.0</ele><time>2026-03-31T15:10:43.156Z</time></trkpt><trkpt lat="41.1374883" lon="0.280185"><ele>285.0</ele><time>2026-03-31T15:10:44.155Z</time></trkpt><trkpt lat="41.1373217" lon="0.280335"><ele>284.0</ele><time>2026-03-31T15:10:45.156Z</time></trkpt><trkpt lat="41.1371617" lon="0.2805033"><ele>283.0</ele><time>2026-03-31T15:10:46.155Z</time></trkpt><trkpt lat="41.137005" lon="0.2806967"><ele>282.0</ele><time>2026-03-31T15:10:47.155Z</time></trkpt><trkpt lat="41.1368633" lon="0.2809"><ele>282.0</ele><time>2026-03-31T15:10:48.156Z</time></trkpt><trkpt lat="41.1367367" lon="0.28111"><ele>282.0</ele><time>2026-03-31T15:10:49.155Z</time></trkpt><trkpt lat="41.1366133" lon="0.2813017"><ele>282.0</ele><time>2026-03-31T15:10:50.155Z</time></trkpt><trkpt lat="41.1364733" lon="0.281455"><ele>281.0</ele><time>2026-03-31T15:10:51.156Z</time></trkpt><trkpt lat="41.136335" lon="0.2815633"><ele>280.0</ele><time>2026-03-31T15:10:52.156Z</time></trkpt><trkpt lat="41.13622" lon="0.28164"><ele>279.0</ele><time>2026-03-31T15:10:53.155Z</time></trkpt><trkpt lat="41.1360983" lon="0.28168"><ele>278.0</ele><time>2026-03-31T15:10:54.155Z</time></trkpt><trkpt lat="41.1359783" lon="0.28166"><ele>278.0</ele><time>2026-03-31T15:10:55.156Z</time></trkpt><trkpt lat="41.1358617" lon="0.2815783"><ele>278.0</ele><time>2026-03-31T15:10:56.154Z</time></trkpt><trkpt lat="41.1357467" lon="0.2814633"><ele>278.0</ele><time>2026-03-31T15:10:57.154Z</time></trkpt><trkpt lat="41.1356167" lon="0.2813483"><ele>278.0</ele><time>2026-03-31T15:10:58.154Z</time></trkpt><trkpt lat="41.135485" lon="0.281255"><ele>279.33333333333337</ele><time>2026-03-31T15:10:59.154Z</time></trkpt><trkpt lat="41.1353383" lon="0.281205"><ele>280.6666666666667</ele><time>2026-03-31T15:11:00.154Z</time></trkpt><trkpt lat="41.135185" lon="0.2811917"><ele>282.0</ele><time>2026-03-31T15:11:01.155Z</time></trkpt><trkpt lat="41.1350217" lon="0.2812"><ele>282.6666666666667</ele><time>2026-03-31T15:11:02.154Z</time></trkpt><trkpt lat="41.1348733" lon="0.281265"><ele>283.33333333333337</ele><time>2026-03-31T15:11:03.154Z</time></trkpt><trkpt lat="41.134725" lon="0.2813683"><ele>284.0</ele><time>2026-03-31T15:11:04.154Z</time></trkpt><trkpt lat="41.134585" lon="0.2815083"><ele>284.0</ele><time>2026-03-31T15:11:05.155Z</time></trkpt><trkpt lat="41.1344617" lon="0.2816533"><ele>284.0</ele><time>2026-03-31T15:11:06.154Z</time></trkpt><trkpt lat="41.134335" lon="0.2818017"><ele>284.0</ele><time>2026-03-31T15:11:07.155Z</time></trkpt><trkpt lat="41.134195" lon="0.281925"><ele>282.6666666666667</ele><time>2026-03-31T15:11:08.155Z</time></trkpt><trkpt lat="41.13405" lon="0.2820117"><ele>281.3333333333333</ele><time>2026-03-31T15:11:09.155Z</time></trkpt><trkpt lat="41.133895" lon="0.282065"><ele>280.0</ele><time>2026-03-31T15:11:10.154Z</time></trkpt><trkpt lat="41.1337383" lon="0.282095"><ele>280.0</ele><time>2026-03-31T15:11:11.155Z</time></trkpt><trkpt lat="41.1335667" lon="0.28211"><ele>280.0</ele><time>2026-03-31T15:11:12.155Z</time></trkpt><trkpt lat="41.1333867" lon="0.2821167"><ele>280.0</ele><time>2026-03-31T15:11:13.155Z</time></trkpt><trkpt lat="41.13321" lon="0.2821317"><ele>279.0</ele><time>2026-03-31T15:11:14.154Z</time></trkpt><trkpt lat="41.13304" lon="0.2821483"><ele>278.0</ele><time>2026-03-31T15:11:15.154Z</time></trkpt><trkpt lat="41.1328733" lon="0.282175"><ele>277.0</ele><time>2026-03-31T15:11:16.154Z</time></trkpt><trkpt lat="41.1327183" lon="0.2822517"><ele>276.3333333333333</ele><time>2026-03-31T15:11:17.155Z</time></trkpt><trkpt lat="41.13257" lon="0.282365"><ele>275.6666666666667</ele><time>2026-03-31T15:11:18.155Z</time></trkpt><trkpt lat="41.13243" lon="0.282515"><ele>275.0</ele><time>2026-03-31T15:11:19.154Z</time></trkpt><trkpt lat="41.1322717" lon="0.2826533"><ele>278.33333333333337</ele><time>2026-03-31T15:11:20.155Z</time></trkpt><trkpt lat="41.1321033" lon="0.2827567"><ele>281.6666666666667</ele><time>2026-03-31T15:11:21.154Z</time></trkpt><trkpt lat="41.1319267" lon="0.2828317"><ele>285.0</ele><time>2026-03-31T15:11:22.155Z</time></trkpt><trkpt lat="41.1317333" lon="0.2829083"><ele>286.0</ele><time>2026-03-31T15:11:23.155Z</time></trkpt><trkpt lat="41.1315383" lon="0.282985"><ele>287.0</ele><time>2026-03-31T15:11:24.154Z</time></trkpt><trkpt lat="41.1313567" lon="0.28306"><ele>288.0</ele><time>2026-03-31T15:11:25.155Z</time></trkpt><trkpt lat="41.1311833" lon="0.28313"><ele>288.0</ele><time>2026-03-31T15:11:26.155Z</time></trkpt><trkpt lat="41.13102" lon="0.2831683"><ele>288.0</ele><time>2026-03-31T15:11:27.155Z</time></trkpt><trkpt lat="41.13087" lon="0.283185"><ele>288.0</ele><time>2026-03-31T15:11:28.155Z</time></trkpt><trkpt lat="41.1307267" lon="0.2832033"><ele>292.0</ele><time>2026-03-31T15:11:29.155Z</time></trkpt><trkpt lat="41.1305817" lon="0.2832583"><ele>296.0</ele><time>2026-03-31T15:11:30.154Z</time></trkpt><trkpt lat="41.1304583" lon="0.283355"><ele>300.0</ele><time>2026-03-31T15:11:31.154Z</time></trkpt><trkpt lat="41.1303467" lon="0.28349"><ele>304.0</ele><time>2026-03-31T15:11:32.154Z</time></trkpt><trkpt lat="41.13025" lon="0.2836333"><ele>304.0</ele><time>2026-03-31T15:11:33.155Z</time></trkpt><trkpt lat="41.1301433" lon="0.2837733"><ele>304.0</ele><time>2026-03-31T15:11:34.154Z</time></trkpt><trkpt lat="41.1300417" lon="0.2838983"><ele>304.0</ele><time>2026-03-31T15:11:35.155Z</time></trkpt><trkpt lat="41.1299467" lon="0.284005"><ele>304.0</ele><time>2026-03-31T15:11:36.155Z</time></trkpt><trkpt lat="41.1298467" lon="0.284095"><ele>302.5</ele><time>2026-03-31T15:11:37.154Z</time></trkpt><trkpt lat="41.1297233" lon="0.2841583"><ele>301.0</ele><time>2026-03-31T15:11:38.154Z</time></trkpt><trkpt lat="41.1295917" lon="0.2841967"><ele>299.5</ele><time>2026-03-31T15:11:39.155Z</time></trkpt><trkpt lat="41.1294467" lon="0.28421"><ele>298.0</ele><time>2026-03-31T15:11:40.155Z</time></trkpt><trkpt lat="41.1292967" lon="0.2842"><ele>298.0</ele><time>2026-03-31T15:11:41.154Z</time></trkpt><trkpt lat="41.1291533" lon="0.2842067"><ele>298.0</ele><time>2026-03-31T15:11:42.154Z</time></trkpt><trkpt lat="41.1290083" lon="0.284245"><ele>298.0</ele><time>2026-03-31T15:11:43.155Z</time></trkpt><trkpt lat="41.1288683" lon="0.284305"><ele>298.0</ele><time>2026-03-31T15:11:44.154Z</time></trkpt><trkpt lat="41.128735" lon="0.28441"><ele>297.0</ele><time>2026-03-31T15:11:45.155Z</time></trkpt><trkpt lat="41.128605" lon="0.2845367"><ele>296.0</ele><time>2026-03-31T15:11:46.155Z</time></trkpt><trkpt lat="41.12849" lon="0.2846617"><ele>295.0</ele><time>2026-03-31T15:11:47.154Z</time></trkpt><trkpt lat="41.1283683" lon="0.284795"><ele>295.0</ele><time>2026-03-31T15:11:48.154Z</time></trkpt><trkpt lat="41.1282433" lon="0.2849317"><ele>295.0</ele><time>2026-03-31T15:11:49.154Z</time></trkpt><trkpt lat="41.1281133" lon="0.2850783"><ele>295.0</ele><time>2026-03-31T15:11:50.154Z</time></trkpt><trkpt lat="41.12798" lon="0.2852367"><ele>294.66666666666663</ele><time>2026-03-31T15:11:51.155Z</time></trkpt><trkpt lat="41.1278483" lon="0.2853967"><ele>294.3333333333333</ele><time>2026-03-31T15:11:52.155Z</time></trkpt><trkpt lat="41.12771" lon="0.285555"><ele>294.0</ele><time>2026-03-31T15:11:53.155Z</time></trkpt><trkpt lat="41.127565" lon="0.2857133"><ele>294.0</ele><time>2026-03-31T15:11:54.154Z</time></trkpt><trkpt lat="41.1274183" lon="0.2858733"><ele>294.0</ele><time>2026-03-31T15:11:55.154Z</time></trkpt><trkpt lat="41.1272783" lon="0.2860333"><ele>294.0</ele><time>2026-03-31T15:11:56.154Z</time></trkpt><trkpt lat="41.12715" lon="0.286205"><ele>295.3333333333333</ele><time>2026-03-31T15:11:57.155Z</time></trkpt><trkpt lat="41.12705" lon="0.286405"><ele>296.66666666666663</ele><time>2026-03-31T15:11:58.154Z</time></trkpt><trkpt lat="41.1269567" lon="0.286615"><ele>298.0</ele><time>2026-03-31T15:11:59.154Z</time></trkpt><trkpt lat="41.12687" lon="0.286825"><ele>298.0</ele><time>2026-03-31T15:12:00.154Z</time></trkpt><trkpt lat="41.12678" lon="0.2870217"><ele>298.0</ele><time>2026-03-31T15:12:01.155Z</time></trkpt><trkpt lat="41.12667" lon="0.2871967"><ele>298.0</ele><time>2026-03-31T15:12:02.155Z</time></trkpt><trkpt lat="41.1265417" lon="0.28735"><ele>298.0</ele><time>2026-03-31T15:12:03.155Z</time></trkpt><trkpt lat="41.126405" lon="0.287475"><ele>298.0</ele><time>2026-03-31T15:12:04.154Z</time></trkpt><trkpt lat="41.1262667" lon="0.2876183"><ele>298.0</ele><time>2026-03-31T15:12:05.154Z</time></trkpt><trkpt lat="41.1261217" lon="0.28773"><ele>298.0</ele><time>2026-03-31T15:12:06.155Z</time></trkpt><trkpt lat="41.1259717" lon="0.2878033"><ele>298.0</ele><time>2026-03-31T15:12:07.154Z</time></trkpt><trkpt lat="41.125805" lon="0.2878567"><ele>298.0</ele><time>2026-03-31T15:12:08.154Z</time></trkpt><trkpt lat="41.1256383" lon="0.2878933"><ele>304.0</ele><time>2026-03-31T15:12:09.155Z</time></trkpt><trkpt lat="41.1254667" lon="0.2879433"><ele>310.0</ele><time>2026-03-31T15:12:10.154Z</time></trkpt><trkpt lat="41.1252917" lon="0.2880033"><ele>316.0</ele><time>2026-03-31T15:12:11.154Z</time></trkpt><trkpt lat="41.1251167" lon="0.2880733"><ele>312.0</ele><time>2026-03-31T15:12:12.155Z</time></trkpt><trkpt lat="41.1249383" lon="0.2881333"><ele>308.0</ele><time>2026-03-31T15:12:13.155Z</time></trkpt><trkpt lat="41.1247617" lon="0.288195"><ele>304.0</ele><time>2026-03-31T15:12:14.155Z</time></trkpt><trkpt lat="41.1245833" lon="0.2882583"><ele>304.0</ele><time>2026-03-31T15:12:15.155Z</time></trkpt><trkpt lat="41.124425" lon="0.28833"><ele>304.0</ele><time>2026-03-31T15:12:16.154Z</time></trkpt><trkpt lat="41.1242633" lon="0.288425"><ele>304.0</ele><time>2026-03-31T15:12:17.155Z</time></trkpt><trkpt lat="41.1241067" lon="0.2885333"><ele>306.0</ele><time>2026-03-31T15:12:18.154Z</time></trkpt><trkpt lat="41.1239533" lon="0.28863"><ele>308.0</ele><time>2026-03-31T15:12:19.155Z</time></trkpt><trkpt lat="41.123805" lon="0.2887283"><ele>310.0</ele><time>2026-03-31T15:12:20.154Z</time></trkpt><trkpt lat="41.1236683" lon="0.2888233"><ele>310.0</ele><time>2026-03-31T15:12:21.154Z</time></trkpt><trkpt lat="41.1235383" lon="0.2889167"><ele>310.0</ele><time>2026-03-31T15:12:22.155Z</time></trkpt><trkpt lat="41.1234217" lon="0.2890317"><ele>310.0</ele><time>2026-03-31T15:12:23.154Z</time></trkpt><trkpt lat="41.1233217" lon="0.28919"><ele>310.0</ele><time>2026-03-31T15:12:24.155Z</time></trkpt><trkpt lat="41.1232317" lon="0.289375"><ele>310.0</ele><time>2026-03-31T15:12:25.155Z</time></trkpt><trkpt lat="41.1231483" lon="0.2895717"><ele>310.0</ele><time>2026-03-31T15:12:26.154Z</time></trkpt><trkpt lat="41.1230633" lon="0.2897767"><ele>310.0</ele><time>2026-03-31T15:12:27.154Z</time></trkpt><trkpt lat="41.1229783" lon="0.2899817"><ele>307.66666666666663</ele><time>2026-03-31T15:12:28.155Z</time></trkpt><trkpt lat="41.1228883" lon="0.2901833"><ele>305.3333333333333</ele><time>2026-03-31T15:12:29.155Z</time></trkpt><trkpt lat="41.1227967" lon="0.2903883"><ele>303.0</ele><time>2026-03-31T15:12:30.154Z</time></trkpt><trkpt lat="41.1227" lon="0.2905983"><ele>299.6666666666667</ele><time>2026-03-31T15:12:31.154Z</time></trkpt><trkpt lat="41.1226033" lon="0.2908017"><ele>296.33333333333337</ele><time>2026-03-31T15:12:32.155Z</time></trkpt><trkpt lat="41.1225183" lon="0.2909983"><ele>293.0</ele><time>2026-03-31T15:12:33.155Z</time></trkpt><trkpt lat="41.1224433" lon="0.2911817"><ele>293.25</ele><time>2026-03-31T15:12:34.154Z</time></trkpt><trkpt lat="41.12236" lon="0.2913433"><ele>293.5</ele><time>2026-03-31T15:12:35.155Z</time></trkpt><trkpt lat="41.1222717" lon="0.2914733"><ele>293.75</ele><time>2026-03-31T15:12:36.155Z</time></trkpt><trkpt lat="41.1221667" lon="0.291555"><ele>294.0</ele><time>2026-03-31T15:12:37.155Z</time></trkpt><trkpt lat="41.1220217" lon="0.2916017"><ele>294.0</ele><time>2026-03-31T15:12:38.155Z</time></trkpt><trkpt lat="41.1218767" lon="0.29166"><ele>294.0</ele><time>2026-03-31T15:12:39.154Z</time></trkpt><trkpt lat="41.1217283" lon="0.29173"><ele>294.0</ele><time>2026-03-31T15:12:40.155Z</time></trkpt><trkpt lat="41.1215717" lon="0.2918167"><ele>297.3333333333333</ele><time>2026-03-31T15:12:41.155Z</time></trkpt><trkpt lat="41.12142" lon="0.2919283"><ele>300.66666666666663</ele><time>2026-03-31T15:12:42.154Z</time></trkpt><trkpt lat="41.1212683" lon="0.292035"><ele>304.0</ele><time>2026-03-31T15:12:43.155Z</time></trkpt><trkpt lat="41.1211117" lon="0.2921367"><ele>304.0</ele><time>2026-03-31T15:12:44.155Z</time></trkpt><trkpt lat="41.1209517" lon="0.2922617"><ele>304.0</ele><time>2026-03-31T15:12:45.154Z</time></trkpt><trkpt lat="41.1207817" lon="0.29239"><ele>304.0</ele><time>2026-03-31T15:12:46.154Z</time></trkpt><trkpt lat="41.1206133" lon="0.292515"><ele>304.0</ele><time>2026-03-31T15:12:47.154Z</time></trkpt><trkpt lat="41.1204383" lon="0.2926383"><ele>304.0</ele><time>2026-03-31T15:12:48.154Z</time></trkpt><trkpt lat="41.1202633" lon="0.2927733"><ele>304.0</ele><time>2026-03-31T15:12:49.154Z</time></trkpt><trkpt lat="41.12009" lon="0.2929083"><ele>304.0</ele><time>2026-03-31T15:12:50.155Z</time></trkpt><trkpt lat="41.1199283" lon="0.2930533"><ele>304.0</ele><time>2026-03-31T15:12:51.154Z</time></trkpt><trkpt lat="41.1197583" lon="0.2932067"><ele>304.0</ele><time>2026-03-31T15:12:52.154Z</time></trkpt><trkpt lat="41.119605" lon="0.2933633"><ele>303.0</ele><time>2026-03-31T15:12:53.154Z</time></trkpt><trkpt lat="41.1194533" lon="0.2935133"><ele>302.0</ele><time>2026-03-31T15:12:54.154Z</time></trkpt><trkpt lat="41.1192933" lon="0.2936583"><ele>301.0</ele><time>2026-03-31T15:12:55.154Z</time></trkpt><trkpt lat="41.1191317" lon="0.293785"><ele>301.3333333333333</ele><time>2026-03-31T15:12:56.155Z</time></trkpt><trkpt lat="41.118945" lon="0.2938633"><ele>301.6666666666667</ele><time>2026-03-31T15:12:57.155Z</time></trkpt><trkpt lat="41.118755" lon="0.293945"><ele>302.0</ele><time>2026-03-31T15:12:58.154Z</time></trkpt><trkpt lat="41.1185633" lon="0.2940167"><ele>300.6666666666667</ele><time>2026-03-31T15:12:59.155Z</time></trkpt><trkpt lat="41.1183767" lon="0.2941083"><ele>299.3333333333333</ele><time>2026-03-31T15:13:00.154Z</time></trkpt><trkpt lat="41.1181883" lon="0.2942167"><ele>298.0</ele><time>2026-03-31T15:13:01.155Z</time></trkpt><trkpt lat="41.118" lon="0.2943367"><ele>301.3333333333333</ele><time>2026-03-31T15:13:02.154Z</time></trkpt><trkpt lat="41.1178133" lon="0.2944683"><ele>304.6666666666667</ele><time>2026-03-31T15:13:03.155Z</time></trkpt><trkpt lat="41.1176233" lon="0.2946017"><ele>308.0</ele><time>2026-03-31T15:13:04.155Z</time></trkpt><trkpt lat="41.1174433" lon="0.29473"><ele>308.33333333333337</ele><time>2026-03-31T15:13:05.155Z</time></trkpt><trkpt lat="41.1172617" lon="0.29485"><ele>308.6666666666667</ele><time>2026-03-31T15:13:06.154Z</time></trkpt><trkpt lat="41.11709" lon="0.294965"><ele>309.0</ele><time>2026-03-31T15:13:07.154Z</time></trkpt><trkpt lat="41.11693" lon="0.2950667"><ele>309.0</ele><time>2026-03-31T15:13:08.154Z</time></trkpt><trkpt lat="41.1167683" lon="0.295135"><ele>309.0</ele><time>2026-03-31T15:13:09.155Z</time></trkpt><trkpt lat="41.116605" lon="0.29519"><ele>309.0</ele><time>2026-03-31T15:13:10.154Z</time></trkpt><trkpt lat="41.1164317" lon="0.2952317"><ele>309.6666666666667</ele><time>2026-03-31T15:13:11.154Z</time></trkpt><trkpt lat="41.11625" lon="0.2952733"><ele>310.33333333333337</ele><time>2026-03-31T15:13:12.155Z</time></trkpt><trkpt lat="41.1160683" lon="0.2953033"><ele>311.0</ele><time>2026-03-31T15:13:13.155Z</time></trkpt><trkpt lat="41.1158817" lon="0.295315"><ele>311.0</ele><time>2026-03-31T15:13:14.155Z</time></trkpt><trkpt lat="41.1156967" lon="0.2953183"><ele>311.0</ele><time>2026-03-31T15:13:15.155Z</time></trkpt><trkpt lat="41.1154967" lon="0.2953233"><ele>311.0</ele><time>2026-03-31T15:13:16.154Z</time></trkpt><trkpt lat="41.1153067" lon="0.2953217"><ele>311.0</ele><time>2026-03-31T15:13:17.154Z</time></trkpt><trkpt lat="41.1151183" lon="0.2953183"><ele>311.0</ele><time>2026-03-31T15:13:18.154Z</time></trkpt><trkpt lat="41.1149433" lon="0.2953117"><ele>311.0</ele><time>2026-03-31T15:13:19.155Z</time></trkpt><trkpt lat="41.1147717" lon="0.2953033"><ele>311.0</ele><time>2026-03-31T15:13:20.155Z</time></trkpt><trkpt lat="41.1146" lon="0.295275"><ele>311.0</ele><time>2026-03-31T15:13:21.154Z</time></trkpt><trkpt lat="41.114465" lon="0.2952433"><ele>311.0</ele><time>2026-03-31T15:13:22.154Z</time></trkpt><trkpt lat="41.1143483" lon="0.2952117"><ele>311.0</ele><time>2026-03-31T15:13:23.155Z</time></trkpt><trkpt lat="41.1142417" lon="0.2952117"><ele>311.0</ele><time>2026-03-31T15:13:24.154Z</time></trkpt><trkpt lat="41.114135" lon="0.2952517"><ele>311.0</ele><time>2026-03-31T15:13:25.154Z</time></trkpt><trkpt lat="41.11403" lon="0.2953383"><ele>311.0</ele><time>2026-03-31T15:13:26.155Z</time></trkpt><trkpt lat="41.11393" lon="0.2954417"><ele>311.0</ele><time>2026-03-31T15:13:27.155Z</time></trkpt><trkpt lat="41.1138183" lon="0.2955517"><ele>311.33333333333337</ele><time>2026-03-31T15:13:28.154Z</time></trkpt><trkpt lat="41.1137083" lon="0.2956683"><ele>311.6666666666667</ele><time>2026-03-31T15:13:29.155Z</time></trkpt><trkpt lat="41.1135833" lon="0.29579"><ele>312.0</ele><time>2026-03-31T15:13:30.154Z</time></trkpt><trkpt lat="41.11346" lon="0.295915"><ele>312.0</ele><time>2026-03-31T15:13:31.155Z</time></trkpt><trkpt lat="41.11333" lon="0.2960483"><ele>312.0</ele><time>2026-03-31T15:13:32.154Z</time></trkpt><trkpt lat="41.1132" lon="0.2961883"><ele>312.0</ele><time>2026-03-31T15:13:33.155Z</time></trkpt><trkpt lat="41.113065" lon="0.296335"><ele>311.0</ele><time>2026-03-31T15:13:34.154Z</time></trkpt><trkpt lat="41.1129267" lon="0.296485"><ele>310.0</ele><time>2026-03-31T15:13:35.154Z</time></trkpt><trkpt lat="41.1127833" lon="0.2966333"><ele>309.0</ele><time>2026-03-31T15:13:36.154Z</time></trkpt><trkpt lat="41.1126417" lon="0.2967833"><ele>309.0</ele><time>2026-03-31T15:13:37.155Z</time></trkpt><trkpt lat="41.1125017" lon="0.29693"><ele>309.0</ele><time>2026-03-31T15:13:38.155Z</time></trkpt><trkpt lat="41.1123633" lon="0.2970783"><ele>309.0</ele><time>2026-03-31T15:13:39.154Z</time></trkpt><trkpt lat="41.1122367" lon="0.29721"><ele>308.0</ele><time>2026-03-31T15:13:40.155Z</time></trkpt><trkpt lat="41.1121117" lon="0.29733"><ele>307.0</ele><time>2026-03-31T15:13:41.154Z</time></trkpt><trkpt lat="41.11197" lon="0.297435"><ele>306.0</ele><time>2026-03-31T15:13:42.154Z</time></trkpt><trkpt lat="41.1118233" lon="0.2975083"><ele>306.0</ele><time>2026-03-31T15:13:43.155Z</time></trkpt><trkpt lat="41.111675" lon="0.2975733"><ele>306.0</ele><time>2026-03-31T15:13:44.154Z</time></trkpt><trkpt lat="41.1115133" lon="0.2976317"><ele>306.0</ele><time>2026-03-31T15:13:45.155Z</time></trkpt><trkpt lat="41.1113533" lon="0.2976967"><ele>307.0</ele><time>2026-03-31T15:13:46.154Z</time></trkpt><trkpt lat="41.1111883" lon="0.29776"><ele>308.0</ele><time>2026-03-31T15:13:47.155Z</time></trkpt><trkpt lat="41.1110183" lon="0.2978267"><ele>309.0</ele><time>2026-03-31T15:13:48.155Z</time></trkpt><trkpt lat="41.110845" lon="0.297895"><ele>307.6666666666667</ele><time>2026-03-31T15:13:49.155Z</time></trkpt><trkpt lat="41.1106617" lon="0.297975"><ele>306.33333333333337</ele><time>2026-03-31T15:13:50.154Z</time></trkpt><trkpt lat="41.11048" lon="0.2980617"><ele>305.0</ele><time>2026-03-31T15:13:51.154Z</time></trkpt><trkpt lat="41.110305" lon="0.29814"><ele>305.0</ele><time>2026-03-31T15:13:52.155Z</time></trkpt><trkpt lat="41.1101267" lon="0.2982217"><ele>305.0</ele><time>2026-03-31T15:13:53.154Z</time></trkpt><trkpt lat="41.10994" lon="0.2983233"><ele>305.0</ele><time>2026-03-31T15:13:54.154Z</time></trkpt><trkpt lat="41.10976" lon="0.2984433"><ele>309.33333333333337</ele><time>2026-03-31T15:13:55.155Z</time></trkpt><trkpt lat="41.109595" lon="0.2985733"><ele>313.6666666666667</ele><time>2026-03-31T15:13:56.155Z</time></trkpt><trkpt lat="41.1094217" lon="0.29871"><ele>318.0</ele><time>2026-03-31T15:13:57.154Z</time></trkpt><trkpt lat="41.10926" lon="0.298835"><ele>319.0</ele><time>2026-03-31T15:13:58.155Z</time></trkpt><trkpt lat="41.109085" lon="0.29897"><ele>320.0</ele><time>2026-03-31T15:13:59.154Z</time></trkpt><trkpt lat="41.1089167" lon="0.299105"><ele>321.0</ele><time>2026-03-31T15:14:00.155Z</time></trkpt><trkpt lat="41.108745" lon="0.2992383"><ele>321.0</ele><time>2026-03-31T15:14:01.155Z</time></trkpt><trkpt lat="41.1085767" lon="0.2993717"><ele>321.0</ele><time>2026-03-31T15:14:02.154Z</time></trkpt><trkpt lat="41.108415" lon="0.2995067"><ele>321.0</ele><time>2026-03-31T15:14:03.155Z</time></trkpt><trkpt lat="41.1082517" lon="0.2996483"><ele>322.3333333333333</ele><time>2026-03-31T15:14:04.155Z</time></trkpt><trkpt lat="41.108095" lon="0.2998"><ele>323.66666666666663</ele><time>2026-03-31T15:14:05.154Z</time></trkpt><trkpt lat="41.10795" lon="0.299965"><ele>325.0</ele><time>2026-03-31T15:14:06.155Z</time></trkpt><trkpt lat="41.1078167" lon="0.3001483"><ele>325.0</ele><time>2026-03-31T15:14:07.154Z</time></trkpt><trkpt lat="41.107695" lon="0.3003467"><ele>325.0</ele><time>2026-03-31T15:14:08.154Z</time></trkpt><trkpt lat="41.107575" lon="0.3005617"><ele>325.0</ele><time>2026-03-31T15:14:09.154Z</time></trkpt><trkpt lat="41.1074633" lon="0.3007683"><ele>326.3333333333333</ele><time>2026-03-31T15:14:10.155Z</time></trkpt><trkpt lat="41.1073433" lon="0.3009583"><ele>327.6666666666667</ele><time>2026-03-31T15:14:11.155Z</time></trkpt><trkpt lat="41.10722" lon="0.3011433"><ele>329.0</ele><time>2026-03-31T15:14:12.154Z</time></trkpt><trkpt lat="41.1070833" lon="0.3013167"><ele>324.6666666666667</ele><time>2026-03-31T15:14:13.155Z</time></trkpt><trkpt lat="41.1069483" lon="0.301475"><ele>320.3333333333333</ele><time>2026-03-31T15:14:14.155Z</time></trkpt><trkpt lat="41.1068067" lon="0.3016367"><ele>316.0</ele><time>2026-03-31T15:14:15.154Z</time></trkpt><trkpt lat="41.1066633" lon="0.301795"><ele>318.66666666666663</ele><time>2026-03-31T15:14:16.155Z</time></trkpt><trkpt lat="41.1065283" lon="0.30195"><ele>321.3333333333333</ele><time>2026-03-31T15:14:17.154Z</time></trkpt><trkpt lat="41.1064067" lon="0.3020983"><ele>324.0</ele><time>2026-03-31T15:14:18.154Z</time></trkpt><trkpt lat="41.106275" lon="0.3022383"><ele>320.3333333333333</ele><time>2026-03-31T15:14:19.154Z</time></trkpt><trkpt lat="41.1061417" lon="0.302355"><ele>316.66666666666663</ele><time>2026-03-31T15:14:20.154Z</time></trkpt><trkpt lat="41.1059933" lon="0.3024583"><ele>313.0</ele><time>2026-03-31T15:14:21.155Z</time></trkpt><trkpt lat="41.10585" lon="0.3025367"><ele>317.66666666666663</ele><time>2026-03-31T15:14:22.154Z</time></trkpt><trkpt lat="41.1056933" lon="0.302615"><ele>322.3333333333333</ele><time>2026-03-31T15:14:23.155Z</time></trkpt><trkpt lat="41.105535" lon="0.3026967"><ele>327.0</ele><time>2026-03-31T15:14:24.155Z</time></trkpt><trkpt lat="41.1053867" lon="0.3027817"><ele>327.0</ele><time>2026-03-31T15:14:25.154Z</time></trkpt><trkpt lat="41.1052467" lon="0.3028633"><ele>327.0</ele><time>2026-03-31T15:14:26.155Z</time></trkpt><trkpt lat="41.1051183" lon="0.3029417"><ele>327.0</ele><time>2026-03-31T15:14:27.154Z</time></trkpt><trkpt lat="41.1049967" lon="0.3030167"><ele>327.0</ele><time>2026-03-31T15:14:28.155Z</time></trkpt><trkpt lat="41.104885" lon="0.303095"><ele>326.5</ele><time>2026-03-31T15:14:29.154Z</time></trkpt><trkpt lat="41.1047733" lon="0.3031733"><ele>326.0</ele><time>2026-03-31T15:14:30.155Z</time></trkpt><trkpt lat="41.1046617" lon="0.3032517"><ele>325.5</ele><time>2026-03-31T15:14:31.154Z</time></trkpt><trkpt lat="41.1045533" lon="0.3033367"><ele>325.0</ele><time>2026-03-31T15:14:32.155Z</time></trkpt><trkpt lat="41.1044433" lon="0.3034233"><ele>325.0</ele><time>2026-03-31T15:14:33.155Z</time></trkpt><trkpt lat="41.104335" lon="0.3035033"><ele>325.0</ele><time>2026-03-31T15:14:34.155Z</time></trkpt><trkpt lat="41.1042417" lon="0.3035733"><ele>325.0</ele><time>2026-03-31T15:14:35.155Z</time></trkpt><trkpt lat="41.1041583" lon="0.3036417"><ele>325.0</ele><time>2026-03-31T15:14:36.154Z</time></trkpt><trkpt lat="41.10408" lon="0.3036833"><ele>325.0</ele><time>2026-03-31T15:14:37.155Z</time></trkpt><trkpt lat="41.104" lon="0.3036983"><ele>324.5</ele><time>2026-03-31T15:14:38.154Z</time></trkpt><trkpt lat="41.10393" lon="0.3036833"><ele>324.0</ele><time>2026-03-31T15:14:39.154Z</time></trkpt><trkpt lat="41.1038533" lon="0.3036617"><ele>323.5</ele><time>2026-03-31T15:14:40.154Z</time></trkpt><trkpt lat="41.1037733" lon="0.3036483"><ele>323.0</ele><time>2026-03-31T15:14:41.154Z</time></trkpt><trkpt lat="41.1037033" lon="0.3036683"><ele>322.5</ele><time>2026-03-31T15:14:42.155Z</time></trkpt><trkpt lat="41.103645" lon="0.3037317"><ele>322.0</ele><time>2026-03-31T15:14:43.154Z</time></trkpt><trkpt lat="41.1035783" lon="0.3038"><ele>322.0</ele><time>2026-03-31T15:14:44.155Z</time></trkpt><trkpt lat="41.103495" lon="0.3038583"><ele>322.0</ele><time>2026-03-31T15:14:45.154Z</time></trkpt><trkpt lat="41.10339" lon="0.30389"><ele>322.0</ele><time>2026-03-31T15:14:46.154Z</time></trkpt><trkpt lat="41.1032583" lon="0.3039033"><ele>322.0</ele><time>2026-03-31T15:14:47.155Z</time></trkpt><trkpt lat="41.103105" lon="0.303915"><ele>319.3333333333333</ele><time>2026-03-31T15:14:48.154Z</time></trkpt><trkpt lat="41.1029533" lon="0.3039267"><ele>316.6666666666667</ele><time>2026-03-31T15:14:49.155Z</time></trkpt><trkpt lat="41.1028017" lon="0.3039333"><ele>314.0</ele><time>2026-03-31T15:14:50.155Z</time></trkpt><trkpt lat="41.1026417" lon="0.303945"><ele>314.0</ele><time>2026-03-31T15:14:51.154Z</time></trkpt><trkpt lat="41.1024733" lon="0.3039483"><ele>314.0</ele><time>2026-03-31T15:14:52.155Z</time></trkpt><trkpt lat="41.1023133" lon="0.3039583"><ele>314.0</ele><time>2026-03-31T15:14:53.155Z</time></trkpt><trkpt lat="41.1021617" lon="0.303955"><ele>314.25</ele><time>2026-03-31T15:14:54.154Z</time></trkpt><trkpt lat="41.1020183" lon="0.3039167"><ele>314.5</ele><time>2026-03-31T15:14:55.154Z</time></trkpt><trkpt lat="41.1018783" lon="0.3038467"><ele>314.75</ele><time>2026-03-31T15:14:56.155Z</time></trkpt><trkpt lat="41.101745" lon="0.3037533"><ele>315.0</ele><time>2026-03-31T15:14:57.154Z</time></trkpt><trkpt lat="41.1016117" lon="0.3036467"><ele>317.0</ele><time>2026-03-31T15:14:58.155Z</time></trkpt><trkpt lat="41.1014717" lon="0.3035417"><ele>319.0</ele><time>2026-03-31T15:14:59.155Z</time></trkpt><trkpt lat="41.1013367" lon="0.3034567"><ele>321.0</ele><time>2026-03-31T15:15:00.154Z</time></trkpt><trkpt lat="41.1012117" lon="0.3033967"><ele>323.0</ele><time>2026-03-31T15:15:01.155Z</time></trkpt><trkpt lat="41.1010733" lon="0.30339"><ele>323.0</ele><time>2026-03-31T15:15:02.155Z</time></trkpt><trkpt lat="41.100945" lon="0.3034317"><ele>323.0</ele><time>2026-03-31T15:15:03.155Z</time></trkpt><trkpt lat="41.100835" lon="0.3035383"><ele>323.0</ele><time>2026-03-31T15:15:04.155Z</time></trkpt><trkpt lat="41.10073" lon="0.3036717"><ele>323.0</ele><time>2026-03-31T15:15:05.155Z</time></trkpt><trkpt lat="41.10063" lon="0.303805"><ele>323.33333333333337</ele><time>2026-03-31T15:15:06.155Z</time></trkpt><trkpt lat="41.1005267" lon="0.3039383"><ele>323.6666666666667</ele><time>2026-03-31T15:15:07.154Z</time></trkpt><trkpt lat="41.1004133" lon="0.3040733"><ele>324.0</ele><time>2026-03-31T15:15:08.154Z</time></trkpt><trkpt lat="41.100295" lon="0.3042167"><ele>324.0</ele><time>2026-03-31T15:15:09.154Z</time></trkpt><trkpt lat="41.1001817" lon="0.304345"><ele>324.0</ele><time>2026-03-31T15:15:10.154Z</time></trkpt><trkpt lat="41.1000683" lon="0.30446"><ele>324.0</ele><time>2026-03-31T15:15:11.155Z</time></trkpt><trkpt lat="41.0999433" lon="0.3045333"><ele>324.0</ele><time>2026-03-31T15:15:12.155Z</time></trkpt><trkpt lat="41.0997983" lon="0.3045617"><ele>324.3333333333333</ele><time>2026-03-31T15:15:13.154Z</time></trkpt><trkpt lat="41.0996483" lon="0.3045717"><ele>324.66666666666663</ele><time>2026-03-31T15:15:14.154Z</time></trkpt><trkpt lat="41.099495" lon="0.3045783"><ele>325.0</ele><time>2026-03-31T15:15:15.154Z</time></trkpt><trkpt lat="41.0993433" lon="0.304585"><ele>325.0</ele><time>2026-03-31T15:15:16.154Z</time></trkpt><trkpt lat="41.0991883" lon="0.3045733"><ele>325.0</ele><time>2026-03-31T15:15:17.154Z</time></trkpt><trkpt lat="41.0990367" lon="0.3045383"><ele>325.0</ele><time>2026-03-31T15:15:18.155Z</time></trkpt><trkpt lat="41.09888" lon="0.304485"><ele>326.0</ele><time>2026-03-31T15:15:19.155Z</time></trkpt><trkpt lat="41.0987383" lon="0.304425"><ele>327.0</ele><time>2026-03-31T15:15:20.154Z</time></trkpt><trkpt lat="41.098595" lon="0.30439"><ele>328.0</ele><time>2026-03-31T15:15:21.154Z</time></trkpt><trkpt lat="41.09846" lon="0.3043633"><ele>329.0</ele><time>2026-03-31T15:15:22.155Z</time></trkpt><trkpt lat="41.0983333" lon="0.30436"><ele>329.25</ele><time>2026-03-31T15:15:23.154Z</time></trkpt><trkpt lat="41.0982067" lon="0.3044017"><ele>329.5</ele><time>2026-03-31T15:15:24.154Z</time></trkpt><trkpt lat="41.0980867" lon="0.304475"><ele>329.75</ele><time>2026-03-31T15:15:25.155Z</time></trkpt><trkpt lat="41.0979867" lon="0.3045717"><ele>330.0</ele><time>2026-03-31T15:15:26.154Z</time></trkpt><trkpt lat="41.0979217" lon="0.3047"><ele>328.5</ele><time>2026-03-31T15:15:27.154Z</time></trkpt><trkpt lat="41.0978867" lon="0.3048533"><ele>327.0</ele><time>2026-03-31T15:15:28.155Z</time></trkpt><trkpt lat="41.09788" lon="0.3050383"><ele>325.5</ele><time>2026-03-31T15:15:29.154Z</time></trkpt><trkpt lat="41.0978917" lon="0.30523"><ele>324.0</ele><time>2026-03-31T15:15:30.154Z</time></trkpt><trkpt lat="41.0979" lon="0.3054083"><ele>324.0</ele><time>2026-03-31T15:15:31.154Z</time></trkpt><trkpt lat="41.0979017" lon="0.3055767"><ele>324.0</ele><time>2026-03-31T15:15:32.154Z</time></trkpt><trkpt lat="41.0978917" lon="0.30573"><ele>324.0</ele><time>2026-03-31T15:15:33.154Z</time></trkpt><trkpt lat="41.09784" lon="0.305865"><ele>324.0</ele><time>2026-03-31T15:15:34.155Z</time></trkpt><trkpt lat="41.097745" lon="0.3059767"><ele>324.3333333333333</ele><time>2026-03-31T15:15:35.154Z</time></trkpt><trkpt lat="41.097615" lon="0.30607"><ele>324.66666666666663</ele><time>2026-03-31T15:15:36.154Z</time></trkpt><trkpt lat="41.0974883" lon="0.306165"><ele>325.0</ele><time>2026-03-31T15:15:37.155Z</time></trkpt><trkpt lat="41.0973467" lon="0.3062567"><ele>324.3333333333333</ele><time>2026-03-31T15:15:38.154Z</time></trkpt><trkpt lat="41.0972067" lon="0.3063517"><ele>323.6666666666667</ele><time>2026-03-31T15:15:39.155Z</time></trkpt><trkpt lat="41.0970667" lon="0.306445"><ele>323.0</ele><time>2026-03-31T15:15:40.154Z</time></trkpt><trkpt lat="41.0969233" lon="0.3065333"><ele>325.0</ele><time>2026-03-31T15:15:41.154Z</time></trkpt><trkpt lat="41.0967717" lon="0.3066017"><ele>327.0</ele><time>2026-03-31T15:15:42.154Z</time></trkpt><trkpt lat="41.0966267" lon="0.3066733"><ele>329.0</ele><time>2026-03-31T15:15:43.155Z</time></trkpt><trkpt lat="41.096475" lon="0.3067417"><ele>329.0</ele><time>2026-03-31T15:15:44.154Z</time></trkpt><trkpt lat="41.096325" lon="0.3068083"><ele>329.0</ele><time>2026-03-31T15:15:45.155Z</time></trkpt><trkpt lat="41.0961833" lon="0.3068633"><ele>329.0</ele><time>2026-03-31T15:15:46.154Z</time></trkpt><trkpt lat="41.0960483" lon="0.306915"><ele>329.0</ele><time>2026-03-31T15:15:47.155Z</time></trkpt><trkpt lat="41.0959067" lon="0.3069633"><ele>329.0</ele><time>2026-03-31T15:15:48.154Z</time></trkpt><trkpt lat="41.09577" lon="0.3070033"><ele>329.0</ele><time>2026-03-31T15:15:49.155Z</time></trkpt><trkpt lat="41.0956317" lon="0.3070217"><ele>329.0</ele><time>2026-03-31T15:15:50.155Z</time></trkpt><trkpt lat="41.0954917" lon="0.3070117"><ele>329.0</ele><time>2026-03-31T15:15:51.154Z</time></trkpt><trkpt lat="41.0953583" lon="0.3069833"><ele>329.0</ele><time>2026-03-31T15:15:52.154Z</time></trkpt><trkpt lat="41.0952317" lon="0.3069567"><ele>329.0</ele><time>2026-03-31T15:15:53.154Z</time></trkpt><trkpt lat="41.095125" lon="0.3069533"><ele>329.0</ele><time>2026-03-31T15:15:54.155Z</time></trkpt><trkpt lat="41.09502" lon="0.30697"><ele>329.0</ele><time>2026-03-31T15:15:55.155Z</time></trkpt><trkpt lat="41.0949133" lon="0.3070433"><ele>330.5</ele><time>2026-03-31T15:15:56.155Z</time></trkpt><trkpt lat="41.0948067" lon="0.30713"><ele>332.0</ele><time>2026-03-31T15:15:57.154Z</time></trkpt><trkpt lat="41.0946917" lon="0.30722"><ele>333.5</ele><time>2026-03-31T15:15:58.154Z</time></trkpt><trkpt lat="41.0945833" lon="0.3073117"><ele>335.0</ele><time>2026-03-31T15:15:59.154Z</time></trkpt><trkpt lat="41.0944783" lon="0.3074"><ele>335.5</ele><time>2026-03-31T15:16:00.154Z</time></trkpt><trkpt lat="41.09437" lon="0.3074933"><ele>336.0</ele><time>2026-03-31T15:16:01.154Z</time></trkpt><trkpt lat="41.09426" lon="0.3075867"><ele>336.5</ele><time>2026-03-31T15:16:02.154Z</time></trkpt><trkpt lat="41.094175" lon="0.3076983"><ele>337.0</ele><time>2026-03-31T15:16:03.155Z</time></trkpt><trkpt lat="41.094095" lon="0.307825"><ele>337.5</ele><time>2026-03-31T15:16:04.154Z</time></trkpt><trkpt lat="41.09402" lon="0.3079667"><ele>338.0</ele><time>2026-03-31T15:16:05.154Z</time></trkpt><trkpt lat="41.0939483" lon="0.3081183"><ele>338.5</ele><time>2026-03-31T15:16:06.154Z</time></trkpt><trkpt lat="41.0938883" lon="0.308265"><ele>339.0</ele><time>2026-03-31T15:16:07.154Z</time></trkpt><trkpt lat="41.0938517" lon="0.30841"><ele>339.0</ele><time>2026-03-31T15:16:08.154Z</time></trkpt><trkpt lat="41.0938033" lon="0.3085433"><ele>339.0</ele><time>2026-03-31T15:16:09.155Z</time></trkpt><trkpt lat="41.0937567" lon="0.30866"><ele>339.0</ele><time>2026-03-31T15:16:10.154Z</time></trkpt><trkpt lat="41.0937217" lon="0.30877"><ele>339.0</ele><time>2026-03-31T15:16:11.155Z</time></trkpt><trkpt lat="41.09369" lon="0.3088633"><ele>339.0</ele><time>2026-03-31T15:16:12.154Z</time></trkpt><trkpt lat="41.093665" lon="0.3089533"><ele>340.3333333333333</ele><time>2026-03-31T15:16:13.154Z</time></trkpt><trkpt lat="41.0936383" lon="0.309055"><ele>341.6666666666667</ele><time>2026-03-31T15:16:14.155Z</time></trkpt><trkpt lat="41.09361" lon="0.3091633"><ele>343.0</ele><time>2026-03-31T15:16:15.154Z</time></trkpt><trkpt lat="41.093585" lon="0.3092783"><ele>344.33333333333337</ele><time>2026-03-31T15:16:16.154Z</time></trkpt><trkpt lat="41.0935567" lon="0.309395"><ele>345.6666666666667</ele><time>2026-03-31T15:16:17.154Z</time></trkpt><trkpt lat="41.093535" lon="0.3095117"><ele>347.0</ele><time>2026-03-31T15:16:18.154Z</time></trkpt><trkpt lat="41.0935083" lon="0.3096317"><ele>348.0</ele><time>2026-03-31T15:16:19.154Z</time></trkpt><trkpt lat="41.0934717" lon="0.30975"><ele>349.0</ele><time>2026-03-31T15:16:20.155Z</time></trkpt><trkpt lat="41.0934417" lon="0.3098617"><ele>350.0</ele><time>2026-03-31T15:16:21.155Z</time></trkpt><trkpt lat="41.0934167" lon="0.309975"><ele>351.0</ele><time>2026-03-31T15:16:22.154Z</time></trkpt><trkpt lat="41.0933817" lon="0.3100833"><ele>352.0</ele><time>2026-03-31T15:16:23.154Z</time></trkpt><trkpt lat="41.09334" lon="0.3102033"><ele>352.0</ele><time>2026-03-31T15:16:24.154Z</time></trkpt><trkpt lat="41.093315" lon="0.3103233"><ele>352.0</ele><time>2026-03-31T15:16:25.154Z</time></trkpt><trkpt lat="41.0932833" lon="0.31045"><ele>352.0</ele><time>2026-03-31T15:16:26.154Z</time></trkpt><trkpt lat="41.09326" lon="0.3105733"><ele>352.0</ele><time>2026-03-31T15:16:27.154Z</time></trkpt><trkpt lat="41.093235" lon="0.310695"><ele>352.0</ele><time>2026-03-31T15:16:28.155Z</time></trkpt><trkpt lat="41.0932" lon="0.3108183"><ele>352.8</ele><time>2026-03-31T15:16:29.154Z</time></trkpt><trkpt lat="41.09316" lon="0.3109333"><ele>353.6</ele><time>2026-03-31T15:16:30.154Z</time></trkpt><trkpt lat="41.09312" lon="0.3110583"><ele>354.40000000000003</ele><time>2026-03-31T15:16:31.154Z</time></trkpt><trkpt lat="41.093095" lon="0.3111783"><ele>355.20000000000005</ele><time>2026-03-31T15:16:32.155Z</time></trkpt><trkpt lat="41.0930633" lon="0.3113017"><ele>356.0</ele><time>2026-03-31T15:16:33.154Z</time></trkpt><trkpt lat="41.0930217" lon="0.3114267"><ele>357.0</ele><time>2026-03-31T15:16:34.155Z</time></trkpt><trkpt lat="41.0929867" lon="0.3115483"><ele>358.0</ele><time>2026-03-31T15:16:35.155Z</time></trkpt><trkpt lat="41.092955" lon="0.311665"><ele>359.0</ele><time>2026-03-31T15:16:36.155Z</time></trkpt><trkpt lat="41.0929317" lon="0.3117733"><ele>360.0</ele><time>2026-03-31T15:16:37.154Z</time></trkpt><trkpt lat="41.0929067" lon="0.3118617"><ele>361.0</ele><time>2026-03-31T15:16:38.154Z</time></trkpt><trkpt lat="41.0928633" lon="0.311975"><ele>362.0</ele><time>2026-03-31T15:16:40.154Z</time></trkpt><trkpt lat="41.09288" lon="0.3120767"><ele>362.0</ele><time>2026-03-31T15:16:44.154Z</time></trkpt><trkpt lat="41.092975" lon="0.3121917"><ele>362.0</ele><time>2026-03-31T15:16:46.154Z</time></trkpt><trkpt lat="41.0930367" lon="0.3122533"><ele>362.0</ele><time>2026-03-31T15:16:47.155Z</time></trkpt><trkpt lat="41.0931133" lon="0.312315"><ele>362.0</ele><time>2026-03-31T15:16:48.154Z</time></trkpt><trkpt lat="41.093185" lon="0.3123717"><ele>362.0</ele><time>2026-03-31T15:16:49.154Z</time></trkpt><trkpt lat="41.0932517" lon="0.312425"><ele>363.40000000000003</ele><time>2026-03-31T15:16:50.155Z</time></trkpt><trkpt lat="41.0933433" lon="0.3124967"><ele>364.8</ele><time>2026-03-31T15:16:52.155Z</time></trkpt><trkpt lat="41.0934067" lon="0.3125367"><ele>366.2</ele><time>2026-03-31T15:16:54.154Z</time></trkpt><trkpt lat="41.0934733" lon="0.3125833"><ele>367.6</ele><time>2026-03-31T15:16:56.154Z</time></trkpt><trkpt lat="41.0935433" lon="0.3126933"><ele>369.0</ele><time>2026-03-31T15:16:58.154Z</time></trkpt><trkpt lat="41.0935617" lon="0.3128533"><ele>369.0</ele><time>2026-03-31T15:17:00.155Z</time></trkpt><trkpt lat="41.0935467" lon="0.3129533"><ele>369.0</ele><time>2026-03-31T15:17:01.155Z</time></trkpt><trkpt lat="41.093525" lon="0.31308"><ele>369.0</ele><time>2026-03-31T15:17:02.154Z</time></trkpt><trkpt lat="41.0934833" lon="0.3132267"><ele>369.0</ele><time>2026-03-31T15:17:03.154Z</time></trkpt><trkpt lat="41.093445" lon="0.3133817"><ele>369.0</ele><time>2026-03-31T15:17:04.155Z</time></trkpt><trkpt lat="41.093395" lon="0.31353"><ele>368.75</ele><time>2026-03-31T15:17:05.155Z</time></trkpt><trkpt lat="41.0933317" lon="0.3136717"><ele>368.5</ele><time>2026-03-31T15:17:06.155Z</time></trkpt><trkpt lat="41.0932817" lon="0.3138133"><ele>368.25</ele><time>2026-03-31T15:17:07.155Z</time></trkpt><trkpt lat="41.09322" lon="0.3139483"><ele>368.0</ele><time>2026-03-31T15:17:08.155Z</time></trkpt><trkpt lat="41.0931533" lon="0.314075"><ele>368.0</ele><time>2026-03-31T15:17:09.155Z</time></trkpt><trkpt lat="41.0930883" lon="0.314195"><ele>368.0</ele><time>2026-03-31T15:17:10.154Z</time></trkpt><trkpt lat="41.0930483" lon="0.3143283"><ele>368.0</ele><time>2026-03-31T15:17:11.155Z</time></trkpt><trkpt lat="41.09299" lon="0.3144417"><ele>368.0</ele><time>2026-03-31T15:17:12.155Z</time></trkpt><trkpt lat="41.0929333" lon="0.314555"><ele>368.0</ele><time>2026-03-31T15:17:13.155Z</time></trkpt><trkpt lat="41.0928917" lon="0.3146717"><ele>366.4</ele><time>2026-03-31T15:17:14.154Z</time></trkpt><trkpt lat="41.092855" lon="0.3147867"><ele>364.79999999999995</ele><time>2026-03-31T15:17:15.154Z</time></trkpt><trkpt lat="41.09282" lon="0.3148983"><ele>363.2</ele><time>2026-03-31T15:17:16.155Z</time></trkpt><trkpt lat="41.09278" lon="0.31501"><ele>361.6</ele><time>2026-03-31T15:17:17.155Z</time></trkpt><trkpt lat="41.092735" lon="0.315125"><ele>360.0</ele><time>2026-03-31T15:17:18.154Z</time></trkpt><trkpt lat="41.092695" lon="0.3152583"><ele>360.0</ele><time>2026-03-31T15:17:19.155Z</time></trkpt><trkpt lat="41.0926467" lon="0.3153967"><ele>360.0</ele><time>2026-03-31T15:17:20.155Z</time></trkpt><trkpt lat="41.092595" lon="0.315535"><ele>360.0</ele><time>2026-03-31T15:17:21.155Z</time></trkpt><trkpt lat="41.0925333" lon="0.3156767"><ele>360.0</ele><time>2026-03-31T15:17:22.154Z</time></trkpt><trkpt lat="41.0924817" lon="0.3158183"><ele>359.5</ele><time>2026-03-31T15:17:23.154Z</time></trkpt><trkpt lat="41.0924233" lon="0.3159617"><ele>359.0</ele><time>2026-03-31T15:17:24.154Z</time></trkpt><trkpt lat="41.0923583" lon="0.3161117"><ele>358.5</ele><time>2026-03-31T15:17:25.154Z</time></trkpt><trkpt lat="41.0922983" lon="0.3162617"><ele>358.0</ele><time>2026-03-31T15:17:26.155Z</time></trkpt><trkpt lat="41.09224" lon="0.3164067"><ele>358.79999999999995</ele><time>2026-03-31T15:17:27.155Z</time></trkpt><trkpt lat="41.0921767" lon="0.3165367"><ele>359.6</ele><time>2026-03-31T15:17:28.155Z</time></trkpt><trkpt lat="41.09212" lon="0.3166517"><ele>360.4</ele><time>2026-03-31T15:17:29.154Z</time></trkpt><trkpt lat="41.09207" lon="0.31677"><ele>361.20000000000005</ele><time>2026-03-31T15:17:30.154Z</time></trkpt><trkpt lat="41.0920167" lon="0.3168917"><ele>362.0</ele><time>2026-03-31T15:17:31.154Z</time></trkpt><trkpt lat="41.0919617" lon="0.31702"><ele>362.0</ele><time>2026-03-31T15:17:32.154Z</time></trkpt><trkpt lat="41.0919067" lon="0.317155"><ele>362.0</ele><time>2026-03-31T15:17:33.154Z</time></trkpt><trkpt lat="41.091845" lon="0.3173033"><ele>362.0</ele><time>2026-03-31T15:17:34.154Z</time></trkpt><trkpt lat="41.09178" lon="0.3174517"><ele>362.0</ele><time>2026-03-31T15:17:35.154Z</time></trkpt><trkpt lat="41.0917067" lon="0.31759"><ele>361.0</ele><time>2026-03-31T15:17:36.154Z</time></trkpt><trkpt lat="41.0916283" lon="0.3177217"><ele>360.0</ele><time>2026-03-31T15:17:37.154Z</time></trkpt><trkpt lat="41.091545" lon="0.3178467"><ele>359.0</ele><time>2026-03-31T15:17:38.154Z</time></trkpt><trkpt lat="41.0914567" lon="0.3179683"><ele>358.0</ele><time>2026-03-31T15:17:39.155Z</time></trkpt><trkpt lat="41.0913633" lon="0.3180833"><ele>358.0</ele><time>2026-03-31T15:17:40.154Z</time></trkpt><trkpt lat="41.09126" lon="0.3181967"><ele>358.0</ele><time>2026-03-31T15:17:41.154Z</time></trkpt><trkpt lat="41.0911533" lon="0.318295"><ele>358.0</ele><time>2026-03-31T15:17:42.154Z</time></trkpt><trkpt lat="41.091055" lon="0.318395"><ele>358.0</ele><time>2026-03-31T15:17:43.154Z</time></trkpt><trkpt lat="41.0909567" lon="0.31849"><ele>358.0</ele><time>2026-03-31T15:17:44.155Z</time></trkpt><trkpt lat="41.0908733" lon="0.3185667"><ele>358.0</ele><time>2026-03-31T15:17:45.154Z</time></trkpt><trkpt lat="41.0907917" lon="0.318655"><ele>358.0</ele><time>2026-03-31T15:17:46.155Z</time></trkpt><trkpt lat="41.0907267" lon="0.3187533"><ele>358.0</ele><time>2026-03-31T15:17:47.154Z</time></trkpt><trkpt lat="41.090675" lon="0.3188633"><ele>358.0</ele><time>2026-03-31T15:17:48.155Z</time></trkpt><trkpt lat="41.09063" lon="0.318985"><ele>357.2</ele><time>2026-03-31T15:17:49.155Z</time></trkpt><trkpt lat="41.0905883" lon="0.3191133"><ele>356.4</ele><time>2026-03-31T15:17:50.155Z</time></trkpt><trkpt lat="41.0905483" lon="0.3192417"><ele>355.59999999999997</ele><time>2026-03-31T15:17:51.154Z</time></trkpt><trkpt lat="41.0905" lon="0.31937"><ele>354.79999999999995</ele><time>2026-03-31T15:17:52.154Z</time></trkpt><trkpt lat="41.0904483" lon="0.319495"><ele>354.0</ele><time>2026-03-31T15:17:53.155Z</time></trkpt><trkpt lat="41.0904" lon="0.31961"><ele>354.0</ele><time>2026-03-31T15:17:54.154Z</time></trkpt><trkpt lat="41.0903533" lon="0.319715"><ele>354.0</ele><time>2026-03-31T15:17:55.155Z</time></trkpt><trkpt lat="41.0903317" lon="0.3198267"><ele>354.0</ele><time>2026-03-31T15:17:56.155Z</time></trkpt><trkpt lat="41.090335" lon="0.31993"><ele>354.0</ele><time>2026-03-31T15:17:57.155Z</time></trkpt><trkpt lat="41.09037" lon="0.3200183"><ele>354.0</ele><time>2026-03-31T15:17:58.155Z</time></trkpt><trkpt lat="41.0904333" lon="0.3200783"><ele>354.0</ele><time>2026-03-31T15:17:59.155Z</time></trkpt><trkpt lat="41.09051" lon="0.32009"><ele>352.5</ele><time>2026-03-31T15:18:00.155Z</time></trkpt><trkpt lat="41.0906017" lon="0.32005"><ele>351.0</ele><time>2026-03-31T15:18:01.154Z</time></trkpt><trkpt lat="41.0907" lon="0.3199567"><ele>349.5</ele><time>2026-03-31T15:18:02.154Z</time></trkpt><trkpt lat="41.0907833" lon="0.3198317"><ele>348.0</ele><time>2026-03-31T15:18:03.154Z</time></trkpt><trkpt lat="41.09086" lon="0.31968"><ele>347.5</ele><time>2026-03-31T15:18:04.154Z</time></trkpt><trkpt lat="41.090945" lon="0.3195433"><ele>347.0</ele><time>2026-03-31T15:18:05.154Z</time></trkpt><trkpt lat="41.0910367" lon="0.3194"><ele>346.5</ele><time>2026-03-31T15:18:06.154Z</time></trkpt><trkpt lat="41.09114" lon="0.3192767"><ele>346.0</ele><time>2026-03-31T15:18:07.154Z</time></trkpt><trkpt lat="41.0912533" lon="0.31915"><ele>346.0</ele><time>2026-03-31T15:18:08.154Z</time></trkpt><trkpt lat="41.09136" lon="0.319025"><ele>346.0</ele><time>2026-03-31T15:18:09.154Z</time></trkpt><trkpt lat="41.0914617" lon="0.3188983"><ele>346.0</ele><time>2026-03-31T15:18:10.154Z</time></trkpt><trkpt lat="41.09156" lon="0.3187783"><ele>346.0</ele><time>2026-03-31T15:18:11.155Z</time></trkpt><trkpt lat="41.0916533" lon="0.31866"><ele>345.5</ele><time>2026-03-31T15:18:12.154Z</time></trkpt><trkpt lat="41.0917417" lon="0.3185383"><ele>345.0</ele><time>2026-03-31T15:18:13.154Z</time></trkpt><trkpt lat="41.0918333" lon="0.3184133"><ele>344.5</ele><time>2026-03-31T15:18:14.154Z</time></trkpt><trkpt lat="41.0919267" lon="0.318305"><ele>344.0</ele><time>2026-03-31T15:18:15.154Z</time></trkpt><trkpt lat="41.0920133" lon="0.3182017"><ele>344.0</ele><time>2026-03-31T15:18:16.154Z</time></trkpt><trkpt lat="41.09208" lon="0.3181067"><ele>344.0</ele><time>2026-03-31T15:18:17.154Z</time></trkpt><trkpt lat="41.0921417" lon="0.3180317"><ele>344.0</ele><time>2026-03-31T15:18:18.155Z</time></trkpt><trkpt lat="41.0922017" lon="0.3179817"><ele>344.0</ele><time>2026-03-31T15:18:19.154Z</time></trkpt><trkpt lat="41.092265" lon="0.3179683"><ele>344.0</ele><time>2026-03-31T15:18:20.155Z</time></trkpt><trkpt lat="41.09233" lon="0.31801"><ele>344.0</ele><time>2026-03-31T15:18:21.154Z</time></trkpt><trkpt lat="41.0923917" lon="0.3181"><ele>341.0</ele><time>2026-03-31T15:18:22.155Z</time></trkpt><trkpt lat="41.0924583" lon="0.3182383"><ele>338.0</ele><time>2026-03-31T15:18:23.155Z</time></trkpt><trkpt lat="41.09254" lon="0.3183933"><ele>335.0</ele><time>2026-03-31T15:18:24.154Z</time></trkpt><trkpt lat="41.0926267" lon="0.3185433"><ele>332.0</ele><time>2026-03-31T15:18:25.155Z</time></trkpt><trkpt lat="41.0927167" lon="0.3186883"><ele>332.0</ele><time>2026-03-31T15:18:26.155Z</time></trkpt><trkpt lat="41.0928133" lon="0.318825"><ele>332.0</ele><time>2026-03-31T15:18:27.154Z</time></trkpt><trkpt lat="41.0929033" lon="0.3189517"><ele>332.0</ele><time>2026-03-31T15:18:28.154Z</time></trkpt><trkpt lat="41.09298" lon="0.3190733"><ele>332.0</ele><time>2026-03-31T15:18:29.155Z</time></trkpt><trkpt lat="41.0930317" lon="0.3191917"><ele>332.0</ele><time>2026-03-31T15:18:30.155Z</time></trkpt><trkpt lat="41.09304" lon="0.319315"><ele>332.0</ele><time>2026-03-31T15:18:31.154Z</time></trkpt><trkpt lat="41.0930167" lon="0.3194267"><ele>332.0</ele><time>2026-03-31T15:18:32.155Z</time></trkpt><trkpt lat="41.0929733" lon="0.319535"><ele>332.0</ele><time>2026-03-31T15:18:33.154Z</time></trkpt><trkpt lat="41.0929367" lon="0.31967"><ele>332.0</ele><time>2026-03-31T15:18:34.154Z</time></trkpt><trkpt lat="41.092935" lon="0.3198283"><ele>332.5</ele><time>2026-03-31T15:18:35.155Z</time></trkpt><trkpt lat="41.0929517" lon="0.32"><ele>333.0</ele><time>2026-03-31T15:18:36.154Z</time></trkpt><trkpt lat="41.09297" lon="0.3201883"><ele>333.5</ele><time>2026-03-31T15:18:37.155Z</time></trkpt><trkpt lat="41.0929683" lon="0.320385"><ele>334.0</ele><time>2026-03-31T15:18:38.154Z</time></trkpt><trkpt lat="41.0929367" lon="0.320585"><ele>336.66666666666663</ele><time>2026-03-31T15:18:39.155Z</time></trkpt><trkpt lat="41.0928667" lon="0.3207733"><ele>339.3333333333333</ele><time>2026-03-31T15:18:40.155Z</time></trkpt><trkpt lat="41.09278" lon="0.3209417"><ele>342.0</ele><time>2026-03-31T15:18:41.154Z</time></trkpt><trkpt lat="41.0927133" lon="0.3211017"><ele>342.0</ele><time>2026-03-31T15:18:42.155Z</time></trkpt><trkpt lat="41.09267" lon="0.3212683"><ele>342.0</ele><time>2026-03-31T15:18:43.155Z</time></trkpt><trkpt lat="41.0926383" lon="0.3214567"><ele>342.0</ele><time>2026-03-31T15:18:44.155Z</time></trkpt><trkpt lat="41.0926033" lon="0.321655"><ele>342.0</ele><time>2026-03-31T15:18:45.154Z</time></trkpt><trkpt lat="41.0925817" lon="0.321845"><ele>343.75</ele><time>2026-03-31T15:18:46.155Z</time></trkpt><trkpt lat="41.0925733" lon="0.322035"><ele>345.5</ele><time>2026-03-31T15:18:47.155Z</time></trkpt><trkpt lat="41.092595" lon="0.3222233"><ele>347.25</ele><time>2026-03-31T15:18:48.155Z</time></trkpt><trkpt lat="41.0926217" lon="0.3223917"><ele>349.0</ele><time>2026-03-31T15:18:49.154Z</time></trkpt><trkpt lat="41.0926683" lon="0.32254"><ele>349.0</ele><time>2026-03-31T15:18:50.154Z</time></trkpt><trkpt lat="41.0927433" lon="0.3226783"><ele>349.0</ele><time>2026-03-31T15:18:51.155Z</time></trkpt><trkpt lat="41.0928367" lon="0.3228017"><ele>349.0</ele><time>2026-03-31T15:18:52.155Z</time></trkpt><trkpt lat="41.092935" lon="0.3229233"><ele>349.0</ele><time>2026-03-31T15:18:53.155Z</time></trkpt><trkpt lat="41.0930433" lon="0.3230683"><ele>349.0</ele><time>2026-03-31T15:18:54.154Z</time></trkpt><trkpt lat="41.093155" lon="0.323225"><ele>349.0</ele><time>2026-03-31T15:18:55.154Z</time></trkpt><trkpt lat="41.0932583" lon="0.3233767"><ele>349.0</ele><time>2026-03-31T15:18:56.154Z</time></trkpt><trkpt lat="41.09336" lon="0.323535"><ele>351.66666666666663</ele><time>2026-03-31T15:18:57.154Z</time></trkpt><trkpt lat="41.0934483" lon="0.3236833"><ele>354.3333333333333</ele><time>2026-03-31T15:18:58.154Z</time></trkpt><trkpt lat="41.0935367" lon="0.32386"><ele>357.0</ele><time>2026-03-31T15:18:59.155Z</time></trkpt><trkpt lat="41.093615" lon="0.3240667"><ele>357.3333333333333</ele><time>2026-03-31T15:19:00.154Z</time></trkpt><trkpt lat="41.0936783" lon="0.32428"><ele>357.66666666666663</ele><time>2026-03-31T15:19:01.155Z</time></trkpt><trkpt lat="41.0937367" lon="0.324485"><ele>358.0</ele><time>2026-03-31T15:19:02.155Z</time></trkpt><trkpt lat="41.0938133" lon="0.3246983"><ele>360.3333333333333</ele><time>2026-03-31T15:19:03.154Z</time></trkpt><trkpt lat="41.0938883" lon="0.3249067"><ele>362.6666666666667</ele><time>2026-03-31T15:19:04.154Z</time></trkpt><trkpt lat="41.0939617" lon="0.3251167"><ele>365.0</ele><time>2026-03-31T15:19:05.155Z</time></trkpt><trkpt lat="41.0940317" lon="0.3253367"><ele>365.0</ele><time>2026-03-31T15:19:06.155Z</time></trkpt><trkpt lat="41.0940867" lon="0.3255617"><ele>365.0</ele><time>2026-03-31T15:19:07.154Z</time></trkpt><trkpt lat="41.0941233" lon="0.3257867"><ele>365.0</ele><time>2026-03-31T15:19:08.155Z</time></trkpt><trkpt lat="41.0941633" lon="0.3260217"><ele>366.33333333333337</ele><time>2026-03-31T15:19:09.154Z</time></trkpt><trkpt lat="41.0941967" lon="0.3262533"><ele>367.6666666666667</ele><time>2026-03-31T15:19:10.155Z</time></trkpt><trkpt lat="41.0942233" lon="0.3264933"><ele>369.0</ele><time>2026-03-31T15:19:11.155Z</time></trkpt><trkpt lat="41.0942583" lon="0.3267283"><ele>370.0</ele><time>2026-03-31T15:19:12.154Z</time></trkpt><trkpt lat="41.0943" lon="0.3269617"><ele>371.0</ele><time>2026-03-31T15:19:13.155Z</time></trkpt><trkpt lat="41.094315" lon="0.3271733"><ele>372.0</ele><time>2026-03-31T15:19:14.155Z</time></trkpt><trkpt lat="41.09432" lon="0.327395"><ele>374.0</ele><time>2026-03-31T15:19:15.154Z</time></trkpt><trkpt lat="41.094295" lon="0.3276133"><ele>376.0</ele><time>2026-03-31T15:19:16.155Z</time></trkpt><trkpt lat="41.094275" lon="0.32784"><ele>378.0</ele><time>2026-03-31T15:19:17.155Z</time></trkpt><trkpt lat="41.0942767" lon="0.32807"><ele>378.6666666666667</ele><time>2026-03-31T15:19:18.155Z</time></trkpt><trkpt lat="41.0943067" lon="0.32829"><ele>379.33333333333337</ele><time>2026-03-31T15:19:19.154Z</time></trkpt><trkpt lat="41.0943483" lon="0.3284933"><ele>380.0</ele><time>2026-03-31T15:19:20.155Z</time></trkpt><trkpt lat="41.0943933" lon="0.3287117"><ele>380.0</ele><time>2026-03-31T15:19:21.154Z</time></trkpt><trkpt lat="41.0944417" lon="0.3289283"><ele>380.0</ele><time>2026-03-31T15:19:22.155Z</time></trkpt><trkpt lat="41.09449" lon="0.329145"><ele>380.0</ele><time>2026-03-31T15:19:23.154Z</time></trkpt><trkpt lat="41.0945317" lon="0.3293717"><ele>380.0</ele><time>2026-03-31T15:19:24.154Z</time></trkpt><trkpt lat="41.0945817" lon="0.3296067"><ele>380.0</ele><time>2026-03-31T15:19:25.154Z</time></trkpt><trkpt lat="41.0946283" lon="0.3298317"><ele>380.0</ele><time>2026-03-31T15:19:26.155Z</time></trkpt><trkpt lat="41.0946717" lon="0.3300483"><ele>379.75</ele><time>2026-03-31T15:19:27.155Z</time></trkpt><trkpt lat="41.09472" lon="0.330245"><ele>379.5</ele><time>2026-03-31T15:19:28.155Z</time></trkpt><trkpt lat="41.0947783" lon="0.3304217"><ele>379.25</ele><time>2026-03-31T15:19:29.155Z</time></trkpt><trkpt lat="41.094815" lon="0.330595"><ele>379.0</ele><time>2026-03-31T15:19:30.154Z</time></trkpt><trkpt lat="41.094825" lon="0.3307817"><ele>378.66666666666663</ele><time>2026-03-31T15:19:31.155Z</time></trkpt><trkpt lat="41.0947917" lon="0.3309667"><ele>378.3333333333333</ele><time>2026-03-31T15:19:32.154Z</time></trkpt><trkpt lat="41.094715" lon="0.331145"><ele>378.0</ele><time>2026-03-31T15:19:33.154Z</time></trkpt><trkpt lat="41.09463" lon="0.331335"><ele>378.6666666666667</ele><time>2026-03-31T15:19:34.154Z</time></trkpt><trkpt lat="41.0945617" lon="0.3315317"><ele>379.33333333333337</ele><time>2026-03-31T15:19:35.154Z</time></trkpt><trkpt lat="41.0944933" lon="0.331725"><ele>380.0</ele><time>2026-03-31T15:19:36.155Z</time></trkpt><trkpt lat="41.09445" lon="0.331895"><ele>380.0</ele><time>2026-03-31T15:19:37.154Z</time></trkpt><trkpt lat="41.094425" lon="0.3320733"><ele>380.0</ele><time>2026-03-31T15:19:38.155Z</time></trkpt><trkpt lat="41.0944333" lon="0.33227"><ele>380.0</ele><time>2026-03-31T15:19:39.154Z</time></trkpt><trkpt lat="41.09448" lon="0.33246"><ele>380.0</ele><time>2026-03-31T15:19:40.154Z</time></trkpt><trkpt lat="41.094545" lon="0.33264"><ele>379.6666666666667</ele><time>2026-03-31T15:19:41.154Z</time></trkpt><trkpt lat="41.0946117" lon="0.33283"><ele>379.3333333333333</ele><time>2026-03-31T15:19:42.154Z</time></trkpt><trkpt lat="41.0946717" lon="0.3330217"><ele>379.0</ele><time>2026-03-31T15:19:43.154Z</time></trkpt><trkpt lat="41.094725" lon="0.3332167"><ele>377.75</ele><time>2026-03-31T15:19:44.154Z</time></trkpt><trkpt lat="41.09478" lon="0.3334083"><ele>376.5</ele><time>2026-03-31T15:19:45.155Z</time></trkpt><trkpt lat="41.0948367" lon="0.3335883"><ele>375.25</ele><time>2026-03-31T15:19:46.155Z</time></trkpt><trkpt lat="41.0948917" lon="0.3337417"><ele>374.0</ele><time>2026-03-31T15:19:47.155Z</time></trkpt><trkpt lat="41.0949633" lon="0.33386"><ele>376.0</ele><time>2026-03-31T15:19:48.154Z</time></trkpt><trkpt lat="41.0950567" lon="0.3339483"><ele>378.0</ele><time>2026-03-31T15:19:49.155Z</time></trkpt><trkpt lat="41.09518" lon="0.3340133"><ele>380.0</ele><time>2026-03-31T15:19:50.155Z</time></trkpt><trkpt lat="41.0953217" lon="0.334055"><ele>382.0</ele><time>2026-03-31T15:19:51.154Z</time></trkpt><trkpt lat="41.095455" lon="0.3341133"><ele>382.0</ele><time>2026-03-31T15:19:52.155Z</time></trkpt><trkpt lat="41.095565" lon="0.3342033"><ele>382.0</ele><time>2026-03-31T15:19:53.154Z</time></trkpt><trkpt lat="41.095665" lon="0.3343517"><ele>382.0</ele><time>2026-03-31T15:19:54.154Z</time></trkpt><trkpt lat="41.0957533" lon="0.3345317"><ele>382.0</ele><time>2026-03-31T15:19:55.155Z</time></trkpt><trkpt lat="41.0958467" lon="0.334715"><ele>382.3333333333333</ele><time>2026-03-31T15:19:56.155Z</time></trkpt><trkpt lat="41.0959417" lon="0.334905"><ele>382.6666666666667</ele><time>2026-03-31T15:19:57.155Z</time></trkpt><trkpt lat="41.0960383" lon="0.335095"><ele>383.0</ele><time>2026-03-31T15:19:58.155Z</time></trkpt><trkpt lat="41.0961333" lon="0.3352783"><ele>383.0</ele><time>2026-03-31T15:19:59.154Z</time></trkpt><trkpt lat="41.096215" lon="0.3354483"><ele>383.0</ele><time>2026-03-31T15:20:00.154Z</time></trkpt><trkpt lat="41.0962783" lon="0.335625"><ele>383.0</ele><time>2026-03-31T15:20:01.154Z</time></trkpt><trkpt lat="41.0963233" lon="0.33581"><ele>383.0</ele><time>2026-03-31T15:20:02.155Z</time></trkpt><trkpt lat="41.0963167" lon="0.3360033"><ele>383.0</ele><time>2026-03-31T15:20:03.155Z</time></trkpt><trkpt lat="41.096295" lon="0.3361867"><ele>383.0</ele><time>2026-03-31T15:20:04.154Z</time></trkpt><trkpt lat="41.096305" lon="0.336355"><ele>383.0</ele><time>2026-03-31T15:20:05.155Z</time></trkpt><trkpt lat="41.0963467" lon="0.3365133"><ele>383.0</ele><time>2026-03-31T15:20:06.154Z</time></trkpt><trkpt lat="41.0964117" lon="0.3366717"><ele>383.33333333333337</ele><time>2026-03-31T15:20:07.154Z</time></trkpt><trkpt lat="41.0964817" lon="0.33685"><ele>383.6666666666667</ele><time>2026-03-31T15:20:08.154Z</time></trkpt><trkpt lat="41.0965483" lon="0.3370367"><ele>384.0</ele><time>2026-03-31T15:20:09.155Z</time></trkpt><trkpt lat="41.0966317" lon="0.3372133"><ele>387.33333333333337</ele><time>2026-03-31T15:20:10.155Z</time></trkpt><trkpt lat="41.0967267" lon="0.3373883"><ele>390.6666666666667</ele><time>2026-03-31T15:20:11.154Z</time></trkpt><trkpt lat="41.0968367" lon="0.3375567"><ele>394.0</ele><time>2026-03-31T15:20:12.155Z</time></trkpt><trkpt lat="41.096945" lon="0.3377433"><ele>394.0</ele><time>2026-03-31T15:20:13.154Z</time></trkpt><trkpt lat="41.0970517" lon="0.337935"><ele>394.0</ele><time>2026-03-31T15:20:14.154Z</time></trkpt><trkpt lat="41.0971533" lon="0.3381233"><ele>394.0</ele><time>2026-03-31T15:20:15.155Z</time></trkpt><trkpt lat="41.097255" lon="0.3383033"><ele>394.0</ele><time>2026-03-31T15:20:16.154Z</time></trkpt><trkpt lat="41.0973733" lon="0.33846"><ele>394.0</ele><time>2026-03-31T15:20:17.155Z</time></trkpt><trkpt lat="41.0975017" lon="0.33861"><ele>394.0</ele><time>2026-03-31T15:20:18.154Z</time></trkpt><trkpt lat="41.097625" lon="0.338745"><ele>395.6666666666667</ele><time>2026-03-31T15:20:19.155Z</time></trkpt><trkpt lat="41.0977283" lon="0.338905"><ele>397.33333333333337</ele><time>2026-03-31T15:20:20.155Z</time></trkpt><trkpt lat="41.0978217" lon="0.339085"><ele>399.0</ele><time>2026-03-31T15:20:21.154Z</time></trkpt><trkpt lat="41.097905" lon="0.3392867"><ele>399.0</ele><time>2026-03-31T15:20:22.154Z</time></trkpt><trkpt lat="41.0979767" lon="0.3394933"><ele>399.0</ele><time>2026-03-31T15:20:23.154Z</time></trkpt><trkpt lat="41.0980383" lon="0.3397033"><ele>399.0</ele><time>2026-03-31T15:20:24.154Z</time></trkpt><trkpt lat="41.098105" lon="0.3399117"><ele>399.66666666666663</ele><time>2026-03-31T15:20:25.154Z</time></trkpt><trkpt lat="41.098175" lon="0.3401283"><ele>400.3333333333333</ele><time>2026-03-31T15:20:26.155Z</time></trkpt><trkpt lat="41.0982483" lon="0.3403467"><ele>401.0</ele><time>2026-03-31T15:20:27.155Z</time></trkpt><trkpt lat="41.0983283" lon="0.3405667"><ele>403.3333333333333</ele><time>2026-03-31T15:20:28.154Z</time></trkpt><trkpt lat="41.0984133" lon="0.3407717"><ele>405.66666666666663</ele><time>2026-03-31T15:20:29.155Z</time></trkpt><trkpt lat="41.0985017" lon="0.3409733"><ele>408.0</ele><time>2026-03-31T15:20:30.155Z</time></trkpt><trkpt lat="41.0986033" lon="0.341165"><ele>408.0</ele><time>2026-03-31T15:20:31.155Z</time></trkpt><trkpt lat="41.0986933" lon="0.3413433"><ele>408.0</ele><time>2026-03-31T15:20:32.155Z</time></trkpt><trkpt lat="41.0987833" lon="0.3415267"><ele>408.0</ele><time>2026-03-31T15:20:33.155Z</time></trkpt><trkpt lat="41.09887" lon="0.341715"><ele>408.33333333333337</ele><time>2026-03-31T15:20:34.154Z</time></trkpt><trkpt lat="41.0989617" lon="0.3419067"><ele>408.6666666666667</ele><time>2026-03-31T15:20:35.154Z</time></trkpt><trkpt lat="41.09905" lon="0.3421"><ele>409.0</ele><time>2026-03-31T15:20:36.155Z</time></trkpt><trkpt lat="41.0991317" lon="0.3423033"><ele>411.6666666666667</ele><time>2026-03-31T15:20:37.154Z</time></trkpt><trkpt lat="41.099195" lon="0.3425333"><ele>414.33333333333337</ele><time>2026-03-31T15:20:38.155Z</time></trkpt><trkpt lat="41.0992283" lon="0.3427667"><ele>417.0</ele><time>2026-03-31T15:20:39.154Z</time></trkpt><trkpt lat="41.099255" lon="0.3430183"><ele>418.33333333333337</ele><time>2026-03-31T15:20:40.154Z</time></trkpt><trkpt lat="41.0992817" lon="0.34327"><ele>419.6666666666667</ele><time>2026-03-31T15:20:41.154Z</time></trkpt><trkpt lat="41.09931" lon="0.3435183"><ele>421.0</ele><time>2026-03-31T15:20:42.154Z</time></trkpt><trkpt lat="41.0993417" lon="0.3437667"><ele>422.0</ele><time>2026-03-31T15:20:43.155Z</time></trkpt><trkpt lat="41.0993767" lon="0.344"><ele>423.0</ele><time>2026-03-31T15:20:44.154Z</time></trkpt><trkpt lat="41.099405" lon="0.3442367"><ele>424.0</ele><time>2026-03-31T15:20:45.155Z</time></trkpt><trkpt lat="41.099455" lon="0.3444583"><ele>424.0</ele><time>2026-03-31T15:20:46.155Z</time></trkpt><trkpt lat="41.0995017" lon="0.34466"><ele>424.0</ele><time>2026-03-31T15:20:47.155Z</time></trkpt><trkpt lat="41.0995433" lon="0.3448283"><ele>424.0</ele><time>2026-03-31T15:20:48.154Z</time></trkpt><trkpt lat="41.0996017" lon="0.34497"><ele>424.0</ele><time>2026-03-31T15:20:49.154Z</time></trkpt><trkpt lat="41.09967" lon="0.3450817"><ele>424.0</ele><time>2026-03-31T15:20:50.154Z</time></trkpt><trkpt lat="41.0997667" lon="0.34516"><ele>424.0</ele><time>2026-03-31T15:20:51.154Z</time></trkpt><trkpt lat="41.09989" lon="0.34522"><ele>424.0</ele><time>2026-03-31T15:20:52.154Z</time></trkpt><trkpt lat="41.1000133" lon="0.34526"><ele>424.0</ele><time>2026-03-31T15:20:53.155Z</time></trkpt><trkpt lat="41.1001367" lon="0.34533"><ele>424.0</ele><time>2026-03-31T15:20:54.154Z</time></trkpt><trkpt lat="41.1002433" lon="0.34544"><ele>424.0</ele><time>2026-03-31T15:20:55.155Z</time></trkpt><trkpt lat="41.1003417" lon="0.3455667"><ele>424.0</ele><time>2026-03-31T15:20:56.154Z</time></trkpt><trkpt lat="41.1004317" lon="0.3457083"><ele>424.0</ele><time>2026-03-31T15:20:57.155Z</time></trkpt><trkpt lat="41.1004967" lon="0.34586"><ele>423.25</ele><time>2026-03-31T15:20:58.154Z</time></trkpt><trkpt lat="41.10055" lon="0.3460133"><ele>422.5</ele><time>2026-03-31T15:20:59.155Z</time></trkpt><trkpt lat="41.100585" lon="0.346155"><ele>421.75</ele><time>2026-03-31T15:21:00.155Z</time></trkpt><trkpt lat="41.1006183" lon="0.3462983"><ele>421.0</ele><time>2026-03-31T15:21:01.154Z</time></trkpt><trkpt lat="41.1006733" lon="0.346435"><ele>420.25</ele><time>2026-03-31T15:21:02.155Z</time></trkpt><trkpt lat="41.1007467" lon="0.3465667"><ele>419.5</ele><time>2026-03-31T15:21:03.154Z</time></trkpt><trkpt lat="41.100835" lon="0.3467"><ele>418.75</ele><time>2026-03-31T15:21:04.155Z</time></trkpt><trkpt lat="41.1009317" lon="0.3468367"><ele>418.0</ele><time>2026-03-31T15:21:05.155Z</time></trkpt><trkpt lat="41.1010317" lon="0.3469617"><ele>417.6666666666667</ele><time>2026-03-31T15:21:06.155Z</time></trkpt><trkpt lat="41.10115" lon="0.347065"><ele>417.33333333333337</ele><time>2026-03-31T15:21:07.154Z</time></trkpt><trkpt lat="41.1012867" lon="0.3471483"><ele>417.0</ele><time>2026-03-31T15:21:08.155Z</time></trkpt><trkpt lat="41.1014317" lon="0.3472367"><ele>416.75</ele><time>2026-03-31T15:21:09.154Z</time></trkpt><trkpt lat="41.1015617" lon="0.34734"><ele>416.5</ele><time>2026-03-31T15:21:10.155Z</time></trkpt><trkpt lat="41.10168" lon="0.34746"><ele>416.25</ele><time>2026-03-31T15:21:11.154Z</time></trkpt><trkpt lat="41.1017667" lon="0.347605"><ele>416.0</ele><time>2026-03-31T15:21:12.155Z</time></trkpt><trkpt lat="41.1018133" lon="0.3477783"><ele>415.75</ele><time>2026-03-31T15:21:13.154Z</time></trkpt><trkpt lat="41.1018267" lon="0.3479667"><ele>415.5</ele><time>2026-03-31T15:21:14.154Z</time></trkpt><trkpt lat="41.10183" lon="0.34816"><ele>415.25</ele><time>2026-03-31T15:21:15.154Z</time></trkpt><trkpt lat="41.1018517" lon="0.3483317"><ele>415.0</ele><time>2026-03-31T15:21:16.155Z</time></trkpt><trkpt lat="41.1019067" lon="0.3484733"><ele>414.75</ele><time>2026-03-31T15:21:17.154Z</time></trkpt><trkpt lat="41.1020017" lon="0.3485683"><ele>414.5</ele><time>2026-03-31T15:21:18.155Z</time></trkpt><trkpt lat="41.1021167" lon="0.348625"><ele>414.25</ele><time>2026-03-31T15:21:19.155Z</time></trkpt><trkpt lat="41.1022467" lon="0.3486533"><ele>414.0</ele><time>2026-03-31T15:21:20.154Z</time></trkpt><trkpt lat="41.1023733" lon="0.3487"><ele>413.75</ele><time>2026-03-31T15:21:21.155Z</time></trkpt><trkpt lat="41.1024933" lon="0.3487833"><ele>413.5</ele><time>2026-03-31T15:21:22.154Z</time></trkpt><trkpt lat="41.1025967" lon="0.34893"><ele>413.25</ele><time>2026-03-31T15:21:23.155Z</time></trkpt><trkpt lat="41.1026817" lon="0.34911"><ele>413.0</ele><time>2026-03-31T15:21:24.154Z</time></trkpt><trkpt lat="41.10275" lon="0.3493133"><ele>412.66666666666663</ele><time>2026-03-31T15:21:25.154Z</time></trkpt><trkpt lat="41.102815" lon="0.3495167"><ele>412.33333333333337</ele><time>2026-03-31T15:21:26.155Z</time></trkpt><trkpt lat="41.1028783" lon="0.3497083"><ele>412.0</ele><time>2026-03-31T15:21:27.155Z</time></trkpt><trkpt lat="41.10295" lon="0.3498783"><ele>411.5</ele><time>2026-03-31T15:21:28.154Z</time></trkpt><trkpt lat="41.10303" lon="0.350025"><ele>411.0</ele><time>2026-03-31T15:21:29.154Z</time></trkpt><trkpt lat="41.1031267" lon="0.3501667"><ele>410.5</ele><time>2026-03-31T15:21:30.154Z</time></trkpt><trkpt lat="41.1032183" lon="0.3503133"><ele>410.0</ele><time>2026-03-31T15:21:31.155Z</time></trkpt><trkpt lat="41.10329" lon="0.3504633"><ele>409.75</ele><time>2026-03-31T15:21:32.154Z</time></trkpt><trkpt lat="41.1033367" lon="0.3506283"><ele>409.5</ele><time>2026-03-31T15:21:33.154Z</time></trkpt><trkpt lat="41.103345" lon="0.350795"><ele>409.25</ele><time>2026-03-31T15:21:34.155Z</time></trkpt><trkpt lat="41.1033133" lon="0.3509483"><ele>409.0</ele><time>2026-03-31T15:21:35.155Z</time></trkpt><trkpt lat="41.103255" lon="0.3510633"><ele>408.4</ele><time>2026-03-31T15:21:36.154Z</time></trkpt><trkpt lat="41.1032117" lon="0.3511817"><ele>407.79999999999995</ele><time>2026-03-31T15:21:37.155Z</time></trkpt><trkpt lat="41.1032017" lon="0.3512933"><ele>407.20000000000005</ele><time>2026-03-31T15:21:38.154Z</time></trkpt><trkpt lat="41.1032367" lon="0.3514167"><ele>406.6</ele><time>2026-03-31T15:21:39.154Z</time></trkpt><trkpt lat="41.1033033" lon="0.3515467"><ele>406.0</ele><time>2026-03-31T15:21:40.155Z</time></trkpt><trkpt lat="41.1033733" lon="0.351685"><ele>406.0</ele><time>2026-03-31T15:21:41.155Z</time></trkpt><trkpt lat="41.1034517" lon="0.351795"><ele>406.0</ele><time>2026-03-31T15:21:42.154Z</time></trkpt><trkpt lat="41.103545" lon="0.3518767"><ele>406.0</ele><time>2026-03-31T15:21:43.154Z</time></trkpt><trkpt lat="41.1036567" lon="0.3519633"><ele>406.0</ele><time>2026-03-31T15:21:44.154Z</time></trkpt><trkpt lat="41.1037617" lon="0.35207"><ele>403.6666666666667</ele><time>2026-03-31T15:21:45.154Z</time></trkpt><trkpt lat="41.10385" lon="0.3522183"><ele>401.33333333333337</ele><time>2026-03-31T15:21:46.155Z</time></trkpt><trkpt lat="41.1039267" lon="0.3524"><ele>399.0</ele><time>2026-03-31T15:21:47.155Z</time></trkpt><trkpt lat="41.104" lon="0.3525983"><ele>399.0</ele><time>2026-03-31T15:21:48.155Z</time></trkpt><trkpt lat="41.1040783" lon="0.3527983"><ele>399.0</ele><time>2026-03-31T15:21:49.154Z</time></trkpt><trkpt lat="41.10415" lon="0.3529867"><ele>399.0</ele><time>2026-03-31T15:21:50.155Z</time></trkpt><trkpt lat="41.104215" lon="0.353165"><ele>397.75</ele><time>2026-03-31T15:21:51.154Z</time></trkpt><trkpt lat="41.1042817" lon="0.353325"><ele>396.5</ele><time>2026-03-31T15:21:52.154Z</time></trkpt><trkpt lat="41.1043367" lon="0.3534733"><ele>395.25</ele><time>2026-03-31T15:21:53.154Z</time></trkpt><trkpt lat="41.104375" lon="0.353615"><ele>394.0</ele><time>2026-03-31T15:21:54.155Z</time></trkpt><trkpt lat="41.1043867" lon="0.3537817"><ele>393.0</ele><time>2026-03-31T15:21:55.155Z</time></trkpt><trkpt lat="41.1043883" lon="0.3539667"><ele>392.0</ele><time>2026-03-31T15:21:56.154Z</time></trkpt><trkpt lat="41.1043767" lon="0.3541567"><ele>391.0</ele><time>2026-03-31T15:21:57.155Z</time></trkpt><trkpt lat="41.1043683" lon="0.3543517"><ele>390.0</ele><time>2026-03-31T15:21:58.155Z</time></trkpt><trkpt lat="41.104365" lon="0.3545617"><ele>389.0</ele><time>2026-03-31T15:21:59.155Z</time></trkpt><trkpt lat="41.10436" lon="0.3547683"><ele>388.0</ele><time>2026-03-31T15:22:00.154Z</time></trkpt><trkpt lat="41.1043467" lon="0.3549617"><ele>387.0</ele><time>2026-03-31T15:22:01.154Z</time></trkpt><trkpt lat="41.1043083" lon="0.355125"><ele>386.0</ele><time>2026-03-31T15:22:02.155Z</time></trkpt><trkpt lat="41.10423" lon="0.3552533"><ele>386.0</ele><time>2026-03-31T15:22:03.155Z</time></trkpt><trkpt lat="41.1041217" lon="0.3553417"><ele>386.0</ele><time>2026-03-31T15:22:04.154Z</time></trkpt><trkpt lat="41.1040033" lon="0.35541"><ele>386.0</ele><time>2026-03-31T15:22:05.154Z</time></trkpt><trkpt lat="41.1038967" lon="0.3554733"><ele>386.0</ele><time>2026-03-31T15:22:06.154Z</time></trkpt><trkpt lat="41.10382" lon="0.355545"><ele>384.49999999999994</ele><time>2026-03-31T15:22:07.154Z</time></trkpt><trkpt lat="41.1037767" lon="0.3556533"><ele>383.0</ele><time>2026-03-31T15:22:08.155Z</time></trkpt><trkpt lat="41.1037717" lon="0.3557667"><ele>381.5</ele><time>2026-03-31T15:22:09.155Z</time></trkpt><trkpt lat="41.103795" lon="0.3558617"><ele>380.0</ele><time>2026-03-31T15:22:10.155Z</time></trkpt><trkpt lat="41.10386" lon="0.3559233"><ele>378.5</ele><time>2026-03-31T15:22:11.155Z</time></trkpt><trkpt lat="41.1039567" lon="0.3559317"><ele>377.0</ele><time>2026-03-31T15:22:12.154Z</time></trkpt><trkpt lat="41.104075" lon="0.3558917"><ele>377.25</ele><time>2026-03-31T15:22:13.155Z</time></trkpt><trkpt lat="41.1042017" lon="0.355865"><ele>377.5</ele><time>2026-03-31T15:22:14.154Z</time></trkpt><trkpt lat="41.1043433" lon="0.3558783"><ele>377.75</ele><time>2026-03-31T15:22:15.155Z</time></trkpt><trkpt lat="41.1044967" lon="0.355915"><ele>378.0</ele><time>2026-03-31T15:22:16.155Z</time></trkpt><trkpt lat="41.104655" lon="0.3559383"><ele>378.0</ele><time>2026-03-31T15:22:17.155Z</time></trkpt><trkpt lat="41.1048017" lon="0.35594"><ele>378.0</ele><time>2026-03-31T15:22:18.155Z</time></trkpt><trkpt lat="41.1049417" lon="0.3559183"><ele>378.0</ele><time>2026-03-31T15:22:19.154Z</time></trkpt><trkpt lat="41.1050917" lon="0.3558633"><ele>378.0</ele><time>2026-03-31T15:22:20.154Z</time></trkpt><trkpt lat="41.1052317" lon="0.355765"><ele>376.6666666666667</ele><time>2026-03-31T15:22:21.155Z</time></trkpt><trkpt lat="41.1053583" lon="0.3556667"><ele>375.33333333333337</ele><time>2026-03-31T15:22:22.154Z</time></trkpt><trkpt lat="41.1054967" lon="0.35554"><ele>374.0</ele><time>2026-03-31T15:22:23.154Z</time></trkpt><trkpt lat="41.1056333" lon="0.355405"><ele>372.33333333333337</ele><time>2026-03-31T15:22:24.155Z</time></trkpt><trkpt lat="41.1057533" lon="0.3552667"><ele>370.6666666666667</ele><time>2026-03-31T15:22:25.155Z</time></trkpt><trkpt lat="41.105895" lon="0.3551617"><ele>369.0</ele><time>2026-03-31T15:22:26.154Z</time></trkpt><trkpt lat="41.106035" lon="0.3551133"><ele>369.0</ele><time>2026-03-31T15:22:27.154Z</time></trkpt><trkpt lat="41.1061617" lon="0.355105"><ele>369.0</ele><time>2026-03-31T15:22:28.154Z</time></trkpt><trkpt lat="41.106275" lon="0.3551567"><ele>369.0</ele><time>2026-03-31T15:22:29.154Z</time></trkpt><trkpt lat="41.10637" lon="0.3552533"><ele>369.0</ele><time>2026-03-31T15:22:30.155Z</time></trkpt><trkpt lat="41.10644" lon="0.3554083"><ele>368.0</ele><time>2026-03-31T15:22:31.155Z</time></trkpt><trkpt lat="41.1065017" lon="0.3555883"><ele>367.0</ele><time>2026-03-31T15:22:32.154Z</time></trkpt><trkpt lat="41.10658" lon="0.3557667"><ele>366.0</ele><time>2026-03-31T15:22:33.155Z</time></trkpt><trkpt lat="41.106675" lon="0.35594"><ele>366.0</ele><time>2026-03-31T15:22:34.154Z</time></trkpt><trkpt lat="41.1067667" lon="0.3561367"><ele>366.0</ele><time>2026-03-31T15:22:35.154Z</time></trkpt><trkpt lat="41.1068467" lon="0.3563467"><ele>366.0</ele><time>2026-03-31T15:22:36.154Z</time></trkpt><trkpt lat="41.1069167" lon="0.35657"><ele>366.0</ele><time>2026-03-31T15:22:37.154Z</time></trkpt><trkpt lat="41.1069867" lon="0.3567883"><ele>366.0</ele><time>2026-03-31T15:22:38.154Z</time></trkpt><trkpt lat="41.10705" lon="0.357015"><ele>366.0</ele><time>2026-03-31T15:22:39.154Z</time></trkpt><trkpt lat="41.10712" lon="0.3572267"><ele>365.6666666666667</ele><time>2026-03-31T15:22:40.154Z</time></trkpt><trkpt lat="41.107195" lon="0.3574333"><ele>365.33333333333337</ele><time>2026-03-31T15:22:41.154Z</time></trkpt><trkpt lat="41.1072683" lon="0.3576517"><ele>365.0</ele><time>2026-03-31T15:22:42.155Z</time></trkpt><trkpt lat="41.1073583" lon="0.3578433"><ele>365.6666666666667</ele><time>2026-03-31T15:22:43.154Z</time></trkpt><trkpt lat="41.1074467" lon="0.3580333"><ele>366.3333333333333</ele><time>2026-03-31T15:22:44.155Z</time></trkpt><trkpt lat="41.1075317" lon="0.3581933"><ele>367.0</ele><time>2026-03-31T15:22:45.155Z</time></trkpt><trkpt lat="41.1076117" lon="0.3583367"><ele>367.0</ele><time>2026-03-31T15:22:46.155Z</time></trkpt><trkpt lat="41.1077083" lon="0.35844"><ele>367.0</ele><time>2026-03-31T15:22:47.154Z</time></trkpt><trkpt lat="41.1078317" lon="0.35851"><ele>367.0</ele><time>2026-03-31T15:22:48.155Z</time></trkpt><trkpt lat="41.10798" lon="0.358585"><ele>367.0</ele><time>2026-03-31T15:22:49.155Z</time></trkpt><trkpt lat="41.1081167" lon="0.358685"><ele>367.0</ele><time>2026-03-31T15:22:50.154Z</time></trkpt><trkpt lat="41.1082317" lon="0.358825"><ele>367.0</ele><time>2026-03-31T15:22:51.154Z</time></trkpt><trkpt lat="41.1083267" lon="0.3589867"><ele>367.0</ele><time>2026-03-31T15:22:52.154Z</time></trkpt><trkpt lat="41.1083967" lon="0.35919"><ele>366.3333333333333</ele><time>2026-03-31T15:22:53.154Z</time></trkpt><trkpt lat="41.10844" lon="0.3593933"><ele>365.6666666666667</ele><time>2026-03-31T15:22:54.155Z</time></trkpt><trkpt lat="41.1084717" lon="0.3596017"><ele>365.0</ele><time>2026-03-31T15:22:55.154Z</time></trkpt><trkpt lat="41.108485" lon="0.3598033"><ele>363.75</ele><time>2026-03-31T15:22:56.155Z</time></trkpt><trkpt lat="41.1084717" lon="0.3599967"><ele>362.5</ele><time>2026-03-31T15:22:57.155Z</time></trkpt><trkpt lat="41.10846" lon="0.3601517"><ele>361.25</ele><time>2026-03-31T15:22:58.154Z</time></trkpt><trkpt lat="41.1084717" lon="0.3602817"><ele>360.0</ele><time>2026-03-31T15:22:59.154Z</time></trkpt><trkpt lat="41.10851" lon="0.3603917"><ele>360.0</ele><time>2026-03-31T15:23:00.154Z</time></trkpt><trkpt lat="41.1085817" lon="0.3604633"><ele>360.0</ele><time>2026-03-31T15:23:01.154Z</time></trkpt><trkpt lat="41.1086933" lon="0.36048"><ele>360.0</ele><time>2026-03-31T15:23:02.154Z</time></trkpt><trkpt lat="41.1088283" lon="0.36049"><ele>360.0</ele><time>2026-03-31T15:23:03.155Z</time></trkpt><trkpt lat="41.108975" lon="0.3605017"><ele>359.0</ele><time>2026-03-31T15:23:04.154Z</time></trkpt><trkpt lat="41.1091367" lon="0.360525"><ele>358.0</ele><time>2026-03-31T15:23:05.154Z</time></trkpt><trkpt lat="41.1092967" lon="0.36057"><ele>357.0</ele><time>2026-03-31T15:23:06.155Z</time></trkpt><trkpt lat="41.1094583" lon="0.3606283"><ele>357.0</ele><time>2026-03-31T15:23:07.155Z</time></trkpt><trkpt lat="41.1096167" lon="0.3606917"><ele>357.0</ele><time>2026-03-31T15:23:08.154Z</time></trkpt><trkpt lat="41.109765" lon="0.360745"><ele>357.0</ele><time>2026-03-31T15:23:09.154Z</time></trkpt><trkpt lat="41.109915" lon="0.360795"><ele>358.0</ele><time>2026-03-31T15:23:10.154Z</time></trkpt><trkpt lat="41.1100333" lon="0.360865"><ele>359.0</ele><time>2026-03-31T15:23:11.155Z</time></trkpt><trkpt lat="41.1101317" lon="0.3609867"><ele>360.0</ele><time>2026-03-31T15:23:12.154Z</time></trkpt><trkpt lat="41.1101883" lon="0.3611433"><ele>361.0</ele><time>2026-03-31T15:23:13.155Z</time></trkpt><trkpt lat="41.1102217" lon="0.361315"><ele>360.0</ele><time>2026-03-31T15:23:14.155Z</time></trkpt><trkpt lat="41.1102533" lon="0.3615167"><ele>359.0</ele><time>2026-03-31T15:23:15.154Z</time></trkpt><trkpt lat="41.1102717" lon="0.3617333"><ele>358.0</ele><time>2026-03-31T15:23:16.154Z</time></trkpt><trkpt lat="41.1102867" lon="0.3619533"><ele>358.0</ele><time>2026-03-31T15:23:17.154Z</time></trkpt><trkpt lat="41.110275" lon="0.36218"><ele>358.0</ele><time>2026-03-31T15:23:18.154Z</time></trkpt><trkpt lat="41.1102467" lon="0.3624083"><ele>358.0</ele><time>2026-03-31T15:23:19.155Z</time></trkpt><trkpt lat="41.11021" lon="0.362645"><ele>357.3333333333333</ele><time>2026-03-31T15:23:20.154Z</time></trkpt><trkpt lat="41.1101767" lon="0.3628633"><ele>356.6666666666667</ele><time>2026-03-31T15:23:21.154Z</time></trkpt><trkpt lat="41.110145" lon="0.3630617"><ele>356.0</ele><time>2026-03-31T15:23:22.154Z</time></trkpt><trkpt lat="41.1101183" lon="0.3632367"><ele>355.8</ele><time>2026-03-31T15:23:23.154Z</time></trkpt><trkpt lat="41.1101067" lon="0.3634"><ele>355.6</ele><time>2026-03-31T15:23:24.154Z</time></trkpt><trkpt lat="41.11012" lon="0.36354"><ele>355.4</ele><time>2026-03-31T15:23:25.155Z</time></trkpt><trkpt lat="41.1101633" lon="0.36365"><ele>355.2</ele><time>2026-03-31T15:23:26.155Z</time></trkpt><trkpt lat="41.11022" lon="0.363725"><ele>355.0</ele><time>2026-03-31T15:23:27.155Z</time></trkpt><trkpt lat="41.1102983" lon="0.36379"><ele>355.0</ele><time>2026-03-31T15:23:28.154Z</time></trkpt><trkpt lat="41.1104033" lon="0.36385"><ele>355.0</ele><time>2026-03-31T15:23:29.154Z</time></trkpt><trkpt lat="41.11053" lon="0.3639167"><ele>355.0</ele><time>2026-03-31T15:23:30.154Z</time></trkpt><trkpt lat="41.110665" lon="0.3639967"><ele>355.0</ele><time>2026-03-31T15:23:31.155Z</time></trkpt><trkpt lat="41.110795" lon="0.3640833"><ele>355.0</ele><time>2026-03-31T15:23:32.155Z</time></trkpt><trkpt lat="41.1109317" lon="0.3641833"><ele>355.0</ele><time>2026-03-31T15:23:33.154Z</time></trkpt><trkpt lat="41.1110633" lon="0.3642917"><ele>355.0</ele><time>2026-03-31T15:23:34.154Z</time></trkpt><trkpt lat="41.1111867" lon="0.3644017"><ele>355.0</ele><time>2026-03-31T15:23:35.154Z</time></trkpt><trkpt lat="41.1113083" lon="0.3645017"><ele>355.0</ele><time>2026-03-31T15:23:36.154Z</time></trkpt><trkpt lat="41.1114167" lon="0.3646067"><ele>355.0</ele><time>2026-03-31T15:23:37.155Z</time></trkpt><trkpt lat="41.1115" lon="0.3647433"><ele>355.0</ele><time>2026-03-31T15:23:38.154Z</time></trkpt><trkpt lat="41.1115717" lon="0.36492"><ele>354.3333333333333</ele><time>2026-03-31T15:23:39.154Z</time></trkpt><trkpt lat="41.11161" lon="0.36512"><ele>353.6666666666667</ele><time>2026-03-31T15:23:40.155Z</time></trkpt><trkpt lat="41.11164" lon="0.3653267"><ele>353.0</ele><time>2026-03-31T15:23:41.154Z</time></trkpt><trkpt lat="41.111695" lon="0.36554"><ele>352.0</ele><time>2026-03-31T15:23:42.155Z</time></trkpt><trkpt lat="41.1117733" lon="0.36575"><ele>351.0</ele><time>2026-03-31T15:23:43.154Z</time></trkpt><trkpt lat="41.111875" lon="0.3659383"><ele>350.0</ele><time>2026-03-31T15:23:44.154Z</time></trkpt><trkpt lat="41.1119783" lon="0.36612"><ele>350.0</ele><time>2026-03-31T15:23:45.155Z</time></trkpt><trkpt lat="41.1120817" lon="0.3662883"><ele>350.0</ele><time>2026-03-31T15:23:46.154Z</time></trkpt><trkpt lat="41.1121567" lon="0.3664683"><ele>350.0</ele><time>2026-03-31T15:23:47.154Z</time></trkpt><trkpt lat="41.112215" lon="0.3666683"><ele>349.5</ele><time>2026-03-31T15:23:48.155Z</time></trkpt><trkpt lat="41.1122333" lon="0.3668767"><ele>349.0</ele><time>2026-03-31T15:23:49.154Z</time></trkpt><trkpt lat="41.1122367" lon="0.3670783"><ele>348.5</ele><time>2026-03-31T15:23:50.154Z</time></trkpt><trkpt lat="41.1122367" lon="0.367255"><ele>348.0</ele><time>2026-03-31T15:23:51.155Z</time></trkpt><trkpt lat="41.1122517" lon="0.3674283"><ele>348.0</ele><time>2026-03-31T15:23:52.155Z</time></trkpt><trkpt lat="41.1122983" lon="0.367575"><ele>348.0</ele><time>2026-03-31T15:23:53.154Z</time></trkpt><trkpt lat="41.1123667" lon="0.3677283"><ele>348.0</ele><time>2026-03-31T15:23:54.155Z</time></trkpt><trkpt lat="41.1124583" lon="0.3678733"><ele>348.0</ele><time>2026-03-31T15:23:55.154Z</time></trkpt><trkpt lat="41.112545" lon="0.368005"><ele>347.5</ele><time>2026-03-31T15:23:56.154Z</time></trkpt><trkpt lat="41.112635" lon="0.3681083"><ele>347.0</ele><time>2026-03-31T15:23:57.154Z</time></trkpt><trkpt lat="41.1127317" lon="0.36817"><ele>346.5</ele><time>2026-03-31T15:23:58.155Z</time></trkpt><trkpt lat="41.1128567" lon="0.3681917"><ele>346.0</ele><time>2026-03-31T15:23:59.154Z</time></trkpt><trkpt lat="41.1129867" lon="0.3681833"><ele>346.0</ele><time>2026-03-31T15:24:00.154Z</time></trkpt><trkpt lat="41.113125" lon="0.3681833"><ele>346.0</ele><time>2026-03-31T15:24:01.155Z</time></trkpt><trkpt lat="41.1132733" lon="0.3682"><ele>346.0</ele><time>2026-03-31T15:24:02.154Z</time></trkpt><trkpt lat="41.113415" lon="0.3682333"><ele>346.0</ele><time>2026-03-31T15:24:03.154Z</time></trkpt><trkpt lat="41.1135517" lon="0.368285"><ele>345.8</ele><time>2026-03-31T15:24:04.154Z</time></trkpt><trkpt lat="41.1136617" lon="0.3683533"><ele>345.6</ele><time>2026-03-31T15:24:05.155Z</time></trkpt><trkpt lat="41.1137417" lon="0.36844"><ele>345.4</ele><time>2026-03-31T15:24:06.155Z</time></trkpt><trkpt lat="41.11379" lon="0.368545"><ele>345.2</ele><time>2026-03-31T15:24:07.155Z</time></trkpt><trkpt lat="41.1138167" lon="0.3686633"><ele>345.0</ele><time>2026-03-31T15:24:08.154Z</time></trkpt><trkpt lat="41.1138367" lon="0.3687867"><ele>344.6</ele><time>2026-03-31T15:24:09.154Z</time></trkpt><trkpt lat="41.1138533" lon="0.368925"><ele>344.2</ele><time>2026-03-31T15:24:10.155Z</time></trkpt><trkpt lat="41.1138717" lon="0.369065"><ele>343.79999999999995</ele><time>2026-03-31T15:24:11.155Z</time></trkpt><trkpt lat="41.1138883" lon="0.3692017"><ele>343.4</ele><time>2026-03-31T15:24:12.155Z</time></trkpt><trkpt lat="41.1139167" lon="0.36934"><ele>343.0</ele><time>2026-03-31T15:24:13.154Z</time></trkpt><trkpt lat="41.1139633" lon="0.3694833"><ele>343.0</ele><time>2026-03-31T15:24:14.154Z</time></trkpt><trkpt lat="41.1140183" lon="0.369635"><ele>343.0</ele><time>2026-03-31T15:24:15.154Z</time></trkpt><trkpt lat="41.1140717" lon="0.3697883"><ele>343.0</ele><time>2026-03-31T15:24:16.154Z</time></trkpt><trkpt lat="41.114125" lon="0.3699367"><ele>343.0</ele><time>2026-03-31T15:24:17.154Z</time></trkpt><trkpt lat="41.1141767" lon="0.3700733"><ele>343.2</ele><time>2026-03-31T15:24:18.154Z</time></trkpt><trkpt lat="41.1142317" lon="0.3702"><ele>343.4</ele><time>2026-03-31T15:24:19.155Z</time></trkpt><trkpt lat="41.11429" lon="0.3703167"><ele>343.59999999999997</ele><time>2026-03-31T15:24:20.154Z</time></trkpt><trkpt lat="41.1143717" lon="0.3704117"><ele>343.79999999999995</ele><time>2026-03-31T15:24:21.155Z</time></trkpt><trkpt lat="41.1144767" lon="0.3704967"><ele>344.0</ele><time>2026-03-31T15:24:22.155Z</time></trkpt><trkpt lat="41.1146017" lon="0.37057"><ele>343.25</ele><time>2026-03-31T15:24:23.153Z</time></trkpt><trkpt lat="41.1147367" lon="0.3706367"><ele>342.5</ele><time>2026-03-31T15:24:24.154Z</time></trkpt><trkpt lat="41.1148783" lon="0.3706967"><ele>341.75</ele><time>2026-03-31T15:24:25.154Z</time></trkpt><trkpt lat="41.115025" lon="0.370735"><ele>341.0</ele><time>2026-03-31T15:24:26.153Z</time></trkpt><trkpt lat="41.11516" lon="0.370785"><ele>341.0</ele><time>2026-03-31T15:24:27.154Z</time></trkpt><trkpt lat="41.1152867" lon="0.3708433"><ele>341.0</ele><time>2026-03-31T15:24:28.153Z</time></trkpt><trkpt lat="41.1153867" lon="0.3709283"><ele>341.0</ele><time>2026-03-31T15:24:29.153Z</time></trkpt><trkpt lat="41.115475" lon="0.3710283"><ele>341.0</ele><time>2026-03-31T15:24:30.154Z</time></trkpt><trkpt lat="41.115545" lon="0.3711367"><ele>341.0</ele><time>2026-03-31T15:24:31.154Z</time></trkpt><trkpt lat="41.1156117" lon="0.3712633"><ele>341.0</ele><time>2026-03-31T15:24:32.154Z</time></trkpt><trkpt lat="41.1156783" lon="0.371405"><ele>341.0</ele><time>2026-03-31T15:24:33.154Z</time></trkpt><trkpt lat="41.115755" lon="0.3715417"><ele>341.0</ele><time>2026-03-31T15:24:34.154Z</time></trkpt><trkpt lat="41.11582" lon="0.37169"><ele>341.25</ele><time>2026-03-31T15:24:35.154Z</time></trkpt><trkpt lat="41.1158567" lon="0.371845"><ele>341.5</ele><time>2026-03-31T15:24:36.153Z</time></trkpt><trkpt lat="41.115875" lon="0.3720017"><ele>341.75</ele><time>2026-03-31T15:24:37.154Z</time></trkpt><trkpt lat="41.11588" lon="0.37216"><ele>342.0</ele><time>2026-03-31T15:24:38.153Z</time></trkpt><trkpt lat="41.1158933" lon="0.3723117"><ele>341.1666666666667</ele><time>2026-03-31T15:24:39.153Z</time></trkpt><trkpt lat="41.1159333" lon="0.3724283"><ele>340.3333333333333</ele><time>2026-03-31T15:24:40.153Z</time></trkpt><trkpt lat="41.115985" lon="0.372525"><ele>339.5</ele><time>2026-03-31T15:24:41.153Z</time></trkpt><trkpt lat="41.1160467" lon="0.3725883"><ele>338.66666666666663</ele><time>2026-03-31T15:24:42.154Z</time></trkpt><trkpt lat="41.11612" lon="0.372605"><ele>337.8333333333333</ele><time>2026-03-31T15:24:43.154Z</time></trkpt><trkpt lat="41.1162017" lon="0.3725667"><ele>337.0</ele><time>2026-03-31T15:24:44.153Z</time></trkpt><trkpt lat="41.1162967" lon="0.3724717"><ele>337.0</ele><time>2026-03-31T15:24:45.153Z</time></trkpt><trkpt lat="41.1163983" lon="0.372345"><ele>337.0</ele><time>2026-03-31T15:24:46.154Z</time></trkpt><trkpt lat="41.1165117" lon="0.3722083"><ele>337.0</ele><time>2026-03-31T15:24:47.153Z</time></trkpt><trkpt lat="41.1166117" lon="0.3720883"><ele>337.0</ele><time>2026-03-31T15:24:48.153Z</time></trkpt><trkpt lat="41.1167267" lon="0.371985"><ele>338.0</ele><time>2026-03-31T15:24:49.153Z</time></trkpt><trkpt lat="41.1168467" lon="0.3719083"><ele>339.0</ele><time>2026-03-31T15:24:50.154Z</time></trkpt><trkpt lat="41.1169633" lon="0.3718633"><ele>340.0</ele><time>2026-03-31T15:24:51.153Z</time></trkpt><trkpt lat="41.1170767" lon="0.3718583"><ele>341.0</ele><time>2026-03-31T15:24:52.153Z</time></trkpt><trkpt lat="41.117165" lon="0.3718983"><ele>341.0</ele><time>2026-03-31T15:24:53.154Z</time></trkpt><trkpt lat="41.1172367" lon="0.3719683"><ele>341.0</ele><time>2026-03-31T15:24:54.154Z</time></trkpt><trkpt lat="41.117285" lon="0.3720733"><ele>341.0</ele><time>2026-03-31T15:24:55.153Z</time></trkpt><trkpt lat="41.1173033" lon="0.37221"><ele>341.0</ele><time>2026-03-31T15:24:56.154Z</time></trkpt><trkpt lat="41.1173067" lon="0.372375"><ele>341.0</ele><time>2026-03-31T15:24:57.154Z</time></trkpt><trkpt lat="41.117305" lon="0.37255"><ele>339.0</ele><time>2026-03-31T15:24:58.153Z</time></trkpt><trkpt lat="41.1172983" lon="0.372735"><ele>337.0</ele><time>2026-03-31T15:24:59.153Z</time></trkpt><trkpt lat="41.1172917" lon="0.3729133"><ele>335.0</ele><time>2026-03-31T15:25:00.153Z</time></trkpt><trkpt lat="41.117285" lon="0.3731067"><ele>333.0</ele><time>2026-03-31T15:25:01.154Z</time></trkpt><trkpt lat="41.1172733" lon="0.373275"><ele>333.0</ele><time>2026-03-31T15:25:02.153Z</time></trkpt><trkpt lat="41.117265" lon="0.37344"><ele>333.0</ele><time>2026-03-31T15:25:03.153Z</time></trkpt><trkpt lat="41.1172517" lon="0.373585"><ele>333.0</ele><time>2026-03-31T15:25:04.154Z</time></trkpt><trkpt lat="41.11721" lon="0.3737033"><ele>333.0</ele><time>2026-03-31T15:25:05.153Z</time></trkpt><trkpt lat="41.1171317" lon="0.3737717"><ele>333.0</ele><time>2026-03-31T15:25:06.154Z</time></trkpt><trkpt lat="41.1170317" lon="0.37381"><ele>333.0</ele><time>2026-03-31T15:25:07.153Z</time></trkpt><trkpt lat="41.116925" lon="0.3738333"><ele>333.0</ele><time>2026-03-31T15:25:08.153Z</time></trkpt><trkpt lat="41.1168267" lon="0.37388"><ele>333.0</ele><time>2026-03-31T15:25:09.154Z</time></trkpt><trkpt lat="41.1167367" lon="0.3739633"><ele>333.0</ele><time>2026-03-31T15:25:10.154Z</time></trkpt><trkpt lat="41.1166817" lon="0.3740767"><ele>333.0</ele><time>2026-03-31T15:25:11.153Z</time></trkpt><trkpt lat="41.11667" lon="0.3741917"><ele>335.5</ele><time>2026-03-31T15:25:12.153Z</time></trkpt><trkpt lat="41.1166817" lon="0.37433"><ele>338.0</ele><time>2026-03-31T15:25:13.153Z</time></trkpt><trkpt lat="41.1167" lon="0.37447"><ele>340.5</ele><time>2026-03-31T15:25:14.153Z</time></trkpt><trkpt lat="41.116725" lon="0.3746233"><ele>343.0</ele><time>2026-03-31T15:25:15.153Z</time></trkpt><trkpt lat="41.1167617" lon="0.3747783"><ele>344.0</ele><time>2026-03-31T15:25:16.153Z</time></trkpt><trkpt lat="41.1168" lon="0.3749467"><ele>345.0</ele><time>2026-03-31T15:25:17.154Z</time></trkpt><trkpt lat="41.1168283" lon="0.3751317"><ele>346.0</ele><time>2026-03-31T15:25:18.153Z</time></trkpt><trkpt lat="41.116845" lon="0.3753283"><ele>347.0</ele><time>2026-03-31T15:25:19.153Z</time></trkpt><trkpt lat="41.1168367" lon="0.3755217"><ele>348.0</ele><time>2026-03-31T15:25:20.153Z</time></trkpt><trkpt lat="41.1168333" lon="0.3757217"><ele>349.0</ele><time>2026-03-31T15:25:21.153Z</time></trkpt><trkpt lat="41.1168333" lon="0.375935"><ele>350.0</ele><time>2026-03-31T15:25:22.153Z</time></trkpt><trkpt lat="41.11685" lon="0.37615"><ele>352.0</ele><time>2026-03-31T15:25:23.153Z</time></trkpt><trkpt lat="41.116865" lon="0.3763683"><ele>354.0</ele><time>2026-03-31T15:25:24.154Z</time></trkpt><trkpt lat="41.1168817" lon="0.3765833"><ele>356.0</ele><time>2026-03-31T15:25:25.154Z</time></trkpt><trkpt lat="41.1168967" lon="0.376785"><ele>356.0</ele><time>2026-03-31T15:25:26.154Z</time></trkpt><trkpt lat="41.11692" lon="0.3769867"><ele>356.0</ele><time>2026-03-31T15:25:27.153Z</time></trkpt><trkpt lat="41.11694" lon="0.3771667"><ele>356.0</ele><time>2026-03-31T15:25:28.154Z</time></trkpt><trkpt lat="41.1169817" lon="0.3773317"><ele>356.0</ele><time>2026-03-31T15:25:29.154Z</time></trkpt><trkpt lat="41.1170517" lon="0.3775017"><ele>356.33333333333337</ele><time>2026-03-31T15:25:30.153Z</time></trkpt><trkpt lat="41.1171317" lon="0.3776733"><ele>356.6666666666667</ele><time>2026-03-31T15:25:31.154Z</time></trkpt><trkpt lat="41.1172133" lon="0.3778483"><ele>357.0</ele><time>2026-03-31T15:25:32.154Z</time></trkpt><trkpt lat="41.1172933" lon="0.3780367"><ele>358.5</ele><time>2026-03-31T15:25:33.154Z</time></trkpt><trkpt lat="41.11736" lon="0.3782233"><ele>360.0</ele><time>2026-03-31T15:25:34.153Z</time></trkpt><trkpt lat="41.1174233" lon="0.3784083"><ele>361.5</ele><time>2026-03-31T15:25:35.154Z</time></trkpt><trkpt lat="41.1174717" lon="0.3785817"><ele>363.0</ele><time>2026-03-31T15:25:36.153Z</time></trkpt><trkpt lat="41.117515" lon="0.3787567"><ele>366.0</ele><time>2026-03-31T15:25:37.154Z</time></trkpt><trkpt lat="41.1175317" lon="0.3789517"><ele>369.0</ele><time>2026-03-31T15:25:38.154Z</time></trkpt><trkpt lat="41.1175133" lon="0.379145"><ele>372.0</ele><time>2026-03-31T15:25:39.154Z</time></trkpt><trkpt lat="41.1174867" lon="0.3793467"><ele>375.0</ele><time>2026-03-31T15:25:40.153Z</time></trkpt><trkpt lat="41.1174467" lon="0.3795583"><ele>373.6666666666667</ele><time>2026-03-31T15:25:41.153Z</time></trkpt><trkpt lat="41.1174017" lon="0.379765"><ele>372.33333333333337</ele><time>2026-03-31T15:25:42.153Z</time></trkpt><trkpt lat="41.1173783" lon="0.379985"><ele>371.0</ele><time>2026-03-31T15:25:43.153Z</time></trkpt><trkpt lat="41.11737" lon="0.38021"><ele>371.0</ele><time>2026-03-31T15:25:44.153Z</time></trkpt><trkpt lat="41.117375" lon="0.3804417"><ele>371.0</ele><time>2026-03-31T15:25:45.153Z</time></trkpt><trkpt lat="41.1173967" lon="0.38067"><ele>371.0</ele><time>2026-03-31T15:25:46.153Z</time></trkpt><trkpt lat="41.1174467" lon="0.3809017"><ele>375.0</ele><time>2026-03-31T15:25:47.153Z</time></trkpt><trkpt lat="41.1174933" lon="0.3811283"><ele>379.0</ele><time>2026-03-31T15:25:48.153Z</time></trkpt><trkpt lat="41.1175483" lon="0.3813633"><ele>383.0</ele><time>2026-03-31T15:25:49.153Z</time></trkpt><trkpt lat="41.1175967" lon="0.3816"><ele>383.0</ele><time>2026-03-31T15:25:50.153Z</time></trkpt><trkpt lat="41.11765" lon="0.3818383"><ele>383.0</ele><time>2026-03-31T15:25:51.153Z</time></trkpt><trkpt lat="41.117695" lon="0.3820867"><ele>383.0</ele><time>2026-03-31T15:25:52.153Z</time></trkpt><trkpt lat="41.1177417" lon="0.3823317"><ele>383.33333333333337</ele><time>2026-03-31T15:25:53.154Z</time></trkpt><trkpt lat="41.1178" lon="0.3825717"><ele>383.6666666666667</ele><time>2026-03-31T15:25:54.154Z</time></trkpt><trkpt lat="41.1178583" lon="0.3827933"><ele>384.0</ele><time>2026-03-31T15:25:55.154Z</time></trkpt><trkpt lat="41.117915" lon="0.383015"><ele>384.0</ele><time>2026-03-31T15:25:56.154Z</time></trkpt><trkpt lat="41.117965" lon="0.3832283"><ele>384.0</ele><time>2026-03-31T15:25:57.153Z</time></trkpt><trkpt lat="41.1180133" lon="0.3834217"><ele>384.0</ele><time>2026-03-31T15:25:58.154Z</time></trkpt><trkpt lat="41.1180783" lon="0.383585"><ele>384.0</ele><time>2026-03-31T15:25:59.154Z</time></trkpt><trkpt lat="41.1181633" lon="0.383725"><ele>384.0</ele><time>2026-03-31T15:26:00.153Z</time></trkpt><trkpt lat="41.1182683" lon="0.3838433"><ele>384.0</ele><time>2026-03-31T15:26:01.154Z</time></trkpt><trkpt lat="41.1183867" lon="0.3839517"><ele>384.0</ele><time>2026-03-31T15:26:02.153Z</time></trkpt><trkpt lat="41.1185" lon="0.3840733"><ele>387.0</ele><time>2026-03-31T15:26:03.153Z</time></trkpt><trkpt lat="41.1185983" lon="0.3842267"><ele>390.0</ele><time>2026-03-31T15:26:04.153Z</time></trkpt><trkpt lat="41.1186717" lon="0.3844133"><ele>393.0</ele><time>2026-03-31T15:26:05.153Z</time></trkpt><trkpt lat="41.11871" lon="0.3846283"><ele>392.66666666666663</ele><time>2026-03-31T15:26:06.153Z</time></trkpt><trkpt lat="41.1187367" lon="0.3848467"><ele>392.3333333333333</ele><time>2026-03-31T15:26:07.153Z</time></trkpt><trkpt lat="41.11876" lon="0.3850717"><ele>392.0</ele><time>2026-03-31T15:26:08.154Z</time></trkpt><trkpt lat="41.1187883" lon="0.3852983"><ele>392.0</ele><time>2026-03-31T15:26:09.153Z</time></trkpt><trkpt lat="41.11882" lon="0.3855267"><ele>392.0</ele><time>2026-03-31T15:26:10.153Z</time></trkpt><trkpt lat="41.1188483" lon="0.3857717"><ele>392.0</ele><time>2026-03-31T15:26:11.153Z</time></trkpt><trkpt lat="41.11887" lon="0.3860117"><ele>392.0</ele><time>2026-03-31T15:26:12.153Z</time></trkpt><trkpt lat="41.1188767" lon="0.3862533"><ele>392.0</ele><time>2026-03-31T15:26:13.154Z</time></trkpt><trkpt lat="41.1188817" lon="0.3864933"><ele>392.0</ele><time>2026-03-31T15:26:14.153Z</time></trkpt><trkpt lat="41.1188967" lon="0.3867417"><ele>392.0</ele><time>2026-03-31T15:26:15.153Z</time></trkpt><trkpt lat="41.1189233" lon="0.3869933"><ele>392.0</ele><time>2026-03-31T15:26:16.153Z</time></trkpt><trkpt lat="41.1189467" lon="0.387225"><ele>392.0</ele><time>2026-03-31T15:26:17.153Z</time></trkpt><trkpt lat="41.118955" lon="0.38746"><ele>392.0</ele><time>2026-03-31T15:26:18.153Z</time></trkpt><trkpt lat="41.118965" lon="0.387695"><ele>392.0</ele><time>2026-03-31T15:26:19.154Z</time></trkpt><trkpt lat="41.1189883" lon="0.3879167"><ele>392.0</ele><time>2026-03-31T15:26:20.153Z</time></trkpt><trkpt lat="41.11903" lon="0.38814"><ele>395.66666666666663</ele><time>2026-03-31T15:26:21.153Z</time></trkpt><trkpt lat="41.1190767" lon="0.3883733"><ele>399.33333333333337</ele><time>2026-03-31T15:26:22.153Z</time></trkpt><trkpt lat="41.1191117" lon="0.38861"><ele>403.0</ele><time>2026-03-31T15:26:23.154Z</time></trkpt><trkpt lat="41.1191167" lon="0.3888617"><ele>403.6666666666667</ele><time>2026-03-31T15:26:24.153Z</time></trkpt><trkpt lat="41.1190983" lon="0.38912"><ele>404.33333333333337</ele><time>2026-03-31T15:26:25.154Z</time></trkpt><trkpt lat="41.1190767" lon="0.3893633"><ele>405.0</ele><time>2026-03-31T15:26:26.153Z</time></trkpt><trkpt lat="41.11906" lon="0.389605"><ele>403.33333333333337</ele><time>2026-03-31T15:26:27.154Z</time></trkpt><trkpt lat="41.119055" lon="0.3898233"><ele>401.6666666666667</ele><time>2026-03-31T15:26:28.153Z</time></trkpt><trkpt lat="41.11906" lon="0.3900283"><ele>400.0</ele><time>2026-03-31T15:26:29.153Z</time></trkpt><trkpt lat="41.1190817" lon="0.3902383"><ele>400.6666666666667</ele><time>2026-03-31T15:26:30.153Z</time></trkpt><trkpt lat="41.119095" lon="0.39046"><ele>401.33333333333337</ele><time>2026-03-31T15:26:31.153Z</time></trkpt><trkpt lat="41.11909" lon="0.3907033"><ele>402.0</ele><time>2026-03-31T15:26:32.153Z</time></trkpt><trkpt lat="41.119055" lon="0.39094"><ele>402.0</ele><time>2026-03-31T15:26:33.154Z</time></trkpt><trkpt lat="41.1190167" lon="0.3911867"><ele>402.0</ele><time>2026-03-31T15:26:34.153Z</time></trkpt><trkpt lat="41.1189833" lon="0.3914133"><ele>402.0</ele><time>2026-03-31T15:26:35.153Z</time></trkpt><trkpt lat="41.11895" lon="0.3916267"><ele>402.0</ele><time>2026-03-31T15:26:36.154Z</time></trkpt><trkpt lat="41.118935" lon="0.3918317"><ele>402.0</ele><time>2026-03-31T15:26:37.154Z</time></trkpt><trkpt lat="41.118945" lon="0.3920483"><ele>402.0</ele><time>2026-03-31T15:26:38.154Z</time></trkpt><trkpt lat="41.1189767" lon="0.3922617"><ele>403.0</ele><time>2026-03-31T15:26:39.153Z</time></trkpt><trkpt lat="41.11901" lon="0.3924833"><ele>404.0</ele><time>2026-03-31T15:26:40.153Z</time></trkpt><trkpt lat="41.1190433" lon="0.392715"><ele>405.0</ele><time>2026-03-31T15:26:41.153Z</time></trkpt><trkpt lat="41.119085" lon="0.3929367"><ele>410.0</ele><time>2026-03-31T15:26:42.153Z</time></trkpt><trkpt lat="41.1191333" lon="0.3931433"><ele>415.0</ele><time>2026-03-31T15:26:43.153Z</time></trkpt><trkpt lat="41.119175" lon="0.3933283"><ele>420.0</ele><time>2026-03-31T15:26:44.153Z</time></trkpt><trkpt lat="41.1192033" lon="0.3935117"><ele>425.0</ele><time>2026-03-31T15:26:45.153Z</time></trkpt><trkpt lat="41.119235" lon="0.3936883"><ele>424.0</ele><time>2026-03-31T15:26:46.153Z</time></trkpt><trkpt lat="41.1192833" lon="0.3938617"><ele>423.0</ele><time>2026-03-31T15:26:47.154Z</time></trkpt><trkpt lat="41.1193483" lon="0.394015"><ele>422.0</ele><time>2026-03-31T15:26:48.153Z</time></trkpt><trkpt lat="41.1194267" lon="0.3941483"><ele>421.0</ele><time>2026-03-31T15:26:49.154Z</time></trkpt><trkpt lat="41.1195217" lon="0.39425"><ele>421.0</ele><time>2026-03-31T15:26:50.153Z</time></trkpt><trkpt lat="41.119625" lon="0.3943683"><ele>421.0</ele><time>2026-03-31T15:26:51.153Z</time></trkpt><trkpt lat="41.11973" lon="0.3944967"><ele>421.0</ele><time>2026-03-31T15:26:52.154Z</time></trkpt><trkpt lat="41.119835" lon="0.3946467"><ele>421.0</ele><time>2026-03-31T15:26:53.153Z</time></trkpt><trkpt lat="41.1199367" lon="0.3948017"><ele>421.6666666666667</ele><time>2026-03-31T15:26:54.154Z</time></trkpt><trkpt lat="41.1200283" lon="0.394975"><ele>422.33333333333337</ele><time>2026-03-31T15:26:55.153Z</time></trkpt><trkpt lat="41.1201133" lon="0.39516"><ele>423.0</ele><time>2026-03-31T15:26:56.154Z</time></trkpt><trkpt lat="41.1201783" lon="0.3953633"><ele>422.0</ele><time>2026-03-31T15:26:57.153Z</time></trkpt><trkpt lat="41.1202483" lon="0.39555"><ele>421.0</ele><time>2026-03-31T15:26:58.153Z</time></trkpt><trkpt lat="41.1203333" lon="0.3957217"><ele>420.0</ele><time>2026-03-31T15:26:59.153Z</time></trkpt><trkpt lat="41.12041" lon="0.3959033"><ele>420.0</ele><time>2026-03-31T15:27:00.153Z</time></trkpt><trkpt lat="41.120485" lon="0.39608"><ele>420.0</ele><time>2026-03-31T15:27:01.154Z</time></trkpt><trkpt lat="41.1205617" lon="0.3962533"><ele>420.0</ele><time>2026-03-31T15:27:02.153Z</time></trkpt><trkpt lat="41.1206617" lon="0.3964067"><ele>421.75</ele><time>2026-03-31T15:27:03.153Z</time></trkpt><trkpt lat="41.1207717" lon="0.3965467"><ele>423.5</ele><time>2026-03-31T15:27:04.153Z</time></trkpt><trkpt lat="41.1208583" lon="0.396695"><ele>425.25</ele><time>2026-03-31T15:27:05.153Z</time></trkpt><trkpt lat="41.1209267" lon="0.3968717"><ele>427.0</ele><time>2026-03-31T15:27:06.153Z</time></trkpt><trkpt lat="41.1209467" lon="0.3970633"><ele>427.0</ele><time>2026-03-31T15:27:07.154Z</time></trkpt><trkpt lat="41.120925" lon="0.39726"><ele>427.0</ele><time>2026-03-31T15:27:08.154Z</time></trkpt><trkpt lat="41.1208983" lon="0.3974517"><ele>427.0</ele><time>2026-03-31T15:27:09.153Z</time></trkpt><trkpt lat="41.1208933" lon="0.3976567"><ele>427.0</ele><time>2026-03-31T15:27:10.154Z</time></trkpt><trkpt lat="41.1209183" lon="0.3978683"><ele>427.0</ele><time>2026-03-31T15:27:11.154Z</time></trkpt><trkpt lat="41.120965" lon="0.39808"><ele>427.0</ele><time>2026-03-31T15:27:12.154Z</time></trkpt><trkpt lat="41.121" lon="0.3982867"><ele>427.33333333333337</ele><time>2026-03-31T15:27:13.153Z</time></trkpt><trkpt lat="41.1210367" lon="0.3985017"><ele>427.66666666666663</ele><time>2026-03-31T15:27:14.153Z</time></trkpt><trkpt lat="41.12107" lon="0.398705"><ele>428.0</ele><time>2026-03-31T15:27:15.153Z</time></trkpt><trkpt lat="41.1211033" lon="0.398885"><ele>427.0</ele><time>2026-03-31T15:27:16.153Z</time></trkpt><trkpt lat="41.1211667" lon="0.3990733"><ele>426.0</ele><time>2026-03-31T15:27:17.154Z</time></trkpt><trkpt lat="41.1212533" lon="0.39925"><ele>425.0</ele><time>2026-03-31T15:27:18.153Z</time></trkpt><trkpt lat="41.1213467" lon="0.3994383"><ele>425.0</ele><time>2026-03-31T15:27:19.153Z</time></trkpt><trkpt lat="41.1214383" lon="0.3996533"><ele>425.0</ele><time>2026-03-31T15:27:20.154Z</time></trkpt><trkpt lat="41.1215283" lon="0.3998667"><ele>425.0</ele><time>2026-03-31T15:27:21.153Z</time></trkpt><trkpt lat="41.1216133" lon="0.4000733"><ele>426.66666666666663</ele><time>2026-03-31T15:27:22.154Z</time></trkpt><trkpt lat="41.1217133" lon="0.4002817"><ele>428.33333333333337</ele><time>2026-03-31T15:27:23.153Z</time></trkpt><trkpt lat="41.121815" lon="0.400475"><ele>430.0</ele><time>2026-03-31T15:27:24.153Z</time></trkpt><trkpt lat="41.1219183" lon="0.400695"><ele>430.0</ele><time>2026-03-31T15:27:25.154Z</time></trkpt><trkpt lat="41.122005" lon="0.400915"><ele>430.0</ele><time>2026-03-31T15:27:26.153Z</time></trkpt><trkpt lat="41.122075" lon="0.4011467"><ele>430.0</ele><time>2026-03-31T15:27:27.153Z</time></trkpt><trkpt lat="41.122125" lon="0.4013817"><ele>430.0</ele><time>2026-03-31T15:27:28.153Z</time></trkpt><trkpt lat="41.1221483" lon="0.4016167"><ele>430.0</ele><time>2026-03-31T15:27:29.154Z</time></trkpt><trkpt lat="41.12216" lon="0.4018633"><ele>430.0</ele><time>2026-03-31T15:27:30.153Z</time></trkpt><trkpt lat="41.1221567" lon="0.4021167"><ele>431.33333333333337</ele><time>2026-03-31T15:27:31.153Z</time></trkpt><trkpt lat="41.12215" lon="0.4023633"><ele>432.66666666666663</ele><time>2026-03-31T15:27:32.154Z</time></trkpt><trkpt lat="41.1221567" lon="0.4026017"><ele>434.0</ele><time>2026-03-31T15:27:33.153Z</time></trkpt><trkpt lat="41.12216" lon="0.402825"><ele>436.0</ele><time>2026-03-31T15:27:34.154Z</time></trkpt><trkpt lat="41.12216" lon="0.4030467"><ele>438.0</ele><time>2026-03-31T15:27:35.154Z</time></trkpt><trkpt lat="41.1221667" lon="0.4032567"><ele>440.0</ele><time>2026-03-31T15:27:36.153Z</time></trkpt><trkpt lat="41.12218" lon="0.4034567"><ele>440.0</ele><time>2026-03-31T15:27:37.154Z</time></trkpt><trkpt lat="41.1221867" lon="0.4036533"><ele>440.0</ele><time>2026-03-31T15:27:38.153Z</time></trkpt><trkpt lat="41.1222" lon="0.4038383"><ele>440.0</ele><time>2026-03-31T15:27:39.153Z</time></trkpt><trkpt lat="41.12222" lon="0.404005"><ele>440.0</ele><time>2026-03-31T15:27:40.153Z</time></trkpt><trkpt lat="41.122255" lon="0.404155"><ele>440.3333333333333</ele><time>2026-03-31T15:27:41.154Z</time></trkpt><trkpt lat="41.122295" lon="0.4042883"><ele>440.66666666666663</ele><time>2026-03-31T15:27:42.153Z</time></trkpt><trkpt lat="41.1223267" lon="0.404405"><ele>441.0</ele><time>2026-03-31T15:27:43.154Z</time></trkpt><trkpt lat="41.1223483" lon="0.4045033"><ele>441.33333333333337</ele><time>2026-03-31T15:27:44.153Z</time></trkpt><trkpt lat="41.12236" lon="0.40459"><ele>441.6666666666667</ele><time>2026-03-31T15:27:45.154Z</time></trkpt><trkpt lat="41.1223583" lon="0.4046867"><ele>442.0</ele><time>2026-03-31T15:27:46.153Z</time></trkpt><trkpt lat="41.122345" lon="0.4048017"><ele>442.8</ele><time>2026-03-31T15:27:47.154Z</time></trkpt><trkpt lat="41.1223317" lon="0.4049267"><ele>443.6</ele><time>2026-03-31T15:27:48.154Z</time></trkpt><trkpt lat="41.1223083" lon="0.4050517"><ele>444.40000000000003</ele><time>2026-03-31T15:27:49.154Z</time></trkpt><trkpt lat="41.122265" lon="0.4051817"><ele>445.20000000000005</ele><time>2026-03-31T15:27:50.153Z</time></trkpt><trkpt lat="41.1222033" lon="0.40528"><ele>446.0</ele><time>2026-03-31T15:27:51.153Z</time></trkpt><trkpt lat="41.1221217" lon="0.4053367"><ele>446.0</ele><time>2026-03-31T15:27:52.154Z</time></trkpt><trkpt lat="41.1220233" lon="0.4053683"><ele>446.0</ele><time>2026-03-31T15:27:53.153Z</time></trkpt><trkpt lat="41.1219167" lon="0.4053933"><ele>446.0</ele><time>2026-03-31T15:27:54.154Z</time></trkpt><trkpt lat="41.1218033" lon="0.40542"><ele>446.0</ele><time>2026-03-31T15:27:55.153Z</time></trkpt><trkpt lat="41.1216883" lon="0.4054567"><ele>446.0</ele><time>2026-03-31T15:27:56.154Z</time></trkpt><trkpt lat="41.121565" lon="0.4055017"><ele>446.5</ele><time>2026-03-31T15:27:57.153Z</time></trkpt><trkpt lat="41.1214367" lon="0.4055617"><ele>447.0</ele><time>2026-03-31T15:27:58.153Z</time></trkpt><trkpt lat="41.121315" lon="0.405635"><ele>447.5</ele><time>2026-03-31T15:27:59.153Z</time></trkpt><trkpt lat="41.1211983" lon="0.4057083"><ele>448.0</ele><time>2026-03-31T15:28:00.154Z</time></trkpt><trkpt lat="41.121085" lon="0.4057817"><ele>448.0</ele><time>2026-03-31T15:28:01.153Z</time></trkpt><trkpt lat="41.1209733" lon="0.4058517"><ele>448.0</ele><time>2026-03-31T15:28:02.153Z</time></trkpt><trkpt lat="41.1208583" lon="0.4059217"><ele>448.0</ele><time>2026-03-31T15:28:03.153Z</time></trkpt><trkpt lat="41.120745" lon="0.4059933"><ele>448.0</ele><time>2026-03-31T15:28:04.153Z</time></trkpt><trkpt lat="41.12064" lon="0.40606"><ele>449.0</ele><time>2026-03-31T15:28:05.153Z</time></trkpt><trkpt lat="41.1205267" lon="0.4061283"><ele>450.0</ele><time>2026-03-31T15:28:06.153Z</time></trkpt><trkpt lat="41.120405" lon="0.4062"><ele>451.0</ele><time>2026-03-31T15:28:07.153Z</time></trkpt><trkpt lat="41.1202883" lon="0.4062767"><ele>452.0</ele><time>2026-03-31T15:28:08.153Z</time></trkpt><trkpt lat="41.1201733" lon="0.4063467"><ele>452.25</ele><time>2026-03-31T15:28:09.153Z</time></trkpt><trkpt lat="41.12005" lon="0.406415"><ele>452.5</ele><time>2026-03-31T15:28:10.154Z</time></trkpt><trkpt lat="41.11993" lon="0.4064883"><ele>452.75</ele><time>2026-03-31T15:28:11.153Z</time></trkpt><trkpt lat="41.1198183" lon="0.4065633"><ele>453.0</ele><time>2026-03-31T15:28:12.154Z</time></trkpt><trkpt lat="41.119705" lon="0.4066367"><ele>453.25</ele><time>2026-03-31T15:28:13.153Z</time></trkpt><trkpt lat="41.119585" lon="0.4067117"><ele>453.5</ele><time>2026-03-31T15:28:14.154Z</time></trkpt><trkpt lat="41.119455" lon="0.4067883"><ele>453.75</ele><time>2026-03-31T15:28:15.153Z</time></trkpt><trkpt lat="41.1193233" lon="0.4068667"><ele>454.0</ele><time>2026-03-31T15:28:16.153Z</time></trkpt><trkpt lat="41.1191917" lon="0.4069417"><ele>454.0</ele><time>2026-03-31T15:28:17.153Z</time></trkpt><trkpt lat="41.1190617" lon="0.4070233"><ele>454.0</ele><time>2026-03-31T15:28:18.153Z</time></trkpt><trkpt lat="41.11893" lon="0.4071033"><ele>454.0</ele><time>2026-03-31T15:28:19.153Z</time></trkpt><trkpt lat="41.1188" lon="0.407185"><ele>454.0</ele><time>2026-03-31T15:28:20.153Z</time></trkpt><trkpt lat="41.1186667" lon="0.407275"><ele>454.75</ele><time>2026-03-31T15:28:21.154Z</time></trkpt><trkpt lat="41.1185283" lon="0.4073617"><ele>455.5</ele><time>2026-03-31T15:28:22.154Z</time></trkpt><trkpt lat="41.1183967" lon="0.407445"><ele>456.25</ele><time>2026-03-31T15:28:23.153Z</time></trkpt><trkpt lat="41.1182683" lon="0.4075367"><ele>457.0</ele><time>2026-03-31T15:28:24.153Z</time></trkpt><trkpt lat="41.118145" lon="0.4076217"><ele>457.0</ele><time>2026-03-31T15:28:25.153Z</time></trkpt><trkpt lat="41.1180233" lon="0.407695"><ele>457.0</ele><time>2026-03-31T15:28:26.153Z</time></trkpt><trkpt lat="41.1179167" lon="0.40778"><ele>457.0</ele><time>2026-03-31T15:28:27.153Z</time></trkpt><trkpt lat="41.1178183" lon="0.4078933"><ele>457.0</ele><time>2026-03-31T15:28:28.154Z</time></trkpt><trkpt lat="41.117715" lon="0.4080183"><ele>457.75</ele><time>2026-03-31T15:28:29.153Z</time></trkpt><trkpt lat="41.117615" lon="0.4081383"><ele>458.5</ele><time>2026-03-31T15:28:30.153Z</time></trkpt><trkpt lat="41.1175133" lon="0.408255"><ele>459.25</ele><time>2026-03-31T15:28:31.153Z</time></trkpt><trkpt lat="41.1174283" lon="0.4083717"><ele>460.0</ele><time>2026-03-31T15:28:32.154Z</time></trkpt><trkpt lat="41.1173433" lon="0.4084833"><ele>460.2</ele><time>2026-03-31T15:28:33.154Z</time></trkpt><trkpt lat="41.11727" lon="0.4085883"><ele>460.4</ele><time>2026-03-31T15:28:34.153Z</time></trkpt><trkpt lat="41.117205" lon="0.4086833"><ele>460.6</ele><time>2026-03-31T15:28:35.154Z</time></trkpt><trkpt lat="41.11715" lon="0.4087783"><ele>460.8</ele><time>2026-03-31T15:28:36.153Z</time></trkpt><trkpt lat="41.1170833" lon="0.40888"><ele>461.0</ele><time>2026-03-31T15:28:37.153Z</time></trkpt><trkpt lat="41.11701" lon="0.408975"><ele>461.75</ele><time>2026-03-31T15:28:38.153Z</time></trkpt><trkpt lat="41.116925" lon="0.4090417"><ele>462.5</ele><time>2026-03-31T15:28:39.154Z</time></trkpt><trkpt lat="41.1168217" lon="0.4090783"><ele>463.25</ele><time>2026-03-31T15:28:40.153Z</time></trkpt><trkpt lat="41.116705" lon="0.4090983"><ele>464.0</ele><time>2026-03-31T15:28:41.154Z</time></trkpt><trkpt lat="41.1165783" lon="0.4091183"><ele>463.75</ele><time>2026-03-31T15:28:42.153Z</time></trkpt><trkpt lat="41.1164467" lon="0.4091367"><ele>463.5</ele><time>2026-03-31T15:28:43.154Z</time></trkpt><trkpt lat="41.1163133" lon="0.4091433"><ele>463.25</ele><time>2026-03-31T15:28:44.153Z</time></trkpt><trkpt lat="41.11618" lon="0.409155"><ele>463.0</ele><time>2026-03-31T15:28:45.153Z</time></trkpt><trkpt lat="41.1160467" lon="0.4091683"><ele>463.0</ele><time>2026-03-31T15:28:46.153Z</time></trkpt><trkpt lat="41.1159117" lon="0.40918"><ele>463.0</ele><time>2026-03-31T15:28:47.153Z</time></trkpt><trkpt lat="41.11578" lon="0.4091933"><ele>463.0</ele><time>2026-03-31T15:28:48.153Z</time></trkpt><trkpt lat="41.1156433" lon="0.4092067"><ele>463.0</ele><time>2026-03-31T15:28:49.154Z</time></trkpt><trkpt lat="41.1155083" lon="0.40923"><ele>462.0</ele><time>2026-03-31T15:28:50.153Z</time></trkpt><trkpt lat="41.1153633" lon="0.4092717"><ele>461.0</ele><time>2026-03-31T15:28:51.154Z</time></trkpt><trkpt lat="41.115215" lon="0.4093433"><ele>460.0</ele><time>2026-03-31T15:28:52.153Z</time></trkpt><trkpt lat="41.115055" lon="0.40944"><ele>459.6666666666667</ele><time>2026-03-31T15:28:53.153Z</time></trkpt><trkpt lat="41.1149" lon="0.409565"><ele>459.33333333333337</ele><time>2026-03-31T15:28:54.153Z</time></trkpt><trkpt lat="41.1147367" lon="0.409705"><ele>459.0</ele><time>2026-03-31T15:28:55.153Z</time></trkpt><trkpt lat="41.11458" lon="0.40986"><ele>460.33333333333337</ele><time>2026-03-31T15:28:56.153Z</time></trkpt><trkpt lat="41.1144133" lon="0.4100217"><ele>461.6666666666667</ele><time>2026-03-31T15:28:57.153Z</time></trkpt><trkpt lat="41.11425" lon="0.41019"><ele>463.0</ele><time>2026-03-31T15:28:58.153Z</time></trkpt><trkpt lat="41.1141017" lon="0.4103667"><ele>464.33333333333337</ele><time>2026-03-31T15:28:59.153Z</time></trkpt><trkpt lat="41.11395" lon="0.4105433"><ele>465.66666666666663</ele><time>2026-03-31T15:29:00.154Z</time></trkpt><trkpt lat="41.11381" lon="0.4107217"><ele>467.0</ele><time>2026-03-31T15:29:01.154Z</time></trkpt><trkpt lat="41.1136633" lon="0.4108917"><ele>467.0</ele><time>2026-03-31T15:29:02.153Z</time></trkpt><trkpt lat="41.11352" lon="0.411055"><ele>467.0</ele><time>2026-03-31T15:29:03.153Z</time></trkpt><trkpt lat="41.113375" lon="0.4112317"><ele>467.0</ele><time>2026-03-31T15:29:04.153Z</time></trkpt><trkpt lat="41.1132283" lon="0.411415"><ele>467.66666666666663</ele><time>2026-03-31T15:29:05.154Z</time></trkpt><trkpt lat="41.1130917" lon="0.41161"><ele>468.33333333333337</ele><time>2026-03-31T15:29:06.154Z</time></trkpt><trkpt lat="41.1129583" lon="0.41182"><ele>469.0</ele><time>2026-03-31T15:29:07.154Z</time></trkpt><trkpt lat="41.1128183" lon="0.412025"><ele>469.6666666666667</ele><time>2026-03-31T15:29:08.153Z</time></trkpt><trkpt lat="41.112685" lon="0.4122417"><ele>470.33333333333337</ele><time>2026-03-31T15:29:09.153Z</time></trkpt><trkpt lat="41.1125533" lon="0.4124767"><ele>471.0</ele><time>2026-03-31T15:29:10.154Z</time></trkpt><trkpt lat="41.1124267" lon="0.4127183"><ele>471.0</ele><time>2026-03-31T15:29:11.153Z</time></trkpt><trkpt lat="41.1123" lon="0.4129683"><ele>471.0</ele><time>2026-03-31T15:29:12.153Z</time></trkpt><trkpt lat="41.1121883" lon="0.4132217"><ele>471.0</ele><time>2026-03-31T15:29:13.153Z</time></trkpt><trkpt lat="41.1120783" lon="0.4134783"><ele>471.0</ele><time>2026-03-31T15:29:14.153Z</time></trkpt><trkpt lat="41.1119617" lon="0.4137367"><ele>471.0</ele><time>2026-03-31T15:29:15.153Z</time></trkpt><trkpt lat="41.11186" lon="0.4140017"><ele>471.0</ele><time>2026-03-31T15:29:16.153Z</time></trkpt><trkpt lat="41.1117733" lon="0.4142533"><ele>471.0</ele><time>2026-03-31T15:29:17.154Z</time></trkpt><trkpt lat="41.1116833" lon="0.4144867"><ele>471.0</ele><time>2026-03-31T15:29:18.154Z</time></trkpt><trkpt lat="41.111585" lon="0.4146967"><ele>468.33333333333337</ele><time>2026-03-31T15:29:19.153Z</time></trkpt><trkpt lat="41.1114917" lon="0.414915"><ele>465.6666666666667</ele><time>2026-03-31T15:29:20.153Z</time></trkpt><trkpt lat="41.1114217" lon="0.4151433"><ele>463.0</ele><time>2026-03-31T15:29:21.153Z</time></trkpt><trkpt lat="41.1113633" lon="0.4153817"><ele>464.33333333333337</ele><time>2026-03-31T15:29:22.153Z</time></trkpt><trkpt lat="41.1113067" lon="0.415625"><ele>465.66666666666663</ele><time>2026-03-31T15:29:23.154Z</time></trkpt><trkpt lat="41.11125" lon="0.415865"><ele>467.0</ele><time>2026-03-31T15:29:24.153Z</time></trkpt><trkpt lat="41.1111917" lon="0.4161"><ele>469.0</ele><time>2026-03-31T15:29:25.153Z</time></trkpt><trkpt lat="41.1111133" lon="0.416325"><ele>471.0</ele><time>2026-03-31T15:29:26.153Z</time></trkpt><trkpt lat="41.1110083" lon="0.4165317"><ele>473.0</ele><time>2026-03-31T15:29:27.153Z</time></trkpt><trkpt lat="41.1108767" lon="0.41672"><ele>472.0</ele><time>2026-03-31T15:29:28.154Z</time></trkpt><trkpt lat="41.1107217" lon="0.41688"><ele>471.0</ele><time>2026-03-31T15:29:29.153Z</time></trkpt><trkpt lat="41.1105517" lon="0.41704"><ele>470.0</ele><time>2026-03-31T15:29:30.154Z</time></trkpt><trkpt lat="41.11038" lon="0.4171917"><ele>472.0</ele><time>2026-03-31T15:29:31.153Z</time></trkpt><trkpt lat="41.1102217" lon="0.4173317"><ele>474.0</ele><time>2026-03-31T15:29:32.153Z</time></trkpt><trkpt lat="41.1100833" lon="0.4174867"><ele>476.0</ele><time>2026-03-31T15:29:33.154Z</time></trkpt><trkpt lat="41.1099533" lon="0.41766"><ele>473.66666666666663</ele><time>2026-03-31T15:29:34.153Z</time></trkpt><trkpt lat="41.1098483" lon="0.41786"><ele>471.33333333333337</ele><time>2026-03-31T15:29:35.153Z</time></trkpt><trkpt lat="41.1097583" lon="0.4180883"><ele>469.0</ele><time>2026-03-31T15:29:36.153Z</time></trkpt><trkpt lat="41.1096767" lon="0.4183333"><ele>469.0</ele><time>2026-03-31T15:29:37.154Z</time></trkpt><trkpt lat="41.1096033" lon="0.4185867"><ele>469.0</ele><time>2026-03-31T15:29:38.154Z</time></trkpt><trkpt lat="41.10954" lon="0.4188483"><ele>469.0</ele><time>2026-03-31T15:29:39.154Z</time></trkpt><trkpt lat="41.1094867" lon="0.4191067"><ele>469.6666666666667</ele><time>2026-03-31T15:29:40.153Z</time></trkpt><trkpt lat="41.1094417" lon="0.4193633"><ele>470.33333333333337</ele><time>2026-03-31T15:29:41.153Z</time></trkpt><trkpt lat="41.1093883" lon="0.419595"><ele>471.0</ele><time>2026-03-31T15:29:42.153Z</time></trkpt><trkpt lat="41.1093217" lon="0.4197967"><ele>471.0</ele><time>2026-03-31T15:29:43.154Z</time></trkpt><trkpt lat="41.109255" lon="0.41996"><ele>471.0</ele><time>2026-03-31T15:29:44.153Z</time></trkpt><trkpt lat="41.1091867" lon="0.420085"><ele>471.0</ele><time>2026-03-31T15:29:45.154Z</time></trkpt><trkpt lat="41.109135" lon="0.4201883"><ele>471.0</ele><time>2026-03-31T15:29:46.153Z</time></trkpt><trkpt lat="41.1090917" lon="0.4202633"><ele>471.0</ele><time>2026-03-31T15:29:47.154Z</time></trkpt><trkpt lat="41.1090233" lon="0.4203433"><ele>470.5</ele><time>2026-03-31T15:29:49.153Z</time></trkpt><trkpt lat="41.1089983" lon="0.4204367"><ele>470.0</ele><time>2026-03-31T15:29:51.154Z</time></trkpt><trkpt lat="41.1090483" lon="0.42054"><ele>469.5</ele><time>2026-03-31T15:29:53.153Z</time></trkpt><trkpt lat="41.1091083" lon="0.4205867"><ele>469.0</ele><time>2026-03-31T15:29:54.153Z</time></trkpt><trkpt lat="41.1091817" lon="0.420645"><ele>468.5</ele><time>2026-03-31T15:29:55.153Z</time></trkpt><trkpt lat="41.1092583" lon="0.4207167"><ele>468.0</ele><time>2026-03-31T15:29:56.153Z</time></trkpt><trkpt lat="41.1093417" lon="0.4208183"><ele>468.0</ele><time>2026-03-31T15:29:57.153Z</time></trkpt><trkpt lat="41.1094267" lon="0.420935"><ele>468.0</ele><time>2026-03-31T15:29:58.153Z</time></trkpt><trkpt lat="41.1095117" lon="0.4210567"><ele>468.0</ele><time>2026-03-31T15:29:59.153Z</time></trkpt><trkpt lat="41.1096017" lon="0.4211783"><ele>468.0</ele><time>2026-03-31T15:30:00.154Z</time></trkpt><trkpt lat="41.109695" lon="0.42131"><ele>469.0</ele><time>2026-03-31T15:30:01.153Z</time></trkpt><trkpt lat="41.1097933" lon="0.4214467"><ele>470.0</ele><time>2026-03-31T15:30:02.153Z</time></trkpt><trkpt lat="41.1098883" lon="0.42159"><ele>471.0</ele><time>2026-03-31T15:30:03.153Z</time></trkpt><trkpt lat="41.1099667" lon="0.4217517"><ele>472.0</ele><time>2026-03-31T15:30:04.153Z</time></trkpt><trkpt lat="41.1100333" lon="0.4219417"><ele>473.33333333333337</ele><time>2026-03-31T15:30:05.153Z</time></trkpt><trkpt lat="41.1100867" lon="0.4221367"><ele>474.66666666666663</ele><time>2026-03-31T15:30:06.153Z</time></trkpt><trkpt lat="41.1101333" lon="0.422335"><ele>476.0</ele><time>2026-03-31T15:30:07.154Z</time></trkpt><trkpt lat="41.1101783" lon="0.4225367"><ele>476.0</ele><time>2026-03-31T15:30:08.154Z</time></trkpt><trkpt lat="41.1102233" lon="0.422745"><ele>476.0</ele><time>2026-03-31T15:30:09.153Z</time></trkpt><trkpt lat="41.11028" lon="0.4229633"><ele>476.0</ele><time>2026-03-31T15:30:10.154Z</time></trkpt><trkpt lat="41.1103417" lon="0.4231883"><ele>473.66666666666663</ele><time>2026-03-31T15:30:11.154Z</time></trkpt><trkpt lat="41.1104067" lon="0.4234183"><ele>471.33333333333337</ele><time>2026-03-31T15:30:12.153Z</time></trkpt><trkpt lat="41.1104733" lon="0.42365"><ele>469.0</ele><time>2026-03-31T15:30:13.154Z</time></trkpt><trkpt lat="41.1105383" lon="0.423885"><ele>468.6666666666667</ele><time>2026-03-31T15:30:14.153Z</time></trkpt><trkpt lat="41.110605" lon="0.42411"><ele>468.33333333333337</ele><time>2026-03-31T15:30:15.154Z</time></trkpt><trkpt lat="41.1106783" lon="0.4243167"><ele>468.0</ele><time>2026-03-31T15:30:16.153Z</time></trkpt><trkpt lat="41.1107517" lon="0.4245067"><ele>471.33333333333337</ele><time>2026-03-31T15:30:17.153Z</time></trkpt><trkpt lat="41.1108333" lon="0.4246733"><ele>474.6666666666667</ele><time>2026-03-31T15:30:18.154Z</time></trkpt><trkpt lat="41.1109267" lon="0.424825"><ele>478.0</ele><time>2026-03-31T15:30:19.153Z</time></trkpt><trkpt lat="41.1110333" lon="0.4249733"><ele>478.0</ele><time>2026-03-31T15:30:20.153Z</time></trkpt><trkpt lat="41.111135" lon="0.4251283"><ele>478.0</ele><time>2026-03-31T15:30:21.153Z</time></trkpt><trkpt lat="41.1112317" lon="0.4252933"><ele>478.0</ele><time>2026-03-31T15:30:22.154Z</time></trkpt><trkpt lat="41.1113283" lon="0.4254717"><ele>478.33333333333337</ele><time>2026-03-31T15:30:23.153Z</time></trkpt><trkpt lat="41.1114133" lon="0.4256583"><ele>478.66666666666663</ele><time>2026-03-31T15:30:24.153Z</time></trkpt><trkpt lat="41.111495" lon="0.4258433"><ele>479.0</ele><time>2026-03-31T15:30:25.154Z</time></trkpt><trkpt lat="41.111595" lon="0.4260233"><ele>479.0</ele><time>2026-03-31T15:30:26.154Z</time></trkpt><trkpt lat="41.1117133" lon="0.4261967"><ele>479.0</ele><time>2026-03-31T15:30:27.153Z</time></trkpt><trkpt lat="41.1118433" lon="0.426365"><ele>479.0</ele><time>2026-03-31T15:30:28.153Z</time></trkpt><trkpt lat="41.1119783" lon="0.4265333"><ele>479.0</ele><time>2026-03-31T15:30:29.153Z</time></trkpt><trkpt lat="41.1121083" lon="0.426705"><ele>479.0</ele><time>2026-03-31T15:30:30.154Z</time></trkpt><trkpt lat="41.1122417" lon="0.4268767"><ele>479.0</ele><time>2026-03-31T15:30:31.153Z</time></trkpt><trkpt lat="41.1123733" lon="0.4270517"><ele>478.66666666666663</ele><time>2026-03-31T15:30:32.154Z</time></trkpt><trkpt lat="41.1125033" lon="0.4272283"><ele>478.33333333333337</ele><time>2026-03-31T15:30:33.153Z</time></trkpt><trkpt lat="41.1126367" lon="0.427405"><ele>478.0</ele><time>2026-03-31T15:30:34.153Z</time></trkpt><trkpt lat="41.1127583" lon="0.42759"><ele>478.0</ele><time>2026-03-31T15:30:35.154Z</time></trkpt><trkpt lat="41.1128683" lon="0.4277883"><ele>478.0</ele><time>2026-03-31T15:30:36.153Z</time></trkpt><trkpt lat="41.1129783" lon="0.4279783"><ele>478.0</ele><time>2026-03-31T15:30:37.154Z</time></trkpt><trkpt lat="41.11307" lon="0.4281467"><ele>477.6666666666667</ele><time>2026-03-31T15:30:38.153Z</time></trkpt><trkpt lat="41.1131833" lon="0.428305"><ele>477.33333333333337</ele><time>2026-03-31T15:30:39.153Z</time></trkpt><trkpt lat="41.11331" lon="0.4284567"><ele>477.0</ele><time>2026-03-31T15:30:40.153Z</time></trkpt><trkpt lat="41.11344" lon="0.4286183"><ele>479.33333333333337</ele><time>2026-03-31T15:30:41.154Z</time></trkpt><trkpt lat="41.11356" lon="0.4288117"><ele>481.6666666666667</ele><time>2026-03-31T15:30:42.154Z</time></trkpt><trkpt lat="41.113685" lon="0.42902"><ele>484.0</ele><time>2026-03-31T15:30:43.153Z</time></trkpt><trkpt lat="41.1138067" lon="0.4292317"><ele>484.0</ele><time>2026-03-31T15:30:44.153Z</time></trkpt><trkpt lat="41.1139183" lon="0.4294467"><ele>484.0</ele><time>2026-03-31T15:30:45.153Z</time></trkpt><trkpt lat="41.11404" lon="0.4296633"><ele>484.0</ele><time>2026-03-31T15:30:46.153Z</time></trkpt><trkpt lat="41.114165" lon="0.4298867"><ele>484.33333333333337</ele><time>2026-03-31T15:30:47.153Z</time></trkpt><trkpt lat="41.1142833" lon="0.43011"><ele>484.66666666666663</ele><time>2026-03-31T15:30:48.153Z</time></trkpt><trkpt lat="41.1144" lon="0.430335"><ele>485.0</ele><time>2026-03-31T15:30:49.153Z</time></trkpt><trkpt lat="41.1145133" lon="0.43056"><ele>485.0</ele><time>2026-03-31T15:30:50.154Z</time></trkpt><trkpt lat="41.1146267" lon="0.4307867"><ele>485.0</ele><time>2026-03-31T15:30:51.154Z</time></trkpt><trkpt lat="41.11474" lon="0.4310133"><ele>485.0</ele><time>2026-03-31T15:30:52.154Z</time></trkpt><trkpt lat="41.11486" lon="0.431235"><ele>484.66666666666663</ele><time>2026-03-31T15:30:53.153Z</time></trkpt><trkpt lat="41.1149767" lon="0.4314567"><ele>484.33333333333337</ele><time>2026-03-31T15:30:54.153Z</time></trkpt><trkpt lat="41.115105" lon="0.4316667"><ele>484.0</ele><time>2026-03-31T15:30:55.154Z</time></trkpt><trkpt lat="41.1152417" lon="0.4318583"><ele>484.0</ele><time>2026-03-31T15:30:56.153Z</time></trkpt><trkpt lat="41.11538" lon="0.43204"><ele>484.0</ele><time>2026-03-31T15:30:57.154Z</time></trkpt><trkpt lat="41.1155083" lon="0.4322217"><ele>484.0</ele><time>2026-03-31T15:30:58.153Z</time></trkpt><trkpt lat="41.1156233" lon="0.4324133"><ele>484.0</ele><time>2026-03-31T15:30:59.154Z</time></trkpt><trkpt lat="41.115725" lon="0.4326283"><ele>484.0</ele><time>2026-03-31T15:31:00.153Z</time></trkpt><trkpt lat="41.11582" lon="0.4328617"><ele>484.0</ele><time>2026-03-31T15:31:01.153Z</time></trkpt><trkpt lat="41.1159083" lon="0.4330983"><ele>484.33333333333337</ele><time>2026-03-31T15:31:02.153Z</time></trkpt><trkpt lat="41.1160017" lon="0.4333267"><ele>484.66666666666663</ele><time>2026-03-31T15:31:03.154Z</time></trkpt><trkpt lat="41.1160933" lon="0.433535"><ele>485.0</ele><time>2026-03-31T15:31:04.153Z</time></trkpt><trkpt lat="41.1161817" lon="0.4337217"><ele>484.66666666666663</ele><time>2026-03-31T15:31:05.154Z</time></trkpt><trkpt lat="41.1162667" lon="0.4338917"><ele>484.33333333333337</ele><time>2026-03-31T15:31:06.153Z</time></trkpt><trkpt lat="41.116335" lon="0.4340767"><ele>484.0</ele><time>2026-03-31T15:31:07.154Z</time></trkpt><trkpt lat="41.11637" lon="0.4342683"><ele>484.0</ele><time>2026-03-31T15:31:08.153Z</time></trkpt><trkpt lat="41.1163833" lon="0.4344717"><ele>484.0</ele><time>2026-03-31T15:31:09.153Z</time></trkpt><trkpt lat="41.11638" lon="0.4346867"><ele>484.0</ele><time>2026-03-31T15:31:10.153Z</time></trkpt><trkpt lat="41.1163633" lon="0.4349017"><ele>484.6666666666667</ele><time>2026-03-31T15:31:11.153Z</time></trkpt><trkpt lat="41.11633" lon="0.435105"><ele>485.33333333333337</ele><time>2026-03-31T15:31:12.153Z</time></trkpt><trkpt lat="41.11629" lon="0.4352983"><ele>486.0</ele><time>2026-03-31T15:31:13.153Z</time></trkpt><trkpt lat="41.116255" lon="0.4354833"><ele>487.33333333333337</ele><time>2026-03-31T15:31:14.153Z</time></trkpt><trkpt lat="41.116235" lon="0.435695"><ele>488.6666666666667</ele><time>2026-03-31T15:31:15.153Z</time></trkpt><trkpt lat="41.1162333" lon="0.435905"><ele>490.0</ele><time>2026-03-31T15:31:16.153Z</time></trkpt><trkpt lat="41.116255" lon="0.4361167"><ele>489.33333333333337</ele><time>2026-03-31T15:31:17.153Z</time></trkpt><trkpt lat="41.1162883" lon="0.436335"><ele>488.66666666666663</ele><time>2026-03-31T15:31:18.153Z</time></trkpt><trkpt lat="41.1163233" lon="0.43656"><ele>488.0</ele><time>2026-03-31T15:31:19.153Z</time></trkpt><trkpt lat="41.116355" lon="0.4367883"><ele>488.0</ele><time>2026-03-31T15:31:20.153Z</time></trkpt><trkpt lat="41.1163867" lon="0.437015"><ele>488.0</ele><time>2026-03-31T15:31:21.153Z</time></trkpt><trkpt lat="41.1164117" lon="0.4372533"><ele>488.0</ele><time>2026-03-31T15:31:22.153Z</time></trkpt><trkpt lat="41.116435" lon="0.4374933"><ele>485.66666666666663</ele><time>2026-03-31T15:31:23.154Z</time></trkpt><trkpt lat="41.116465" lon="0.43774"><ele>483.33333333333337</ele><time>2026-03-31T15:31:24.153Z</time></trkpt><trkpt lat="41.1164833" lon="0.4379883"><ele>481.0</ele><time>2026-03-31T15:31:25.153Z</time></trkpt><trkpt lat="41.1165033" lon="0.4382433"><ele>480.33333333333337</ele><time>2026-03-31T15:31:26.153Z</time></trkpt><trkpt lat="41.1165217" lon="0.4384817"><ele>479.66666666666663</ele><time>2026-03-31T15:31:27.153Z</time></trkpt><trkpt lat="41.1165433" lon="0.4386983"><ele>479.0</ele><time>2026-03-31T15:31:28.153Z</time></trkpt><trkpt lat="41.1165783" lon="0.438895"><ele>484.66666666666663</ele><time>2026-03-31T15:31:29.153Z</time></trkpt><trkpt lat="41.116635" lon="0.4390917"><ele>490.33333333333337</ele><time>2026-03-31T15:31:30.153Z</time></trkpt><trkpt lat="41.116705" lon="0.4392767"><ele>496.0</ele><time>2026-03-31T15:31:31.154Z</time></trkpt><trkpt lat="41.116765" lon="0.439465"><ele>495.75</ele><time>2026-03-31T15:31:32.153Z</time></trkpt><trkpt lat="41.1168267" lon="0.439645"><ele>495.5</ele><time>2026-03-31T15:31:33.153Z</time></trkpt><trkpt lat="41.116905" lon="0.4397967"><ele>495.25</ele><time>2026-03-31T15:31:34.153Z</time></trkpt><trkpt lat="41.1170017" lon="0.4399367"><ele>495.0</ele><time>2026-03-31T15:31:35.153Z</time></trkpt><trkpt lat="41.11712" lon="0.4400767"><ele>495.0</ele><time>2026-03-31T15:31:36.153Z</time></trkpt><trkpt lat="41.1172583" lon="0.4402217"><ele>495.0</ele><time>2026-03-31T15:31:37.154Z</time></trkpt><trkpt lat="41.1173967" lon="0.4403733"><ele>495.0</ele><time>2026-03-31T15:31:38.153Z</time></trkpt><trkpt lat="41.11754" lon="0.440515"><ele>495.0</ele><time>2026-03-31T15:31:39.153Z</time></trkpt><trkpt lat="41.11769" lon="0.4406433"><ele>495.0</ele><time>2026-03-31T15:31:40.154Z</time></trkpt><trkpt lat="41.1178467" lon="0.4407667"><ele>495.0</ele><time>2026-03-31T15:31:41.153Z</time></trkpt><trkpt lat="41.1180017" lon="0.4408933"><ele>495.0</ele><time>2026-03-31T15:31:42.153Z</time></trkpt><trkpt lat="41.1181533" lon="0.4410133"><ele>495.0</ele><time>2026-03-31T15:31:43.153Z</time></trkpt><trkpt lat="41.1183033" lon="0.4411233"><ele>495.0</ele><time>2026-03-31T15:31:44.153Z</time></trkpt><trkpt lat="41.1184417" lon="0.441215"><ele>494.33333333333337</ele><time>2026-03-31T15:31:45.153Z</time></trkpt><trkpt lat="41.118585" lon="0.4412733"><ele>493.6666666666667</ele><time>2026-03-31T15:31:46.153Z</time></trkpt><trkpt lat="41.11874" lon="0.4413"><ele>493.0</ele><time>2026-03-31T15:31:47.153Z</time></trkpt><trkpt lat="41.1189033" lon="0.4413017"><ele>493.6666666666667</ele><time>2026-03-31T15:31:48.154Z</time></trkpt><trkpt lat="41.11907" lon="0.4412917"><ele>494.33333333333337</ele><time>2026-03-31T15:31:49.154Z</time></trkpt><trkpt lat="41.1192483" lon="0.4412717"><ele>495.0</ele><time>2026-03-31T15:31:50.153Z</time></trkpt><trkpt lat="41.1194233" lon="0.4412517"><ele>495.0</ele><time>2026-03-31T15:31:51.154Z</time></trkpt><trkpt lat="41.1196017" lon="0.4412483"><ele>495.0</ele><time>2026-03-31T15:31:52.153Z</time></trkpt><trkpt lat="41.1197917" lon="0.44126"><ele>495.0</ele><time>2026-03-31T15:31:53.154Z</time></trkpt><trkpt lat="41.11998" lon="0.441275"><ele>495.0</ele><time>2026-03-31T15:31:54.154Z</time></trkpt><trkpt lat="41.1201633" lon="0.441295"><ele>495.0</ele><time>2026-03-31T15:31:55.153Z</time></trkpt><trkpt lat="41.12035" lon="0.4413217"><ele>495.0</ele><time>2026-03-31T15:31:56.153Z</time></trkpt><trkpt lat="41.1205317" lon="0.4413717"><ele>494.33333333333337</ele><time>2026-03-31T15:31:57.153Z</time></trkpt><trkpt lat="41.1207117" lon="0.4414283"><ele>493.6666666666667</ele><time>2026-03-31T15:31:58.154Z</time></trkpt><trkpt lat="41.1208867" lon="0.4415083"><ele>493.0</ele><time>2026-03-31T15:31:59.154Z</time></trkpt><trkpt lat="41.1210667" lon="0.4415983"><ele>492.6666666666667</ele><time>2026-03-31T15:32:00.154Z</time></trkpt><trkpt lat="41.121245" lon="0.4416883"><ele>492.33333333333337</ele><time>2026-03-31T15:32:01.153Z</time></trkpt><trkpt lat="41.12142" lon="0.4417817"><ele>492.0</ele><time>2026-03-31T15:32:02.153Z</time></trkpt><trkpt lat="41.1215983" lon="0.441875"><ele>492.0</ele><time>2026-03-31T15:32:03.153Z</time></trkpt><trkpt lat="41.1217617" lon="0.4419817"><ele>492.0</ele><time>2026-03-31T15:32:04.153Z</time></trkpt><trkpt lat="41.1219283" lon="0.442095"><ele>492.0</ele><time>2026-03-31T15:32:05.153Z</time></trkpt><trkpt lat="41.1220883" lon="0.4422117"><ele>492.0</ele><time>2026-03-31T15:32:06.154Z</time></trkpt><trkpt lat="41.122255" lon="0.4423217"><ele>492.0</ele><time>2026-03-31T15:32:07.153Z</time></trkpt><trkpt lat="41.1224183" lon="0.4424183"><ele>492.0</ele><time>2026-03-31T15:32:08.153Z</time></trkpt><trkpt lat="41.12258" lon="0.4425183"><ele>492.0</ele><time>2026-03-31T15:32:09.153Z</time></trkpt><trkpt lat="41.1227317" lon="0.4426317"><ele>492.0</ele><time>2026-03-31T15:32:10.154Z</time></trkpt><trkpt lat="41.1228717" lon="0.44278"><ele>492.0</ele><time>2026-03-31T15:32:11.154Z</time></trkpt><trkpt lat="41.12299" lon="0.44296"><ele>490.33333333333337</ele><time>2026-03-31T15:32:12.154Z</time></trkpt><trkpt lat="41.1230933" lon="0.4431633"><ele>488.6666666666667</ele><time>2026-03-31T15:32:13.154Z</time></trkpt><trkpt lat="41.123175" lon="0.4433933"><ele>487.0</ele><time>2026-03-31T15:32:14.153Z</time></trkpt><trkpt lat="41.12325" lon="0.44363"><ele>491.33333333333337</ele><time>2026-03-31T15:32:15.153Z</time></trkpt><trkpt lat="41.1233283" lon="0.4438783"><ele>495.66666666666663</ele><time>2026-03-31T15:32:16.153Z</time></trkpt><trkpt lat="41.1234183" lon="0.4440967"><ele>500.0</ele><time>2026-03-31T15:32:17.154Z</time></trkpt><trkpt lat="41.1235017" lon="0.4443017"><ele>500.0</ele><time>2026-03-31T15:32:18.154Z</time></trkpt><trkpt lat="41.1235867" lon="0.4445033"><ele>500.0</ele><time>2026-03-31T15:32:19.154Z</time></trkpt><trkpt lat="41.123685" lon="0.44469"><ele>500.0</ele><time>2026-03-31T15:32:20.154Z</time></trkpt><trkpt lat="41.1238033" lon="0.4448717"><ele>500.3333333333333</ele><time>2026-03-31T15:32:21.154Z</time></trkpt><trkpt lat="41.1239333" lon="0.44504"><ele>500.66666666666663</ele><time>2026-03-31T15:32:22.154Z</time></trkpt><trkpt lat="41.1240817" lon="0.4451917"><ele>501.0</ele><time>2026-03-31T15:32:23.154Z</time></trkpt><trkpt lat="41.12424" lon="0.4453233"><ele>502.66666666666663</ele><time>2026-03-31T15:32:24.154Z</time></trkpt><trkpt lat="41.1244167" lon="0.4454267"><ele>504.3333333333333</ele><time>2026-03-31T15:32:25.154Z</time></trkpt><trkpt lat="41.124605" lon="0.44551"><ele>506.0</ele><time>2026-03-31T15:32:26.154Z</time></trkpt><trkpt lat="41.1248" lon="0.4455633"><ele>509.66666666666663</ele><time>2026-03-31T15:32:27.154Z</time></trkpt><trkpt lat="41.1249967" lon="0.445585"><ele>513.3333333333334</ele><time>2026-03-31T15:32:28.153Z</time></trkpt><trkpt lat="41.1251833" lon="0.44558"><ele>517.0</ele><time>2026-03-31T15:32:29.153Z</time></trkpt><trkpt lat="41.12538" lon="0.445565"><ele>517.0</ele><time>2026-03-31T15:32:30.153Z</time></trkpt><trkpt lat="41.1255817" lon="0.445555"><ele>517.0</ele><time>2026-03-31T15:32:31.153Z</time></trkpt><trkpt lat="41.1257767" lon="0.4455517"><ele>517.0</ele><time>2026-03-31T15:32:32.153Z</time></trkpt><trkpt lat="41.1259767" lon="0.445565"><ele>517.6666666666667</ele><time>2026-03-31T15:32:33.153Z</time></trkpt><trkpt lat="41.1261833" lon="0.4456067"><ele>518.3333333333334</ele><time>2026-03-31T15:32:34.153Z</time></trkpt><trkpt lat="41.1263833" lon="0.445685"><ele>519.0</ele><time>2026-03-31T15:32:35.153Z</time></trkpt><trkpt lat="41.1265667" lon="0.4457983"><ele>520.0</ele><time>2026-03-31T15:32:36.153Z</time></trkpt><trkpt lat="41.1267417" lon="0.4459233"><ele>521.0</ele><time>2026-03-31T15:32:37.154Z</time></trkpt><trkpt lat="41.126905" lon="0.44606"><ele>522.0</ele><time>2026-03-31T15:32:38.153Z</time></trkpt><trkpt lat="41.1270583" lon="0.4462033"><ele>521.3333333333334</ele><time>2026-03-31T15:32:39.153Z</time></trkpt><trkpt lat="41.1272083" lon="0.4463517"><ele>520.6666666666667</ele><time>2026-03-31T15:32:40.154Z</time></trkpt><trkpt lat="41.1273567" lon="0.44651"><ele>520.0</ele><time>2026-03-31T15:32:41.154Z</time></trkpt><trkpt lat="41.1275" lon="0.4466817"><ele>520.0</ele><time>2026-03-31T15:32:42.153Z</time></trkpt><trkpt lat="41.127635" lon="0.44687"><ele>520.0</ele><time>2026-03-31T15:32:43.153Z</time></trkpt><trkpt lat="41.127775" lon="0.4470517"><ele>520.0</ele><time>2026-03-31T15:32:44.153Z</time></trkpt><trkpt lat="41.1279233" lon="0.4472383"><ele>520.0</ele><time>2026-03-31T15:32:45.154Z</time></trkpt><trkpt lat="41.1280733" lon="0.447415"><ele>520.0</ele><time>2026-03-31T15:32:46.153Z</time></trkpt><trkpt lat="41.1282267" lon="0.4475867"><ele>520.0</ele><time>2026-03-31T15:32:47.154Z</time></trkpt><trkpt lat="41.1283883" lon="0.4477617"><ele>520.0</ele><time>2026-03-31T15:32:48.153Z</time></trkpt><trkpt lat="41.1285483" lon="0.4479367"><ele>520.0</ele><time>2026-03-31T15:32:49.154Z</time></trkpt><trkpt lat="41.1287067" lon="0.4481117"><ele>520.0</ele><time>2026-03-31T15:32:50.154Z</time></trkpt><trkpt lat="41.128865" lon="0.4482817"><ele>520.3333333333334</ele><time>2026-03-31T15:32:51.154Z</time></trkpt><trkpt lat="41.1290083" lon="0.4484633"><ele>520.6666666666666</ele><time>2026-03-31T15:32:52.153Z</time></trkpt><trkpt lat="41.1291317" lon="0.4486733"><ele>521.0</ele><time>2026-03-31T15:32:53.154Z</time></trkpt><trkpt lat="41.1292367" lon="0.448905"><ele>520.0</ele><time>2026-03-31T15:32:54.154Z</time></trkpt><trkpt lat="41.1293367" lon="0.449135"><ele>519.0</ele><time>2026-03-31T15:32:55.153Z</time></trkpt><trkpt lat="41.1294317" lon="0.4493683"><ele>518.0</ele><time>2026-03-31T15:32:56.153Z</time></trkpt><trkpt lat="41.129525" lon="0.4496033"><ele>517.6666666666666</ele><time>2026-03-31T15:32:57.153Z</time></trkpt><trkpt lat="41.1296283" lon="0.44981"><ele>517.3333333333334</ele><time>2026-03-31T15:32:58.153Z</time></trkpt><trkpt lat="41.1297533" lon="0.44998"><ele>517.0</ele><time>2026-03-31T15:32:59.153Z</time></trkpt><trkpt lat="41.12991" lon="0.4501283"><ele>515.0</ele><time>2026-03-31T15:33:00.153Z</time></trkpt><trkpt lat="41.1300983" lon="0.4502483"><ele>513.0</ele><time>2026-03-31T15:33:01.154Z</time></trkpt><trkpt lat="41.1302933" lon="0.4503717"><ele>511.0</ele><time>2026-03-31T15:33:02.153Z</time></trkpt><trkpt lat="41.13049" lon="0.4504917"><ele>511.0</ele><time>2026-03-31T15:33:03.153Z</time></trkpt><trkpt lat="41.1306917" lon="0.4506167"><ele>511.0</ele><time>2026-03-31T15:33:04.154Z</time></trkpt><trkpt lat="41.13089" lon="0.4507417"><ele>511.0</ele><time>2026-03-31T15:33:05.154Z</time></trkpt><trkpt lat="41.1310883" lon="0.4508717"><ele>512.3333333333334</ele><time>2026-03-31T15:33:06.154Z</time></trkpt><trkpt lat="41.1312917" lon="0.4509933"><ele>513.6666666666666</ele><time>2026-03-31T15:33:07.154Z</time></trkpt><trkpt lat="41.1314967" lon="0.4511083"><ele>515.0</ele><time>2026-03-31T15:33:08.153Z</time></trkpt><trkpt lat="41.131705" lon="0.4512217"><ele>515.5</ele><time>2026-03-31T15:33:09.153Z</time></trkpt><trkpt lat="41.1319233" lon="0.4513283"><ele>516.0</ele><time>2026-03-31T15:33:10.154Z</time></trkpt><trkpt lat="41.1321467" lon="0.4514283"><ele>516.0</ele><time>2026-03-31T15:33:11.153Z</time></trkpt><trkpt lat="41.132375" lon="0.4515183"><ele>516.0</ele><time>2026-03-31T15:33:12.153Z</time></trkpt><trkpt lat="41.1326033" lon="0.4515967"><ele>518.0</ele><time>2026-03-31T15:33:13.153Z</time></trkpt><trkpt lat="41.1328283" lon="0.45168"><ele>520.0</ele><time>2026-03-31T15:33:14.153Z</time></trkpt><trkpt lat="41.1330517" lon="0.45176"><ele>521.3333333333334</ele><time>2026-03-31T15:33:15.153Z</time></trkpt><trkpt lat="41.1332567" lon="0.45187"><ele>522.6666666666666</ele><time>2026-03-31T15:33:16.154Z</time></trkpt><trkpt lat="41.1334517" lon="0.452"><ele>524.0</ele><time>2026-03-31T15:33:17.154Z</time></trkpt><trkpt lat="41.1336267" lon="0.4521667"><ele>525.3333333333333</ele><time>2026-03-31T15:33:18.153Z</time></trkpt><trkpt lat="41.1337817" lon="0.4523583"><ele>526.6666666666666</ele><time>2026-03-31T15:33:19.153Z</time></trkpt><trkpt lat="41.1339233" lon="0.45257"><ele>528.0</ele><time>2026-03-31T15:33:20.154Z</time></trkpt><trkpt lat="41.13406" lon="0.4528"><ele>530.0</ele><time>2026-03-31T15:33:21.153Z</time></trkpt><trkpt lat="41.134185" lon="0.4530583"><ele>532.0</ele><time>2026-03-31T15:33:22.154Z</time></trkpt><trkpt lat="41.134305" lon="0.4533183"><ele>532.0</ele><time>2026-03-31T15:33:23.154Z</time></trkpt><trkpt lat="41.1344333" lon="0.4535767"><ele>532.0</ele><time>2026-03-31T15:33:24.153Z</time></trkpt><trkpt lat="41.13456" lon="0.4538183"><ele>532.0</ele><time>2026-03-31T15:33:25.154Z</time></trkpt><trkpt lat="41.13468" lon="0.4540483"><ele>532.0</ele><time>2026-03-31T15:33:26.153Z</time></trkpt><trkpt lat="41.134795" lon="0.4542933"><ele>532.0</ele><time>2026-03-31T15:33:27.154Z</time></trkpt><trkpt lat="41.13492" lon="0.4545467"><ele>528.3333333333334</ele><time>2026-03-31T15:33:28.153Z</time></trkpt><trkpt lat="41.1350417" lon="0.4547783"><ele>524.6666666666666</ele><time>2026-03-31T15:33:29.153Z</time></trkpt><trkpt lat="41.135175" lon="0.4549817"><ele>521.0</ele><time>2026-03-31T15:33:30.154Z</time></trkpt><trkpt lat="41.135325" lon="0.4551533"><ele>521.0</ele><time>2026-03-31T15:33:31.153Z</time></trkpt><trkpt lat="41.1354933" lon="0.4553017"><ele>521.0</ele><time>2026-03-31T15:33:32.154Z</time></trkpt><trkpt lat="41.1356683" lon="0.4554167"><ele>521.0</ele><time>2026-03-31T15:33:33.153Z</time></trkpt><trkpt lat="41.1358567" lon="0.455505"><ele>519.3333333333333</ele><time>2026-03-31T15:33:34.154Z</time></trkpt><trkpt lat="41.136045" lon="0.4555917"><ele>517.6666666666666</ele><time>2026-03-31T15:33:35.154Z</time></trkpt><trkpt lat="41.1362383" lon="0.4556767"><ele>516.0</ele><time>2026-03-31T15:33:36.153Z</time></trkpt><trkpt lat="41.1364333" lon="0.4557717"><ele>516.3333333333334</ele><time>2026-03-31T15:33:37.153Z</time></trkpt><trkpt lat="41.1366217" lon="0.455895"><ele>516.6666666666667</ele><time>2026-03-31T15:33:38.153Z</time></trkpt><trkpt lat="41.136795" lon="0.45603"><ele>517.0</ele><time>2026-03-31T15:33:39.154Z</time></trkpt><trkpt lat="41.1369583" lon="0.4562"><ele>515.3333333333334</ele><time>2026-03-31T15:33:40.154Z</time></trkpt><trkpt lat="41.1370983" lon="0.4564067"><ele>513.6666666666666</ele><time>2026-03-31T15:33:41.153Z</time></trkpt><trkpt lat="41.13722" lon="0.4566417"><ele>512.0</ele><time>2026-03-31T15:33:42.153Z</time></trkpt><trkpt lat="41.1373167" lon="0.4569017"><ele>515.6666666666666</ele><time>2026-03-31T15:33:43.153Z</time></trkpt><trkpt lat="41.1373933" lon="0.4571783"><ele>519.3333333333334</ele><time>2026-03-31T15:33:44.153Z</time></trkpt><trkpt lat="41.1374433" lon="0.4574667"><ele>523.0</ele><time>2026-03-31T15:33:45.153Z</time></trkpt><trkpt lat="41.1374617" lon="0.4577617"><ele>521.5</ele><time>2026-03-31T15:33:46.154Z</time></trkpt><trkpt lat="41.137455" lon="0.45806"><ele>520.0</ele><time>2026-03-31T15:33:47.153Z</time></trkpt><trkpt lat="41.1374333" lon="0.4583583"><ele>520.0</ele><time>2026-03-31T15:33:48.153Z</time></trkpt><trkpt lat="41.13742" lon="0.45865"><ele>520.0</ele><time>2026-03-31T15:33:49.154Z</time></trkpt><trkpt lat="41.1374133" lon="0.45893"><ele>520.0</ele><time>2026-03-31T15:33:50.153Z</time></trkpt><trkpt lat="41.1374383" lon="0.4592033"><ele>519.6666666666667</ele><time>2026-03-31T15:33:51.154Z</time></trkpt><trkpt lat="41.13748" lon="0.4594717"><ele>519.3333333333334</ele><time>2026-03-31T15:33:52.153Z</time></trkpt><trkpt lat="41.1375383" lon="0.4597367"><ele>519.0</ele><time>2026-03-31T15:33:53.154Z</time></trkpt><trkpt lat="41.1376" lon="0.4599967"><ele>519.0</ele><time>2026-03-31T15:33:54.154Z</time></trkpt><trkpt lat="41.1376817" lon="0.4602433"><ele>519.0</ele><time>2026-03-31T15:33:55.154Z</time></trkpt><trkpt lat="41.1377717" lon="0.4604633"><ele>519.0</ele><time>2026-03-31T15:33:56.153Z</time></trkpt><trkpt lat="41.137865" lon="0.4606517"><ele>519.3333333333334</ele><time>2026-03-31T15:33:57.154Z</time></trkpt><trkpt lat="41.1379617" lon="0.4608067"><ele>519.6666666666667</ele><time>2026-03-31T15:33:58.153Z</time></trkpt><trkpt lat="41.1380567" lon="0.460985"><ele>520.0</ele><time>2026-03-31T15:33:59.153Z</time></trkpt><trkpt lat="41.1381483" lon="0.46119"><ele>521.3333333333334</ele><time>2026-03-31T15:34:00.153Z</time></trkpt><trkpt lat="41.138235" lon="0.461415"><ele>522.6666666666666</ele><time>2026-03-31T15:34:01.153Z</time></trkpt><trkpt lat="41.1383167" lon="0.46165"><ele>524.0</ele><time>2026-03-31T15:34:02.153Z</time></trkpt><trkpt lat="41.1383967" lon="0.4618833"><ele>522.6666666666666</ele><time>2026-03-31T15:34:03.154Z</time></trkpt><trkpt lat="41.1384633" lon="0.46213"><ele>521.3333333333334</ele><time>2026-03-31T15:34:04.153Z</time></trkpt><trkpt lat="41.1385117" lon="0.4623833"><ele>520.0</ele><time>2026-03-31T15:34:05.152Z</time></trkpt><trkpt lat="41.13855" lon="0.462615"><ele>520.0</ele><time>2026-03-31T15:34:06.152Z</time></trkpt><trkpt lat="41.1385967" lon="0.4628267"><ele>520.0</ele><time>2026-03-31T15:34:07.152Z</time></trkpt><trkpt lat="41.13863" lon="0.4630367"><ele>520.0</ele><time>2026-03-31T15:34:08.152Z</time></trkpt><trkpt lat="41.1386433" lon="0.4632617"><ele>520.6666666666667</ele><time>2026-03-31T15:34:09.153Z</time></trkpt><trkpt lat="41.1386233" lon="0.4634983"><ele>521.3333333333334</ele><time>2026-03-31T15:34:10.153Z</time></trkpt><trkpt lat="41.138575" lon="0.4637183"><ele>522.0</ele><time>2026-03-31T15:34:11.152Z</time></trkpt><trkpt lat="41.1384783" lon="0.4639267"><ele>522.0</ele><time>2026-03-31T15:34:12.152Z</time></trkpt><trkpt lat="41.1383817" lon="0.4641167"><ele>522.0</ele><time>2026-03-31T15:34:13.152Z</time></trkpt><trkpt lat="41.138295" lon="0.46432"><ele>522.0</ele><time>2026-03-31T15:34:14.153Z</time></trkpt><trkpt lat="41.1382283" lon="0.4645267"><ele>521.6666666666666</ele><time>2026-03-31T15:34:15.153Z</time></trkpt><trkpt lat="41.1381833" lon="0.4647517"><ele>521.3333333333333</ele><time>2026-03-31T15:34:16.152Z</time></trkpt><trkpt lat="41.1381883" lon="0.464985"><ele>521.0</ele><time>2026-03-31T15:34:17.152Z</time></trkpt><trkpt lat="41.1382333" lon="0.465195"><ele>524.0</ele><time>2026-03-31T15:34:18.153Z</time></trkpt><trkpt lat="41.1383133" lon="0.4653867"><ele>527.0</ele><time>2026-03-31T15:34:19.152Z</time></trkpt><trkpt lat="41.13841" lon="0.4655533"><ele>530.0</ele><time>2026-03-31T15:34:20.152Z</time></trkpt><trkpt lat="41.1385" lon="0.4657333"><ele>532.6666666666666</ele><time>2026-03-31T15:34:21.152Z</time></trkpt><trkpt lat="41.1385483" lon="0.4659267"><ele>535.3333333333334</ele><time>2026-03-31T15:34:22.152Z</time></trkpt><trkpt lat="41.138585" lon="0.4661383"><ele>538.0</ele><time>2026-03-31T15:34:23.153Z</time></trkpt><trkpt lat="41.138615" lon="0.4663567"><ele>538.3333333333334</ele><time>2026-03-31T15:34:24.152Z</time></trkpt><trkpt lat="41.1386467" lon="0.466585"><ele>538.6666666666666</ele><time>2026-03-31T15:34:25.153Z</time></trkpt><trkpt lat="41.1386917" lon="0.4668017"><ele>539.0</ele><time>2026-03-31T15:34:26.153Z</time></trkpt><trkpt lat="41.1387633" lon="0.4670017"><ele>537.6666666666666</ele><time>2026-03-31T15:34:27.153Z</time></trkpt><trkpt lat="41.1388533" lon="0.4671883"><ele>536.3333333333334</ele><time>2026-03-31T15:34:28.152Z</time></trkpt><trkpt lat="41.1389567" lon="0.46735"><ele>535.0</ele><time>2026-03-31T15:34:29.153Z</time></trkpt><trkpt lat="41.1390617" lon="0.4674783"><ele>537.25</ele><time>2026-03-31T15:34:30.153Z</time></trkpt><trkpt lat="41.1391467" lon="0.4676183"><ele>539.5</ele><time>2026-03-31T15:34:31.153Z</time></trkpt><trkpt lat="41.139225" lon="0.4677883"><ele>541.75</ele><time>2026-03-31T15:34:32.153Z</time></trkpt><trkpt lat="41.13928" lon="0.467975"><ele>544.0</ele><time>2026-03-31T15:34:33.152Z</time></trkpt><trkpt lat="41.1393183" lon="0.46818"><ele>544.0</ele><time>2026-03-31T15:34:34.153Z</time></trkpt><trkpt lat="41.1393617" lon="0.468385"><ele>544.0</ele><time>2026-03-31T15:34:35.153Z</time></trkpt><trkpt lat="41.1394267" lon="0.468585"><ele>544.0</ele><time>2026-03-31T15:34:36.153Z</time></trkpt><trkpt lat="41.1395" lon="0.4687733"><ele>543.0</ele><time>2026-03-31T15:34:37.153Z</time></trkpt><trkpt lat="41.1395917" lon="0.4689667"><ele>542.0</ele><time>2026-03-31T15:34:38.152Z</time></trkpt><trkpt lat="41.139685" lon="0.4691633"><ele>541.0</ele><time>2026-03-31T15:34:39.152Z</time></trkpt><trkpt lat="41.13978" lon="0.469365"><ele>541.0</ele><time>2026-03-31T15:34:40.152Z</time></trkpt><trkpt lat="41.13987" lon="0.46957"><ele>541.0</ele><time>2026-03-31T15:34:41.152Z</time></trkpt><trkpt lat="41.1399667" lon="0.4697783"><ele>541.0</ele><time>2026-03-31T15:34:42.153Z</time></trkpt><trkpt lat="41.1400483" lon="0.4700017"><ele>540.3333333333334</ele><time>2026-03-31T15:34:43.153Z</time></trkpt><trkpt lat="41.1401133" lon="0.4702317"><ele>539.6666666666666</ele><time>2026-03-31T15:34:44.153Z</time></trkpt><trkpt lat="41.14017" lon="0.4704683"><ele>539.0</ele><time>2026-03-31T15:34:45.153Z</time></trkpt><trkpt lat="41.1402217" lon="0.4706917"><ele>538.0</ele><time>2026-03-31T15:34:46.152Z</time></trkpt><trkpt lat="41.1402533" lon="0.47091"><ele>537.0</ele><time>2026-03-31T15:34:47.152Z</time></trkpt><trkpt lat="41.1402667" lon="0.4711267"><ele>536.0</ele><time>2026-03-31T15:34:48.153Z</time></trkpt><trkpt lat="41.14026" lon="0.47135"><ele>535.0</ele><time>2026-03-31T15:34:49.152Z</time></trkpt><trkpt lat="41.1402483" lon="0.4715783"><ele>534.0</ele><time>2026-03-31T15:34:50.153Z</time></trkpt><trkpt lat="41.1402333" lon="0.4718033"><ele>533.0</ele><time>2026-03-31T15:34:51.152Z</time></trkpt><trkpt lat="41.140235" lon="0.4720317"><ele>532.25</ele><time>2026-03-31T15:34:52.152Z</time></trkpt><trkpt lat="41.1402483" lon="0.4722483"><ele>531.5</ele><time>2026-03-31T15:34:53.152Z</time></trkpt><trkpt lat="41.140285" lon="0.47243"><ele>530.75</ele><time>2026-03-31T15:34:54.152Z</time></trkpt><trkpt lat="41.1403483" lon="0.4725933"><ele>530.0</ele><time>2026-03-31T15:34:55.153Z</time></trkpt><trkpt lat="41.140445" lon="0.472735"><ele>530.0</ele><time>2026-03-31T15:34:56.153Z</time></trkpt><trkpt lat="41.14054" lon="0.4728733"><ele>530.0</ele><time>2026-03-31T15:34:57.152Z</time></trkpt><trkpt lat="41.140605" lon="0.473035"><ele>530.0</ele><time>2026-03-31T15:34:58.152Z</time></trkpt><trkpt lat="41.140615" lon="0.4732067"><ele>530.0</ele><time>2026-03-31T15:34:59.153Z</time></trkpt><trkpt lat="41.14057" lon="0.4733867"><ele>528.6666666666666</ele><time>2026-03-31T15:35:00.153Z</time></trkpt><trkpt lat="41.1404883" lon="0.4735567"><ele>527.3333333333334</ele><time>2026-03-31T15:35:01.153Z</time></trkpt><trkpt lat="41.1403933" lon="0.4737367"><ele>526.0</ele><time>2026-03-31T15:35:02.152Z</time></trkpt><trkpt lat="41.1403017" lon="0.4739333"><ele>526.0</ele><time>2026-03-31T15:35:03.153Z</time></trkpt><trkpt lat="41.140205" lon="0.4741417"><ele>526.0</ele><time>2026-03-31T15:35:04.153Z</time></trkpt><trkpt lat="41.1401133" lon="0.4743483"><ele>526.0</ele><time>2026-03-31T15:35:05.152Z</time></trkpt><trkpt lat="41.140005" lon="0.4745617"><ele>527.3333333333334</ele><time>2026-03-31T15:35:06.152Z</time></trkpt><trkpt lat="41.13989" lon="0.474765"><ele>528.6666666666666</ele><time>2026-03-31T15:35:07.152Z</time></trkpt><trkpt lat="41.1397683" lon="0.4749467"><ele>530.0</ele><time>2026-03-31T15:35:08.153Z</time></trkpt><trkpt lat="41.1396333" lon="0.4751333"><ele>530.6666666666666</ele><time>2026-03-31T15:35:09.152Z</time></trkpt><trkpt lat="41.13951" lon="0.475325"><ele>531.3333333333334</ele><time>2026-03-31T15:35:10.153Z</time></trkpt><trkpt lat="41.1393983" lon="0.4755217"><ele>532.0</ele><time>2026-03-31T15:35:11.152Z</time></trkpt><trkpt lat="41.1392933" lon="0.4757317"><ele>532.3333333333334</ele><time>2026-03-31T15:35:12.153Z</time></trkpt><trkpt lat="41.1391983" lon="0.47596"><ele>532.6666666666666</ele><time>2026-03-31T15:35:13.153Z</time></trkpt><trkpt lat="41.139125" lon="0.4761967"><ele>533.0</ele><time>2026-03-31T15:35:14.152Z</time></trkpt><trkpt lat="41.1390733" lon="0.476445"><ele>532.0</ele><time>2026-03-31T15:35:15.153Z</time></trkpt><trkpt lat="41.1390317" lon="0.4767067"><ele>531.0</ele><time>2026-03-31T15:35:16.152Z</time></trkpt><trkpt lat="41.1390133" lon="0.476975"><ele>530.0</ele><time>2026-03-31T15:35:17.152Z</time></trkpt><trkpt lat="41.1389967" lon="0.477245"><ele>528.3333333333333</ele><time>2026-03-31T15:35:18.153Z</time></trkpt><trkpt lat="41.138985" lon="0.4775233"><ele>526.6666666666666</ele><time>2026-03-31T15:35:19.153Z</time></trkpt><trkpt lat="41.1389733" lon="0.4778"><ele>525.0</ele><time>2026-03-31T15:35:20.152Z</time></trkpt><trkpt lat="41.1389533" lon="0.478075"><ele>524.6666666666666</ele><time>2026-03-31T15:35:21.152Z</time></trkpt><trkpt lat="41.13893" lon="0.4783267"><ele>524.3333333333333</ele><time>2026-03-31T15:35:22.152Z</time></trkpt><trkpt lat="41.13888" lon="0.4785583"><ele>524.0</ele><time>2026-03-31T15:35:23.152Z</time></trkpt><trkpt lat="41.138805" lon="0.4787817"><ele>525.6666666666666</ele><time>2026-03-31T15:35:24.152Z</time></trkpt><trkpt lat="41.138715" lon="0.479005"><ele>527.3333333333334</ele><time>2026-03-31T15:35:25.153Z</time></trkpt><trkpt lat="41.1386133" lon="0.4792283"><ele>529.0</ele><time>2026-03-31T15:35:26.152Z</time></trkpt><trkpt lat="41.13852" lon="0.479455"><ele>530.6666666666667</ele><time>2026-03-31T15:35:27.153Z</time></trkpt><trkpt lat="41.1384283" lon="0.4796767"><ele>532.3333333333334</ele><time>2026-03-31T15:35:28.153Z</time></trkpt><trkpt lat="41.1383367" lon="0.4798967"><ele>534.0</ele><time>2026-03-31T15:35:29.152Z</time></trkpt><trkpt lat="41.1382633" lon="0.4801317"><ele>534.6666666666666</ele><time>2026-03-31T15:35:30.153Z</time></trkpt><trkpt lat="41.1381933" lon="0.48036"><ele>535.3333333333333</ele><time>2026-03-31T15:35:31.152Z</time></trkpt><trkpt lat="41.1381367" lon="0.4806017"><ele>536.0</ele><time>2026-03-31T15:35:32.153Z</time></trkpt><trkpt lat="41.138075" lon="0.4808467"><ele>536.0</ele><time>2026-03-31T15:35:33.152Z</time></trkpt><trkpt lat="41.13802" lon="0.481105"><ele>536.0</ele><time>2026-03-31T15:35:34.152Z</time></trkpt><trkpt lat="41.137975" lon="0.4813517"><ele>536.0</ele><time>2026-03-31T15:35:35.153Z</time></trkpt><trkpt lat="41.1379383" lon="0.4816017"><ele>536.6666666666666</ele><time>2026-03-31T15:35:36.152Z</time></trkpt><trkpt lat="41.1379083" lon="0.4818567"><ele>537.3333333333334</ele><time>2026-03-31T15:35:37.152Z</time></trkpt><trkpt lat="41.1378867" lon="0.4821133"><ele>538.0</ele><time>2026-03-31T15:35:38.152Z</time></trkpt><trkpt lat="41.1378817" lon="0.4823817"><ele>538.0</ele><time>2026-03-31T15:35:39.152Z</time></trkpt><trkpt lat="41.1378917" lon="0.4826367"><ele>538.0</ele><time>2026-03-31T15:35:40.153Z</time></trkpt><trkpt lat="41.1379083" lon="0.4828733"><ele>538.0</ele><time>2026-03-31T15:35:41.152Z</time></trkpt><trkpt lat="41.13794" lon="0.4830933"><ele>538.0</ele><time>2026-03-31T15:35:42.152Z</time></trkpt><trkpt lat="41.1379933" lon="0.483305"><ele>538.0</ele><time>2026-03-31T15:35:43.152Z</time></trkpt><trkpt lat="41.1380417" lon="0.4835283"><ele>538.0</ele><time>2026-03-31T15:35:44.153Z</time></trkpt><trkpt lat="41.1380833" lon="0.48376"><ele>536.0</ele><time>2026-03-31T15:35:45.152Z</time></trkpt><trkpt lat="41.1381267" lon="0.48399"><ele>534.0</ele><time>2026-03-31T15:35:46.152Z</time></trkpt><trkpt lat="41.1381717" lon="0.484215"><ele>532.0</ele><time>2026-03-31T15:35:47.152Z</time></trkpt><trkpt lat="41.1382167" lon="0.4844283"><ele>536.0</ele><time>2026-03-31T15:35:48.152Z</time></trkpt><trkpt lat="41.1382617" lon="0.48462"><ele>540.0</ele><time>2026-03-31T15:35:49.152Z</time></trkpt><trkpt lat="41.1383033" lon="0.484805"><ele>544.0</ele><time>2026-03-31T15:35:50.153Z</time></trkpt><trkpt lat="41.13835" lon="0.4849817"><ele>548.0</ele><time>2026-03-31T15:35:51.153Z</time></trkpt><trkpt lat="41.138405" lon="0.4851517"><ele>548.0</ele><time>2026-03-31T15:35:52.152Z</time></trkpt><trkpt lat="41.1384667" lon="0.4853267"><ele>548.0</ele><time>2026-03-31T15:35:53.152Z</time></trkpt><trkpt lat="41.1385267" lon="0.48549"><ele>548.0</ele><time>2026-03-31T15:35:54.153Z</time></trkpt><trkpt lat="41.1386117" lon="0.4856333"><ele>548.0</ele><time>2026-03-31T15:35:55.153Z</time></trkpt><trkpt lat="41.1387133" lon="0.48576"><ele>548.0</ele><time>2026-03-31T15:35:56.153Z</time></trkpt><trkpt lat="41.1388367" lon="0.4858583"><ele>548.0</ele><time>2026-03-31T15:35:57.153Z</time></trkpt><trkpt lat="41.13897" lon="0.4859483"><ele>548.0</ele><time>2026-03-31T15:35:58.152Z</time></trkpt><trkpt lat="41.13912" lon="0.48603"><ele>548.0</ele><time>2026-03-31T15:35:59.152Z</time></trkpt><trkpt lat="41.1392733" lon="0.4860917"><ele>548.0</ele><time>2026-03-31T15:36:00.153Z</time></trkpt><trkpt lat="41.139435" lon="0.4861217"><ele>548.0</ele><time>2026-03-31T15:36:01.152Z</time></trkpt><trkpt lat="41.139575" lon="0.4861233"><ele>548.0</ele><time>2026-03-31T15:36:02.152Z</time></trkpt><trkpt lat="41.1396933" lon="0.486115"><ele>548.0</ele><time>2026-03-31T15:36:03.152Z</time></trkpt><trkpt lat="41.139785" lon="0.4861133"><ele>548.0</ele><time>2026-03-31T15:36:04.153Z</time></trkpt><trkpt lat="41.139875" lon="0.486105"><ele>548.0</ele><time>2026-03-31T15:36:05.153Z</time></trkpt><trkpt lat="41.13996" lon="0.4861067"><ele>548.0</ele><time>2026-03-31T15:36:06.152Z</time></trkpt><trkpt lat="41.1400417" lon="0.48611"><ele>547.6666666666666</ele><time>2026-03-31T15:36:07.153Z</time></trkpt><trkpt lat="41.140125" lon="0.486105"><ele>547.3333333333333</ele><time>2026-03-31T15:36:08.152Z</time></trkpt><trkpt lat="41.1402117" lon="0.486105"><ele>547.0</ele><time>2026-03-31T15:36:09.152Z</time></trkpt><trkpt lat="41.1402967" lon="0.4861083"><ele>546.6666666666666</ele><time>2026-03-31T15:36:10.153Z</time></trkpt><trkpt lat="41.1403767" lon="0.4861183"><ele>546.3333333333334</ele><time>2026-03-31T15:36:11.153Z</time></trkpt><trkpt lat="41.1404583" lon="0.486135"><ele>546.0</ele><time>2026-03-31T15:36:12.153Z</time></trkpt><trkpt lat="41.1405467" lon="0.486165"><ele>546.0</ele><time>2026-03-31T15:36:13.153Z</time></trkpt><trkpt lat="41.1406383" lon="0.4862233"><ele>546.0</ele><time>2026-03-31T15:36:14.152Z</time></trkpt><trkpt lat="41.14074" lon="0.4862833"><ele>546.0</ele><time>2026-03-31T15:36:15.152Z</time></trkpt><trkpt lat="41.1408417" lon="0.48634"><ele>546.0</ele><time>2026-03-31T15:36:16.152Z</time></trkpt><trkpt lat="41.140955" lon="0.4863917"><ele>546.0</ele><time>2026-03-31T15:36:17.152Z</time></trkpt><trkpt lat="41.1410667" lon="0.4864433"><ele>546.5</ele><time>2026-03-31T15:36:18.153Z</time></trkpt><trkpt lat="41.1411583" lon="0.486485"><ele>547.0</ele><time>2026-03-31T15:36:19.153Z</time></trkpt><trkpt lat="41.1412383" lon="0.48652"><ele>547.5</ele><time>2026-03-31T15:36:20.152Z</time></trkpt><trkpt lat="41.1412983" lon="0.48657"><ele>548.0</ele><time>2026-03-31T15:36:21.152Z</time></trkpt><trkpt lat="41.141345" lon="0.4866317"><ele>548.5</ele><time>2026-03-31T15:36:22.153Z</time></trkpt><trkpt lat="41.1414383" lon="0.48674"><ele>549.0</ele><time>2026-03-31T15:36:24.152Z</time></trkpt><trkpt lat="41.1415067" lon="0.486775"><ele>549.1428571428571</ele><time>2026-03-31T15:36:25.152Z</time></trkpt><trkpt lat="41.1415733" lon="0.4867983"><ele>549.2857142857143</ele><time>2026-03-31T15:36:26.152Z</time></trkpt><trkpt lat="41.14164" lon="0.486805"><ele>549.4285714285714</ele><time>2026-03-31T15:36:27.152Z</time></trkpt><trkpt lat="41.141705" lon="0.4868"><ele>549.5714285714286</ele><time>2026-03-31T15:36:28.152Z</time></trkpt><trkpt lat="41.1417783" lon="0.4868"><ele>549.7142857142857</ele><time>2026-03-31T15:36:29.153Z</time></trkpt><trkpt lat="41.1418533" lon="0.4868017"><ele>549.8571428571429</ele><time>2026-03-31T15:36:30.152Z</time></trkpt><trkpt lat="41.1419333" lon="0.4868017"><ele>550.0</ele><time>2026-03-31T15:36:31.152Z</time></trkpt><trkpt lat="41.1420117" lon="0.4868033"><ele>550.0</ele><time>2026-03-31T15:36:32.152Z</time></trkpt><trkpt lat="41.14209" lon="0.4867983"><ele>550.0</ele><time>2026-03-31T15:36:33.153Z</time></trkpt><trkpt lat="41.142165" lon="0.4867983"><ele>550.0</ele><time>2026-03-31T15:36:34.152Z</time></trkpt><trkpt lat="41.1422383" lon="0.4868"><ele>550.0</ele><time>2026-03-31T15:36:35.152Z</time></trkpt><trkpt lat="41.1423067" lon="0.4868017"><ele>550.0</ele><time>2026-03-31T15:36:36.153Z</time></trkpt><trkpt lat="41.142375" lon="0.4868"><ele>550.0</ele><time>2026-03-31T15:36:37.153Z</time></trkpt><trkpt lat="41.1424383" lon="0.4868067"><ele>550.0</ele><time>2026-03-31T15:36:38.152Z</time></trkpt><trkpt lat="41.1425083" lon="0.4868083"><ele>548.8333333333334</ele><time>2026-03-31T15:36:39.153Z</time></trkpt><trkpt lat="41.1425883" lon="0.4868117"><ele>547.6666666666667</ele><time>2026-03-31T15:36:40.153Z</time></trkpt><trkpt lat="41.142665" lon="0.486815"><ele>546.5</ele><time>2026-03-31T15:36:41.152Z</time></trkpt><trkpt lat="41.1427417" lon="0.48682"><ele>545.3333333333334</ele><time>2026-03-31T15:36:42.152Z</time></trkpt><trkpt lat="41.1428183" lon="0.486835"><ele>544.1666666666666</ele><time>2026-03-31T15:36:43.152Z</time></trkpt><trkpt lat="41.1429" lon="0.4868467"><ele>543.0</ele><time>2026-03-31T15:36:44.152Z</time></trkpt><trkpt lat="41.1429883" lon="0.48686"><ele>543.0</ele><time>2026-03-31T15:36:45.152Z</time></trkpt><trkpt lat="41.143075" lon="0.4868733"><ele>543.0</ele><time>2026-03-31T15:36:46.152Z</time></trkpt><trkpt lat="41.143155" lon="0.4868867"><ele>543.0</ele><time>2026-03-31T15:36:47.153Z</time></trkpt><trkpt lat="41.143235" lon="0.48691"><ele>543.0</ele><time>2026-03-31T15:36:48.152Z</time></trkpt><trkpt lat="41.143315" lon="0.486925"><ele>543.0</ele><time>2026-03-31T15:36:49.152Z</time></trkpt><trkpt lat="41.143395" lon="0.4869367"><ele>543.0</ele><time>2026-03-31T15:36:50.152Z</time></trkpt><trkpt lat="41.1434717" lon="0.48695"><ele>541.6</ele><time>2026-03-31T15:36:51.152Z</time></trkpt><trkpt lat="41.1435417" lon="0.4869667"><ele>540.1999999999999</ele><time>2026-03-31T15:36:52.152Z</time></trkpt><trkpt lat="41.14361" lon="0.486985"><ele>538.8</ele><time>2026-03-31T15:36:53.153Z</time></trkpt><trkpt lat="41.1437183" lon="0.4870433"><ele>537.4</ele><time>2026-03-31T15:36:55.152Z</time></trkpt><trkpt lat="41.1438183" lon="0.4870983"><ele>536.0</ele><time>2026-03-31T15:36:57.152Z</time></trkpt><trkpt lat="41.1438933" lon="0.487155"><ele>535.6</ele><time>2026-03-31T15:41:20.152Z</time></trkpt><trkpt lat="41.143965" lon="0.4872483"><ele>535.2</ele><time>2026-03-31T15:41:22.153Z</time></trkpt><trkpt lat="41.1440367" lon="0.4872983"><ele>534.8</ele><time>2026-03-31T15:41:23.153Z</time></trkpt><trkpt lat="41.1441183" lon="0.4873483"><ele>534.4</ele><time>2026-03-31T15:41:24.152Z</time></trkpt><trkpt lat="41.1442267" lon="0.4874033"><ele>534.0</ele><time>2026-03-31T15:41:25.152Z</time></trkpt><trkpt lat="41.1443533" lon="0.4874667"><ele>534.0</ele><time>2026-03-31T15:41:26.152Z</time></trkpt><trkpt lat="41.144485" lon="0.4875383"><ele>534.0</ele><time>2026-03-31T15:41:27.153Z</time></trkpt><trkpt lat="41.1446217" lon="0.487615"><ele>534.0</ele><time>2026-03-31T15:41:28.153Z</time></trkpt><trkpt lat="41.144765" lon="0.4876933"><ele>534.0</ele><time>2026-03-31T15:41:29.153Z</time></trkpt><trkpt lat="41.1449183" lon="0.4877717"><ele>535.3333333333334</ele><time>2026-03-31T15:41:30.152Z</time></trkpt><trkpt lat="41.14507" lon="0.4878483"><ele>536.6666666666667</ele><time>2026-03-31T15:41:31.153Z</time></trkpt><trkpt lat="41.14523" lon="0.48793"><ele>538.0</ele><time>2026-03-31T15:41:32.153Z</time></trkpt><trkpt lat="41.1453983" lon="0.488015"><ele>538.0</ele><time>2026-03-31T15:41:33.152Z</time></trkpt><trkpt lat="41.14558" lon="0.4880917"><ele>538.0</ele><time>2026-03-31T15:41:34.153Z</time></trkpt><trkpt lat="41.1457633" lon="0.488175"><ele>538.0</ele><time>2026-03-31T15:41:35.152Z</time></trkpt><trkpt lat="41.1459517" lon="0.4882283"><ele>540.6666666666667</ele><time>2026-03-31T15:41:36.153Z</time></trkpt><trkpt lat="41.1461383" lon="0.4882683"><ele>543.3333333333334</ele><time>2026-03-31T15:41:37.152Z</time></trkpt><trkpt lat="41.146335" lon="0.4882833"><ele>546.0</ele><time>2026-03-31T15:41:38.152Z</time></trkpt><trkpt lat="41.146535" lon="0.488285"><ele>547.6666666666666</ele><time>2026-03-31T15:41:39.152Z</time></trkpt><trkpt lat="41.14673" lon="0.4882667"><ele>549.3333333333333</ele><time>2026-03-31T15:41:40.152Z</time></trkpt><trkpt lat="41.146925" lon="0.4882333"><ele>551.0</ele><time>2026-03-31T15:41:41.152Z</time></trkpt><trkpt lat="41.14712" lon="0.48818"><ele>551.0</ele><time>2026-03-31T15:41:42.152Z</time></trkpt><trkpt lat="41.1473217" lon="0.4881033"><ele>551.0</ele><time>2026-03-31T15:41:43.152Z</time></trkpt><trkpt lat="41.1475183" lon="0.48801"><ele>551.0</ele><time>2026-03-31T15:41:44.152Z</time></trkpt><trkpt lat="41.1477167" lon="0.48791"><ele>551.3333333333333</ele><time>2026-03-31T15:41:45.153Z</time></trkpt><trkpt lat="41.1479083" lon="0.48781"><ele>551.6666666666666</ele><time>2026-03-31T15:41:46.152Z</time></trkpt><trkpt lat="41.14811" lon="0.4877083"><ele>552.0</ele><time>2026-03-31T15:41:47.152Z</time></trkpt><trkpt lat="41.1483133" lon="0.4876033"><ele>552.0</ele><time>2026-03-31T15:41:48.153Z</time></trkpt><trkpt lat="41.1485167" lon="0.487495"><ele>552.0</ele><time>2026-03-31T15:41:49.152Z</time></trkpt><trkpt lat="41.1487267" lon="0.4873833"><ele>552.0</ele><time>2026-03-31T15:41:50.153Z</time></trkpt><trkpt lat="41.1489333" lon="0.4872767"><ele>551.5</ele><time>2026-03-31T15:41:51.152Z</time></trkpt><trkpt lat="41.14914" lon="0.4871683"><ele>551.0</ele><time>2026-03-31T15:41:52.152Z</time></trkpt><trkpt lat="41.149355" lon="0.4870583"><ele>550.5</ele><time>2026-03-31T15:41:53.153Z</time></trkpt><trkpt lat="41.1495683" lon="0.4869467"><ele>550.0</ele><time>2026-03-31T15:41:54.152Z</time></trkpt><trkpt lat="41.1497767" lon="0.4868317"><ele>549.5</ele><time>2026-03-31T15:41:55.151Z</time></trkpt><trkpt lat="41.1499933" lon="0.4867117"><ele>549.0</ele><time>2026-03-31T15:41:56.152Z</time></trkpt><trkpt lat="41.1502083" lon="0.4865983"><ele>549.0</ele><time>2026-03-31T15:41:57.151Z</time></trkpt><trkpt lat="41.1504133" lon="0.4865"><ele>549.0</ele><time>2026-03-31T15:41:58.152Z</time></trkpt><trkpt lat="41.150615" lon="0.4864"><ele>549.0</ele><time>2026-03-31T15:41:59.151Z</time></trkpt><trkpt lat="41.150795" lon="0.48628"><ele>548.0</ele><time>2026-03-31T15:42:00.152Z</time></trkpt><trkpt lat="41.150965" lon="0.4861533"><ele>547.0</ele><time>2026-03-31T15:42:01.152Z</time></trkpt><trkpt lat="41.1511317" lon="0.4860017"><ele>546.0</ele><time>2026-03-31T15:42:02.151Z</time></trkpt><trkpt lat="41.151275" lon="0.485815"><ele>546.0</ele><time>2026-03-31T15:42:03.152Z</time></trkpt><trkpt lat="41.1514117" lon="0.485585"><ele>546.0</ele><time>2026-03-31T15:42:04.152Z</time></trkpt><trkpt lat="41.151535" lon="0.4853367"><ele>546.0</ele><time>2026-03-31T15:42:05.151Z</time></trkpt><trkpt lat="41.1516433" lon="0.48507"><ele>545.0</ele><time>2026-03-31T15:42:06.151Z</time></trkpt><trkpt lat="41.1517333" lon="0.4847883"><ele>544.0</ele><time>2026-03-31T15:42:07.151Z</time></trkpt><trkpt lat="41.1518067" lon="0.4845017"><ele>543.3333333333334</ele><time>2026-03-31T15:42:08.151Z</time></trkpt><trkpt lat="41.15188" lon="0.48423"><ele>542.6666666666666</ele><time>2026-03-31T15:42:09.152Z</time></trkpt><trkpt lat="41.15198" lon="0.483965"><ele>542.0</ele><time>2026-03-31T15:42:10.152Z</time></trkpt><trkpt lat="41.1520933" lon="0.4837167"><ele>541.3333333333333</ele><time>2026-03-31T15:42:11.152Z</time></trkpt><trkpt lat="41.1522417" lon="0.4834967"><ele>540.6666666666666</ele><time>2026-03-31T15:42:12.152Z</time></trkpt><trkpt lat="41.1524133" lon="0.4833067"><ele>540.0</ele><time>2026-03-31T15:42:13.151Z</time></trkpt><trkpt lat="41.1525933" lon="0.4831283"><ele>540.0</ele><time>2026-03-31T15:42:14.151Z</time></trkpt><trkpt lat="41.1527767" lon="0.482955"><ele>540.0</ele><time>2026-03-31T15:42:15.152Z</time></trkpt><trkpt lat="41.1529467" lon="0.4827783"><ele>540.0</ele><time>2026-03-31T15:42:16.151Z</time></trkpt><trkpt lat="41.153105" lon="0.4825783"><ele>539.3333333333334</ele><time>2026-03-31T15:42:17.151Z</time></trkpt><trkpt lat="41.1532533" lon="0.4823583"><ele>538.6666666666667</ele><time>2026-03-31T15:42:18.151Z</time></trkpt><trkpt lat="41.15338" lon="0.4821167"><ele>538.0</ele><time>2026-03-31T15:42:19.152Z</time></trkpt><trkpt lat="41.15349" lon="0.4818567"><ele>538.0</ele><time>2026-03-31T15:42:20.152Z</time></trkpt><trkpt lat="41.1535867" lon="0.4815833"><ele>538.0</ele><time>2026-03-31T15:42:21.152Z</time></trkpt><trkpt lat="41.1536767" lon="0.4812967"><ele>537.6666666666667</ele><time>2026-03-31T15:42:22.152Z</time></trkpt><trkpt lat="41.1537667" lon="0.4810183"><ele>537.3333333333334</ele><time>2026-03-31T15:42:23.151Z</time></trkpt><trkpt lat="41.15386" lon="0.4807633"><ele>537.0</ele><time>2026-03-31T15:42:24.151Z</time></trkpt><trkpt lat="41.1539717" lon="0.48054"><ele>535.3333333333334</ele><time>2026-03-31T15:42:25.151Z</time></trkpt><trkpt lat="41.1541" lon="0.4803433"><ele>533.6666666666667</ele><time>2026-03-31T15:42:26.151Z</time></trkpt><trkpt lat="41.154245" lon="0.4801667"><ele>532.0</ele><time>2026-03-31T15:42:27.151Z</time></trkpt><trkpt lat="41.1544033" lon="0.48"><ele>532.0</ele><time>2026-03-31T15:42:28.151Z</time></trkpt><trkpt lat="41.154565" lon="0.4798417"><ele>532.0</ele><time>2026-03-31T15:42:29.152Z</time></trkpt><trkpt lat="41.1547317" lon="0.479695"><ele>532.0</ele><time>2026-03-31T15:42:30.151Z</time></trkpt><trkpt lat="41.15489" lon="0.4795483"><ele>532.0</ele><time>2026-03-31T15:42:31.152Z</time></trkpt><trkpt lat="41.155045" lon="0.4794117"><ele>532.0</ele><time>2026-03-31T15:42:32.152Z</time></trkpt><trkpt lat="41.1551983" lon="0.479275"><ele>532.0</ele><time>2026-03-31T15:42:33.152Z</time></trkpt><trkpt lat="41.1553483" lon="0.4791417"><ele>532.0</ele><time>2026-03-31T15:42:34.151Z</time></trkpt><trkpt lat="41.155495" lon="0.4790133"><ele>532.0</ele><time>2026-03-31T15:42:35.152Z</time></trkpt><trkpt lat="41.1556333" lon="0.4788933"><ele>532.0</ele><time>2026-03-31T15:42:36.151Z</time></trkpt><trkpt lat="41.15577" lon="0.478785"><ele>530.75</ele><time>2026-03-31T15:42:37.152Z</time></trkpt><trkpt lat="41.1559033" lon="0.47869"><ele>529.5</ele><time>2026-03-31T15:42:38.151Z</time></trkpt><trkpt lat="41.1560317" lon="0.4786083"><ele>528.25</ele><time>2026-03-31T15:42:39.152Z</time></trkpt><trkpt lat="41.1561533" lon="0.478525"><ele>527.0</ele><time>2026-03-31T15:42:40.151Z</time></trkpt><trkpt lat="41.15628" lon="0.4784567"><ele>527.0</ele><time>2026-03-31T15:42:41.151Z</time></trkpt><trkpt lat="41.1564133" lon="0.4784133"><ele>527.0</ele><time>2026-03-31T15:42:42.151Z</time></trkpt><trkpt lat="41.1565567" lon="0.4783867"><ele>527.0</ele><time>2026-03-31T15:42:43.151Z</time></trkpt><trkpt lat="41.1567083" lon="0.4783667"><ele>527.0</ele><time>2026-03-31T15:42:44.151Z</time></trkpt><trkpt lat="41.1568667" lon="0.4783517"><ele>525.6666666666666</ele><time>2026-03-31T15:42:45.151Z</time></trkpt><trkpt lat="41.15704" lon="0.4783333"><ele>524.3333333333334</ele><time>2026-03-31T15:42:46.151Z</time></trkpt><trkpt lat="41.1572183" lon="0.4783283"><ele>523.0</ele><time>2026-03-31T15:42:47.151Z</time></trkpt><trkpt lat="41.1573967" lon="0.4783367"><ele>520.3333333333334</ele><time>2026-03-31T15:42:48.152Z</time></trkpt><trkpt lat="41.1575867" lon="0.478365"><ele>517.6666666666666</ele><time>2026-03-31T15:42:49.152Z</time></trkpt><trkpt lat="41.1577767" lon="0.478415"><ele>515.0</ele><time>2026-03-31T15:42:50.152Z</time></trkpt><trkpt lat="41.1579667" lon="0.47848"><ele>515.0</ele><time>2026-03-31T15:42:51.152Z</time></trkpt><trkpt lat="41.1581517" lon="0.47856"><ele>515.0</ele><time>2026-03-31T15:42:52.151Z</time></trkpt><trkpt lat="41.1583417" lon="0.4786467"><ele>515.0</ele><time>2026-03-31T15:42:53.151Z</time></trkpt><trkpt lat="41.1585333" lon="0.47874"><ele>509.66666666666663</ele><time>2026-03-31T15:42:54.151Z</time></trkpt><trkpt lat="41.1587283" lon="0.4788367"><ele>504.33333333333337</ele><time>2026-03-31T15:42:55.152Z</time></trkpt><trkpt lat="41.158925" lon="0.4789317"><ele>499.0</ele><time>2026-03-31T15:42:56.151Z</time></trkpt><trkpt lat="41.1591283" lon="0.4790183"><ele>497.6666666666667</ele><time>2026-03-31T15:42:57.152Z</time></trkpt><trkpt lat="41.1593383" lon="0.4790917"><ele>496.33333333333337</ele><time>2026-03-31T15:42:58.151Z</time></trkpt><trkpt lat="41.1595583" lon="0.479145"><ele>495.0</ele><time>2026-03-31T15:42:59.152Z</time></trkpt><trkpt lat="41.1597767" lon="0.47918"><ele>493.66666666666663</ele><time>2026-03-31T15:43:00.151Z</time></trkpt><trkpt lat="41.1599967" lon="0.47919"><ele>492.3333333333333</ele><time>2026-03-31T15:43:01.151Z</time></trkpt><trkpt lat="41.160215" lon="0.4791767"><ele>491.0</ele><time>2026-03-31T15:43:02.152Z</time></trkpt><trkpt lat="41.1604183" lon="0.479155"><ele>491.0</ele><time>2026-03-31T15:43:03.152Z</time></trkpt><trkpt lat="41.1606167" lon="0.4790983"><ele>491.0</ele><time>2026-03-31T15:43:04.152Z</time></trkpt><trkpt lat="41.1608083" lon="0.47904"><ele>491.0</ele><time>2026-03-31T15:43:05.152Z</time></trkpt><trkpt lat="41.160985" lon="0.4789633"><ele>490.3333333333333</ele><time>2026-03-31T15:43:06.151Z</time></trkpt><trkpt lat="41.1611583" lon="0.4788783"><ele>489.66666666666663</ele><time>2026-03-31T15:43:07.151Z</time></trkpt><trkpt lat="41.16133" lon="0.478805"><ele>489.0</ele><time>2026-03-31T15:43:08.152Z</time></trkpt><trkpt lat="41.16149" lon="0.47876"><ele>486.0</ele><time>2026-03-31T15:43:09.152Z</time></trkpt><trkpt lat="41.1616467" lon="0.4787583"><ele>483.0</ele><time>2026-03-31T15:43:10.152Z</time></trkpt><trkpt lat="41.16179" lon="0.478815"><ele>480.0</ele><time>2026-03-31T15:43:11.152Z</time></trkpt><trkpt lat="41.1619067" lon="0.4789283"><ele>478.66666666666663</ele><time>2026-03-31T15:43:12.151Z</time></trkpt><trkpt lat="41.1619867" lon="0.4790933"><ele>477.3333333333333</ele><time>2026-03-31T15:43:13.152Z</time></trkpt><trkpt lat="41.1620283" lon="0.4792933"><ele>476.0</ele><time>2026-03-31T15:43:14.152Z</time></trkpt><trkpt lat="41.1620267" lon="0.4795217"><ele>477.0</ele><time>2026-03-31T15:43:15.152Z</time></trkpt><trkpt lat="41.16201" lon="0.4797583"><ele>478.0</ele><time>2026-03-31T15:43:16.151Z</time></trkpt><trkpt lat="41.161985" lon="0.479985"><ele>479.0</ele><time>2026-03-31T15:43:17.151Z</time></trkpt><trkpt lat="41.161965" lon="0.4802183"><ele>480.3333333333333</ele><time>2026-03-31T15:43:18.151Z</time></trkpt><trkpt lat="41.1619417" lon="0.4804467"><ele>481.66666666666663</ele><time>2026-03-31T15:43:19.152Z</time></trkpt><trkpt lat="41.16192" lon="0.4806733"><ele>483.0</ele><time>2026-03-31T15:43:20.152Z</time></trkpt><trkpt lat="41.1619033" lon="0.4809017"><ele>483.0</ele><time>2026-03-31T15:43:21.151Z</time></trkpt><trkpt lat="41.1619117" lon="0.48114"><ele>483.0</ele><time>2026-03-31T15:43:22.152Z</time></trkpt><trkpt lat="41.16194" lon="0.48138"><ele>483.0</ele><time>2026-03-31T15:43:23.151Z</time></trkpt><trkpt lat="41.1619817" lon="0.4816233"><ele>484.66666666666663</ele><time>2026-03-31T15:43:24.152Z</time></trkpt><trkpt lat="41.1620217" lon="0.4818733"><ele>486.3333333333333</ele><time>2026-03-31T15:43:25.151Z</time></trkpt><trkpt lat="41.1620617" lon="0.4821217"><ele>488.0</ele><time>2026-03-31T15:43:26.152Z</time></trkpt><trkpt lat="41.1620767" lon="0.4823767"><ele>488.0</ele><time>2026-03-31T15:43:27.151Z</time></trkpt><trkpt lat="41.1620667" lon="0.482645"><ele>488.0</ele><time>2026-03-31T15:43:28.152Z</time></trkpt><trkpt lat="41.1620367" lon="0.482915"><ele>488.0</ele><time>2026-03-31T15:43:29.151Z</time></trkpt><trkpt lat="41.1619867" lon="0.4831733"><ele>488.3333333333333</ele><time>2026-03-31T15:43:30.152Z</time></trkpt><trkpt lat="41.16194" lon="0.4834317"><ele>488.66666666666663</ele><time>2026-03-31T15:43:31.152Z</time></trkpt><trkpt lat="41.1619067" lon="0.4836883"><ele>489.0</ele><time>2026-03-31T15:43:32.152Z</time></trkpt><trkpt lat="41.1618817" lon="0.4839467"><ele>490.33333333333337</ele><time>2026-03-31T15:43:33.151Z</time></trkpt><trkpt lat="41.1618717" lon="0.484205"><ele>491.6666666666667</ele><time>2026-03-31T15:43:34.151Z</time></trkpt><trkpt lat="41.1618983" lon="0.4844617"><ele>493.0</ele><time>2026-03-31T15:43:35.152Z</time></trkpt><trkpt lat="41.1619383" lon="0.4847217"><ele>493.6666666666667</ele><time>2026-03-31T15:43:36.151Z</time></trkpt><trkpt lat="41.1619783" lon="0.48498"><ele>494.33333333333337</ele><time>2026-03-31T15:43:37.152Z</time></trkpt><trkpt lat="41.1620233" lon="0.4852417"><ele>495.0</ele><time>2026-03-31T15:43:38.151Z</time></trkpt><trkpt lat="41.1620667" lon="0.4855017"><ele>495.0</ele><time>2026-03-31T15:43:39.151Z</time></trkpt><trkpt lat="41.1620817" lon="0.4857617"><ele>495.0</ele><time>2026-03-31T15:43:40.151Z</time></trkpt><trkpt lat="41.1620467" lon="0.4860183"><ele>495.0</ele><time>2026-03-31T15:43:41.151Z</time></trkpt><trkpt lat="41.1619917" lon="0.48627"><ele>496.33333333333337</ele><time>2026-03-31T15:43:42.152Z</time></trkpt><trkpt lat="41.16192" lon="0.4865283"><ele>497.6666666666667</ele><time>2026-03-31T15:43:43.152Z</time></trkpt><trkpt lat="41.1618467" lon="0.4867917"><ele>499.0</ele><time>2026-03-31T15:43:44.151Z</time></trkpt><trkpt lat="41.1617717" lon="0.4870467"><ele>500.0</ele><time>2026-03-31T15:43:45.151Z</time></trkpt><trkpt lat="41.1617167" lon="0.4872967"><ele>501.0</ele><time>2026-03-31T15:43:46.152Z</time></trkpt><trkpt lat="41.1616667" lon="0.4875383"><ele>502.0</ele><time>2026-03-31T15:43:47.152Z</time></trkpt><trkpt lat="41.1616433" lon="0.48779"><ele>502.6666666666667</ele><time>2026-03-31T15:43:48.151Z</time></trkpt><trkpt lat="41.1616617" lon="0.488045"><ele>503.33333333333337</ele><time>2026-03-31T15:43:49.152Z</time></trkpt><trkpt lat="41.1617083" lon="0.4882883"><ele>504.0</ele><time>2026-03-31T15:43:50.152Z</time></trkpt><trkpt lat="41.1617633" lon="0.4885383"><ele>504.33333333333337</ele><time>2026-03-31T15:43:51.151Z</time></trkpt><trkpt lat="41.1618033" lon="0.4888"><ele>504.6666666666667</ele><time>2026-03-31T15:43:52.151Z</time></trkpt><trkpt lat="41.1618183" lon="0.4890683"><ele>505.0</ele><time>2026-03-31T15:43:53.152Z</time></trkpt><trkpt lat="41.1617933" lon="0.4893317"><ele>505.0</ele><time>2026-03-31T15:43:54.151Z</time></trkpt><trkpt lat="41.1617433" lon="0.4895767"><ele>505.0</ele><time>2026-03-31T15:43:55.151Z</time></trkpt><trkpt lat="41.1617067" lon="0.4898167"><ele>505.0</ele><time>2026-03-31T15:43:56.152Z</time></trkpt><trkpt lat="41.16169" lon="0.4900417"><ele>505.0</ele><time>2026-03-31T15:43:57.152Z</time></trkpt><trkpt lat="41.1617083" lon="0.4902567"><ele>505.0</ele><time>2026-03-31T15:43:58.151Z</time></trkpt><trkpt lat="41.161755" lon="0.4904633"><ele>505.0</ele><time>2026-03-31T15:43:59.152Z</time></trkpt><trkpt lat="41.16182" lon="0.4906567"><ele>506.0</ele><time>2026-03-31T15:44:00.152Z</time></trkpt><trkpt lat="41.1619217" lon="0.49082"><ele>507.0</ele><time>2026-03-31T15:44:01.151Z</time></trkpt><trkpt lat="41.1620383" lon="0.4909867"><ele>508.0</ele><time>2026-03-31T15:44:02.151Z</time></trkpt><trkpt lat="41.1621617" lon="0.4911533"><ele>509.6666666666667</ele><time>2026-03-31T15:44:03.151Z</time></trkpt><trkpt lat="41.1622967" lon="0.4913317"><ele>511.33333333333337</ele><time>2026-03-31T15:44:04.151Z</time></trkpt><trkpt lat="41.1624233" lon="0.491515"><ele>513.0</ele><time>2026-03-31T15:44:05.151Z</time></trkpt><trkpt lat="41.1625533" lon="0.491705"><ele>514.3333333333334</ele><time>2026-03-31T15:44:06.152Z</time></trkpt><trkpt lat="41.16269" lon="0.4918983"><ele>515.6666666666667</ele><time>2026-03-31T15:44:07.152Z</time></trkpt><trkpt lat="41.1628333" lon="0.492095"><ele>517.0</ele><time>2026-03-31T15:44:08.151Z</time></trkpt><trkpt lat="41.1629767" lon="0.4923017"><ele>518.6666666666667</ele><time>2026-03-31T15:44:09.152Z</time></trkpt><trkpt lat="41.16312" lon="0.4925017"><ele>520.3333333333334</ele><time>2026-03-31T15:44:10.151Z</time></trkpt><trkpt lat="41.1632567" lon="0.4926983"><ele>522.0</ele><time>2026-03-31T15:44:11.151Z</time></trkpt><trkpt lat="41.1633967" lon="0.4928983"><ele>522.6666666666666</ele><time>2026-03-31T15:44:12.152Z</time></trkpt><trkpt lat="41.1635367" lon="0.4931117"><ele>523.3333333333333</ele><time>2026-03-31T15:44:13.151Z</time></trkpt><trkpt lat="41.16368" lon="0.4933267"><ele>524.0</ele><time>2026-03-31T15:44:14.152Z</time></trkpt><trkpt lat="41.1638217" lon="0.4935517"><ele>527.0</ele><time>2026-03-31T15:44:15.151Z</time></trkpt><trkpt lat="41.1639617" lon="0.493785"><ele>530.0</ele><time>2026-03-31T15:44:16.151Z</time></trkpt><trkpt lat="41.1641" lon="0.49403"><ele>530.0</ele><time>2026-03-31T15:44:17.152Z</time></trkpt><trkpt lat="41.164235" lon="0.4942783"><ele>530.0</ele><time>2026-03-31T15:44:18.152Z</time></trkpt><trkpt lat="41.1643683" lon="0.49453"><ele>531.0</ele><time>2026-03-31T15:44:19.151Z</time></trkpt><trkpt lat="41.1645017" lon="0.494785"><ele>532.0</ele><time>2026-03-31T15:44:20.152Z</time></trkpt><trkpt lat="41.164635" lon="0.4950383"><ele>532.0</ele><time>2026-03-31T15:44:21.152Z</time></trkpt><trkpt lat="41.16476" lon="0.4952967"><ele>532.0</ele><time>2026-03-31T15:44:22.151Z</time></trkpt><trkpt lat="41.1648733" lon="0.4955617"><ele>535.5</ele><time>2026-03-31T15:44:23.151Z</time></trkpt><trkpt lat="41.164985" lon="0.4958267"><ele>539.0</ele><time>2026-03-31T15:44:24.151Z</time></trkpt><trkpt lat="41.165095" lon="0.4960883"><ele>539.3333333333333</ele><time>2026-03-31T15:44:25.152Z</time></trkpt><trkpt lat="41.1651967" lon="0.4963367"><ele>539.6666666666666</ele><time>2026-03-31T15:44:26.152Z</time></trkpt><trkpt lat="41.1652933" lon="0.49655"><ele>540.0</ele><time>2026-03-31T15:44:27.152Z</time></trkpt><trkpt lat="41.16539" lon="0.4967317"><ele>540.0</ele><time>2026-03-31T15:44:28.151Z</time></trkpt><trkpt lat="41.1655017" lon="0.4968883"><ele>540.0</ele><time>2026-03-31T15:44:29.152Z</time></trkpt><trkpt lat="41.1656417" lon="0.4970183"><ele>540.0</ele><time>2026-03-31T15:44:30.151Z</time></trkpt><trkpt lat="41.1658033" lon="0.4970983"><ele>541.3333333333334</ele><time>2026-03-31T15:44:31.152Z</time></trkpt><trkpt lat="41.1659867" lon="0.4971533"><ele>542.6666666666667</ele><time>2026-03-31T15:44:32.151Z</time></trkpt><trkpt lat="41.1661717" lon="0.4972017"><ele>544.0</ele><time>2026-03-31T15:44:33.151Z</time></trkpt><trkpt lat="41.16636" lon="0.49725"><ele>543.6666666666667</ele><time>2026-03-31T15:44:34.152Z</time></trkpt><trkpt lat="41.1665483" lon="0.4973017"><ele>543.3333333333334</ele><time>2026-03-31T15:44:35.151Z</time></trkpt><trkpt lat="41.1667367" lon="0.497345"><ele>543.0</ele><time>2026-03-31T15:44:36.152Z</time></trkpt><trkpt lat="41.166925" lon="0.4974067"><ele>543.0</ele><time>2026-03-31T15:44:37.151Z</time></trkpt><trkpt lat="41.1671083" lon="0.49746"><ele>543.0</ele><time>2026-03-31T15:44:38.151Z</time></trkpt><trkpt lat="41.1672883" lon="0.4975183"><ele>543.0</ele><time>2026-03-31T15:44:39.152Z</time></trkpt><trkpt lat="41.1674667" lon="0.4975833"><ele>543.3333333333334</ele><time>2026-03-31T15:44:40.151Z</time></trkpt><trkpt lat="41.1676333" lon="0.497655"><ele>543.6666666666667</ele><time>2026-03-31T15:44:41.151Z</time></trkpt><trkpt lat="41.1677933" lon="0.4977333"><ele>544.0</ele><time>2026-03-31T15:44:42.152Z</time></trkpt><trkpt lat="41.1679417" lon="0.4978267"><ele>541.6666666666667</ele><time>2026-03-31T15:44:43.152Z</time></trkpt><trkpt lat="41.1680933" lon="0.4979267"><ele>539.3333333333334</ele><time>2026-03-31T15:44:44.151Z</time></trkpt><trkpt lat="41.1682417" lon="0.498035"><ele>537.0</ele><time>2026-03-31T15:44:45.151Z</time></trkpt><trkpt lat="41.1683833" lon="0.498155"><ele>537.0</ele><time>2026-03-31T15:44:46.152Z</time></trkpt><trkpt lat="41.1685333" lon="0.498275"><ele>537.0</ele><time>2026-03-31T15:44:47.151Z</time></trkpt><trkpt lat="41.16869" lon="0.498395"><ele>537.0</ele><time>2026-03-31T15:44:48.152Z</time></trkpt><trkpt lat="41.1688483" lon="0.4985017"><ele>537.0</ele><time>2026-03-31T15:44:49.151Z</time></trkpt><trkpt lat="41.16901" lon="0.4986117"><ele>537.0</ele><time>2026-03-31T15:44:50.152Z</time></trkpt><trkpt lat="41.169165" lon="0.4987217"><ele>537.0</ele><time>2026-03-31T15:44:51.151Z</time></trkpt><trkpt lat="41.1692967" lon="0.4988567"><ele>532.75</ele><time>2026-03-31T15:44:52.151Z</time></trkpt><trkpt lat="41.1694" lon="0.4989933"><ele>528.5</ele><time>2026-03-31T15:44:53.152Z</time></trkpt><trkpt lat="41.1694783" lon="0.49914"><ele>524.25</ele><time>2026-03-31T15:44:54.151Z</time></trkpt><trkpt lat="41.1695083" lon="0.4993267"><ele>520.0</ele><time>2026-03-31T15:44:55.151Z</time></trkpt><trkpt lat="41.1694967" lon="0.4995133"><ele>517.6666666666667</ele><time>2026-03-31T15:44:56.152Z</time></trkpt><trkpt lat="41.169455" lon="0.4997167"><ele>515.3333333333334</ele><time>2026-03-31T15:44:57.151Z</time></trkpt><trkpt lat="41.1694217" lon="0.499925"><ele>513.0</ele><time>2026-03-31T15:44:58.152Z</time></trkpt><trkpt lat="41.1694183" lon="0.5001117"><ele>513.0</ele><time>2026-03-31T15:44:59.152Z</time></trkpt><trkpt lat="41.169445" lon="0.5002917"><ele>513.0</ele><time>2026-03-31T15:45:00.152Z</time></trkpt><trkpt lat="41.1695017" lon="0.5004483"><ele>513.0</ele><time>2026-03-31T15:45:01.151Z</time></trkpt><trkpt lat="41.1696083" lon="0.50059"><ele>513.0</ele><time>2026-03-31T15:45:02.151Z</time></trkpt><trkpt lat="41.1697333" lon="0.50071"><ele>512.5</ele><time>2026-03-31T15:45:03.151Z</time></trkpt><trkpt lat="41.169855" lon="0.5008267"><ele>512.0</ele><time>2026-03-31T15:45:04.151Z</time></trkpt><trkpt lat="41.1699517" lon="0.50097"><ele>511.5</ele><time>2026-03-31T15:45:05.151Z</time></trkpt><trkpt lat="41.1699983" lon="0.5011467"><ele>511.0</ele><time>2026-03-31T15:45:06.152Z</time></trkpt><trkpt lat="41.1700083" lon="0.5013333"><ele>514.0</ele><time>2026-03-31T15:45:07.152Z</time></trkpt><trkpt lat="41.16998" lon="0.501525"><ele>517.0</ele><time>2026-03-31T15:45:08.151Z</time></trkpt><trkpt lat="41.169905" lon="0.5017"><ele>520.0</ele><time>2026-03-31T15:45:09.152Z</time></trkpt><trkpt lat="41.169795" lon="0.50185"><ele>512.6666666666667</ele><time>2026-03-31T15:45:10.152Z</time></trkpt><trkpt lat="41.169685" lon="0.5020017"><ele>505.33333333333337</ele><time>2026-03-31T15:45:11.151Z</time></trkpt><trkpt lat="41.16961" lon="0.5021767"><ele>498.0</ele><time>2026-03-31T15:45:12.152Z</time></trkpt><trkpt lat="41.1695667" lon="0.5023667"><ele>495.75</ele><time>2026-03-31T15:45:13.151Z</time></trkpt><trkpt lat="41.16957" lon="0.5025583"><ele>493.5</ele><time>2026-03-31T15:45:14.151Z</time></trkpt><trkpt lat="41.1696317" lon="0.50273"><ele>491.25</ele><time>2026-03-31T15:45:15.152Z</time></trkpt><trkpt lat="41.1697267" lon="0.50287"><ele>489.0</ele><time>2026-03-31T15:45:16.151Z</time></trkpt><trkpt lat="41.169855" lon="0.5029783"><ele>491.0</ele><time>2026-03-31T15:45:17.152Z</time></trkpt><trkpt lat="41.1700117" lon="0.503065"><ele>493.0</ele><time>2026-03-31T15:45:18.151Z</time></trkpt><trkpt lat="41.17018" lon="0.50313"><ele>495.0</ele><time>2026-03-31T15:45:19.151Z</time></trkpt><trkpt lat="41.1703517" lon="0.50321"><ele>495.0</ele><time>2026-03-31T15:45:20.151Z</time></trkpt><trkpt lat="41.1705267" lon="0.5032917"><ele>495.0</ele><time>2026-03-31T15:45:21.151Z</time></trkpt><trkpt lat="41.1707" lon="0.5033767"><ele>495.0</ele><time>2026-03-31T15:45:22.152Z</time></trkpt><trkpt lat="41.170875" lon="0.5034567"><ele>499.0</ele><time>2026-03-31T15:45:23.151Z</time></trkpt><trkpt lat="41.17104" lon="0.5035433"><ele>503.0</ele><time>2026-03-31T15:45:24.151Z</time></trkpt><trkpt lat="41.171205" lon="0.5036067"><ele>507.0</ele><time>2026-03-31T15:45:25.152Z</time></trkpt><trkpt lat="41.1713583" lon="0.503685"><ele>504.0</ele><time>2026-03-31T15:45:26.151Z</time></trkpt><trkpt lat="41.1715" lon="0.50378"><ele>501.0</ele><time>2026-03-31T15:45:27.152Z</time></trkpt><trkpt lat="41.1716067" lon="0.5039167"><ele>498.0</ele><time>2026-03-31T15:45:28.152Z</time></trkpt><trkpt lat="41.171705" lon="0.504045"><ele>495.0</ele><time>2026-03-31T15:45:29.152Z</time></trkpt><trkpt lat="41.1717667" lon="0.504225"><ele>495.0</ele><time>2026-03-31T15:45:30.152Z</time></trkpt><trkpt lat="41.171765" lon="0.5044167"><ele>495.0</ele><time>2026-03-31T15:45:31.152Z</time></trkpt><trkpt lat="41.1717" lon="0.5046017"><ele>495.0</ele><time>2026-03-31T15:45:32.152Z</time></trkpt><trkpt lat="41.171595" lon="0.5047717"><ele>487.66666666666663</ele><time>2026-03-31T15:45:33.152Z</time></trkpt><trkpt lat="41.1714517" lon="0.50492"><ele>480.3333333333333</ele><time>2026-03-31T15:45:34.151Z</time></trkpt><trkpt lat="41.1713017" lon="0.505035"><ele>473.0</ele><time>2026-03-31T15:45:35.152Z</time></trkpt><trkpt lat="41.1711467" lon="0.505145"><ele>473.0</ele><time>2026-03-31T15:45:36.152Z</time></trkpt><trkpt lat="41.1709917" lon="0.5052583"><ele>473.0</ele><time>2026-03-31T15:45:37.151Z</time></trkpt><trkpt lat="41.1708683" lon="0.505395"><ele>473.0</ele><time>2026-03-31T15:45:38.152Z</time></trkpt><trkpt lat="41.1707667" lon="0.5055683"><ele>465.0</ele><time>2026-03-31T15:45:39.151Z</time></trkpt><trkpt lat="41.1706883" lon="0.5057767"><ele>457.0</ele><time>2026-03-31T15:45:40.151Z</time></trkpt><trkpt lat="41.170635" lon="0.50601"><ele>449.0</ele><time>2026-03-31T15:45:41.152Z</time></trkpt><trkpt lat="41.1706167" lon="0.5062617"><ele>444.3333333333333</ele><time>2026-03-31T15:45:42.152Z</time></trkpt><trkpt lat="41.170615" lon="0.5065283"><ele>439.66666666666663</ele><time>2026-03-31T15:45:43.151Z</time></trkpt><trkpt lat="41.17061" lon="0.5067933"><ele>435.0</ele><time>2026-03-31T15:45:44.152Z</time></trkpt><trkpt lat="41.17061" lon="0.50706"><ele>431.33333333333337</ele><time>2026-03-31T15:45:45.151Z</time></trkpt><trkpt lat="41.1706017" lon="0.5073117"><ele>427.6666666666667</ele><time>2026-03-31T15:45:46.151Z</time></trkpt><trkpt lat="41.1706067" lon="0.5075617"><ele>424.0</ele><time>2026-03-31T15:45:47.151Z</time></trkpt><trkpt lat="41.1706183" lon="0.5078017"><ele>422.0</ele><time>2026-03-31T15:45:48.152Z</time></trkpt><trkpt lat="41.1706317" lon="0.5080417"><ele>420.0</ele><time>2026-03-31T15:45:49.152Z</time></trkpt><trkpt lat="41.1706733" lon="0.5082483"><ele>418.0</ele><time>2026-03-31T15:45:50.151Z</time></trkpt><trkpt lat="41.1707417" lon="0.5084467"><ele>428.6666666666667</ele><time>2026-03-31T15:45:51.152Z</time></trkpt><trkpt lat="41.1708317" lon="0.50862"><ele>439.33333333333337</ele><time>2026-03-31T15:45:52.152Z</time></trkpt><trkpt lat="41.1709483" lon="0.5087433"><ele>450.0</ele><time>2026-03-31T15:45:53.152Z</time></trkpt><trkpt lat="41.171085" lon="0.5088283"><ele>450.0</ele><time>2026-03-31T15:45:54.151Z</time></trkpt><trkpt lat="41.1712383" lon="0.5089133"><ele>450.0</ele><time>2026-03-31T15:45:55.151Z</time></trkpt><trkpt lat="41.1713933" lon="0.5089717"><ele>450.0</ele><time>2026-03-31T15:45:56.152Z</time></trkpt><trkpt lat="41.1715767" lon="0.5089833"><ele>449.33333333333337</ele><time>2026-03-31T15:45:57.151Z</time></trkpt><trkpt lat="41.17176" lon="0.50898"><ele>448.6666666666667</ele><time>2026-03-31T15:45:58.151Z</time></trkpt><trkpt lat="41.1719367" lon="0.5089933"><ele>448.0</ele><time>2026-03-31T15:45:59.151Z</time></trkpt><trkpt lat="41.1721067" lon="0.5090117"><ele>448.0</ele><time>2026-03-31T15:46:00.152Z</time></trkpt><trkpt lat="41.17227" lon="0.5090117"><ele>448.0</ele><time>2026-03-31T15:46:01.151Z</time></trkpt><trkpt lat="41.172425" lon="0.5089933"><ele>448.0</ele><time>2026-03-31T15:46:02.152Z</time></trkpt><trkpt lat="41.1725833" lon="0.5089633"><ele>451.33333333333337</ele><time>2026-03-31T15:46:03.151Z</time></trkpt><trkpt lat="41.17274" lon="0.5088833"><ele>454.66666666666663</ele><time>2026-03-31T15:46:04.152Z</time></trkpt><trkpt lat="41.1728917" lon="0.50877"><ele>458.0</ele><time>2026-03-31T15:46:05.152Z</time></trkpt><trkpt lat="41.1730217" lon="0.5086317"><ele>458.0</ele><time>2026-03-31T15:46:06.151Z</time></trkpt><trkpt lat="41.173165" lon="0.5085333"><ele>458.0</ele><time>2026-03-31T15:46:07.151Z</time></trkpt><trkpt lat="41.1733233" lon="0.5084467"><ele>458.0</ele><time>2026-03-31T15:46:08.151Z</time></trkpt><trkpt lat="41.1734883" lon="0.5084233"><ele>448.66666666666663</ele><time>2026-03-31T15:46:09.151Z</time></trkpt><trkpt lat="41.17365" lon="0.5084467"><ele>439.33333333333337</ele><time>2026-03-31T15:46:10.151Z</time></trkpt><trkpt lat="41.1738" lon="0.5085333"><ele>430.0</ele><time>2026-03-31T15:46:11.152Z</time></trkpt><trkpt lat="41.1739317" lon="0.5086767"><ele>424.33333333333337</ele><time>2026-03-31T15:46:12.151Z</time></trkpt><trkpt lat="41.1740467" lon="0.5088533"><ele>418.66666666666663</ele><time>2026-03-31T15:46:13.152Z</time></trkpt><trkpt lat="41.1741633" lon="0.5090083"><ele>413.0</ele><time>2026-03-31T15:46:14.152Z</time></trkpt><trkpt lat="41.17428" lon="0.5091533"><ele>413.0</ele><time>2026-03-31T15:46:15.151Z</time></trkpt><trkpt lat="41.1744217" lon="0.5092233"><ele>413.0</ele><time>2026-03-31T15:46:16.151Z</time></trkpt><trkpt lat="41.17457" lon="0.509225"><ele>413.0</ele><time>2026-03-31T15:46:17.151Z</time></trkpt><trkpt lat="41.174705" lon="0.5091717"><ele>413.0</ele><time>2026-03-31T15:46:18.151Z</time></trkpt><trkpt lat="41.1748433" lon="0.5090633"><ele>411.0</ele><time>2026-03-31T15:46:19.152Z</time></trkpt><trkpt lat="41.174945" lon="0.508915"><ele>409.0</ele><time>2026-03-31T15:46:20.152Z</time></trkpt><trkpt lat="41.1749933" lon="0.50874"><ele>407.0</ele><time>2026-03-31T15:46:21.152Z</time></trkpt><trkpt lat="41.1750033" lon="0.5085467"><ele>405.0</ele><time>2026-03-31T15:46:22.151Z</time></trkpt><trkpt lat="41.1749983" lon="0.50834"><ele>405.0</ele><time>2026-03-31T15:46:23.151Z</time></trkpt><trkpt lat="41.1749767" lon="0.5081317"><ele>405.0</ele><time>2026-03-31T15:46:24.151Z</time></trkpt><trkpt lat="41.1749433" lon="0.5079133"><ele>405.0</ele><time>2026-03-31T15:46:25.151Z</time></trkpt><trkpt lat="41.17494" lon="0.507705"><ele>404.5</ele><time>2026-03-31T15:46:26.152Z</time></trkpt><trkpt lat="41.1749683" lon="0.5075083"><ele>404.0</ele><time>2026-03-31T15:46:27.152Z</time></trkpt><trkpt lat="41.1750367" lon="0.5073317"><ele>403.5</ele><time>2026-03-31T15:46:28.152Z</time></trkpt><trkpt lat="41.1751433" lon="0.5072067"><ele>403.0</ele><time>2026-03-31T15:46:29.152Z</time></trkpt><trkpt lat="41.1752683" lon="0.5071583"><ele>403.0</ele><time>2026-03-31T15:46:30.151Z</time></trkpt><trkpt lat="41.17542" lon="0.5071717"><ele>403.0</ele><time>2026-03-31T15:46:31.151Z</time></trkpt><trkpt lat="41.1755483" lon="0.5072483"><ele>403.0</ele><time>2026-03-31T15:46:32.151Z</time></trkpt><trkpt lat="41.1756933" lon="0.5073767"><ele>401.6666666666667</ele><time>2026-03-31T15:46:33.152Z</time></trkpt><trkpt lat="41.1758033" lon="0.50755"><ele>400.33333333333337</ele><time>2026-03-31T15:46:34.152Z</time></trkpt><trkpt lat="41.175915" lon="0.50773"><ele>399.0</ele><time>2026-03-31T15:46:35.151Z</time></trkpt><trkpt lat="41.1759983" lon="0.507915"><ele>392.3333333333333</ele><time>2026-03-31T15:46:36.152Z</time></trkpt><trkpt lat="41.1760317" lon="0.5081067"><ele>385.66666666666663</ele><time>2026-03-31T15:46:37.152Z</time></trkpt><trkpt lat="41.1760317" lon="0.508315"><ele>379.0</ele><time>2026-03-31T15:46:38.151Z</time></trkpt><trkpt lat="41.1759933" lon="0.50853"><ele>379.0</ele><time>2026-03-31T15:46:39.152Z</time></trkpt><trkpt lat="41.175935" lon="0.5087417"><ele>379.0</ele><time>2026-03-31T15:46:40.151Z</time></trkpt><trkpt lat="41.1758633" lon="0.50896"><ele>379.0</ele><time>2026-03-31T15:46:41.151Z</time></trkpt><trkpt lat="41.175805" lon="0.5091867"><ele>377.3333333333333</ele><time>2026-03-31T15:46:42.151Z</time></trkpt><trkpt lat="41.1757783" lon="0.5094167"><ele>375.6666666666667</ele><time>2026-03-31T15:46:43.151Z</time></trkpt><trkpt lat="41.1757783" lon="0.509645"><ele>374.0</ele><time>2026-03-31T15:46:44.152Z</time></trkpt><trkpt lat="41.1757983" lon="0.50988"><ele>372.33333333333337</ele><time>2026-03-31T15:46:45.151Z</time></trkpt><trkpt lat="41.1758333" lon="0.510105"><ele>370.6666666666667</ele><time>2026-03-31T15:46:46.151Z</time></trkpt><trkpt lat="41.1758467" lon="0.5103367"><ele>369.0</ele><time>2026-03-31T15:46:47.151Z</time></trkpt><trkpt lat="41.1758083" lon="0.5105567"><ele>369.0</ele><time>2026-03-31T15:46:48.152Z</time></trkpt><trkpt lat="41.1757517" lon="0.5107467"><ele>369.0</ele><time>2026-03-31T15:46:49.151Z</time></trkpt><trkpt lat="41.175645" lon="0.51092"><ele>369.0</ele><time>2026-03-31T15:46:50.152Z</time></trkpt><trkpt lat="41.175505" lon="0.511045"><ele>369.0</ele><time>2026-03-31T15:46:51.151Z</time></trkpt><trkpt lat="41.1753433" lon="0.5111233"><ele>369.0</ele><time>2026-03-31T15:46:52.152Z</time></trkpt><trkpt lat="41.1751867" lon="0.5111967"><ele>369.0</ele><time>2026-03-31T15:46:53.152Z</time></trkpt><trkpt lat="41.1750433" lon="0.5113033"><ele>368.0</ele><time>2026-03-31T15:46:54.152Z</time></trkpt><trkpt lat="41.174925" lon="0.5114367"><ele>367.0</ele><time>2026-03-31T15:46:55.151Z</time></trkpt><trkpt lat="41.1748367" lon="0.5115983"><ele>366.0</ele><time>2026-03-31T15:46:56.151Z</time></trkpt><trkpt lat="41.17479" lon="0.5117933"><ele>366.0</ele><time>2026-03-31T15:46:57.151Z</time></trkpt><trkpt lat="41.17474" lon="0.5120067"><ele>366.0</ele><time>2026-03-31T15:46:58.152Z</time></trkpt><trkpt lat="41.1747067" lon="0.5122367"><ele>366.0</ele><time>2026-03-31T15:46:59.151Z</time></trkpt><trkpt lat="41.1746617" lon="0.5124717"><ele>363.0</ele><time>2026-03-31T15:47:00.152Z</time></trkpt><trkpt lat="41.1746233" lon="0.51272"><ele>360.0</ele><time>2026-03-31T15:47:01.151Z</time></trkpt><trkpt lat="41.1745917" lon="0.5129733"><ele>357.0</ele><time>2026-03-31T15:47:02.152Z</time></trkpt><trkpt lat="41.1745633" lon="0.51324"><ele>353.6666666666667</ele><time>2026-03-31T15:47:03.151Z</time></trkpt><trkpt lat="41.1745217" lon="0.5135017"><ele>350.33333333333337</ele><time>2026-03-31T15:47:04.151Z</time></trkpt><trkpt lat="41.1744817" lon="0.513775"><ele>347.0</ele><time>2026-03-31T15:47:05.152Z</time></trkpt><trkpt lat="41.1744567" lon="0.5140567"><ele>344.0</ele><time>2026-03-31T15:47:06.152Z</time></trkpt><trkpt lat="41.1744317" lon="0.514345"><ele>341.0</ele><time>2026-03-31T15:47:07.152Z</time></trkpt><trkpt lat="41.1744067" lon="0.51464"><ele>338.0</ele><time>2026-03-31T15:47:08.152Z</time></trkpt><trkpt lat="41.1743917" lon="0.51493"><ele>334.0</ele><time>2026-03-31T15:47:09.151Z</time></trkpt><trkpt lat="41.1743717" lon="0.515225"><ele>330.0</ele><time>2026-03-31T15:47:10.151Z</time></trkpt><trkpt lat="41.1743583" lon="0.5155283"><ele>329.0</ele><time>2026-03-31T15:47:11.152Z</time></trkpt><trkpt lat="41.17435" lon="0.515825"><ele>328.0</ele><time>2026-03-31T15:47:12.151Z</time></trkpt><trkpt lat="41.174345" lon="0.5161183"><ele>327.0</ele><time>2026-03-31T15:47:13.152Z</time></trkpt><trkpt lat="41.1743517" lon="0.5164017"><ele>326.3333333333333</ele><time>2026-03-31T15:47:14.151Z</time></trkpt><trkpt lat="41.1743667" lon="0.5166733"><ele>325.66666666666663</ele><time>2026-03-31T15:47:15.151Z</time></trkpt><trkpt lat="41.17437" lon="0.5169383"><ele>325.0</ele><time>2026-03-31T15:47:16.151Z</time></trkpt><trkpt lat="41.174355" lon="0.5171917"><ele>323.66666666666663</ele><time>2026-03-31T15:47:17.151Z</time></trkpt><trkpt lat="41.1743" lon="0.517435"><ele>322.3333333333333</ele><time>2026-03-31T15:47:18.152Z</time></trkpt><trkpt lat="41.1741983" lon="0.5176583"><ele>321.0</ele><time>2026-03-31T15:47:19.152Z</time></trkpt><trkpt lat="41.1740767" lon="0.5178617"><ele>316.6666666666667</ele><time>2026-03-31T15:47:20.151Z</time></trkpt><trkpt lat="41.1739517" lon="0.5180583"><ele>312.33333333333337</ele><time>2026-03-31T15:47:21.151Z</time></trkpt><trkpt lat="41.17385" lon="0.5182583"><ele>308.0</ele><time>2026-03-31T15:47:22.152Z</time></trkpt><trkpt lat="41.1737733" lon="0.51846"><ele>308.0</ele><time>2026-03-31T15:47:23.152Z</time></trkpt><trkpt lat="41.1737283" lon="0.5186733"><ele>308.0</ele><time>2026-03-31T15:47:24.151Z</time></trkpt><trkpt lat="41.1737167" lon="0.518885"><ele>308.0</ele><time>2026-03-31T15:47:25.152Z</time></trkpt><trkpt lat="41.1737517" lon="0.5191"><ele>306.6666666666667</ele><time>2026-03-31T15:47:26.151Z</time></trkpt><trkpt lat="41.1738133" lon="0.5193167"><ele>305.3333333333333</ele><time>2026-03-31T15:47:27.152Z</time></trkpt><trkpt lat="41.1739067" lon="0.51953"><ele>304.0</ele><time>2026-03-31T15:47:28.152Z</time></trkpt><trkpt lat="41.1740017" lon="0.5197467"><ele>305.0</ele><time>2026-03-31T15:47:29.151Z</time></trkpt><trkpt lat="41.1740917" lon="0.51997"><ele>306.0</ele><time>2026-03-31T15:47:30.151Z</time></trkpt><trkpt lat="41.1741833" lon="0.520175"><ele>307.0</ele><time>2026-03-31T15:47:31.151Z</time></trkpt><trkpt lat="41.1742867" lon="0.5203533"><ele>301.3333333333333</ele><time>2026-03-31T15:47:32.152Z</time></trkpt><trkpt lat="41.1744117" lon="0.520495"><ele>295.6666666666667</ele><time>2026-03-31T15:47:33.151Z</time></trkpt><trkpt lat="41.1745517" lon="0.5206067"><ele>290.0</ele><time>2026-03-31T15:47:34.151Z</time></trkpt><trkpt lat="41.1747017" lon="0.5206733"><ele>290.33333333333337</ele><time>2026-03-31T15:47:35.152Z</time></trkpt><trkpt lat="41.1748717" lon="0.520705"><ele>290.6666666666667</ele><time>2026-03-31T15:47:36.152Z</time></trkpt><trkpt lat="41.1750417" lon="0.5207067"><ele>291.0</ele><time>2026-03-31T15:47:37.152Z</time></trkpt><trkpt lat="41.1752217" lon="0.5206917"><ele>291.0</ele><time>2026-03-31T15:47:38.151Z</time></trkpt><trkpt lat="41.175405" lon="0.5207017"><ele>291.0</ele><time>2026-03-31T15:47:39.152Z</time></trkpt><trkpt lat="41.175595" lon="0.5207417"><ele>291.0</ele><time>2026-03-31T15:47:40.151Z</time></trkpt><trkpt lat="41.17578" lon="0.5208067"><ele>292.0</ele><time>2026-03-31T15:47:41.151Z</time></trkpt><trkpt lat="41.1759683" lon="0.5209"><ele>293.0</ele><time>2026-03-31T15:47:42.152Z</time></trkpt><trkpt lat="41.1761417" lon="0.5210067"><ele>294.0</ele><time>2026-03-31T15:47:43.151Z</time></trkpt><trkpt lat="41.1763083" lon="0.5211217"><ele>294.0</ele><time>2026-03-31T15:47:44.151Z</time></trkpt><trkpt lat="41.176475" lon="0.5212317"><ele>294.0</ele><time>2026-03-31T15:47:45.152Z</time></trkpt><trkpt lat="41.1766017" lon="0.5213783"><ele>294.0</ele><time>2026-03-31T15:47:46.152Z</time></trkpt><trkpt lat="41.176705" lon="0.5215433"><ele>289.3333333333333</ele><time>2026-03-31T15:47:47.151Z</time></trkpt><trkpt lat="41.176775" lon="0.5217633"><ele>284.66666666666663</ele><time>2026-03-31T15:47:48.152Z</time></trkpt><trkpt lat="41.1768033" lon="0.522"><ele>280.0</ele><time>2026-03-31T15:47:49.151Z</time></trkpt><trkpt lat="41.1768067" lon="0.5222583"><ele>278.3333333333333</ele><time>2026-03-31T15:47:50.152Z</time></trkpt><trkpt lat="41.1768067" lon="0.52253"><ele>276.6666666666667</ele><time>2026-03-31T15:47:51.151Z</time></trkpt><trkpt lat="41.1767967" lon="0.5227983"><ele>275.0</ele><time>2026-03-31T15:47:52.152Z</time></trkpt><trkpt lat="41.1767767" lon="0.52308"><ele>273.33333333333337</ele><time>2026-03-31T15:47:53.152Z</time></trkpt><trkpt lat="41.17676" lon="0.5233517"><ele>271.6666666666667</ele><time>2026-03-31T15:47:54.151Z</time></trkpt><trkpt lat="41.17675" lon="0.52362"><ele>270.0</ele><time>2026-03-31T15:47:55.151Z</time></trkpt><trkpt lat="41.1767217" lon="0.52388"><ele>267.3333333333333</ele><time>2026-03-31T15:47:56.151Z</time></trkpt><trkpt lat="41.17666" lon="0.5241317"><ele>264.66666666666663</ele><time>2026-03-31T15:47:57.151Z</time></trkpt><trkpt lat="41.176575" lon="0.5243733"><ele>262.0</ele><time>2026-03-31T15:47:58.151Z</time></trkpt><trkpt lat="41.1764717" lon="0.5246033"><ele>259.66666666666663</ele><time>2026-03-31T15:47:59.151Z</time></trkpt><trkpt lat="41.1763567" lon="0.5248267"><ele>257.3333333333333</ele><time>2026-03-31T15:48:00.152Z</time></trkpt><trkpt lat="41.1762467" lon="0.52507"><ele>255.0</ele><time>2026-03-31T15:48:01.151Z</time></trkpt><trkpt lat="41.176155" lon="0.5253317"><ele>254.5</ele><time>2026-03-31T15:48:02.152Z</time></trkpt><trkpt lat="41.17609" lon="0.5256183"><ele>254.0</ele><time>2026-03-31T15:48:03.152Z</time></trkpt><trkpt lat="41.1760367" lon="0.5259083"><ele>254.0</ele><time>2026-03-31T15:48:04.151Z</time></trkpt><trkpt lat="41.1759967" lon="0.5262083"><ele>254.0</ele><time>2026-03-31T15:48:05.151Z</time></trkpt><trkpt lat="41.1759667" lon="0.5265133"><ele>252.5</ele><time>2026-03-31T15:48:06.152Z</time></trkpt><trkpt lat="41.1759433" lon="0.5268183"><ele>251.0</ele><time>2026-03-31T15:48:07.151Z</time></trkpt><trkpt lat="41.1759383" lon="0.5271267"><ele>249.0</ele><time>2026-03-31T15:48:08.151Z</time></trkpt><trkpt lat="41.1759533" lon="0.5274417"><ele>247.0</ele><time>2026-03-31T15:48:09.152Z</time></trkpt><trkpt lat="41.17598" lon="0.5277483"><ele>244.5</ele><time>2026-03-31T15:48:10.151Z</time></trkpt><trkpt lat="41.1760183" lon="0.5280667"><ele>242.0</ele><time>2026-03-31T15:48:11.152Z</time></trkpt><trkpt lat="41.1760617" lon="0.5283767"><ele>242.0</ele><time>2026-03-31T15:48:12.152Z</time></trkpt><trkpt lat="41.176125" lon="0.5286717"><ele>242.0</ele><time>2026-03-31T15:48:13.151Z</time></trkpt><trkpt lat="41.176215" lon="0.5289467"><ele>240.5</ele><time>2026-03-31T15:48:14.151Z</time></trkpt><trkpt lat="41.1763267" lon="0.5292217"><ele>239.0</ele><time>2026-03-31T15:48:15.151Z</time></trkpt><trkpt lat="41.1764467" lon="0.5295017"><ele>238.5</ele><time>2026-03-31T15:48:16.151Z</time></trkpt><trkpt lat="41.17657" lon="0.5297817"><ele>238.0</ele><time>2026-03-31T15:48:17.152Z</time></trkpt><trkpt lat="41.17669" lon="0.5300583"><ele>238.0</ele><time>2026-03-31T15:48:18.152Z</time></trkpt><trkpt lat="41.1768083" lon="0.5303317"><ele>238.0</ele><time>2026-03-31T15:48:19.151Z</time></trkpt><trkpt lat="41.1769317" lon="0.530595"><ele>235.5</ele><time>2026-03-31T15:48:20.152Z</time></trkpt><trkpt lat="41.1770467" lon="0.53087"><ele>233.0</ele><time>2026-03-31T15:48:21.152Z</time></trkpt><trkpt lat="41.177165" lon="0.5311467"><ele>231.5</ele><time>2026-03-31T15:48:22.151Z</time></trkpt><trkpt lat="41.17727" lon="0.531435"><ele>230.0</ele><time>2026-03-31T15:48:23.152Z</time></trkpt><trkpt lat="41.1773567" lon="0.531735"><ele>230.5</ele><time>2026-03-31T15:48:24.151Z</time></trkpt><trkpt lat="41.1774317" lon="0.5320367"><ele>231.0</ele><time>2026-03-31T15:48:25.151Z</time></trkpt><trkpt lat="41.177495" lon="0.5323417"><ele>231.0</ele><time>2026-03-31T15:48:26.152Z</time></trkpt><trkpt lat="41.17753" lon="0.5326517"><ele>231.0</ele><time>2026-03-31T15:48:27.152Z</time></trkpt><trkpt lat="41.1775717" lon="0.5329767"><ele>230.0</ele><time>2026-03-31T15:48:28.152Z</time></trkpt><trkpt lat="41.1776" lon="0.5332967"><ele>229.0</ele><time>2026-03-31T15:48:29.151Z</time></trkpt><trkpt lat="41.1776233" lon="0.5336167"><ele>227.33333333333331</ele><time>2026-03-31T15:48:30.151Z</time></trkpt><trkpt lat="41.1776467" lon="0.5339167"><ele>225.66666666666669</ele><time>2026-03-31T15:48:31.152Z</time></trkpt><trkpt lat="41.1776783" lon="0.5342083"><ele>224.0</ele><time>2026-03-31T15:48:32.151Z</time></trkpt><trkpt lat="41.1776867" lon="0.53449"><ele>223.0</ele><time>2026-03-31T15:48:33.152Z</time></trkpt><trkpt lat="41.1776583" lon="0.5347633"><ele>222.0</ele><time>2026-03-31T15:48:34.151Z</time></trkpt><trkpt lat="41.1775983" lon="0.53503"><ele>221.0</ele><time>2026-03-31T15:48:35.151Z</time></trkpt><trkpt lat="41.17751" lon="0.5353"><ele>219.0</ele><time>2026-03-31T15:48:36.152Z</time></trkpt><trkpt lat="41.1774083" lon="0.5355633"><ele>217.0</ele><time>2026-03-31T15:48:37.151Z</time></trkpt><trkpt lat="41.177305" lon="0.53584"><ele>217.0</ele><time>2026-03-31T15:48:38.151Z</time></trkpt><trkpt lat="41.177205" lon="0.5361167"><ele>217.0</ele><time>2026-03-31T15:48:39.151Z</time></trkpt><trkpt lat="41.1771" lon="0.5363933"><ele>214.5</ele><time>2026-03-31T15:48:40.152Z</time></trkpt><trkpt lat="41.1769967" lon="0.536665"><ele>212.0</ele><time>2026-03-31T15:48:41.152Z</time></trkpt><trkpt lat="41.1769017" lon="0.5369333"><ele>210.33333333333334</ele><time>2026-03-31T15:48:42.152Z</time></trkpt><trkpt lat="41.17682" lon="0.5372017"><ele>208.66666666666669</ele><time>2026-03-31T15:48:43.152Z</time></trkpt><trkpt lat="41.17675" lon="0.5374767"><ele>207.0</ele><time>2026-03-31T15:48:44.151Z</time></trkpt><trkpt lat="41.1766983" lon="0.5377717"><ele>204.0</ele><time>2026-03-31T15:48:45.152Z</time></trkpt><trkpt lat="41.1766567" lon="0.5380733"><ele>201.0</ele><time>2026-03-31T15:48:46.151Z</time></trkpt><trkpt lat="41.17663" lon="0.5383867"><ele>201.0</ele><time>2026-03-31T15:48:47.151Z</time></trkpt><trkpt lat="41.1766133" lon="0.5387067"><ele>201.0</ele><time>2026-03-31T15:48:48.151Z</time></trkpt><trkpt lat="41.1765983" lon="0.5390233"><ele>200.0</ele><time>2026-03-31T15:48:49.151Z</time></trkpt><trkpt lat="41.1765833" lon="0.539345"><ele>199.0</ele><time>2026-03-31T15:48:50.151Z</time></trkpt><trkpt lat="41.1765633" lon="0.5396617"><ele>197.0</ele><time>2026-03-31T15:48:51.152Z</time></trkpt><trkpt lat="41.1765333" lon="0.5399767"><ele>195.0</ele><time>2026-03-31T15:48:52.152Z</time></trkpt><trkpt lat="41.1764967" lon="0.540295"><ele>193.5</ele><time>2026-03-31T15:48:53.151Z</time></trkpt><trkpt lat="41.1764483" lon="0.54061"><ele>192.0</ele><time>2026-03-31T15:48:54.151Z</time></trkpt><trkpt lat="41.176395" lon="0.5409133"><ele>192.0</ele><time>2026-03-31T15:48:55.151Z</time></trkpt><trkpt lat="41.1763383" lon="0.5412067"><ele>192.0</ele><time>2026-03-31T15:48:56.152Z</time></trkpt><trkpt lat="41.176275" lon="0.5414933"><ele>189.0</ele><time>2026-03-31T15:48:57.152Z</time></trkpt><trkpt lat="41.17622" lon="0.5417683"><ele>186.0</ele><time>2026-03-31T15:48:58.151Z</time></trkpt><trkpt lat="41.1761717" lon="0.54203"><ele>183.0</ele><time>2026-03-31T15:48:59.152Z</time></trkpt><trkpt lat="41.1761267" lon="0.5422833"><ele>179.66666666666666</ele><time>2026-03-31T15:49:00.151Z</time></trkpt><trkpt lat="41.1761117" lon="0.5425383"><ele>176.33333333333331</ele><time>2026-03-31T15:49:01.151Z</time></trkpt><trkpt lat="41.17615" lon="0.5428017"><ele>173.0</ele><time>2026-03-31T15:49:02.152Z</time></trkpt><trkpt lat="41.1762033" lon="0.5430417"><ele>171.33333333333331</ele><time>2026-03-31T15:49:03.151Z</time></trkpt><trkpt lat="41.1762967" lon="0.54329"><ele>169.66666666666666</ele><time>2026-03-31T15:49:04.152Z</time></trkpt><trkpt lat="41.1763967" lon="0.54354"><ele>168.0</ele><time>2026-03-31T15:49:05.151Z</time></trkpt><trkpt lat="41.1764833" lon="0.5438083"><ele>167.66666666666666</ele><time>2026-03-31T15:49:06.152Z</time></trkpt><trkpt lat="41.17656" lon="0.5440867"><ele>167.33333333333331</ele><time>2026-03-31T15:49:07.151Z</time></trkpt><trkpt lat="41.17663" lon="0.544365"><ele>167.0</ele><time>2026-03-31T15:49:08.152Z</time></trkpt><trkpt lat="41.1766817" lon="0.544655"><ele>165.0</ele><time>2026-03-31T15:49:09.152Z</time></trkpt><trkpt lat="41.1767317" lon="0.5449517"><ele>163.0</ele><time>2026-03-31T15:49:10.151Z</time></trkpt><trkpt lat="41.17677" lon="0.545255"><ele>162.5</ele><time>2026-03-31T15:49:11.152Z</time></trkpt><trkpt lat="41.1768067" lon="0.5455567"><ele>162.0</ele><time>2026-03-31T15:49:12.152Z</time></trkpt><trkpt lat="41.1768433" lon="0.5458583"><ele>162.0</ele><time>2026-03-31T15:49:13.151Z</time></trkpt><trkpt lat="41.1768867" lon="0.546165"><ele>162.0</ele><time>2026-03-31T15:49:14.151Z</time></trkpt><trkpt lat="41.1769233" lon="0.54647"><ele>160.0</ele><time>2026-03-31T15:49:15.151Z</time></trkpt><trkpt lat="41.1769683" lon="0.5467783"><ele>158.0</ele><time>2026-03-31T15:49:16.151Z</time></trkpt><trkpt lat="41.1770117" lon="0.5470883"><ele>155.5</ele><time>2026-03-31T15:49:17.152Z</time></trkpt><trkpt lat="41.1770567" lon="0.5473983"><ele>153.0</ele><time>2026-03-31T15:49:18.152Z</time></trkpt><trkpt lat="41.1770933" lon="0.547705"><ele>157.0</ele><time>2026-03-31T15:49:19.151Z</time></trkpt><trkpt lat="41.177145" lon="0.548"><ele>161.0</ele><time>2026-03-31T15:49:20.151Z</time></trkpt><trkpt lat="41.17721" lon="0.54829"><ele>161.0</ele><time>2026-03-31T15:49:21.152Z</time></trkpt><trkpt lat="41.17728" lon="0.548585"><ele>161.0</ele><time>2026-03-31T15:49:22.151Z</time></trkpt><trkpt lat="41.177365" lon="0.5488767"><ele>165.0</ele><time>2026-03-31T15:49:23.151Z</time></trkpt><trkpt lat="41.1774583" lon="0.5491683"><ele>169.0</ele><time>2026-03-31T15:49:24.152Z</time></trkpt><trkpt lat="41.1775533" lon="0.5494717"><ele>167.5</ele><time>2026-03-31T15:49:25.151Z</time></trkpt><trkpt lat="41.1776467" lon="0.5497667"><ele>166.0</ele><time>2026-03-31T15:49:26.152Z</time></trkpt><trkpt lat="41.1777383" lon="0.550045"><ele>166.0</ele><time>2026-03-31T15:49:27.151Z</time></trkpt><trkpt lat="41.1778233" lon="0.55032"><ele>166.0</ele><time>2026-03-31T15:49:28.151Z</time></trkpt><trkpt lat="41.17791" lon="0.5505883"><ele>166.0</ele><time>2026-03-31T15:49:29.151Z</time></trkpt><trkpt lat="41.1779967" lon="0.5508683"><ele>164.33333333333334</ele><time>2026-03-31T15:49:30.152Z</time></trkpt><trkpt lat="41.1780783" lon="0.5511367"><ele>162.66666666666666</ele><time>2026-03-31T15:49:31.151Z</time></trkpt><trkpt lat="41.17816" lon="0.5513917"><ele>161.0</ele><time>2026-03-31T15:49:32.151Z</time></trkpt><trkpt lat="41.17825" lon="0.5516283"><ele>161.0</ele><time>2026-03-31T15:49:33.151Z</time></trkpt><trkpt lat="41.17836" lon="0.5518517"><ele>161.0</ele><time>2026-03-31T15:49:34.151Z</time></trkpt><trkpt lat="41.1784983" lon="0.552065"><ele>161.0</ele><time>2026-03-31T15:49:35.152Z</time></trkpt><trkpt lat="41.1786567" lon="0.5522617"><ele>160.33333333333331</ele><time>2026-03-31T15:49:36.151Z</time></trkpt><trkpt lat="41.1788133" lon="0.5524483"><ele>159.66666666666666</ele><time>2026-03-31T15:49:37.151Z</time></trkpt><trkpt lat="41.178965" lon="0.5526267"><ele>159.0</ele><time>2026-03-31T15:49:38.151Z</time></trkpt><trkpt lat="41.179105" lon="0.5528033"><ele>155.33333333333334</ele><time>2026-03-31T15:49:39.151Z</time></trkpt><trkpt lat="41.17924" lon="0.5529567"><ele>151.66666666666669</ele><time>2026-03-31T15:49:40.151Z</time></trkpt><trkpt lat="41.1793617" lon="0.5530883"><ele>148.0</ele><time>2026-03-31T15:49:41.151Z</time></trkpt><trkpt lat="41.179505" lon="0.5531867"><ele>148.0</ele><time>2026-03-31T15:49:42.151Z</time></trkpt><trkpt lat="41.1796633" lon="0.5532467"><ele>148.0</ele><time>2026-03-31T15:49:43.151Z</time></trkpt><trkpt lat="41.1798383" lon="0.5532717"><ele>148.0</ele><time>2026-03-31T15:49:44.151Z</time></trkpt><trkpt lat="41.1800183" lon="0.5532683"><ele>147.0</ele><time>2026-03-31T15:49:45.152Z</time></trkpt><trkpt lat="41.1801933" lon="0.5532417"><ele>146.0</ele><time>2026-03-31T15:49:46.152Z</time></trkpt><trkpt lat="41.1803617" lon="0.553215"><ele>145.0</ele><time>2026-03-31T15:49:47.152Z</time></trkpt><trkpt lat="41.1805283" lon="0.553185"><ele>142.0</ele><time>2026-03-31T15:49:48.151Z</time></trkpt><trkpt lat="41.1806833" lon="0.5531633"><ele>139.0</ele><time>2026-03-31T15:49:49.152Z</time></trkpt><trkpt lat="41.18084" lon="0.553145"><ele>136.0</ele><time>2026-03-31T15:49:50.151Z</time></trkpt><trkpt lat="41.1809867" lon="0.5531117"><ele>136.0</ele><time>2026-03-31T15:49:51.152Z</time></trkpt><trkpt lat="41.181125" lon="0.55305"><ele>136.0</ele><time>2026-03-31T15:49:52.152Z</time></trkpt><trkpt lat="41.1812583" lon="0.5529533"><ele>136.0</ele><time>2026-03-31T15:49:53.152Z</time></trkpt><trkpt lat="41.181375" lon="0.55281"><ele>136.33333333333334</ele><time>2026-03-31T15:49:54.152Z</time></trkpt><trkpt lat="41.1814783" lon="0.55263"><ele>136.66666666666666</ele><time>2026-03-31T15:49:55.151Z</time></trkpt><trkpt lat="41.1815583" lon="0.5524217"><ele>137.0</ele><time>2026-03-31T15:49:56.151Z</time></trkpt><trkpt lat="41.1816233" lon="0.55219"><ele>137.33333333333331</ele><time>2026-03-31T15:49:57.151Z</time></trkpt><trkpt lat="41.181685" lon="0.5519617"><ele>137.66666666666666</ele><time>2026-03-31T15:49:58.151Z</time></trkpt><trkpt lat="41.181755" lon="0.5517367"><ele>138.0</ele><time>2026-03-31T15:49:59.151Z</time></trkpt><trkpt lat="41.1818417" lon="0.5515333"><ele>138.0</ele><time>2026-03-31T15:50:00.151Z</time></trkpt><trkpt lat="41.181965" lon="0.5513517"><ele>138.0</ele><time>2026-03-31T15:50:01.151Z</time></trkpt><trkpt lat="41.1821083" lon="0.5512217"><ele>138.0</ele><time>2026-03-31T15:50:02.151Z</time></trkpt><trkpt lat="41.1822683" lon="0.55115"><ele>135.0</ele><time>2026-03-31T15:50:03.151Z</time></trkpt><trkpt lat="41.182445" lon="0.5511333"><ele>132.0</ele><time>2026-03-31T15:50:04.151Z</time></trkpt><trkpt lat="41.1826233" lon="0.5511567"><ele>129.0</ele><time>2026-03-31T15:50:05.151Z</time></trkpt><trkpt lat="41.182805" lon="0.5512267"><ele>128.0</ele><time>2026-03-31T15:50:06.152Z</time></trkpt><trkpt lat="41.18298" lon="0.5513167"><ele>127.0</ele><time>2026-03-31T15:50:07.152Z</time></trkpt><trkpt lat="41.1831533" lon="0.5514133"><ele>126.0</ele><time>2026-03-31T15:50:08.152Z</time></trkpt><trkpt lat="41.1833167" lon="0.551515"><ele>125.0</ele><time>2026-03-31T15:50:09.151Z</time></trkpt><trkpt lat="41.18349" lon="0.551585"><ele>124.0</ele><time>2026-03-31T15:50:10.151Z</time></trkpt><trkpt lat="41.1836683" lon="0.5516117"><ele>123.0</ele><time>2026-03-31T15:50:11.151Z</time></trkpt><trkpt lat="41.1838483" lon="0.5515917"><ele>122.0</ele><time>2026-03-31T15:50:12.151Z</time></trkpt><trkpt lat="41.1840267" lon="0.551515"><ele>121.0</ele><time>2026-03-31T15:50:13.151Z</time></trkpt><trkpt lat="41.18419" lon="0.551395"><ele>120.0</ele><time>2026-03-31T15:50:14.152Z</time></trkpt><trkpt lat="41.18434" lon="0.551265"><ele>116.66666666666666</ele><time>2026-03-31T15:50:15.151Z</time></trkpt><trkpt lat="41.184495" lon="0.5511567"><ele>113.33333333333333</ele><time>2026-03-31T15:50:16.151Z</time></trkpt><trkpt lat="41.1846617" lon="0.551085"><ele>110.0</ele><time>2026-03-31T15:50:17.152Z</time></trkpt><trkpt lat="41.1848383" lon="0.55107"><ele>111.0</ele><time>2026-03-31T15:50:18.152Z</time></trkpt><trkpt lat="41.1850183" lon="0.5511183"><ele>112.0</ele><time>2026-03-31T15:50:19.152Z</time></trkpt><trkpt lat="41.185185" lon="0.55119"><ele>113.0</ele><time>2026-03-31T15:50:20.151Z</time></trkpt><trkpt lat="41.1853267" lon="0.55132"><ele>113.0</ele><time>2026-03-31T15:50:21.151Z</time></trkpt><trkpt lat="41.185445" lon="0.5514983"><ele>113.0</ele><time>2026-03-31T15:50:22.151Z</time></trkpt><trkpt lat="41.1855283" lon="0.5517167"><ele>113.0</ele><time>2026-03-31T15:50:23.152Z</time></trkpt><trkpt lat="41.1855733" lon="0.5519517"><ele>112.0</ele><time>2026-03-31T15:50:24.152Z</time></trkpt><trkpt lat="41.1855683" lon="0.5522017"><ele>111.0</ele><time>2026-03-31T15:50:25.151Z</time></trkpt><trkpt lat="41.1855333" lon="0.55246"><ele>110.0</ele><time>2026-03-31T15:50:26.151Z</time></trkpt><trkpt lat="41.18548" lon="0.552715"><ele>107.66666666666666</ele><time>2026-03-31T15:50:27.151Z</time></trkpt><trkpt lat="41.1854233" lon="0.5529833"><ele>105.33333333333334</ele><time>2026-03-31T15:50:28.151Z</time></trkpt><trkpt lat="41.185365" lon="0.5532433"><ele>103.0</ele><time>2026-03-31T15:50:29.151Z</time></trkpt><trkpt lat="41.1853083" lon="0.5535083"><ele>102.0</ele><time>2026-03-31T15:50:30.151Z</time></trkpt><trkpt lat="41.18525" lon="0.5537783"><ele>101.0</ele><time>2026-03-31T15:50:31.152Z</time></trkpt><trkpt lat="41.1851933" lon="0.5540517"><ele>100.0</ele><time>2026-03-31T15:50:32.152Z</time></trkpt><trkpt lat="41.18514" lon="0.5543283"><ele>98.0</ele><time>2026-03-31T15:50:33.151Z</time></trkpt><trkpt lat="41.1850733" lon="0.5546067"><ele>96.0</ele><time>2026-03-31T15:50:34.152Z</time></trkpt><trkpt lat="41.1850133" lon="0.5548817"><ele>94.0</ele><time>2026-03-31T15:50:35.152Z</time></trkpt><trkpt lat="41.184955" lon="0.55516"><ele>92.33333333333333</ele><time>2026-03-31T15:50:36.151Z</time></trkpt><trkpt lat="41.18489" lon="0.555435"><ele>90.66666666666667</ele><time>2026-03-31T15:50:37.151Z</time></trkpt><trkpt lat="41.1848217" lon="0.5557083"><ele>89.0</ele><time>2026-03-31T15:50:38.152Z</time></trkpt><trkpt lat="41.1847617" lon="0.5559733"><ele>87.66666666666667</ele><time>2026-03-31T15:50:39.151Z</time></trkpt><trkpt lat="41.1847083" lon="0.5562367"><ele>86.33333333333333</ele><time>2026-03-31T15:50:40.152Z</time></trkpt><trkpt lat="41.1846517" lon="0.556505"><ele>85.0</ele><time>2026-03-31T15:50:41.151Z</time></trkpt><trkpt lat="41.1845933" lon="0.55677"><ele>83.66666666666666</ele><time>2026-03-31T15:50:42.152Z</time></trkpt><trkpt lat="41.1845333" lon="0.55704"><ele>82.33333333333333</ele><time>2026-03-31T15:50:43.152Z</time></trkpt><trkpt lat="41.1844783" lon="0.557305"><ele>81.0</ele><time>2026-03-31T15:50:44.151Z</time></trkpt><trkpt lat="41.1844233" lon="0.5575617"><ele>81.0</ele><time>2026-03-31T15:50:45.151Z</time></trkpt><trkpt lat="41.184375" lon="0.5578133"><ele>81.0</ele><time>2026-03-31T15:50:46.152Z</time></trkpt><trkpt lat="41.1843233" lon="0.55805"><ele>81.0</ele><time>2026-03-31T15:50:47.152Z</time></trkpt><trkpt lat="41.1842717" lon="0.5582733"><ele>80.66666666666667</ele><time>2026-03-31T15:50:48.151Z</time></trkpt><trkpt lat="41.1842217" lon="0.558495"><ele>80.33333333333334</ele><time>2026-03-31T15:50:49.152Z</time></trkpt><trkpt lat="41.1841767" lon="0.5587233"><ele>80.0</ele><time>2026-03-31T15:50:50.152Z</time></trkpt><trkpt lat="41.1841417" lon="0.5589467"><ele>79.66666666666667</ele><time>2026-03-31T15:50:51.152Z</time></trkpt><trkpt lat="41.1841183" lon="0.5591733"><ele>79.33333333333333</ele><time>2026-03-31T15:50:52.152Z</time></trkpt><trkpt lat="41.18413" lon="0.5593917"><ele>79.0</ele><time>2026-03-31T15:50:53.152Z</time></trkpt><trkpt lat="41.1841817" lon="0.55959"><ele>76.66666666666666</ele><time>2026-03-31T15:50:54.151Z</time></trkpt><trkpt lat="41.1842667" lon="0.559775"><ele>74.33333333333333</ele><time>2026-03-31T15:50:55.152Z</time></trkpt><trkpt lat="41.1843817" lon="0.55994"><ele>72.0</ele><time>2026-03-31T15:50:56.152Z</time></trkpt><trkpt lat="41.1845267" lon="0.5600617"><ele>72.0</ele><time>2026-03-31T15:50:57.152Z</time></trkpt><trkpt lat="41.1846983" lon="0.5601483"><ele>72.0</ele><time>2026-03-31T15:50:58.151Z</time></trkpt><trkpt lat="41.184875" lon="0.56023"><ele>72.0</ele><time>2026-03-31T15:50:59.151Z</time></trkpt><trkpt lat="41.1850367" lon="0.560325"><ele>69.33333333333333</ele><time>2026-03-31T15:51:00.151Z</time></trkpt><trkpt lat="41.18519" lon="0.560465"><ele>66.66666666666666</ele><time>2026-03-31T15:51:01.152Z</time></trkpt><trkpt lat="41.1853117" lon="0.560635"><ele>64.0</ele><time>2026-03-31T15:51:02.151Z</time></trkpt><trkpt lat="41.1853933" lon="0.5608533"><ele>64.0</ele><time>2026-03-31T15:51:03.151Z</time></trkpt><trkpt lat="41.1854533" lon="0.561095"><ele>64.0</ele><time>2026-03-31T15:51:04.151Z</time></trkpt><trkpt lat="41.1855033" lon="0.56133"><ele>64.0</ele><time>2026-03-31T15:51:05.151Z</time></trkpt><trkpt lat="41.185555" lon="0.56157"><ele>62.33333333333333</ele><time>2026-03-31T15:51:06.152Z</time></trkpt><trkpt lat="41.1856133" lon="0.5618017"><ele>60.66666666666667</ele><time>2026-03-31T15:51:07.152Z</time></trkpt><trkpt lat="41.18567" lon="0.562025"><ele>59.0</ele><time>2026-03-31T15:51:08.151Z</time></trkpt><trkpt lat="41.18572" lon="0.5622467"><ele>59.0</ele><time>2026-03-31T15:51:09.151Z</time></trkpt><trkpt lat="41.1857667" lon="0.5624583"><ele>59.0</ele><time>2026-03-31T15:51:10.151Z</time></trkpt><trkpt lat="41.1858083" lon="0.5626667"><ele>59.0</ele><time>2026-03-31T15:51:11.151Z</time></trkpt><trkpt lat="41.18585" lon="0.5628683"><ele>58.25</ele><time>2026-03-31T15:51:12.152Z</time></trkpt><trkpt lat="41.18589" lon="0.5630583"><ele>57.5</ele><time>2026-03-31T15:51:13.152Z</time></trkpt><trkpt lat="41.1859283" lon="0.5632467"><ele>56.75</ele><time>2026-03-31T15:51:14.151Z</time></trkpt><trkpt lat="41.1859733" lon="0.5634317"><ele>56.0</ele><time>2026-03-31T15:51:15.151Z</time></trkpt><trkpt lat="41.18601" lon="0.5636117"><ele>56.0</ele><time>2026-03-31T15:51:16.152Z</time></trkpt><trkpt lat="41.18605" lon="0.5637933"><ele>56.0</ele><time>2026-03-31T15:51:17.152Z</time></trkpt><trkpt lat="41.1860817" lon="0.563975"><ele>56.0</ele><time>2026-03-31T15:51:18.151Z</time></trkpt><trkpt lat="41.1861133" lon="0.5641567"><ele>56.0</ele><time>2026-03-31T15:51:19.151Z</time></trkpt><trkpt lat="41.186155" lon="0.5643367"><ele>56.0</ele><time>2026-03-31T15:51:20.151Z</time></trkpt><trkpt lat="41.186195" lon="0.5645217"><ele>56.0</ele><time>2026-03-31T15:51:21.151Z</time></trkpt><trkpt lat="41.1862317" lon="0.5647183"><ele>56.0</ele><time>2026-03-31T15:51:22.152Z</time></trkpt><trkpt lat="41.1862583" lon="0.56491"><ele>56.0</ele><time>2026-03-31T15:51:23.151Z</time></trkpt><trkpt lat="41.1862867" lon="0.5651017"><ele>55.5</ele><time>2026-03-31T15:51:24.151Z</time></trkpt><trkpt lat="41.186315" lon="0.5652883"><ele>55.0</ele><time>2026-03-31T15:51:25.151Z</time></trkpt><trkpt lat="41.1863433" lon="0.5654633"><ele>54.5</ele><time>2026-03-31T15:51:26.152Z</time></trkpt><trkpt lat="41.186365" lon="0.565625"><ele>54.0</ele><time>2026-03-31T15:51:27.151Z</time></trkpt><trkpt lat="41.1863817" lon="0.5657667"><ele>54.0</ele><time>2026-03-31T15:51:28.152Z</time></trkpt><trkpt lat="41.1863917" lon="0.5658917"><ele>54.00000000000001</ele><time>2026-03-31T15:51:29.152Z</time></trkpt><trkpt lat="41.186385" lon="0.566015"><ele>54.00000000000001</ele><time>2026-03-31T15:51:30.151Z</time></trkpt><trkpt lat="41.1863683" lon="0.5661283"><ele>54.0</ele><time>2026-03-31T15:51:31.151Z</time></trkpt><trkpt lat="41.186355" lon="0.5662683"><ele>54.0</ele><time>2026-03-31T15:51:32.151Z</time></trkpt><trkpt lat="41.1863683" lon="0.5663917"><ele>54.0</ele><time>2026-03-31T15:51:33.151Z</time></trkpt><trkpt lat="41.1864133" lon="0.5665033"><ele>54.00000000000001</ele><time>2026-03-31T15:51:34.151Z</time></trkpt><trkpt lat="41.18648" lon="0.5666"><ele>54.00000000000001</ele><time>2026-03-31T15:51:35.152Z</time></trkpt><trkpt lat="41.1865733" lon="0.56666"><ele>54.0</ele><time>2026-03-31T15:51:36.151Z</time></trkpt><trkpt lat="41.1866767" lon="0.566665"><ele>54.0</ele><time>2026-03-31T15:51:37.152Z</time></trkpt><trkpt lat="41.186775" lon="0.5666217"><ele>53.800000000000004</ele><time>2026-03-31T15:51:38.152Z</time></trkpt><trkpt lat="41.1868533" lon="0.5665433"><ele>53.60000000000001</ele><time>2026-03-31T15:51:39.151Z</time></trkpt><trkpt lat="41.1869083" lon="0.5664183"><ele>53.4</ele><time>2026-03-31T15:51:40.152Z</time></trkpt><trkpt lat="41.1869317" lon="0.5662717"><ele>53.2</ele><time>2026-03-31T15:51:41.151Z</time></trkpt><trkpt lat="41.1869217" lon="0.5661067"><ele>53.0</ele><time>2026-03-31T15:51:42.151Z</time></trkpt><trkpt lat="41.1869017" lon="0.5659333"><ele>53.0</ele><time>2026-03-31T15:51:43.151Z</time></trkpt><trkpt lat="41.1869033" lon="0.5657533"><ele>53.0</ele><time>2026-03-31T15:51:44.151Z</time></trkpt><trkpt lat="41.186935" lon="0.565565"><ele>53.0</ele><time>2026-03-31T15:51:45.151Z</time></trkpt><trkpt lat="41.1869933" lon="0.5653667"><ele>53.0</ele><time>2026-03-31T15:51:46.151Z</time></trkpt><trkpt lat="41.187055" lon="0.5651717"><ele>54.333333333333336</ele><time>2026-03-31T15:51:47.151Z</time></trkpt><trkpt lat="41.18713" lon="0.564985"><ele>55.66666666666667</ele><time>2026-03-31T15:51:48.152Z</time></trkpt><trkpt lat="41.18722" lon="0.5648"><ele>57.0</ele><time>2026-03-31T15:51:49.152Z</time></trkpt><trkpt lat="41.1873267" lon="0.56462"><ele>56.0</ele><time>2026-03-31T15:51:50.151Z</time></trkpt><trkpt lat="41.1874533" lon="0.5644517"><ele>55.0</ele><time>2026-03-31T15:51:51.151Z</time></trkpt><trkpt lat="41.1876" lon="0.564275"><ele>54.0</ele><time>2026-03-31T15:51:52.151Z</time></trkpt><trkpt lat="41.1877533" lon="0.5641"><ele>54.0</ele><time>2026-03-31T15:51:53.151Z</time></trkpt><trkpt lat="41.18791" lon="0.56393"><ele>54.0</ele><time>2026-03-31T15:51:54.151Z</time></trkpt><trkpt lat="41.1880633" lon="0.5637567"><ele>54.0</ele><time>2026-03-31T15:51:55.151Z</time></trkpt><trkpt lat="41.1882167" lon="0.563585"><ele>55.0</ele><time>2026-03-31T15:51:56.152Z</time></trkpt><trkpt lat="41.1883783" lon="0.5634033"><ele>56.0</ele><time>2026-03-31T15:51:57.151Z</time></trkpt><trkpt lat="41.1885367" lon="0.5632233"><ele>57.0</ele><time>2026-03-31T15:51:58.152Z</time></trkpt><trkpt lat="41.1887" lon="0.5630483"><ele>57.0</ele><time>2026-03-31T15:51:59.151Z</time></trkpt><trkpt lat="41.1888633" lon="0.562865"><ele>57.0</ele><time>2026-03-31T15:52:00.151Z</time></trkpt><trkpt lat="41.18902" lon="0.5626833"><ele>57.0</ele><time>2026-03-31T15:52:01.152Z</time></trkpt><trkpt lat="41.1891783" lon="0.5625067"><ele>59.0</ele><time>2026-03-31T15:52:02.151Z</time></trkpt><trkpt lat="41.1893367" lon="0.5623317"><ele>61.0</ele><time>2026-03-31T15:52:03.152Z</time></trkpt><trkpt lat="41.1894933" lon="0.5621533"><ele>63.0</ele><time>2026-03-31T15:52:04.151Z</time></trkpt><trkpt lat="41.1896467" lon="0.5619733"><ele>63.33333333333333</ele><time>2026-03-31T15:52:05.152Z</time></trkpt><trkpt lat="41.1898" lon="0.561795"><ele>63.666666666666664</ele><time>2026-03-31T15:52:06.151Z</time></trkpt><trkpt lat="41.1899533" lon="0.561615"><ele>64.0</ele><time>2026-03-31T15:52:07.15Z</time></trkpt><trkpt lat="41.1901117" lon="0.561445"><ele>64.0</ele><time>2026-03-31T15:52:08.15Z</time></trkpt><trkpt lat="41.1902633" lon="0.561275"><ele>64.0</ele><time>2026-03-31T15:52:09.151Z</time></trkpt><trkpt lat="41.1904183" lon="0.5611083"><ele>64.0</ele><time>2026-03-31T15:52:10.15Z</time></trkpt><trkpt lat="41.1905733" lon="0.560945"><ele>64.33333333333333</ele><time>2026-03-31T15:52:11.15Z</time></trkpt><trkpt lat="41.19073" lon="0.5607983"><ele>64.66666666666667</ele><time>2026-03-31T15:52:12.15Z</time></trkpt><trkpt lat="41.1908933" lon="0.56067"><ele>65.0</ele><time>2026-03-31T15:52:13.151Z</time></trkpt><trkpt lat="41.19107" lon="0.5605683"><ele>65.0</ele><time>2026-03-31T15:52:14.15Z</time></trkpt><trkpt lat="41.1912483" lon="0.5604817"><ele>65.0</ele><time>2026-03-31T15:52:15.15Z</time></trkpt><trkpt lat="41.1914267" lon="0.56042"><ele>65.0</ele><time>2026-03-31T15:52:16.15Z</time></trkpt><trkpt lat="41.1916" lon="0.5603783"><ele>66.0</ele><time>2026-03-31T15:52:17.15Z</time></trkpt><trkpt lat="41.1917733" lon="0.5603533"><ele>67.0</ele><time>2026-03-31T15:52:18.15Z</time></trkpt><trkpt lat="41.1919533" lon="0.5603433"><ele>68.0</ele><time>2026-03-31T15:52:19.151Z</time></trkpt><trkpt lat="41.19213" lon="0.5603367"><ele>68.0</ele><time>2026-03-31T15:52:20.15Z</time></trkpt><trkpt lat="41.1922967" lon="0.5603367"><ele>68.0</ele><time>2026-03-31T15:52:21.151Z</time></trkpt><trkpt lat="41.1924533" lon="0.5603333"><ele>68.0</ele><time>2026-03-31T15:52:22.151Z</time></trkpt><trkpt lat="41.1925933" lon="0.56033"><ele>70.5</ele><time>2026-03-31T15:52:23.151Z</time></trkpt><trkpt lat="41.1927233" lon="0.5603267"><ele>73.0</ele><time>2026-03-31T15:52:24.15Z</time></trkpt><trkpt lat="41.1928617" lon="0.5603267"><ele>75.5</ele><time>2026-03-31T15:52:25.151Z</time></trkpt><trkpt lat="41.1930033" lon="0.5603267"><ele>78.0</ele><time>2026-03-31T15:52:26.15Z</time></trkpt><trkpt lat="41.1931383" lon="0.560315"><ele>79.75</ele><time>2026-03-31T15:52:27.15Z</time></trkpt><trkpt lat="41.193265" lon="0.5603067"><ele>81.5</ele><time>2026-03-31T15:52:28.15Z</time></trkpt><trkpt lat="41.19339" lon="0.5602917"><ele>83.25</ele><time>2026-03-31T15:52:29.15Z</time></trkpt><trkpt lat="41.1935083" lon="0.560265"><ele>85.0</ele><time>2026-03-31T15:52:30.15Z</time></trkpt><trkpt lat="41.19362" lon="0.5602467"><ele>85.0</ele><time>2026-03-31T15:52:31.151Z</time></trkpt><trkpt lat="41.19373" lon="0.56022"><ele>85.0</ele><time>2026-03-31T15:52:32.15Z</time></trkpt><trkpt lat="41.1938433" lon="0.5601917"><ele>85.0</ele><time>2026-03-31T15:52:33.151Z</time></trkpt><trkpt lat="41.1939617" lon="0.5601567"><ele>85.0</ele><time>2026-03-31T15:52:34.151Z</time></trkpt><trkpt lat="41.1940767" lon="0.560115"><ele>85.5</ele><time>2026-03-31T15:52:35.15Z</time></trkpt><trkpt lat="41.1941983" lon="0.5600667"><ele>86.0</ele><time>2026-03-31T15:52:36.15Z</time></trkpt><trkpt lat="41.1943183" lon="0.5600167"><ele>86.5</ele><time>2026-03-31T15:52:37.15Z</time></trkpt><trkpt lat="41.1944383" lon="0.559965"><ele>87.0</ele><time>2026-03-31T15:52:38.151Z</time></trkpt><trkpt lat="41.19457" lon="0.5599"><ele>87.0</ele><time>2026-03-31T15:52:39.15Z</time></trkpt><trkpt lat="41.1946933" lon="0.559835"><ele>87.0</ele><time>2026-03-31T15:52:40.151Z</time></trkpt><trkpt lat="41.1948067" lon="0.55978"><ele>87.0</ele><time>2026-03-31T15:52:41.15Z</time></trkpt><trkpt lat="41.1949233" lon="0.559715"><ele>87.0</ele><time>2026-03-31T15:52:42.15Z</time></trkpt><trkpt lat="41.1950383" lon="0.5596533"><ele>88.75</ele><time>2026-03-31T15:52:43.15Z</time></trkpt><trkpt lat="41.1951533" lon="0.5595933"><ele>90.5</ele><time>2026-03-31T15:52:44.15Z</time></trkpt><trkpt lat="41.1952783" lon="0.5595417"><ele>92.25</ele><time>2026-03-31T15:52:45.15Z</time></trkpt><trkpt lat="41.195405" lon="0.55949"><ele>94.0</ele><time>2026-03-31T15:52:46.15Z</time></trkpt><trkpt lat="41.195535" lon="0.5594233"><ele>94.5</ele><time>2026-03-31T15:52:47.151Z</time></trkpt><trkpt lat="41.195665" lon="0.559355"><ele>95.0</ele><time>2026-03-31T15:52:48.151Z</time></trkpt><trkpt lat="41.1958017" lon="0.559285"><ele>95.5</ele><time>2026-03-31T15:52:49.15Z</time></trkpt><trkpt lat="41.195935" lon="0.559215"><ele>96.0</ele><time>2026-03-31T15:52:50.15Z</time></trkpt><trkpt lat="41.1960683" lon="0.5591517"><ele>94.5</ele><time>2026-03-31T15:52:51.15Z</time></trkpt><trkpt lat="41.19621" lon="0.5590867"><ele>93.0</ele><time>2026-03-31T15:52:52.15Z</time></trkpt><trkpt lat="41.1963417" lon="0.5590217"><ele>91.5</ele><time>2026-03-31T15:52:53.151Z</time></trkpt><trkpt lat="41.1964767" lon="0.5589583"><ele>90.0</ele><time>2026-03-31T15:52:54.151Z</time></trkpt><trkpt lat="41.1966083" lon="0.55888"><ele>88.25</ele><time>2026-03-31T15:52:55.15Z</time></trkpt><trkpt lat="41.19674" lon="0.55881"><ele>86.5</ele><time>2026-03-31T15:52:56.15Z</time></trkpt><trkpt lat="41.1968683" lon="0.5587383"><ele>84.75</ele><time>2026-03-31T15:52:57.15Z</time></trkpt><trkpt lat="41.1969967" lon="0.5586617"><ele>83.0</ele><time>2026-03-31T15:52:58.15Z</time></trkpt><trkpt lat="41.1971333" lon="0.55858"><ele>83.0</ele><time>2026-03-31T15:52:59.15Z</time></trkpt><trkpt lat="41.197265" lon="0.5584967"><ele>83.0</ele><time>2026-03-31T15:53:00.15Z</time></trkpt><trkpt lat="41.1973967" lon="0.5584117"><ele>83.0</ele><time>2026-03-31T15:53:01.15Z</time></trkpt><trkpt lat="41.1975433" lon="0.558305"><ele>83.66666666666667</ele><time>2026-03-31T15:53:02.15Z</time></trkpt><trkpt lat="41.1976867" lon="0.5581983"><ele>84.33333333333333</ele><time>2026-03-31T15:53:03.15Z</time></trkpt><trkpt lat="41.1978367" lon="0.5580833"><ele>85.0</ele><time>2026-03-31T15:53:04.15Z</time></trkpt><trkpt lat="41.1979833" lon="0.557975"><ele>85.0</ele><time>2026-03-31T15:53:05.151Z</time></trkpt><trkpt lat="41.1981317" lon="0.5578717"><ele>85.0</ele><time>2026-03-31T15:53:06.15Z</time></trkpt><trkpt lat="41.1982783" lon="0.557765"><ele>85.0</ele><time>2026-03-31T15:53:07.15Z</time></trkpt><trkpt lat="41.198425" lon="0.5576533"><ele>88.33333333333333</ele><time>2026-03-31T15:53:08.15Z</time></trkpt><trkpt lat="41.19857" lon="0.5575417"><ele>91.66666666666667</ele><time>2026-03-31T15:53:09.151Z</time></trkpt><trkpt lat="41.19872" lon="0.5574283"><ele>95.0</ele><time>2026-03-31T15:53:10.15Z</time></trkpt><trkpt lat="41.19887" lon="0.5573183"><ele>94.66666666666667</ele><time>2026-03-31T15:53:11.151Z</time></trkpt><trkpt lat="41.199025" lon="0.5571983"><ele>94.33333333333333</ele><time>2026-03-31T15:53:12.15Z</time></trkpt><trkpt lat="41.1991717" lon="0.5570867"><ele>94.0</ele><time>2026-03-31T15:53:13.15Z</time></trkpt><trkpt lat="41.199325" lon="0.55696"><ele>92.66666666666666</ele><time>2026-03-31T15:53:14.15Z</time></trkpt><trkpt lat="41.199475" lon="0.5568333"><ele>91.33333333333333</ele><time>2026-03-31T15:53:15.15Z</time></trkpt><trkpt lat="41.1996267" lon="0.5567017"><ele>90.0</ele><time>2026-03-31T15:53:16.15Z</time></trkpt><trkpt lat="41.1997933" lon="0.5565867"><ele>89.33333333333333</ele><time>2026-03-31T15:53:17.15Z</time></trkpt><trkpt lat="41.199955" lon="0.55647"><ele>88.66666666666666</ele><time>2026-03-31T15:53:18.151Z</time></trkpt><trkpt lat="41.2001283" lon="0.5563517"><ele>88.0</ele><time>2026-03-31T15:53:19.151Z</time></trkpt><trkpt lat="41.200295" lon="0.5562333"><ele>88.0</ele><time>2026-03-31T15:53:20.151Z</time></trkpt><trkpt lat="41.2004667" lon="0.55613"><ele>88.0</ele><time>2026-03-31T15:53:21.15Z</time></trkpt><trkpt lat="41.20064" lon="0.5560367"><ele>88.0</ele><time>2026-03-31T15:53:22.15Z</time></trkpt><trkpt lat="41.20082" lon="0.5559583"><ele>88.0</ele><time>2026-03-31T15:53:23.15Z</time></trkpt><trkpt lat="41.2010033" lon="0.5558833"><ele>88.0</ele><time>2026-03-31T15:53:24.15Z</time></trkpt><trkpt lat="41.201185" lon="0.5558033"><ele>88.0</ele><time>2026-03-31T15:53:25.15Z</time></trkpt><trkpt lat="41.20137" lon="0.5557283"><ele>88.33333333333333</ele><time>2026-03-31T15:53:26.15Z</time></trkpt><trkpt lat="41.2015533" lon="0.5556467"><ele>88.66666666666667</ele><time>2026-03-31T15:53:27.15Z</time></trkpt><trkpt lat="41.20174" lon="0.5555583"><ele>89.0</ele><time>2026-03-31T15:53:28.151Z</time></trkpt><trkpt lat="41.2019233" lon="0.555475"><ele>89.0</ele><time>2026-03-31T15:53:29.151Z</time></trkpt><trkpt lat="41.2021" lon="0.5553833"><ele>89.0</ele><time>2026-03-31T15:53:30.15Z</time></trkpt><trkpt lat="41.2022717" lon="0.5552783"><ele>89.0</ele><time>2026-03-31T15:53:31.15Z</time></trkpt><trkpt lat="41.20244" lon="0.5551683"><ele>91.0</ele><time>2026-03-31T15:53:32.15Z</time></trkpt><trkpt lat="41.2026017" lon="0.5550417"><ele>93.0</ele><time>2026-03-31T15:53:33.15Z</time></trkpt><trkpt lat="41.2027617" lon="0.5549"><ele>95.0</ele><time>2026-03-31T15:53:34.151Z</time></trkpt><trkpt lat="41.2029183" lon="0.5547517"><ele>95.0</ele><time>2026-03-31T15:53:35.15Z</time></trkpt><trkpt lat="41.20306" lon="0.5545867"><ele>95.0</ele><time>2026-03-31T15:53:36.151Z</time></trkpt><trkpt lat="41.20319" lon="0.5544167"><ele>95.0</ele><time>2026-03-31T15:53:37.151Z</time></trkpt><trkpt lat="41.20332" lon="0.5542533"><ele>92.0</ele><time>2026-03-31T15:53:38.15Z</time></trkpt><trkpt lat="41.2034383" lon="0.554085"><ele>89.0</ele><time>2026-03-31T15:53:39.151Z</time></trkpt><trkpt lat="41.2035533" lon="0.5539233"><ele>86.0</ele><time>2026-03-31T15:53:40.151Z</time></trkpt><trkpt lat="41.2036683" lon="0.5537633"><ele>83.0</ele><time>2026-03-31T15:53:41.15Z</time></trkpt><trkpt lat="41.2037767" lon="0.5535933"><ele>80.0</ele><time>2026-03-31T15:53:42.15Z</time></trkpt><trkpt lat="41.2038917" lon="0.5534167"><ele>77.0</ele><time>2026-03-31T15:53:43.15Z</time></trkpt><trkpt lat="41.2040167" lon="0.55324"><ele>77.0</ele><time>2026-03-31T15:53:44.15Z</time></trkpt><trkpt lat="41.2041517" lon="0.5530733"><ele>77.0</ele><time>2026-03-31T15:53:45.151Z</time></trkpt><trkpt lat="41.204305" lon="0.55292"><ele>77.0</ele><time>2026-03-31T15:53:46.15Z</time></trkpt><trkpt lat="41.20447" lon="0.5527717"><ele>76.0</ele><time>2026-03-31T15:53:47.15Z</time></trkpt><trkpt lat="41.20465" lon="0.5526467"><ele>75.0</ele><time>2026-03-31T15:53:48.151Z</time></trkpt><trkpt lat="41.2048217" lon="0.5525383"><ele>74.0</ele><time>2026-03-31T15:53:49.151Z</time></trkpt><trkpt lat="41.2050033" lon="0.55245"><ele>74.0</ele><time>2026-03-31T15:53:50.151Z</time></trkpt><trkpt lat="41.2051917" lon="0.5523783"><ele>74.0</ele><time>2026-03-31T15:53:51.15Z</time></trkpt><trkpt lat="41.2053783" lon="0.5523183"><ele>74.0</ele><time>2026-03-31T15:53:52.15Z</time></trkpt><trkpt lat="41.2055667" lon="0.55227"><ele>70.66666666666667</ele><time>2026-03-31T15:53:53.151Z</time></trkpt><trkpt lat="41.205755" lon="0.55223"><ele>67.33333333333333</ele><time>2026-03-31T15:53:54.15Z</time></trkpt><trkpt lat="41.2059417" lon="0.5521933"><ele>64.0</ele><time>2026-03-31T15:53:55.15Z</time></trkpt><trkpt lat="41.2061283" lon="0.55215"><ele>64.0</ele><time>2026-03-31T15:53:56.15Z</time></trkpt><trkpt lat="41.2063183" lon="0.5521"><ele>64.0</ele><time>2026-03-31T15:53:57.151Z</time></trkpt><trkpt lat="41.2064983" lon="0.5520383"><ele>64.0</ele><time>2026-03-31T15:53:58.15Z</time></trkpt><trkpt lat="41.2066817" lon="0.5519733"><ele>68.0</ele><time>2026-03-31T15:53:59.15Z</time></trkpt><trkpt lat="41.2068617" lon="0.5518983"><ele>72.0</ele><time>2026-03-31T15:54:00.15Z</time></trkpt><trkpt lat="41.2070267" lon="0.5518117"><ele>76.0</ele><time>2026-03-31T15:54:01.15Z</time></trkpt><trkpt lat="41.2071983" lon="0.55171"><ele>71.66666666666666</ele><time>2026-03-31T15:54:02.15Z</time></trkpt><trkpt lat="41.2073717" lon="0.551595"><ele>67.33333333333333</ele><time>2026-03-31T15:54:03.15Z</time></trkpt><trkpt lat="41.20753" lon="0.5514717"><ele>63.0</ele><time>2026-03-31T15:54:04.15Z</time></trkpt><trkpt lat="41.2076933" lon="0.5513367"><ele>60.66666666666667</ele><time>2026-03-31T15:54:05.151Z</time></trkpt><trkpt lat="41.2078533" lon="0.5511883"><ele>58.333333333333336</ele><time>2026-03-31T15:54:06.15Z</time></trkpt><trkpt lat="41.2080083" lon="0.551025"><ele>56.0</ele><time>2026-03-31T15:54:07.151Z</time></trkpt><trkpt lat="41.2081633" lon="0.5508517"><ele>56.0</ele><time>2026-03-31T15:54:08.15Z</time></trkpt><trkpt lat="41.2083067" lon="0.55067"><ele>56.0</ele><time>2026-03-31T15:54:09.15Z</time></trkpt><trkpt lat="41.208455" lon="0.55049"><ele>56.0</ele><time>2026-03-31T15:54:10.151Z</time></trkpt><trkpt lat="41.208595" lon="0.5503133"><ele>54.333333333333336</ele><time>2026-03-31T15:54:11.151Z</time></trkpt><trkpt lat="41.2087333" lon="0.5501383"><ele>52.66666666666667</ele><time>2026-03-31T15:54:12.15Z</time></trkpt><trkpt lat="41.2088733" lon="0.5499733"><ele>51.0</ele><time>2026-03-31T15:54:13.15Z</time></trkpt><trkpt lat="41.2090167" lon="0.549825"><ele>51.0</ele><time>2026-03-31T15:54:14.15Z</time></trkpt><trkpt lat="41.2091783" lon="0.549695"><ele>51.0</ele><time>2026-03-31T15:54:15.15Z</time></trkpt><trkpt lat="41.2093483" lon="0.549575"><ele>51.0</ele><time>2026-03-31T15:54:16.151Z</time></trkpt><trkpt lat="41.2095233" lon="0.54947"><ele>50.0</ele><time>2026-03-31T15:54:17.15Z</time></trkpt><trkpt lat="41.20971" lon="0.5493767"><ele>49.0</ele><time>2026-03-31T15:54:18.151Z</time></trkpt><trkpt lat="41.2099017" lon="0.5493033"><ele>48.0</ele><time>2026-03-31T15:54:19.15Z</time></trkpt><trkpt lat="41.2101067" lon="0.5492333"><ele>48.0</ele><time>2026-03-31T15:54:20.15Z</time></trkpt><trkpt lat="41.210315" lon="0.5491883"><ele>48.0</ele><time>2026-03-31T15:54:21.15Z</time></trkpt><trkpt lat="41.2105283" lon="0.5491533"><ele>48.0</ele><time>2026-03-31T15:54:22.15Z</time></trkpt><trkpt lat="41.21074" lon="0.5491267"><ele>48.0</ele><time>2026-03-31T15:54:23.151Z</time></trkpt><trkpt lat="41.21095" lon="0.5490983"><ele>48.0</ele><time>2026-03-31T15:54:24.151Z</time></trkpt><trkpt lat="41.21116" lon="0.5490733"><ele>48.0</ele><time>2026-03-31T15:54:25.15Z</time></trkpt><trkpt lat="41.2113683" lon="0.54905"><ele>47.666666666666664</ele><time>2026-03-31T15:54:26.151Z</time></trkpt><trkpt lat="41.21157" lon="0.5490233"><ele>47.33333333333333</ele><time>2026-03-31T15:54:27.15Z</time></trkpt><trkpt lat="41.211775" lon="0.5489983"><ele>47.0</ele><time>2026-03-31T15:54:28.15Z</time></trkpt><trkpt lat="41.2119783" lon="0.5489683"><ele>47.0</ele><time>2026-03-31T15:54:29.151Z</time></trkpt><trkpt lat="41.2121817" lon="0.548925"><ele>47.0</ele><time>2026-03-31T15:54:30.151Z</time></trkpt><trkpt lat="41.2123783" lon="0.5488717"><ele>47.0</ele><time>2026-03-31T15:54:31.151Z</time></trkpt><trkpt lat="41.2125667" lon="0.5488"><ele>48.666666666666664</ele><time>2026-03-31T15:54:32.151Z</time></trkpt><trkpt lat="41.212755" lon="0.548705"><ele>50.33333333333333</ele><time>2026-03-31T15:54:33.151Z</time></trkpt><trkpt lat="41.2129383" lon="0.5485967"><ele>52.0</ele><time>2026-03-31T15:54:34.15Z</time></trkpt><trkpt lat="41.2131183" lon="0.5484867"><ele>51.666666666666664</ele><time>2026-03-31T15:54:35.151Z</time></trkpt><trkpt lat="41.2132983" lon="0.5483783"><ele>51.33333333333333</ele><time>2026-03-31T15:54:36.15Z</time></trkpt><trkpt lat="41.2134783" lon="0.5482783"><ele>51.0</ele><time>2026-03-31T15:54:37.15Z</time></trkpt><trkpt lat="41.21366" lon="0.548195"><ele>51.0</ele><time>2026-03-31T15:54:38.15Z</time></trkpt><trkpt lat="41.21384" lon="0.5481217"><ele>51.0</ele><time>2026-03-31T15:54:39.151Z</time></trkpt><trkpt lat="41.2140167" lon="0.5480767"><ele>51.0</ele><time>2026-03-31T15:54:40.15Z</time></trkpt><trkpt lat="41.2141983" lon="0.5480583"><ele>51.0</ele><time>2026-03-31T15:54:41.15Z</time></trkpt><trkpt lat="41.2143783" lon="0.5480683"><ele>51.0</ele><time>2026-03-31T15:54:42.15Z</time></trkpt><trkpt lat="41.2145633" lon="0.5480933"><ele>51.0</ele><time>2026-03-31T15:54:43.15Z</time></trkpt><trkpt lat="41.214745" lon="0.54813"><ele>52.33333333333333</ele><time>2026-03-31T15:54:44.151Z</time></trkpt><trkpt lat="41.214925" lon="0.5481767"><ele>53.666666666666664</ele><time>2026-03-31T15:54:45.15Z</time></trkpt><trkpt lat="41.2151083" lon="0.54823"><ele>55.0</ele><time>2026-03-31T15:54:46.15Z</time></trkpt><trkpt lat="41.21529" lon="0.5482867"><ele>55.0</ele><time>2026-03-31T15:54:47.151Z</time></trkpt><trkpt lat="41.215465" lon="0.548355"><ele>55.0</ele><time>2026-03-31T15:54:48.15Z</time></trkpt><trkpt lat="41.2156467" lon="0.5484133"><ele>55.0</ele><time>2026-03-31T15:54:49.151Z</time></trkpt><trkpt lat="41.215825" lon="0.5484533"><ele>56.0</ele><time>2026-03-31T15:54:50.15Z</time></trkpt><trkpt lat="41.21601" lon="0.548475"><ele>57.0</ele><time>2026-03-31T15:54:51.15Z</time></trkpt><trkpt lat="41.2161933" lon="0.5484783"><ele>58.0</ele><time>2026-03-31T15:54:52.15Z</time></trkpt><trkpt lat="41.2163617" lon="0.5484667"><ele>56.666666666666664</ele><time>2026-03-31T15:54:53.15Z</time></trkpt><trkpt lat="41.2165283" lon="0.5484417"><ele>55.33333333333333</ele><time>2026-03-31T15:54:54.151Z</time></trkpt><trkpt lat="41.2166933" lon="0.5484083"><ele>54.0</ele><time>2026-03-31T15:54:55.151Z</time></trkpt><trkpt lat="41.216855" lon="0.54837"><ele>54.0</ele><time>2026-03-31T15:54:56.15Z</time></trkpt><trkpt lat="41.2170183" lon="0.5483283"><ele>54.0</ele><time>2026-03-31T15:54:57.15Z</time></trkpt><trkpt lat="41.21717" lon="0.54829"><ele>54.0</ele><time>2026-03-31T15:54:58.15Z</time></trkpt><trkpt lat="41.21733" lon="0.5482533"><ele>55.0</ele><time>2026-03-31T15:54:59.15Z</time></trkpt><trkpt lat="41.2174933" lon="0.5482283"><ele>56.0</ele><time>2026-03-31T15:55:00.151Z</time></trkpt><trkpt lat="41.21766" lon="0.548215"><ele>57.0</ele><time>2026-03-31T15:55:01.151Z</time></trkpt><trkpt lat="41.21783" lon="0.54822"><ele>57.0</ele><time>2026-03-31T15:55:02.151Z</time></trkpt><trkpt lat="41.218" lon="0.5482233"><ele>57.0</ele><time>2026-03-31T15:55:03.151Z</time></trkpt><trkpt lat="41.21816" lon="0.5482417"><ele>57.0</ele><time>2026-03-31T15:55:04.151Z</time></trkpt><trkpt lat="41.2183167" lon="0.5482567"><ele>59.33333333333333</ele><time>2026-03-31T15:55:05.15Z</time></trkpt><trkpt lat="41.2184733" lon="0.5482617"><ele>61.666666666666664</ele><time>2026-03-31T15:55:06.151Z</time></trkpt><trkpt lat="41.2186317" lon="0.5482733"><ele>64.0</ele><time>2026-03-31T15:55:07.151Z</time></trkpt><trkpt lat="41.21879" lon="0.5482917"><ele>64.0</ele><time>2026-03-31T15:55:08.151Z</time></trkpt><trkpt lat="41.2189533" lon="0.548315"><ele>64.0</ele><time>2026-03-31T15:55:09.15Z</time></trkpt><trkpt lat="41.2191183" lon="0.5483233"><ele>64.0</ele><time>2026-03-31T15:55:10.15Z</time></trkpt><trkpt lat="41.2192983" lon="0.5483217"><ele>64.0</ele><time>2026-03-31T15:55:11.151Z</time></trkpt><trkpt lat="41.2194733" lon="0.54834"><ele>64.0</ele><time>2026-03-31T15:55:12.151Z</time></trkpt><trkpt lat="41.21965" lon="0.54836"><ele>64.0</ele><time>2026-03-31T15:55:13.15Z</time></trkpt><trkpt lat="41.2198267" lon="0.5483683"><ele>64.0</ele><time>2026-03-31T15:55:14.151Z</time></trkpt><trkpt lat="41.2199967" lon="0.5483883"><ele>64.0</ele><time>2026-03-31T15:55:15.151Z</time></trkpt><trkpt lat="41.22016" lon="0.5484033"><ele>64.0</ele><time>2026-03-31T15:55:16.15Z</time></trkpt><trkpt lat="41.220315" lon="0.54842"><ele>64.0</ele><time>2026-03-31T15:55:17.15Z</time></trkpt><trkpt lat="41.2204633" lon="0.5484333"><ele>64.0</ele><time>2026-03-31T15:55:18.15Z</time></trkpt><trkpt lat="41.2206117" lon="0.5484383"><ele>64.0</ele><time>2026-03-31T15:55:19.151Z</time></trkpt><trkpt lat="41.2207617" lon="0.548425"><ele>64.0</ele><time>2026-03-31T15:55:20.151Z</time></trkpt><trkpt lat="41.22091" lon="0.548395"><ele>65.25</ele><time>2026-03-31T15:55:21.151Z</time></trkpt><trkpt lat="41.2210533" lon="0.5483567"><ele>66.5</ele><time>2026-03-31T15:55:22.15Z</time></trkpt><trkpt lat="41.221195" lon="0.5482967"><ele>67.75</ele><time>2026-03-31T15:55:23.15Z</time></trkpt><trkpt lat="41.2213333" lon="0.54823"><ele>69.0</ele><time>2026-03-31T15:55:24.15Z</time></trkpt><trkpt lat="41.2214667" lon="0.5481467"><ele>69.5</ele><time>2026-03-31T15:55:25.15Z</time></trkpt><trkpt lat="41.2216" lon="0.5480483"><ele>70.0</ele><time>2026-03-31T15:55:26.15Z</time></trkpt><trkpt lat="41.2217133" lon="0.54794"><ele>70.5</ele><time>2026-03-31T15:55:27.15Z</time></trkpt><trkpt lat="41.2218217" lon="0.54782"><ele>71.0</ele><time>2026-03-31T15:55:28.15Z</time></trkpt><trkpt lat="41.2219283" lon="0.5476967"><ele>74.0</ele><time>2026-03-31T15:55:29.15Z</time></trkpt><trkpt lat="41.2220333" lon="0.5475533"><ele>77.0</ele><time>2026-03-31T15:55:30.15Z</time></trkpt><trkpt lat="41.2221417" lon="0.5474017"><ele>80.0</ele><time>2026-03-31T15:55:31.15Z</time></trkpt><trkpt lat="41.222245" lon="0.5472517"><ele>80.25</ele><time>2026-03-31T15:55:32.151Z</time></trkpt><trkpt lat="41.2223367" lon="0.5470967"><ele>80.5</ele><time>2026-03-31T15:55:33.151Z</time></trkpt><trkpt lat="41.2224233" lon="0.546945"><ele>80.75</ele><time>2026-03-31T15:55:34.151Z</time></trkpt><trkpt lat="41.2225017" lon="0.54679"><ele>81.0</ele><time>2026-03-31T15:55:35.15Z</time></trkpt><trkpt lat="41.2225767" lon="0.5466267"><ele>81.0</ele><time>2026-03-31T15:55:36.15Z</time></trkpt><trkpt lat="41.2226533" lon="0.5464567"><ele>81.0</ele><time>2026-03-31T15:55:37.15Z</time></trkpt><trkpt lat="41.222725" lon="0.54628"><ele>81.0</ele><time>2026-03-31T15:55:38.15Z</time></trkpt><trkpt lat="41.2227933" lon="0.5460983"><ele>82.75</ele><time>2026-03-31T15:55:39.151Z</time></trkpt><trkpt lat="41.22286" lon="0.5459167"><ele>84.5</ele><time>2026-03-31T15:55:40.15Z</time></trkpt><trkpt lat="41.2229067" lon="0.5457333"><ele>86.25</ele><time>2026-03-31T15:55:41.15Z</time></trkpt><trkpt lat="41.2229467" lon="0.5455483"><ele>88.0</ele><time>2026-03-31T15:55:42.15Z</time></trkpt><trkpt lat="41.2229833" lon="0.54536"><ele>89.0</ele><time>2026-03-31T15:55:43.151Z</time></trkpt><trkpt lat="41.223015" lon="0.5451783"><ele>90.0</ele><time>2026-03-31T15:55:44.15Z</time></trkpt><trkpt lat="41.2230383" lon="0.5450033"><ele>91.0</ele><time>2026-03-31T15:55:45.151Z</time></trkpt><trkpt lat="41.22305" lon="0.5448483"><ele>92.0</ele><time>2026-03-31T15:55:46.15Z</time></trkpt><trkpt lat="41.2230633" lon="0.5447017"><ele>94.25</ele><time>2026-03-31T15:55:47.151Z</time></trkpt><trkpt lat="41.22309" lon="0.5445417"><ele>96.5</ele><time>2026-03-31T15:55:48.151Z</time></trkpt><trkpt lat="41.2231167" lon="0.544375"><ele>98.75</ele><time>2026-03-31T15:55:49.15Z</time></trkpt><trkpt lat="41.2231483" lon="0.5442283"><ele>101.0</ele><time>2026-03-31T15:55:50.151Z</time></trkpt><trkpt lat="41.2231933" lon="0.5440883"><ele>95.75</ele><time>2026-03-31T15:55:51.151Z</time></trkpt><trkpt lat="41.223245" lon="0.543945"><ele>90.5</ele><time>2026-03-31T15:55:52.151Z</time></trkpt><trkpt lat="41.223315" lon="0.5438083"><ele>85.25</ele><time>2026-03-31T15:55:53.15Z</time></trkpt><trkpt lat="41.2233917" lon="0.54368"><ele>80.0</ele><time>2026-03-31T15:55:54.15Z</time></trkpt><trkpt lat="41.2234667" lon="0.5435633"><ele>80.0</ele><time>2026-03-31T15:55:55.15Z</time></trkpt><trkpt lat="41.2235433" lon="0.5434633"><ele>80.0</ele><time>2026-03-31T15:55:56.151Z</time></trkpt><trkpt lat="41.2236333" lon="0.5433717"><ele>80.0</ele><time>2026-03-31T15:55:57.15Z</time></trkpt><trkpt lat="41.223735" lon="0.5433033"><ele>80.0</ele><time>2026-03-31T15:55:58.15Z</time></trkpt><trkpt lat="41.2238433" lon="0.5432417"><ele>80.0</ele><time>2026-03-31T15:55:59.15Z</time></trkpt><trkpt lat="41.2239583" lon="0.5432083"><ele>80.0</ele><time>2026-03-31T15:56:00.151Z</time></trkpt><trkpt lat="41.2240783" lon="0.5431833"><ele>80.0</ele><time>2026-03-31T15:56:01.151Z</time></trkpt><trkpt lat="41.2241883" lon="0.54318"><ele>80.0</ele><time>2026-03-31T15:56:02.151Z</time></trkpt><trkpt lat="41.2243" lon="0.5431817"><ele>80.2</ele><time>2026-03-31T15:56:03.15Z</time></trkpt><trkpt lat="41.22442" lon="0.5431917"><ele>80.4</ele><time>2026-03-31T15:56:04.151Z</time></trkpt><trkpt lat="41.2245317" lon="0.5432017"><ele>80.6</ele><time>2026-03-31T15:56:05.151Z</time></trkpt><trkpt lat="41.2246317" lon="0.5432133"><ele>80.8</ele><time>2026-03-31T15:56:06.15Z</time></trkpt><trkpt lat="41.2247317" lon="0.5432217"><ele>81.0</ele><time>2026-03-31T15:56:07.15Z</time></trkpt><trkpt lat="41.224835" lon="0.543225"><ele>82.0</ele><time>2026-03-31T15:56:08.15Z</time></trkpt><trkpt lat="41.2249267" lon="0.5432183"><ele>83.0</ele><time>2026-03-31T15:56:09.15Z</time></trkpt><trkpt lat="41.225015" lon="0.543205"><ele>84.0</ele><time>2026-03-31T15:56:10.151Z</time></trkpt><trkpt lat="41.22509" lon="0.543175"><ele>85.0</ele><time>2026-03-31T15:56:11.151Z</time></trkpt><trkpt lat="41.2251517" lon="0.5431467"><ele>86.0</ele><time>2026-03-31T15:56:12.15Z</time></trkpt><trkpt lat="41.2252617" lon="0.5430967"><ele>87.0</ele><time>2026-03-31T15:56:14.15Z</time></trkpt><trkpt lat="41.2253717" lon="0.5430533"><ele>87.0</ele><time>2026-03-31T15:56:16.15Z</time></trkpt><trkpt lat="41.2254583" lon="0.5430183"><ele>87.0</ele><time>2026-03-31T15:56:18.15Z</time></trkpt><trkpt lat="41.22553" lon="0.542985"><ele>87.0</ele><time>2026-03-31T15:56:20.151Z</time></trkpt><trkpt lat="41.2255883" lon="0.54295"><ele>87.0</ele><time>2026-03-31T15:56:22.151Z</time></trkpt><trkpt lat="41.2257133" lon="0.542865"><ele>87.0</ele><time>2026-03-31T15:56:47.151Z</time></trkpt><trkpt lat="41.22581" lon="0.542825"><ele>87.6</ele><time>2026-03-31T15:56:49.15Z</time></trkpt><trkpt lat="41.22589" lon="0.5427967"><ele>88.19999999999999</ele><time>2026-03-31T15:56:51.15Z</time></trkpt><trkpt lat="41.2259767" lon="0.5427717"><ele>88.8</ele><time>2026-03-31T15:56:53.151Z</time></trkpt><trkpt lat="41.2260683" lon="0.5427233"><ele>89.4</ele><time>2026-03-31T15:56:55.151Z</time></trkpt><trkpt lat="41.22619" lon="0.54267"><ele>90.0</ele><time>2026-03-31T15:56:57.151Z</time></trkpt><trkpt lat="41.226265" lon="0.542645"><ele>90.0</ele><time>2026-03-31T15:56:58.15Z</time></trkpt><trkpt lat="41.2263383" lon="0.5426333"><ele>90.0</ele><time>2026-03-31T15:56:59.151Z</time></trkpt><trkpt lat="41.22641" lon="0.5426267"><ele>90.0</ele><time>2026-03-31T15:57:00.151Z</time></trkpt><trkpt lat="41.2264883" lon="0.54262"><ele>90.0</ele><time>2026-03-31T15:57:01.15Z</time></trkpt><trkpt lat="41.2265767" lon="0.5426183"><ele>90.0</ele><time>2026-03-31T15:57:02.15Z</time></trkpt><trkpt lat="41.2266683" lon="0.54263"><ele>90.0</ele><time>2026-03-31T15:57:03.151Z</time></trkpt><trkpt lat="41.2267717" lon="0.54264"><ele>88.8</ele><time>2026-03-31T15:57:04.15Z</time></trkpt><trkpt lat="41.2268767" lon="0.5426667"><ele>87.6</ele><time>2026-03-31T15:57:05.15Z</time></trkpt><trkpt lat="41.2269817" lon="0.5426933"><ele>86.4</ele><time>2026-03-31T15:57:06.15Z</time></trkpt><trkpt lat="41.2270867" lon="0.542715"><ele>85.2</ele><time>2026-03-31T15:57:07.15Z</time></trkpt><trkpt lat="41.2271867" lon="0.5427367"><ele>84.0</ele><time>2026-03-31T15:57:08.151Z</time></trkpt><trkpt lat="41.2272933" lon="0.54276"><ele>84.6</ele><time>2026-03-31T15:57:09.151Z</time></trkpt><trkpt lat="41.2274067" lon="0.54279"><ele>85.2</ele><time>2026-03-31T15:57:10.151Z</time></trkpt><trkpt lat="41.2275183" lon="0.5428283"><ele>85.8</ele><time>2026-03-31T15:57:11.15Z</time></trkpt><trkpt lat="41.22762" lon="0.5428667"><ele>86.39999999999999</ele><time>2026-03-31T15:57:12.15Z</time></trkpt><trkpt lat="41.2277067" lon="0.5429167"><ele>87.0</ele><time>2026-03-31T15:57:13.15Z</time></trkpt><trkpt lat="41.2277883" lon="0.5429783"><ele>87.0</ele><time>2026-03-31T15:57:14.151Z</time></trkpt><trkpt lat="41.2278683" lon="0.5430483"><ele>87.0</ele><time>2026-03-31T15:57:15.151Z</time></trkpt><trkpt lat="41.2279533" lon="0.543115"><ele>87.0</ele><time>2026-03-31T15:57:16.151Z</time></trkpt><trkpt lat="41.22804" lon="0.54319"><ele>87.0</ele><time>2026-03-31T15:57:17.15Z</time></trkpt><trkpt lat="41.2281267" lon="0.5432717"><ele>87.0</ele><time>2026-03-31T15:57:18.151Z</time></trkpt><trkpt lat="41.2282083" lon="0.5433467"><ele>85.0</ele><time>2026-03-31T15:57:19.15Z</time></trkpt><trkpt lat="41.2282833" lon="0.5434133"><ele>83.0</ele><time>2026-03-31T15:57:20.15Z</time></trkpt><trkpt lat="41.228365" lon="0.543485"><ele>81.0</ele><time>2026-03-31T15:57:21.15Z</time></trkpt><trkpt lat="41.22844" lon="0.5435533"><ele>79.0</ele><time>2026-03-31T15:57:22.15Z</time></trkpt><trkpt lat="41.228515" lon="0.5436183"><ele>77.0</ele><time>2026-03-31T15:57:23.15Z</time></trkpt><trkpt lat="41.2285833" lon="0.5436933"><ele>79.0</ele><time>2026-03-31T15:57:24.151Z</time></trkpt><trkpt lat="41.228645" lon="0.54379"><ele>81.0</ele><time>2026-03-31T15:57:25.15Z</time></trkpt><trkpt lat="41.2287017" lon="0.5439067"><ele>83.0</ele><time>2026-03-31T15:57:26.15Z</time></trkpt><trkpt lat="41.22876" lon="0.5440333"><ele>85.0</ele><time>2026-03-31T15:57:27.15Z</time></trkpt><trkpt lat="41.22881" lon="0.544155"><ele>87.0</ele><time>2026-03-31T15:57:28.15Z</time></trkpt><trkpt lat="41.2288583" lon="0.5442733"><ele>87.0</ele><time>2026-03-31T15:57:29.15Z</time></trkpt><trkpt lat="41.2289083" lon="0.5443967"><ele>87.0</ele><time>2026-03-31T15:57:30.15Z</time></trkpt><trkpt lat="41.228965" lon="0.5445233"><ele>87.0</ele><time>2026-03-31T15:57:31.15Z</time></trkpt><trkpt lat="41.22903" lon="0.5446583"><ele>87.0</ele><time>2026-03-31T15:57:32.15Z</time></trkpt><trkpt lat="41.229105" lon="0.5447983"><ele>83.5</ele><time>2026-03-31T15:57:33.15Z</time></trkpt><trkpt lat="41.22918" lon="0.544935"><ele>80.0</ele><time>2026-03-31T15:57:34.151Z</time></trkpt><trkpt lat="41.229265" lon="0.545075"><ele>76.5</ele><time>2026-03-31T15:57:35.151Z</time></trkpt><trkpt lat="41.229355" lon="0.545215"><ele>73.0</ele><time>2026-03-31T15:57:36.15Z</time></trkpt><trkpt lat="41.2294517" lon="0.5453433"><ele>75.25</ele><time>2026-03-31T15:57:37.15Z</time></trkpt><trkpt lat="41.2295517" lon="0.5454767"><ele>77.5</ele><time>2026-03-31T15:57:38.15Z</time></trkpt><trkpt lat="41.229655" lon="0.5456"><ele>79.75</ele><time>2026-03-31T15:57:39.151Z</time></trkpt><trkpt lat="41.22975" lon="0.5457317"><ele>82.0</ele><time>2026-03-31T15:57:40.151Z</time></trkpt><trkpt lat="41.2298317" lon="0.5458617"><ele>80.75</ele><time>2026-03-31T15:57:41.151Z</time></trkpt><trkpt lat="41.2299133" lon="0.54598"><ele>79.5</ele><time>2026-03-31T15:57:42.151Z</time></trkpt><trkpt lat="41.2299917" lon="0.5461067"><ele>78.25</ele><time>2026-03-31T15:57:43.151Z</time></trkpt><trkpt lat="41.23006" lon="0.5462383"><ele>77.0</ele><time>2026-03-31T15:57:44.15Z</time></trkpt><trkpt lat="41.230135" lon="0.54636"><ele>77.0</ele><time>2026-03-31T15:57:45.15Z</time></trkpt><trkpt lat="41.2302217" lon="0.546475"><ele>77.0</ele><time>2026-03-31T15:57:46.151Z</time></trkpt><trkpt lat="41.2303133" lon="0.5465817"><ele>77.0</ele><time>2026-03-31T15:57:47.151Z</time></trkpt><trkpt lat="41.2304117" lon="0.546695"><ele>77.0</ele><time>2026-03-31T15:57:48.151Z</time></trkpt><trkpt lat="41.2305067" lon="0.5468033"><ele>77.0</ele><time>2026-03-31T15:57:49.15Z</time></trkpt><trkpt lat="41.2306083" lon="0.5469017"><ele>77.0</ele><time>2026-03-31T15:57:50.151Z</time></trkpt><trkpt lat="41.2307083" lon="0.5470033"><ele>77.0</ele><time>2026-03-31T15:57:51.151Z</time></trkpt><trkpt lat="41.2308083" lon="0.5471117"><ele>77.0</ele><time>2026-03-31T15:57:52.151Z</time></trkpt><trkpt lat="41.2309017" lon="0.5472133"><ele>74.5</ele><time>2026-03-31T15:57:53.15Z</time></trkpt><trkpt lat="41.2309917" lon="0.5473117"><ele>72.0</ele><time>2026-03-31T15:57:54.15Z</time></trkpt><trkpt lat="41.2310783" lon="0.547415"><ele>69.5</ele><time>2026-03-31T15:57:55.151Z</time></trkpt><trkpt lat="41.231165" lon="0.5475067"><ele>67.0</ele><time>2026-03-31T15:57:56.15Z</time></trkpt><trkpt lat="41.2312617" lon="0.5476"><ele>67.0</ele><time>2026-03-31T15:57:57.15Z</time></trkpt><trkpt lat="41.2313533" lon="0.5476717"><ele>67.0</ele><time>2026-03-31T15:57:58.151Z</time></trkpt><trkpt lat="41.2314567" lon="0.5477333"><ele>67.0</ele><time>2026-03-31T15:57:59.151Z</time></trkpt><trkpt lat="41.2315683" lon="0.54777"><ele>67.0</ele><time>2026-03-31T15:58:00.15Z</time></trkpt><trkpt lat="41.2316833" lon="0.54779"><ele>61.75</ele><time>2026-03-31T15:58:01.15Z</time></trkpt><trkpt lat="41.2317867" lon="0.547805"><ele>56.5</ele><time>2026-03-31T15:58:02.15Z</time></trkpt><trkpt lat="41.2318967" lon="0.5477967"><ele>51.25</ele><time>2026-03-31T15:58:03.15Z</time></trkpt><trkpt lat="41.2320067" lon="0.5477667"><ele>46.0</ele><time>2026-03-31T15:58:04.15Z</time></trkpt><trkpt lat="41.232125" lon="0.5477217"><ele>46.0</ele><time>2026-03-31T15:58:05.151Z</time></trkpt><trkpt lat="41.2322367" lon="0.54766"><ele>46.0</ele><time>2026-03-31T15:58:06.15Z</time></trkpt><trkpt lat="41.2323433" lon="0.5476017"><ele>46.0</ele><time>2026-03-31T15:58:07.15Z</time></trkpt><trkpt lat="41.2324533" lon="0.5475433"><ele>46.0</ele><time>2026-03-31T15:58:08.151Z</time></trkpt><trkpt lat="41.232565" lon="0.547485"><ele>44.25</ele><time>2026-03-31T15:58:09.151Z</time></trkpt><trkpt lat="41.23268" lon="0.5474233"><ele>42.5</ele><time>2026-03-31T15:58:10.151Z</time></trkpt><trkpt lat="41.23279" lon="0.5473633"><ele>40.75</ele><time>2026-03-31T15:58:11.15Z</time></trkpt><trkpt lat="41.2329033" lon="0.5473083"><ele>39.0</ele><time>2026-03-31T15:58:12.15Z</time></trkpt><trkpt lat="41.23301" lon="0.5472633"><ele>39.0</ele><time>2026-03-31T15:58:13.151Z</time></trkpt><trkpt lat="41.2331183" lon="0.5472"><ele>39.0</ele><time>2026-03-31T15:58:14.151Z</time></trkpt><trkpt lat="41.2332367" lon="0.5471383"><ele>39.0</ele><time>2026-03-31T15:58:15.151Z</time></trkpt><trkpt lat="41.2333567" lon="0.547075"><ele>39.0</ele><time>2026-03-31T15:58:16.151Z</time></trkpt><trkpt lat="41.2334817" lon="0.5470133"><ele>39.75</ele><time>2026-03-31T15:58:17.151Z</time></trkpt><trkpt lat="41.2336083" lon="0.5469533"><ele>40.5</ele><time>2026-03-31T15:58:18.151Z</time></trkpt><trkpt lat="41.2337267" lon="0.546895"><ele>41.25</ele><time>2026-03-31T15:58:19.15Z</time></trkpt><trkpt lat="41.2338433" lon="0.546835"><ele>42.0</ele><time>2026-03-31T15:58:20.15Z</time></trkpt><trkpt lat="41.2339517" lon="0.5467733"><ele>42.6</ele><time>2026-03-31T15:58:21.151Z</time></trkpt><trkpt lat="41.234055" lon="0.5467217"><ele>43.2</ele><time>2026-03-31T15:58:22.15Z</time></trkpt><trkpt lat="41.234155" lon="0.5466817"><ele>43.8</ele><time>2026-03-31T15:58:23.151Z</time></trkpt><trkpt lat="41.2342417" lon="0.5466583"><ele>44.4</ele><time>2026-03-31T15:58:24.15Z</time></trkpt><trkpt lat="41.23433" lon="0.5466367"><ele>45.0</ele><time>2026-03-31T15:58:25.15Z</time></trkpt><trkpt lat="41.2344233" lon="0.54663"><ele>45.0</ele><time>2026-03-31T15:58:26.15Z</time></trkpt><trkpt lat="41.23452" lon="0.5466383"><ele>45.0</ele><time>2026-03-31T15:58:27.15Z</time></trkpt><trkpt lat="41.2346333" lon="0.5466667"><ele>45.0</ele><time>2026-03-31T15:58:28.15Z</time></trkpt><trkpt lat="41.2347483" lon="0.5467167"><ele>45.0</ele><time>2026-03-31T15:58:29.15Z</time></trkpt><trkpt lat="41.2348567" lon="0.5467683"><ele>45.0</ele><time>2026-03-31T15:58:30.15Z</time></trkpt><trkpt lat="41.23495" lon="0.54684"><ele>45.0</ele><time>2026-03-31T15:58:31.151Z</time></trkpt><trkpt lat="41.2350467" lon="0.5469383"><ele>45.0</ele><time>2026-03-31T15:58:32.15Z</time></trkpt><trkpt lat="41.235125" lon="0.5470733"><ele>45.0</ele><time>2026-03-31T15:58:33.15Z</time></trkpt><trkpt lat="41.2352033" lon="0.5472117"><ele>45.0</ele><time>2026-03-31T15:58:34.151Z</time></trkpt><trkpt lat="41.23529" lon="0.5473483"><ele>45.0</ele><time>2026-03-31T15:58:35.15Z</time></trkpt><trkpt lat="41.2353767" lon="0.54749"><ele>45.0</ele><time>2026-03-31T15:58:36.15Z</time></trkpt><trkpt lat="41.235465" lon="0.547625"><ele>45.0</ele><time>2026-03-31T15:58:37.15Z</time></trkpt><trkpt lat="41.23555" lon="0.5477567"><ele>45.0</ele><time>2026-03-31T15:58:38.15Z</time></trkpt><trkpt lat="41.235635" lon="0.547885"><ele>45.0</ele><time>2026-03-31T15:58:39.15Z</time></trkpt><trkpt lat="41.2357117" lon="0.5480117"><ele>45.0</ele><time>2026-03-31T15:58:40.15Z</time></trkpt><trkpt lat="41.2357883" lon="0.5481333"><ele>45.0</ele><time>2026-03-31T15:58:41.15Z</time></trkpt><trkpt lat="41.2358717" lon="0.5482617"><ele>45.0</ele><time>2026-03-31T15:58:42.15Z</time></trkpt><trkpt lat="41.2359583" lon="0.5483933"><ele>45.0</ele><time>2026-03-31T15:58:43.151Z</time></trkpt><trkpt lat="41.23605" lon="0.54853"><ele>45.0</ele><time>2026-03-31T15:58:44.15Z</time></trkpt><trkpt lat="41.2361383" lon="0.5486717"><ele>45.0</ele><time>2026-03-31T15:58:45.15Z</time></trkpt><trkpt lat="41.2362267" lon="0.54882"><ele>45.0</ele><time>2026-03-31T15:58:46.15Z</time></trkpt><trkpt lat="41.2363167" lon="0.54898"><ele>45.75</ele><time>2026-03-31T15:58:47.15Z</time></trkpt><trkpt lat="41.23642" lon="0.54913"><ele>46.5</ele><time>2026-03-31T15:58:48.15Z</time></trkpt><trkpt lat="41.2365133" lon="0.5492733"><ele>47.25</ele><time>2026-03-31T15:58:49.151Z</time></trkpt><trkpt lat="41.2366067" lon="0.5494233"><ele>48.0</ele><time>2026-03-31T15:58:50.15Z</time></trkpt><trkpt lat="41.2366983" lon="0.5495683"><ele>46.25</ele><time>2026-03-31T15:58:51.151Z</time></trkpt><trkpt lat="41.2368083" lon="0.5496983"><ele>44.5</ele><time>2026-03-31T15:58:52.15Z</time></trkpt><trkpt lat="41.2369217" lon="0.5498167"><ele>42.75</ele><time>2026-03-31T15:58:53.151Z</time></trkpt><trkpt lat="41.23704" lon="0.5499117"><ele>41.0</ele><time>2026-03-31T15:58:54.151Z</time></trkpt><trkpt lat="41.2371583" lon="0.5499983"><ele>41.0</ele><time>2026-03-31T15:58:55.15Z</time></trkpt><trkpt lat="41.237275" lon="0.5500833"><ele>41.0</ele><time>2026-03-31T15:58:56.15Z</time></trkpt><trkpt lat="41.2373933" lon="0.5501717"><ele>41.0</ele><time>2026-03-31T15:58:57.15Z</time></trkpt><trkpt lat="41.2375117" lon="0.5502617"><ele>41.0</ele><time>2026-03-31T15:58:58.151Z</time></trkpt><trkpt lat="41.2376367" lon="0.5503533"><ele>41.5</ele><time>2026-03-31T15:58:59.15Z</time></trkpt><trkpt lat="41.2377617" lon="0.5504417"><ele>42.0</ele><time>2026-03-31T15:59:00.151Z</time></trkpt><trkpt lat="41.2378867" lon="0.5505267"><ele>42.5</ele><time>2026-03-31T15:59:01.15Z</time></trkpt><trkpt lat="41.2380083" lon="0.550595"><ele>43.0</ele><time>2026-03-31T15:59:02.15Z</time></trkpt><trkpt lat="41.2381333" lon="0.550645"><ele>43.75</ele><time>2026-03-31T15:59:03.15Z</time></trkpt><trkpt lat="41.238265" lon="0.55067"><ele>44.5</ele><time>2026-03-31T15:59:04.151Z</time></trkpt><trkpt lat="41.2383867" lon="0.5506983"><ele>45.25</ele><time>2026-03-31T15:59:05.151Z</time></trkpt><trkpt lat="41.23851" lon="0.5507117"><ele>46.0</ele><time>2026-03-31T15:59:06.151Z</time></trkpt><trkpt lat="41.238625" lon="0.5507283"><ele>46.0</ele><time>2026-03-31T15:59:07.151Z</time></trkpt><trkpt lat="41.2387433" lon="0.5507667"><ele>46.0</ele><time>2026-03-31T15:59:08.151Z</time></trkpt><trkpt lat="41.2388467" lon="0.5508483"><ele>46.0</ele><time>2026-03-31T15:59:09.15Z</time></trkpt><trkpt lat="41.2389333" lon="0.5509633"><ele>46.0</ele><time>2026-03-31T15:59:10.15Z</time></trkpt><trkpt lat="41.2390017" lon="0.5510867"><ele>44.75</ele><time>2026-03-31T15:59:11.15Z</time></trkpt><trkpt lat="41.2390667" lon="0.5512267"><ele>43.5</ele><time>2026-03-31T15:59:12.151Z</time></trkpt><trkpt lat="41.2391567" lon="0.5513483"><ele>42.25</ele><time>2026-03-31T15:59:13.15Z</time></trkpt><trkpt lat="41.239275" lon="0.5514283"><ele>41.0</ele><time>2026-03-31T15:59:14.15Z</time></trkpt><trkpt lat="41.2394033" lon="0.5514883"><ele>41.0</ele><time>2026-03-31T15:59:15.151Z</time></trkpt><trkpt lat="41.2395233" lon="0.55153"><ele>41.0</ele><time>2026-03-31T15:59:16.15Z</time></trkpt><trkpt lat="41.23963" lon="0.551575"><ele>41.0</ele><time>2026-03-31T15:59:17.151Z</time></trkpt><trkpt lat="41.2397233" lon="0.55163"><ele>41.0</ele><time>2026-03-31T15:59:18.15Z</time></trkpt><trkpt lat="41.2398067" lon="0.5516467"><ele>41.0</ele><time>2026-03-31T15:59:19.15Z</time></trkpt><trkpt lat="41.2398733" lon="0.551635"><ele>41.4</ele><time>2026-03-31T15:59:20.15Z</time></trkpt><trkpt lat="41.2399583" lon="0.551515"><ele>41.8</ele><time>2026-03-31T15:59:22.151Z</time></trkpt><trkpt lat="41.2399783" lon="0.5514033"><ele>42.199999999999996</ele><time>2026-03-31T15:59:23.151Z</time></trkpt><trkpt lat="41.23998" lon="0.551285"><ele>42.599999999999994</ele><time>2026-03-31T15:59:24.15Z</time></trkpt><trkpt lat="41.2399817" lon="0.55117"><ele>43.0</ele><time>2026-03-31T15:59:25.151Z</time></trkpt><trkpt lat="41.239975" lon="0.551075"><ele>44.0</ele><time>2026-03-31T15:59:26.151Z</time></trkpt><trkpt lat="41.2399333" lon="0.5509517"><ele>45.0</ele><time>2026-03-31T15:59:28.15Z</time></trkpt><trkpt lat="41.2398233" lon="0.5509183"><ele>46.0</ele><time>2026-03-31T15:59:30.151Z</time></trkpt><trkpt lat="41.2397417" lon="0.55096"><ele>47.0</ele><time>2026-03-31T15:59:32.151Z</time></trkpt><trkpt lat="41.23967" lon="0.55099"><ele>48.0</ele><time>2026-03-31T15:59:34.15Z</time></trkpt><trkpt lat="41.23961" lon="0.551045"><ele>48.0</ele><time>2026-03-31T15:59:37.15Z</time></trkpt></trkseg><trkseg><trkpt lat="41.239845" lon="0.551435"><ele>43.0</ele><time>2026-03-31T16:19:35.161Z</time></trkpt><trkpt lat="41.2399233" lon="0.55166"><ele>43.0</ele><time>2026-03-31T16:19:40.162Z</time></trkpt><trkpt lat="41.2399917" lon="0.5517083"><ele>43.0</ele><time>2026-03-31T16:19:41.162Z</time></trkpt><trkpt lat="41.240105" lon="0.551745"><ele>43.0</ele><time>2026-03-31T16:19:42.161Z</time></trkpt><trkpt lat="41.2402283" lon="0.551765"><ele>43.0</ele><time>2026-03-31T16:19:43.161Z</time></trkpt><trkpt lat="41.2403683" lon="0.5517783"><ele>43.0</ele><time>2026-03-31T16:19:44.161Z</time></trkpt><trkpt lat="41.2405133" lon="0.551795"><ele>43.0</ele><time>2026-03-31T16:19:45.161Z</time></trkpt><trkpt lat="41.24066" lon="0.55181"><ele>43.0</ele><time>2026-03-31T16:19:46.162Z</time></trkpt><trkpt lat="41.2408217" lon="0.551835"><ele>43.333333333333336</ele><time>2026-03-31T16:19:47.161Z</time></trkpt><trkpt lat="41.2409767" lon="0.5518583"><ele>43.666666666666664</ele><time>2026-03-31T16:19:48.162Z</time></trkpt><trkpt lat="41.2411283" lon="0.5518933"><ele>44.0</ele><time>2026-03-31T16:19:49.162Z</time></trkpt><trkpt lat="41.241295" lon="0.5519467"><ele>44.0</ele><time>2026-03-31T16:19:50.162Z</time></trkpt><trkpt lat="41.2414617" lon="0.5520283"><ele>44.0</ele><time>2026-03-31T16:19:51.161Z</time></trkpt><trkpt lat="41.24162" lon="0.5521433"><ele>44.0</ele><time>2026-03-31T16:19:52.162Z</time></trkpt><trkpt lat="41.241765" lon="0.552265"><ele>44.0</ele><time>2026-03-31T16:19:53.162Z</time></trkpt><trkpt lat="41.2419167" lon="0.5523933"><ele>44.0</ele><time>2026-03-31T16:19:54.161Z</time></trkpt><trkpt lat="41.2420533" lon="0.55251"><ele>44.0</ele><time>2026-03-31T16:19:55.162Z</time></trkpt><trkpt lat="41.2422" lon="0.5526183"><ele>45.0</ele><time>2026-03-31T16:19:56.161Z</time></trkpt><trkpt lat="41.2423633" lon="0.5527133"><ele>46.0</ele><time>2026-03-31T16:19:57.162Z</time></trkpt><trkpt lat="41.2425267" lon="0.5527933"><ele>47.0</ele><time>2026-03-31T16:19:58.161Z</time></trkpt><trkpt lat="41.2426933" lon="0.5528617"><ele>46.33333333333333</ele><time>2026-03-31T16:19:59.161Z</time></trkpt><trkpt lat="41.24286" lon="0.5529167"><ele>45.666666666666664</ele><time>2026-03-31T16:20:00.161Z</time></trkpt><trkpt lat="41.24302" lon="0.5529883"><ele>45.0</ele><time>2026-03-31T16:20:01.161Z</time></trkpt><trkpt lat="41.2431783" lon="0.55304"><ele>45.0</ele><time>2026-03-31T16:20:02.161Z</time></trkpt><trkpt lat="41.2433233" lon="0.5531117"><ele>45.0</ele><time>2026-03-31T16:20:03.161Z</time></trkpt><trkpt lat="41.2434433" lon="0.5532083"><ele>45.0</ele><time>2026-03-31T16:20:04.161Z</time></trkpt><trkpt lat="41.2435267" lon="0.5533583"><ele>45.0</ele><time>2026-03-31T16:20:05.162Z</time></trkpt><trkpt lat="41.24361" lon="0.5535417"><ele>42.0</ele><time>2026-03-31T16:20:06.161Z</time></trkpt><trkpt lat="41.2436917" lon="0.5537167"><ele>39.0</ele><time>2026-03-31T16:20:07.162Z</time></trkpt><trkpt lat="41.24379" lon="0.5538683"><ele>36.0</ele><time>2026-03-31T16:20:08.161Z</time></trkpt><trkpt lat="41.243915" lon="0.5540133"><ele>38.666666666666664</ele><time>2026-03-31T16:20:09.161Z</time></trkpt><trkpt lat="41.244045" lon="0.5541433"><ele>41.33333333333333</ele><time>2026-03-31T16:20:10.161Z</time></trkpt><trkpt lat="41.2441833" lon="0.5542833"><ele>44.0</ele><time>2026-03-31T16:20:11.162Z</time></trkpt><trkpt lat="41.2443167" lon="0.5544167"><ele>40.666666666666664</ele><time>2026-03-31T16:20:12.162Z</time></trkpt><trkpt lat="41.2444467" lon="0.5545617"><ele>37.333333333333336</ele><time>2026-03-31T16:20:13.161Z</time></trkpt><trkpt lat="41.2445733" lon="0.5547267"><ele>34.0</ele><time>2026-03-31T16:20:14.162Z</time></trkpt><trkpt lat="41.2446883" lon="0.5549017"><ele>34.66666666666667</ele><time>2026-03-31T16:20:15.161Z</time></trkpt><trkpt lat="41.2448033" lon="0.5550817"><ele>35.333333333333336</ele><time>2026-03-31T16:20:16.162Z</time></trkpt><trkpt lat="41.244915" lon="0.555265"><ele>36.0</ele><time>2026-03-31T16:20:17.161Z</time></trkpt><trkpt lat="41.24503" lon="0.5554483"><ele>36.0</ele><time>2026-03-31T16:20:18.161Z</time></trkpt><trkpt lat="41.2451483" lon="0.5556317"><ele>36.0</ele><time>2026-03-31T16:20:19.162Z</time></trkpt><trkpt lat="41.245265" lon="0.5558183"><ele>36.0</ele><time>2026-03-31T16:20:20.162Z</time></trkpt><trkpt lat="41.245385" lon="0.5559917"><ele>36.0</ele><time>2026-03-31T16:20:21.161Z</time></trkpt><trkpt lat="41.2455033" lon="0.5561683"><ele>36.0</ele><time>2026-03-31T16:20:22.161Z</time></trkpt><trkpt lat="41.245615" lon="0.556345"><ele>36.0</ele><time>2026-03-31T16:20:23.162Z</time></trkpt><trkpt lat="41.2457233" lon="0.5565083"><ele>38.0</ele><time>2026-03-31T16:20:24.161Z</time></trkpt><trkpt lat="41.245825" lon="0.556665"><ele>40.0</ele><time>2026-03-31T16:20:25.161Z</time></trkpt><trkpt lat="41.2459083" lon="0.5568033"><ele>42.0</ele><time>2026-03-31T16:20:26.161Z</time></trkpt><trkpt lat="41.2459917" lon="0.5569367"><ele>44.0</ele><time>2026-03-31T16:20:27.161Z</time></trkpt><trkpt lat="41.24607" lon="0.5570333"><ele>44.25</ele><time>2026-03-31T16:20:28.162Z</time></trkpt><trkpt lat="41.2461683" lon="0.5571017"><ele>44.5</ele><time>2026-03-31T16:20:29.161Z</time></trkpt><trkpt lat="41.24628" lon="0.557115"><ele>44.75</ele><time>2026-03-31T16:20:30.161Z</time></trkpt><trkpt lat="41.2464117" lon="0.5570933"><ele>45.0</ele><time>2026-03-31T16:20:31.162Z</time></trkpt><trkpt lat="41.2465583" lon="0.5570483"><ele>50.0</ele><time>2026-03-31T16:20:32.162Z</time></trkpt><trkpt lat="41.2467083" lon="0.556995"><ele>55.0</ele><time>2026-03-31T16:20:33.162Z</time></trkpt><trkpt lat="41.2468517" lon="0.5569417"><ele>60.0</ele><time>2026-03-31T16:20:34.162Z</time></trkpt><trkpt lat="41.24701" lon="0.5568867"><ele>60.0</ele><time>2026-03-31T16:20:35.161Z</time></trkpt><trkpt lat="41.2471567" lon="0.55684"><ele>60.0</ele><time>2026-03-31T16:20:36.161Z</time></trkpt><trkpt lat="41.2473017" lon="0.5568233"><ele>60.0</ele><time>2026-03-31T16:20:37.162Z</time></trkpt><trkpt lat="41.2474467" lon="0.5568217"><ele>60.0</ele><time>2026-03-31T16:20:38.161Z</time></trkpt><trkpt lat="41.247605" lon="0.5568183"><ele>58.33333333333333</ele><time>2026-03-31T16:20:39.161Z</time></trkpt><trkpt lat="41.2477717" lon="0.55682"><ele>56.666666666666664</ele><time>2026-03-31T16:20:40.162Z</time></trkpt><trkpt lat="41.24794" lon="0.556815"><ele>55.0</ele><time>2026-03-31T16:20:41.161Z</time></trkpt><trkpt lat="41.2481033" lon="0.5568067"><ele>56.666666666666664</ele><time>2026-03-31T16:20:42.161Z</time></trkpt><trkpt lat="41.2482683" lon="0.556795"><ele>58.33333333333333</ele><time>2026-03-31T16:20:43.161Z</time></trkpt><trkpt lat="41.24843" lon="0.5568"><ele>60.0</ele><time>2026-03-31T16:20:44.161Z</time></trkpt><trkpt lat="41.2485983" lon="0.5568083"><ele>60.0</ele><time>2026-03-31T16:20:45.161Z</time></trkpt><trkpt lat="41.2487583" lon="0.55682"><ele>60.0</ele><time>2026-03-31T16:20:46.162Z</time></trkpt><trkpt lat="41.24892" lon="0.5568417"><ele>60.0</ele><time>2026-03-31T16:20:47.161Z</time></trkpt><trkpt lat="41.2490817" lon="0.5568883"><ele>59.66666666666667</ele><time>2026-03-31T16:20:48.162Z</time></trkpt><trkpt lat="41.2492383" lon="0.55695"><ele>59.333333333333336</ele><time>2026-03-31T16:20:49.162Z</time></trkpt><trkpt lat="41.2494067" lon="0.557005"><ele>59.0</ele><time>2026-03-31T16:20:50.161Z</time></trkpt><trkpt lat="41.2495767" lon="0.5570583"><ele>56.0</ele><time>2026-03-31T16:20:51.162Z</time></trkpt><trkpt lat="41.2497583" lon="0.5571283"><ele>53.0</ele><time>2026-03-31T16:20:52.162Z</time></trkpt><trkpt lat="41.2499383" lon="0.5571817"><ele>50.0</ele><time>2026-03-31T16:20:53.161Z</time></trkpt><trkpt lat="41.2501217" lon="0.557225"><ele>50.0</ele><time>2026-03-31T16:20:54.161Z</time></trkpt><trkpt lat="41.2502933" lon="0.5573033"><ele>50.0</ele><time>2026-03-31T16:20:55.161Z</time></trkpt><trkpt lat="41.250465" lon="0.5574117"><ele>50.0</ele><time>2026-03-31T16:20:56.161Z</time></trkpt><trkpt lat="41.2506317" lon="0.557545"><ele>49.333333333333336</ele><time>2026-03-31T16:20:57.161Z</time></trkpt><trkpt lat="41.250795" lon="0.5576733"><ele>48.66666666666667</ele><time>2026-03-31T16:20:58.161Z</time></trkpt><trkpt lat="41.250955" lon="0.55779"><ele>48.0</ele><time>2026-03-31T16:20:59.162Z</time></trkpt><trkpt lat="41.2511333" lon="0.55789"><ele>48.0</ele><time>2026-03-31T16:21:00.162Z</time></trkpt><trkpt lat="41.2513017" lon="0.5580233"><ele>48.0</ele><time>2026-03-31T16:21:01.16Z</time></trkpt><trkpt lat="41.2514717" lon="0.5581767"><ele>48.0</ele><time>2026-03-31T16:21:02.162Z</time></trkpt><trkpt lat="41.2516283" lon="0.5583433"><ele>48.33333333333333</ele><time>2026-03-31T16:21:03.162Z</time></trkpt><trkpt lat="41.25178" lon="0.5584867"><ele>48.666666666666664</ele><time>2026-03-31T16:21:04.161Z</time></trkpt><trkpt lat="41.2519283" lon="0.5586467"><ele>49.0</ele><time>2026-03-31T16:21:05.162Z</time></trkpt><trkpt lat="41.252075" lon="0.5588067"><ele>49.0</ele><time>2026-03-31T16:21:06.161Z</time></trkpt><trkpt lat="41.2522167" lon="0.558965"><ele>49.0</ele><time>2026-03-31T16:21:07.161Z</time></trkpt><trkpt lat="41.2523383" lon="0.559115"><ele>49.0</ele><time>2026-03-31T16:21:08.161Z</time></trkpt><trkpt lat="41.2524367" lon="0.5592533"><ele>49.0</ele><time>2026-03-31T16:21:09.161Z</time></trkpt><trkpt lat="41.252535" lon="0.5593817"><ele>49.0</ele><time>2026-03-31T16:21:10.162Z</time></trkpt><trkpt lat="41.252625" lon="0.5594783"><ele>49.0</ele><time>2026-03-31T16:21:11.162Z</time></trkpt><trkpt lat="41.2527117" lon="0.5595433"><ele>49.0</ele><time>2026-03-31T16:21:12.161Z</time></trkpt><trkpt lat="41.2528" lon="0.559565"><ele>49.0</ele><time>2026-03-31T16:21:13.161Z</time></trkpt><trkpt lat="41.252885" lon="0.55955"><ele>51.75</ele><time>2026-03-31T16:21:14.161Z</time></trkpt><trkpt lat="41.2529783" lon="0.559495"><ele>54.5</ele><time>2026-03-31T16:21:15.162Z</time></trkpt><trkpt lat="41.2530667" lon="0.5593917"><ele>57.25</ele><time>2026-03-31T16:21:16.162Z</time></trkpt><trkpt lat="41.2531717" lon="0.5592617"><ele>60.0</ele><time>2026-03-31T16:21:17.162Z</time></trkpt><trkpt lat="41.25329" lon="0.5591383"><ele>61.33333333333333</ele><time>2026-03-31T16:21:18.161Z</time></trkpt><trkpt lat="41.2534167" lon="0.5590383"><ele>62.666666666666664</ele><time>2026-03-31T16:21:19.162Z</time></trkpt><trkpt lat="41.2535583" lon="0.558945"><ele>64.0</ele><time>2026-03-31T16:21:20.162Z</time></trkpt><trkpt lat="41.2537133" lon="0.55888"><ele>64.0</ele><time>2026-03-31T16:21:21.161Z</time></trkpt><trkpt lat="41.2538617" lon="0.5588633"><ele>64.0</ele><time>2026-03-31T16:21:22.162Z</time></trkpt><trkpt lat="41.2540267" lon="0.558915"><ele>64.0</ele><time>2026-03-31T16:21:23.162Z</time></trkpt><trkpt lat="41.25419" lon="0.55897"><ele>63.0</ele><time>2026-03-31T16:21:24.162Z</time></trkpt><trkpt lat="41.2543517" lon="0.5590117"><ele>62.0</ele><time>2026-03-31T16:21:25.161Z</time></trkpt><trkpt lat="41.2545117" lon="0.5590733"><ele>61.0</ele><time>2026-03-31T16:21:26.161Z</time></trkpt><trkpt lat="41.25466" lon="0.55917"><ele>61.33333333333333</ele><time>2026-03-31T16:21:27.161Z</time></trkpt><trkpt lat="41.2548033" lon="0.559295"><ele>61.66666666666667</ele><time>2026-03-31T16:21:28.162Z</time></trkpt><trkpt lat="41.2549383" lon="0.5594267"><ele>62.0</ele><time>2026-03-31T16:21:29.162Z</time></trkpt><trkpt lat="41.2550733" lon="0.559555"><ele>62.0</ele><time>2026-03-31T16:21:30.161Z</time></trkpt><trkpt lat="41.2552133" lon="0.5596867"><ele>62.0</ele><time>2026-03-31T16:21:31.161Z</time></trkpt><trkpt lat="41.255355" lon="0.559815"><ele>62.0</ele><time>2026-03-31T16:21:32.161Z</time></trkpt><trkpt lat="41.25548" lon="0.5599433"><ele>62.0</ele><time>2026-03-31T16:21:33.161Z</time></trkpt><trkpt lat="41.2556033" lon="0.56006"><ele>62.0</ele><time>2026-03-31T16:21:34.161Z</time></trkpt><trkpt lat="41.25572" lon="0.5601717"><ele>62.0</ele><time>2026-03-31T16:21:35.161Z</time></trkpt><trkpt lat="41.2558317" lon="0.56028"><ele>62.0</ele><time>2026-03-31T16:21:36.161Z</time></trkpt><trkpt lat="41.2559233" lon="0.5604117"><ele>64.0</ele><time>2026-03-31T16:21:37.161Z</time></trkpt><trkpt lat="41.2559983" lon="0.5605667"><ele>66.0</ele><time>2026-03-31T16:21:38.161Z</time></trkpt><trkpt lat="41.2560333" lon="0.5607483"><ele>68.0</ele><time>2026-03-31T16:21:39.162Z</time></trkpt><trkpt lat="41.256035" lon="0.5609367"><ele>70.0</ele><time>2026-03-31T16:21:40.162Z</time></trkpt><trkpt lat="41.25602" lon="0.5611317"><ele>70.0</ele><time>2026-03-31T16:21:41.161Z</time></trkpt><trkpt lat="41.2559983" lon="0.5613283"><ele>70.0</ele><time>2026-03-31T16:21:42.162Z</time></trkpt><trkpt lat="41.255985" lon="0.5615417"><ele>70.0</ele><time>2026-03-31T16:21:43.161Z</time></trkpt><trkpt lat="41.2559817" lon="0.561745"><ele>70.0</ele><time>2026-03-31T16:21:44.162Z</time></trkpt><trkpt lat="41.2559867" lon="0.5619433"><ele>70.0</ele><time>2026-03-31T16:21:45.161Z</time></trkpt><trkpt lat="41.2560083" lon="0.56214"><ele>70.0</ele><time>2026-03-31T16:21:46.161Z</time></trkpt><trkpt lat="41.2560583" lon="0.56232"><ele>70.0</ele><time>2026-03-31T16:21:47.162Z</time></trkpt><trkpt lat="41.2561217" lon="0.5624933"><ele>70.0</ele><time>2026-03-31T16:21:48.162Z</time></trkpt><trkpt lat="41.2561883" lon="0.5626733"><ele>70.0</ele><time>2026-03-31T16:21:49.162Z</time></trkpt><trkpt lat="41.2562483" lon="0.5628517"><ele>70.0</ele><time>2026-03-31T16:21:50.162Z</time></trkpt><trkpt lat="41.2562933" lon="0.5630383"><ele>70.0</ele><time>2026-03-31T16:21:51.161Z</time></trkpt><trkpt lat="41.2562983" lon="0.5632183"><ele>70.0</ele><time>2026-03-31T16:21:52.161Z</time></trkpt><trkpt lat="41.2562667" lon="0.5633767"><ele>70.0</ele><time>2026-03-31T16:21:53.162Z</time></trkpt><trkpt lat="41.2562133" lon="0.5635383"><ele>70.0</ele><time>2026-03-31T16:21:54.162Z</time></trkpt><trkpt lat="41.25618" lon="0.5636983"><ele>70.0</ele><time>2026-03-31T16:21:55.161Z</time></trkpt><trkpt lat="41.256165" lon="0.5638633"><ele>69.5</ele><time>2026-03-31T16:21:56.161Z</time></trkpt><trkpt lat="41.2561817" lon="0.564"><ele>69.0</ele><time>2026-03-31T16:21:57.162Z</time></trkpt><trkpt lat="41.256245" lon="0.56413"><ele>68.5</ele><time>2026-03-31T16:21:58.162Z</time></trkpt><trkpt lat="41.256325" lon="0.564265"><ele>68.0</ele><time>2026-03-31T16:21:59.162Z</time></trkpt><trkpt lat="41.256415" lon="0.56438"><ele>67.75</ele><time>2026-03-31T16:22:00.161Z</time></trkpt><trkpt lat="41.2564967" lon="0.5645167"><ele>67.5</ele><time>2026-03-31T16:22:01.161Z</time></trkpt><trkpt lat="41.2565217" lon="0.564665"><ele>67.25</ele><time>2026-03-31T16:22:02.161Z</time></trkpt><trkpt lat="41.2565083" lon="0.5648"><ele>67.0</ele><time>2026-03-31T16:22:03.161Z</time></trkpt><trkpt lat="41.2564467" lon="0.56493"><ele>67.0</ele><time>2026-03-31T16:22:04.161Z</time></trkpt><trkpt lat="41.2563683" lon="0.5650367"><ele>67.0</ele><time>2026-03-31T16:22:05.162Z</time></trkpt><trkpt lat="41.25627" lon="0.5651467"><ele>67.0</ele><time>2026-03-31T16:22:06.162Z</time></trkpt><trkpt lat="41.256175" lon="0.5652617"><ele>67.0</ele><time>2026-03-31T16:22:07.161Z</time></trkpt><trkpt lat="41.2561017" lon="0.5653883"><ele>68.0</ele><time>2026-03-31T16:22:08.161Z</time></trkpt><trkpt lat="41.25605" lon="0.5655267"><ele>69.0</ele><time>2026-03-31T16:22:09.161Z</time></trkpt><trkpt lat="41.2560267" lon="0.5656767"><ele>70.0</ele><time>2026-03-31T16:22:10.161Z</time></trkpt><trkpt lat="41.2560083" lon="0.5658417"><ele>71.0</ele><time>2026-03-31T16:22:11.162Z</time></trkpt><trkpt lat="41.25599" lon="0.566025"><ele>72.0</ele><time>2026-03-31T16:22:12.162Z</time></trkpt><trkpt lat="41.2559717" lon="0.5662267"><ele>73.0</ele><time>2026-03-31T16:22:13.162Z</time></trkpt><trkpt lat="41.2559483" lon="0.5664233"><ele>74.0</ele><time>2026-03-31T16:22:14.162Z</time></trkpt><trkpt lat="41.2559367" lon="0.5666217"><ele>74.0</ele><time>2026-03-31T16:22:15.161Z</time></trkpt><trkpt lat="41.25593" lon="0.566795"><ele>74.0</ele><time>2026-03-31T16:22:16.161Z</time></trkpt><trkpt lat="41.2559567" lon="0.5669783"><ele>74.0</ele><time>2026-03-31T16:22:17.161Z</time></trkpt><trkpt lat="41.256" lon="0.5671483"><ele>74.0</ele><time>2026-03-31T16:22:18.162Z</time></trkpt><trkpt lat="41.2560583" lon="0.567325"><ele>73.0</ele><time>2026-03-31T16:22:19.162Z</time></trkpt><trkpt lat="41.2561233" lon="0.56748"><ele>72.0</ele><time>2026-03-31T16:22:20.161Z</time></trkpt><trkpt lat="41.2561867" lon="0.5676417"><ele>71.0</ele><time>2026-03-31T16:22:21.162Z</time></trkpt><trkpt lat="41.2562567" lon="0.5677933"><ele>70.0</ele><time>2026-03-31T16:22:22.162Z</time></trkpt><trkpt lat="41.256345" lon="0.567935"><ele>69.25</ele><time>2026-03-31T16:22:23.161Z</time></trkpt><trkpt lat="41.256445" lon="0.568075"><ele>68.5</ele><time>2026-03-31T16:22:24.162Z</time></trkpt><trkpt lat="41.2565417" lon="0.5682067"><ele>67.75</ele><time>2026-03-31T16:22:25.161Z</time></trkpt><trkpt lat="41.2566283" lon="0.56832"><ele>67.0</ele><time>2026-03-31T16:22:26.162Z</time></trkpt><trkpt lat="41.25672" lon="0.5684167"><ele>66.75</ele><time>2026-03-31T16:22:27.162Z</time></trkpt><trkpt lat="41.2568183" lon="0.568505"><ele>66.5</ele><time>2026-03-31T16:22:28.162Z</time></trkpt><trkpt lat="41.2569217" lon="0.5685817"><ele>66.25</ele><time>2026-03-31T16:22:29.162Z</time></trkpt><trkpt lat="41.2570333" lon="0.5686467"><ele>66.0</ele><time>2026-03-31T16:22:30.162Z</time></trkpt><trkpt lat="41.2571483" lon="0.56871"><ele>66.0</ele><time>2026-03-31T16:22:31.162Z</time></trkpt><trkpt lat="41.2572583" lon="0.5687833"><ele>66.0</ele><time>2026-03-31T16:22:32.161Z</time></trkpt><trkpt lat="41.2573717" lon="0.56885"><ele>66.0</ele><time>2026-03-31T16:22:33.161Z</time></trkpt><trkpt lat="41.257465" lon="0.568935"><ele>66.0</ele><time>2026-03-31T16:22:34.161Z</time></trkpt><trkpt lat="41.2575517" lon="0.5690267"><ele>67.5</ele><time>2026-03-31T16:22:35.161Z</time></trkpt><trkpt lat="41.25762" lon="0.5691417"><ele>69.0</ele><time>2026-03-31T16:22:36.161Z</time></trkpt><trkpt lat="41.2576783" lon="0.56927"><ele>70.5</ele><time>2026-03-31T16:22:37.161Z</time></trkpt><trkpt lat="41.257735" lon="0.5694117"><ele>72.0</ele><time>2026-03-31T16:22:38.162Z</time></trkpt><trkpt lat="41.2577817" lon="0.5695583"><ele>72.0</ele><time>2026-03-31T16:22:39.161Z</time></trkpt><trkpt lat="41.2578233" lon="0.56971"><ele>72.0</ele><time>2026-03-31T16:22:40.162Z</time></trkpt><trkpt lat="41.2578717" lon="0.5698567"><ele>72.0</ele><time>2026-03-31T16:22:41.161Z</time></trkpt><trkpt lat="41.2579267" lon="0.570005"><ele>72.0</ele><time>2026-03-31T16:22:42.162Z</time></trkpt><trkpt lat="41.258005" lon="0.5701533"><ele>72.0</ele><time>2026-03-31T16:22:43.162Z</time></trkpt><trkpt lat="41.258115" lon="0.5703083"><ele>72.0</ele><time>2026-03-31T16:22:44.162Z</time></trkpt><trkpt lat="41.2582417" lon="0.5704667"><ele>72.0</ele><time>2026-03-31T16:22:45.162Z</time></trkpt><trkpt lat="41.258375" lon="0.5706483"><ele>71.66666666666667</ele><time>2026-03-31T16:22:46.162Z</time></trkpt><trkpt lat="41.2585017" lon="0.5708433"><ele>71.33333333333334</ele><time>2026-03-31T16:22:47.161Z</time></trkpt><trkpt lat="41.25861" lon="0.5710467"><ele>71.0</ele><time>2026-03-31T16:22:48.162Z</time></trkpt><trkpt lat="41.2587083" lon="0.57125"><ele>71.0</ele><time>2026-03-31T16:22:49.162Z</time></trkpt><trkpt lat="41.2588067" lon="0.5714633"><ele>71.0</ele><time>2026-03-31T16:22:50.162Z</time></trkpt><trkpt lat="41.2589" lon="0.57166"><ele>71.0</ele><time>2026-03-31T16:22:51.161Z</time></trkpt><trkpt lat="41.2590067" lon="0.571845"><ele>73.0</ele><time>2026-03-31T16:22:52.161Z</time></trkpt><trkpt lat="41.25911" lon="0.572025"><ele>75.0</ele><time>2026-03-31T16:22:53.161Z</time></trkpt><trkpt lat="41.2592333" lon="0.5721767"><ele>77.0</ele><time>2026-03-31T16:22:54.162Z</time></trkpt><trkpt lat="41.2593483" lon="0.5723333"><ele>77.0</ele><time>2026-03-31T16:22:55.162Z</time></trkpt><trkpt lat="41.2594533" lon="0.5725"><ele>77.0</ele><time>2026-03-31T16:22:56.161Z</time></trkpt><trkpt lat="41.2595533" lon="0.5726817"><ele>77.0</ele><time>2026-03-31T16:22:57.161Z</time></trkpt><trkpt lat="41.2596467" lon="0.5728783"><ele>77.0</ele><time>2026-03-31T16:22:58.162Z</time></trkpt><trkpt lat="41.2597383" lon="0.5730767"><ele>77.0</ele><time>2026-03-31T16:22:59.161Z</time></trkpt><trkpt lat="41.2598283" lon="0.5732683"><ele>77.0</ele><time>2026-03-31T16:23:00.162Z</time></trkpt><trkpt lat="41.2599183" lon="0.5734533"><ele>77.0</ele><time>2026-03-31T16:23:01.162Z</time></trkpt><trkpt lat="41.2600117" lon="0.57364"><ele>77.0</ele><time>2026-03-31T16:23:02.161Z</time></trkpt><trkpt lat="41.2601" lon="0.5738067"><ele>77.0</ele><time>2026-03-31T16:23:03.161Z</time></trkpt><trkpt lat="41.2601717" lon="0.5739683"><ele>77.0</ele><time>2026-03-31T16:23:04.161Z</time></trkpt><trkpt lat="41.2602517" lon="0.57409"><ele>77.0</ele><time>2026-03-31T16:23:05.161Z</time></trkpt><trkpt lat="41.2603467" lon="0.5741583"><ele>77.0</ele><time>2026-03-31T16:23:06.162Z</time></trkpt><trkpt lat="41.2604617" lon="0.5741617"><ele>77.0</ele><time>2026-03-31T16:23:07.161Z</time></trkpt><trkpt lat="41.2605967" lon="0.5741383"><ele>77.75</ele><time>2026-03-31T16:23:08.162Z</time></trkpt><trkpt lat="41.26072" lon="0.5740883"><ele>78.5</ele><time>2026-03-31T16:23:09.162Z</time></trkpt><trkpt lat="41.2608333" lon="0.5740167"><ele>79.25</ele><time>2026-03-31T16:23:10.161Z</time></trkpt><trkpt lat="41.2609333" lon="0.573885"><ele>80.0</ele><time>2026-03-31T16:23:11.161Z</time></trkpt><trkpt lat="41.261035" lon="0.5737367"><ele>86.33333333333334</ele><time>2026-03-31T16:23:12.162Z</time></trkpt><trkpt lat="41.2611483" lon="0.5735917"><ele>92.66666666666667</ele><time>2026-03-31T16:23:13.162Z</time></trkpt><trkpt lat="41.2612783" lon="0.5734683"><ele>99.0</ele><time>2026-03-31T16:23:14.161Z</time></trkpt><trkpt lat="41.2614167" lon="0.573355"><ele>94.66666666666667</ele><time>2026-03-31T16:23:15.161Z</time></trkpt><trkpt lat="41.2615617" lon="0.5732317"><ele>90.33333333333334</ele><time>2026-03-31T16:23:16.161Z</time></trkpt><trkpt lat="41.2617067" lon="0.5731067"><ele>86.0</ele><time>2026-03-31T16:23:17.162Z</time></trkpt><trkpt lat="41.2618583" lon="0.5729833"><ele>86.0</ele><time>2026-03-31T16:23:18.161Z</time></trkpt><trkpt lat="41.2620017" lon="0.572865"><ele>86.0</ele><time>2026-03-31T16:23:19.161Z</time></trkpt><trkpt lat="41.262155" lon="0.5727583"><ele>86.0</ele><time>2026-03-31T16:23:20.162Z</time></trkpt><trkpt lat="41.2623067" lon="0.5726917"><ele>90.0</ele><time>2026-03-31T16:23:21.161Z</time></trkpt><trkpt lat="41.2624667" lon="0.5726483"><ele>94.0</ele><time>2026-03-31T16:23:22.161Z</time></trkpt><trkpt lat="41.26263" lon="0.5726183"><ele>98.0</ele><time>2026-03-31T16:23:23.161Z</time></trkpt><trkpt lat="41.2627933" lon="0.5726083"><ele>98.0</ele><time>2026-03-31T16:23:24.162Z</time></trkpt><trkpt lat="41.2629517" lon="0.572615"><ele>98.0</ele><time>2026-03-31T16:23:25.161Z</time></trkpt><trkpt lat="41.2630917" lon="0.57266"><ele>98.0</ele><time>2026-03-31T16:23:26.162Z</time></trkpt><trkpt lat="41.2632233" lon="0.5727517"><ele>96.0</ele><time>2026-03-31T16:23:27.162Z</time></trkpt><trkpt lat="41.26334" lon="0.5728617"><ele>94.0</ele><time>2026-03-31T16:23:28.162Z</time></trkpt><trkpt lat="41.2634317" lon="0.572995"><ele>92.0</ele><time>2026-03-31T16:23:29.162Z</time></trkpt><trkpt lat="41.2634983" lon="0.57315"><ele>90.0</ele><time>2026-03-31T16:23:30.161Z</time></trkpt><trkpt lat="41.263535" lon="0.5733283"><ele>90.0</ele><time>2026-03-31T16:23:31.161Z</time></trkpt><trkpt lat="41.2635467" lon="0.57351"><ele>90.0</ele><time>2026-03-31T16:23:32.161Z</time></trkpt><trkpt lat="41.2635483" lon="0.5737017"><ele>90.0</ele><time>2026-03-31T16:23:33.162Z</time></trkpt><trkpt lat="41.26356" lon="0.573895"><ele>90.0</ele><time>2026-03-31T16:23:34.161Z</time></trkpt><trkpt lat="41.2635633" lon="0.5740983"><ele>89.75</ele><time>2026-03-31T16:23:35.162Z</time></trkpt><trkpt lat="41.2635767" lon="0.57428"><ele>89.5</ele><time>2026-03-31T16:23:36.161Z</time></trkpt><trkpt lat="41.2635833" lon="0.5744683"><ele>89.25</ele><time>2026-03-31T16:23:37.162Z</time></trkpt><trkpt lat="41.2635917" lon="0.5746433"><ele>89.0</ele><time>2026-03-31T16:23:38.161Z</time></trkpt><trkpt lat="41.2635667" lon="0.5748067"><ele>89.0</ele><time>2026-03-31T16:23:39.162Z</time></trkpt><trkpt lat="41.2635017" lon="0.5749467"><ele>89.0</ele><time>2026-03-31T16:23:40.16Z</time></trkpt><trkpt lat="41.2634067" lon="0.57507"><ele>89.0</ele><time>2026-03-31T16:23:41.161Z</time></trkpt><trkpt lat="41.2633" lon="0.5751683"><ele>89.0</ele><time>2026-03-31T16:23:42.161Z</time></trkpt><trkpt lat="41.2632017" lon="0.5752733"><ele>88.5</ele><time>2026-03-31T16:23:43.16Z</time></trkpt><trkpt lat="41.2631317" lon="0.575395"><ele>88.0</ele><time>2026-03-31T16:23:44.161Z</time></trkpt><trkpt lat="41.2630817" lon="0.5755433"><ele>87.5</ele><time>2026-03-31T16:23:45.16Z</time></trkpt><trkpt lat="41.263065" lon="0.5757133"><ele>87.0</ele><time>2026-03-31T16:23:46.161Z</time></trkpt><trkpt lat="41.2630783" lon="0.5758817"><ele>87.0</ele><time>2026-03-31T16:23:47.16Z</time></trkpt><trkpt lat="41.2631117" lon="0.5760417"><ele>87.0</ele><time>2026-03-31T16:23:48.16Z</time></trkpt><trkpt lat="41.2631667" lon="0.5761583"><ele>87.0</ele><time>2026-03-31T16:23:49.16Z</time></trkpt><trkpt lat="41.2632667" lon="0.5762417"><ele>87.0</ele><time>2026-03-31T16:23:50.16Z</time></trkpt><trkpt lat="41.263385" lon="0.5762967"><ele>87.0</ele><time>2026-03-31T16:23:51.161Z</time></trkpt><trkpt lat="41.2635117" lon="0.5763267"><ele>87.0</ele><time>2026-03-31T16:23:52.16Z</time></trkpt><trkpt lat="41.2636367" lon="0.5763267"><ele>87.0</ele><time>2026-03-31T16:23:53.161Z</time></trkpt><trkpt lat="41.2637583" lon="0.576275"><ele>87.0</ele><time>2026-03-31T16:23:54.161Z</time></trkpt><trkpt lat="41.2638683" lon="0.5761967"><ele>89.75</ele><time>2026-03-31T16:23:55.16Z</time></trkpt><trkpt lat="41.2639817" lon="0.5761"><ele>92.5</ele><time>2026-03-31T16:23:56.161Z</time></trkpt><trkpt lat="41.2640917" lon="0.5759867"><ele>95.25</ele><time>2026-03-31T16:23:57.161Z</time></trkpt><trkpt lat="41.264195" lon="0.57586"><ele>98.0</ele><time>2026-03-31T16:23:58.161Z</time></trkpt><trkpt lat="41.26431" lon="0.5757117"><ele>98.0</ele><time>2026-03-31T16:23:59.161Z</time></trkpt><trkpt lat="41.2644417" lon="0.575595"><ele>98.0</ele><time>2026-03-31T16:24:00.161Z</time></trkpt><trkpt lat="41.2645833" lon="0.5754933"><ele>98.0</ele><time>2026-03-31T16:24:01.16Z</time></trkpt><trkpt lat="41.2647267" lon="0.5753933"><ele>100.33333333333333</ele><time>2026-03-31T16:24:02.161Z</time></trkpt><trkpt lat="41.2648667" lon="0.5752783"><ele>102.66666666666666</ele><time>2026-03-31T16:24:03.161Z</time></trkpt><trkpt lat="41.2650017" lon="0.57516"><ele>105.0</ele><time>2026-03-31T16:24:04.161Z</time></trkpt><trkpt lat="41.2651367" lon="0.5750233"><ele>105.0</ele><time>2026-03-31T16:24:05.16Z</time></trkpt><trkpt lat="41.2652767" lon="0.57489"><ele>105.0</ele><time>2026-03-31T16:24:06.16Z</time></trkpt><trkpt lat="41.2654183" lon="0.57475"><ele>105.0</ele><time>2026-03-31T16:24:07.161Z</time></trkpt><trkpt lat="41.2655617" lon="0.57461"><ele>106.0</ele><time>2026-03-31T16:24:08.16Z</time></trkpt><trkpt lat="41.26571" lon="0.57448"><ele>107.0</ele><time>2026-03-31T16:24:09.16Z</time></trkpt><trkpt lat="41.26586" lon="0.5743433"><ele>108.0</ele><time>2026-03-31T16:24:10.16Z</time></trkpt><trkpt lat="41.2660067" lon="0.5742283"><ele>108.0</ele><time>2026-03-31T16:24:11.161Z</time></trkpt><trkpt lat="41.2661633" lon="0.5741233"><ele>108.0</ele><time>2026-03-31T16:24:12.16Z</time></trkpt><trkpt lat="41.2663283" lon="0.5740483"><ele>108.0</ele><time>2026-03-31T16:24:13.16Z</time></trkpt><trkpt lat="41.2664933" lon="0.5739767"><ele>104.33333333333334</ele><time>2026-03-31T16:24:14.161Z</time></trkpt><trkpt lat="41.26666" lon="0.5739133"><ele>100.66666666666667</ele><time>2026-03-31T16:24:15.16Z</time></trkpt><trkpt lat="41.2668183" lon="0.5738517"><ele>97.0</ele><time>2026-03-31T16:24:16.161Z</time></trkpt><trkpt lat="41.2669783" lon="0.5737667"><ele>100.33333333333334</ele><time>2026-03-31T16:24:17.16Z</time></trkpt><trkpt lat="41.2671233" lon="0.5736667"><ele>103.66666666666666</ele><time>2026-03-31T16:24:18.16Z</time></trkpt><trkpt lat="41.2672683" lon="0.5735667"><ele>107.0</ele><time>2026-03-31T16:24:19.161Z</time></trkpt><trkpt lat="41.2674217" lon="0.573475"><ele>107.0</ele><time>2026-03-31T16:24:20.16Z</time></trkpt><trkpt lat="41.26758" lon="0.5734133"><ele>107.0</ele><time>2026-03-31T16:24:21.16Z</time></trkpt><trkpt lat="41.2677367" lon="0.5733667"><ele>107.0</ele><time>2026-03-31T16:24:22.16Z</time></trkpt><trkpt lat="41.2678933" lon="0.5733533"><ele>107.0</ele><time>2026-03-31T16:24:23.16Z</time></trkpt><trkpt lat="41.268045" lon="0.573355"><ele>107.0</ele><time>2026-03-31T16:24:24.16Z</time></trkpt><trkpt lat="41.268195" lon="0.573385"><ele>107.0</ele><time>2026-03-31T16:24:25.16Z</time></trkpt><trkpt lat="41.2683533" lon="0.5734283"><ele>107.0</ele><time>2026-03-31T16:24:26.161Z</time></trkpt><trkpt lat="41.268515" lon="0.5734933"><ele>107.0</ele><time>2026-03-31T16:24:27.161Z</time></trkpt><trkpt lat="41.2686733" lon="0.5735867"><ele>107.0</ele><time>2026-03-31T16:24:28.161Z</time></trkpt><trkpt lat="41.268825" lon="0.573695"><ele>104.0</ele><time>2026-03-31T16:24:29.16Z</time></trkpt><trkpt lat="41.2689767" lon="0.573805"><ele>101.0</ele><time>2026-03-31T16:24:30.16Z</time></trkpt><trkpt lat="41.26913" lon="0.5739233"><ele>98.0</ele><time>2026-03-31T16:24:31.16Z</time></trkpt><trkpt lat="41.2692783" lon="0.5740483"><ele>98.0</ele><time>2026-03-31T16:24:32.161Z</time></trkpt><trkpt lat="41.2694333" lon="0.5741767"><ele>98.0</ele><time>2026-03-31T16:24:33.16Z</time></trkpt><trkpt lat="41.2695817" lon="0.5743083"><ele>98.0</ele><time>2026-03-31T16:24:34.161Z</time></trkpt><trkpt lat="41.2697267" lon="0.574465"><ele>99.0</ele><time>2026-03-31T16:24:35.161Z</time></trkpt><trkpt lat="41.26986" lon="0.57462"><ele>100.0</ele><time>2026-03-31T16:24:36.16Z</time></trkpt><trkpt lat="41.27" lon="0.57477"><ele>101.0</ele><time>2026-03-31T16:24:37.161Z</time></trkpt><trkpt lat="41.2701383" lon="0.5749083"><ele>101.0</ele><time>2026-03-31T16:24:38.161Z</time></trkpt><trkpt lat="41.2702783" lon="0.5750483"><ele>101.0</ele><time>2026-03-31T16:24:39.161Z</time></trkpt><trkpt lat="41.2704083" lon="0.57519"><ele>101.0</ele><time>2026-03-31T16:24:40.161Z</time></trkpt><trkpt lat="41.2705367" lon="0.57532"><ele>103.0</ele><time>2026-03-31T16:24:41.16Z</time></trkpt><trkpt lat="41.270645" lon="0.575445"><ele>105.0</ele><time>2026-03-31T16:24:42.16Z</time></trkpt><trkpt lat="41.2707417" lon="0.5756017"><ele>107.0</ele><time>2026-03-31T16:24:43.161Z</time></trkpt><trkpt lat="41.2708083" lon="0.57579"><ele>107.0</ele><time>2026-03-31T16:24:44.161Z</time></trkpt><trkpt lat="41.2708483" lon="0.5759917"><ele>107.0</ele><time>2026-03-31T16:24:45.16Z</time></trkpt><trkpt lat="41.27088" lon="0.5762017"><ele>107.0</ele><time>2026-03-31T16:24:46.161Z</time></trkpt><trkpt lat="41.2709183" lon="0.576415"><ele>106.0</ele><time>2026-03-31T16:24:47.161Z</time></trkpt><trkpt lat="41.2709533" lon="0.57664"><ele>105.0</ele><time>2026-03-31T16:24:48.161Z</time></trkpt><trkpt lat="41.2709817" lon="0.576875"><ele>104.0</ele><time>2026-03-31T16:24:49.16Z</time></trkpt><trkpt lat="41.2710133" lon="0.577105"><ele>103.0</ele><time>2026-03-31T16:24:50.16Z</time></trkpt><trkpt lat="41.2710383" lon="0.5773467"><ele>102.0</ele><time>2026-03-31T16:24:51.161Z</time></trkpt><trkpt lat="41.2710717" lon="0.5775667"><ele>101.0</ele><time>2026-03-31T16:24:52.16Z</time></trkpt><trkpt lat="41.2710983" lon="0.577775"><ele>102.25</ele><time>2026-03-31T16:24:53.16Z</time></trkpt><trkpt lat="41.2711333" lon="0.5779683"><ele>103.5</ele><time>2026-03-31T16:24:54.16Z</time></trkpt><trkpt lat="41.2711833" lon="0.5781483"><ele>104.75</ele><time>2026-03-31T16:24:55.161Z</time></trkpt><trkpt lat="41.2712483" lon="0.5783217"><ele>106.0</ele><time>2026-03-31T16:24:56.16Z</time></trkpt><trkpt lat="41.2713417" lon="0.578495"><ele>106.66666666666667</ele><time>2026-03-31T16:24:57.16Z</time></trkpt><trkpt lat="41.271445" lon="0.5786717"><ele>107.33333333333334</ele><time>2026-03-31T16:24:58.16Z</time></trkpt><trkpt lat="41.2715533" lon="0.5788583"><ele>108.0</ele><time>2026-03-31T16:24:59.16Z</time></trkpt><trkpt lat="41.2716633" lon="0.5790483"><ele>108.0</ele><time>2026-03-31T16:25:00.16Z</time></trkpt><trkpt lat="41.271775" lon="0.5792283"><ele>108.0</ele><time>2026-03-31T16:25:01.161Z</time></trkpt><trkpt lat="41.271885" lon="0.57942"><ele>108.0</ele><time>2026-03-31T16:25:02.16Z</time></trkpt><trkpt lat="41.2719967" lon="0.57961"><ele>107.0</ele><time>2026-03-31T16:25:03.161Z</time></trkpt><trkpt lat="41.2721117" lon="0.5797933"><ele>106.0</ele><time>2026-03-31T16:25:04.16Z</time></trkpt><trkpt lat="41.2722233" lon="0.579985"><ele>105.0</ele><time>2026-03-31T16:25:05.16Z</time></trkpt><trkpt lat="41.27233" lon="0.58018"><ele>106.33333333333334</ele><time>2026-03-31T16:25:06.16Z</time></trkpt><trkpt lat="41.2724367" lon="0.5803767"><ele>107.66666666666667</ele><time>2026-03-31T16:25:07.16Z</time></trkpt><trkpt lat="41.272545" lon="0.5805617"><ele>109.0</ele><time>2026-03-31T16:25:08.16Z</time></trkpt><trkpt lat="41.2726633" lon="0.5807467"><ele>109.0</ele><time>2026-03-31T16:25:09.16Z</time></trkpt><trkpt lat="41.2727717" lon="0.5809117"><ele>109.0</ele><time>2026-03-31T16:25:10.161Z</time></trkpt><trkpt lat="41.2728683" lon="0.5810767"><ele>109.0</ele><time>2026-03-31T16:25:11.16Z</time></trkpt><trkpt lat="41.2729533" lon="0.5812483"><ele>109.5</ele><time>2026-03-31T16:25:12.16Z</time></trkpt><trkpt lat="41.27303" lon="0.5814033"><ele>110.0</ele><time>2026-03-31T16:25:13.16Z</time></trkpt><trkpt lat="41.2731267" lon="0.5815283"><ele>110.5</ele><time>2026-03-31T16:25:14.16Z</time></trkpt><trkpt lat="41.2732433" lon="0.5816217"><ele>111.0</ele><time>2026-03-31T16:25:15.16Z</time></trkpt><trkpt lat="41.2733917" lon="0.581695"><ele>111.66666666666666</ele><time>2026-03-31T16:25:16.161Z</time></trkpt><trkpt lat="41.2735533" lon="0.5817767"><ele>112.33333333333333</ele><time>2026-03-31T16:25:17.161Z</time></trkpt><trkpt lat="41.273715" lon="0.5818817"><ele>113.0</ele><time>2026-03-31T16:25:18.16Z</time></trkpt><trkpt lat="41.273875" lon="0.582005"><ele>113.0</ele><time>2026-03-31T16:25:19.16Z</time></trkpt><trkpt lat="41.2740317" lon="0.5821483"><ele>113.0</ele><time>2026-03-31T16:25:20.161Z</time></trkpt><trkpt lat="41.274175" lon="0.582295"><ele>113.0</ele><time>2026-03-31T16:25:21.16Z</time></trkpt><trkpt lat="41.2743217" lon="0.5824533"><ele>113.0</ele><time>2026-03-31T16:25:22.161Z</time></trkpt><trkpt lat="41.27446" lon="0.5826133"><ele>113.0</ele><time>2026-03-31T16:25:23.16Z</time></trkpt><trkpt lat="41.2746" lon="0.5827933"><ele>113.0</ele><time>2026-03-31T16:25:24.16Z</time></trkpt><trkpt lat="41.2747383" lon="0.5829767"><ele>113.33333333333333</ele><time>2026-03-31T16:25:25.161Z</time></trkpt><trkpt lat="41.2748617" lon="0.5831467"><ele>113.66666666666666</ele><time>2026-03-31T16:25:26.161Z</time></trkpt><trkpt lat="41.274985" lon="0.5832783"><ele>114.0</ele><time>2026-03-31T16:25:27.16Z</time></trkpt><trkpt lat="41.2751133" lon="0.5833933"><ele>114.0</ele><time>2026-03-31T16:25:28.16Z</time></trkpt><trkpt lat="41.275255" lon="0.5834567"><ele>114.0</ele><time>2026-03-31T16:25:29.161Z</time></trkpt><trkpt lat="41.27541" lon="0.5835183"><ele>114.0</ele><time>2026-03-31T16:25:30.16Z</time></trkpt><trkpt lat="41.2755667" lon="0.583595"><ele>115.0</ele><time>2026-03-31T16:25:31.161Z</time></trkpt><trkpt lat="41.275715" lon="0.5837067"><ele>116.0</ele><time>2026-03-31T16:25:32.16Z</time></trkpt><trkpt lat="41.2758617" lon="0.5838367"><ele>117.0</ele><time>2026-03-31T16:25:33.161Z</time></trkpt><trkpt lat="41.2760117" lon="0.5839867"><ele>117.0</ele><time>2026-03-31T16:25:34.16Z</time></trkpt><trkpt lat="41.2761567" lon="0.58414"><ele>117.0</ele><time>2026-03-31T16:25:35.16Z</time></trkpt><trkpt lat="41.276295" lon="0.5842917"><ele>117.0</ele><time>2026-03-31T16:25:36.161Z</time></trkpt><trkpt lat="41.276425" lon="0.58445"><ele>118.66666666666666</ele><time>2026-03-31T16:25:37.161Z</time></trkpt><trkpt lat="41.2765367" lon="0.5846117"><ele>120.33333333333333</ele><time>2026-03-31T16:25:38.161Z</time></trkpt><trkpt lat="41.2766267" lon="0.5847833"><ele>122.0</ele><time>2026-03-31T16:25:39.161Z</time></trkpt><trkpt lat="41.2767083" lon="0.58494"><ele>122.0</ele><time>2026-03-31T16:25:40.161Z</time></trkpt><trkpt lat="41.276805" lon="0.5850717"><ele>122.0</ele><time>2026-03-31T16:25:41.161Z</time></trkpt><trkpt lat="41.2769233" lon="0.5851733"><ele>122.0</ele><time>2026-03-31T16:25:42.16Z</time></trkpt><trkpt lat="41.27705" lon="0.5852617"><ele>122.0</ele><time>2026-03-31T16:25:43.16Z</time></trkpt><trkpt lat="41.2772" lon="0.585345"><ele>122.0</ele><time>2026-03-31T16:25:44.161Z</time></trkpt><trkpt lat="41.2773483" lon="0.5854317"><ele>122.0</ele><time>2026-03-31T16:25:45.16Z</time></trkpt><trkpt lat="41.2774867" lon="0.58552"><ele>122.0</ele><time>2026-03-31T16:25:46.16Z</time></trkpt><trkpt lat="41.2776133" lon="0.5856317"><ele>122.0</ele><time>2026-03-31T16:25:47.16Z</time></trkpt><trkpt lat="41.2777183" lon="0.585775"><ele>122.0</ele><time>2026-03-31T16:25:48.16Z</time></trkpt><trkpt lat="41.27781" lon="0.5859533"><ele>122.0</ele><time>2026-03-31T16:25:49.161Z</time></trkpt><trkpt lat="41.2778917" lon="0.586145"><ele>120.66666666666666</ele><time>2026-03-31T16:25:50.16Z</time></trkpt><trkpt lat="41.2779783" lon="0.586335"><ele>119.33333333333334</ele><time>2026-03-31T16:25:51.161Z</time></trkpt><trkpt lat="41.2780633" lon="0.5865267"><ele>118.0</ele><time>2026-03-31T16:25:52.16Z</time></trkpt><trkpt lat="41.2781533" lon="0.5867183"><ele>119.66666666666667</ele><time>2026-03-31T16:25:53.161Z</time></trkpt><trkpt lat="41.2782483" lon="0.586905"><ele>121.33333333333334</ele><time>2026-03-31T16:25:54.161Z</time></trkpt><trkpt lat="41.2783383" lon="0.58709"><ele>123.0</ele><time>2026-03-31T16:25:55.16Z</time></trkpt><trkpt lat="41.278435" lon="0.587285"><ele>123.0</ele><time>2026-03-31T16:25:56.16Z</time></trkpt><trkpt lat="41.278535" lon="0.5874783"><ele>123.0</ele><time>2026-03-31T16:25:57.16Z</time></trkpt><trkpt lat="41.27863" lon="0.587675"><ele>123.0</ele><time>2026-03-31T16:25:58.161Z</time></trkpt><trkpt lat="41.2787267" lon="0.5878717"><ele>122.75</ele><time>2026-03-31T16:25:59.161Z</time></trkpt><trkpt lat="41.2788167" lon="0.58805"><ele>122.5</ele><time>2026-03-31T16:26:00.16Z</time></trkpt><trkpt lat="41.2789017" lon="0.5882067"><ele>122.25</ele><time>2026-03-31T16:26:01.161Z</time></trkpt><trkpt lat="41.27897" lon="0.58835"><ele>122.0</ele><time>2026-03-31T16:26:02.161Z</time></trkpt><trkpt lat="41.2790733" lon="0.5884917"><ele>121.66666666666666</ele><time>2026-03-31T16:26:03.16Z</time></trkpt><trkpt lat="41.2791917" lon="0.5886017"><ele>121.33333333333334</ele><time>2026-03-31T16:26:04.161Z</time></trkpt><trkpt lat="41.2793267" lon="0.58869"><ele>121.0</ele><time>2026-03-31T16:26:05.16Z</time></trkpt><trkpt lat="41.27948" lon="0.5887667"><ele>121.0</ele><time>2026-03-31T16:26:06.161Z</time></trkpt><trkpt lat="41.2796283" lon="0.5888583"><ele>121.0</ele><time>2026-03-31T16:26:07.16Z</time></trkpt><trkpt lat="41.27978" lon="0.588955"><ele>121.0</ele><time>2026-03-31T16:26:08.16Z</time></trkpt><trkpt lat="41.2799333" lon="0.5890467"><ele>122.33333333333334</ele><time>2026-03-31T16:26:09.161Z</time></trkpt><trkpt lat="41.2800817" lon="0.58914"><ele>123.66666666666666</ele><time>2026-03-31T16:26:10.16Z</time></trkpt><trkpt lat="41.28023" lon="0.589215"><ele>125.0</ele><time>2026-03-31T16:26:11.16Z</time></trkpt><trkpt lat="41.2803867" lon="0.58925"><ele>125.0</ele><time>2026-03-31T16:26:12.16Z</time></trkpt><trkpt lat="41.2805583" lon="0.5892617"><ele>125.0</ele><time>2026-03-31T16:26:13.161Z</time></trkpt><trkpt lat="41.2807267" lon="0.5892683"><ele>125.0</ele><time>2026-03-31T16:26:14.161Z</time></trkpt><trkpt lat="41.2808933" lon="0.5892733"><ele>127.66666666666666</ele><time>2026-03-31T16:26:15.161Z</time></trkpt><trkpt lat="41.2810717" lon="0.5892883"><ele>130.33333333333334</ele><time>2026-03-31T16:26:16.161Z</time></trkpt><trkpt lat="41.2812383" lon="0.5893017"><ele>133.0</ele><time>2026-03-31T16:26:17.161Z</time></trkpt><trkpt lat="41.2814067" lon="0.5893217"><ele>133.66666666666669</ele><time>2026-03-31T16:26:18.161Z</time></trkpt><trkpt lat="41.2815867" lon="0.5893333"><ele>134.33333333333334</ele><time>2026-03-31T16:26:19.161Z</time></trkpt><trkpt lat="41.2817683" lon="0.5893533"><ele>135.0</ele><time>2026-03-31T16:26:20.161Z</time></trkpt><trkpt lat="41.2819633" lon="0.5893717"><ele>135.0</ele><time>2026-03-31T16:26:21.16Z</time></trkpt><trkpt lat="41.2821517" lon="0.5893883"><ele>135.0</ele><time>2026-03-31T16:26:22.16Z</time></trkpt><trkpt lat="41.2823367" lon="0.5894167"><ele>135.0</ele><time>2026-03-31T16:26:23.16Z</time></trkpt><trkpt lat="41.2825317" lon="0.5894383"><ele>136.0</ele><time>2026-03-31T16:26:24.16Z</time></trkpt><trkpt lat="41.28272" lon="0.5894617"><ele>137.0</ele><time>2026-03-31T16:26:25.161Z</time></trkpt><trkpt lat="41.282915" lon="0.5894833"><ele>138.0</ele><time>2026-03-31T16:26:26.161Z</time></trkpt><trkpt lat="41.28309" lon="0.5895167"><ele>135.33333333333334</ele><time>2026-03-31T16:26:27.161Z</time></trkpt><trkpt lat="41.28327" lon="0.5895633"><ele>132.66666666666669</ele><time>2026-03-31T16:26:28.16Z</time></trkpt><trkpt lat="41.2834367" lon="0.5896283"><ele>130.0</ele><time>2026-03-31T16:26:29.161Z</time></trkpt><trkpt lat="41.2836083" lon="0.5897133"><ele>130.0</ele><time>2026-03-31T16:26:30.161Z</time></trkpt><trkpt lat="41.2837767" lon="0.5898167"><ele>130.0</ele><time>2026-03-31T16:26:31.16Z</time></trkpt><trkpt lat="41.2839367" lon="0.5899267"><ele>130.0</ele><time>2026-03-31T16:26:32.16Z</time></trkpt><trkpt lat="41.2840817" lon="0.5900467"><ele>129.66666666666669</ele><time>2026-03-31T16:26:33.161Z</time></trkpt><trkpt lat="41.2842133" lon="0.59018"><ele>129.33333333333334</ele><time>2026-03-31T16:26:34.16Z</time></trkpt><trkpt lat="41.2843383" lon="0.59034"><ele>129.0</ele><time>2026-03-31T16:26:35.161Z</time></trkpt><trkpt lat="41.2844383" lon="0.5905217"><ele>129.0</ele><time>2026-03-31T16:26:36.161Z</time></trkpt><trkpt lat="41.2845333" lon="0.590735"><ele>129.0</ele><time>2026-03-31T16:26:37.16Z</time></trkpt><trkpt lat="41.2846317" lon="0.5909483"><ele>129.0</ele><time>2026-03-31T16:26:38.16Z</time></trkpt><trkpt lat="41.2847283" lon="0.59116"><ele>132.33333333333334</ele><time>2026-03-31T16:26:39.161Z</time></trkpt><trkpt lat="41.284835" lon="0.5913533"><ele>135.66666666666669</ele><time>2026-03-31T16:26:40.161Z</time></trkpt><trkpt lat="41.2849333" lon="0.59154"><ele>139.0</ele><time>2026-03-31T16:26:41.16Z</time></trkpt><trkpt lat="41.2850317" lon="0.5917283"><ele>139.0</ele><time>2026-03-31T16:26:42.16Z</time></trkpt><trkpt lat="41.285115" lon="0.5919333"><ele>139.0</ele><time>2026-03-31T16:26:43.161Z</time></trkpt><trkpt lat="41.2851833" lon="0.592155"><ele>139.0</ele><time>2026-03-31T16:26:44.161Z</time></trkpt><trkpt lat="41.285235" lon="0.59239"><ele>138.0</ele><time>2026-03-31T16:26:45.16Z</time></trkpt><trkpt lat="41.2852833" lon="0.5926367"><ele>137.0</ele><time>2026-03-31T16:26:46.16Z</time></trkpt><trkpt lat="41.2853267" lon="0.5928767"><ele>136.0</ele><time>2026-03-31T16:26:47.16Z</time></trkpt><trkpt lat="41.2853867" lon="0.593115"><ele>135.66666666666669</ele><time>2026-03-31T16:26:48.16Z</time></trkpt><trkpt lat="41.2854467" lon="0.5933683"><ele>135.33333333333334</ele><time>2026-03-31T16:26:49.161Z</time></trkpt><trkpt lat="41.28551" lon="0.5936083"><ele>135.0</ele><time>2026-03-31T16:26:50.16Z</time></trkpt><trkpt lat="41.28557" lon="0.5938433"><ele>140.66666666666666</ele><time>2026-03-31T16:26:51.161Z</time></trkpt><trkpt lat="41.2856217" lon="0.5940917"><ele>146.33333333333331</ele><time>2026-03-31T16:26:52.16Z</time></trkpt><trkpt lat="41.2856667" lon="0.59434"><ele>152.0</ele><time>2026-03-31T16:26:53.161Z</time></trkpt><trkpt lat="41.285705" lon="0.5945717"><ele>152.0</ele><time>2026-03-31T16:26:54.161Z</time></trkpt><trkpt lat="41.2857483" lon="0.5948033"><ele>152.0</ele><time>2026-03-31T16:26:55.161Z</time></trkpt><trkpt lat="41.285795" lon="0.5950183"><ele>152.0</ele><time>2026-03-31T16:26:56.16Z</time></trkpt><trkpt lat="41.285815" lon="0.59525"><ele>150.0</ele><time>2026-03-31T16:26:57.16Z</time></trkpt><trkpt lat="41.2858183" lon="0.59549"><ele>148.0</ele><time>2026-03-31T16:26:58.16Z</time></trkpt><trkpt lat="41.2857683" lon="0.5957183"><ele>146.0</ele><time>2026-03-31T16:26:59.16Z</time></trkpt><trkpt lat="41.2857067" lon="0.5959317"><ele>146.0</ele><time>2026-03-31T16:27:00.16Z</time></trkpt><trkpt lat="41.2856383" lon="0.5961233"><ele>146.0</ele><time>2026-03-31T16:27:01.161Z</time></trkpt><trkpt lat="41.285595" lon="0.5962783"><ele>146.0</ele><time>2026-03-31T16:27:02.16Z</time></trkpt><trkpt lat="41.2855833" lon="0.5964133"><ele>146.0</ele><time>2026-03-31T16:27:03.16Z</time></trkpt><trkpt lat="41.2856217" lon="0.5965483"><ele>145.25</ele><time>2026-03-31T16:27:04.161Z</time></trkpt><trkpt lat="41.285685" lon="0.596655"><ele>144.5</ele><time>2026-03-31T16:27:05.161Z</time></trkpt><trkpt lat="41.2857833" lon="0.596725"><ele>143.75</ele><time>2026-03-31T16:27:06.16Z</time></trkpt><trkpt lat="41.2859117" lon="0.5967367"><ele>143.0</ele><time>2026-03-31T16:27:07.161Z</time></trkpt><trkpt lat="41.2860367" lon="0.5967033"><ele>143.0</ele><time>2026-03-31T16:27:08.161Z</time></trkpt><trkpt lat="41.28615" lon="0.5966083"><ele>143.0</ele><time>2026-03-31T16:27:09.16Z</time></trkpt><trkpt lat="41.286255" lon="0.59648"><ele>143.0</ele><time>2026-03-31T16:27:10.16Z</time></trkpt><trkpt lat="41.2863483" lon="0.5962967"><ele>143.0</ele><time>2026-03-31T16:27:11.161Z</time></trkpt><trkpt lat="41.286445" lon="0.5961283"><ele>144.33333333333331</ele><time>2026-03-31T16:27:12.16Z</time></trkpt><trkpt lat="41.2865317" lon="0.59597"><ele>145.66666666666666</ele><time>2026-03-31T16:27:13.16Z</time></trkpt><trkpt lat="41.2866117" lon="0.5957867"><ele>147.0</ele><time>2026-03-31T16:27:14.16Z</time></trkpt><trkpt lat="41.28669" lon="0.595605"><ele>147.0</ele><time>2026-03-31T16:27:15.16Z</time></trkpt><trkpt lat="41.2867883" lon="0.5954367"><ele>147.0</ele><time>2026-03-31T16:27:16.16Z</time></trkpt><trkpt lat="41.2869133" lon="0.5953033"><ele>147.0</ele><time>2026-03-31T16:27:17.16Z</time></trkpt><trkpt lat="41.28706" lon="0.59521"><ele>149.33333333333334</ele><time>2026-03-31T16:27:18.161Z</time></trkpt><trkpt lat="41.2872217" lon="0.5951617"><ele>151.66666666666669</ele><time>2026-03-31T16:27:19.16Z</time></trkpt><trkpt lat="41.2873883" lon="0.595135"><ele>154.0</ele><time>2026-03-31T16:27:20.16Z</time></trkpt><trkpt lat="41.28756" lon="0.5951117"><ele>154.0</ele><time>2026-03-31T16:27:21.161Z</time></trkpt><trkpt lat="41.2877317" lon="0.5950867"><ele>154.0</ele><time>2026-03-31T16:27:22.16Z</time></trkpt><trkpt lat="41.28791" lon="0.5950617"><ele>154.0</ele><time>2026-03-31T16:27:23.16Z</time></trkpt><trkpt lat="41.2881033" lon="0.59503"><ele>153.33333333333334</ele><time>2026-03-31T16:27:24.161Z</time></trkpt><trkpt lat="41.2882967" lon="0.5949967"><ele>152.66666666666666</ele><time>2026-03-31T16:27:25.161Z</time></trkpt><trkpt lat="41.288485" lon="0.594965"><ele>152.0</ele><time>2026-03-31T16:27:26.16Z</time></trkpt><trkpt lat="41.2886717" lon="0.5949317"><ele>152.0</ele><time>2026-03-31T16:27:27.161Z</time></trkpt><trkpt lat="41.28886" lon="0.594895"><ele>152.0</ele><time>2026-03-31T16:27:28.16Z</time></trkpt><trkpt lat="41.2890483" lon="0.5948633"><ele>152.0</ele><time>2026-03-31T16:27:29.16Z</time></trkpt><trkpt lat="41.2892267" lon="0.594855"><ele>152.0</ele><time>2026-03-31T16:27:30.16Z</time></trkpt><trkpt lat="41.2894017" lon="0.594855"><ele>152.0</ele><time>2026-03-31T16:27:31.16Z</time></trkpt><trkpt lat="41.2895767" lon="0.5948983"><ele>152.0</ele><time>2026-03-31T16:27:32.161Z</time></trkpt><trkpt lat="41.2897483" lon="0.5949567"><ele>153.0</ele><time>2026-03-31T16:27:33.161Z</time></trkpt><trkpt lat="41.2899133" lon="0.5950417"><ele>154.0</ele><time>2026-03-31T16:27:34.16Z</time></trkpt><trkpt lat="41.2900883" lon="0.5951333"><ele>155.0</ele><time>2026-03-31T16:27:35.161Z</time></trkpt><trkpt lat="41.2902717" lon="0.595205"><ele>155.0</ele><time>2026-03-31T16:27:36.16Z</time></trkpt><trkpt lat="41.290455" lon="0.5952833"><ele>155.0</ele><time>2026-03-31T16:27:37.161Z</time></trkpt><trkpt lat="41.2906483" lon="0.595365"><ele>155.0</ele><time>2026-03-31T16:27:38.161Z</time></trkpt><trkpt lat="41.2908383" lon="0.5954483"><ele>153.66666666666666</ele><time>2026-03-31T16:27:39.16Z</time></trkpt><trkpt lat="41.2910283" lon="0.5955383"><ele>152.33333333333334</ele><time>2026-03-31T16:27:40.16Z</time></trkpt><trkpt lat="41.2912" lon="0.595625"><ele>151.0</ele><time>2026-03-31T16:27:41.161Z</time></trkpt><trkpt lat="41.2913567" lon="0.5957033"><ele>152.25</ele><time>2026-03-31T16:27:42.16Z</time></trkpt><trkpt lat="41.2914933" lon="0.5957617"><ele>153.5</ele><time>2026-03-31T16:27:43.161Z</time></trkpt><trkpt lat="41.2916333" lon="0.5957817"><ele>154.75</ele><time>2026-03-31T16:27:44.16Z</time></trkpt><trkpt lat="41.2917767" lon="0.59579"><ele>156.0</ele><time>2026-03-31T16:27:45.161Z</time></trkpt><trkpt lat="41.29193" lon="0.5957917"><ele>156.0</ele><time>2026-03-31T16:27:46.161Z</time></trkpt><trkpt lat="41.292095" lon="0.5957983"><ele>156.0</ele><time>2026-03-31T16:27:47.16Z</time></trkpt><trkpt lat="41.2922683" lon="0.595815"><ele>156.0</ele><time>2026-03-31T16:27:48.16Z</time></trkpt><trkpt lat="41.2924467" lon="0.5958333"><ele>158.0</ele><time>2026-03-31T16:27:49.161Z</time></trkpt><trkpt lat="41.292625" lon="0.595865"><ele>160.0</ele><time>2026-03-31T16:27:50.16Z</time></trkpt><trkpt lat="41.2928067" lon="0.59591"><ele>162.0</ele><time>2026-03-31T16:27:51.161Z</time></trkpt><trkpt lat="41.29298" lon="0.5959817"><ele>162.66666666666666</ele><time>2026-03-31T16:27:52.161Z</time></trkpt><trkpt lat="41.2931417" lon="0.59607"><ele>163.33333333333331</ele><time>2026-03-31T16:27:53.161Z</time></trkpt><trkpt lat="41.2932783" lon="0.59618"><ele>164.0</ele><time>2026-03-31T16:27:54.16Z</time></trkpt><trkpt lat="41.2934" lon="0.596315"><ele>160.33333333333331</ele><time>2026-03-31T16:27:55.16Z</time></trkpt><trkpt lat="41.2935067" lon="0.5964867"><ele>156.66666666666666</ele><time>2026-03-31T16:27:56.16Z</time></trkpt><trkpt lat="41.2936017" lon="0.5966817"><ele>153.0</ele><time>2026-03-31T16:27:57.16Z</time></trkpt><trkpt lat="41.2937" lon="0.5968783"><ele>152.66666666666666</ele><time>2026-03-31T16:27:58.161Z</time></trkpt><trkpt lat="41.29381" lon="0.59709"><ele>152.33333333333331</ele><time>2026-03-31T16:27:59.161Z</time></trkpt><trkpt lat="41.2939183" lon="0.5972933"><ele>152.0</ele><time>2026-03-31T16:28:00.16Z</time></trkpt><trkpt lat="41.29403" lon="0.59749"><ele>152.66666666666666</ele><time>2026-03-31T16:28:01.16Z</time></trkpt><trkpt lat="41.2941383" lon="0.59767"><ele>153.33333333333334</ele><time>2026-03-31T16:28:02.161Z</time></trkpt><trkpt lat="41.2942483" lon="0.59786"><ele>154.0</ele><time>2026-03-31T16:28:03.161Z</time></trkpt><trkpt lat="41.2943383" lon="0.598065"><ele>154.0</ele><time>2026-03-31T16:28:04.16Z</time></trkpt><trkpt lat="41.29439" lon="0.5982833"><ele>154.0</ele><time>2026-03-31T16:28:05.16Z</time></trkpt><trkpt lat="41.29441" lon="0.59853"><ele>154.0</ele><time>2026-03-31T16:28:06.16Z</time></trkpt><trkpt lat="41.2944217" lon="0.5987733"><ele>154.0</ele><time>2026-03-31T16:28:07.161Z</time></trkpt><trkpt lat="41.2944333" lon="0.59903"><ele>154.0</ele><time>2026-03-31T16:28:08.16Z</time></trkpt><trkpt lat="41.2944367" lon="0.5992883"><ele>154.0</ele><time>2026-03-31T16:28:09.16Z</time></trkpt><trkpt lat="41.294445" lon="0.5995583"><ele>154.33333333333334</ele><time>2026-03-31T16:28:10.16Z</time></trkpt><trkpt lat="41.29445" lon="0.5998383"><ele>154.66666666666666</ele><time>2026-03-31T16:28:11.161Z</time></trkpt><trkpt lat="41.2944617" lon="0.600115"><ele>155.0</ele><time>2026-03-31T16:28:12.161Z</time></trkpt><trkpt lat="41.2944733" lon="0.60039"><ele>155.33333333333331</ele><time>2026-03-31T16:28:13.161Z</time></trkpt><trkpt lat="41.294485" lon="0.6006567"><ele>155.66666666666666</ele><time>2026-03-31T16:28:14.16Z</time></trkpt><trkpt lat="41.2944833" lon="0.60093"><ele>156.0</ele><time>2026-03-31T16:28:15.16Z</time></trkpt><trkpt lat="41.2944683" lon="0.6012"><ele>156.66666666666666</ele><time>2026-03-31T16:28:16.161Z</time></trkpt><trkpt lat="41.2944433" lon="0.6014633"><ele>157.33333333333331</ele><time>2026-03-31T16:28:17.16Z</time></trkpt><trkpt lat="41.2944117" lon="0.6017367"><ele>158.0</ele><time>2026-03-31T16:28:18.16Z</time></trkpt><trkpt lat="41.2943733" lon="0.6020117"><ele>158.66666666666666</ele><time>2026-03-31T16:28:19.16Z</time></trkpt><trkpt lat="41.2943133" lon="0.6022667"><ele>159.33333333333334</ele><time>2026-03-31T16:28:20.161Z</time></trkpt><trkpt lat="41.2942467" lon="0.6025217"><ele>160.0</ele><time>2026-03-31T16:28:21.161Z</time></trkpt><trkpt lat="41.2941783" lon="0.6027717"><ele>161.66666666666669</ele><time>2026-03-31T16:28:22.16Z</time></trkpt><trkpt lat="41.2941183" lon="0.6030167"><ele>163.33333333333334</ele><time>2026-03-31T16:28:23.16Z</time></trkpt><trkpt lat="41.2940583" lon="0.603265"><ele>165.0</ele><time>2026-03-31T16:28:24.161Z</time></trkpt><trkpt lat="41.2940083" lon="0.6035017"><ele>166.0</ele><time>2026-03-31T16:28:25.16Z</time></trkpt><trkpt lat="41.2939617" lon="0.6037267"><ele>167.0</ele><time>2026-03-31T16:28:26.16Z</time></trkpt><trkpt lat="41.2939217" lon="0.6039217"><ele>168.0</ele><time>2026-03-31T16:28:27.16Z</time></trkpt><trkpt lat="41.2939017" lon="0.6041017"><ele>168.0</ele><time>2026-03-31T16:28:28.16Z</time></trkpt><trkpt lat="41.293905" lon="0.60426"><ele>168.0</ele><time>2026-03-31T16:28:29.16Z</time></trkpt><trkpt lat="41.293935" lon="0.604425"><ele>168.0</ele><time>2026-03-31T16:28:30.16Z</time></trkpt><trkpt lat="41.2939883" lon="0.604605"><ele>168.0</ele><time>2026-03-31T16:28:31.16Z</time></trkpt><trkpt lat="41.2940583" lon="0.6047683"><ele>167.75</ele><time>2026-03-31T16:28:32.16Z</time></trkpt><trkpt lat="41.2941333" lon="0.604925"><ele>167.5</ele><time>2026-03-31T16:28:33.16Z</time></trkpt><trkpt lat="41.294215" lon="0.6050917"><ele>167.25</ele><time>2026-03-31T16:28:34.16Z</time></trkpt><trkpt lat="41.2943" lon="0.6052617"><ele>167.0</ele><time>2026-03-31T16:28:35.16Z</time></trkpt><trkpt lat="41.2944" lon="0.6054317"><ele>166.66666666666666</ele><time>2026-03-31T16:28:36.16Z</time></trkpt><trkpt lat="41.2944917" lon="0.6056"><ele>166.33333333333334</ele><time>2026-03-31T16:28:37.161Z</time></trkpt><trkpt lat="41.2945933" lon="0.605755"><ele>166.0</ele><time>2026-03-31T16:28:38.161Z</time></trkpt><trkpt lat="41.2947017" lon="0.6059033"><ele>167.0</ele><time>2026-03-31T16:28:39.16Z</time></trkpt><trkpt lat="41.2948317" lon="0.606025"><ele>168.0</ele><time>2026-03-31T16:28:40.161Z</time></trkpt><trkpt lat="41.2949783" lon="0.6061183"><ele>169.0</ele><time>2026-03-31T16:28:41.161Z</time></trkpt><trkpt lat="41.2951383" lon="0.6061983"><ele>169.0</ele><time>2026-03-31T16:28:42.16Z</time></trkpt><trkpt lat="41.2952917" lon="0.6062883"><ele>169.0</ele><time>2026-03-31T16:28:43.161Z</time></trkpt><trkpt lat="41.2954267" lon="0.6063783"><ele>169.0</ele><time>2026-03-31T16:28:44.161Z</time></trkpt><trkpt lat="41.295565" lon="0.6064433"><ele>169.75</ele><time>2026-03-31T16:28:45.16Z</time></trkpt><trkpt lat="41.2956983" lon="0.6064667"><ele>170.5</ele><time>2026-03-31T16:28:46.16Z</time></trkpt><trkpt lat="41.29585" lon="0.606455"><ele>171.25</ele><time>2026-03-31T16:28:47.161Z</time></trkpt><trkpt lat="41.2960017" lon="0.6064133"><ele>172.0</ele><time>2026-03-31T16:28:48.161Z</time></trkpt><trkpt lat="41.2961617" lon="0.6063517"><ele>172.0</ele><time>2026-03-31T16:28:49.161Z</time></trkpt><trkpt lat="41.2963233" lon="0.6063117"><ele>172.0</ele><time>2026-03-31T16:28:50.161Z</time></trkpt><trkpt lat="41.296495" lon="0.6062583"><ele>172.0</ele><time>2026-03-31T16:28:51.16Z</time></trkpt><trkpt lat="41.2966867" lon="0.60618"><ele>173.33333333333334</ele><time>2026-03-31T16:28:52.161Z</time></trkpt><trkpt lat="41.2968667" lon="0.6061467"><ele>174.66666666666666</ele><time>2026-03-31T16:28:53.16Z</time></trkpt><trkpt lat="41.29705" lon="0.6061083"><ele>176.0</ele><time>2026-03-31T16:28:54.161Z</time></trkpt><trkpt lat="41.297225" lon="0.60607"><ele>176.66666666666666</ele><time>2026-03-31T16:28:55.161Z</time></trkpt><trkpt lat="41.2974117" lon="0.6060233"><ele>177.33333333333334</ele><time>2026-03-31T16:28:56.161Z</time></trkpt><trkpt lat="41.2976017" lon="0.6059917"><ele>178.0</ele><time>2026-03-31T16:28:57.161Z</time></trkpt><trkpt lat="41.2978017" lon="0.6059933"><ele>178.0</ele><time>2026-03-31T16:28:58.16Z</time></trkpt><trkpt lat="41.2980067" lon="0.606015"><ele>178.0</ele><time>2026-03-31T16:28:59.16Z</time></trkpt><trkpt lat="41.2982133" lon="0.6060517"><ele>178.0</ele><time>2026-03-31T16:29:00.16Z</time></trkpt><trkpt lat="41.29842" lon="0.6061"><ele>179.0</ele><time>2026-03-31T16:29:01.16Z</time></trkpt><trkpt lat="41.29861" lon="0.6061883"><ele>180.0</ele><time>2026-03-31T16:29:02.16Z</time></trkpt><trkpt lat="41.29879" lon="0.6063033"><ele>181.0</ele><time>2026-03-31T16:29:03.16Z</time></trkpt><trkpt lat="41.29896" lon="0.6064383"><ele>181.0</ele><time>2026-03-31T16:29:04.16Z</time></trkpt><trkpt lat="41.2991283" lon="0.606595"><ele>181.0</ele><time>2026-03-31T16:29:05.16Z</time></trkpt><trkpt lat="41.29928" lon="0.6067617"><ele>181.0</ele><time>2026-03-31T16:29:06.161Z</time></trkpt><trkpt lat="41.2994383" lon="0.6069383"><ele>181.33333333333334</ele><time>2026-03-31T16:29:07.16Z</time></trkpt><trkpt lat="41.2995967" lon="0.6070983"><ele>181.66666666666666</ele><time>2026-03-31T16:29:08.16Z</time></trkpt><trkpt lat="41.2997367" lon="0.6072667"><ele>182.0</ele><time>2026-03-31T16:29:09.161Z</time></trkpt><trkpt lat="41.2998617" lon="0.6074267"><ele>182.0</ele><time>2026-03-31T16:29:10.16Z</time></trkpt><trkpt lat="41.2999817" lon="0.607575"><ele>182.0</ele><time>2026-03-31T16:29:11.161Z</time></trkpt><trkpt lat="41.3000867" lon="0.6076917"><ele>182.0</ele><time>2026-03-31T16:29:12.16Z</time></trkpt><trkpt lat="41.3002033" lon="0.6077917"><ele>182.0</ele><time>2026-03-31T16:29:13.161Z</time></trkpt><trkpt lat="41.30033" lon="0.6078683"><ele>181.75</ele><time>2026-03-31T16:29:14.16Z</time></trkpt><trkpt lat="41.3004667" lon="0.6079183"><ele>181.5</ele><time>2026-03-31T16:29:15.16Z</time></trkpt><trkpt lat="41.3006133" lon="0.607945"><ele>181.25</ele><time>2026-03-31T16:29:16.16Z</time></trkpt><trkpt lat="41.30077" lon="0.6079617"><ele>181.0</ele><time>2026-03-31T16:29:17.16Z</time></trkpt><trkpt lat="41.3009233" lon="0.608005"><ele>180.33333333333334</ele><time>2026-03-31T16:29:18.161Z</time></trkpt><trkpt lat="41.301085" lon="0.60808"><ele>179.66666666666666</ele><time>2026-03-31T16:29:19.16Z</time></trkpt><trkpt lat="41.3012467" lon="0.60817"><ele>179.0</ele><time>2026-03-31T16:29:20.161Z</time></trkpt><trkpt lat="41.3014133" lon="0.608265"><ele>182.0</ele><time>2026-03-31T16:29:21.16Z</time></trkpt><trkpt lat="41.3015717" lon="0.6083683"><ele>185.0</ele><time>2026-03-31T16:29:22.161Z</time></trkpt><trkpt lat="41.3017133" lon="0.60848"><ele>188.0</ele><time>2026-03-31T16:29:23.16Z</time></trkpt><trkpt lat="41.3018317" lon="0.6086183"><ele>185.0</ele><time>2026-03-31T16:29:24.16Z</time></trkpt><trkpt lat="41.301935" lon="0.6087833"><ele>182.0</ele><time>2026-03-31T16:29:25.16Z</time></trkpt><trkpt lat="41.3020083" lon="0.6089683"><ele>179.0</ele><time>2026-03-31T16:29:26.161Z</time></trkpt><trkpt lat="41.3020817" lon="0.6091417"><ele>179.0</ele><time>2026-03-31T16:29:27.16Z</time></trkpt><trkpt lat="41.3021683" lon="0.609305"><ele>179.0</ele><time>2026-03-31T16:29:28.16Z</time></trkpt><trkpt lat="41.302275" lon="0.60946"><ele>179.0</ele><time>2026-03-31T16:29:29.161Z</time></trkpt><trkpt lat="41.3023833" lon="0.6096183"><ele>180.25</ele><time>2026-03-31T16:29:30.161Z</time></trkpt><trkpt lat="41.30248" lon="0.609755"><ele>181.5</ele><time>2026-03-31T16:29:31.161Z</time></trkpt><trkpt lat="41.3025783" lon="0.60988"><ele>182.75</ele><time>2026-03-31T16:29:32.161Z</time></trkpt><trkpt lat="41.3027083" lon="0.609975"><ele>184.0</ele><time>2026-03-31T16:29:33.161Z</time></trkpt><trkpt lat="41.3028483" lon="0.6100233"><ele>184.0</ele><time>2026-03-31T16:29:34.161Z</time></trkpt><trkpt lat="41.3029867" lon="0.6100167"><ele>184.0</ele><time>2026-03-31T16:29:35.16Z</time></trkpt><trkpt lat="41.30314" lon="0.609965"><ele>184.0</ele><time>2026-03-31T16:29:36.16Z</time></trkpt><trkpt lat="41.3032983" lon="0.60986"><ele>184.66666666666669</ele><time>2026-03-31T16:29:37.16Z</time></trkpt><trkpt lat="41.3034633" lon="0.6097517"><ele>185.33333333333334</ele><time>2026-03-31T16:29:38.161Z</time></trkpt><trkpt lat="41.3036267" lon="0.6096617"><ele>186.0</ele><time>2026-03-31T16:29:39.16Z</time></trkpt><trkpt lat="41.30379" lon="0.6095717"><ele>188.33333333333331</ele><time>2026-03-31T16:29:40.161Z</time></trkpt><trkpt lat="41.30396" lon="0.60949"><ele>190.66666666666666</ele><time>2026-03-31T16:29:41.16Z</time></trkpt><trkpt lat="41.304145" lon="0.609425"><ele>193.0</ele><time>2026-03-31T16:29:42.16Z</time></trkpt><trkpt lat="41.3043333" lon="0.609365"><ele>193.0</ele><time>2026-03-31T16:29:43.16Z</time></trkpt><trkpt lat="41.3045133" lon="0.6093217"><ele>193.0</ele><time>2026-03-31T16:29:44.161Z</time></trkpt><trkpt lat="41.304695" lon="0.609295"><ele>193.0</ele><time>2026-03-31T16:29:45.16Z</time></trkpt><trkpt lat="41.3048967" lon="0.609305"><ele>193.33333333333331</ele><time>2026-03-31T16:29:46.161Z</time></trkpt><trkpt lat="41.3050917" lon="0.6093117"><ele>193.66666666666669</ele><time>2026-03-31T16:29:47.161Z</time></trkpt><trkpt lat="41.30528" lon="0.6093067"><ele>194.0</ele><time>2026-03-31T16:29:48.161Z</time></trkpt><trkpt lat="41.30547" lon="0.6093017"><ele>194.0</ele><time>2026-03-31T16:29:49.161Z</time></trkpt><trkpt lat="41.3056533" lon="0.6092833"><ele>194.0</ele><time>2026-03-31T16:29:50.161Z</time></trkpt><trkpt lat="41.30583" lon="0.609245"><ele>194.0</ele><time>2026-03-31T16:29:51.16Z</time></trkpt><trkpt lat="41.306005" lon="0.6091933"><ele>194.0</ele><time>2026-03-31T16:29:52.16Z</time></trkpt><trkpt lat="41.3061717" lon="0.609145"><ele>194.0</ele><time>2026-03-31T16:29:53.16Z</time></trkpt><trkpt lat="41.306345" lon="0.6091267"><ele>194.0</ele><time>2026-03-31T16:29:54.16Z</time></trkpt><trkpt lat="41.30652" lon="0.6091367"><ele>194.33333333333334</ele><time>2026-03-31T16:29:55.16Z</time></trkpt><trkpt lat="41.306705" lon="0.609185"><ele>194.66666666666669</ele><time>2026-03-31T16:29:56.16Z</time></trkpt><trkpt lat="41.3068967" lon="0.6092417"><ele>195.0</ele><time>2026-03-31T16:29:57.16Z</time></trkpt><trkpt lat="41.307095" lon="0.609275"><ele>196.66666666666669</ele><time>2026-03-31T16:29:58.16Z</time></trkpt><trkpt lat="41.307285" lon="0.609295"><ele>198.33333333333334</ele><time>2026-03-31T16:29:59.161Z</time></trkpt><trkpt lat="41.3074667" lon="0.6093067"><ele>200.0</ele><time>2026-03-31T16:30:00.16Z</time></trkpt><trkpt lat="41.307635" lon="0.6093217"><ele>200.0</ele><time>2026-03-31T16:30:01.161Z</time></trkpt><trkpt lat="41.30781" lon="0.6093683"><ele>200.0</ele><time>2026-03-31T16:30:02.161Z</time></trkpt><trkpt lat="41.3079733" lon="0.609445"><ele>200.0</ele><time>2026-03-31T16:30:03.161Z</time></trkpt><trkpt lat="41.3081267" lon="0.609565"><ele>199.0</ele><time>2026-03-31T16:30:04.161Z</time></trkpt><trkpt lat="41.3082967" lon="0.6096867"><ele>198.0</ele><time>2026-03-31T16:30:05.161Z</time></trkpt><trkpt lat="41.3084633" lon="0.609755"><ele>197.0</ele><time>2026-03-31T16:30:06.161Z</time></trkpt><trkpt lat="41.3086267" lon="0.6098017"><ele>197.0</ele><time>2026-03-31T16:30:07.16Z</time></trkpt><trkpt lat="41.3087883" lon="0.6098733"><ele>197.0</ele><time>2026-03-31T16:30:08.161Z</time></trkpt><trkpt lat="41.308935" lon="0.6099617"><ele>197.0</ele><time>2026-03-31T16:30:09.16Z</time></trkpt><trkpt lat="41.3090883" lon="0.610095"><ele>197.66666666666669</ele><time>2026-03-31T16:30:10.16Z</time></trkpt><trkpt lat="41.3092217" lon="0.6102283"><ele>198.33333333333331</ele><time>2026-03-31T16:30:11.16Z</time></trkpt><trkpt lat="41.3093267" lon="0.6103733"><ele>199.0</ele><time>2026-03-31T16:30:12.161Z</time></trkpt><trkpt lat="41.30941" lon="0.6105467"><ele>199.0</ele><time>2026-03-31T16:30:13.161Z</time></trkpt><trkpt lat="41.3094717" lon="0.6107383"><ele>199.0</ele><time>2026-03-31T16:30:14.16Z</time></trkpt><trkpt lat="41.3095183" lon="0.61092"><ele>199.0</ele><time>2026-03-31T16:30:15.16Z</time></trkpt><trkpt lat="41.3095717" lon="0.6110783"><ele>199.0</ele><time>2026-03-31T16:30:16.16Z</time></trkpt><trkpt lat="41.3096533" lon="0.61121"><ele>199.66666666666666</ele><time>2026-03-31T16:30:17.161Z</time></trkpt><trkpt lat="41.3097633" lon="0.6113367"><ele>200.33333333333331</ele><time>2026-03-31T16:30:18.16Z</time></trkpt><trkpt lat="41.3098867" lon="0.6114567"><ele>201.0</ele><time>2026-03-31T16:30:19.16Z</time></trkpt><trkpt lat="41.3100217" lon="0.6115783"><ele>201.0</ele><time>2026-03-31T16:30:20.16Z</time></trkpt><trkpt lat="41.3101483" lon="0.6116983"><ele>201.0</ele><time>2026-03-31T16:30:21.161Z</time></trkpt><trkpt lat="41.3102883" lon="0.61183"><ele>201.0</ele><time>2026-03-31T16:30:22.16Z</time></trkpt><trkpt lat="41.3104133" lon="0.61197"><ele>201.0</ele><time>2026-03-31T16:30:23.16Z</time></trkpt><trkpt lat="41.31053" lon="0.6121017"><ele>201.0</ele><time>2026-03-31T16:30:24.161Z</time></trkpt><trkpt lat="41.3106467" lon="0.6122217"><ele>201.0</ele><time>2026-03-31T16:30:25.161Z</time></trkpt><trkpt lat="41.3107883" lon="0.6123133"><ele>202.0</ele><time>2026-03-31T16:30:26.16Z</time></trkpt><trkpt lat="41.3109333" lon="0.612385"><ele>203.0</ele><time>2026-03-31T16:30:27.16Z</time></trkpt><trkpt lat="41.3110833" lon="0.61245"><ele>204.0</ele><time>2026-03-31T16:30:28.161Z</time></trkpt><trkpt lat="41.3112433" lon="0.6124933"><ele>204.0</ele><time>2026-03-31T16:30:29.16Z</time></trkpt><trkpt lat="41.3113767" lon="0.612505"><ele>204.0</ele><time>2026-03-31T16:30:30.16Z</time></trkpt><trkpt lat="41.311525" lon="0.6124867"><ele>204.0</ele><time>2026-03-31T16:30:31.16Z</time></trkpt><trkpt lat="41.31168" lon="0.6124183"><ele>204.0</ele><time>2026-03-31T16:30:32.16Z</time></trkpt><trkpt lat="41.3118317" lon="0.61233"><ele>205.66666666666669</ele><time>2026-03-31T16:30:33.16Z</time></trkpt><trkpt lat="41.311985" lon="0.61225"><ele>207.33333333333334</ele><time>2026-03-31T16:30:34.16Z</time></trkpt><trkpt lat="41.31215" lon="0.6122133"><ele>209.0</ele><time>2026-03-31T16:30:35.16Z</time></trkpt><trkpt lat="41.312315" lon="0.6122267"><ele>209.66666666666669</ele><time>2026-03-31T16:30:36.161Z</time></trkpt><trkpt lat="41.3124717" lon="0.6122833"><ele>210.33333333333331</ele><time>2026-03-31T16:30:37.161Z</time></trkpt><trkpt lat="41.3126283" lon="0.612365"><ele>211.0</ele><time>2026-03-31T16:30:38.16Z</time></trkpt><trkpt lat="41.3127767" lon="0.61247"><ele>211.0</ele><time>2026-03-31T16:30:39.16Z</time></trkpt><trkpt lat="41.3129317" lon="0.612575"><ele>211.0</ele><time>2026-03-31T16:30:40.16Z</time></trkpt><trkpt lat="41.3130867" lon="0.6126967"><ele>211.0</ele><time>2026-03-31T16:30:41.16Z</time></trkpt><trkpt lat="41.3132417" lon="0.61286"><ele>211.0</ele><time>2026-03-31T16:30:42.16Z</time></trkpt><trkpt lat="41.3133817" lon="0.6130283"><ele>211.0</ele><time>2026-03-31T16:30:43.16Z</time></trkpt><trkpt lat="41.313525" lon="0.6132"><ele>211.0</ele><time>2026-03-31T16:30:44.16Z</time></trkpt><trkpt lat="41.31366" lon="0.6133833"><ele>211.0</ele><time>2026-03-31T16:30:45.16Z</time></trkpt><trkpt lat="41.3137917" lon="0.61357"><ele>211.0</ele><time>2026-03-31T16:30:46.16Z</time></trkpt><trkpt lat="41.3139083" lon="0.613765"><ele>211.0</ele><time>2026-03-31T16:30:47.161Z</time></trkpt><trkpt lat="41.3140133" lon="0.6139683"><ele>211.66666666666666</ele><time>2026-03-31T16:30:48.161Z</time></trkpt><trkpt lat="41.3141117" lon="0.6141533"><ele>212.33333333333331</ele><time>2026-03-31T16:30:49.16Z</time></trkpt><trkpt lat="41.3142133" lon="0.6143333"><ele>213.0</ele><time>2026-03-31T16:30:50.161Z</time></trkpt><trkpt lat="41.3142917" lon="0.6145333"><ele>213.0</ele><time>2026-03-31T16:30:51.16Z</time></trkpt><trkpt lat="41.3143333" lon="0.6147483"><ele>213.0</ele><time>2026-03-31T16:30:52.161Z</time></trkpt><trkpt lat="41.314365" lon="0.6149667"><ele>213.0</ele><time>2026-03-31T16:30:53.161Z</time></trkpt><trkpt lat="41.3143867" lon="0.61521"><ele>212.66666666666669</ele><time>2026-03-31T16:30:54.161Z</time></trkpt><trkpt lat="41.3144117" lon="0.6154583"><ele>212.33333333333334</ele><time>2026-03-31T16:30:55.161Z</time></trkpt><trkpt lat="41.3144367" lon="0.615705"><ele>212.0</ele><time>2026-03-31T16:30:56.16Z</time></trkpt><trkpt lat="41.314465" lon="0.615945"><ele>212.66666666666669</ele><time>2026-03-31T16:30:57.161Z</time></trkpt><trkpt lat="41.3144883" lon="0.616185"><ele>213.33333333333331</ele><time>2026-03-31T16:30:58.16Z</time></trkpt><trkpt lat="41.3144817" lon="0.6164083"><ele>214.0</ele><time>2026-03-31T16:30:59.16Z</time></trkpt><trkpt lat="41.3144533" lon="0.616595"><ele>214.0</ele><time>2026-03-31T16:31:00.16Z</time></trkpt><trkpt lat="41.3144283" lon="0.61677"><ele>214.0</ele><time>2026-03-31T16:31:01.16Z</time></trkpt><trkpt lat="41.3144383" lon="0.6169433"><ele>214.0</ele><time>2026-03-31T16:31:02.16Z</time></trkpt><trkpt lat="41.3144683" lon="0.617085"><ele>214.0</ele><time>2026-03-31T16:31:03.161Z</time></trkpt><trkpt lat="41.3145267" lon="0.6172167"><ele>214.25</ele><time>2026-03-31T16:31:04.16Z</time></trkpt><trkpt lat="41.31462" lon="0.6173183"><ele>214.5</ele><time>2026-03-31T16:31:05.161Z</time></trkpt><trkpt lat="41.3147367" lon="0.6174017"><ele>214.75</ele><time>2026-03-31T16:31:06.161Z</time></trkpt><trkpt lat="41.3148667" lon="0.6175"><ele>215.0</ele><time>2026-03-31T16:31:07.161Z</time></trkpt><trkpt lat="41.314985" lon="0.617625"><ele>216.66666666666669</ele><time>2026-03-31T16:31:08.161Z</time></trkpt><trkpt lat="41.31509" lon="0.6177867"><ele>218.33333333333331</ele><time>2026-03-31T16:31:09.16Z</time></trkpt><trkpt lat="41.315165" lon="0.6179733"><ele>220.0</ele><time>2026-03-31T16:31:10.16Z</time></trkpt><trkpt lat="41.3152317" lon="0.6181817"><ele>220.0</ele><time>2026-03-31T16:31:11.16Z</time></trkpt><trkpt lat="41.3152933" lon="0.6183983"><ele>220.0</ele><time>2026-03-31T16:31:12.16Z</time></trkpt><trkpt lat="41.3153583" lon="0.6186233"><ele>220.0</ele><time>2026-03-31T16:31:13.161Z</time></trkpt><trkpt lat="41.3154217" lon="0.6188267"><ele>219.0</ele><time>2026-03-31T16:31:14.159Z</time></trkpt><trkpt lat="41.3154933" lon="0.619005"><ele>218.0</ele><time>2026-03-31T16:31:15.16Z</time></trkpt><trkpt lat="41.3155683" lon="0.6191633"><ele>217.0</ele><time>2026-03-31T16:31:16.159Z</time></trkpt><trkpt lat="41.3156717" lon="0.61928"><ele>216.0</ele><time>2026-03-31T16:31:17.159Z</time></trkpt><trkpt lat="41.3158083" lon="0.619355"><ele>219.0</ele><time>2026-03-31T16:31:18.16Z</time></trkpt><trkpt lat="41.3159483" lon="0.6193933"><ele>222.0</ele><time>2026-03-31T16:31:19.16Z</time></trkpt><trkpt lat="41.3160983" lon="0.6193833"><ele>225.0</ele><time>2026-03-31T16:31:20.16Z</time></trkpt><trkpt lat="41.31627" lon="0.61936"><ele>226.0</ele><time>2026-03-31T16:31:21.16Z</time></trkpt><trkpt lat="41.316445" lon="0.6193083"><ele>227.0</ele><time>2026-03-31T16:31:22.159Z</time></trkpt><trkpt lat="41.3166217" lon="0.619275"><ele>228.0</ele><time>2026-03-31T16:31:23.159Z</time></trkpt><trkpt lat="41.3167983" lon="0.61926"><ele>228.0</ele><time>2026-03-31T16:31:24.16Z</time></trkpt><trkpt lat="41.3169783" lon="0.619265"><ele>228.0</ele><time>2026-03-31T16:31:25.159Z</time></trkpt><trkpt lat="41.3171667" lon="0.6193"><ele>228.0</ele><time>2026-03-31T16:31:26.159Z</time></trkpt><trkpt lat="41.3173583" lon="0.6193417"><ele>229.33333333333331</ele><time>2026-03-31T16:31:27.16Z</time></trkpt><trkpt lat="41.3175467" lon="0.6193733"><ele>230.66666666666666</ele><time>2026-03-31T16:31:28.159Z</time></trkpt><trkpt lat="41.3177217" lon="0.619415"><ele>232.0</ele><time>2026-03-31T16:31:29.16Z</time></trkpt><trkpt lat="41.31788" lon="0.6194383"><ele>230.5</ele><time>2026-03-31T16:31:30.159Z</time></trkpt><trkpt lat="41.31803" lon="0.6194983"><ele>229.0</ele><time>2026-03-31T16:31:31.159Z</time></trkpt><trkpt lat="41.3181617" lon="0.6195767"><ele>227.5</ele><time>2026-03-31T16:31:32.16Z</time></trkpt><trkpt lat="41.3182783" lon="0.6196883"><ele>226.0</ele><time>2026-03-31T16:31:33.16Z</time></trkpt><trkpt lat="41.3183567" lon="0.6198367"><ele>226.0</ele><time>2026-03-31T16:31:34.16Z</time></trkpt><trkpt lat="41.3184033" lon="0.6200083"><ele>226.0</ele><time>2026-03-31T16:31:35.16Z</time></trkpt><trkpt lat="41.3184433" lon="0.6202033"><ele>226.0</ele><time>2026-03-31T16:31:36.159Z</time></trkpt><trkpt lat="41.3184933" lon="0.6203983"><ele>226.0</ele><time>2026-03-31T16:31:37.16Z</time></trkpt><trkpt lat="41.318575" lon="0.620575"><ele>225.0</ele><time>2026-03-31T16:31:38.16Z</time></trkpt><trkpt lat="41.3186767" lon="0.620745"><ele>224.0</ele><time>2026-03-31T16:31:39.159Z</time></trkpt><trkpt lat="41.3187967" lon="0.62089"><ele>223.0</ele><time>2026-03-31T16:31:40.159Z</time></trkpt><trkpt lat="41.3189317" lon="0.6210367"><ele>224.66666666666666</ele><time>2026-03-31T16:31:41.16Z</time></trkpt><trkpt lat="41.3190667" lon="0.6211883"><ele>226.33333333333331</ele><time>2026-03-31T16:31:42.16Z</time></trkpt><trkpt lat="41.3191967" lon="0.6213283"><ele>228.0</ele><time>2026-03-31T16:31:43.16Z</time></trkpt><trkpt lat="41.3193317" lon="0.621485"><ele>228.0</ele><time>2026-03-31T16:31:44.159Z</time></trkpt><trkpt lat="41.319465" lon="0.6216233"><ele>228.0</ele><time>2026-03-31T16:31:45.16Z</time></trkpt><trkpt lat="41.3195933" lon="0.6217667"><ele>228.0</ele><time>2026-03-31T16:31:46.16Z</time></trkpt><trkpt lat="41.31971" lon="0.6219083"><ele>230.25</ele><time>2026-03-31T16:31:47.16Z</time></trkpt><trkpt lat="41.3198083" lon="0.6220517"><ele>232.5</ele><time>2026-03-31T16:31:48.159Z</time></trkpt><trkpt lat="41.3198767" lon="0.6222"><ele>234.75</ele><time>2026-03-31T16:31:49.159Z</time></trkpt><trkpt lat="41.3199117" lon="0.6223767"><ele>237.0</ele><time>2026-03-31T16:31:50.159Z</time></trkpt><trkpt lat="41.3199117" lon="0.6225667"><ele>237.0</ele><time>2026-03-31T16:31:51.159Z</time></trkpt><trkpt lat="41.3198733" lon="0.62274"><ele>237.0</ele><time>2026-03-31T16:31:52.159Z</time></trkpt><trkpt lat="41.3197967" lon="0.6228917"><ele>237.0</ele><time>2026-03-31T16:31:53.159Z</time></trkpt><trkpt lat="41.3196983" lon="0.623"><ele>237.0</ele><time>2026-03-31T16:31:54.16Z</time></trkpt><trkpt lat="41.31958" lon="0.6230917"><ele>236.25</ele><time>2026-03-31T16:31:55.159Z</time></trkpt><trkpt lat="41.31946" lon="0.6231983"><ele>235.5</ele><time>2026-03-31T16:31:56.159Z</time></trkpt><trkpt lat="41.31935" lon="0.6233133"><ele>234.75</ele><time>2026-03-31T16:31:57.16Z</time></trkpt><trkpt lat="41.3192583" lon="0.6234433"><ele>234.0</ele><time>2026-03-31T16:31:58.16Z</time></trkpt><trkpt lat="41.31919" lon="0.623565"><ele>233.6</ele><time>2026-03-31T16:31:59.159Z</time></trkpt><trkpt lat="41.319165" lon="0.6236817"><ele>233.2</ele><time>2026-03-31T16:32:00.159Z</time></trkpt><trkpt lat="41.3191767" lon="0.623795"><ele>232.79999999999998</ele><time>2026-03-31T16:32:01.159Z</time></trkpt><trkpt lat="41.3192233" lon="0.6238983"><ele>232.39999999999998</ele><time>2026-03-31T16:32:02.16Z</time></trkpt><trkpt lat="41.3192967" lon="0.6239833"><ele>232.0</ele><time>2026-03-31T16:32:03.159Z</time></trkpt><trkpt lat="41.3194117" lon="0.624045"><ele>232.0</ele><time>2026-03-31T16:32:04.16Z</time></trkpt><trkpt lat="41.3195717" lon="0.624105"><ele>232.0</ele><time>2026-03-31T16:32:05.159Z</time></trkpt><trkpt lat="41.3197833" lon="0.624215"><ele>232.0</ele><time>2026-03-31T16:32:06.159Z</time></trkpt><trkpt lat="41.3199283" lon="0.6243"><ele>232.0</ele><time>2026-03-31T16:32:07.159Z</time></trkpt><trkpt lat="41.3200867" lon="0.6243867"><ele>232.0</ele><time>2026-03-31T16:32:08.159Z</time></trkpt><trkpt lat="41.3202333" lon="0.6244983"><ele>232.0</ele><time>2026-03-31T16:32:09.159Z</time></trkpt><trkpt lat="41.3203883" lon="0.6246067"><ele>232.0</ele><time>2026-03-31T16:32:10.159Z</time></trkpt><trkpt lat="41.3205417" lon="0.6247217"><ele>232.0</ele><time>2026-03-31T16:32:11.159Z</time></trkpt><trkpt lat="41.3207017" lon="0.6248383"><ele>232.0</ele><time>2026-03-31T16:32:12.159Z</time></trkpt><trkpt lat="41.3208517" lon="0.6249417"><ele>235.33333333333331</ele><time>2026-03-31T16:32:13.159Z</time></trkpt><trkpt lat="41.3210117" lon="0.6250467"><ele>238.66666666666669</ele><time>2026-03-31T16:32:14.159Z</time></trkpt><trkpt lat="41.3211633" lon="0.625105"><ele>242.0</ele><time>2026-03-31T16:32:15.16Z</time></trkpt><trkpt lat="41.321315" lon="0.6251167"><ele>243.0</ele><time>2026-03-31T16:32:16.159Z</time></trkpt><trkpt lat="41.3214733" lon="0.6250933"><ele>244.0</ele><time>2026-03-31T16:32:17.159Z</time></trkpt><trkpt lat="41.3216333" lon="0.6250583"><ele>245.0</ele><time>2026-03-31T16:32:18.16Z</time></trkpt><trkpt lat="41.3217983" lon="0.6250133"><ele>245.0</ele><time>2026-03-31T16:32:19.159Z</time></trkpt><trkpt lat="41.321965" lon="0.6249817"><ele>245.0</ele><time>2026-03-31T16:32:20.159Z</time></trkpt><trkpt lat="41.3221283" lon="0.62498"><ele>245.0</ele><time>2026-03-31T16:32:21.159Z</time></trkpt><trkpt lat="41.32229" lon="0.6250233"><ele>244.0</ele><time>2026-03-31T16:32:22.16Z</time></trkpt><trkpt lat="41.3224317" lon="0.6251067"><ele>243.0</ele><time>2026-03-31T16:32:23.159Z</time></trkpt><trkpt lat="41.3225583" lon="0.6252333"><ele>242.0</ele><time>2026-03-31T16:32:24.16Z</time></trkpt><trkpt lat="41.3226567" lon="0.62539"><ele>241.33333333333334</ele><time>2026-03-31T16:32:25.16Z</time></trkpt><trkpt lat="41.3227333" lon="0.625565"><ele>240.66666666666669</ele><time>2026-03-31T16:32:26.159Z</time></trkpt><trkpt lat="41.3228017" lon="0.625755"><ele>240.0</ele><time>2026-03-31T16:32:27.159Z</time></trkpt><trkpt lat="41.3228717" lon="0.6259517"><ele>241.0</ele><time>2026-03-31T16:32:28.16Z</time></trkpt><trkpt lat="41.3229483" lon="0.626145"><ele>242.0</ele><time>2026-03-31T16:32:29.16Z</time></trkpt><trkpt lat="41.3230383" lon="0.6263267"><ele>243.0</ele><time>2026-03-31T16:32:30.159Z</time></trkpt><trkpt lat="41.3231067" lon="0.626495"><ele>243.5</ele><time>2026-03-31T16:32:31.16Z</time></trkpt><trkpt lat="41.323145" lon="0.6266783"><ele>244.0</ele><time>2026-03-31T16:32:32.16Z</time></trkpt><trkpt lat="41.3231383" lon="0.626865"><ele>244.5</ele><time>2026-03-31T16:32:33.16Z</time></trkpt><trkpt lat="41.3230883" lon="0.6270517"><ele>245.0</ele><time>2026-03-31T16:32:34.16Z</time></trkpt><trkpt lat="41.3230083" lon="0.62723"><ele>245.75</ele><time>2026-03-31T16:32:35.159Z</time></trkpt><trkpt lat="41.3229283" lon="0.6274017"><ele>246.5</ele><time>2026-03-31T16:32:36.159Z</time></trkpt><trkpt lat="41.3228583" lon="0.6275667"><ele>247.25</ele><time>2026-03-31T16:32:37.159Z</time></trkpt><trkpt lat="41.32282" lon="0.62773"><ele>248.0</ele><time>2026-03-31T16:32:38.159Z</time></trkpt><trkpt lat="41.32278" lon="0.6279"><ele>248.0</ele><time>2026-03-31T16:32:39.16Z</time></trkpt><trkpt lat="41.322795" lon="0.628085"><ele>248.0</ele><time>2026-03-31T16:32:40.16Z</time></trkpt><trkpt lat="41.3228567" lon="0.6282533"><ele>248.0</ele><time>2026-03-31T16:32:41.159Z</time></trkpt><trkpt lat="41.3229417" lon="0.6284267"><ele>248.0</ele><time>2026-03-31T16:32:42.159Z</time></trkpt><trkpt lat="41.3230283" lon="0.6286"><ele>248.66666666666669</ele><time>2026-03-31T16:32:43.159Z</time></trkpt><trkpt lat="41.3230733" lon="0.62881"><ele>249.33333333333331</ele><time>2026-03-31T16:32:44.159Z</time></trkpt><trkpt lat="41.3231" lon="0.6290267"><ele>250.0</ele><time>2026-03-31T16:32:45.159Z</time></trkpt><trkpt lat="41.3231217" lon="0.6292333"><ele>250.0</ele><time>2026-03-31T16:32:46.16Z</time></trkpt><trkpt lat="41.3231617" lon="0.629425"><ele>250.0</ele><time>2026-03-31T16:32:47.16Z</time></trkpt><trkpt lat="41.3232333" lon="0.6295783"><ele>250.0</ele><time>2026-03-31T16:32:48.159Z</time></trkpt><trkpt lat="41.32335" lon="0.6296933"><ele>250.0</ele><time>2026-03-31T16:32:49.16Z</time></trkpt><trkpt lat="41.3234967" lon="0.6297517"><ele>251.0</ele><time>2026-03-31T16:32:50.16Z</time></trkpt><trkpt lat="41.3236583" lon="0.62977"><ele>252.0</ele><time>2026-03-31T16:32:51.16Z</time></trkpt><trkpt lat="41.3238167" lon="0.6297783"><ele>253.0</ele><time>2026-03-31T16:32:52.16Z</time></trkpt><trkpt lat="41.3239833" lon="0.6297717"><ele>254.25</ele><time>2026-03-31T16:32:53.159Z</time></trkpt><trkpt lat="41.3241433" lon="0.62975"><ele>255.5</ele><time>2026-03-31T16:32:54.159Z</time></trkpt><trkpt lat="41.3242767" lon="0.6297267"><ele>256.75</ele><time>2026-03-31T16:32:55.159Z</time></trkpt><trkpt lat="41.324385" lon="0.6297233"><ele>258.0</ele><time>2026-03-31T16:32:56.16Z</time></trkpt><trkpt lat="41.3244833" lon="0.629775"><ele>258.0</ele><time>2026-03-31T16:32:57.159Z</time></trkpt><trkpt lat="41.3245667" lon="0.62988"><ele>258.0</ele><time>2026-03-31T16:32:58.159Z</time></trkpt><trkpt lat="41.3246183" lon="0.6300167"><ele>258.0</ele><time>2026-03-31T16:32:59.16Z</time></trkpt><trkpt lat="41.3246533" lon="0.63019"><ele>258.0</ele><time>2026-03-31T16:33:00.16Z</time></trkpt><trkpt lat="41.324695" lon="0.6303533"><ele>257.75</ele><time>2026-03-31T16:33:01.159Z</time></trkpt><trkpt lat="41.324775" lon="0.6304967"><ele>257.5</ele><time>2026-03-31T16:33:02.159Z</time></trkpt><trkpt lat="41.3248867" lon="0.63063"><ele>257.25</ele><time>2026-03-31T16:33:03.16Z</time></trkpt><trkpt lat="41.3250117" lon="0.6307383"><ele>257.0</ele><time>2026-03-31T16:33:04.159Z</time></trkpt><trkpt lat="41.3251367" lon="0.6308583"><ele>257.0</ele><time>2026-03-31T16:33:05.16Z</time></trkpt><trkpt lat="41.325275" lon="0.6309683"><ele>257.0</ele><time>2026-03-31T16:33:06.159Z</time></trkpt><trkpt lat="41.3254067" lon="0.6310967"><ele>257.0</ele><time>2026-03-31T16:33:07.159Z</time></trkpt><trkpt lat="41.3255333" lon="0.6312417"><ele>262.6666666666667</ele><time>2026-03-31T16:33:08.159Z</time></trkpt><trkpt lat="41.3256567" lon="0.631415"><ele>268.3333333333333</ele><time>2026-03-31T16:33:09.159Z</time></trkpt><trkpt lat="41.32574" lon="0.631595"><ele>274.0</ele><time>2026-03-31T16:33:10.159Z</time></trkpt><trkpt lat="41.3257983" lon="0.63182"><ele>274.0</ele><time>2026-03-31T16:33:11.16Z</time></trkpt><trkpt lat="41.3258483" lon="0.632055"><ele>274.0</ele><time>2026-03-31T16:33:12.159Z</time></trkpt><trkpt lat="41.325905" lon="0.6322617"><ele>274.0</ele><time>2026-03-31T16:33:13.159Z</time></trkpt><trkpt lat="41.3259467" lon="0.63248"><ele>274.0</ele><time>2026-03-31T16:33:14.159Z</time></trkpt><trkpt lat="41.3259767" lon="0.6327133"><ele>274.0</ele><time>2026-03-31T16:33:15.159Z</time></trkpt><trkpt lat="41.3259767" lon="0.6329317"><ele>274.0</ele><time>2026-03-31T16:33:16.16Z</time></trkpt><trkpt lat="41.3259717" lon="0.63315"><ele>273.75</ele><time>2026-03-31T16:33:17.159Z</time></trkpt><trkpt lat="41.3259767" lon="0.6333583"><ele>273.5</ele><time>2026-03-31T16:33:18.159Z</time></trkpt><trkpt lat="41.3260017" lon="0.6335417"><ele>273.25</ele><time>2026-03-31T16:33:19.159Z</time></trkpt><trkpt lat="41.3260683" lon="0.6337133"><ele>273.0</ele><time>2026-03-31T16:33:20.16Z</time></trkpt><trkpt lat="41.3261467" lon="0.6338533"><ele>272.0</ele><time>2026-03-31T16:33:21.159Z</time></trkpt><trkpt lat="41.32624" lon="0.634015"><ele>271.0</ele><time>2026-03-31T16:33:22.159Z</time></trkpt><trkpt lat="41.326315" lon="0.6341717"><ele>270.0</ele><time>2026-03-31T16:33:23.159Z</time></trkpt><trkpt lat="41.32635" lon="0.6343533"><ele>269.0</ele><time>2026-03-31T16:33:24.16Z</time></trkpt><trkpt lat="41.326375" lon="0.634515"><ele>268.75</ele><time>2026-03-31T16:33:25.159Z</time></trkpt><trkpt lat="41.32639" lon="0.6346817"><ele>268.5</ele><time>2026-03-31T16:33:26.159Z</time></trkpt><trkpt lat="41.3264383" lon="0.6348533"><ele>268.25</ele><time>2026-03-31T16:33:27.159Z</time></trkpt><trkpt lat="41.32647" lon="0.634985"><ele>268.0</ele><time>2026-03-31T16:33:28.159Z</time></trkpt><trkpt lat="41.326535" lon="0.6351017"><ele>272.25</ele><time>2026-03-31T16:33:29.16Z</time></trkpt><trkpt lat="41.3266367" lon="0.6351883"><ele>276.5</ele><time>2026-03-31T16:33:30.159Z</time></trkpt><trkpt lat="41.3267567" lon="0.63524"><ele>280.75</ele><time>2026-03-31T16:33:31.159Z</time></trkpt><trkpt lat="41.3268883" lon="0.6352617"><ele>285.0</ele><time>2026-03-31T16:33:32.16Z</time></trkpt><trkpt lat="41.3270217" lon="0.6352583"><ele>285.0</ele><time>2026-03-31T16:33:33.159Z</time></trkpt><trkpt lat="41.327145" lon="0.6352583"><ele>285.0</ele><time>2026-03-31T16:33:34.16Z</time></trkpt><trkpt lat="41.3272533" lon="0.6352783"><ele>285.0</ele><time>2026-03-31T16:33:35.159Z</time></trkpt><trkpt lat="41.32736" lon="0.6353383"><ele>285.0</ele><time>2026-03-31T16:33:36.159Z</time></trkpt><trkpt lat="41.327455" lon="0.6354333"><ele>285.2</ele><time>2026-03-31T16:33:37.159Z</time></trkpt><trkpt lat="41.3275317" lon="0.6355583"><ele>285.4</ele><time>2026-03-31T16:33:38.159Z</time></trkpt><trkpt lat="41.3275867" lon="0.635695"><ele>285.6</ele><time>2026-03-31T16:33:39.159Z</time></trkpt><trkpt lat="41.327635" lon="0.6358217"><ele>285.8</ele><time>2026-03-31T16:33:40.16Z</time></trkpt><trkpt lat="41.32768" lon="0.6359317"><ele>286.0</ele><time>2026-03-31T16:33:41.159Z</time></trkpt><trkpt lat="41.327715" lon="0.6360417"><ele>287.40000000000003</ele><time>2026-03-31T16:33:42.159Z</time></trkpt><trkpt lat="41.3277283" lon="0.6361733"><ele>288.8</ele><time>2026-03-31T16:33:43.16Z</time></trkpt><trkpt lat="41.3276933" lon="0.6362967"><ele>290.20000000000005</ele><time>2026-03-31T16:33:44.159Z</time></trkpt><trkpt lat="41.3276333" lon="0.6363867"><ele>291.6</ele><time>2026-03-31T16:33:45.16Z</time></trkpt><trkpt lat="41.3275517" lon="0.6364383"><ele>293.0</ele><time>2026-03-31T16:33:46.16Z</time></trkpt><trkpt lat="41.3274517" lon="0.6364717"><ele>293.0</ele><time>2026-03-31T16:33:47.159Z</time></trkpt><trkpt lat="41.3273617" lon="0.6365333"><ele>293.0</ele><time>2026-03-31T16:33:48.159Z</time></trkpt><trkpt lat="41.3272867" lon="0.6366033"><ele>293.0</ele><time>2026-03-31T16:33:49.16Z</time></trkpt><trkpt lat="41.3272333" lon="0.6366933"><ele>293.0</ele><time>2026-03-31T16:33:50.159Z</time></trkpt><trkpt lat="41.327205" lon="0.63679"><ele>293.0</ele><time>2026-03-31T16:33:51.159Z</time></trkpt><trkpt lat="41.3271933" lon="0.6368967"><ele>293.0</ele><time>2026-03-31T16:33:52.16Z</time></trkpt><trkpt lat="41.3272" lon="0.637015"><ele>293.4</ele><time>2026-03-31T16:33:53.16Z</time></trkpt><trkpt lat="41.3272367" lon="0.6371367"><ele>293.8</ele><time>2026-03-31T16:33:54.16Z</time></trkpt><trkpt lat="41.327305" lon="0.637245"><ele>294.2</ele><time>2026-03-31T16:33:55.16Z</time></trkpt><trkpt lat="41.3273883" lon="0.6373433"><ele>294.6</ele><time>2026-03-31T16:33:56.159Z</time></trkpt><trkpt lat="41.3274617" lon="0.6374433"><ele>295.0</ele><time>2026-03-31T16:33:57.159Z</time></trkpt><trkpt lat="41.3275317" lon="0.6375433"><ele>295.0</ele><time>2026-03-31T16:33:58.159Z</time></trkpt><trkpt lat="41.327605" lon="0.6376483"><ele>295.0</ele><time>2026-03-31T16:33:59.16Z</time></trkpt><trkpt lat="41.32768" lon="0.6377333"><ele>295.0</ele><time>2026-03-31T16:34:00.159Z</time></trkpt><trkpt lat="41.3277667" lon="0.63781"><ele>295.0</ele><time>2026-03-31T16:34:01.16Z</time></trkpt><trkpt lat="41.3278583" lon="0.6378667"><ele>295.0</ele><time>2026-03-31T16:34:02.159Z</time></trkpt><trkpt lat="41.3279567" lon="0.637915"><ele>295.3333333333333</ele><time>2026-03-31T16:34:03.159Z</time></trkpt><trkpt lat="41.3280483" lon="0.6379617"><ele>295.66666666666663</ele><time>2026-03-31T16:34:04.159Z</time></trkpt><trkpt lat="41.328125" lon="0.63802"><ele>296.0</ele><time>2026-03-31T16:34:05.16Z</time></trkpt><trkpt lat="41.3281967" lon="0.6380933"><ele>296.3333333333333</ele><time>2026-03-31T16:34:06.159Z</time></trkpt><trkpt lat="41.32825" lon="0.6381717"><ele>296.6666666666667</ele><time>2026-03-31T16:34:07.159Z</time></trkpt><trkpt lat="41.3282733" lon="0.6382683"><ele>297.0</ele><time>2026-03-31T16:34:08.159Z</time></trkpt><trkpt lat="41.32828" lon="0.6383767"><ele>298.2</ele><time>2026-03-31T16:34:09.16Z</time></trkpt><trkpt lat="41.3282683" lon="0.6384983"><ele>299.4</ele><time>2026-03-31T16:34:10.159Z</time></trkpt><trkpt lat="41.32825" lon="0.63862"><ele>300.6</ele><time>2026-03-31T16:34:11.159Z</time></trkpt><trkpt lat="41.3282333" lon="0.6387733"><ele>301.8</ele><time>2026-03-31T16:34:12.16Z</time></trkpt><trkpt lat="41.32824" lon="0.6389317"><ele>303.0</ele><time>2026-03-31T16:34:13.159Z</time></trkpt><trkpt lat="41.328285" lon="0.63908"><ele>303.0</ele><time>2026-03-31T16:34:14.159Z</time></trkpt><trkpt lat="41.32835" lon="0.6392167"><ele>303.0</ele><time>2026-03-31T16:34:15.16Z</time></trkpt><trkpt lat="41.3284583" lon="0.6393017"><ele>303.0</ele><time>2026-03-31T16:34:16.16Z</time></trkpt><trkpt lat="41.328585" lon="0.6393183"><ele>303.0</ele><time>2026-03-31T16:34:17.16Z</time></trkpt><trkpt lat="41.3287317" lon="0.63929"><ele>304.6666666666667</ele><time>2026-03-31T16:34:18.16Z</time></trkpt><trkpt lat="41.3288933" lon="0.6392417"><ele>306.33333333333337</ele><time>2026-03-31T16:34:19.159Z</time></trkpt><trkpt lat="41.329055" lon="0.63918"><ele>308.0</ele><time>2026-03-31T16:34:20.16Z</time></trkpt><trkpt lat="41.3292133" lon="0.6391217"><ele>308.0</ele><time>2026-03-31T16:34:21.159Z</time></trkpt><trkpt lat="41.329385" lon="0.6390733"><ele>308.0</ele><time>2026-03-31T16:34:22.159Z</time></trkpt><trkpt lat="41.3295417" lon="0.6390267"><ele>308.0</ele><time>2026-03-31T16:34:23.159Z</time></trkpt><trkpt lat="41.3296967" lon="0.6389767"><ele>308.0</ele><time>2026-03-31T16:34:24.159Z</time></trkpt><trkpt lat="41.32983" lon="0.63893"><ele>308.0</ele><time>2026-03-31T16:34:25.159Z</time></trkpt><trkpt lat="41.3299417" lon="0.6388917"><ele>308.0</ele><time>2026-03-31T16:34:26.16Z</time></trkpt><trkpt lat="41.33005" lon="0.6388133"><ele>308.0</ele><time>2026-03-31T16:34:27.16Z</time></trkpt><trkpt lat="41.3301167" lon="0.6386967"><ele>310.25</ele><time>2026-03-31T16:34:28.159Z</time></trkpt><trkpt lat="41.3301717" lon="0.63853"><ele>312.5</ele><time>2026-03-31T16:34:29.159Z</time></trkpt><trkpt lat="41.330205" lon="0.638355"><ele>314.75</ele><time>2026-03-31T16:34:30.159Z</time></trkpt><trkpt lat="41.3302767" lon="0.6382083"><ele>317.0</ele><time>2026-03-31T16:34:31.16Z</time></trkpt><trkpt lat="41.3303833" lon="0.6381083"><ele>317.0</ele><time>2026-03-31T16:34:32.16Z</time></trkpt><trkpt lat="41.3304883" lon="0.638005"><ele>317.0</ele><time>2026-03-31T16:34:33.159Z</time></trkpt><trkpt lat="41.330545" lon="0.6378783"><ele>317.0</ele><time>2026-03-31T16:34:34.159Z</time></trkpt><trkpt lat="41.3305767" lon="0.6377183"><ele>317.0</ele><time>2026-03-31T16:34:35.159Z</time></trkpt><trkpt lat="41.3305867" lon="0.6375333"><ele>317.5</ele><time>2026-03-31T16:34:36.159Z</time></trkpt><trkpt lat="41.3306067" lon="0.637345"><ele>318.0</ele><time>2026-03-31T16:34:37.159Z</time></trkpt><trkpt lat="41.3306383" lon="0.6371533"><ele>318.5</ele><time>2026-03-31T16:34:38.16Z</time></trkpt><trkpt lat="41.330685" lon="0.6369883"><ele>319.0</ele><time>2026-03-31T16:34:39.159Z</time></trkpt><trkpt lat="41.3307617" lon="0.63687"><ele>320.75</ele><time>2026-03-31T16:34:40.16Z</time></trkpt><trkpt lat="41.3308683" lon="0.6368083"><ele>322.5</ele><time>2026-03-31T16:34:41.159Z</time></trkpt><trkpt lat="41.33099" lon="0.6368033"><ele>324.25</ele><time>2026-03-31T16:34:42.159Z</time></trkpt><trkpt lat="41.3311267" lon="0.6368383"><ele>326.0</ele><time>2026-03-31T16:34:43.159Z</time></trkpt><trkpt lat="41.331255" lon="0.636875"><ele>326.0</ele><time>2026-03-31T16:34:44.159Z</time></trkpt><trkpt lat="41.3313933" lon="0.636915"><ele>326.0</ele><time>2026-03-31T16:34:45.159Z</time></trkpt><trkpt lat="41.33155" lon="0.63695"><ele>326.0</ele><time>2026-03-31T16:34:46.159Z</time></trkpt><trkpt lat="41.33171" lon="0.63698"><ele>325.0</ele><time>2026-03-31T16:34:47.159Z</time></trkpt><trkpt lat="41.331875" lon="0.63702"><ele>324.0</ele><time>2026-03-31T16:34:48.16Z</time></trkpt><trkpt lat="41.3320417" lon="0.63706"><ele>323.0</ele><time>2026-03-31T16:34:49.159Z</time></trkpt><trkpt lat="41.3322" lon="0.6371167"><ele>324.75</ele><time>2026-03-31T16:34:50.16Z</time></trkpt><trkpt lat="41.3323567" lon="0.637155"><ele>326.5</ele><time>2026-03-31T16:34:51.159Z</time></trkpt><trkpt lat="41.3324967" lon="0.6371783"><ele>328.25</ele><time>2026-03-31T16:34:52.159Z</time></trkpt><trkpt lat="41.33261" lon="0.6372133"><ele>330.0</ele><time>2026-03-31T16:34:53.16Z</time></trkpt><trkpt lat="41.33272" lon="0.6372817"><ele>330.0</ele><time>2026-03-31T16:34:54.159Z</time></trkpt><trkpt lat="41.3328017" lon="0.63739"><ele>330.0</ele><time>2026-03-31T16:34:55.159Z</time></trkpt><trkpt lat="41.3328517" lon="0.63754"><ele>330.0</ele><time>2026-03-31T16:34:56.16Z</time></trkpt><trkpt lat="41.33288" lon="0.6377017"><ele>330.0</ele><time>2026-03-31T16:34:57.159Z</time></trkpt><trkpt lat="41.3328967" lon="0.6378983"><ele>329.6666666666667</ele><time>2026-03-31T16:34:58.16Z</time></trkpt><trkpt lat="41.332915" lon="0.6381017"><ele>329.33333333333337</ele><time>2026-03-31T16:34:59.159Z</time></trkpt><trkpt lat="41.3329367" lon="0.6383067"><ele>329.0</ele><time>2026-03-31T16:35:00.16Z</time></trkpt><trkpt lat="41.3329583" lon="0.638515"><ele>329.6666666666667</ele><time>2026-03-31T16:35:01.159Z</time></trkpt><trkpt lat="41.3329917" lon="0.638725"><ele>330.3333333333333</ele><time>2026-03-31T16:35:02.16Z</time></trkpt><trkpt lat="41.33304" lon="0.63893"><ele>331.0</ele><time>2026-03-31T16:35:03.159Z</time></trkpt><trkpt lat="41.333095" lon="0.6391233"><ele>332.3333333333333</ele><time>2026-03-31T16:35:04.16Z</time></trkpt><trkpt lat="41.3331683" lon="0.6393083"><ele>333.6666666666667</ele><time>2026-03-31T16:35:05.16Z</time></trkpt><trkpt lat="41.3332517" lon="0.6394917"><ele>335.0</ele><time>2026-03-31T16:35:06.16Z</time></trkpt><trkpt lat="41.3333367" lon="0.6396717"><ele>335.0</ele><time>2026-03-31T16:35:07.16Z</time></trkpt><trkpt lat="41.3334383" lon="0.6398317"><ele>335.0</ele><time>2026-03-31T16:35:08.159Z</time></trkpt><trkpt lat="41.3335567" lon="0.63997"><ele>335.0</ele><time>2026-03-31T16:35:09.159Z</time></trkpt><trkpt lat="41.3337033" lon="0.640075"><ele>335.0</ele><time>2026-03-31T16:35:10.16Z</time></trkpt><trkpt lat="41.3338517" lon="0.6401583"><ele>335.0</ele><time>2026-03-31T16:35:11.16Z</time></trkpt><trkpt lat="41.33401" lon="0.6402367"><ele>335.0</ele><time>2026-03-31T16:35:12.159Z</time></trkpt><trkpt lat="41.3341767" lon="0.6403083"><ele>331.33333333333337</ele><time>2026-03-31T16:35:13.159Z</time></trkpt><trkpt lat="41.3343483" lon="0.6403633"><ele>327.6666666666667</ele><time>2026-03-31T16:35:14.159Z</time></trkpt><trkpt lat="41.3345167" lon="0.6403917"><ele>324.0</ele><time>2026-03-31T16:35:15.16Z</time></trkpt><trkpt lat="41.3346833" lon="0.6404133"><ele>326.0</ele><time>2026-03-31T16:35:16.16Z</time></trkpt><trkpt lat="41.3348583" lon="0.640435"><ele>328.0</ele><time>2026-03-31T16:35:17.159Z</time></trkpt><trkpt lat="41.3350183" lon="0.64045"><ele>330.0</ele><time>2026-03-31T16:35:18.159Z</time></trkpt><trkpt lat="41.3351667" lon="0.6404633"><ele>330.0</ele><time>2026-03-31T16:35:19.159Z</time></trkpt><trkpt lat="41.3353033" lon="0.6404433"><ele>330.0</ele><time>2026-03-31T16:35:20.16Z</time></trkpt><trkpt lat="41.335435" lon="0.6403883"><ele>330.0</ele><time>2026-03-31T16:35:21.16Z</time></trkpt><trkpt lat="41.3355617" lon="0.640305"><ele>330.0</ele><time>2026-03-31T16:35:22.159Z</time></trkpt><trkpt lat="41.3356933" lon="0.64023"><ele>331.25</ele><time>2026-03-31T16:35:23.16Z</time></trkpt><trkpt lat="41.3358367" lon="0.640215"><ele>332.5</ele><time>2026-03-31T16:35:24.159Z</time></trkpt><trkpt lat="41.3359817" lon="0.6402583"><ele>333.75</ele><time>2026-03-31T16:35:25.16Z</time></trkpt><trkpt lat="41.3361217" lon="0.6403467"><ele>335.0</ele><time>2026-03-31T16:35:26.16Z</time></trkpt><trkpt lat="41.3362567" lon="0.6404467"><ele>335.0</ele><time>2026-03-31T16:35:27.16Z</time></trkpt><trkpt lat="41.3363733" lon="0.6405967"><ele>335.0</ele><time>2026-03-31T16:35:28.159Z</time></trkpt><trkpt lat="41.3364717" lon="0.6407633"><ele>335.0</ele><time>2026-03-31T16:35:29.16Z</time></trkpt><trkpt lat="41.33657" lon="0.6409433"><ele>334.33333333333337</ele><time>2026-03-31T16:35:30.159Z</time></trkpt><trkpt lat="41.3366783" lon="0.6411267"><ele>333.6666666666667</ele><time>2026-03-31T16:35:31.159Z</time></trkpt><trkpt lat="41.3367883" lon="0.64129"><ele>333.0</ele><time>2026-03-31T16:35:32.159Z</time></trkpt><trkpt lat="41.3368767" lon="0.64144"><ele>333.0</ele><time>2026-03-31T16:35:33.16Z</time></trkpt><trkpt lat="41.3369517" lon="0.6415517"><ele>333.0</ele><time>2026-03-31T16:35:34.16Z</time></trkpt><trkpt lat="41.33705" lon="0.6416467"><ele>333.0</ele><time>2026-03-31T16:35:35.159Z</time></trkpt><trkpt lat="41.33717" lon="0.6416933"><ele>333.0</ele><time>2026-03-31T16:35:36.159Z</time></trkpt><trkpt lat="41.337295" lon="0.6416967"><ele>335.75</ele><time>2026-03-31T16:35:37.159Z</time></trkpt><trkpt lat="41.3374433" lon="0.6416667"><ele>338.5</ele><time>2026-03-31T16:35:38.159Z</time></trkpt><trkpt lat="41.3375933" lon="0.641645"><ele>341.25</ele><time>2026-03-31T16:35:39.16Z</time></trkpt><trkpt lat="41.3377383" lon="0.6416167"><ele>344.0</ele><time>2026-03-31T16:35:40.16Z</time></trkpt><trkpt lat="41.337885" lon="0.64161"><ele>344.0</ele><time>2026-03-31T16:35:41.159Z</time></trkpt><trkpt lat="41.33803" lon="0.6416433"><ele>344.0</ele><time>2026-03-31T16:35:42.159Z</time></trkpt><trkpt lat="41.3381533" lon="0.6416983"><ele>344.0</ele><time>2026-03-31T16:35:43.159Z</time></trkpt><trkpt lat="41.33827" lon="0.6417783"><ele>344.0</ele><time>2026-03-31T16:35:44.159Z</time></trkpt><trkpt lat="41.3383783" lon="0.6418033"><ele>345.25</ele><time>2026-03-31T16:35:45.159Z</time></trkpt><trkpt lat="41.3384833" lon="0.6417933"><ele>346.5</ele><time>2026-03-31T16:35:46.159Z</time></trkpt><trkpt lat="41.3385817" lon="0.6417283"><ele>347.75</ele><time>2026-03-31T16:35:47.159Z</time></trkpt><trkpt lat="41.3386717" lon="0.641615"><ele>349.0</ele><time>2026-03-31T16:35:48.16Z</time></trkpt><trkpt lat="41.338765" lon="0.6414883"><ele>349.0</ele><time>2026-03-31T16:35:49.16Z</time></trkpt><trkpt lat="41.338865" lon="0.6413717"><ele>349.0</ele><time>2026-03-31T16:35:50.16Z</time></trkpt><trkpt lat="41.3389733" lon="0.64132"><ele>349.0</ele><time>2026-03-31T16:35:51.159Z</time></trkpt><trkpt lat="41.3390867" lon="0.6413283"><ele>349.0</ele><time>2026-03-31T16:35:52.16Z</time></trkpt><trkpt lat="41.3392017" lon="0.6413733"><ele>349.0</ele><time>2026-03-31T16:35:53.159Z</time></trkpt><trkpt lat="41.33932" lon="0.641425"><ele>349.0</ele><time>2026-03-31T16:35:54.16Z</time></trkpt><trkpt lat="41.3394383" lon="0.641475"><ele>349.0</ele><time>2026-03-31T16:35:55.16Z</time></trkpt><trkpt lat="41.3395483" lon="0.6414833"><ele>349.0</ele><time>2026-03-31T16:35:56.159Z</time></trkpt><trkpt lat="41.3396533" lon="0.6414583"><ele>349.25</ele><time>2026-03-31T16:35:57.16Z</time></trkpt><trkpt lat="41.3397433" lon="0.64137"><ele>349.5</ele><time>2026-03-31T16:35:58.159Z</time></trkpt><trkpt lat="41.3398267" lon="0.64123"><ele>349.75</ele><time>2026-03-31T16:35:59.159Z</time></trkpt><trkpt lat="41.339915" lon="0.641075"><ele>350.0</ele><time>2026-03-31T16:36:00.159Z</time></trkpt><trkpt lat="41.3400083" lon="0.6409383"><ele>353.75</ele><time>2026-03-31T16:36:01.16Z</time></trkpt><trkpt lat="41.3401217" lon="0.640825"><ele>357.5</ele><time>2026-03-31T16:36:02.16Z</time></trkpt><trkpt lat="41.3402467" lon="0.64076"><ele>361.25</ele><time>2026-03-31T16:36:03.16Z</time></trkpt><trkpt lat="41.3403667" lon="0.6407483"><ele>365.0</ele><time>2026-03-31T16:36:04.159Z</time></trkpt><trkpt lat="41.3404967" lon="0.6407883"><ele>366.0</ele><time>2026-03-31T16:36:05.16Z</time></trkpt><trkpt lat="41.3406117" lon="0.6408833"><ele>367.0</ele><time>2026-03-31T16:36:06.16Z</time></trkpt><trkpt lat="41.3407167" lon="0.6409917"><ele>368.0</ele><time>2026-03-31T16:36:07.16Z</time></trkpt><trkpt lat="41.3408317" lon="0.6410633"><ele>369.0</ele><time>2026-03-31T16:36:08.16Z</time></trkpt><trkpt lat="41.3409433" lon="0.6411383"><ele>366.25</ele><time>2026-03-31T16:36:09.159Z</time></trkpt><trkpt lat="41.3410283" lon="0.641255"><ele>363.5</ele><time>2026-03-31T16:36:10.159Z</time></trkpt><trkpt lat="41.341065" lon="0.64141"><ele>360.75</ele><time>2026-03-31T16:36:11.159Z</time></trkpt><trkpt lat="41.341065" lon="0.64158"><ele>358.0</ele><time>2026-03-31T16:36:12.159Z</time></trkpt><trkpt lat="41.3410633" lon="0.6417517"><ele>358.0</ele><time>2026-03-31T16:36:13.16Z</time></trkpt><trkpt lat="41.3410717" lon="0.6419417"><ele>358.0</ele><time>2026-03-31T16:36:14.159Z</time></trkpt><trkpt lat="41.341105" lon="0.6421167"><ele>358.0</ele><time>2026-03-31T16:36:15.159Z</time></trkpt><trkpt lat="41.3411683" lon="0.6422683"><ele>358.0</ele><time>2026-03-31T16:36:16.16Z</time></trkpt><trkpt lat="41.34125" lon="0.6423767"><ele>356.75</ele><time>2026-03-31T16:36:17.159Z</time></trkpt><trkpt lat="41.34135" lon="0.6424367"><ele>355.5</ele><time>2026-03-31T16:36:18.159Z</time></trkpt><trkpt lat="41.341455" lon="0.6424233"><ele>354.25</ele><time>2026-03-31T16:36:19.159Z</time></trkpt><trkpt lat="41.3415633" lon="0.64237"><ele>353.0</ele><time>2026-03-31T16:36:20.16Z</time></trkpt><trkpt lat="41.3416717" lon="0.6422883"><ele>356.5</ele><time>2026-03-31T16:36:21.159Z</time></trkpt><trkpt lat="41.341785" lon="0.6421983"><ele>360.0</ele><time>2026-03-31T16:36:22.159Z</time></trkpt><trkpt lat="41.341905" lon="0.64211"><ele>363.5</ele><time>2026-03-31T16:36:23.16Z</time></trkpt><trkpt lat="41.3420283" lon="0.642025"><ele>367.0</ele><time>2026-03-31T16:36:24.16Z</time></trkpt><trkpt lat="41.342155" lon="0.6419417"><ele>370.25</ele><time>2026-03-31T16:36:25.159Z</time></trkpt><trkpt lat="41.3422783" lon="0.641865"><ele>373.5</ele><time>2026-03-31T16:36:26.159Z</time></trkpt><trkpt lat="41.342395" lon="0.6418133"><ele>376.75</ele><time>2026-03-31T16:36:27.159Z</time></trkpt><trkpt lat="41.3425233" lon="0.6418167"><ele>380.0</ele><time>2026-03-31T16:36:28.159Z</time></trkpt><trkpt lat="41.3426567" lon="0.6418817"><ele>379.33333333333337</ele><time>2026-03-31T16:36:29.16Z</time></trkpt><trkpt lat="41.3427883" lon="0.6419833"><ele>378.6666666666667</ele><time>2026-03-31T16:36:30.159Z</time></trkpt><trkpt lat="41.342925" lon="0.6420783"><ele>378.0</ele><time>2026-03-31T16:36:31.159Z</time></trkpt><trkpt lat="41.3430717" lon="0.6421433"><ele>378.0</ele><time>2026-03-31T16:36:32.159Z</time></trkpt><trkpt lat="41.3432267" lon="0.6421783"><ele>378.0</ele><time>2026-03-31T16:36:33.16Z</time></trkpt><trkpt lat="41.3433833" lon="0.6422183"><ele>378.0</ele><time>2026-03-31T16:36:34.159Z</time></trkpt><trkpt lat="41.3435467" lon="0.6422583"><ele>378.0</ele><time>2026-03-31T16:36:35.16Z</time></trkpt><trkpt lat="41.343715" lon="0.6423017"><ele>378.0</ele><time>2026-03-31T16:36:36.159Z</time></trkpt><trkpt lat="41.34387" lon="0.6423383"><ele>378.0</ele><time>2026-03-31T16:36:37.16Z</time></trkpt><trkpt lat="41.34403" lon="0.6424117"><ele>380.66666666666663</ele><time>2026-03-31T16:36:38.16Z</time></trkpt><trkpt lat="41.34417" lon="0.64253"><ele>383.3333333333333</ele><time>2026-03-31T16:36:39.159Z</time></trkpt><trkpt lat="41.3442833" lon="0.6426833"><ele>386.0</ele><time>2026-03-31T16:36:40.16Z</time></trkpt><trkpt lat="41.34438" lon="0.6428633"><ele>386.0</ele><time>2026-03-31T16:36:41.16Z</time></trkpt><trkpt lat="41.3444767" lon="0.6430533"><ele>386.0</ele><time>2026-03-31T16:36:42.159Z</time></trkpt><trkpt lat="41.3445783" lon="0.64324"><ele>386.0</ele><time>2026-03-31T16:36:43.16Z</time></trkpt><trkpt lat="41.3446817" lon="0.6434233"><ele>389.66666666666663</ele><time>2026-03-31T16:36:44.159Z</time></trkpt><trkpt lat="41.3447817" lon="0.6435967"><ele>393.33333333333337</ele><time>2026-03-31T16:36:45.159Z</time></trkpt><trkpt lat="41.344865" lon="0.6437617"><ele>397.0</ele><time>2026-03-31T16:36:46.159Z</time></trkpt><trkpt lat="41.344945" lon="0.64391"><ele>397.0</ele><time>2026-03-31T16:36:47.16Z</time></trkpt><trkpt lat="41.3450283" lon="0.644025"><ele>397.0</ele><time>2026-03-31T16:36:48.159Z</time></trkpt><trkpt lat="41.3451267" lon="0.6440983"><ele>397.0</ele><time>2026-03-31T16:36:49.159Z</time></trkpt><trkpt lat="41.3452367" lon="0.6441183"><ele>397.0</ele><time>2026-03-31T16:36:50.159Z</time></trkpt><trkpt lat="41.3453533" lon="0.6440983"><ele>397.0</ele><time>2026-03-31T16:36:51.16Z</time></trkpt><trkpt lat="41.345485" lon="0.6440467"><ele>397.0</ele><time>2026-03-31T16:36:52.16Z</time></trkpt><trkpt lat="41.3456233" lon="0.6439983"><ele>397.0</ele><time>2026-03-31T16:36:53.16Z</time></trkpt><trkpt lat="41.3457717" lon="0.643935"><ele>397.0</ele><time>2026-03-31T16:36:54.16Z</time></trkpt><trkpt lat="41.3459167" lon="0.64388"><ele>396.25</ele><time>2026-03-31T16:36:55.159Z</time></trkpt><trkpt lat="41.346055" lon="0.64382"><ele>395.5</ele><time>2026-03-31T16:36:56.16Z</time></trkpt><trkpt lat="41.3461917" lon="0.64375"><ele>394.75</ele><time>2026-03-31T16:36:57.159Z</time></trkpt><trkpt lat="41.3463083" lon="0.6436783"><ele>394.0</ele><time>2026-03-31T16:36:58.159Z</time></trkpt><trkpt lat="41.34643" lon="0.6436167"><ele>393.6</ele><time>2026-03-31T16:36:59.16Z</time></trkpt><trkpt lat="41.3465367" lon="0.6436017"><ele>393.2</ele><time>2026-03-31T16:37:00.16Z</time></trkpt><trkpt lat="41.3466367" lon="0.6436333"><ele>392.8</ele><time>2026-03-31T16:37:01.16Z</time></trkpt><trkpt lat="41.3467183" lon="0.64373"><ele>392.40000000000003</ele><time>2026-03-31T16:37:02.16Z</time></trkpt><trkpt lat="41.346795" lon="0.6438517"><ele>392.0</ele><time>2026-03-31T16:37:03.16Z</time></trkpt><trkpt lat="41.346885" lon="0.6439683"><ele>392.0</ele><time>2026-03-31T16:37:04.159Z</time></trkpt><trkpt lat="41.3470067" lon="0.6440667"><ele>392.0</ele><time>2026-03-31T16:37:05.16Z</time></trkpt><trkpt lat="41.3471233" lon="0.64415"><ele>392.0</ele><time>2026-03-31T16:37:06.16Z</time></trkpt><trkpt lat="41.3472333" lon="0.6442517"><ele>392.0</ele><time>2026-03-31T16:37:07.159Z</time></trkpt><trkpt lat="41.347315" lon="0.6443583"><ele>396.5</ele><time>2026-03-31T16:37:08.16Z</time></trkpt><trkpt lat="41.347365" lon="0.6444967"><ele>401.0</ele><time>2026-03-31T16:37:09.159Z</time></trkpt><trkpt lat="41.34736" lon="0.6446467"><ele>405.5</ele><time>2026-03-31T16:37:10.16Z</time></trkpt><trkpt lat="41.3473017" lon="0.6448017"><ele>410.0</ele><time>2026-03-31T16:37:11.159Z</time></trkpt><trkpt lat="41.3472233" lon="0.64495"><ele>403.5</ele><time>2026-03-31T16:37:12.159Z</time></trkpt><trkpt lat="41.3471633" lon="0.6450983"><ele>397.0</ele><time>2026-03-31T16:37:13.16Z</time></trkpt><trkpt lat="41.3471267" lon="0.6452567"><ele>390.5</ele><time>2026-03-31T16:37:14.159Z</time></trkpt><trkpt lat="41.3471317" lon="0.6454233"><ele>384.0</ele><time>2026-03-31T16:37:15.16Z</time></trkpt><trkpt lat="41.3471717" lon="0.6455867"><ele>387.75</ele><time>2026-03-31T16:37:16.16Z</time></trkpt><trkpt lat="41.34725" lon="0.64572"><ele>391.5</ele><time>2026-03-31T16:37:17.159Z</time></trkpt><trkpt lat="41.3473483" lon="0.6458283"><ele>395.25</ele><time>2026-03-31T16:37:18.16Z</time></trkpt><trkpt lat="41.3474583" lon="0.645895"><ele>399.0</ele><time>2026-03-31T16:37:19.16Z</time></trkpt><trkpt lat="41.3475783" lon="0.64591"><ele>399.0</ele><time>2026-03-31T16:37:20.159Z</time></trkpt><trkpt lat="41.3476967" lon="0.645875"><ele>399.0</ele><time>2026-03-31T16:37:21.16Z</time></trkpt><trkpt lat="41.3478267" lon="0.6458233"><ele>399.0</ele><time>2026-03-31T16:37:22.16Z</time></trkpt><trkpt lat="41.347955" lon="0.6457683"><ele>399.0</ele><time>2026-03-31T16:37:23.16Z</time></trkpt><trkpt lat="41.3480767" lon="0.64569"><ele>399.25</ele><time>2026-03-31T16:37:24.16Z</time></trkpt><trkpt lat="41.3481917" lon="0.64558"><ele>399.5</ele><time>2026-03-31T16:37:25.159Z</time></trkpt><trkpt lat="41.3483183" lon="0.6454717"><ele>399.75</ele><time>2026-03-31T16:37:26.159Z</time></trkpt><trkpt lat="41.3484483" lon="0.64539"><ele>400.0</ele><time>2026-03-31T16:37:27.16Z</time></trkpt><trkpt lat="41.3485917" lon="0.6453317"><ele>406.0</ele><time>2026-03-31T16:37:28.159Z</time></trkpt><trkpt lat="41.3487333" lon="0.64527"><ele>412.0</ele><time>2026-03-31T16:37:29.159Z</time></trkpt><trkpt lat="41.34886" lon="0.6452317"><ele>418.0</ele><time>2026-03-31T16:37:30.16Z</time></trkpt><trkpt lat="41.3489783" lon="0.6452017"><ele>424.0</ele><time>2026-03-31T16:37:31.16Z</time></trkpt><trkpt lat="41.3490783" lon="0.64521"><ele>424.0</ele><time>2026-03-31T16:37:32.159Z</time></trkpt><trkpt lat="41.3491683" lon="0.6452633"><ele>424.0</ele><time>2026-03-31T16:37:33.159Z</time></trkpt><trkpt lat="41.3492417" lon="0.6453717"><ele>424.0</ele><time>2026-03-31T16:37:34.159Z</time></trkpt><trkpt lat="41.3492733" lon="0.6455033"><ele>424.0</ele><time>2026-03-31T16:37:35.16Z</time></trkpt><trkpt lat="41.3492717" lon="0.6456567"><ele>424.0</ele><time>2026-03-31T16:37:36.159Z</time></trkpt><trkpt lat="41.34922" lon="0.6458083"><ele>423.75</ele><time>2026-03-31T16:37:37.159Z</time></trkpt><trkpt lat="41.3491533" lon="0.6459467"><ele>423.5</ele><time>2026-03-31T16:37:38.159Z</time></trkpt><trkpt lat="41.3490717" lon="0.6460817"><ele>423.25</ele><time>2026-03-31T16:37:39.159Z</time></trkpt><trkpt lat="41.349025" lon="0.6462467"><ele>423.0</ele><time>2026-03-31T16:37:40.16Z</time></trkpt><trkpt lat="41.3490033" lon="0.6464333"><ele>423.0</ele><time>2026-03-31T16:37:41.159Z</time></trkpt><trkpt lat="41.3489917" lon="0.6466267"><ele>423.0</ele><time>2026-03-31T16:37:42.16Z</time></trkpt><trkpt lat="41.348975" lon="0.6468333"><ele>423.0</ele><time>2026-03-31T16:37:43.16Z</time></trkpt><trkpt lat="41.3489417" lon="0.6470417"><ele>427.66666666666663</ele><time>2026-03-31T16:37:44.16Z</time></trkpt><trkpt lat="41.3488767" lon="0.6472217"><ele>432.3333333333333</ele><time>2026-03-31T16:37:45.159Z</time></trkpt><trkpt lat="41.348805" lon="0.6474167"><ele>437.0</ele><time>2026-03-31T16:37:46.16Z</time></trkpt><trkpt lat="41.348735" lon="0.647605"><ele>427.66666666666663</ele><time>2026-03-31T16:37:47.159Z</time></trkpt><trkpt lat="41.3486767" lon="0.6477967"><ele>418.33333333333337</ele><time>2026-03-31T16:37:48.159Z</time></trkpt><trkpt lat="41.348645" lon="0.6479883"><ele>409.0</ele><time>2026-03-31T16:37:49.159Z</time></trkpt><trkpt lat="41.3486333" lon="0.6482"><ele>409.0</ele><time>2026-03-31T16:37:50.159Z</time></trkpt><trkpt lat="41.3486317" lon="0.6484017"><ele>409.0</ele><time>2026-03-31T16:37:51.16Z</time></trkpt><trkpt lat="41.3486317" lon="0.648585"><ele>409.0</ele><time>2026-03-31T16:37:52.16Z</time></trkpt><trkpt lat="41.3486333" lon="0.6487417"><ele>409.0</ele><time>2026-03-31T16:37:53.16Z</time></trkpt><trkpt lat="41.3486133" lon="0.6488933"><ele>414.25</ele><time>2026-03-31T16:37:54.159Z</time></trkpt><trkpt lat="41.3485583" lon="0.6490267"><ele>419.5</ele><time>2026-03-31T16:37:55.159Z</time></trkpt><trkpt lat="41.3484733" lon="0.6491217"><ele>424.75</ele><time>2026-03-31T16:37:56.16Z</time></trkpt><trkpt lat="41.348355" lon="0.6492"><ele>430.0</ele><time>2026-03-31T16:37:57.159Z</time></trkpt><trkpt lat="41.3482183" lon="0.64927"><ele>430.0</ele><time>2026-03-31T16:37:58.16Z</time></trkpt><trkpt lat="41.3480783" lon="0.64933"><ele>430.0</ele><time>2026-03-31T16:37:59.159Z</time></trkpt><trkpt lat="41.3479283" lon="0.6493433"><ele>430.0</ele><time>2026-03-31T16:38:00.16Z</time></trkpt><trkpt lat="41.3477817" lon="0.6493283"><ele>430.0</ele><time>2026-03-31T16:38:01.159Z</time></trkpt><trkpt lat="41.3476233" lon="0.6492983"><ele>428.33333333333337</ele><time>2026-03-31T16:38:02.16Z</time></trkpt><trkpt lat="41.3474683" lon="0.6492683"><ele>426.66666666666663</ele><time>2026-03-31T16:38:03.16Z</time></trkpt><trkpt lat="41.3473167" lon="0.6492383"><ele>425.0</ele><time>2026-03-31T16:38:04.16Z</time></trkpt><trkpt lat="41.3471667" lon="0.6492183"><ele>424.0</ele><time>2026-03-31T16:38:05.16Z</time></trkpt><trkpt lat="41.347035" lon="0.649235"><ele>423.0</ele><time>2026-03-31T16:38:06.159Z</time></trkpt><trkpt lat="41.34691" lon="0.6492933"><ele>422.0</ele><time>2026-03-31T16:38:07.16Z</time></trkpt><trkpt lat="41.3468017" lon="0.6494017"><ele>421.0</ele><time>2026-03-31T16:38:08.159Z</time></trkpt><trkpt lat="41.3467" lon="0.64953"><ele>428.33333333333337</ele><time>2026-03-31T16:38:09.16Z</time></trkpt><trkpt lat="41.346615" lon="0.6496783"><ele>435.66666666666663</ele><time>2026-03-31T16:38:10.16Z</time></trkpt><trkpt lat="41.346535" lon="0.6498483"><ele>443.0</ele><time>2026-03-31T16:38:11.159Z</time></trkpt><trkpt lat="41.346465" lon="0.6500383"><ele>443.0</ele><time>2026-03-31T16:38:12.159Z</time></trkpt><trkpt lat="41.3463983" lon="0.6502183"><ele>443.0</ele><time>2026-03-31T16:38:13.16Z</time></trkpt><trkpt lat="41.3463133" lon="0.650405"><ele>443.0</ele><time>2026-03-31T16:38:14.159Z</time></trkpt><trkpt lat="41.3462033" lon="0.6505767"><ele>439.3333333333333</ele><time>2026-03-31T16:38:15.16Z</time></trkpt><trkpt lat="41.3460783" lon="0.6507333"><ele>435.66666666666663</ele><time>2026-03-31T16:38:16.16Z</time></trkpt><trkpt lat="41.3459467" lon="0.65086"><ele>432.0</ele><time>2026-03-31T16:38:17.159Z</time></trkpt><trkpt lat="41.3458033" lon="0.6509783"><ele>432.0</ele><time>2026-03-31T16:38:18.159Z</time></trkpt><trkpt lat="41.3456767" lon="0.6510967"><ele>432.0</ele><time>2026-03-31T16:38:19.16Z</time></trkpt><trkpt lat="41.3455817" lon="0.651205"><ele>432.0</ele><time>2026-03-31T16:38:20.16Z</time></trkpt><trkpt lat="41.345515" lon="0.6512983"><ele>432.0</ele><time>2026-03-31T16:38:21.16Z</time></trkpt><trkpt lat="41.34549" lon="0.6513933"><ele>433.8</ele><time>2026-03-31T16:38:22.16Z</time></trkpt><trkpt lat="41.3455017" lon="0.6514933"><ele>435.6</ele><time>2026-03-31T16:38:23.159Z</time></trkpt><trkpt lat="41.3455333" lon="0.6515883"><ele>437.40000000000003</ele><time>2026-03-31T16:38:24.16Z</time></trkpt><trkpt lat="41.345595" lon="0.6516833"><ele>439.20000000000005</ele><time>2026-03-31T16:38:25.16Z</time></trkpt><trkpt lat="41.3456933" lon="0.6517533"><ele>441.0</ele><time>2026-03-31T16:38:26.159Z</time></trkpt><trkpt lat="41.345825" lon="0.6518017"><ele>441.0</ele><time>2026-03-31T16:38:27.159Z</time></trkpt><trkpt lat="41.345985" lon="0.6518333"><ele>441.0</ele><time>2026-03-31T16:38:28.159Z</time></trkpt><trkpt lat="41.3461317" lon="0.651875"><ele>441.0</ele><time>2026-03-31T16:38:29.159Z</time></trkpt><trkpt lat="41.3462683" lon="0.6519317"><ele>440.75</ele><time>2026-03-31T16:38:30.16Z</time></trkpt><trkpt lat="41.3464" lon="0.6519867"><ele>440.5</ele><time>2026-03-31T16:38:31.159Z</time></trkpt><trkpt lat="41.3465333" lon="0.6520467"><ele>440.25</ele><time>2026-03-31T16:38:32.159Z</time></trkpt><trkpt lat="41.3466717" lon="0.6521133"><ele>440.0</ele><time>2026-03-31T16:38:33.16Z</time></trkpt><trkpt lat="41.34681" lon="0.6521817"><ele>440.0</ele><time>2026-03-31T16:38:34.159Z</time></trkpt><trkpt lat="41.3469567" lon="0.6522317"><ele>440.0</ele><time>2026-03-31T16:38:35.159Z</time></trkpt><trkpt lat="41.347105" lon="0.652265"><ele>440.0</ele><time>2026-03-31T16:38:36.159Z</time></trkpt><trkpt lat="41.3472417" lon="0.65231"><ele>440.0</ele><time>2026-03-31T16:38:37.159Z</time></trkpt><trkpt lat="41.3473733" lon="0.6523667"><ele>440.75</ele><time>2026-03-31T16:38:38.159Z</time></trkpt><trkpt lat="41.3474817" lon="0.6524783"><ele>441.5</ele><time>2026-03-31T16:38:39.16Z</time></trkpt><trkpt lat="41.3475733" lon="0.6526167"><ele>442.25</ele><time>2026-03-31T16:38:40.16Z</time></trkpt><trkpt lat="41.3476617" lon="0.65278"><ele>443.0</ele><time>2026-03-31T16:38:41.16Z</time></trkpt><trkpt lat="41.3477517" lon="0.6529433"><ele>443.0</ele><time>2026-03-31T16:38:42.159Z</time></trkpt><trkpt lat="41.3478567" lon="0.6530933"><ele>443.0</ele><time>2026-03-31T16:38:43.16Z</time></trkpt><trkpt lat="41.34797" lon="0.65325"><ele>443.0</ele><time>2026-03-31T16:38:44.159Z</time></trkpt><trkpt lat="41.3480617" lon="0.6534217"><ele>449.25</ele><time>2026-03-31T16:38:45.16Z</time></trkpt><trkpt lat="41.348145" lon="0.6535867"><ele>455.5</ele><time>2026-03-31T16:38:46.16Z</time></trkpt><trkpt lat="41.34823" lon="0.6537317"><ele>461.75</ele><time>2026-03-31T16:38:47.159Z</time></trkpt><trkpt lat="41.3483283" lon="0.6538733"><ele>468.0</ele><time>2026-03-31T16:38:48.159Z</time></trkpt><trkpt lat="41.3484033" lon="0.6539967"><ele>468.0</ele><time>2026-03-31T16:38:49.159Z</time></trkpt><trkpt lat="41.348445" lon="0.6541467"><ele>468.0</ele><time>2026-03-31T16:38:50.159Z</time></trkpt><trkpt lat="41.3484533" lon="0.6543183"><ele>468.0</ele><time>2026-03-31T16:38:51.16Z</time></trkpt><trkpt lat="41.348435" lon="0.654485"><ele>468.0</ele><time>2026-03-31T16:38:52.16Z</time></trkpt><trkpt lat="41.3483767" lon="0.6546417"><ele>470.75</ele><time>2026-03-31T16:38:53.16Z</time></trkpt><trkpt lat="41.3483" lon="0.6548017"><ele>473.5</ele><time>2026-03-31T16:38:54.159Z</time></trkpt><trkpt lat="41.34822" lon="0.6549717"><ele>476.25</ele><time>2026-03-31T16:38:55.16Z</time></trkpt><trkpt lat="41.34815" lon="0.6551483"><ele>479.0</ele><time>2026-03-31T16:38:56.159Z</time></trkpt><trkpt lat="41.348065" lon="0.6552883"><ele>478.75</ele><time>2026-03-31T16:38:57.16Z</time></trkpt><trkpt lat="41.3479617" lon="0.6553917"><ele>478.5</ele><time>2026-03-31T16:38:58.159Z</time></trkpt><trkpt lat="41.3478333" lon="0.6554667"><ele>478.25</ele><time>2026-03-31T16:38:59.16Z</time></trkpt><trkpt lat="41.3476967" lon="0.6555133"><ele>478.0</ele><time>2026-03-31T16:39:00.159Z</time></trkpt><trkpt lat="41.3475717" lon="0.655515"><ele>478.0</ele><time>2026-03-31T16:39:01.16Z</time></trkpt><trkpt lat="41.34746" lon="0.6555017"><ele>478.0</ele><time>2026-03-31T16:39:02.159Z</time></trkpt><trkpt lat="41.3473617" lon="0.6555283"><ele>478.0</ele><time>2026-03-31T16:39:03.159Z</time></trkpt><trkpt lat="41.3472633" lon="0.6556133"><ele>478.0</ele><time>2026-03-31T16:39:04.16Z</time></trkpt><trkpt lat="41.3471767" lon="0.655735"><ele>476.5</ele><time>2026-03-31T16:39:05.159Z</time></trkpt><trkpt lat="41.3470967" lon="0.6558783"><ele>475.0</ele><time>2026-03-31T16:39:06.159Z</time></trkpt><trkpt lat="41.34701" lon="0.656015"><ele>473.5</ele><time>2026-03-31T16:39:07.159Z</time></trkpt><trkpt lat="41.3469117" lon="0.6561217"><ele>472.0</ele><time>2026-03-31T16:39:08.159Z</time></trkpt><trkpt lat="41.3467933" lon="0.6561767"><ele>472.0</ele><time>2026-03-31T16:39:09.159Z</time></trkpt><trkpt lat="41.3466967" lon="0.65623"><ele>472.00000000000006</ele><time>2026-03-31T16:39:10.159Z</time></trkpt><trkpt lat="41.34662" lon="0.6562933"><ele>472.00000000000006</ele><time>2026-03-31T16:39:11.16Z</time></trkpt><trkpt lat="41.3465667" lon="0.6563767"><ele>472.0</ele><time>2026-03-31T16:39:12.159Z</time></trkpt><trkpt lat="41.3465467" lon="0.656485"><ele>472.0</ele><time>2026-03-31T16:39:13.16Z</time></trkpt><trkpt lat="41.346575" lon="0.6566083"><ele>472.0</ele><time>2026-03-31T16:39:14.16Z</time></trkpt><trkpt lat="41.3466467" lon="0.6567483"><ele>472.0</ele><time>2026-03-31T16:39:15.16Z</time></trkpt><trkpt lat="41.3467317" lon="0.656915"><ele>472.0</ele><time>2026-03-31T16:39:16.16Z</time></trkpt><trkpt lat="41.3467933" lon="0.657075"><ele>472.0</ele><time>2026-03-31T16:39:17.16Z</time></trkpt><trkpt lat="41.3468317" lon="0.6572567"><ele>470.0</ele><time>2026-03-31T16:39:18.16Z</time></trkpt><trkpt lat="41.3468567" lon="0.6574333"><ele>468.0</ele><time>2026-03-31T16:39:19.159Z</time></trkpt><trkpt lat="41.34689" lon="0.6576"><ele>466.0</ele><time>2026-03-31T16:39:20.16Z</time></trkpt><trkpt lat="41.3469467" lon="0.6577483"><ele>464.0</ele><time>2026-03-31T16:39:21.16Z</time></trkpt><trkpt lat="41.3470267" lon="0.6578483"><ele>461.75</ele><time>2026-03-31T16:39:22.159Z</time></trkpt><trkpt lat="41.34713" lon="0.657925"><ele>459.5</ele><time>2026-03-31T16:39:23.159Z</time></trkpt><trkpt lat="41.34724" lon="0.6579733"><ele>457.25</ele><time>2026-03-31T16:39:24.159Z</time></trkpt><trkpt lat="41.347345" lon="0.6580433"><ele>455.0</ele><time>2026-03-31T16:39:25.159Z</time></trkpt><trkpt lat="41.3474217" lon="0.6581617"><ele>464.0</ele><time>2026-03-31T16:39:26.16Z</time></trkpt><trkpt lat="41.3474667" lon="0.6583117"><ele>473.0</ele><time>2026-03-31T16:39:27.16Z</time></trkpt><trkpt lat="41.3474767" lon="0.65848"><ele>482.0</ele><time>2026-03-31T16:39:28.159Z</time></trkpt><trkpt lat="41.3474767" lon="0.6586517"><ele>491.0</ele><time>2026-03-31T16:39:29.16Z</time></trkpt><trkpt lat="41.3474667" lon="0.6588217"><ele>491.75</ele><time>2026-03-31T16:39:30.159Z</time></trkpt><trkpt lat="41.3474333" lon="0.658985"><ele>492.5</ele><time>2026-03-31T16:39:31.159Z</time></trkpt><trkpt lat="41.3473567" lon="0.65912"><ele>493.25</ele><time>2026-03-31T16:39:32.159Z</time></trkpt><trkpt lat="41.3472667" lon="0.6592267"><ele>494.0</ele><time>2026-03-31T16:39:33.159Z</time></trkpt><trkpt lat="41.3471883" lon="0.65933"><ele>494.16666666666663</ele><time>2026-03-31T16:39:34.159Z</time></trkpt><trkpt lat="41.347135" lon="0.6594233"><ele>494.3333333333333</ele><time>2026-03-31T16:39:35.159Z</time></trkpt><trkpt lat="41.347115" lon="0.65952"><ele>494.5</ele><time>2026-03-31T16:39:36.159Z</time></trkpt><trkpt lat="41.3471383" lon="0.6596033"><ele>494.66666666666663</ele><time>2026-03-31T16:39:37.16Z</time></trkpt><trkpt lat="41.3471983" lon="0.6596767"><ele>494.8333333333333</ele><time>2026-03-31T16:39:38.159Z</time></trkpt><trkpt lat="41.3472967" lon="0.6597417"><ele>495.0</ele><time>2026-03-31T16:39:39.159Z</time></trkpt><trkpt lat="41.3474033" lon="0.6598333"><ele>495.0</ele><time>2026-03-31T16:39:40.159Z</time></trkpt><trkpt lat="41.3474717" lon="0.6599567"><ele>495.0</ele><time>2026-03-31T16:39:41.159Z</time></trkpt><trkpt lat="41.3475017" lon="0.6601167"><ele>495.0</ele><time>2026-03-31T16:39:42.159Z</time></trkpt><trkpt lat="41.3475083" lon="0.6602767"><ele>495.0</ele><time>2026-03-31T16:39:43.16Z</time></trkpt><trkpt lat="41.3474967" lon="0.660445"><ele>493.2</ele><time>2026-03-31T16:39:44.159Z</time></trkpt><trkpt lat="41.3475017" lon="0.660615"><ele>491.4</ele><time>2026-03-31T16:39:45.159Z</time></trkpt><trkpt lat="41.347525" lon="0.6607633"><ele>489.6</ele><time>2026-03-31T16:39:46.159Z</time></trkpt><trkpt lat="41.347565" lon="0.6608783"><ele>487.8</ele><time>2026-03-31T16:39:47.16Z</time></trkpt><trkpt lat="41.347635" lon="0.66095"><ele>486.0</ele><time>2026-03-31T16:39:48.159Z</time></trkpt><trkpt lat="41.34773" lon="0.6609967"><ele>486.0</ele><time>2026-03-31T16:39:49.159Z</time></trkpt><trkpt lat="41.34784" lon="0.660975"><ele>486.0</ele><time>2026-03-31T16:39:50.159Z</time></trkpt><trkpt lat="41.3479583" lon="0.6609467"><ele>486.0</ele><time>2026-03-31T16:39:51.16Z</time></trkpt><trkpt lat="41.3480617" lon="0.660975"><ele>486.0</ele><time>2026-03-31T16:39:52.159Z</time></trkpt><trkpt lat="41.3481283" lon="0.6610517"><ele>486.0</ele><time>2026-03-31T16:39:53.159Z</time></trkpt><trkpt lat="41.3481583" lon="0.66117"><ele>492.25</ele><time>2026-03-31T16:39:54.159Z</time></trkpt><trkpt lat="41.3481633" lon="0.6613083"><ele>498.5</ele><time>2026-03-31T16:39:55.16Z</time></trkpt><trkpt lat="41.3481517" lon="0.6614717"><ele>504.75</ele><time>2026-03-31T16:39:56.159Z</time></trkpt><trkpt lat="41.3481233" lon="0.661665"><ele>511.0</ele><time>2026-03-31T16:39:57.16Z</time></trkpt><trkpt lat="41.348105" lon="0.6618717"><ele>511.25</ele><time>2026-03-31T16:39:58.16Z</time></trkpt><trkpt lat="41.348095" lon="0.66207"><ele>511.5</ele><time>2026-03-31T16:39:59.16Z</time></trkpt><trkpt lat="41.3480883" lon="0.6622533"><ele>511.75</ele><time>2026-03-31T16:40:00.159Z</time></trkpt><trkpt lat="41.34811" lon="0.6624333"><ele>512.0</ele><time>2026-03-31T16:40:01.159Z</time></trkpt><trkpt lat="41.34814" lon="0.6626033"><ele>512.0</ele><time>2026-03-31T16:40:02.159Z</time></trkpt><trkpt lat="41.3481917" lon="0.6627717"><ele>512.0</ele><time>2026-03-31T16:40:03.159Z</time></trkpt><trkpt lat="41.3482617" lon="0.6629233"><ele>512.0</ele><time>2026-03-31T16:40:04.16Z</time></trkpt><trkpt lat="41.348315" lon="0.663065"><ele>512.0</ele><time>2026-03-31T16:40:05.159Z</time></trkpt><trkpt lat="41.3483333" lon="0.6632217"><ele>513.25</ele><time>2026-03-31T16:40:06.16Z</time></trkpt><trkpt lat="41.3483017" lon="0.6633733"><ele>514.5</ele><time>2026-03-31T16:40:07.159Z</time></trkpt><trkpt lat="41.3482333" lon="0.6635067"><ele>515.75</ele><time>2026-03-31T16:40:08.159Z</time></trkpt><trkpt lat="41.3481433" lon="0.6636217"><ele>517.0</ele><time>2026-03-31T16:40:09.16Z</time></trkpt><trkpt lat="41.348035" lon="0.6637067"><ele>514.8000000000001</ele><time>2026-03-31T16:40:10.16Z</time></trkpt><trkpt lat="41.3479267" lon="0.6637783"><ele>512.6</ele><time>2026-03-31T16:40:11.159Z</time></trkpt><trkpt lat="41.3478267" lon="0.663835"><ele>510.40000000000003</ele><time>2026-03-31T16:40:12.16Z</time></trkpt><trkpt lat="41.3477517" lon="0.6639183"><ele>508.20000000000005</ele><time>2026-03-31T16:40:13.159Z</time></trkpt><trkpt lat="41.3477117" lon="0.66403"><ele>506.0</ele><time>2026-03-31T16:40:14.16Z</time></trkpt><trkpt lat="41.3477217" lon="0.66415"><ele>506.0</ele><time>2026-03-31T16:40:15.159Z</time></trkpt><trkpt lat="41.3477733" lon="0.66425"><ele>506.0</ele><time>2026-03-31T16:40:16.16Z</time></trkpt><trkpt lat="41.3478533" lon="0.6643383"><ele>506.0</ele><time>2026-03-31T16:40:17.159Z</time></trkpt><trkpt lat="41.3479667" lon="0.6644067"><ele>506.0</ele><time>2026-03-31T16:40:18.159Z</time></trkpt><trkpt lat="41.3480967" lon="0.664485"><ele>511.5</ele><time>2026-03-31T16:40:19.16Z</time></trkpt><trkpt lat="41.34819" lon="0.6645917"><ele>517.0</ele><time>2026-03-31T16:40:20.159Z</time></trkpt><trkpt lat="41.348235" lon="0.6647317"><ele>522.5</ele><time>2026-03-31T16:40:21.159Z</time></trkpt><trkpt lat="41.3482317" lon="0.66489"><ele>528.0</ele><time>2026-03-31T16:40:22.159Z</time></trkpt><trkpt lat="41.3481983" lon="0.6650433"><ele>528.0</ele><time>2026-03-31T16:40:23.159Z</time></trkpt><trkpt lat="41.3481817" lon="0.6652133"><ele>528.0</ele><time>2026-03-31T16:40:24.159Z</time></trkpt><trkpt lat="41.348195" lon="0.6653767"><ele>528.0</ele><time>2026-03-31T16:40:25.158Z</time></trkpt><trkpt lat="41.34821" lon="0.665545"><ele>528.0</ele><time>2026-03-31T16:40:26.158Z</time></trkpt><trkpt lat="41.3482283" lon="0.6657"><ele>528.4</ele><time>2026-03-31T16:40:27.158Z</time></trkpt><trkpt lat="41.3482483" lon="0.6658467"><ele>528.8</ele><time>2026-03-31T16:40:28.158Z</time></trkpt><trkpt lat="41.348275" lon="0.66598"><ele>529.2</ele><time>2026-03-31T16:40:29.159Z</time></trkpt><trkpt lat="41.3482983" lon="0.6661067"><ele>529.6</ele><time>2026-03-31T16:40:30.158Z</time></trkpt><trkpt lat="41.3482933" lon="0.6662417"><ele>530.0</ele><time>2026-03-31T16:40:31.159Z</time></trkpt><trkpt lat="41.3482683" lon="0.6663717"><ele>530.8</ele><time>2026-03-31T16:40:32.158Z</time></trkpt><trkpt lat="41.3482267" lon="0.6664933"><ele>531.6</ele><time>2026-03-31T16:40:33.158Z</time></trkpt><trkpt lat="41.3481833" lon="0.666605"><ele>532.4</ele><time>2026-03-31T16:40:34.158Z</time></trkpt><trkpt lat="41.3481333" lon="0.6666917"><ele>533.2</ele><time>2026-03-31T16:40:35.158Z</time></trkpt><trkpt lat="41.3480833" lon="0.666765"><ele>534.0</ele><time>2026-03-31T16:40:36.159Z</time></trkpt><trkpt lat="41.3480033" lon="0.6668867"><ele>530.0</ele><time>2026-03-31T16:40:38.158Z</time></trkpt><trkpt lat="41.3479483" lon="0.667035"><ele>526.0</ele><time>2026-03-31T16:40:40.159Z</time></trkpt><trkpt lat="41.3479317" lon="0.6671283"><ele>522.0</ele><time>2026-03-31T16:40:41.158Z</time></trkpt><trkpt lat="41.3479133" lon="0.6672117"><ele>518.0</ele><time>2026-03-31T16:40:42.159Z</time></trkpt><trkpt lat="41.3479033" lon="0.6672983"><ele>514.0</ele><time>2026-03-31T16:40:43.158Z</time></trkpt><trkpt lat="41.3479167" lon="0.6674617"><ele>514.0</ele><time>2026-03-31T16:40:45.159Z</time></trkpt><trkpt lat="41.3479417" lon="0.667545"><ele>514.0</ele><time>2026-03-31T16:40:46.159Z</time></trkpt><trkpt lat="41.34797" lon="0.6676217"><ele>514.0</ele><time>2026-03-31T16:40:47.158Z</time></trkpt><trkpt lat="41.34803" lon="0.667745"><ele>514.0</ele><time>2026-03-31T16:40:49.158Z</time></trkpt><trkpt lat="41.3480967" lon="0.667875"><ele>514.0</ele><time>2026-03-31T16:40:51.158Z</time></trkpt><trkpt lat="41.3481617" lon="0.668"><ele>517.6</ele><time>2026-03-31T16:40:53.158Z</time></trkpt><trkpt lat="41.3482267" lon="0.6681217"><ele>521.2</ele><time>2026-03-31T16:40:55.159Z</time></trkpt><trkpt lat="41.3483083" lon="0.66825"><ele>524.8000000000001</ele><time>2026-03-31T16:40:57.158Z</time></trkpt><trkpt lat="41.3483517" lon="0.6683233"><ele>528.4</ele><time>2026-03-31T16:40:58.158Z</time></trkpt><trkpt lat="41.3483933" lon="0.6684033"><ele>532.0</ele><time>2026-03-31T16:40:59.158Z</time></trkpt><trkpt lat="41.3484433" lon="0.668505"><ele>532.0</ele><time>2026-03-31T16:41:00.158Z</time></trkpt><trkpt lat="41.3485" lon="0.6686083"><ele>532.0</ele><time>2026-03-31T16:41:01.158Z</time></trkpt><trkpt lat="41.348565" lon="0.6686983"><ele>532.0</ele><time>2026-03-31T16:41:02.159Z</time></trkpt><trkpt lat="41.3486383" lon="0.6687817"><ele>532.0</ele><time>2026-03-31T16:41:03.158Z</time></trkpt><trkpt lat="41.3487217" lon="0.6688617"><ele>532.0</ele><time>2026-03-31T16:41:04.159Z</time></trkpt><trkpt lat="41.3488167" lon="0.6689483"><ele>532.5</ele><time>2026-03-31T16:41:05.158Z</time></trkpt><trkpt lat="41.3489233" lon="0.6690367"><ele>533.0</ele><time>2026-03-31T16:41:06.158Z</time></trkpt><trkpt lat="41.3490417" lon="0.6691217"><ele>533.5</ele><time>2026-03-31T16:41:07.159Z</time></trkpt><trkpt lat="41.3491633" lon="0.6692017"><ele>534.0</ele><time>2026-03-31T16:41:08.158Z</time></trkpt><trkpt lat="41.3492967" lon="0.6692683"><ele>534.0</ele><time>2026-03-31T16:41:09.158Z</time></trkpt><trkpt lat="41.349435" lon="0.6693233"><ele>534.0</ele><time>2026-03-31T16:41:10.159Z</time></trkpt><trkpt lat="41.3495717" lon="0.6693667"><ele>534.0</ele><time>2026-03-31T16:41:11.159Z</time></trkpt><trkpt lat="41.3497083" lon="0.6693983"><ele>534.0</ele><time>2026-03-31T16:41:12.159Z</time></trkpt><trkpt lat="41.3498367" lon="0.669425"><ele>534.5</ele><time>2026-03-31T16:41:13.159Z</time></trkpt><trkpt lat="41.349965" lon="0.6694617"><ele>535.0</ele><time>2026-03-31T16:41:14.159Z</time></trkpt><trkpt lat="41.3500983" lon="0.6695033"><ele>535.5</ele><time>2026-03-31T16:41:15.158Z</time></trkpt><trkpt lat="41.3502317" lon="0.66954"><ele>536.0</ele><time>2026-03-31T16:41:16.158Z</time></trkpt><trkpt lat="41.350355" lon="0.669575"><ele>536.0</ele><time>2026-03-31T16:41:17.158Z</time></trkpt><trkpt lat="41.350485" lon="0.6696133"><ele>536.0</ele><time>2026-03-31T16:41:18.158Z</time></trkpt><trkpt lat="41.35061" lon="0.6696533"><ele>536.0</ele><time>2026-03-31T16:41:19.158Z</time></trkpt><trkpt lat="41.35074" lon="0.6696933"><ele>536.0</ele><time>2026-03-31T16:41:20.159Z</time></trkpt><trkpt lat="41.3508533" lon="0.669735"><ele>535.75</ele><time>2026-03-31T16:41:21.159Z</time></trkpt><trkpt lat="41.3509733" lon="0.6697667"><ele>535.5</ele><time>2026-03-31T16:41:22.159Z</time></trkpt><trkpt lat="41.3510967" lon="0.6698033"><ele>535.25</ele><time>2026-03-31T16:41:23.158Z</time></trkpt><trkpt lat="41.3512167" lon="0.6698283"><ele>535.0</ele><time>2026-03-31T16:41:24.158Z</time></trkpt><trkpt lat="41.3513317" lon="0.669855"><ele>534.5</ele><time>2026-03-31T16:41:25.158Z</time></trkpt><trkpt lat="41.3514467" lon="0.669885"><ele>534.0</ele><time>2026-03-31T16:41:26.159Z</time></trkpt><trkpt lat="41.3515583" lon="0.6698883"><ele>533.5</ele><time>2026-03-31T16:41:27.158Z</time></trkpt><trkpt lat="41.351665" lon="0.66986"><ele>533.0</ele><time>2026-03-31T16:41:28.158Z</time></trkpt><trkpt lat="41.351775" lon="0.6698167"><ele>533.0</ele><time>2026-03-31T16:41:29.158Z</time></trkpt><trkpt lat="41.35187" lon="0.6697683"><ele>533.0</ele><time>2026-03-31T16:41:30.158Z</time></trkpt><trkpt lat="41.3519617" lon="0.6697217"><ele>533.0</ele><time>2026-03-31T16:41:31.158Z</time></trkpt><trkpt lat="41.3520517" lon="0.66967"><ele>533.0</ele><time>2026-03-31T16:41:32.159Z</time></trkpt><trkpt lat="41.3521417" lon="0.6696317"><ele>533.0</ele><time>2026-03-31T16:41:33.158Z</time></trkpt><trkpt lat="41.3522267" lon="0.6695883"><ele>532.6666666666666</ele><time>2026-03-31T16:41:34.158Z</time></trkpt><trkpt lat="41.3523083" lon="0.6695483"><ele>532.3333333333333</ele><time>2026-03-31T16:41:35.159Z</time></trkpt><trkpt lat="41.352385" lon="0.669515"><ele>532.0</ele><time>2026-03-31T16:41:36.159Z</time></trkpt><trkpt lat="41.3524433" lon="0.66948"><ele>531.6666666666666</ele><time>2026-03-31T16:41:37.158Z</time></trkpt><trkpt lat="41.3525333" lon="0.669425"><ele>531.3333333333334</ele><time>2026-03-31T16:41:39.158Z</time></trkpt><trkpt lat="41.352595" lon="0.6693883"><ele>531.0</ele><time>2026-03-31T16:41:43.158Z</time></trkpt><trkpt lat="41.352695" lon="0.669385"><ele>530.8</ele><time>2026-03-31T16:41:46.159Z</time></trkpt><trkpt lat="41.3527767" lon="0.6693667"><ele>530.6</ele><time>2026-03-31T16:41:48.158Z</time></trkpt><trkpt lat="41.3528417" lon="0.66932"><ele>530.4</ele><time>2026-03-31T16:41:49.159Z</time></trkpt><trkpt lat="41.35291" lon="0.6692517"><ele>530.2</ele><time>2026-03-31T16:41:50.158Z</time></trkpt><trkpt lat="41.3529967" lon="0.6691817"><ele>530.0</ele><time>2026-03-31T16:41:51.158Z</time></trkpt><trkpt lat="41.3531083" lon="0.6691167"><ele>529.25</ele><time>2026-03-31T16:41:52.159Z</time></trkpt><trkpt lat="41.3532267" lon="0.66906"><ele>528.5</ele><time>2026-03-31T16:41:53.159Z</time></trkpt><trkpt lat="41.3533617" lon="0.6690033"><ele>527.75</ele><time>2026-03-31T16:41:54.158Z</time></trkpt><trkpt lat="41.3535" lon="0.6689383"><ele>527.0</ele><time>2026-03-31T16:41:55.158Z</time></trkpt><trkpt lat="41.3536417" lon="0.6688633"><ele>527.0</ele><time>2026-03-31T16:41:56.158Z</time></trkpt><trkpt lat="41.35379" lon="0.6687917"><ele>527.0</ele><time>2026-03-31T16:41:57.158Z</time></trkpt><trkpt lat="41.35394" lon="0.6687017"><ele>527.0</ele><time>2026-03-31T16:41:58.159Z</time></trkpt><trkpt lat="41.3540933" lon="0.668615"><ele>526.3333333333333</ele><time>2026-03-31T16:41:59.159Z</time></trkpt><trkpt lat="41.354255" lon="0.6685333"><ele>525.6666666666666</ele><time>2026-03-31T16:42:00.158Z</time></trkpt><trkpt lat="41.3544083" lon="0.66845"><ele>525.0</ele><time>2026-03-31T16:42:01.158Z</time></trkpt><trkpt lat="41.3545683" lon="0.6683667"><ele>523.3333333333334</ele><time>2026-03-31T16:42:02.158Z</time></trkpt><trkpt lat="41.3547283" lon="0.668285"><ele>521.6666666666667</ele><time>2026-03-31T16:42:03.158Z</time></trkpt><trkpt lat="41.3548683" lon="0.668195"><ele>520.0</ele><time>2026-03-31T16:42:04.159Z</time></trkpt><trkpt lat="41.3549983" lon="0.6680867"><ele>520.0</ele><time>2026-03-31T16:42:05.159Z</time></trkpt><trkpt lat="41.3551083" lon="0.6679783"><ele>520.0</ele><time>2026-03-31T16:42:06.158Z</time></trkpt><trkpt lat="41.35521" lon="0.6678533"><ele>520.0</ele><time>2026-03-31T16:42:07.158Z</time></trkpt><trkpt lat="41.355315" lon="0.667725"><ele>520.0</ele><time>2026-03-31T16:42:08.159Z</time></trkpt><trkpt lat="41.3554167" lon="0.6675967"><ele>520.3333333333334</ele><time>2026-03-31T16:42:09.159Z</time></trkpt><trkpt lat="41.3555367" lon="0.6674583"><ele>520.6666666666666</ele><time>2026-03-31T16:42:10.158Z</time></trkpt><trkpt lat="41.355645" lon="0.6673117"><ele>521.0</ele><time>2026-03-31T16:42:11.159Z</time></trkpt><trkpt lat="41.355755" lon="0.66716"><ele>521.0</ele><time>2026-03-31T16:42:12.158Z</time></trkpt><trkpt lat="41.3558667" lon="0.6670033"><ele>521.0</ele><time>2026-03-31T16:42:13.158Z</time></trkpt><trkpt lat="41.355985" lon="0.666845"><ele>521.0</ele><time>2026-03-31T16:42:14.159Z</time></trkpt><trkpt lat="41.3561133" lon="0.6666933"><ele>523.0</ele><time>2026-03-31T16:42:15.158Z</time></trkpt><trkpt lat="41.3562367" lon="0.66653"><ele>525.0</ele><time>2026-03-31T16:42:16.159Z</time></trkpt><trkpt lat="41.3563583" lon="0.6663683"><ele>527.0</ele><time>2026-03-31T16:42:17.158Z</time></trkpt><trkpt lat="41.3564817" lon="0.6662033"><ele>524.6666666666666</ele><time>2026-03-31T16:42:18.158Z</time></trkpt><trkpt lat="41.3566" lon="0.666045"><ele>522.3333333333334</ele><time>2026-03-31T16:42:19.158Z</time></trkpt><trkpt lat="41.356715" lon="0.6658983"><ele>520.0</ele><time>2026-03-31T16:42:20.159Z</time></trkpt><trkpt lat="41.3568483" lon="0.6657767"><ele>520.0</ele><time>2026-03-31T16:42:21.158Z</time></trkpt><trkpt lat="41.35699" lon="0.6656733"><ele>520.0</ele><time>2026-03-31T16:42:22.158Z</time></trkpt><trkpt lat="41.3571283" lon="0.6655983"><ele>520.0</ele><time>2026-03-31T16:42:23.158Z</time></trkpt><trkpt lat="41.3572783" lon="0.6655383"><ele>518.5</ele><time>2026-03-31T16:42:24.158Z</time></trkpt><trkpt lat="41.357425" lon="0.665505"><ele>517.0</ele><time>2026-03-31T16:42:25.158Z</time></trkpt><trkpt lat="41.357565" lon="0.66546"><ele>515.5</ele><time>2026-03-31T16:42:26.158Z</time></trkpt><trkpt lat="41.3576983" lon="0.665415"><ele>514.0</ele><time>2026-03-31T16:42:27.158Z</time></trkpt><trkpt lat="41.3578233" lon="0.6653683"><ele>514.0</ele><time>2026-03-31T16:42:28.158Z</time></trkpt><trkpt lat="41.3579333" lon="0.6653033"><ele>514.0</ele><time>2026-03-31T16:42:29.158Z</time></trkpt><trkpt lat="41.3580233" lon="0.6652033"><ele>514.0</ele><time>2026-03-31T16:42:30.159Z</time></trkpt><trkpt lat="41.3580933" lon="0.6650817"><ele>514.0</ele><time>2026-03-31T16:42:31.158Z</time></trkpt><trkpt lat="41.3581517" lon="0.6649333"><ele>513.75</ele><time>2026-03-31T16:42:32.158Z</time></trkpt><trkpt lat="41.3582067" lon="0.6647783"><ele>513.5</ele><time>2026-03-31T16:42:33.158Z</time></trkpt><trkpt lat="41.3582817" lon="0.66462"><ele>513.25</ele><time>2026-03-31T16:42:34.158Z</time></trkpt><trkpt lat="41.358385" lon="0.66448"><ele>513.0</ele><time>2026-03-31T16:42:35.158Z</time></trkpt><trkpt lat="41.35851" lon="0.6643333"><ele>514.3333333333334</ele><time>2026-03-31T16:42:36.158Z</time></trkpt><trkpt lat="41.3586417" lon="0.66419"><ele>515.6666666666667</ele><time>2026-03-31T16:42:37.159Z</time></trkpt><trkpt lat="41.3587683" lon="0.66405"><ele>517.0</ele><time>2026-03-31T16:42:38.159Z</time></trkpt><trkpt lat="41.3589067" lon="0.66391"><ele>514.0</ele><time>2026-03-31T16:42:39.158Z</time></trkpt><trkpt lat="41.3590317" lon="0.6637567"><ele>511.0</ele><time>2026-03-31T16:42:40.158Z</time></trkpt><trkpt lat="41.3591633" lon="0.6636083"><ele>508.0</ele><time>2026-03-31T16:42:41.158Z</time></trkpt><trkpt lat="41.359295" lon="0.6634683"><ele>508.0</ele><time>2026-03-31T16:42:42.158Z</time></trkpt><trkpt lat="41.359405" lon="0.6633233"><ele>508.0</ele><time>2026-03-31T16:42:43.158Z</time></trkpt><trkpt lat="41.3595267" lon="0.6632083"><ele>508.0</ele><time>2026-03-31T16:42:44.159Z</time></trkpt><trkpt lat="41.35967" lon="0.66312"><ele>505.0</ele><time>2026-03-31T16:42:45.158Z</time></trkpt><trkpt lat="41.35983" lon="0.6630233"><ele>502.0</ele><time>2026-03-31T16:42:46.159Z</time></trkpt><trkpt lat="41.3599983" lon="0.66292"><ele>499.0</ele><time>2026-03-31T16:42:47.159Z</time></trkpt><trkpt lat="41.3601717" lon="0.6628183"><ele>499.6666666666667</ele><time>2026-03-31T16:42:48.159Z</time></trkpt><trkpt lat="41.360345" lon="0.6627183"><ele>500.33333333333337</ele><time>2026-03-31T16:42:49.158Z</time></trkpt><trkpt lat="41.3605133" lon="0.6626067"><ele>501.0</ele><time>2026-03-31T16:42:50.158Z</time></trkpt><trkpt lat="41.36068" lon="0.6625067"><ele>499.33333333333337</ele><time>2026-03-31T16:42:51.159Z</time></trkpt><trkpt lat="41.36084" lon="0.6624033"><ele>497.6666666666667</ele><time>2026-03-31T16:42:52.158Z</time></trkpt><trkpt lat="41.360995" lon="0.6623"><ele>496.0</ele><time>2026-03-31T16:42:53.159Z</time></trkpt><trkpt lat="41.3611483" lon="0.6622"><ele>496.0</ele><time>2026-03-31T16:42:54.158Z</time></trkpt><trkpt lat="41.3613067" lon="0.6621333"><ele>496.0</ele><time>2026-03-31T16:42:55.158Z</time></trkpt><trkpt lat="41.3614783" lon="0.6620767"><ele>496.0</ele><time>2026-03-31T16:42:56.158Z</time></trkpt><trkpt lat="41.361645" lon="0.6620467"><ele>494.25</ele><time>2026-03-31T16:42:57.159Z</time></trkpt><trkpt lat="41.3617783" lon="0.662035"><ele>492.5</ele><time>2026-03-31T16:42:58.159Z</time></trkpt><trkpt lat="41.3618883" lon="0.662065"><ele>490.75</ele><time>2026-03-31T16:42:59.158Z</time></trkpt><trkpt lat="41.3619983" lon="0.662145"><ele>489.0</ele><time>2026-03-31T16:43:00.158Z</time></trkpt><trkpt lat="41.362075" lon="0.6622633"><ele>489.0</ele><time>2026-03-31T16:43:01.159Z</time></trkpt><trkpt lat="41.3621333" lon="0.6624217"><ele>489.0</ele><time>2026-03-31T16:43:02.159Z</time></trkpt><trkpt lat="41.3621867" lon="0.6626"><ele>489.0</ele><time>2026-03-31T16:43:03.158Z</time></trkpt><trkpt lat="41.362245" lon="0.6627867"><ele>489.0</ele><time>2026-03-31T16:43:04.158Z</time></trkpt><trkpt lat="41.36231" lon="0.66297"><ele>491.0</ele><time>2026-03-31T16:43:05.159Z</time></trkpt><trkpt lat="41.36238" lon="0.6631683"><ele>493.0</ele><time>2026-03-31T16:43:06.159Z</time></trkpt><trkpt lat="41.3624483" lon="0.66336"><ele>495.0</ele><time>2026-03-31T16:43:07.158Z</time></trkpt><trkpt lat="41.3625133" lon="0.6635517"><ele>496.33333333333337</ele><time>2026-03-31T16:43:08.158Z</time></trkpt><trkpt lat="41.3625867" lon="0.663735"><ele>497.6666666666667</ele><time>2026-03-31T16:43:09.159Z</time></trkpt><trkpt lat="41.36265" lon="0.6639217"><ele>499.0</ele><time>2026-03-31T16:43:10.159Z</time></trkpt><trkpt lat="41.3626883" lon="0.6641417"><ele>499.0</ele><time>2026-03-31T16:43:11.158Z</time></trkpt><trkpt lat="41.3627033" lon="0.6643717"><ele>499.0</ele><time>2026-03-31T16:43:12.159Z</time></trkpt><trkpt lat="41.3626917" lon="0.664605"><ele>499.0</ele><time>2026-03-31T16:43:13.159Z</time></trkpt><trkpt lat="41.3626567" lon="0.6648433"><ele>500.33333333333337</ele><time>2026-03-31T16:43:14.158Z</time></trkpt><trkpt lat="41.3626267" lon="0.66509"><ele>501.66666666666663</ele><time>2026-03-31T16:43:15.158Z</time></trkpt><trkpt lat="41.3625933" lon="0.66534"><ele>503.0</ele><time>2026-03-31T16:43:16.159Z</time></trkpt><trkpt lat="41.3625617" lon="0.6655967"><ele>504.66666666666663</ele><time>2026-03-31T16:43:17.159Z</time></trkpt><trkpt lat="41.3625317" lon="0.6658567"><ele>506.33333333333337</ele><time>2026-03-31T16:43:18.158Z</time></trkpt><trkpt lat="41.362505" lon="0.6661233"><ele>508.0</ele><time>2026-03-31T16:43:19.158Z</time></trkpt><trkpt lat="41.36247" lon="0.666375"><ele>509.0</ele><time>2026-03-31T16:43:20.158Z</time></trkpt><trkpt lat="41.3624367" lon="0.6666383"><ele>510.0</ele><time>2026-03-31T16:43:21.158Z</time></trkpt><trkpt lat="41.3624083" lon="0.6668967"><ele>511.0</ele><time>2026-03-31T16:43:22.158Z</time></trkpt><trkpt lat="41.3623867" lon="0.66716"><ele>511.6666666666667</ele><time>2026-03-31T16:43:23.159Z</time></trkpt><trkpt lat="41.3623633" lon="0.6674067"><ele>512.3333333333334</ele><time>2026-03-31T16:43:24.158Z</time></trkpt><trkpt lat="41.36235" lon="0.6676433"><ele>513.0</ele><time>2026-03-31T16:43:25.158Z</time></trkpt><trkpt lat="41.3623133" lon="0.6678683"><ele>513.25</ele><time>2026-03-31T16:43:26.159Z</time></trkpt><trkpt lat="41.3622617" lon="0.668055"><ele>513.5</ele><time>2026-03-31T16:43:27.158Z</time></trkpt><trkpt lat="41.3622017" lon="0.6682183"><ele>513.75</ele><time>2026-03-31T16:43:28.159Z</time></trkpt><trkpt lat="41.3621567" lon="0.6683633"><ele>514.0</ele><time>2026-03-31T16:43:29.158Z</time></trkpt><trkpt lat="41.36213" lon="0.6685083"><ele>514.25</ele><time>2026-03-31T16:43:30.158Z</time></trkpt><trkpt lat="41.3621367" lon="0.6686617"><ele>514.5</ele><time>2026-03-31T16:43:31.158Z</time></trkpt><trkpt lat="41.3621733" lon="0.66882"><ele>514.75</ele><time>2026-03-31T16:43:32.158Z</time></trkpt><trkpt lat="41.3622317" lon="0.6689817"><ele>515.0</ele><time>2026-03-31T16:43:33.158Z</time></trkpt><trkpt lat="41.3622933" lon="0.6691467"><ele>516.75</ele><time>2026-03-31T16:43:34.158Z</time></trkpt><trkpt lat="41.3623583" lon="0.66931"><ele>518.5</ele><time>2026-03-31T16:43:35.158Z</time></trkpt><trkpt lat="41.3624217" lon="0.669475"><ele>520.25</ele><time>2026-03-31T16:43:36.158Z</time></trkpt><trkpt lat="41.36249" lon="0.6696133"><ele>522.0</ele><time>2026-03-31T16:43:37.159Z</time></trkpt><trkpt lat="41.36257" lon="0.6697367"><ele>523.0</ele><time>2026-03-31T16:43:38.158Z</time></trkpt><trkpt lat="41.3626617" lon="0.6698383"><ele>524.0</ele><time>2026-03-31T16:43:39.159Z</time></trkpt><trkpt lat="41.362765" lon="0.6699217"><ele>525.0</ele><time>2026-03-31T16:43:40.159Z</time></trkpt><trkpt lat="41.3628783" lon="0.67"><ele>526.0</ele><time>2026-03-31T16:43:41.159Z</time></trkpt><trkpt lat="41.363005" lon="0.670075"><ele>526.75</ele><time>2026-03-31T16:43:42.158Z</time></trkpt><trkpt lat="41.3631417" lon="0.67011"><ele>527.5</ele><time>2026-03-31T16:43:43.159Z</time></trkpt><trkpt lat="41.363285" lon="0.6701433"><ele>528.25</ele><time>2026-03-31T16:43:44.159Z</time></trkpt><trkpt lat="41.363425" lon="0.6701717"><ele>529.0</ele><time>2026-03-31T16:43:45.159Z</time></trkpt><trkpt lat="41.3635667" lon="0.6702033"><ele>529.0</ele><time>2026-03-31T16:43:46.158Z</time></trkpt><trkpt lat="41.3637033" lon="0.6702233"><ele>529.0</ele><time>2026-03-31T16:43:47.158Z</time></trkpt><trkpt lat="41.3638333" lon="0.6702567"><ele>529.0</ele><time>2026-03-31T16:43:48.158Z</time></trkpt><trkpt lat="41.3639567" lon="0.6702767"><ele>529.0</ele><time>2026-03-31T16:43:49.158Z</time></trkpt><trkpt lat="41.364065" lon="0.67028"><ele>529.2</ele><time>2026-03-31T16:43:50.158Z</time></trkpt><trkpt lat="41.36417" lon="0.6702867"><ele>529.4</ele><time>2026-03-31T16:43:51.158Z</time></trkpt><trkpt lat="41.3642683" lon="0.670265"><ele>529.6</ele><time>2026-03-31T16:43:52.158Z</time></trkpt><trkpt lat="41.3643633" lon="0.6702133"><ele>529.8</ele><time>2026-03-31T16:43:53.158Z</time></trkpt><trkpt lat="41.36447" lon="0.670125"><ele>530.0</ele><time>2026-03-31T16:43:54.158Z</time></trkpt><trkpt lat="41.36458" lon="0.67001"><ele>527.0</ele><time>2026-03-31T16:43:55.159Z</time></trkpt><trkpt lat="41.3646967" lon="0.669885"><ele>524.0</ele><time>2026-03-31T16:43:56.158Z</time></trkpt><trkpt lat="41.3648267" lon="0.66976"><ele>521.0</ele><time>2026-03-31T16:43:57.159Z</time></trkpt><trkpt lat="41.3649633" lon="0.6696233"><ele>521.0</ele><time>2026-03-31T16:43:58.158Z</time></trkpt><trkpt lat="41.3650967" lon="0.6695"><ele>521.0</ele><time>2026-03-31T16:43:59.158Z</time></trkpt><trkpt lat="41.36523" lon="0.6693783"><ele>521.0</ele><time>2026-03-31T16:44:00.158Z</time></trkpt><trkpt lat="41.365365" lon="0.6692583"><ele>521.0</ele><time>2026-03-31T16:44:01.158Z</time></trkpt><trkpt lat="41.3654933" lon="0.6691333"><ele>521.0</ele><time>2026-03-31T16:44:02.159Z</time></trkpt><trkpt lat="41.3656133" lon="0.6690033"><ele>521.0</ele><time>2026-03-31T16:44:03.158Z</time></trkpt><trkpt lat="41.365725" lon="0.6688983"><ele>521.0</ele><time>2026-03-31T16:44:04.158Z</time></trkpt><trkpt lat="41.3658433" lon="0.6687983"><ele>521.0</ele><time>2026-03-31T16:44:05.159Z</time></trkpt><trkpt lat="41.365965" lon="0.6687167"><ele>521.0</ele><time>2026-03-31T16:44:06.158Z</time></trkpt><trkpt lat="41.3661083" lon="0.66865"><ele>521.0</ele><time>2026-03-31T16:44:07.159Z</time></trkpt><trkpt lat="41.3662417" lon="0.6685783"><ele>521.25</ele><time>2026-03-31T16:44:08.158Z</time></trkpt><trkpt lat="41.3663683" lon="0.66848"><ele>521.5</ele><time>2026-03-31T16:44:09.159Z</time></trkpt><trkpt lat="41.3664833" lon="0.6683817"><ele>521.75</ele><time>2026-03-31T16:44:10.159Z</time></trkpt><trkpt lat="41.366585" lon="0.6682833"><ele>522.0</ele><time>2026-03-31T16:44:11.159Z</time></trkpt><trkpt lat="41.3666817" lon="0.6681783"><ele>522.0</ele><time>2026-03-31T16:44:12.159Z</time></trkpt><trkpt lat="41.3667733" lon="0.6680633"><ele>522.0</ele><time>2026-03-31T16:44:13.158Z</time></trkpt><trkpt lat="41.36684" lon="0.6679183"><ele>522.0</ele><time>2026-03-31T16:44:14.159Z</time></trkpt><trkpt lat="41.366895" lon="0.6677583"><ele>522.0</ele><time>2026-03-31T16:44:15.159Z</time></trkpt><trkpt lat="41.3669667" lon="0.6675833"><ele>525.6666666666666</ele><time>2026-03-31T16:44:16.159Z</time></trkpt><trkpt lat="41.3670533" lon="0.6674133"><ele>529.3333333333333</ele><time>2026-03-31T16:44:17.158Z</time></trkpt><trkpt lat="41.3671617" lon="0.667265"><ele>533.0</ele><time>2026-03-31T16:44:18.158Z</time></trkpt><trkpt lat="41.3672817" lon="0.6671217"><ele>530.6666666666666</ele><time>2026-03-31T16:44:19.158Z</time></trkpt><trkpt lat="41.3674133" lon="0.666985"><ele>528.3333333333334</ele><time>2026-03-31T16:44:20.159Z</time></trkpt><trkpt lat="41.3675417" lon="0.6668617"><ele>526.0</ele><time>2026-03-31T16:44:21.159Z</time></trkpt><trkpt lat="41.36766" lon="0.666745"><ele>526.0</ele><time>2026-03-31T16:44:22.158Z</time></trkpt><trkpt lat="41.3677683" lon="0.6666167"><ele>526.0</ele><time>2026-03-31T16:44:23.159Z</time></trkpt><trkpt lat="41.367865" lon="0.6664783"><ele>526.0</ele><time>2026-03-31T16:44:24.159Z</time></trkpt><trkpt lat="41.3679433" lon="0.6663033"><ele>526.0</ele><time>2026-03-31T16:44:25.159Z</time></trkpt><trkpt lat="41.368" lon="0.666115"><ele>520.3333333333334</ele><time>2026-03-31T16:44:26.158Z</time></trkpt><trkpt lat="41.3680467" lon="0.6659067"><ele>514.6666666666666</ele><time>2026-03-31T16:44:27.158Z</time></trkpt><trkpt lat="41.3681033" lon="0.6657033"><ele>509.0</ele><time>2026-03-31T16:44:28.158Z</time></trkpt><trkpt lat="41.3681783" lon="0.6655017"><ele>509.0</ele><time>2026-03-31T16:44:29.158Z</time></trkpt><trkpt lat="41.3682833" lon="0.6653183"><ele>509.0</ele><time>2026-03-31T16:44:30.158Z</time></trkpt><trkpt lat="41.3684017" lon="0.6651467"><ele>509.0</ele><time>2026-03-31T16:44:31.158Z</time></trkpt><trkpt lat="41.3685317" lon="0.6649867"><ele>511.66666666666663</ele><time>2026-03-31T16:44:32.159Z</time></trkpt><trkpt lat="41.3686567" lon="0.664845"><ele>514.3333333333334</ele><time>2026-03-31T16:44:33.158Z</time></trkpt><trkpt lat="41.3687833" lon="0.664715"><ele>517.0</ele><time>2026-03-31T16:44:34.159Z</time></trkpt><trkpt lat="41.3689017" lon="0.6646033"><ele>512.75</ele><time>2026-03-31T16:44:35.159Z</time></trkpt><trkpt lat="41.3690317" lon="0.6645117"><ele>508.5</ele><time>2026-03-31T16:44:36.158Z</time></trkpt><trkpt lat="41.3691683" lon="0.66447"><ele>504.25</ele><time>2026-03-31T16:44:37.159Z</time></trkpt><trkpt lat="41.3693067" lon="0.66449"><ele>500.0</ele><time>2026-03-31T16:44:38.158Z</time></trkpt><trkpt lat="41.3694333" lon="0.66454"><ele>500.0</ele><time>2026-03-31T16:44:39.159Z</time></trkpt><trkpt lat="41.3695633" lon="0.6645817"><ele>500.0</ele><time>2026-03-31T16:44:40.159Z</time></trkpt><trkpt lat="41.3696867" lon="0.6645617"><ele>500.0</ele><time>2026-03-31T16:44:41.158Z</time></trkpt><trkpt lat="41.36981" lon="0.66452"><ele>500.0</ele><time>2026-03-31T16:44:42.159Z</time></trkpt><trkpt lat="41.3699367" lon="0.6644683"><ele>498.0</ele><time>2026-03-31T16:44:43.159Z</time></trkpt><trkpt lat="41.3700733" lon="0.6644583"><ele>496.0</ele><time>2026-03-31T16:44:44.159Z</time></trkpt><trkpt lat="41.37022" lon="0.664485"><ele>494.0</ele><time>2026-03-31T16:44:45.159Z</time></trkpt><trkpt lat="41.3703633" lon="0.6645433"><ele>492.0</ele><time>2026-03-31T16:44:46.158Z</time></trkpt><trkpt lat="41.370495" lon="0.6645683"><ele>490.5</ele><time>2026-03-31T16:44:47.158Z</time></trkpt><trkpt lat="41.3706183" lon="0.6645517"><ele>489.0</ele><time>2026-03-31T16:44:48.158Z</time></trkpt><trkpt lat="41.37073" lon="0.6644967"><ele>487.5</ele><time>2026-03-31T16:44:49.159Z</time></trkpt><trkpt lat="41.37083" lon="0.6644283"><ele>486.0</ele><time>2026-03-31T16:44:50.158Z</time></trkpt><trkpt lat="41.3709083" lon="0.6643333"><ele>489.0</ele><time>2026-03-31T16:44:51.158Z</time></trkpt><trkpt lat="41.3709433" lon="0.6642067"><ele>492.0</ele><time>2026-03-31T16:44:52.158Z</time></trkpt><trkpt lat="41.3709483" lon="0.6640483"><ele>495.0</ele><time>2026-03-31T16:44:53.158Z</time></trkpt><trkpt lat="41.3709367" lon="0.6638883"><ele>498.0</ele><time>2026-03-31T16:44:54.159Z</time></trkpt><trkpt lat="41.3709533" lon="0.6637283"><ele>500.0</ele><time>2026-03-31T16:44:55.158Z</time></trkpt><trkpt lat="41.3710033" lon="0.6635733"><ele>502.0</ele><time>2026-03-31T16:44:56.158Z</time></trkpt><trkpt lat="41.3710817" lon="0.6634317"><ele>504.0</ele><time>2026-03-31T16:44:57.159Z</time></trkpt><trkpt lat="41.3711633" lon="0.663295"><ele>506.0</ele><time>2026-03-31T16:44:58.159Z</time></trkpt><trkpt lat="41.37126" lon="0.6631733"><ele>506.0</ele><time>2026-03-31T16:44:59.158Z</time></trkpt><trkpt lat="41.3713567" lon="0.66308"><ele>506.0</ele><time>2026-03-31T16:45:00.159Z</time></trkpt><trkpt lat="41.3714633" lon="0.6630467"><ele>506.0</ele><time>2026-03-31T16:45:01.159Z</time></trkpt><trkpt lat="41.3715817" lon="0.6630667"><ele>506.0</ele><time>2026-03-31T16:45:02.159Z</time></trkpt><trkpt lat="41.3717" lon="0.6631283"><ele>501.75</ele><time>2026-03-31T16:45:03.158Z</time></trkpt><trkpt lat="41.37182" lon="0.6632"><ele>497.5</ele><time>2026-03-31T16:45:04.159Z</time></trkpt><trkpt lat="41.37195" lon="0.66324"><ele>493.25</ele><time>2026-03-31T16:45:05.159Z</time></trkpt><trkpt lat="41.37209" lon="0.66325"><ele>489.0</ele><time>2026-03-31T16:45:06.158Z</time></trkpt><trkpt lat="41.3722267" lon="0.6632517"><ele>487.5</ele><time>2026-03-31T16:45:07.158Z</time></trkpt><trkpt lat="41.3723567" lon="0.6632583"><ele>486.0</ele><time>2026-03-31T16:45:08.159Z</time></trkpt><trkpt lat="41.3724717" lon="0.6632367"><ele>484.5</ele><time>2026-03-31T16:45:09.159Z</time></trkpt><trkpt lat="41.37257" lon="0.6631833"><ele>483.0</ele><time>2026-03-31T16:45:10.158Z</time></trkpt><trkpt lat="41.37266" lon="0.6630833"><ele>483.0</ele><time>2026-03-31T16:45:11.158Z</time></trkpt><trkpt lat="41.3727383" lon="0.6629417"><ele>483.0</ele><time>2026-03-31T16:45:12.158Z</time></trkpt><trkpt lat="41.372795" lon="0.66276"><ele>483.0</ele><time>2026-03-31T16:45:13.158Z</time></trkpt><trkpt lat="41.372855" lon="0.66259"><ele>483.0</ele><time>2026-03-31T16:45:14.159Z</time></trkpt><trkpt lat="41.3729217" lon="0.662415"><ele>481.75</ele><time>2026-03-31T16:45:15.159Z</time></trkpt><trkpt lat="41.3730083" lon="0.6622617"><ele>480.5</ele><time>2026-03-31T16:45:16.158Z</time></trkpt><trkpt lat="41.3731017" lon="0.662175"><ele>479.25</ele><time>2026-03-31T16:45:17.158Z</time></trkpt><trkpt lat="41.373215" lon="0.6621367"><ele>478.0</ele><time>2026-03-31T16:45:18.159Z</time></trkpt><trkpt lat="41.3733467" lon="0.6621417"><ele>478.0</ele><time>2026-03-31T16:45:19.158Z</time></trkpt><trkpt lat="41.3734867" lon="0.6621717"><ele>478.0</ele><time>2026-03-31T16:45:20.159Z</time></trkpt><trkpt lat="41.3736417" lon="0.6622033"><ele>478.0</ele><time>2026-03-31T16:45:21.158Z</time></trkpt><trkpt lat="41.3737967" lon="0.6622267"><ele>477.0</ele><time>2026-03-31T16:45:22.159Z</time></trkpt><trkpt lat="41.3739483" lon="0.6622333"><ele>476.0</ele><time>2026-03-31T16:45:23.158Z</time></trkpt><trkpt lat="41.3740967" lon="0.6622567"><ele>475.0</ele><time>2026-03-31T16:45:24.159Z</time></trkpt><trkpt lat="41.3742383" lon="0.6623033"><ele>474.0</ele><time>2026-03-31T16:45:25.158Z</time></trkpt><trkpt lat="41.3743617" lon="0.6623733"><ele>474.0</ele><time>2026-03-31T16:45:26.159Z</time></trkpt><trkpt lat="41.3744733" lon="0.6624917"><ele>474.0</ele><time>2026-03-31T16:45:27.159Z</time></trkpt><trkpt lat="41.3745767" lon="0.662635"><ele>474.0</ele><time>2026-03-31T16:45:28.159Z</time></trkpt><trkpt lat="41.3746767" lon="0.6627867"><ele>474.0</ele><time>2026-03-31T16:45:29.159Z</time></trkpt><trkpt lat="41.374775" lon="0.6629367"><ele>472.0</ele><time>2026-03-31T16:45:30.158Z</time></trkpt><trkpt lat="41.3748817" lon="0.6630817"><ele>470.0</ele><time>2026-03-31T16:45:31.158Z</time></trkpt><trkpt lat="41.3749983" lon="0.6632033"><ele>468.0</ele><time>2026-03-31T16:45:32.158Z</time></trkpt><trkpt lat="41.3751333" lon="0.663295"><ele>468.0</ele><time>2026-03-31T16:45:33.158Z</time></trkpt><trkpt lat="41.3752767" lon="0.66335"><ele>468.0</ele><time>2026-03-31T16:45:34.159Z</time></trkpt><trkpt lat="41.37543" lon="0.6634067"><ele>468.0</ele><time>2026-03-31T16:45:35.158Z</time></trkpt><trkpt lat="41.3755883" lon="0.6634917"><ele>467.33333333333337</ele><time>2026-03-31T16:45:36.159Z</time></trkpt><trkpt lat="41.3757533" lon="0.6635783"><ele>466.6666666666667</ele><time>2026-03-31T16:45:37.158Z</time></trkpt><trkpt lat="41.3759183" lon="0.6636617"><ele>466.0</ele><time>2026-03-31T16:45:38.158Z</time></trkpt><trkpt lat="41.3760783" lon="0.6637283"><ele>463.6666666666667</ele><time>2026-03-31T16:45:39.158Z</time></trkpt><trkpt lat="41.3762267" lon="0.663785"><ele>461.33333333333337</ele><time>2026-03-31T16:45:40.158Z</time></trkpt><trkpt lat="41.3763733" lon="0.6638517"><ele>459.0</ele><time>2026-03-31T16:45:41.158Z</time></trkpt><trkpt lat="41.3765167" lon="0.66391"><ele>459.0</ele><time>2026-03-31T16:45:42.158Z</time></trkpt><trkpt lat="41.376655" lon="0.66395"><ele>459.0</ele><time>2026-03-31T16:45:43.158Z</time></trkpt><trkpt lat="41.3767767" lon="0.6639833"><ele>459.0</ele><time>2026-03-31T16:45:44.158Z</time></trkpt><trkpt lat="41.37689" lon="0.6639717"><ele>459.0</ele><time>2026-03-31T16:45:45.159Z</time></trkpt><trkpt lat="41.3769933" lon="0.6639133"><ele>459.0</ele><time>2026-03-31T16:45:46.158Z</time></trkpt><trkpt lat="41.37707" lon="0.6638117"><ele>459.0</ele><time>2026-03-31T16:45:47.159Z</time></trkpt><trkpt lat="41.3771183" lon="0.6636817"><ele>459.0</ele><time>2026-03-31T16:45:48.158Z</time></trkpt><trkpt lat="41.3771267" lon="0.6635283"><ele>459.0</ele><time>2026-03-31T16:45:49.158Z</time></trkpt><trkpt lat="41.37709" lon="0.663355"><ele>460.33333333333337</ele><time>2026-03-31T16:45:50.159Z</time></trkpt><trkpt lat="41.37702" lon="0.663185"><ele>461.6666666666667</ele><time>2026-03-31T16:45:51.158Z</time></trkpt><trkpt lat="41.3769317" lon="0.663005"><ele>463.0</ele><time>2026-03-31T16:45:52.158Z</time></trkpt><trkpt lat="41.3768483" lon="0.6628233"><ele>460.5</ele><time>2026-03-31T16:45:53.158Z</time></trkpt><trkpt lat="41.3767633" lon="0.66266"><ele>458.0</ele><time>2026-03-31T16:45:54.158Z</time></trkpt><trkpt lat="41.37668" lon="0.6625033"><ele>455.5</ele><time>2026-03-31T16:45:55.159Z</time></trkpt><trkpt lat="41.3766133" lon="0.6623467"><ele>453.0</ele><time>2026-03-31T16:45:56.159Z</time></trkpt><trkpt lat="41.3765667" lon="0.6622"><ele>453.0</ele><time>2026-03-31T16:45:57.159Z</time></trkpt><trkpt lat="41.3765633" lon="0.662035"><ele>453.0</ele><time>2026-03-31T16:45:58.158Z</time></trkpt><trkpt lat="41.3766083" lon="0.6618633"><ele>453.0</ele><time>2026-03-31T16:45:59.158Z</time></trkpt><trkpt lat="41.3766883" lon="0.6617067"><ele>453.0</ele><time>2026-03-31T16:46:00.158Z</time></trkpt><trkpt lat="41.3767967" lon="0.6615867"><ele>452.5</ele><time>2026-03-31T16:46:01.159Z</time></trkpt><trkpt lat="41.3769217" lon="0.6615233"><ele>452.0</ele><time>2026-03-31T16:46:02.159Z</time></trkpt><trkpt lat="41.3770533" lon="0.66151"><ele>451.5</ele><time>2026-03-31T16:46:03.158Z</time></trkpt><trkpt lat="41.3771917" lon="0.6615567"><ele>451.0</ele><time>2026-03-31T16:46:04.159Z</time></trkpt><trkpt lat="41.3773217" lon="0.66163"><ele>450.5</ele><time>2026-03-31T16:46:05.158Z</time></trkpt><trkpt lat="41.3774583" lon="0.66171"><ele>450.0</ele><time>2026-03-31T16:46:06.159Z</time></trkpt><trkpt lat="41.3775967" lon="0.6617983"><ele>449.5</ele><time>2026-03-31T16:46:07.158Z</time></trkpt><trkpt lat="41.3777267" lon="0.6618783"><ele>449.0</ele><time>2026-03-31T16:46:08.158Z</time></trkpt><trkpt lat="41.3778533" lon="0.661955"><ele>448.0</ele><time>2026-03-31T16:46:09.158Z</time></trkpt><trkpt lat="41.3779533" lon="0.661995"><ele>447.0</ele><time>2026-03-31T16:46:10.159Z</time></trkpt><trkpt lat="41.37806" lon="0.6619783"><ele>446.0</ele><time>2026-03-31T16:46:11.159Z</time></trkpt><trkpt lat="41.3781567" lon="0.6619017"><ele>445.0</ele><time>2026-03-31T16:46:12.158Z</time></trkpt><trkpt lat="41.378265" lon="0.6617967"><ele>445.0</ele><time>2026-03-31T16:46:13.158Z</time></trkpt><trkpt lat="41.3783783" lon="0.66168"><ele>445.0</ele><time>2026-03-31T16:46:14.159Z</time></trkpt><trkpt lat="41.3785" lon="0.66156"><ele>445.0</ele><time>2026-03-31T16:46:15.158Z</time></trkpt><trkpt lat="41.3786283" lon="0.6614533"><ele>445.0</ele><time>2026-03-31T16:46:16.159Z</time></trkpt><trkpt lat="41.37875" lon="0.6613467"><ele>444.2</ele><time>2026-03-31T16:46:17.159Z</time></trkpt><trkpt lat="41.37886" lon="0.6612467"><ele>443.4</ele><time>2026-03-31T16:46:18.158Z</time></trkpt><trkpt lat="41.37896" lon="0.6611617"><ele>442.6</ele><time>2026-03-31T16:46:19.158Z</time></trkpt><trkpt lat="41.3790433" lon="0.66108"><ele>441.8</ele><time>2026-03-31T16:46:20.158Z</time></trkpt><trkpt lat="41.3790717" lon="0.6609783"><ele>441.0</ele><time>2026-03-31T16:46:21.158Z</time></trkpt><trkpt lat="41.3790783" lon="0.6608683"><ele>441.0</ele><time>2026-03-31T16:46:22.158Z</time></trkpt><trkpt lat="41.379035" lon="0.66075"><ele>441.0</ele><time>2026-03-31T16:46:23.159Z</time></trkpt><trkpt lat="41.3789633" lon="0.6606333"><ele>441.0</ele><time>2026-03-31T16:46:24.159Z</time></trkpt><trkpt lat="41.3788667" lon="0.660495"><ele>441.0</ele><time>2026-03-31T16:46:25.158Z</time></trkpt><trkpt lat="41.3787967" lon="0.66031"><ele>443.0</ele><time>2026-03-31T16:46:26.158Z</time></trkpt><trkpt lat="41.378745" lon="0.660115"><ele>445.0</ele><time>2026-03-31T16:46:27.158Z</time></trkpt><trkpt lat="41.3787083" lon="0.6599483"><ele>447.0</ele><time>2026-03-31T16:46:28.159Z</time></trkpt><trkpt lat="41.37868" lon="0.6597967"><ele>449.0</ele><time>2026-03-31T16:46:29.158Z</time></trkpt><trkpt lat="41.37868" lon="0.6596633"><ele>449.0</ele><time>2026-03-31T16:46:30.158Z</time></trkpt><trkpt lat="41.3787133" lon="0.6595383"><ele>449.0</ele><time>2026-03-31T16:46:31.158Z</time></trkpt><trkpt lat="41.3787883" lon="0.6594533"><ele>449.0</ele><time>2026-03-31T16:46:32.158Z</time></trkpt><trkpt lat="41.3788717" lon="0.6594233"><ele>449.0</ele><time>2026-03-31T16:46:33.158Z</time></trkpt><trkpt lat="41.378975" lon="0.659435"><ele>449.0</ele><time>2026-03-31T16:46:34.159Z</time></trkpt><trkpt lat="41.3790917" lon="0.6594633"><ele>447.2</ele><time>2026-03-31T16:46:35.158Z</time></trkpt><trkpt lat="41.3792083" lon="0.6594767"><ele>445.4</ele><time>2026-03-31T16:46:36.159Z</time></trkpt><trkpt lat="41.3793183" lon="0.65946"><ele>443.6</ele><time>2026-03-31T16:46:37.159Z</time></trkpt><trkpt lat="41.3794133" lon="0.65941"><ele>441.8</ele><time>2026-03-31T16:46:38.158Z</time></trkpt><trkpt lat="41.37947" lon="0.6593033"><ele>440.0</ele><time>2026-03-31T16:46:39.158Z</time></trkpt><trkpt lat="41.3795017" lon="0.6591533"><ele>440.0</ele><time>2026-03-31T16:46:40.158Z</time></trkpt><trkpt lat="41.3795133" lon="0.6589867"><ele>440.0</ele><time>2026-03-31T16:46:41.158Z</time></trkpt><trkpt lat="41.3795267" lon="0.65882"><ele>440.0</ele><time>2026-03-31T16:46:42.158Z</time></trkpt><trkpt lat="41.379575" lon="0.6586933"><ele>440.0</ele><time>2026-03-31T16:46:43.158Z</time></trkpt><trkpt lat="41.3796383" lon="0.6586317"><ele>440.0</ele><time>2026-03-31T16:46:44.159Z</time></trkpt><trkpt lat="41.37972" lon="0.658615"><ele>436.5</ele><time>2026-03-31T16:46:45.158Z</time></trkpt><trkpt lat="41.379815" lon="0.6586533"><ele>433.0</ele><time>2026-03-31T16:46:46.158Z</time></trkpt><trkpt lat="41.3799133" lon="0.6587283"><ele>429.5</ele><time>2026-03-31T16:46:47.159Z</time></trkpt><trkpt lat="41.3800233" lon="0.6588267"><ele>426.0</ele><time>2026-03-31T16:46:48.158Z</time></trkpt><trkpt lat="41.3801583" lon="0.6588967"><ele>426.0</ele><time>2026-03-31T16:46:49.159Z</time></trkpt><trkpt lat="41.380305" lon="0.65894"><ele>426.0</ele><time>2026-03-31T16:46:50.158Z</time></trkpt><trkpt lat="41.3804517" lon="0.6589717"><ele>426.0</ele><time>2026-03-31T16:46:51.158Z</time></trkpt><trkpt lat="41.3805983" lon="0.65899"><ele>426.0</ele><time>2026-03-31T16:46:52.158Z</time></trkpt><trkpt lat="41.380725" lon="0.6590033"><ele>426.5</ele><time>2026-03-31T16:46:53.158Z</time></trkpt><trkpt lat="41.3808567" lon="0.6590283"><ele>427.0</ele><time>2026-03-31T16:46:54.158Z</time></trkpt><trkpt lat="41.3809833" lon="0.6590633"><ele>427.5</ele><time>2026-03-31T16:46:55.158Z</time></trkpt><trkpt lat="41.381095" lon="0.6591167"><ele>428.0</ele><time>2026-03-31T16:46:56.158Z</time></trkpt><trkpt lat="41.38119" lon="0.659205"><ele>428.0</ele><time>2026-03-31T16:46:57.159Z</time></trkpt><trkpt lat="41.3812517" lon="0.6593117"><ele>427.99999999999994</ele><time>2026-03-31T16:46:58.159Z</time></trkpt><trkpt lat="41.381285" lon="0.6594483"><ele>427.99999999999994</ele><time>2026-03-31T16:46:59.158Z</time></trkpt><trkpt lat="41.38128" lon="0.6596017"><ele>428.0</ele><time>2026-03-31T16:47:00.158Z</time></trkpt><trkpt lat="41.3812567" lon="0.6597483"><ele>428.0</ele><time>2026-03-31T16:47:01.158Z</time></trkpt><trkpt lat="41.3812467" lon="0.65988"><ele>427.66666666666663</ele><time>2026-03-31T16:47:02.158Z</time></trkpt><trkpt lat="41.38125" lon="0.6599967"><ele>427.3333333333333</ele><time>2026-03-31T16:47:03.158Z</time></trkpt><trkpt lat="41.3812733" lon="0.660095"><ele>427.0</ele><time>2026-03-31T16:47:04.159Z</time></trkpt><trkpt lat="41.3813267" lon="0.6601783"><ele>426.66666666666663</ele><time>2026-03-31T16:47:05.159Z</time></trkpt><trkpt lat="41.3814033" lon="0.66023"><ele>426.3333333333333</ele><time>2026-03-31T16:47:06.158Z</time></trkpt><trkpt lat="41.3815033" lon="0.6602617"><ele>426.0</ele><time>2026-03-31T16:47:07.159Z</time></trkpt><trkpt lat="41.38163" lon="0.6602583"><ele>426.0</ele><time>2026-03-31T16:47:08.158Z</time></trkpt><trkpt lat="41.3817783" lon="0.6602317"><ele>426.0</ele><time>2026-03-31T16:47:09.158Z</time></trkpt><trkpt lat="41.3819267" lon="0.6602333"><ele>426.0</ele><time>2026-03-31T16:47:10.159Z</time></trkpt><trkpt lat="41.3820733" lon="0.6602917"><ele>421.66666666666663</ele><time>2026-03-31T16:47:11.158Z</time></trkpt><trkpt lat="41.3822083" lon="0.660365"><ele>417.3333333333333</ele><time>2026-03-31T16:47:12.159Z</time></trkpt><trkpt lat="41.382345" lon="0.6604533"><ele>413.0</ele><time>2026-03-31T16:47:13.158Z</time></trkpt><trkpt lat="41.3824817" lon="0.6605567"><ele>413.0</ele><time>2026-03-31T16:47:14.158Z</time></trkpt><trkpt lat="41.382605" lon="0.6606767"><ele>413.0</ele><time>2026-03-31T16:47:15.159Z</time></trkpt><trkpt lat="41.3827217" lon="0.66081"><ele>413.0</ele><time>2026-03-31T16:47:16.159Z</time></trkpt><trkpt lat="41.382835" lon="0.660965"><ele>411.3333333333333</ele><time>2026-03-31T16:47:17.159Z</time></trkpt><trkpt lat="41.3829517" lon="0.6611233"><ele>409.66666666666663</ele><time>2026-03-31T16:47:18.158Z</time></trkpt><trkpt lat="41.3830667" lon="0.661275"><ele>408.0</ele><time>2026-03-31T16:47:19.158Z</time></trkpt><trkpt lat="41.3831683" lon="0.6614117"><ele>408.0</ele><time>2026-03-31T16:47:20.158Z</time></trkpt><trkpt lat="41.383275" lon="0.6615433"><ele>408.0</ele><time>2026-03-31T16:47:21.158Z</time></trkpt><trkpt lat="41.383375" lon="0.6616533"><ele>408.0</ele><time>2026-03-31T16:47:22.159Z</time></trkpt><trkpt lat="41.3834683" lon="0.6617517"><ele>408.0</ele><time>2026-03-31T16:47:23.159Z</time></trkpt><trkpt lat="41.38356" lon="0.661815"><ele>408.0</ele><time>2026-03-31T16:47:24.159Z</time></trkpt><trkpt lat="41.3836467" lon="0.6618467"><ele>408.0</ele><time>2026-03-31T16:47:25.158Z</time></trkpt><trkpt lat="41.38373" lon="0.6618533"><ele>408.0</ele><time>2026-03-31T16:47:26.159Z</time></trkpt><trkpt lat="41.3838117" lon="0.6618067"><ele>408.0</ele><time>2026-03-31T16:47:27.158Z</time></trkpt><trkpt lat="41.3838983" lon="0.6617067"><ele>408.0</ele><time>2026-03-31T16:47:28.158Z</time></trkpt><trkpt lat="41.3839767" lon="0.6615883"><ele>409.5</ele><time>2026-03-31T16:47:29.159Z</time></trkpt><trkpt lat="41.38404" lon="0.6614483"><ele>411.0</ele><time>2026-03-31T16:47:30.159Z</time></trkpt><trkpt lat="41.3840933" lon="0.6612983"><ele>412.5</ele><time>2026-03-31T16:47:31.158Z</time></trkpt><trkpt lat="41.3841367" lon="0.66116"><ele>414.0</ele><time>2026-03-31T16:47:32.159Z</time></trkpt><trkpt lat="41.3841717" lon="0.6610233"><ele>414.0</ele><time>2026-03-31T16:47:33.159Z</time></trkpt><trkpt lat="41.38423" lon="0.66091"><ele>414.0</ele><time>2026-03-31T16:47:34.158Z</time></trkpt><trkpt lat="41.384315" lon="0.6608417"><ele>414.0</ele><time>2026-03-31T16:47:35.158Z</time></trkpt><trkpt lat="41.3844183" lon="0.6608317"><ele>414.0</ele><time>2026-03-31T16:47:36.158Z</time></trkpt><trkpt lat="41.38453" lon="0.6608783"><ele>414.0</ele><time>2026-03-31T16:47:37.159Z</time></trkpt><trkpt lat="41.3846333" lon="0.66097"><ele>413.25</ele><time>2026-03-31T16:47:38.159Z</time></trkpt><trkpt lat="41.38472" lon="0.661095"><ele>412.5</ele><time>2026-03-31T16:47:39.159Z</time></trkpt><trkpt lat="41.3847917" lon="0.661225"><ele>411.75</ele><time>2026-03-31T16:47:40.158Z</time></trkpt><trkpt lat="41.3848583" lon="0.6613483"><ele>411.0</ele><time>2026-03-31T16:47:41.159Z</time></trkpt><trkpt lat="41.384925" lon="0.6614417"><ele>406.8</ele><time>2026-03-31T16:47:42.159Z</time></trkpt><trkpt lat="41.3850033" lon="0.6614983"><ele>402.6</ele><time>2026-03-31T16:47:43.159Z</time></trkpt><trkpt lat="41.3850983" lon="0.6615267"><ele>398.4</ele><time>2026-03-31T16:47:44.158Z</time></trkpt><trkpt lat="41.385195" lon="0.6615083"><ele>394.2</ele><time>2026-03-31T16:47:45.158Z</time></trkpt><trkpt lat="41.385295" lon="0.66145"><ele>390.0</ele><time>2026-03-31T16:47:46.158Z</time></trkpt><trkpt lat="41.3853867" lon="0.6613517"><ele>390.0</ele><time>2026-03-31T16:47:47.158Z</time></trkpt><trkpt lat="41.3854483" lon="0.6612017"><ele>390.0</ele><time>2026-03-31T16:47:48.158Z</time></trkpt><trkpt lat="41.3854867" lon="0.66102"><ele>390.0</ele><time>2026-03-31T16:47:49.159Z</time></trkpt><trkpt lat="41.3855183" lon="0.660825"><ele>390.0</ele><time>2026-03-31T16:47:50.158Z</time></trkpt><trkpt lat="41.3855517" lon="0.6606417"><ele>389.0</ele><time>2026-03-31T16:47:51.159Z</time></trkpt><trkpt lat="41.385565" lon="0.6604667"><ele>388.0</ele><time>2026-03-31T16:47:52.159Z</time></trkpt><trkpt lat="41.385565" lon="0.66031"><ele>387.0</ele><time>2026-03-31T16:47:53.158Z</time></trkpt><trkpt lat="41.385565" lon="0.660155"><ele>386.0</ele><time>2026-03-31T16:47:54.159Z</time></trkpt><trkpt lat="41.3855867" lon="0.660005"><ele>388.20000000000005</ele><time>2026-03-31T16:47:55.158Z</time></trkpt><trkpt lat="41.38564" lon="0.6598783"><ele>390.40000000000003</ele><time>2026-03-31T16:47:56.158Z</time></trkpt><trkpt lat="41.3857183" lon="0.6597817"><ele>392.6</ele><time>2026-03-31T16:47:57.158Z</time></trkpt><trkpt lat="41.3858" lon="0.6597283"><ele>394.8</ele><time>2026-03-31T16:47:58.158Z</time></trkpt><trkpt lat="41.3858833" lon="0.65972"><ele>397.0</ele><time>2026-03-31T16:47:59.158Z</time></trkpt><trkpt lat="41.3859583" lon="0.6597583"><ele>397.0</ele><time>2026-03-31T16:48:00.159Z</time></trkpt><trkpt lat="41.3860283" lon="0.6598367"><ele>397.0</ele><time>2026-03-31T16:48:01.159Z</time></trkpt><trkpt lat="41.3861017" lon="0.6599467"><ele>397.0</ele><time>2026-03-31T16:48:02.158Z</time></trkpt><trkpt lat="41.3861917" lon="0.66008"><ele>397.0</ele><time>2026-03-31T16:48:03.158Z</time></trkpt><trkpt lat="41.386295" lon="0.66019"><ele>394.25</ele><time>2026-03-31T16:48:04.159Z</time></trkpt><trkpt lat="41.386385" lon="0.6603"><ele>391.5</ele><time>2026-03-31T16:48:05.158Z</time></trkpt><trkpt lat="41.3864517" lon="0.6604267"><ele>388.75</ele><time>2026-03-31T16:48:06.158Z</time></trkpt><trkpt lat="41.3864967" lon="0.660555"><ele>386.0</ele><time>2026-03-31T16:48:07.159Z</time></trkpt><trkpt lat="41.3865567" lon="0.6606717"><ele>386.0</ele><time>2026-03-31T16:48:08.158Z</time></trkpt><trkpt lat="41.3866533" lon="0.6607617"><ele>386.0</ele><time>2026-03-31T16:48:09.158Z</time></trkpt><trkpt lat="41.3867717" lon="0.6608467"><ele>386.0</ele><time>2026-03-31T16:48:10.158Z</time></trkpt><trkpt lat="41.3868967" lon="0.6609383"><ele>386.0</ele><time>2026-03-31T16:48:11.158Z</time></trkpt><trkpt lat="41.387025" lon="0.6610433"><ele>382.0</ele><time>2026-03-31T16:48:12.159Z</time></trkpt><trkpt lat="41.387155" lon="0.6611483"><ele>378.0</ele><time>2026-03-31T16:48:13.159Z</time></trkpt><trkpt lat="41.3872783" lon="0.6612683"><ele>374.0</ele><time>2026-03-31T16:48:14.159Z</time></trkpt><trkpt lat="41.3874083" lon="0.6613567"><ele>374.0</ele><time>2026-03-31T16:48:15.159Z</time></trkpt><trkpt lat="41.38754" lon="0.66143"><ele>374.0</ele><time>2026-03-31T16:48:16.159Z</time></trkpt><trkpt lat="41.387685" lon="0.66148"><ele>374.0</ele><time>2026-03-31T16:48:17.159Z</time></trkpt><trkpt lat="41.38783" lon="0.6615283"><ele>374.0</ele><time>2026-03-31T16:48:18.158Z</time></trkpt><trkpt lat="41.3879767" lon="0.6616033"><ele>373.5</ele><time>2026-03-31T16:48:19.158Z</time></trkpt><trkpt lat="41.388105" lon="0.6616767"><ele>373.0</ele><time>2026-03-31T16:48:20.159Z</time></trkpt><trkpt lat="41.3882117" lon="0.6617167"><ele>372.5</ele><time>2026-03-31T16:48:21.159Z</time></trkpt><trkpt lat="41.3883133" lon="0.6617267"><ele>372.0</ele><time>2026-03-31T16:48:22.158Z</time></trkpt><trkpt lat="41.3884167" lon="0.6616933"><ele>372.0</ele><time>2026-03-31T16:48:23.158Z</time></trkpt><trkpt lat="41.3885217" lon="0.6616067"><ele>372.0</ele><time>2026-03-31T16:48:24.158Z</time></trkpt><trkpt lat="41.3886367" lon="0.6614883"><ele>372.0</ele><time>2026-03-31T16:48:25.158Z</time></trkpt><trkpt lat="41.3887533" lon="0.6613717"><ele>372.0</ele><time>2026-03-31T16:48:26.159Z</time></trkpt><trkpt lat="41.38887" lon="0.6612683"><ele>370.75</ele><time>2026-03-31T16:48:27.159Z</time></trkpt><trkpt lat="41.388985" lon="0.6611883"><ele>369.5</ele><time>2026-03-31T16:48:28.158Z</time></trkpt><trkpt lat="41.3891083" lon="0.661155"><ele>368.25</ele><time>2026-03-31T16:48:29.159Z</time></trkpt><trkpt lat="41.3892417" lon="0.66116"><ele>367.0</ele><time>2026-03-31T16:48:30.158Z</time></trkpt><trkpt lat="41.38938" lon="0.661195"><ele>367.0</ele><time>2026-03-31T16:48:31.158Z</time></trkpt><trkpt lat="41.3895217" lon="0.661245"><ele>367.0</ele><time>2026-03-31T16:48:32.159Z</time></trkpt><trkpt lat="41.38966" lon="0.6612967"><ele>367.0</ele><time>2026-03-31T16:48:33.158Z</time></trkpt><trkpt lat="41.3897917" lon="0.6613467"><ele>367.0</ele><time>2026-03-31T16:48:34.159Z</time></trkpt><trkpt lat="41.38992" lon="0.66139"><ele>367.5</ele><time>2026-03-31T16:48:35.158Z</time></trkpt><trkpt lat="41.39004" lon="0.6613967"><ele>368.0</ele><time>2026-03-31T16:48:36.159Z</time></trkpt><trkpt lat="41.39015" lon="0.6613683"><ele>368.5</ele><time>2026-03-31T16:48:37.159Z</time></trkpt><trkpt lat="41.39025" lon="0.661295"><ele>369.0</ele><time>2026-03-31T16:48:38.158Z</time></trkpt><trkpt lat="41.39034" lon="0.6611833"><ele>369.2</ele><time>2026-03-31T16:48:39.158Z</time></trkpt><trkpt lat="41.3904133" lon="0.6610733"><ele>369.4</ele><time>2026-03-31T16:48:40.159Z</time></trkpt><trkpt lat="41.390495" lon="0.66101"><ele>369.6</ele><time>2026-03-31T16:48:41.159Z</time></trkpt><trkpt lat="41.3906033" lon="0.6609917"><ele>369.8</ele><time>2026-03-31T16:48:42.159Z</time></trkpt><trkpt lat="41.3907267" lon="0.6609883"><ele>370.0</ele><time>2026-03-31T16:48:43.158Z</time></trkpt><trkpt lat="41.39086" lon="0.6609733"><ele>370.0</ele><time>2026-03-31T16:48:44.158Z</time></trkpt><trkpt lat="41.3909917" lon="0.660915"><ele>370.0</ele><time>2026-03-31T16:48:45.159Z</time></trkpt><trkpt lat="41.39111" lon="0.660825"><ele>370.0</ele><time>2026-03-31T16:48:46.158Z</time></trkpt><trkpt lat="41.391245" lon="0.66075"><ele>370.0</ele><time>2026-03-31T16:48:47.158Z</time></trkpt><trkpt lat="41.3913717" lon="0.6607167"><ele>371.2</ele><time>2026-03-31T16:48:48.158Z</time></trkpt><trkpt lat="41.39149" lon="0.6607"><ele>372.4</ele><time>2026-03-31T16:48:49.159Z</time></trkpt><trkpt lat="41.3915783" lon="0.6606467"><ele>373.6</ele><time>2026-03-31T16:48:50.159Z</time></trkpt><trkpt lat="41.3916433" lon="0.660525"><ele>374.8</ele><time>2026-03-31T16:48:51.158Z</time></trkpt><trkpt lat="41.39168" lon="0.660375"><ele>376.0</ele><time>2026-03-31T16:48:52.159Z</time></trkpt><trkpt lat="41.3917133" lon="0.6602083"><ele>376.0</ele><time>2026-03-31T16:48:53.159Z</time></trkpt><trkpt lat="41.391765" lon="0.66006"><ele>376.0</ele><time>2026-03-31T16:48:54.159Z</time></trkpt><trkpt lat="41.3918333" lon="0.659955"><ele>376.0</ele><time>2026-03-31T16:48:55.158Z</time></trkpt><trkpt lat="41.3919183" lon="0.6598933"><ele>376.0</ele><time>2026-03-31T16:48:56.159Z</time></trkpt><trkpt lat="41.39202" lon="0.65987"><ele>376.0</ele><time>2026-03-31T16:48:57.158Z</time></trkpt><trkpt lat="41.39213" lon="0.6598633"><ele>377.75</ele><time>2026-03-31T16:48:58.158Z</time></trkpt><trkpt lat="41.3922467" lon="0.6598783"><ele>379.5</ele><time>2026-03-31T16:48:59.159Z</time></trkpt><trkpt lat="41.3923633" lon="0.6599167"><ele>381.25</ele><time>2026-03-31T16:49:00.159Z</time></trkpt><trkpt lat="41.3924717" lon="0.6600017"><ele>383.0</ele><time>2026-03-31T16:49:01.158Z</time></trkpt><trkpt lat="41.3925683" lon="0.6601167"><ele>383.0</ele><time>2026-03-31T16:49:02.159Z</time></trkpt><trkpt lat="41.3926417" lon="0.66026"><ele>383.0</ele><time>2026-03-31T16:49:03.158Z</time></trkpt><trkpt lat="41.3927083" lon="0.66043"><ele>383.0</ele><time>2026-03-31T16:49:04.159Z</time></trkpt><trkpt lat="41.3927783" lon="0.6606"><ele>383.0</ele><time>2026-03-31T16:49:05.159Z</time></trkpt><trkpt lat="41.39285" lon="0.660755"><ele>386.2</ele><time>2026-03-31T16:49:06.159Z</time></trkpt><trkpt lat="41.39291" lon="0.6609"><ele>389.4</ele><time>2026-03-31T16:49:07.159Z</time></trkpt><trkpt lat="41.3929767" lon="0.66103"><ele>392.59999999999997</ele><time>2026-03-31T16:49:08.158Z</time></trkpt><trkpt lat="41.3930483" lon="0.6611067"><ele>395.79999999999995</ele><time>2026-03-31T16:49:09.159Z</time></trkpt><trkpt lat="41.3931267" lon="0.6611383"><ele>399.0</ele><time>2026-03-31T16:49:10.158Z</time></trkpt><trkpt lat="41.393205" lon="0.6611133"><ele>400.0</ele><time>2026-03-31T16:49:11.158Z</time></trkpt><trkpt lat="41.39328" lon="0.6610383"><ele>401.0</ele><time>2026-03-31T16:49:12.159Z</time></trkpt><trkpt lat="41.3933383" lon="0.660915"><ele>402.0</ele><time>2026-03-31T16:49:13.159Z</time></trkpt><trkpt lat="41.3933883" lon="0.660735"><ele>403.0</ele><time>2026-03-31T16:49:14.159Z</time></trkpt><trkpt lat="41.3934233" lon="0.6605133"><ele>403.0</ele><time>2026-03-31T16:49:15.159Z</time></trkpt><trkpt lat="41.393455" lon="0.6603083"><ele>403.0</ele><time>2026-03-31T16:49:16.159Z</time></trkpt><trkpt lat="41.39349" lon="0.6601183"><ele>403.0</ele><time>2026-03-31T16:49:17.158Z</time></trkpt><trkpt lat="41.3935267" lon="0.659945"><ele>403.0</ele><time>2026-03-31T16:49:18.158Z</time></trkpt><trkpt lat="41.39358" lon="0.65982"><ele>402.4</ele><time>2026-03-31T16:49:19.159Z</time></trkpt><trkpt lat="41.393655" lon="0.65975"><ele>401.79999999999995</ele><time>2026-03-31T16:49:20.159Z</time></trkpt><trkpt lat="41.393735" lon="0.6597383"><ele>401.2</ele><time>2026-03-31T16:49:21.158Z</time></trkpt><trkpt lat="41.393825" lon="0.6597717"><ele>400.6</ele><time>2026-03-31T16:49:22.158Z</time></trkpt><trkpt lat="41.39392" lon="0.659845"><ele>400.0</ele><time>2026-03-31T16:49:23.158Z</time></trkpt><trkpt lat="41.3940167" lon="0.6599333"><ele>400.0</ele><time>2026-03-31T16:49:24.158Z</time></trkpt><trkpt lat="41.3941183" lon="0.6600183"><ele>400.0</ele><time>2026-03-31T16:49:25.159Z</time></trkpt><trkpt lat="41.39421" lon="0.6601183"><ele>400.0</ele><time>2026-03-31T16:49:26.158Z</time></trkpt><trkpt lat="41.3942767" lon="0.6602517"><ele>400.0</ele><time>2026-03-31T16:49:27.159Z</time></trkpt><trkpt lat="41.394305" lon="0.6603983"><ele>402.6666666666667</ele><time>2026-03-31T16:49:28.158Z</time></trkpt><trkpt lat="41.3943217" lon="0.6605417"><ele>405.33333333333337</ele><time>2026-03-31T16:49:29.158Z</time></trkpt><trkpt lat="41.3943383" lon="0.66068"><ele>408.0</ele><time>2026-03-31T16:49:30.158Z</time></trkpt><trkpt lat="41.3943667" lon="0.66078"><ele>410.66666666666663</ele><time>2026-03-31T16:49:31.158Z</time></trkpt><trkpt lat="41.39442" lon="0.660845"><ele>413.3333333333333</ele><time>2026-03-31T16:49:32.159Z</time></trkpt><trkpt lat="41.3944917" lon="0.6608667"><ele>416.0</ele><time>2026-03-31T16:49:33.158Z</time></trkpt><trkpt lat="41.3945883" lon="0.6608317"><ele>415.0</ele><time>2026-03-31T16:49:34.159Z</time></trkpt><trkpt lat="41.3946933" lon="0.6607817"><ele>414.0</ele><time>2026-03-31T16:49:35.158Z</time></trkpt><trkpt lat="41.3948017" lon="0.6607733"><ele>413.0</ele><time>2026-03-31T16:49:36.158Z</time></trkpt><trkpt lat="41.394885" lon="0.6608167"><ele>412.0</ele><time>2026-03-31T16:49:37.159Z</time></trkpt><trkpt lat="41.3949617" lon="0.6609167"><ele>411.0</ele><time>2026-03-31T16:49:38.159Z</time></trkpt><trkpt lat="41.3950383" lon="0.66106"><ele>414.25</ele><time>2026-03-31T16:49:39.158Z</time></trkpt><trkpt lat="41.3951067" lon="0.661225"><ele>417.5</ele><time>2026-03-31T16:49:40.158Z</time></trkpt><trkpt lat="41.39516" lon="0.6613983"><ele>420.75</ele><time>2026-03-31T16:49:41.158Z</time></trkpt><trkpt lat="41.3952033" lon="0.661565"><ele>424.0</ele><time>2026-03-31T16:49:42.159Z</time></trkpt><trkpt lat="41.3952417" lon="0.6617317"><ele>424.0</ele><time>2026-03-31T16:49:43.158Z</time></trkpt><trkpt lat="41.39529" lon="0.661905"><ele>424.0</ele><time>2026-03-31T16:49:44.158Z</time></trkpt><trkpt lat="41.3953617" lon="0.66206"><ele>424.0</ele><time>2026-03-31T16:49:45.158Z</time></trkpt><trkpt lat="41.3954467" lon="0.662195"><ele>424.0</ele><time>2026-03-31T16:49:46.159Z</time></trkpt><trkpt lat="41.3955467" lon="0.6623"><ele>425.25</ele><time>2026-03-31T16:49:47.158Z</time></trkpt><trkpt lat="41.3956467" lon="0.662385"><ele>426.5</ele><time>2026-03-31T16:49:48.159Z</time></trkpt><trkpt lat="41.3957517" lon="0.6624333"><ele>427.75</ele><time>2026-03-31T16:49:49.158Z</time></trkpt><trkpt lat="41.3958567" lon="0.662405"><ele>429.0</ele><time>2026-03-31T16:49:50.158Z</time></trkpt><trkpt lat="41.3959617" lon="0.662325"><ele>429.0</ele><time>2026-03-31T16:49:51.159Z</time></trkpt><trkpt lat="41.396065" lon="0.6621967"><ele>429.0</ele><time>2026-03-31T16:49:52.159Z</time></trkpt><trkpt lat="41.3961733" lon="0.6620667"><ele>429.0</ele><time>2026-03-31T16:49:53.158Z</time></trkpt><trkpt lat="41.396285" lon="0.6619233"><ele>429.0</ele><time>2026-03-31T16:49:54.158Z</time></trkpt><trkpt lat="41.3963967" lon="0.661805"><ele>429.0</ele><time>2026-03-31T16:49:55.158Z</time></trkpt><trkpt lat="41.3965183" lon="0.6617167"><ele>429.0</ele><time>2026-03-31T16:49:56.159Z</time></trkpt><trkpt lat="41.3966417" lon="0.6616467"><ele>429.0</ele><time>2026-03-31T16:49:57.158Z</time></trkpt><trkpt lat="41.3967683" lon="0.661595"><ele>429.0</ele><time>2026-03-31T16:49:58.159Z</time></trkpt><trkpt lat="41.3968817" lon="0.66154"><ele>429.0</ele><time>2026-03-31T16:49:59.158Z</time></trkpt><trkpt lat="41.3970133" lon="0.6614783"><ele>429.0</ele><time>2026-03-31T16:50:00.159Z</time></trkpt><trkpt lat="41.3971567" lon="0.661405"><ele>429.0</ele><time>2026-03-31T16:50:01.159Z</time></trkpt><trkpt lat="41.39731" lon="0.6613283"><ele>428.33333333333337</ele><time>2026-03-31T16:50:02.158Z</time></trkpt><trkpt lat="41.3974617" lon="0.6612433"><ele>427.6666666666667</ele><time>2026-03-31T16:50:03.158Z</time></trkpt><trkpt lat="41.3976217" lon="0.66115"><ele>427.0</ele><time>2026-03-31T16:50:04.159Z</time></trkpt><trkpt lat="41.3977867" lon="0.6610467"><ele>427.0</ele><time>2026-03-31T16:50:05.158Z</time></trkpt><trkpt lat="41.3979567" lon="0.660955"><ele>427.0</ele><time>2026-03-31T16:50:06.158Z</time></trkpt><trkpt lat="41.3981283" lon="0.6608917"><ele>427.0</ele><time>2026-03-31T16:50:07.158Z</time></trkpt><trkpt lat="41.398305" lon="0.6608417"><ele>424.6666666666667</ele><time>2026-03-31T16:50:08.158Z</time></trkpt><trkpt lat="41.398475" lon="0.6608017"><ele>422.33333333333337</ele><time>2026-03-31T16:50:09.159Z</time></trkpt><trkpt lat="41.3986367" lon="0.6607367"><ele>420.0</ele><time>2026-03-31T16:50:10.158Z</time></trkpt><trkpt lat="41.3987733" lon="0.6606517"><ele>416.33333333333337</ele><time>2026-03-31T16:50:11.158Z</time></trkpt><trkpt lat="41.3989117" lon="0.6605583"><ele>412.6666666666667</ele><time>2026-03-31T16:50:12.159Z</time></trkpt><trkpt lat="41.3990583" lon="0.6604617"><ele>409.0</ele><time>2026-03-31T16:50:13.158Z</time></trkpt><trkpt lat="41.3992133" lon="0.6603633"><ele>411.25</ele><time>2026-03-31T16:50:14.158Z</time></trkpt><trkpt lat="41.3993517" lon="0.6602667"><ele>413.5</ele><time>2026-03-31T16:50:15.158Z</time></trkpt><trkpt lat="41.3994717" lon="0.6601767"><ele>415.75</ele><time>2026-03-31T16:50:16.159Z</time></trkpt><trkpt lat="41.3995717" lon="0.6600733"><ele>418.0</ele><time>2026-03-31T16:50:17.158Z</time></trkpt><trkpt lat="41.3996483" lon="0.65997"><ele>415.2</ele><time>2026-03-31T16:50:18.158Z</time></trkpt><trkpt lat="41.3996983" lon="0.6598833"><ele>412.4</ele><time>2026-03-31T16:50:19.158Z</time></trkpt><trkpt lat="41.3997533" lon="0.6598267"><ele>409.59999999999997</ele><time>2026-03-31T16:50:20.159Z</time></trkpt><trkpt lat="41.3998617" lon="0.6598683"><ele>406.79999999999995</ele><time>2026-03-31T16:50:22.158Z</time></trkpt><trkpt lat="41.3999" lon="0.6599683"><ele>404.0</ele><time>2026-03-31T16:50:23.158Z</time></trkpt><trkpt lat="41.3999217" lon="0.6601083"><ele>404.0</ele><time>2026-03-31T16:50:24.158Z</time></trkpt><trkpt lat="41.3999117" lon="0.6602483"><ele>404.0</ele><time>2026-03-31T16:50:25.158Z</time></trkpt><trkpt lat="41.399875" lon="0.6603817"><ele>404.0</ele><time>2026-03-31T16:50:26.159Z</time></trkpt><trkpt lat="41.3997967" lon="0.6604967"><ele>404.0</ele><time>2026-03-31T16:50:27.159Z</time></trkpt><trkpt lat="41.399685" lon="0.6605867"><ele>405.25</ele><time>2026-03-31T16:50:28.159Z</time></trkpt><trkpt lat="41.3995667" lon="0.6606467"><ele>406.5</ele><time>2026-03-31T16:50:29.158Z</time></trkpt><trkpt lat="41.399465" lon="0.6607"><ele>407.75</ele><time>2026-03-31T16:50:30.159Z</time></trkpt><trkpt lat="41.3993833" lon="0.6607833"><ele>409.0</ele><time>2026-03-31T16:50:31.159Z</time></trkpt><trkpt lat="41.3993183" lon="0.6609117"><ele>409.0</ele><time>2026-03-31T16:50:32.158Z</time></trkpt><trkpt lat="41.3992717" lon="0.6610783"><ele>409.0</ele><time>2026-03-31T16:50:33.158Z</time></trkpt><trkpt lat="41.3992217" lon="0.6612433"><ele>409.0</ele><time>2026-03-31T16:50:34.158Z</time></trkpt><trkpt lat="41.3991667" lon="0.6614083"><ele>409.0</ele><time>2026-03-31T16:50:35.158Z</time></trkpt><trkpt lat="41.399105" lon="0.6615433"><ele>408.6</ele><time>2026-03-31T16:50:36.159Z</time></trkpt><trkpt lat="41.3990317" lon="0.6616517"><ele>408.2</ele><time>2026-03-31T16:50:37.159Z</time></trkpt><trkpt lat="41.3989333" lon="0.6617183"><ele>407.8</ele><time>2026-03-31T16:50:38.158Z</time></trkpt><trkpt lat="41.3988317" lon="0.6617617"><ele>407.40000000000003</ele><time>2026-03-31T16:50:39.159Z</time></trkpt><trkpt lat="41.3987367" lon="0.6617933"><ele>407.0</ele><time>2026-03-31T16:50:40.158Z</time></trkpt><trkpt lat="41.39866" lon="0.661835"><ele>407.0</ele><time>2026-03-31T16:50:41.159Z</time></trkpt><trkpt lat="41.3986017" lon="0.6619017"><ele>407.0</ele><time>2026-03-31T16:50:42.159Z</time></trkpt><trkpt lat="41.39862" lon="0.66205"><ele>407.0</ele><time>2026-03-31T16:50:44.158Z</time></trkpt><trkpt lat="41.398755" lon="0.6620733"><ele>407.0</ele><time>2026-03-31T16:50:46.159Z</time></trkpt><trkpt lat="41.3988767" lon="0.6620217"><ele>401.3333333333333</ele><time>2026-03-31T16:50:47.158Z</time></trkpt><trkpt lat="41.399015" lon="0.6619217"><ele>395.66666666666663</ele><time>2026-03-31T16:50:48.158Z</time></trkpt><trkpt lat="41.3991417" lon="0.661775"><ele>390.0</ele><time>2026-03-31T16:50:49.158Z</time></trkpt><trkpt lat="41.3992483" lon="0.6616183"><ele>390.0</ele><time>2026-03-31T16:50:50.159Z</time></trkpt><trkpt lat="41.3993483" lon="0.6614717"><ele>390.0</ele><time>2026-03-31T16:50:51.159Z</time></trkpt><trkpt lat="41.3994467" lon="0.6613383"><ele>390.0</ele><time>2026-03-31T16:50:52.159Z</time></trkpt><trkpt lat="41.3995417" lon="0.6612017"><ele>390.0</ele><time>2026-03-31T16:50:53.159Z</time></trkpt><trkpt lat="41.3996483" lon="0.6611033"><ele>389.5</ele><time>2026-03-31T16:50:54.158Z</time></trkpt><trkpt lat="41.3997667" lon="0.6610467"><ele>389.0</ele><time>2026-03-31T16:50:55.159Z</time></trkpt><trkpt lat="41.399915" lon="0.6610183"><ele>388.5</ele><time>2026-03-31T16:50:56.158Z</time></trkpt><trkpt lat="41.40007" lon="0.660995"><ele>388.0</ele><time>2026-03-31T16:50:57.158Z</time></trkpt><trkpt lat="41.4002217" lon="0.6609667"><ele>388.0</ele><time>2026-03-31T16:50:58.159Z</time></trkpt><trkpt lat="41.400365" lon="0.6609383"><ele>388.0</ele><time>2026-03-31T16:50:59.159Z</time></trkpt><trkpt lat="41.4005033" lon="0.6609083"><ele>388.0</ele><time>2026-03-31T16:51:00.159Z</time></trkpt><trkpt lat="41.4006217" lon="0.6608633"><ele>388.0</ele><time>2026-03-31T16:51:01.158Z</time></trkpt><trkpt lat="41.4007233" lon="0.660785"><ele>384.75</ele><time>2026-03-31T16:51:02.158Z</time></trkpt><trkpt lat="41.4007983" lon="0.6606617"><ele>381.5</ele><time>2026-03-31T16:51:03.158Z</time></trkpt><trkpt lat="41.4008933" lon="0.6605567"><ele>378.25</ele><time>2026-03-31T16:51:04.158Z</time></trkpt><trkpt lat="41.4010033" lon="0.6605117"><ele>375.0</ele><time>2026-03-31T16:51:05.159Z</time></trkpt><trkpt lat="41.4011167" lon="0.6605067"><ele>375.0</ele><time>2026-03-31T16:51:06.159Z</time></trkpt><trkpt lat="41.4012467" lon="0.6605033"><ele>375.0</ele><time>2026-03-31T16:51:07.159Z</time></trkpt><trkpt lat="41.401385" lon="0.66047"><ele>375.0</ele><time>2026-03-31T16:51:08.159Z</time></trkpt><trkpt lat="41.4015283" lon="0.660405"><ele>375.0</ele><time>2026-03-31T16:51:09.158Z</time></trkpt><trkpt lat="41.40166" lon="0.6603267"><ele>377.6666666666667</ele><time>2026-03-31T16:51:10.159Z</time></trkpt><trkpt lat="41.4017983" lon="0.660235"><ele>380.33333333333337</ele><time>2026-03-31T16:51:11.158Z</time></trkpt><trkpt lat="41.401935" lon="0.6601417"><ele>383.0</ele><time>2026-03-31T16:51:12.158Z</time></trkpt><trkpt lat="41.402075" lon="0.660045"><ele>378.33333333333337</ele><time>2026-03-31T16:51:13.158Z</time></trkpt><trkpt lat="41.4022217" lon="0.65997"><ele>373.6666666666667</ele><time>2026-03-31T16:51:14.158Z</time></trkpt><trkpt lat="41.40237" lon="0.6598917"><ele>369.0</ele><time>2026-03-31T16:51:15.159Z</time></trkpt><trkpt lat="41.4025117" lon="0.6598483"><ele>369.0</ele><time>2026-03-31T16:51:16.159Z</time></trkpt><trkpt lat="41.4026583" lon="0.65981"><ele>369.0</ele><time>2026-03-31T16:51:17.158Z</time></trkpt><trkpt lat="41.4028017" lon="0.6597867"><ele>369.0</ele><time>2026-03-31T16:51:18.159Z</time></trkpt><trkpt lat="41.402955" lon="0.6598"><ele>369.0</ele><time>2026-03-31T16:51:19.158Z</time></trkpt><trkpt lat="41.4031083" lon="0.6598483"><ele>367.0</ele><time>2026-03-31T16:51:20.158Z</time></trkpt><trkpt lat="41.403265" lon="0.6599283"><ele>365.0</ele><time>2026-03-31T16:51:21.159Z</time></trkpt><trkpt lat="41.4034033" lon="0.6600267"><ele>363.0</ele><time>2026-03-31T16:51:22.158Z</time></trkpt><trkpt lat="41.4035333" lon="0.6601683"><ele>363.0</ele><time>2026-03-31T16:51:23.159Z</time></trkpt><trkpt lat="41.4036417" lon="0.6603383"><ele>363.0</ele><time>2026-03-31T16:51:24.159Z</time></trkpt><trkpt lat="41.4037367" lon="0.6605183"><ele>363.0</ele><time>2026-03-31T16:51:25.159Z</time></trkpt><trkpt lat="41.4038233" lon="0.66068"><ele>362.75</ele><time>2026-03-31T16:51:26.158Z</time></trkpt><trkpt lat="41.4039067" lon="0.6608483"><ele>362.5</ele><time>2026-03-31T16:51:27.158Z</time></trkpt><trkpt lat="41.4039417" lon="0.6610167"><ele>362.25</ele><time>2026-03-31T16:51:28.159Z</time></trkpt><trkpt lat="41.40394" lon="0.66121"><ele>362.0</ele><time>2026-03-31T16:51:29.159Z</time></trkpt><trkpt lat="41.4039117" lon="0.6614233"><ele>362.0</ele><time>2026-03-31T16:51:30.158Z</time></trkpt><trkpt lat="41.403875" lon="0.6616517"><ele>362.0</ele><time>2026-03-31T16:51:31.159Z</time></trkpt><trkpt lat="41.4038517" lon="0.6618767"><ele>362.0</ele><time>2026-03-31T16:51:32.159Z</time></trkpt><trkpt lat="41.4038167" lon="0.6621117"><ele>369.33333333333337</ele><time>2026-03-31T16:51:33.158Z</time></trkpt><trkpt lat="41.40378" lon="0.66236"><ele>376.6666666666667</ele><time>2026-03-31T16:51:34.158Z</time></trkpt><trkpt lat="41.4037467" lon="0.66262"><ele>384.0</ele><time>2026-03-31T16:51:35.158Z</time></trkpt><trkpt lat="41.4037083" lon="0.6628733"><ele>384.0</ele><time>2026-03-31T16:51:36.159Z</time></trkpt><trkpt lat="41.403655" lon="0.6631133"><ele>384.0</ele><time>2026-03-31T16:51:37.159Z</time></trkpt><trkpt lat="41.4035817" lon="0.6633383"><ele>384.0</ele><time>2026-03-31T16:51:38.158Z</time></trkpt><trkpt lat="41.4035067" lon="0.6635717"><ele>382.0</ele><time>2026-03-31T16:51:39.159Z</time></trkpt><trkpt lat="41.40342" lon="0.6637933"><ele>380.0</ele><time>2026-03-31T16:51:40.158Z</time></trkpt><trkpt lat="41.4033383" lon="0.66401"><ele>378.0</ele><time>2026-03-31T16:51:41.158Z</time></trkpt><trkpt lat="41.4032567" lon="0.66422"><ele>378.0</ele><time>2026-03-31T16:51:42.159Z</time></trkpt><trkpt lat="41.4031883" lon="0.66442"><ele>378.0</ele><time>2026-03-31T16:51:43.158Z</time></trkpt><trkpt lat="41.4031433" lon="0.6646083"><ele>378.0</ele><time>2026-03-31T16:51:44.158Z</time></trkpt><trkpt lat="41.4031183" lon="0.6647933"><ele>377.3333333333333</ele><time>2026-03-31T16:51:45.159Z</time></trkpt><trkpt lat="41.4031217" lon="0.6649917"><ele>376.66666666666663</ele><time>2026-03-31T16:51:46.158Z</time></trkpt><trkpt lat="41.4031383" lon="0.6651917"><ele>376.0</ele><time>2026-03-31T16:51:47.158Z</time></trkpt><trkpt lat="41.4031567" lon="0.665395"><ele>377.5</ele><time>2026-03-31T16:51:48.159Z</time></trkpt><trkpt lat="41.4031767" lon="0.6655767"><ele>379.0</ele><time>2026-03-31T16:51:49.158Z</time></trkpt><trkpt lat="41.4032083" lon="0.6657317"><ele>380.5</ele><time>2026-03-31T16:51:50.159Z</time></trkpt><trkpt lat="41.40327" lon="0.6658567"><ele>382.0</ele><time>2026-03-31T16:51:51.158Z</time></trkpt><trkpt lat="41.4033667" lon="0.6659467"><ele>382.0</ele><time>2026-03-31T16:51:52.158Z</time></trkpt><trkpt lat="41.4034817" lon="0.66597"><ele>382.0</ele><time>2026-03-31T16:51:53.159Z</time></trkpt><trkpt lat="41.4035883" lon="0.66592"><ele>382.0</ele><time>2026-03-31T16:51:54.159Z</time></trkpt><trkpt lat="41.40368" lon="0.6658283"><ele>382.0</ele><time>2026-03-31T16:51:55.159Z</time></trkpt><trkpt lat="41.403745" lon="0.6656883"><ele>382.0</ele><time>2026-03-31T16:51:56.158Z</time></trkpt><trkpt lat="41.4037933" lon="0.6655133"><ele>382.0</ele><time>2026-03-31T16:51:57.158Z</time></trkpt><trkpt lat="41.4038683" lon="0.6653667"><ele>382.0</ele><time>2026-03-31T16:51:58.158Z</time></trkpt><trkpt lat="41.4039533" lon="0.665255"><ele>382.0</ele><time>2026-03-31T16:51:59.158Z</time></trkpt><trkpt lat="41.4040583" lon="0.6651783"><ele>382.25</ele><time>2026-03-31T16:52:00.159Z</time></trkpt><trkpt lat="41.4041633" lon="0.6651017"><ele>382.5</ele><time>2026-03-31T16:52:01.159Z</time></trkpt><trkpt lat="41.40426" lon="0.6650083"><ele>382.75</ele><time>2026-03-31T16:52:02.158Z</time></trkpt><trkpt lat="41.4043117" lon="0.6648517"><ele>383.0</ele><time>2026-03-31T16:52:03.158Z</time></trkpt><trkpt lat="41.4043" lon="0.6646833"><ele>383.0</ele><time>2026-03-31T16:52:04.159Z</time></trkpt><trkpt lat="41.4042517" lon="0.6645217"><ele>383.0</ele><time>2026-03-31T16:52:05.158Z</time></trkpt><trkpt lat="41.4042217" lon="0.6643817"><ele>383.0</ele><time>2026-03-31T16:52:06.159Z</time></trkpt><trkpt lat="41.4042167" lon="0.6642533"><ele>383.0</ele><time>2026-03-31T16:52:07.158Z</time></trkpt><trkpt lat="41.4042633" lon="0.664135"><ele>383.0</ele><time>2026-03-31T16:52:08.159Z</time></trkpt><trkpt lat="41.40435" lon="0.6640383"><ele>382.0</ele><time>2026-03-31T16:52:09.158Z</time></trkpt><trkpt lat="41.4044533" lon="0.6639517"><ele>381.0</ele><time>2026-03-31T16:52:10.159Z</time></trkpt><trkpt lat="41.4045683" lon="0.66387"><ele>380.0</ele><time>2026-03-31T16:52:11.159Z</time></trkpt><trkpt lat="41.4046917" lon="0.6637967"><ele>379.0</ele><time>2026-03-31T16:52:12.158Z</time></trkpt><trkpt lat="41.4048067" lon="0.663715"><ele>381.5</ele><time>2026-03-31T16:52:13.158Z</time></trkpt><trkpt lat="41.4049117" lon="0.6636283"><ele>384.0</ele><time>2026-03-31T16:52:14.158Z</time></trkpt><trkpt lat="41.40499" lon="0.66351"><ele>386.5</ele><time>2026-03-31T16:52:15.158Z</time></trkpt><trkpt lat="41.405045" lon="0.6633583"><ele>389.0</ele><time>2026-03-31T16:52:16.159Z</time></trkpt><trkpt lat="41.4050683" lon="0.66319"><ele>389.0</ele><time>2026-03-31T16:52:17.159Z</time></trkpt><trkpt lat="41.4050783" lon="0.6630167"><ele>389.0</ele><time>2026-03-31T16:52:18.158Z</time></trkpt><trkpt lat="41.40509" lon="0.6628667"><ele>389.0</ele><time>2026-03-31T16:52:19.159Z</time></trkpt><trkpt lat="41.4051167" lon="0.6627417"><ele>389.0</ele><time>2026-03-31T16:52:20.158Z</time></trkpt><trkpt lat="41.4051783" lon="0.6626433"><ele>389.0</ele><time>2026-03-31T16:52:21.159Z</time></trkpt><trkpt lat="41.4052667" lon="0.6625667"><ele>386.75</ele><time>2026-03-31T16:52:22.158Z</time></trkpt><trkpt lat="41.40537" lon="0.6624833"><ele>384.5</ele><time>2026-03-31T16:52:23.159Z</time></trkpt><trkpt lat="41.4054667" lon="0.6623717"><ele>382.25</ele><time>2026-03-31T16:52:24.159Z</time></trkpt><trkpt lat="41.40555" lon="0.6622183"><ele>380.0</ele><time>2026-03-31T16:52:25.159Z</time></trkpt><trkpt lat="41.4056167" lon="0.6620733"><ele>381.0</ele><time>2026-03-31T16:52:26.159Z</time></trkpt><trkpt lat="41.40569" lon="0.6619683"><ele>382.0</ele><time>2026-03-31T16:52:27.158Z</time></trkpt><trkpt lat="41.4057733" lon="0.6618983"><ele>383.0</ele><time>2026-03-31T16:52:28.158Z</time></trkpt><trkpt lat="41.40586" lon="0.6618733"><ele>384.0</ele><time>2026-03-31T16:52:29.159Z</time></trkpt><trkpt lat="41.405935" lon="0.661855"><ele>384.99999999999994</ele><time>2026-03-31T16:52:30.159Z</time></trkpt><trkpt lat="41.406005" lon="0.6618667"><ele>386.0</ele><time>2026-03-31T16:52:31.159Z</time></trkpt><trkpt lat="41.406065" lon="0.661915"><ele>389.0</ele><time>2026-03-31T16:52:32.159Z</time></trkpt><trkpt lat="41.4061" lon="0.6619867"><ele>392.0</ele><time>2026-03-31T16:52:33.159Z</time></trkpt><trkpt lat="41.4061233" lon="0.6620833"><ele>395.0</ele><time>2026-03-31T16:52:34.159Z</time></trkpt><trkpt lat="41.4061433" lon="0.6622133"><ele>398.0</ele><time>2026-03-31T16:52:35.158Z</time></trkpt><trkpt lat="41.4061633" lon="0.66237"><ele>401.0</ele><time>2026-03-31T16:52:36.159Z</time></trkpt><trkpt lat="41.4061967" lon="0.6625417"><ele>401.0</ele><time>2026-03-31T16:52:37.159Z</time></trkpt><trkpt lat="41.4062367" lon="0.6626983"><ele>401.0</ele><time>2026-03-31T16:52:38.158Z</time></trkpt><trkpt lat="41.406285" lon="0.6628683"><ele>401.0</ele><time>2026-03-31T16:52:39.158Z</time></trkpt><trkpt lat="41.4063333" lon="0.6630533"><ele>401.0</ele><time>2026-03-31T16:52:40.158Z</time></trkpt><trkpt lat="41.40637" lon="0.663255"><ele>401.0</ele><time>2026-03-31T16:52:41.158Z</time></trkpt><trkpt lat="41.4064117" lon="0.6634533"><ele>401.0</ele><time>2026-03-31T16:52:42.158Z</time></trkpt><trkpt lat="41.40645" lon="0.6636517"><ele>401.0</ele><time>2026-03-31T16:52:43.158Z</time></trkpt><trkpt lat="41.4064817" lon="0.6638433"><ele>401.0</ele><time>2026-03-31T16:52:44.159Z</time></trkpt><trkpt lat="41.4065" lon="0.66404"><ele>401.0</ele><time>2026-03-31T16:52:45.158Z</time></trkpt><trkpt lat="41.4065017" lon="0.6642383"><ele>401.0</ele><time>2026-03-31T16:52:46.158Z</time></trkpt><trkpt lat="41.4064783" lon="0.66444"><ele>402.66666666666663</ele><time>2026-03-31T16:52:47.158Z</time></trkpt><trkpt lat="41.4064417" lon="0.664635"><ele>404.33333333333337</ele><time>2026-03-31T16:52:48.159Z</time></trkpt><trkpt lat="41.4064" lon="0.6648317"><ele>406.0</ele><time>2026-03-31T16:52:49.158Z</time></trkpt><trkpt lat="41.4063817" lon="0.6650333"><ele>406.0</ele><time>2026-03-31T16:52:50.159Z</time></trkpt><trkpt lat="41.4063833" lon="0.6652567"><ele>406.0</ele><time>2026-03-31T16:52:51.158Z</time></trkpt><trkpt lat="41.40641" lon="0.665475"><ele>406.0</ele><time>2026-03-31T16:52:52.159Z</time></trkpt><trkpt lat="41.4064567" lon="0.665695"><ele>408.6666666666667</ele><time>2026-03-31T16:52:53.159Z</time></trkpt><trkpt lat="41.40651" lon="0.6659317"><ele>411.33333333333337</ele><time>2026-03-31T16:52:54.158Z</time></trkpt><trkpt lat="41.40655" lon="0.6661767"><ele>414.0</ele><time>2026-03-31T16:52:55.159Z</time></trkpt><trkpt lat="41.406575" lon="0.666435"><ele>416.33333333333337</ele><time>2026-03-31T16:52:56.158Z</time></trkpt><trkpt lat="41.4065917" lon="0.6666917"><ele>418.6666666666667</ele><time>2026-03-31T16:52:57.159Z</time></trkpt><trkpt lat="41.406615" lon="0.666945"><ele>421.0</ele><time>2026-03-31T16:52:58.158Z</time></trkpt><trkpt lat="41.406635" lon="0.6672"><ele>423.33333333333337</ele><time>2026-03-31T16:52:59.158Z</time></trkpt><trkpt lat="41.4066483" lon="0.667445"><ele>425.66666666666663</ele><time>2026-03-31T16:53:00.158Z</time></trkpt><trkpt lat="41.406665" lon="0.6676933"><ele>428.0</ele><time>2026-03-31T16:53:01.159Z</time></trkpt><trkpt lat="41.40668" lon="0.6679333"><ele>430.66666666666663</ele><time>2026-03-31T16:53:02.158Z</time></trkpt><trkpt lat="41.4067" lon="0.6681717"><ele>433.33333333333337</ele><time>2026-03-31T16:53:03.158Z</time></trkpt><trkpt lat="41.4067183" lon="0.6683767"><ele>436.0</ele><time>2026-03-31T16:53:04.158Z</time></trkpt><trkpt lat="41.40676" lon="0.6685733"><ele>437.33333333333337</ele><time>2026-03-31T16:53:05.158Z</time></trkpt><trkpt lat="41.40683" lon="0.6687633"><ele>438.66666666666663</ele><time>2026-03-31T16:53:06.158Z</time></trkpt><trkpt lat="41.4069183" lon="0.6689467"><ele>440.0</ele><time>2026-03-31T16:53:07.159Z</time></trkpt><trkpt lat="41.4070167" lon="0.669115"><ele>440.0</ele><time>2026-03-31T16:53:08.158Z</time></trkpt><trkpt lat="41.4071067" lon="0.669285"><ele>440.0</ele><time>2026-03-31T16:53:09.159Z</time></trkpt><trkpt lat="41.4072117" lon="0.6694417"><ele>440.0</ele><time>2026-03-31T16:53:10.159Z</time></trkpt><trkpt lat="41.4073417" lon="0.669575"><ele>439.3333333333333</ele><time>2026-03-31T16:53:11.158Z</time></trkpt><trkpt lat="41.4074917" lon="0.66967"><ele>438.66666666666663</ele><time>2026-03-31T16:53:12.159Z</time></trkpt><trkpt lat="41.4076483" lon="0.66973"><ele>438.0</ele><time>2026-03-31T16:53:13.158Z</time></trkpt><trkpt lat="41.4078" lon="0.669755"><ele>438.0</ele><time>2026-03-31T16:53:14.159Z</time></trkpt><trkpt lat="41.4079583" lon="0.6697517"><ele>438.0</ele><time>2026-03-31T16:53:15.158Z</time></trkpt><trkpt lat="41.4081233" lon="0.669715"><ele>438.0</ele><time>2026-03-31T16:53:16.158Z</time></trkpt><trkpt lat="41.408305" lon="0.6696333"><ele>439.66666666666663</ele><time>2026-03-31T16:53:17.158Z</time></trkpt><trkpt lat="41.4084717" lon="0.6695317"><ele>441.3333333333333</ele><time>2026-03-31T16:53:18.158Z</time></trkpt><trkpt lat="41.408645" lon="0.6694217"><ele>443.0</ele><time>2026-03-31T16:53:19.158Z</time></trkpt><trkpt lat="41.4088117" lon="0.669315"><ele>443.66666666666663</ele><time>2026-03-31T16:53:20.158Z</time></trkpt><trkpt lat="41.4089733" lon="0.6692283"><ele>444.33333333333337</ele><time>2026-03-31T16:53:21.159Z</time></trkpt><trkpt lat="41.4091183" lon="0.669155"><ele>445.0</ele><time>2026-03-31T16:53:22.158Z</time></trkpt><trkpt lat="41.4092417" lon="0.6690967"><ele>445.0</ele><time>2026-03-31T16:53:23.158Z</time></trkpt><trkpt lat="41.4093733" lon="0.6690817"><ele>445.0</ele><time>2026-03-31T16:53:24.158Z</time></trkpt><trkpt lat="41.40951" lon="0.6690933"><ele>445.0</ele><time>2026-03-31T16:53:25.158Z</time></trkpt><trkpt lat="41.4096617" lon="0.6691383"><ele>445.0</ele><time>2026-03-31T16:53:26.159Z</time></trkpt><trkpt lat="41.4098117" lon="0.66919"><ele>445.33333333333337</ele><time>2026-03-31T16:53:27.159Z</time></trkpt><trkpt lat="41.4099767" lon="0.6692383"><ele>445.66666666666663</ele><time>2026-03-31T16:53:28.158Z</time></trkpt><trkpt lat="41.410135" lon="0.6692867"><ele>446.0</ele><time>2026-03-31T16:53:29.158Z</time></trkpt><trkpt lat="41.4102783" lon="0.6693283"><ele>446.0</ele><time>2026-03-31T16:53:30.159Z</time></trkpt><trkpt lat="41.41041" lon="0.6693733"><ele>446.0</ele><time>2026-03-31T16:53:31.159Z</time></trkpt><trkpt lat="41.41052" lon="0.66944"><ele>446.0</ele><time>2026-03-31T16:53:32.158Z</time></trkpt><trkpt lat="41.410615" lon="0.669525"><ele>446.0</ele><time>2026-03-31T16:53:33.159Z</time></trkpt><trkpt lat="41.4106967" lon="0.6696417"><ele>445.25</ele><time>2026-03-31T16:53:34.158Z</time></trkpt><trkpt lat="41.4107567" lon="0.6697933"><ele>444.5</ele><time>2026-03-31T16:53:35.159Z</time></trkpt><trkpt lat="41.4108283" lon="0.66996"><ele>443.75</ele><time>2026-03-31T16:53:36.158Z</time></trkpt><trkpt lat="41.4109017" lon="0.67015"><ele>443.0</ele><time>2026-03-31T16:53:37.158Z</time></trkpt><trkpt lat="41.4109817" lon="0.6703533"><ele>443.0</ele><time>2026-03-31T16:53:38.158Z</time></trkpt><trkpt lat="41.4110683" lon="0.6705667"><ele>443.0</ele><time>2026-03-31T16:53:39.158Z</time></trkpt><trkpt lat="41.4111633" lon="0.670785"><ele>443.0</ele><time>2026-03-31T16:53:40.158Z</time></trkpt><trkpt lat="41.411265" lon="0.6710067"><ele>441.0</ele><time>2026-03-31T16:53:41.158Z</time></trkpt><trkpt lat="41.4113617" lon="0.6712267"><ele>439.0</ele><time>2026-03-31T16:53:42.158Z</time></trkpt><trkpt lat="41.4114567" lon="0.67146"><ele>437.0</ele><time>2026-03-31T16:53:43.158Z</time></trkpt><trkpt lat="41.41155" lon="0.6716883"><ele>437.0</ele><time>2026-03-31T16:53:44.159Z</time></trkpt><trkpt lat="41.4116417" lon="0.6719167"><ele>437.0</ele><time>2026-03-31T16:53:45.159Z</time></trkpt><trkpt lat="41.4117383" lon="0.6721383"><ele>437.0</ele><time>2026-03-31T16:53:46.158Z</time></trkpt><trkpt lat="41.41182" lon="0.67236"><ele>437.3333333333333</ele><time>2026-03-31T16:53:47.159Z</time></trkpt><trkpt lat="41.4119083" lon="0.6725733"><ele>437.66666666666663</ele><time>2026-03-31T16:53:48.158Z</time></trkpt><trkpt lat="41.4119933" lon="0.6727617"><ele>438.0</ele><time>2026-03-31T16:53:49.158Z</time></trkpt><trkpt lat="41.4120583" lon="0.67293"><ele>438.0</ele><time>2026-03-31T16:53:50.159Z</time></trkpt><trkpt lat="41.4120883" lon="0.6731133"><ele>438.0</ele><time>2026-03-31T16:53:51.158Z</time></trkpt><trkpt lat="41.4120883" lon="0.6733067"><ele>438.0</ele><time>2026-03-31T16:53:52.159Z</time></trkpt><trkpt lat="41.41208" lon="0.67352"><ele>438.0</ele><time>2026-03-31T16:53:53.159Z</time></trkpt><trkpt lat="41.4120767" lon="0.673735"><ele>437.0</ele><time>2026-03-31T16:53:54.158Z</time></trkpt><trkpt lat="41.41207" lon="0.67393"><ele>436.0</ele><time>2026-03-31T16:53:55.158Z</time></trkpt><trkpt lat="41.4120633" lon="0.6741217"><ele>435.0</ele><time>2026-03-31T16:53:56.158Z</time></trkpt><trkpt lat="41.41203" lon="0.67429"><ele>434.0</ele><time>2026-03-31T16:53:57.159Z</time></trkpt><trkpt lat="41.4119483" lon="0.674425"><ele>433.3333333333333</ele><time>2026-03-31T16:53:58.158Z</time></trkpt><trkpt lat="41.4118417" lon="0.6745667"><ele>432.66666666666663</ele><time>2026-03-31T16:53:59.159Z</time></trkpt><trkpt lat="41.41173" lon="0.6747033"><ele>432.0</ele><time>2026-03-31T16:54:00.158Z</time></trkpt><trkpt lat="41.4116233" lon="0.674845"><ele>432.0</ele><time>2026-03-31T16:54:01.159Z</time></trkpt><trkpt lat="41.4115133" lon="0.6749783"><ele>432.0</ele><time>2026-03-31T16:54:02.159Z</time></trkpt><trkpt lat="41.411415" lon="0.6750783"><ele>432.0</ele><time>2026-03-31T16:54:03.159Z</time></trkpt><trkpt lat="41.4112983" lon="0.675145"><ele>432.0</ele><time>2026-03-31T16:54:04.158Z</time></trkpt><trkpt lat="41.4111767" lon="0.6751633"><ele>431.0</ele><time>2026-03-31T16:54:05.159Z</time></trkpt><trkpt lat="41.411045" lon="0.675165"><ele>430.0</ele><time>2026-03-31T16:54:06.159Z</time></trkpt><trkpt lat="41.4109183" lon="0.6751633"><ele>429.0</ele><time>2026-03-31T16:54:07.159Z</time></trkpt><trkpt lat="41.4108117" lon="0.67518"><ele>428.0</ele><time>2026-03-31T16:54:08.159Z</time></trkpt><trkpt lat="41.4107133" lon="0.6752283"><ele>427.75</ele><time>2026-03-31T16:54:09.158Z</time></trkpt><trkpt lat="41.4106317" lon="0.6753167"><ele>427.5</ele><time>2026-03-31T16:54:10.158Z</time></trkpt><trkpt lat="41.4105617" lon="0.6754417"><ele>427.25</ele><time>2026-03-31T16:54:11.159Z</time></trkpt><trkpt lat="41.4105067" lon="0.6755933"><ele>427.0</ele><time>2026-03-31T16:54:12.159Z</time></trkpt><trkpt lat="41.4104583" lon="0.67575"><ele>427.0</ele><time>2026-03-31T16:54:13.159Z</time></trkpt><trkpt lat="41.4104083" lon="0.6759"><ele>427.0</ele><time>2026-03-31T16:54:14.158Z</time></trkpt><trkpt lat="41.410355" lon="0.6760383"><ele>427.0</ele><time>2026-03-31T16:54:15.158Z</time></trkpt><trkpt lat="41.4102767" lon="0.6761617"><ele>427.0</ele><time>2026-03-31T16:54:16.158Z</time></trkpt><trkpt lat="41.41017" lon="0.6762567"><ele>423.0</ele><time>2026-03-31T16:54:17.158Z</time></trkpt><trkpt lat="41.4100483" lon="0.6763583"><ele>419.0</ele><time>2026-03-31T16:54:18.158Z</time></trkpt><trkpt lat="41.409925" lon="0.6764583"><ele>415.0</ele><time>2026-03-31T16:54:19.159Z</time></trkpt><trkpt lat="41.4098033" lon="0.67657"><ele>411.0</ele><time>2026-03-31T16:54:20.159Z</time></trkpt><trkpt lat="41.4096867" lon="0.6766867"><ele>411.0</ele><time>2026-03-31T16:54:21.158Z</time></trkpt><trkpt lat="41.409565" lon="0.6767867"><ele>411.0</ele><time>2026-03-31T16:54:22.159Z</time></trkpt><trkpt lat="41.4094483" lon="0.6768733"><ele>411.0</ele><time>2026-03-31T16:54:23.158Z</time></trkpt><trkpt lat="41.40932" lon="0.6769483"><ele>411.0</ele><time>2026-03-31T16:54:24.158Z</time></trkpt><trkpt lat="41.40918" lon="0.6770417"><ele>411.0</ele><time>2026-03-31T16:54:25.158Z</time></trkpt><trkpt lat="41.40905" lon="0.6771383"><ele>411.0</ele><time>2026-03-31T16:54:26.159Z</time></trkpt><trkpt lat="41.4089317" lon="0.677235"><ele>411.0</ele><time>2026-03-31T16:54:27.159Z</time></trkpt><trkpt lat="41.4088183" lon="0.6773417"><ele>411.0</ele><time>2026-03-31T16:54:28.159Z</time></trkpt><trkpt lat="41.4087267" lon="0.677445"><ele>412.6</ele><time>2026-03-31T16:54:29.159Z</time></trkpt><trkpt lat="41.4086583" lon="0.6775517"><ele>414.20000000000005</ele><time>2026-03-31T16:54:30.159Z</time></trkpt><trkpt lat="41.4086267" lon="0.67767"><ele>415.79999999999995</ele><time>2026-03-31T16:54:31.159Z</time></trkpt><trkpt lat="41.4086367" lon="0.6778017"><ele>417.4</ele><time>2026-03-31T16:54:32.158Z</time></trkpt><trkpt lat="41.4086983" lon="0.6779233"><ele>419.0</ele><time>2026-03-31T16:54:33.159Z</time></trkpt><trkpt lat="41.4087983" lon="0.6779917"><ele>420.0</ele><time>2026-03-31T16:54:34.158Z</time></trkpt><trkpt lat="41.4089267" lon="0.6779783"><ele>421.0</ele><time>2026-03-31T16:54:35.158Z</time></trkpt><trkpt lat="41.4090667" lon="0.6779367"><ele>422.0</ele><time>2026-03-31T16:54:36.158Z</time></trkpt><trkpt lat="41.4092067" lon="0.67786"><ele>423.0</ele><time>2026-03-31T16:54:37.159Z</time></trkpt><trkpt lat="41.4093533" lon="0.6777917"><ele>419.0</ele><time>2026-03-31T16:54:38.159Z</time></trkpt><trkpt lat="41.4095083" lon="0.67774"><ele>415.0</ele><time>2026-03-31T16:54:39.158Z</time></trkpt><trkpt lat="41.4096733" lon="0.6777183"><ele>411.0</ele><time>2026-03-31T16:54:40.158Z</time></trkpt><trkpt lat="41.40984" lon="0.6777017"><ele>409.0</ele><time>2026-03-31T16:54:41.158Z</time></trkpt><trkpt lat="41.4100033" lon="0.6776833"><ele>407.0</ele><time>2026-03-31T16:54:42.158Z</time></trkpt><trkpt lat="41.4101567" lon="0.6776633"><ele>405.0</ele><time>2026-03-31T16:54:43.158Z</time></trkpt><trkpt lat="41.41029" lon="0.6776533"><ele>405.0</ele><time>2026-03-31T16:54:44.158Z</time></trkpt><trkpt lat="41.410415" lon="0.6776617"><ele>405.0</ele><time>2026-03-31T16:54:45.159Z</time></trkpt><trkpt lat="41.4105517" lon="0.677735"><ele>405.0</ele><time>2026-03-31T16:54:46.158Z</time></trkpt><trkpt lat="41.4106883" lon="0.6778217"><ele>405.0</ele><time>2026-03-31T16:54:47.159Z</time></trkpt><trkpt lat="41.4108233" lon="0.6779233"><ele>406.0</ele><time>2026-03-31T16:54:48.158Z</time></trkpt><trkpt lat="41.4109717" lon="0.6780267"><ele>407.0</ele><time>2026-03-31T16:54:49.158Z</time></trkpt><trkpt lat="41.4111183" lon="0.6781317"><ele>408.0</ele><time>2026-03-31T16:54:50.159Z</time></trkpt><trkpt lat="41.4112533" lon="0.6782417"><ele>403.33333333333337</ele><time>2026-03-31T16:54:51.158Z</time></trkpt><trkpt lat="41.41139" lon="0.6783517"><ele>398.6666666666667</ele><time>2026-03-31T16:54:52.158Z</time></trkpt><trkpt lat="41.4115267" lon="0.67848"><ele>394.0</ele><time>2026-03-31T16:54:53.158Z</time></trkpt><trkpt lat="41.4116583" lon="0.6786067"><ele>394.0</ele><time>2026-03-31T16:54:54.158Z</time></trkpt><trkpt lat="41.41178" lon="0.6787267"><ele>394.0</ele><time>2026-03-31T16:54:55.158Z</time></trkpt><trkpt lat="41.411885" lon="0.6788333"><ele>394.0</ele><time>2026-03-31T16:54:56.158Z</time></trkpt><trkpt lat="41.4119667" lon="0.6789467"><ele>394.0</ele><time>2026-03-31T16:54:57.158Z</time></trkpt><trkpt lat="41.4120317" lon="0.679085"><ele>394.0</ele><time>2026-03-31T16:54:58.158Z</time></trkpt><trkpt lat="41.4120933" lon="0.6792517"><ele>394.0</ele><time>2026-03-31T16:54:59.158Z</time></trkpt><trkpt lat="41.4121517" lon="0.67942"><ele>394.0</ele><time>2026-03-31T16:55:00.158Z</time></trkpt><trkpt lat="41.4122067" lon="0.6795833"><ele>394.0</ele><time>2026-03-31T16:55:01.158Z</time></trkpt><trkpt lat="41.41227" lon="0.6797317"><ele>391.79999999999995</ele><time>2026-03-31T16:55:02.158Z</time></trkpt><trkpt lat="41.41233" lon="0.6798567"><ele>389.59999999999997</ele><time>2026-03-31T16:55:03.159Z</time></trkpt><trkpt lat="41.41241" lon="0.6799533"><ele>387.4</ele><time>2026-03-31T16:55:04.159Z</time></trkpt><trkpt lat="41.4125" lon="0.6800183"><ele>385.2</ele><time>2026-03-31T16:55:05.158Z</time></trkpt><trkpt lat="41.412605" lon="0.6800233"><ele>383.0</ele><time>2026-03-31T16:55:06.159Z</time></trkpt><trkpt lat="41.41272" lon="0.6799883"><ele>383.0</ele><time>2026-03-31T16:55:07.158Z</time></trkpt><trkpt lat="41.4128283" lon="0.67995"><ele>383.0</ele><time>2026-03-31T16:55:08.158Z</time></trkpt><trkpt lat="41.412935" lon="0.6799"><ele>383.0</ele><time>2026-03-31T16:55:09.159Z</time></trkpt><trkpt lat="41.4130517" lon="0.6798583"><ele>383.0</ele><time>2026-03-31T16:55:10.158Z</time></trkpt><trkpt lat="41.4131633" lon="0.6798133"><ele>381.75</ele><time>2026-03-31T16:55:11.158Z</time></trkpt><trkpt lat="41.4132767" lon="0.6797883"><ele>380.5</ele><time>2026-03-31T16:55:12.158Z</time></trkpt><trkpt lat="41.4134" lon="0.6797783"><ele>379.25</ele><time>2026-03-31T16:55:13.158Z</time></trkpt><trkpt lat="41.4135317" lon="0.67978"><ele>378.0</ele><time>2026-03-31T16:55:14.159Z</time></trkpt><trkpt lat="41.4136667" lon="0.67979"><ele>378.0</ele><time>2026-03-31T16:55:15.159Z</time></trkpt><trkpt lat="41.41379" lon="0.6798033"><ele>378.0</ele><time>2026-03-31T16:55:16.158Z</time></trkpt><trkpt lat="41.413905" lon="0.6798317"><ele>378.0</ele><time>2026-03-31T16:55:17.159Z</time></trkpt><trkpt lat="41.4140117" lon="0.6798633"><ele>378.0</ele><time>2026-03-31T16:55:18.159Z</time></trkpt><trkpt lat="41.4141083" lon="0.6799067"><ele>376.79999999999995</ele><time>2026-03-31T16:55:19.159Z</time></trkpt><trkpt lat="41.4141933" lon="0.6799767"><ele>375.6</ele><time>2026-03-31T16:55:20.158Z</time></trkpt><trkpt lat="41.4142617" lon="0.6800783"><ele>374.4</ele><time>2026-03-31T16:55:21.159Z</time></trkpt><trkpt lat="41.414315" lon="0.6802217"><ele>373.20000000000005</ele><time>2026-03-31T16:55:22.158Z</time></trkpt><trkpt lat="41.4143567" lon="0.6803683"><ele>372.0</ele><time>2026-03-31T16:55:23.158Z</time></trkpt><trkpt lat="41.414395" lon="0.6805067"><ele>372.0</ele><time>2026-03-31T16:55:24.158Z</time></trkpt><trkpt lat="41.414425" lon="0.680645"><ele>372.0</ele><time>2026-03-31T16:55:25.159Z</time></trkpt><trkpt lat="41.4144333" lon="0.6807967"><ele>372.0</ele><time>2026-03-31T16:55:26.159Z</time></trkpt><trkpt lat="41.4144133" lon="0.68094"><ele>372.0</ele><time>2026-03-31T16:55:27.159Z</time></trkpt><trkpt lat="41.41436" lon="0.6810683"><ele>372.0</ele><time>2026-03-31T16:55:28.159Z</time></trkpt><trkpt lat="41.414305" lon="0.6812"><ele>371.0</ele><time>2026-03-31T16:55:29.158Z</time></trkpt><trkpt lat="41.4142367" lon="0.681345"><ele>370.0</ele><time>2026-03-31T16:55:30.158Z</time></trkpt><trkpt lat="41.41417" lon="0.6814917"><ele>369.0</ele><time>2026-03-31T16:55:31.158Z</time></trkpt><trkpt lat="41.4140983" lon="0.6816483"><ele>368.0</ele><time>2026-03-31T16:55:32.159Z</time></trkpt><trkpt lat="41.414025" lon="0.6818117"><ele>367.5</ele><time>2026-03-31T16:55:33.158Z</time></trkpt><trkpt lat="41.4139583" lon="0.68198"><ele>367.0</ele><time>2026-03-31T16:55:34.159Z</time></trkpt><trkpt lat="41.4138783" lon="0.6821533"><ele>366.5</ele><time>2026-03-31T16:55:35.159Z</time></trkpt><trkpt lat="41.4138" lon="0.6823183"><ele>366.0</ele><time>2026-03-31T16:55:36.158Z</time></trkpt><trkpt lat="41.4137233" lon="0.6824917"><ele>369.75</ele><time>2026-03-31T16:55:37.158Z</time></trkpt><trkpt lat="41.4136583" lon="0.6826517"><ele>373.5</ele><time>2026-03-31T16:55:38.158Z</time></trkpt><trkpt lat="41.4135967" lon="0.6827983"><ele>377.25</ele><time>2026-03-31T16:55:39.159Z</time></trkpt><trkpt lat="41.413535" lon="0.6829467"><ele>381.0</ele><time>2026-03-31T16:55:40.159Z</time></trkpt><trkpt lat="41.4134833" lon="0.683095"><ele>381.0</ele><time>2026-03-31T16:55:41.158Z</time></trkpt><trkpt lat="41.41344" lon="0.6832533"><ele>381.0</ele><time>2026-03-31T16:55:42.158Z</time></trkpt><trkpt lat="41.4134" lon="0.6834133"><ele>381.0</ele><time>2026-03-31T16:55:43.158Z</time></trkpt><trkpt lat="41.413365" lon="0.6835717"><ele>381.0</ele><time>2026-03-31T16:55:44.159Z</time></trkpt><trkpt lat="41.41332" lon="0.683735"><ele>380.25</ele><time>2026-03-31T16:55:45.158Z</time></trkpt><trkpt lat="41.4132767" lon="0.6838933"><ele>379.5</ele><time>2026-03-31T16:55:46.159Z</time></trkpt><trkpt lat="41.4132233" lon="0.6840583"><ele>378.75</ele><time>2026-03-31T16:55:47.159Z</time></trkpt><trkpt lat="41.41316" lon="0.6841983"><ele>378.0</ele><time>2026-03-31T16:55:48.159Z</time></trkpt><trkpt lat="41.4130867" lon="0.6843183"><ele>378.0</ele><time>2026-03-31T16:55:49.158Z</time></trkpt><trkpt lat="41.4130017" lon="0.6844217"><ele>378.0</ele><time>2026-03-31T16:55:50.159Z</time></trkpt><trkpt lat="41.4129033" lon="0.6845317"><ele>378.0</ele><time>2026-03-31T16:55:51.159Z</time></trkpt><trkpt lat="41.4128067" lon="0.68464"><ele>378.0</ele><time>2026-03-31T16:55:52.159Z</time></trkpt><trkpt lat="41.4127067" lon="0.6847483"><ele>380.75</ele><time>2026-03-31T16:55:53.159Z</time></trkpt><trkpt lat="41.4126083" lon="0.6848617"><ele>383.5</ele><time>2026-03-31T16:55:54.158Z</time></trkpt><trkpt lat="41.4125167" lon="0.6849717"><ele>386.25</ele><time>2026-03-31T16:55:55.159Z</time></trkpt><trkpt lat="41.4124267" lon="0.6850867"><ele>389.0</ele><time>2026-03-31T16:55:56.159Z</time></trkpt><trkpt lat="41.41236" lon="0.6852067"><ele>387.2</ele><time>2026-03-31T16:55:57.159Z</time></trkpt><trkpt lat="41.4123183" lon="0.6853383"><ele>385.4</ele><time>2026-03-31T16:55:58.158Z</time></trkpt><trkpt lat="41.4122933" lon="0.6854767"><ele>383.6</ele><time>2026-03-31T16:55:59.159Z</time></trkpt><trkpt lat="41.412275" lon="0.6856217"><ele>381.8</ele><time>2026-03-31T16:56:00.158Z</time></trkpt><trkpt lat="41.412245" lon="0.68576"><ele>380.0</ele><time>2026-03-31T16:56:01.158Z</time></trkpt><trkpt lat="41.4122117" lon="0.6859267"><ele>377.5</ele><time>2026-03-31T16:56:02.159Z</time></trkpt><trkpt lat="41.412175" lon="0.686095"><ele>375.0</ele><time>2026-03-31T16:56:03.158Z</time></trkpt><trkpt lat="41.41214" lon="0.6862633"><ele>372.5</ele><time>2026-03-31T16:56:04.159Z</time></trkpt><trkpt lat="41.4121067" lon="0.6864283"><ele>370.0</ele><time>2026-03-31T16:56:05.158Z</time></trkpt><trkpt lat="41.4120767" lon="0.6865983"><ele>372.5</ele><time>2026-03-31T16:56:06.158Z</time></trkpt><trkpt lat="41.41205" lon="0.686755"><ele>375.0</ele><time>2026-03-31T16:56:07.158Z</time></trkpt><trkpt lat="41.4120467" lon="0.68691"><ele>377.5</ele><time>2026-03-31T16:56:08.158Z</time></trkpt><trkpt lat="41.41208" lon="0.6870717"><ele>380.0</ele><time>2026-03-31T16:56:09.158Z</time></trkpt><trkpt lat="41.41214" lon="0.6872117"><ele>378.4</ele><time>2026-03-31T16:56:10.158Z</time></trkpt><trkpt lat="41.4122267" lon="0.6873333"><ele>376.8</ele><time>2026-03-31T16:56:11.159Z</time></trkpt><trkpt lat="41.4123217" lon="0.6874333"><ele>375.20000000000005</ele><time>2026-03-31T16:56:12.158Z</time></trkpt><trkpt lat="41.4124067" lon="0.6875167"><ele>373.6</ele><time>2026-03-31T16:56:13.159Z</time></trkpt><trkpt lat="41.4124767" lon="0.68759"><ele>372.0</ele><time>2026-03-31T16:56:14.158Z</time></trkpt><trkpt lat="41.4125267" lon="0.687645"><ele>372.0</ele><time>2026-03-31T16:56:15.158Z</time></trkpt><trkpt lat="41.4126033" lon="0.687715"><ele>372.0</ele><time>2026-03-31T16:56:17.159Z</time></trkpt><trkpt lat="41.4126583" lon="0.687785"><ele>372.0</ele><time>2026-03-31T16:56:21.159Z</time></trkpt><trkpt lat="41.4127483" lon="0.687905"><ele>372.0</ele><time>2026-03-31T16:56:23.158Z</time></trkpt><trkpt lat="41.4128283" lon="0.68795"><ele>372.0</ele><time>2026-03-31T16:56:24.158Z</time></trkpt><trkpt lat="41.4129283" lon="0.68797"><ele>374.75</ele><time>2026-03-31T16:56:25.158Z</time></trkpt><trkpt lat="41.4130367" lon="0.687965"><ele>377.5</ele><time>2026-03-31T16:56:26.158Z</time></trkpt><trkpt lat="41.4131617" lon="0.6879483"><ele>380.25</ele><time>2026-03-31T16:56:27.158Z</time></trkpt><trkpt lat="41.4132767" lon="0.687935"><ele>383.0</ele><time>2026-03-31T16:56:28.159Z</time></trkpt><trkpt lat="41.4133817" lon="0.6879683"><ele>383.0</ele><time>2026-03-31T16:56:29.159Z</time></trkpt><trkpt lat="41.4134733" lon="0.68804"><ele>383.0</ele><time>2026-03-31T16:56:30.158Z</time></trkpt><trkpt lat="41.4135167" lon="0.6881467"><ele>383.0</ele><time>2026-03-31T16:56:31.158Z</time></trkpt><trkpt lat="41.4135117" lon="0.6882617"><ele>383.0</ele><time>2026-03-31T16:56:32.158Z</time></trkpt><trkpt lat="41.41348" lon="0.6883617"><ele>383.0</ele><time>2026-03-31T16:56:33.158Z</time></trkpt><trkpt lat="41.4134" lon="0.6884283"><ele>383.0</ele><time>2026-03-31T16:56:34.158Z</time></trkpt><trkpt lat="41.4132983" lon="0.6884783"><ele>383.0</ele><time>2026-03-31T16:56:35.159Z</time></trkpt><trkpt lat="41.41318" lon="0.688515"><ele>383.0</ele><time>2026-03-31T16:56:36.158Z</time></trkpt><trkpt lat="41.41305" lon="0.6885733"><ele>383.0</ele><time>2026-03-31T16:56:37.158Z</time></trkpt><trkpt lat="41.412925" lon="0.688655"><ele>383.0</ele><time>2026-03-31T16:56:38.159Z</time></trkpt><trkpt lat="41.4128233" lon="0.6887833"><ele>383.0</ele><time>2026-03-31T16:56:39.158Z</time></trkpt><trkpt lat="41.41274" lon="0.6889333"><ele>383.0</ele><time>2026-03-31T16:56:40.159Z</time></trkpt><trkpt lat="41.41268" lon="0.6891233"><ele>383.0</ele><time>2026-03-31T16:56:41.159Z</time></trkpt><trkpt lat="41.4126417" lon="0.6893367"><ele>384.25</ele><time>2026-03-31T16:56:42.159Z</time></trkpt><trkpt lat="41.412615" lon="0.6895533"><ele>385.5</ele><time>2026-03-31T16:56:43.158Z</time></trkpt><trkpt lat="41.41259" lon="0.6897417"><ele>386.75</ele><time>2026-03-31T16:56:44.159Z</time></trkpt><trkpt lat="41.4125567" lon="0.6899167"><ele>388.0</ele><time>2026-03-31T16:56:45.159Z</time></trkpt><trkpt lat="41.4125567" lon="0.690095"><ele>387.33333333333337</ele><time>2026-03-31T16:56:46.158Z</time></trkpt><trkpt lat="41.412595" lon="0.6902883"><ele>386.66666666666663</ele><time>2026-03-31T16:56:47.158Z</time></trkpt><trkpt lat="41.4126683" lon="0.6904767"><ele>386.0</ele><time>2026-03-31T16:56:48.158Z</time></trkpt><trkpt lat="41.41277" lon="0.69065"><ele>386.0</ele><time>2026-03-31T16:56:49.159Z</time></trkpt><trkpt lat="41.4128917" lon="0.6908133"><ele>386.0</ele><time>2026-03-31T16:56:50.158Z</time></trkpt><trkpt lat="41.41302" lon="0.69097"><ele>386.0</ele><time>2026-03-31T16:56:51.159Z</time></trkpt><trkpt lat="41.41315" lon="0.6911167"><ele>389.66666666666663</ele><time>2026-03-31T16:56:52.158Z</time></trkpt><trkpt lat="41.413265" lon="0.6912767"><ele>393.33333333333337</ele><time>2026-03-31T16:56:53.159Z</time></trkpt><trkpt lat="41.4133683" lon="0.6914533"><ele>397.0</ele><time>2026-03-31T16:56:54.158Z</time></trkpt><trkpt lat="41.4134367" lon="0.69166"><ele>397.0</ele><time>2026-03-31T16:56:55.158Z</time></trkpt><trkpt lat="41.4134633" lon="0.6918883"><ele>397.0</ele><time>2026-03-31T16:56:56.158Z</time></trkpt><trkpt lat="41.4134417" lon="0.6921267"><ele>397.0</ele><time>2026-03-31T16:56:57.158Z</time></trkpt><trkpt lat="41.4134033" lon="0.692365"><ele>399.6666666666667</ele><time>2026-03-31T16:56:58.159Z</time></trkpt><trkpt lat="41.413365" lon="0.6926117"><ele>402.33333333333337</ele><time>2026-03-31T16:56:59.158Z</time></trkpt><trkpt lat="41.4133233" lon="0.69286"><ele>405.0</ele><time>2026-03-31T16:57:00.159Z</time></trkpt><trkpt lat="41.413295" lon="0.6931"><ele>407.0</ele><time>2026-03-31T16:57:01.159Z</time></trkpt><trkpt lat="41.413275" lon="0.6933367"><ele>409.0</ele><time>2026-03-31T16:57:02.158Z</time></trkpt><trkpt lat="41.41329" lon="0.693575"><ele>411.0</ele><time>2026-03-31T16:57:03.159Z</time></trkpt><trkpt lat="41.4133367" lon="0.6938183"><ele>410.66666666666663</ele><time>2026-03-31T16:57:04.159Z</time></trkpt><trkpt lat="41.4134167" lon="0.6940567"><ele>410.3333333333333</ele><time>2026-03-31T16:57:05.159Z</time></trkpt><trkpt lat="41.4135183" lon="0.6942717"><ele>410.0</ele><time>2026-03-31T16:57:06.159Z</time></trkpt><trkpt lat="41.4136483" lon="0.6944817"><ele>410.0</ele><time>2026-03-31T16:57:07.158Z</time></trkpt><trkpt lat="41.4137933" lon="0.6946867"><ele>410.0</ele><time>2026-03-31T16:57:08.158Z</time></trkpt><trkpt lat="41.4139317" lon="0.6948983"><ele>410.0</ele><time>2026-03-31T16:57:09.159Z</time></trkpt><trkpt lat="41.4140417" lon="0.6951333"><ele>415.66666666666663</ele><time>2026-03-31T16:57:10.159Z</time></trkpt><trkpt lat="41.41414" lon="0.6953917"><ele>421.33333333333337</ele><time>2026-03-31T16:57:11.158Z</time></trkpt><trkpt lat="41.4142167" lon="0.69565"><ele>427.0</ele><time>2026-03-31T16:57:12.158Z</time></trkpt><trkpt lat="41.4142633" lon="0.6959133"><ele>427.6666666666667</ele><time>2026-03-31T16:57:13.158Z</time></trkpt><trkpt lat="41.4142867" lon="0.6961967"><ele>428.33333333333337</ele><time>2026-03-31T16:57:14.159Z</time></trkpt><trkpt lat="41.4142833" lon="0.6964733"><ele>429.0</ele><time>2026-03-31T16:57:15.159Z</time></trkpt><trkpt lat="41.4142633" lon="0.6967467"><ele>430.33333333333337</ele><time>2026-03-31T16:57:16.158Z</time></trkpt><trkpt lat="41.4142467" lon="0.697025"><ele>431.6666666666667</ele><time>2026-03-31T16:57:17.159Z</time></trkpt><trkpt lat="41.4142367" lon="0.697305"><ele>433.0</ele><time>2026-03-31T16:57:18.158Z</time></trkpt><trkpt lat="41.4142283" lon="0.6975783"><ele>434.33333333333337</ele><time>2026-03-31T16:57:19.158Z</time></trkpt><trkpt lat="41.4142267" lon="0.69785"><ele>435.66666666666663</ele><time>2026-03-31T16:57:20.159Z</time></trkpt><trkpt lat="41.4142417" lon="0.698095"><ele>437.0</ele><time>2026-03-31T16:57:21.159Z</time></trkpt><trkpt lat="41.4142717" lon="0.6983333"><ele>437.0</ele><time>2026-03-31T16:57:22.158Z</time></trkpt><trkpt lat="41.4143233" lon="0.6985433"><ele>437.0</ele><time>2026-03-31T16:57:23.158Z</time></trkpt><trkpt lat="41.4143583" lon="0.69871"><ele>437.0</ele><time>2026-03-31T16:57:24.159Z</time></trkpt><trkpt lat="41.414355" lon="0.69886"><ele>437.0</ele><time>2026-03-31T16:57:25.158Z</time></trkpt><trkpt lat="41.4143" lon="0.6989833"><ele>439.25</ele><time>2026-03-31T16:57:26.158Z</time></trkpt><trkpt lat="41.4142183" lon="0.69908"><ele>441.5</ele><time>2026-03-31T16:57:27.159Z</time></trkpt><trkpt lat="41.41411" lon="0.69914"><ele>443.75</ele><time>2026-03-31T16:57:28.159Z</time></trkpt><trkpt lat="41.4139967" lon="0.699125"><ele>446.0</ele><time>2026-03-31T16:57:29.158Z</time></trkpt><trkpt lat="41.413885" lon="0.699045"><ele>448.0</ele><time>2026-03-31T16:57:30.158Z</time></trkpt><trkpt lat="41.4137867" lon="0.698945"><ele>450.0</ele><time>2026-03-31T16:57:31.158Z</time></trkpt><trkpt lat="41.4136817" lon="0.6988267"><ele>452.0</ele><time>2026-03-31T16:57:32.159Z</time></trkpt><trkpt lat="41.4135667" lon="0.6987383"><ele>454.0</ele><time>2026-03-31T16:57:33.158Z</time></trkpt><trkpt lat="41.4134167" lon="0.6987067"><ele>454.0</ele><time>2026-03-31T16:57:34.158Z</time></trkpt><trkpt lat="41.4132583" lon="0.69871"><ele>454.0</ele><time>2026-03-31T16:57:35.158Z</time></trkpt><trkpt lat="41.4131017" lon="0.6987533"><ele>454.0</ele><time>2026-03-31T16:57:36.159Z</time></trkpt><trkpt lat="41.41296" lon="0.6988117"><ele>454.5</ele><time>2026-03-31T16:57:37.158Z</time></trkpt><trkpt lat="41.412855" lon="0.6989183"><ele>455.0</ele><time>2026-03-31T16:57:38.158Z</time></trkpt><trkpt lat="41.4127567" lon="0.6990633"><ele>455.5</ele><time>2026-03-31T16:57:39.158Z</time></trkpt><trkpt lat="41.412695" lon="0.69924"><ele>456.0</ele><time>2026-03-31T16:57:40.158Z</time></trkpt><trkpt lat="41.41267" lon="0.69944"><ele>456.0</ele><time>2026-03-31T16:57:41.158Z</time></trkpt><trkpt lat="41.412665" lon="0.699685"><ele>456.0</ele><time>2026-03-31T16:57:42.159Z</time></trkpt><trkpt lat="41.41266" lon="0.6999267"><ele>456.0</ele><time>2026-03-31T16:57:43.158Z</time></trkpt><trkpt lat="41.4126667" lon="0.700175"><ele>458.66666666666663</ele><time>2026-03-31T16:57:44.159Z</time></trkpt><trkpt lat="41.41267" lon="0.7004267"><ele>461.3333333333333</ele><time>2026-03-31T16:57:45.158Z</time></trkpt><trkpt lat="41.4126733" lon="0.70067"><ele>464.0</ele><time>2026-03-31T16:57:46.159Z</time></trkpt><trkpt lat="41.4126933" lon="0.70091"><ele>465.3333333333333</ele><time>2026-03-31T16:57:47.159Z</time></trkpt><trkpt lat="41.412715" lon="0.7011483"><ele>466.66666666666663</ele><time>2026-03-31T16:57:48.158Z</time></trkpt><trkpt lat="41.41275" lon="0.7013983"><ele>468.0</ele><time>2026-03-31T16:57:49.158Z</time></trkpt><trkpt lat="41.41278" lon="0.7016583"><ele>468.33333333333337</ele><time>2026-03-31T16:57:50.158Z</time></trkpt><trkpt lat="41.4128" lon="0.701925"><ele>468.6666666666667</ele><time>2026-03-31T16:57:51.158Z</time></trkpt><trkpt lat="41.4127767" lon="0.7021883"><ele>469.0</ele><time>2026-03-31T16:57:52.158Z</time></trkpt><trkpt lat="41.4127417" lon="0.7024567"><ele>469.0</ele><time>2026-03-31T16:57:53.158Z</time></trkpt><trkpt lat="41.4127083" lon="0.70273"><ele>469.0</ele><time>2026-03-31T16:57:54.159Z</time></trkpt><trkpt lat="41.41268" lon="0.703015"><ele>469.0</ele><time>2026-03-31T16:57:55.158Z</time></trkpt><trkpt lat="41.4126483" lon="0.70331"><ele>471.0</ele><time>2026-03-31T16:57:56.159Z</time></trkpt><trkpt lat="41.4126217" lon="0.7036033"><ele>473.0</ele><time>2026-03-31T16:57:57.158Z</time></trkpt><trkpt lat="41.4125933" lon="0.7038933"><ele>475.0</ele><time>2026-03-31T16:57:58.158Z</time></trkpt><trkpt lat="41.4125617" lon="0.7041867"><ele>476.33333333333337</ele><time>2026-03-31T16:57:59.159Z</time></trkpt><trkpt lat="41.4125317" lon="0.7044783"><ele>477.66666666666663</ele><time>2026-03-31T16:58:00.159Z</time></trkpt><trkpt lat="41.412505" lon="0.7047717"><ele>479.0</ele><time>2026-03-31T16:58:01.159Z</time></trkpt><trkpt lat="41.41247" lon="0.7050683"><ele>480.3333333333333</ele><time>2026-03-31T16:58:02.158Z</time></trkpt><trkpt lat="41.41244" lon="0.7053583"><ele>481.66666666666663</ele><time>2026-03-31T16:58:03.158Z</time></trkpt><trkpt lat="41.4124067" lon="0.705645"><ele>483.0</ele><time>2026-03-31T16:58:04.159Z</time></trkpt><trkpt lat="41.4123783" lon="0.705935"><ele>483.5</ele><time>2026-03-31T16:58:05.158Z</time></trkpt><trkpt lat="41.41235" lon="0.7062383"><ele>484.0</ele><time>2026-03-31T16:58:06.159Z</time></trkpt><trkpt lat="41.4123117" lon="0.7065417"><ele>484.0</ele><time>2026-03-31T16:58:07.158Z</time></trkpt><trkpt lat="41.4122717" lon="0.7068533"><ele>484.0</ele><time>2026-03-31T16:58:08.159Z</time></trkpt><trkpt lat="41.41224" lon="0.7071583"><ele>483.0</ele><time>2026-03-31T16:58:09.159Z</time></trkpt><trkpt lat="41.4122133" lon="0.70746"><ele>482.0</ele><time>2026-03-31T16:58:10.159Z</time></trkpt><trkpt lat="41.412185" lon="0.70776"><ele>483.0</ele><time>2026-03-31T16:58:11.158Z</time></trkpt><trkpt lat="41.41215" lon="0.7080667"><ele>484.0</ele><time>2026-03-31T16:58:12.157Z</time></trkpt><trkpt lat="41.4121183" lon="0.7083717"><ele>484.5</ele><time>2026-03-31T16:58:13.158Z</time></trkpt><trkpt lat="41.4121017" lon="0.708685"><ele>485.0</ele><time>2026-03-31T16:58:14.157Z</time></trkpt><trkpt lat="41.4121117" lon="0.7089933"><ele>485.0</ele><time>2026-03-31T16:58:15.157Z</time></trkpt><trkpt lat="41.41214" lon="0.7093117"><ele>485.0</ele><time>2026-03-31T16:58:16.157Z</time></trkpt><trkpt lat="41.4121917" lon="0.7096283"><ele>484.0</ele><time>2026-03-31T16:58:17.157Z</time></trkpt><trkpt lat="41.412255" lon="0.7099383"><ele>483.0</ele><time>2026-03-31T16:58:18.158Z</time></trkpt><trkpt lat="41.4123167" lon="0.71025"><ele>483.0</ele><time>2026-03-31T16:58:19.157Z</time></trkpt><trkpt lat="41.4123833" lon="0.7105667"><ele>483.0</ele><time>2026-03-31T16:58:20.158Z</time></trkpt><trkpt lat="41.412455" lon="0.7108867"><ele>484.0</ele><time>2026-03-31T16:58:21.157Z</time></trkpt><trkpt lat="41.4125267" lon="0.7112033"><ele>485.0</ele><time>2026-03-31T16:58:22.157Z</time></trkpt><trkpt lat="41.4125917" lon="0.7115133"><ele>485.0</ele><time>2026-03-31T16:58:23.158Z</time></trkpt><trkpt lat="41.4126617" lon="0.7118217"><ele>485.0</ele><time>2026-03-31T16:58:24.157Z</time></trkpt><trkpt lat="41.4127283" lon="0.7121283"><ele>486.0</ele><time>2026-03-31T16:58:25.157Z</time></trkpt><trkpt lat="41.412795" lon="0.7124367"><ele>487.0</ele><time>2026-03-31T16:58:26.157Z</time></trkpt><trkpt lat="41.4128583" lon="0.7127467"><ele>488.5</ele><time>2026-03-31T16:58:27.157Z</time></trkpt><trkpt lat="41.41291" lon="0.713035"><ele>490.0</ele><time>2026-03-31T16:58:28.158Z</time></trkpt><trkpt lat="41.41297" lon="0.7133383"><ele>489.5</ele><time>2026-03-31T16:58:29.157Z</time></trkpt><trkpt lat="41.4130383" lon="0.7136367"><ele>489.0</ele><time>2026-03-31T16:58:30.158Z</time></trkpt><trkpt lat="41.4131033" lon="0.71394"><ele>489.0</ele><time>2026-03-31T16:58:31.157Z</time></trkpt><trkpt lat="41.413175" lon="0.7142417"><ele>489.0</ele><time>2026-03-31T16:58:32.158Z</time></trkpt><trkpt lat="41.4132367" lon="0.7145483"><ele>489.5</ele><time>2026-03-31T16:58:33.157Z</time></trkpt><trkpt lat="41.4132867" lon="0.7148467"><ele>490.0</ele><time>2026-03-31T16:58:34.158Z</time></trkpt><trkpt lat="41.413335" lon="0.7151483"><ele>488.5</ele><time>2026-03-31T16:58:35.157Z</time></trkpt><trkpt lat="41.41339" lon="0.7154533"><ele>487.0</ele><time>2026-03-31T16:58:36.157Z</time></trkpt><trkpt lat="41.41344" lon="0.7157467"><ele>487.0</ele><time>2026-03-31T16:58:37.157Z</time></trkpt><trkpt lat="41.4134883" lon="0.7160217"><ele>487.0</ele><time>2026-03-31T16:58:38.158Z</time></trkpt><trkpt lat="41.4135333" lon="0.7162867"><ele>487.0</ele><time>2026-03-31T16:58:39.157Z</time></trkpt><trkpt lat="41.413575" lon="0.716535"><ele>487.0</ele><time>2026-03-31T16:58:40.158Z</time></trkpt><trkpt lat="41.41361" lon="0.7167583"><ele>487.0</ele><time>2026-03-31T16:58:41.157Z</time></trkpt><trkpt lat="41.4136267" lon="0.7169767"><ele>487.0</ele><time>2026-03-31T16:58:42.157Z</time></trkpt><trkpt lat="41.4136183" lon="0.7171967"><ele>486.6666666666667</ele><time>2026-03-31T16:58:43.157Z</time></trkpt><trkpt lat="41.4135867" lon="0.7174167"><ele>486.33333333333337</ele><time>2026-03-31T16:58:44.157Z</time></trkpt><trkpt lat="41.413535" lon="0.71763"><ele>486.0</ele><time>2026-03-31T16:58:45.157Z</time></trkpt><trkpt lat="41.41345" lon="0.7178233"><ele>481.66666666666663</ele><time>2026-03-31T16:58:46.157Z</time></trkpt><trkpt lat="41.4133483" lon="0.718"><ele>477.3333333333333</ele><time>2026-03-31T16:58:47.157Z</time></trkpt><trkpt lat="41.4132367" lon="0.7181517"><ele>473.0</ele><time>2026-03-31T16:58:48.158Z</time></trkpt><trkpt lat="41.4131" lon="0.7182683"><ele>475.75</ele><time>2026-03-31T16:58:49.157Z</time></trkpt><trkpt lat="41.4129767" lon="0.71837"><ele>478.5</ele><time>2026-03-31T16:58:50.157Z</time></trkpt><trkpt lat="41.4128683" lon="0.71846"><ele>481.25</ele><time>2026-03-31T16:58:51.158Z</time></trkpt><trkpt lat="41.4127883" lon="0.7185683"><ele>484.0</ele><time>2026-03-31T16:58:52.158Z</time></trkpt><trkpt lat="41.4127483" lon="0.7187167"><ele>484.0</ele><time>2026-03-31T16:58:53.158Z</time></trkpt><trkpt lat="41.4127533" lon="0.7188717"><ele>484.0</ele><time>2026-03-31T16:58:54.157Z</time></trkpt><trkpt lat="41.412795" lon="0.7190183"><ele>484.0</ele><time>2026-03-31T16:58:55.157Z</time></trkpt><trkpt lat="41.41287" lon="0.719135"><ele>484.0</ele><time>2026-03-31T16:58:56.157Z</time></trkpt><trkpt lat="41.4129933" lon="0.7192033"><ele>479.6666666666667</ele><time>2026-03-31T16:58:57.158Z</time></trkpt><trkpt lat="41.4131383" lon="0.71921"><ele>475.33333333333337</ele><time>2026-03-31T16:58:58.157Z</time></trkpt><trkpt lat="41.4132967" lon="0.7191833"><ele>471.0</ele><time>2026-03-31T16:58:59.157Z</time></trkpt><trkpt lat="41.41346" lon="0.7191817"><ele>471.0</ele><time>2026-03-31T16:59:00.158Z</time></trkpt><trkpt lat="41.41364" lon="0.7192233"><ele>471.0</ele><time>2026-03-31T16:59:01.157Z</time></trkpt><trkpt lat="41.413815" lon="0.7193083"><ele>471.0</ele><time>2026-03-31T16:59:02.157Z</time></trkpt><trkpt lat="41.41398" lon="0.719425"><ele>468.0</ele><time>2026-03-31T16:59:03.157Z</time></trkpt><trkpt lat="41.41414" lon="0.7195617"><ele>465.0</ele><time>2026-03-31T16:59:04.157Z</time></trkpt><trkpt lat="41.4143017" lon="0.7197183"><ele>462.0</ele><time>2026-03-31T16:59:05.157Z</time></trkpt><trkpt lat="41.4144667" lon="0.7198733"><ele>462.0</ele><time>2026-03-31T16:59:06.157Z</time></trkpt><trkpt lat="41.41463" lon="0.7200317"><ele>462.0</ele><time>2026-03-31T16:59:07.158Z</time></trkpt><trkpt lat="41.4148033" lon="0.7201933"><ele>462.0</ele><time>2026-03-31T16:59:08.157Z</time></trkpt><trkpt lat="41.4149717" lon="0.72036"><ele>458.33333333333337</ele><time>2026-03-31T16:59:09.157Z</time></trkpt><trkpt lat="41.4151467" lon="0.7205267"><ele>454.6666666666667</ele><time>2026-03-31T16:59:10.158Z</time></trkpt><trkpt lat="41.4153183" lon="0.7206917"><ele>451.0</ele><time>2026-03-31T16:59:11.158Z</time></trkpt><trkpt lat="41.41548" lon="0.7208433"><ele>451.0</ele><time>2026-03-31T16:59:12.157Z</time></trkpt><trkpt lat="41.4156367" lon="0.7209933"><ele>451.0</ele><time>2026-03-31T16:59:13.158Z</time></trkpt><trkpt lat="41.4157817" lon="0.72112"><ele>451.0</ele><time>2026-03-31T16:59:14.158Z</time></trkpt><trkpt lat="41.4159433" lon="0.7212067"><ele>451.0</ele><time>2026-03-31T16:59:15.158Z</time></trkpt><trkpt lat="41.4161033" lon="0.7212417"><ele>451.0</ele><time>2026-03-31T16:59:16.158Z</time></trkpt><trkpt lat="41.416255" lon="0.7212267"><ele>451.0</ele><time>2026-03-31T16:59:17.157Z</time></trkpt><trkpt lat="41.4163933" lon="0.7211717"><ele>451.50000000000006</ele><time>2026-03-31T16:59:18.157Z</time></trkpt><trkpt lat="41.4164983" lon="0.7211017"><ele>452.0</ele><time>2026-03-31T16:59:19.158Z</time></trkpt><trkpt lat="41.4165767" lon="0.7210367"><ele>452.5</ele><time>2026-03-31T16:59:20.157Z</time></trkpt><trkpt lat="41.41663" lon="0.7209917"><ele>453.0</ele><time>2026-03-31T16:59:21.157Z</time></trkpt><trkpt lat="41.4167" lon="0.721"><ele>453.50000000000006</ele><time>2026-03-31T16:59:24.157Z</time></trkpt><trkpt lat="41.4167483" lon="0.720905"><ele>454.0</ele><time>2026-03-31T17:01:38.157Z</time></trkpt><trkpt lat="41.4167817" lon="0.72083"><ele>454.0</ele><time>2026-03-31T17:01:39.158Z</time></trkpt><trkpt lat="41.41684" lon="0.72075"><ele>454.0</ele><time>2026-03-31T17:01:40.158Z</time></trkpt><trkpt lat="41.4169167" lon="0.7206817"><ele>454.0</ele><time>2026-03-31T17:01:41.157Z</time></trkpt><trkpt lat="41.417" lon="0.72059"><ele>454.0</ele><time>2026-03-31T17:01:42.157Z</time></trkpt><trkpt lat="41.4170917" lon="0.7204967"><ele>454.0</ele><time>2026-03-31T17:01:43.157Z</time></trkpt><trkpt lat="41.4171867" lon="0.720375"><ele>457.33333333333337</ele><time>2026-03-31T17:01:44.157Z</time></trkpt><trkpt lat="41.4172817" lon="0.7202417"><ele>460.66666666666663</ele><time>2026-03-31T17:01:45.158Z</time></trkpt><trkpt lat="41.417375" lon="0.7200783"><ele>464.0</ele><time>2026-03-31T17:01:46.157Z</time></trkpt><trkpt lat="41.41747" lon="0.7199083"><ele>464.0</ele><time>2026-03-31T17:01:47.157Z</time></trkpt><trkpt lat="41.4175617" lon="0.7197317"><ele>464.0</ele><time>2026-03-31T17:01:48.157Z</time></trkpt><trkpt lat="41.4176567" lon="0.7195533"><ele>464.0</ele><time>2026-03-31T17:01:49.157Z</time></trkpt><trkpt lat="41.41775" lon="0.71938"><ele>464.25</ele><time>2026-03-31T17:01:50.158Z</time></trkpt><trkpt lat="41.4178367" lon="0.7192067"><ele>464.5</ele><time>2026-03-31T17:01:51.158Z</time></trkpt><trkpt lat="41.4179233" lon="0.7190633"><ele>464.75</ele><time>2026-03-31T17:01:52.158Z</time></trkpt><trkpt lat="41.4180117" lon="0.7189433"><ele>465.0</ele><time>2026-03-31T17:01:53.157Z</time></trkpt><trkpt lat="41.41811" lon="0.7188767"><ele>465.0</ele><time>2026-03-31T17:01:54.157Z</time></trkpt><trkpt lat="41.418215" lon="0.71886"><ele>465.0</ele><time>2026-03-31T17:01:55.158Z</time></trkpt><trkpt lat="41.4183167" lon="0.71891"><ele>465.0</ele><time>2026-03-31T17:01:56.157Z</time></trkpt><trkpt lat="41.4183967" lon="0.7190133"><ele>465.0</ele><time>2026-03-31T17:01:57.157Z</time></trkpt><trkpt lat="41.418445" lon="0.7191583"><ele>465.0</ele><time>2026-03-31T17:01:58.158Z</time></trkpt><trkpt lat="41.4184567" lon="0.7193317"><ele>466.33333333333337</ele><time>2026-03-31T17:01:59.158Z</time></trkpt><trkpt lat="41.4184617" lon="0.7195217"><ele>467.6666666666667</ele><time>2026-03-31T17:02:00.157Z</time></trkpt><trkpt lat="41.4184917" lon="0.71973"><ele>469.0</ele><time>2026-03-31T17:02:01.158Z</time></trkpt><trkpt lat="41.418545" lon="0.7199417"><ele>469.0</ele><time>2026-03-31T17:02:02.158Z</time></trkpt><trkpt lat="41.41859" lon="0.72016"><ele>469.0</ele><time>2026-03-31T17:02:03.157Z</time></trkpt><trkpt lat="41.41863" lon="0.720395"><ele>469.0</ele><time>2026-03-31T17:02:04.157Z</time></trkpt><trkpt lat="41.41865" lon="0.7206467"><ele>469.0</ele><time>2026-03-31T17:02:05.157Z</time></trkpt><trkpt lat="41.4186567" lon="0.720895"><ele>469.0</ele><time>2026-03-31T17:02:06.158Z</time></trkpt><trkpt lat="41.418665" lon="0.7211433"><ele>469.0</ele><time>2026-03-31T17:02:07.157Z</time></trkpt><trkpt lat="41.4187017" lon="0.721395"><ele>469.0</ele><time>2026-03-31T17:02:08.158Z</time></trkpt><trkpt lat="41.4187683" lon="0.7216333"><ele>469.0</ele><time>2026-03-31T17:02:09.157Z</time></trkpt><trkpt lat="41.418865" lon="0.7218617"><ele>469.0</ele><time>2026-03-31T17:02:10.157Z</time></trkpt><trkpt lat="41.418995" lon="0.7220617"><ele>465.0</ele><time>2026-03-31T17:02:11.158Z</time></trkpt><trkpt lat="41.4191633" lon="0.722225"><ele>461.0</ele><time>2026-03-31T17:02:12.158Z</time></trkpt><trkpt lat="41.4193433" lon="0.7224017"><ele>457.0</ele><time>2026-03-31T17:02:13.158Z</time></trkpt><trkpt lat="41.4195217" lon="0.72257"><ele>454.6666666666667</ele><time>2026-03-31T17:02:14.157Z</time></trkpt><trkpt lat="41.419695" lon="0.7227467"><ele>452.33333333333337</ele><time>2026-03-31T17:02:15.157Z</time></trkpt><trkpt lat="41.4198683" lon="0.722925"><ele>450.0</ele><time>2026-03-31T17:02:16.157Z</time></trkpt><trkpt lat="41.4200533" lon="0.72311"><ele>450.0</ele><time>2026-03-31T17:02:17.157Z</time></trkpt><trkpt lat="41.420245" lon="0.7232967"><ele>450.0</ele><time>2026-03-31T17:02:18.158Z</time></trkpt><trkpt lat="41.420435" lon="0.723485"><ele>448.5</ele><time>2026-03-31T17:02:19.158Z</time></trkpt><trkpt lat="41.4206217" lon="0.7236633"><ele>447.0</ele><time>2026-03-31T17:02:20.158Z</time></trkpt><trkpt lat="41.4208083" lon="0.72385"><ele>447.0</ele><time>2026-03-31T17:02:21.158Z</time></trkpt><trkpt lat="41.420995" lon="0.724045"><ele>447.0</ele><time>2026-03-31T17:02:22.157Z</time></trkpt><trkpt lat="41.4211817" lon="0.7242333"><ele>444.5</ele><time>2026-03-31T17:02:23.157Z</time></trkpt><trkpt lat="41.4213633" lon="0.7244183"><ele>442.0</ele><time>2026-03-31T17:02:24.157Z</time></trkpt><trkpt lat="41.42154" lon="0.7246"><ele>442.0</ele><time>2026-03-31T17:02:25.158Z</time></trkpt><trkpt lat="41.421715" lon="0.7247717"><ele>442.0</ele><time>2026-03-31T17:02:26.157Z</time></trkpt><trkpt lat="41.4218883" lon="0.7249183"><ele>442.0</ele><time>2026-03-31T17:02:27.157Z</time></trkpt><trkpt lat="41.4220617" lon="0.7250417"><ele>440.6666666666667</ele><time>2026-03-31T17:02:28.157Z</time></trkpt><trkpt lat="41.4222383" lon="0.7251283"><ele>439.33333333333337</ele><time>2026-03-31T17:02:29.158Z</time></trkpt><trkpt lat="41.4224183" lon="0.7251817"><ele>438.0</ele><time>2026-03-31T17:02:30.157Z</time></trkpt><trkpt lat="41.4226083" lon="0.72518"><ele>438.0</ele><time>2026-03-31T17:02:31.158Z</time></trkpt><trkpt lat="41.422805" lon="0.7251383"><ele>438.0</ele><time>2026-03-31T17:02:32.158Z</time></trkpt><trkpt lat="41.4230083" lon="0.725095"><ele>438.0</ele><time>2026-03-31T17:02:33.157Z</time></trkpt><trkpt lat="41.4232233" lon="0.7250567"><ele>437.0</ele><time>2026-03-31T17:02:34.158Z</time></trkpt><trkpt lat="41.4234483" lon="0.72502"><ele>436.0</ele><time>2026-03-31T17:02:35.158Z</time></trkpt><trkpt lat="41.4236767" lon="0.7249883"><ele>434.5</ele><time>2026-03-31T17:02:36.157Z</time></trkpt><trkpt lat="41.423905" lon="0.724955"><ele>433.0</ele><time>2026-03-31T17:02:37.157Z</time></trkpt><trkpt lat="41.42413" lon="0.7249167"><ele>433.0</ele><time>2026-03-31T17:02:38.158Z</time></trkpt><trkpt lat="41.42435" lon="0.7248767"><ele>433.0</ele><time>2026-03-31T17:02:39.157Z</time></trkpt><trkpt lat="41.4245683" lon="0.724835"><ele>433.0</ele><time>2026-03-31T17:02:40.157Z</time></trkpt><trkpt lat="41.42478" lon="0.7247983"><ele>431.33333333333337</ele><time>2026-03-31T17:02:41.158Z</time></trkpt><trkpt lat="41.4249933" lon="0.72478"><ele>429.66666666666663</ele><time>2026-03-31T17:02:42.157Z</time></trkpt><trkpt lat="41.4252133" lon="0.72479"><ele>428.0</ele><time>2026-03-31T17:02:43.158Z</time></trkpt><trkpt lat="41.4254433" lon="0.7248233"><ele>426.5</ele><time>2026-03-31T17:02:44.157Z</time></trkpt><trkpt lat="41.42567" lon="0.7248833"><ele>425.0</ele><time>2026-03-31T17:02:45.157Z</time></trkpt><trkpt lat="41.425905" lon="0.7249467"><ele>425.0</ele><time>2026-03-31T17:02:46.157Z</time></trkpt><trkpt lat="41.4261417" lon="0.7250167"><ele>425.0</ele><time>2026-03-31T17:02:47.157Z</time></trkpt><trkpt lat="41.4263783" lon="0.7250867"><ele>422.0</ele><time>2026-03-31T17:02:48.157Z</time></trkpt><trkpt lat="41.4266133" lon="0.7251517"><ele>419.0</ele><time>2026-03-31T17:02:49.157Z</time></trkpt><trkpt lat="41.4268483" lon="0.7252233"><ele>416.5</ele><time>2026-03-31T17:02:50.158Z</time></trkpt><trkpt lat="41.4270833" lon="0.72529"><ele>414.0</ele><time>2026-03-31T17:02:51.157Z</time></trkpt><trkpt lat="41.4273167" lon="0.7253567"><ele>411.5</ele><time>2026-03-31T17:02:52.158Z</time></trkpt><trkpt lat="41.4275533" lon="0.7254267"><ele>409.0</ele><time>2026-03-31T17:02:53.158Z</time></trkpt><trkpt lat="41.4277783" lon="0.7254917"><ele>407.0</ele><time>2026-03-31T17:02:54.158Z</time></trkpt><trkpt lat="41.4280083" lon="0.725565"><ele>405.0</ele><time>2026-03-31T17:02:55.157Z</time></trkpt><trkpt lat="41.42824" lon="0.7256383"><ele>405.0</ele><time>2026-03-31T17:02:56.157Z</time></trkpt><trkpt lat="41.4284617" lon="0.7256967"><ele>405.0</ele><time>2026-03-31T17:02:57.158Z</time></trkpt><trkpt lat="41.4286717" lon="0.7257367"><ele>405.0</ele><time>2026-03-31T17:02:58.158Z</time></trkpt><trkpt lat="41.4288683" lon="0.72578"><ele>404.66666666666663</ele><time>2026-03-31T17:02:59.158Z</time></trkpt><trkpt lat="41.429045" lon="0.7258517"><ele>404.3333333333333</ele><time>2026-03-31T17:03:00.157Z</time></trkpt><trkpt lat="41.4292067" lon="0.7259467"><ele>404.0</ele><time>2026-03-31T17:03:01.157Z</time></trkpt><trkpt lat="41.4293433" lon="0.7260817"><ele>402.66666666666663</ele><time>2026-03-31T17:03:02.157Z</time></trkpt><trkpt lat="41.4294617" lon="0.7262533"><ele>401.33333333333337</ele><time>2026-03-31T17:03:03.158Z</time></trkpt><trkpt lat="41.4295683" lon="0.72645"><ele>400.0</ele><time>2026-03-31T17:03:04.157Z</time></trkpt><trkpt lat="41.4296817" lon="0.72665"><ele>400.0</ele><time>2026-03-31T17:03:05.157Z</time></trkpt><trkpt lat="41.429815" lon="0.726845"><ele>400.0</ele><time>2026-03-31T17:03:06.157Z</time></trkpt><trkpt lat="41.4299617" lon="0.7270183"><ele>400.0</ele><time>2026-03-31T17:03:07.158Z</time></trkpt><trkpt lat="41.4301217" lon="0.7271817"><ele>397.33333333333337</ele><time>2026-03-31T17:03:08.158Z</time></trkpt><trkpt lat="41.4302967" lon="0.7273467"><ele>394.66666666666663</ele><time>2026-03-31T17:03:09.158Z</time></trkpt><trkpt lat="41.4304733" lon="0.7275117"><ele>392.0</ele><time>2026-03-31T17:03:10.158Z</time></trkpt><trkpt lat="41.43065" lon="0.72769"><ele>388.5</ele><time>2026-03-31T17:03:11.158Z</time></trkpt><trkpt lat="41.4308283" lon="0.727875"><ele>385.0</ele><time>2026-03-31T17:03:12.158Z</time></trkpt><trkpt lat="41.4310167" lon="0.7280467"><ele>385.0</ele><time>2026-03-31T17:03:13.157Z</time></trkpt><trkpt lat="41.4312033" lon="0.7282233"><ele>385.0</ele><time>2026-03-31T17:03:14.157Z</time></trkpt><trkpt lat="41.4313933" lon="0.7284067"><ele>383.6666666666667</ele><time>2026-03-31T17:03:15.157Z</time></trkpt><trkpt lat="41.4315733" lon="0.7285833"><ele>382.33333333333337</ele><time>2026-03-31T17:03:16.158Z</time></trkpt><trkpt lat="41.4317533" lon="0.728765"><ele>381.0</ele><time>2026-03-31T17:03:17.157Z</time></trkpt><trkpt lat="41.4319283" lon="0.7289333"><ele>381.0</ele><time>2026-03-31T17:03:18.158Z</time></trkpt><trkpt lat="41.4320967" lon="0.7290833"><ele>381.0</ele><time>2026-03-31T17:03:19.158Z</time></trkpt><trkpt lat="41.43228" lon="0.7292017"><ele>381.0</ele><time>2026-03-31T17:03:20.157Z</time></trkpt><trkpt lat="41.4324717" lon="0.7292917"><ele>379.0</ele><time>2026-03-31T17:03:21.157Z</time></trkpt><trkpt lat="41.4326767" lon="0.72935"><ele>377.0</ele><time>2026-03-31T17:03:22.158Z</time></trkpt><trkpt lat="41.43289" lon="0.7293783"><ele>375.0</ele><time>2026-03-31T17:03:23.158Z</time></trkpt><trkpt lat="41.4331083" lon="0.7293967"><ele>370.0</ele><time>2026-03-31T17:03:24.157Z</time></trkpt><trkpt lat="41.4333233" lon="0.7294167"><ele>365.0</ele><time>2026-03-31T17:03:25.157Z</time></trkpt><trkpt lat="41.43354" lon="0.7294317"><ele>360.0</ele><time>2026-03-31T17:03:26.157Z</time></trkpt><trkpt lat="41.433755" lon="0.72943"><ele>357.3333333333333</ele><time>2026-03-31T17:03:27.157Z</time></trkpt><trkpt lat="41.4339667" lon="0.72941"><ele>354.66666666666663</ele><time>2026-03-31T17:03:28.158Z</time></trkpt><trkpt lat="41.4341733" lon="0.7293683"><ele>352.0</ele><time>2026-03-31T17:03:29.157Z</time></trkpt><trkpt lat="41.4343767" lon="0.7293233"><ele>356.66666666666663</ele><time>2026-03-31T17:03:30.157Z</time></trkpt><trkpt lat="41.4345817" lon="0.7293033"><ele>361.3333333333333</ele><time>2026-03-31T17:03:31.158Z</time></trkpt><trkpt lat="41.434775" lon="0.72932"><ele>366.0</ele><time>2026-03-31T17:03:32.157Z</time></trkpt><trkpt lat="41.4349733" lon="0.7293867"><ele>361.3333333333333</ele><time>2026-03-31T17:03:33.157Z</time></trkpt><trkpt lat="41.43517" lon="0.7294917"><ele>356.66666666666663</ele><time>2026-03-31T17:03:34.157Z</time></trkpt><trkpt lat="41.4353617" lon="0.729595"><ele>352.0</ele><time>2026-03-31T17:03:35.157Z</time></trkpt><trkpt lat="41.4355617" lon="0.7297017"><ele>351.3333333333333</ele><time>2026-03-31T17:03:36.158Z</time></trkpt><trkpt lat="41.4357667" lon="0.7297717"><ele>350.6666666666667</ele><time>2026-03-31T17:03:37.157Z</time></trkpt><trkpt lat="41.4359833" lon="0.7298083"><ele>350.0</ele><time>2026-03-31T17:03:38.158Z</time></trkpt><trkpt lat="41.4361967" lon="0.7298217"><ele>349.6666666666667</ele><time>2026-03-31T17:03:39.157Z</time></trkpt><trkpt lat="41.4364133" lon="0.7298133"><ele>349.3333333333333</ele><time>2026-03-31T17:03:40.157Z</time></trkpt><trkpt lat="41.4366383" lon="0.7297783"><ele>349.0</ele><time>2026-03-31T17:03:41.157Z</time></trkpt><trkpt lat="41.43685" lon="0.72971"><ele>349.0</ele><time>2026-03-31T17:03:42.157Z</time></trkpt><trkpt lat="41.437055" lon="0.729645"><ele>349.0</ele><time>2026-03-31T17:03:43.157Z</time></trkpt><trkpt lat="41.4372533" lon="0.7296083"><ele>349.0</ele><time>2026-03-31T17:03:44.157Z</time></trkpt><trkpt lat="41.43745" lon="0.72961"><ele>349.0</ele><time>2026-03-31T17:03:45.157Z</time></trkpt><trkpt lat="41.4376533" lon="0.7296733"><ele>349.0</ele><time>2026-03-31T17:03:46.157Z</time></trkpt><trkpt lat="41.437855" lon="0.7297767"><ele>349.0</ele><time>2026-03-31T17:03:47.157Z</time></trkpt><trkpt lat="41.4380533" lon="0.7299083"><ele>347.5</ele><time>2026-03-31T17:03:48.157Z</time></trkpt><trkpt lat="41.4382617" lon="0.73005"><ele>346.0</ele><time>2026-03-31T17:03:49.157Z</time></trkpt><trkpt lat="41.4384733" lon="0.7301867"><ele>348.0</ele><time>2026-03-31T17:03:50.157Z</time></trkpt><trkpt lat="41.43868" lon="0.7303333"><ele>350.0</ele><time>2026-03-31T17:03:51.157Z</time></trkpt><trkpt lat="41.4388883" lon="0.7304717"><ele>350.0</ele><time>2026-03-31T17:03:52.158Z</time></trkpt><trkpt lat="41.4390983" lon="0.7306017"><ele>350.0</ele><time>2026-03-31T17:03:53.158Z</time></trkpt><trkpt lat="41.4393083" lon="0.7307383"><ele>350.0</ele><time>2026-03-31T17:03:54.158Z</time></trkpt><trkpt lat="41.439505" lon="0.7308717"><ele>350.0</ele><time>2026-03-31T17:03:55.158Z</time></trkpt><trkpt lat="41.4396733" lon="0.7310317"><ele>350.0</ele><time>2026-03-31T17:03:56.157Z</time></trkpt><trkpt lat="41.4398333" lon="0.731225"><ele>351.0</ele><time>2026-03-31T17:03:57.158Z</time></trkpt><trkpt lat="41.43998" lon="0.7314367"><ele>352.0</ele><time>2026-03-31T17:03:58.158Z</time></trkpt><trkpt lat="41.4401217" lon="0.7316683"><ele>353.0</ele><time>2026-03-31T17:03:59.157Z</time></trkpt><trkpt lat="41.4402533" lon="0.7319133"><ele>353.0</ele><time>2026-03-31T17:04:00.158Z</time></trkpt><trkpt lat="41.4403833" lon="0.7321483"><ele>353.0</ele><time>2026-03-31T17:04:01.158Z</time></trkpt><trkpt lat="41.4405017" lon="0.732355"><ele>353.0</ele><time>2026-03-31T17:04:02.158Z</time></trkpt><trkpt lat="41.4405983" lon="0.7325333"><ele>353.33333333333337</ele><time>2026-03-31T17:04:03.157Z</time></trkpt><trkpt lat="41.440665" lon="0.7327067"><ele>353.6666666666667</ele><time>2026-03-31T17:04:04.157Z</time></trkpt><trkpt lat="41.4406817" lon="0.732905"><ele>354.0</ele><time>2026-03-31T17:04:05.157Z</time></trkpt><trkpt lat="41.4406683" lon="0.7331133"><ele>354.0</ele><time>2026-03-31T17:04:06.157Z</time></trkpt><trkpt lat="41.44063" lon="0.7333283"><ele>354.0</ele><time>2026-03-31T17:04:07.158Z</time></trkpt><trkpt lat="41.4405883" lon="0.7335417"><ele>354.0</ele><time>2026-03-31T17:04:08.157Z</time></trkpt><trkpt lat="41.44055" lon="0.73374"><ele>355.0</ele><time>2026-03-31T17:04:09.157Z</time></trkpt><trkpt lat="41.4405317" lon="0.7339267"><ele>356.0</ele><time>2026-03-31T17:04:10.158Z</time></trkpt><trkpt lat="41.4405533" lon="0.7341033"><ele>357.0</ele><time>2026-03-31T17:04:11.157Z</time></trkpt><trkpt lat="41.440615" lon="0.7342617"><ele>358.0</ele><time>2026-03-31T17:04:12.157Z</time></trkpt><trkpt lat="41.440725" lon="0.7344"><ele>362.3333333333333</ele><time>2026-03-31T17:04:13.157Z</time></trkpt><trkpt lat="41.44086" lon="0.7344917"><ele>366.6666666666667</ele><time>2026-03-31T17:04:14.158Z</time></trkpt><trkpt lat="41.441015" lon="0.7345233"><ele>371.0</ele><time>2026-03-31T17:04:15.157Z</time></trkpt><trkpt lat="41.4411633" lon="0.734495"><ele>370.0</ele><time>2026-03-31T17:04:16.157Z</time></trkpt><trkpt lat="41.4413083" lon="0.7344033"><ele>369.0</ele><time>2026-03-31T17:04:17.157Z</time></trkpt><trkpt lat="41.44143" lon="0.7342667"><ele>368.0</ele><time>2026-03-31T17:04:18.157Z</time></trkpt><trkpt lat="41.441535" lon="0.734125"><ele>368.0</ele><time>2026-03-31T17:04:19.158Z</time></trkpt><trkpt lat="41.4416733" lon="0.7340317"><ele>368.0</ele><time>2026-03-31T17:04:20.157Z</time></trkpt><trkpt lat="41.4418167" lon="0.7339717"><ele>368.0</ele><time>2026-03-31T17:04:21.157Z</time></trkpt><trkpt lat="41.4419767" lon="0.73394"><ele>368.0</ele><time>2026-03-31T17:04:22.157Z</time></trkpt><trkpt lat="41.442115" lon="0.733865"><ele>368.0</ele><time>2026-03-31T17:04:23.158Z</time></trkpt><trkpt lat="41.44226" lon="0.7337733"><ele>368.0</ele><time>2026-03-31T17:04:24.158Z</time></trkpt><trkpt lat="41.44241" lon="0.73366"><ele>366.6666666666667</ele><time>2026-03-31T17:04:25.158Z</time></trkpt><trkpt lat="41.4425617" lon="0.7335817"><ele>365.3333333333333</ele><time>2026-03-31T17:04:26.158Z</time></trkpt><trkpt lat="41.4427167" lon="0.7335167"><ele>364.0</ele><time>2026-03-31T17:04:27.158Z</time></trkpt><trkpt lat="41.442885" lon="0.733565"><ele>368.0</ele><time>2026-03-31T17:04:28.158Z</time></trkpt><trkpt lat="41.4430533" lon="0.7336017"><ele>372.0</ele><time>2026-03-31T17:04:29.157Z</time></trkpt><trkpt lat="41.44322" lon="0.7336617"><ele>376.0</ele><time>2026-03-31T17:04:30.157Z</time></trkpt><trkpt lat="41.443375" lon="0.7337333"><ele>376.0</ele><time>2026-03-31T17:04:31.157Z</time></trkpt><trkpt lat="41.4435033" lon="0.7338333"><ele>376.0</ele><time>2026-03-31T17:04:32.158Z</time></trkpt><trkpt lat="41.4436017" lon="0.73397"><ele>376.0</ele><time>2026-03-31T17:04:33.158Z</time></trkpt><trkpt lat="41.44366" lon="0.7341317"><ele>376.0</ele><time>2026-03-31T17:04:34.157Z</time></trkpt><trkpt lat="41.4436867" lon="0.7343367"><ele>376.0</ele><time>2026-03-31T17:04:35.158Z</time></trkpt><trkpt lat="41.443685" lon="0.7345533"><ele>376.0</ele><time>2026-03-31T17:04:36.157Z</time></trkpt><trkpt lat="41.4436633" lon="0.7347817"><ele>376.0</ele><time>2026-03-31T17:04:37.158Z</time></trkpt><trkpt lat="41.4436333" lon="0.7350017"><ele>376.0</ele><time>2026-03-31T17:04:38.157Z</time></trkpt><trkpt lat="41.4435967" lon="0.7352183"><ele>376.0</ele><time>2026-03-31T17:04:39.158Z</time></trkpt><trkpt lat="41.4435433" lon="0.7354167"><ele>376.0</ele><time>2026-03-31T17:04:40.157Z</time></trkpt><trkpt lat="41.4434983" lon="0.7356"><ele>375.25</ele><time>2026-03-31T17:04:41.158Z</time></trkpt><trkpt lat="41.443455" lon="0.735765"><ele>374.5</ele><time>2026-03-31T17:04:42.158Z</time></trkpt><trkpt lat="41.4434533" lon="0.735935"><ele>373.75</ele><time>2026-03-31T17:04:43.157Z</time></trkpt><trkpt lat="41.443495" lon="0.7360933"><ele>373.0</ele><time>2026-03-31T17:04:44.158Z</time></trkpt><trkpt lat="41.443585" lon="0.7362283"><ele>372.75</ele><time>2026-03-31T17:04:45.158Z</time></trkpt><trkpt lat="41.4437067" lon="0.73633"><ele>372.5</ele><time>2026-03-31T17:04:46.158Z</time></trkpt><trkpt lat="41.443815" lon="0.73643"><ele>372.25</ele><time>2026-03-31T17:04:47.158Z</time></trkpt><trkpt lat="41.4438767" lon="0.7365633"><ele>372.0</ele><time>2026-03-31T17:04:48.157Z</time></trkpt><trkpt lat="41.4438883" lon="0.736725"><ele>371.0</ele><time>2026-03-31T17:04:49.158Z</time></trkpt><trkpt lat="41.44387" lon="0.7369"><ele>370.0</ele><time>2026-03-31T17:04:50.157Z</time></trkpt><trkpt lat="41.4438017" lon="0.7370817"><ele>369.0</ele><time>2026-03-31T17:04:51.157Z</time></trkpt><trkpt lat="41.4437217" lon="0.7372517"><ele>368.0</ele><time>2026-03-31T17:04:52.158Z</time></trkpt><trkpt lat="41.4436617" lon="0.7374333"><ele>368.0</ele><time>2026-03-31T17:04:53.157Z</time></trkpt><trkpt lat="41.44363" lon="0.7376317"><ele>368.0</ele><time>2026-03-31T17:04:54.157Z</time></trkpt><trkpt lat="41.4436367" lon="0.737825"><ele>368.0</ele><time>2026-03-31T17:04:55.158Z</time></trkpt><trkpt lat="41.443685" lon="0.7380017"><ele>368.0</ele><time>2026-03-31T17:04:56.158Z</time></trkpt><trkpt lat="41.4437683" lon="0.7381683"><ele>363.33333333333337</ele><time>2026-03-31T17:04:57.157Z</time></trkpt><trkpt lat="41.4438783" lon="0.7383117"><ele>358.6666666666667</ele><time>2026-03-31T17:04:58.157Z</time></trkpt><trkpt lat="41.4440117" lon="0.7384133"><ele>354.0</ele><time>2026-03-31T17:04:59.158Z</time></trkpt><trkpt lat="41.44417" lon="0.7384633"><ele>354.0</ele><time>2026-03-31T17:05:00.157Z</time></trkpt><trkpt lat="41.4443283" lon="0.7384617"><ele>354.0</ele><time>2026-03-31T17:05:01.157Z</time></trkpt><trkpt lat="41.4444833" lon="0.7384117"><ele>354.0</ele><time>2026-03-31T17:05:02.157Z</time></trkpt><trkpt lat="41.4446267" lon="0.7383083"><ele>357.6666666666667</ele><time>2026-03-31T17:05:03.158Z</time></trkpt><trkpt lat="41.4447317" lon="0.7381417"><ele>361.33333333333337</ele><time>2026-03-31T17:05:04.158Z</time></trkpt><trkpt lat="41.444815" lon="0.7379433"><ele>365.0</ele><time>2026-03-31T17:05:05.157Z</time></trkpt><trkpt lat="41.44487" lon="0.7377267"><ele>362.0</ele><time>2026-03-31T17:05:06.158Z</time></trkpt><trkpt lat="41.4449083" lon="0.73751"><ele>359.0</ele><time>2026-03-31T17:05:07.158Z</time></trkpt><trkpt lat="41.44495" lon="0.737295"><ele>356.0</ele><time>2026-03-31T17:05:08.157Z</time></trkpt><trkpt lat="41.44502" lon="0.737105"><ele>356.0</ele><time>2026-03-31T17:05:09.157Z</time></trkpt><trkpt lat="41.4451267" lon="0.7369417"><ele>356.0</ele><time>2026-03-31T17:05:10.158Z</time></trkpt><trkpt lat="41.4452633" lon="0.7368"><ele>356.0</ele><time>2026-03-31T17:05:11.157Z</time></trkpt><trkpt lat="41.445415" lon="0.73667"><ele>357.33333333333337</ele><time>2026-03-31T17:05:12.157Z</time></trkpt><trkpt lat="41.44556" lon="0.736545"><ele>358.6666666666667</ele><time>2026-03-31T17:05:13.157Z</time></trkpt><trkpt lat="41.44569" lon="0.7364233"><ele>360.0</ele><time>2026-03-31T17:05:14.158Z</time></trkpt><trkpt lat="41.4458267" lon="0.7363167"><ele>360.0</ele><time>2026-03-31T17:05:15.157Z</time></trkpt><trkpt lat="41.4459817" lon="0.7362383"><ele>360.0</ele><time>2026-03-31T17:05:16.158Z</time></trkpt><trkpt lat="41.4461417" lon="0.7362133"><ele>360.0</ele><time>2026-03-31T17:05:17.157Z</time></trkpt><trkpt lat="41.4463167" lon="0.7362217"><ele>359.6666666666667</ele><time>2026-03-31T17:05:18.157Z</time></trkpt><trkpt lat="41.4464817" lon="0.7362417"><ele>359.33333333333337</ele><time>2026-03-31T17:05:19.157Z</time></trkpt><trkpt lat="41.4466417" lon="0.7362583"><ele>359.0</ele><time>2026-03-31T17:05:20.157Z</time></trkpt><trkpt lat="41.4467833" lon="0.7362767"><ele>359.0</ele><time>2026-03-31T17:05:21.157Z</time></trkpt><trkpt lat="41.44691" lon="0.7363117"><ele>359.0</ele><time>2026-03-31T17:05:22.158Z</time></trkpt><trkpt lat="41.4470117" lon="0.736405"><ele>359.0</ele><time>2026-03-31T17:05:23.157Z</time></trkpt><trkpt lat="41.447095" lon="0.7365533"><ele>359.0</ele><time>2026-03-31T17:05:24.157Z</time></trkpt><trkpt lat="41.4471233" lon="0.736725"><ele>358.0</ele><time>2026-03-31T17:05:25.158Z</time></trkpt><trkpt lat="41.4471183" lon="0.736915"><ele>357.0</ele><time>2026-03-31T17:05:26.158Z</time></trkpt><trkpt lat="41.4471" lon="0.7371"><ele>356.0</ele><time>2026-03-31T17:05:27.158Z</time></trkpt><trkpt lat="41.4471033" lon="0.737275"><ele>355.0</ele><time>2026-03-31T17:05:28.157Z</time></trkpt><trkpt lat="41.44713" lon="0.7374167"><ele>355.0</ele><time>2026-03-31T17:05:29.158Z</time></trkpt><trkpt lat="41.4471767" lon="0.7375417"><ele>355.0</ele><time>2026-03-31T17:05:30.158Z</time></trkpt><trkpt lat="41.447245" lon="0.73765"><ele>355.0</ele><time>2026-03-31T17:05:31.158Z</time></trkpt><trkpt lat="41.4473217" lon="0.7377317"><ele>355.0</ele><time>2026-03-31T17:05:32.157Z</time></trkpt><trkpt lat="41.4474117" lon="0.7377933"><ele>355.0</ele><time>2026-03-31T17:05:33.158Z</time></trkpt><trkpt lat="41.4475033" lon="0.737845"><ele>357.0</ele><time>2026-03-31T17:05:34.157Z</time></trkpt><trkpt lat="41.4475933" lon="0.73791"><ele>359.0</ele><time>2026-03-31T17:05:35.158Z</time></trkpt><trkpt lat="41.447675" lon="0.73798"><ele>361.0</ele><time>2026-03-31T17:05:36.158Z</time></trkpt><trkpt lat="41.447755" lon="0.738045"><ele>363.0</ele><time>2026-03-31T17:05:37.158Z</time></trkpt><trkpt lat="41.4478117" lon="0.7381367"><ele>365.0</ele><time>2026-03-31T17:05:38.157Z</time></trkpt><trkpt lat="41.4478583" lon="0.73825"><ele>365.0</ele><time>2026-03-31T17:05:39.157Z</time></trkpt><trkpt lat="41.447905" lon="0.738365"><ele>365.0</ele><time>2026-03-31T17:05:40.157Z</time></trkpt><trkpt lat="41.4479517" lon="0.738475"><ele>365.0</ele><time>2026-03-31T17:05:41.158Z</time></trkpt><trkpt lat="41.4480033" lon="0.7385733"><ele>365.0</ele><time>2026-03-31T17:05:42.158Z</time></trkpt><trkpt lat="41.4480467" lon="0.73867"><ele>365.0</ele><time>2026-03-31T17:05:43.157Z</time></trkpt><trkpt lat="41.4480767" lon="0.7387733"><ele>366.0</ele><time>2026-03-31T17:05:44.158Z</time></trkpt><trkpt lat="41.44812" lon="0.738865"><ele>367.0</ele><time>2026-03-31T17:05:45.158Z</time></trkpt><trkpt lat="41.448175" lon="0.738955"><ele>368.0</ele><time>2026-03-31T17:05:46.157Z</time></trkpt><trkpt lat="41.4482317" lon="0.7390283"><ele>369.0</ele><time>2026-03-31T17:05:47.157Z</time></trkpt><trkpt lat="41.4482733" lon="0.7390967"><ele>370.0</ele><time>2026-03-31T17:05:48.158Z</time></trkpt><trkpt lat="41.4483017" lon="0.7391967"><ele>371.0</ele><time>2026-03-31T17:05:49.158Z</time></trkpt><trkpt lat="41.44831" lon="0.7393033"><ele>370.0</ele><time>2026-03-31T17:05:50.158Z</time></trkpt><trkpt lat="41.4483" lon="0.7394233"><ele>369.0</ele><time>2026-03-31T17:05:51.158Z</time></trkpt><trkpt lat="41.4482867" lon="0.7395517"><ele>368.0</ele><time>2026-03-31T17:05:52.157Z</time></trkpt><trkpt lat="41.4482667" lon="0.7396717"><ele>367.0</ele><time>2026-03-31T17:05:53.157Z</time></trkpt><trkpt lat="41.4482467" lon="0.7398017"><ele>366.0</ele><time>2026-03-31T17:05:54.157Z</time></trkpt><trkpt lat="41.44822" lon="0.7399233"><ele>366.0</ele><time>2026-03-31T17:05:55.157Z</time></trkpt><trkpt lat="41.4482017" lon="0.740055"><ele>366.0</ele><time>2026-03-31T17:05:56.158Z</time></trkpt><trkpt lat="41.4481883" lon="0.740195"><ele>366.0</ele><time>2026-03-31T17:05:57.158Z</time></trkpt><trkpt lat="41.4481883" lon="0.7403467"><ele>366.0</ele><time>2026-03-31T17:05:58.157Z</time></trkpt><trkpt lat="41.4482033" lon="0.7404883"><ele>366.0</ele><time>2026-03-31T17:05:59.157Z</time></trkpt><trkpt lat="41.4482333" lon="0.74063"><ele>365.25</ele><time>2026-03-31T17:06:00.158Z</time></trkpt><trkpt lat="41.448285" lon="0.7407533"><ele>364.5</ele><time>2026-03-31T17:06:01.157Z</time></trkpt><trkpt lat="41.4483483" lon="0.740885"><ele>363.75</ele><time>2026-03-31T17:06:02.157Z</time></trkpt><trkpt lat="41.4484033" lon="0.74103"><ele>363.0</ele><time>2026-03-31T17:06:03.157Z</time></trkpt><trkpt lat="41.4484433" lon="0.7411983"><ele>361.6666666666667</ele><time>2026-03-31T17:06:04.158Z</time></trkpt><trkpt lat="41.4484583" lon="0.7413983"><ele>360.33333333333337</ele><time>2026-03-31T17:06:05.158Z</time></trkpt><trkpt lat="41.4484617" lon="0.741615"><ele>359.0</ele><time>2026-03-31T17:06:06.157Z</time></trkpt><trkpt lat="41.4484717" lon="0.7418233"><ele>359.33333333333337</ele><time>2026-03-31T17:06:07.158Z</time></trkpt><trkpt lat="41.4485033" lon="0.74204"><ele>359.6666666666667</ele><time>2026-03-31T17:06:08.157Z</time></trkpt><trkpt lat="41.44854" lon="0.742255"><ele>360.0</ele><time>2026-03-31T17:06:09.158Z</time></trkpt><trkpt lat="41.4485817" lon="0.7424517"><ele>360.0</ele><time>2026-03-31T17:06:10.157Z</time></trkpt><trkpt lat="41.4486133" lon="0.7426567"><ele>360.0</ele><time>2026-03-31T17:06:11.158Z</time></trkpt><trkpt lat="41.448635" lon="0.742875"><ele>360.0</ele><time>2026-03-31T17:06:12.157Z</time></trkpt><trkpt lat="41.4486167" lon="0.7431083"><ele>358.6666666666667</ele><time>2026-03-31T17:06:13.158Z</time></trkpt><trkpt lat="41.4485767" lon="0.7433467"><ele>357.33333333333337</ele><time>2026-03-31T17:06:14.157Z</time></trkpt><trkpt lat="41.448535" lon="0.7435933"><ele>356.0</ele><time>2026-03-31T17:06:15.157Z</time></trkpt><trkpt lat="41.4484933" lon="0.743835"><ele>354.33333333333337</ele><time>2026-03-31T17:06:16.158Z</time></trkpt><trkpt lat="41.448465" lon="0.7440767"><ele>352.6666666666667</ele><time>2026-03-31T17:06:17.158Z</time></trkpt><trkpt lat="41.4484467" lon="0.7443133"><ele>351.0</ele><time>2026-03-31T17:06:18.157Z</time></trkpt><trkpt lat="41.4484317" lon="0.744545"><ele>350.0</ele><time>2026-03-31T17:06:19.157Z</time></trkpt><trkpt lat="41.4484183" lon="0.7447783"><ele>349.0</ele><time>2026-03-31T17:06:20.157Z</time></trkpt><trkpt lat="41.4484083" lon="0.7449983"><ele>348.0</ele><time>2026-03-31T17:06:21.158Z</time></trkpt><trkpt lat="41.4483933" lon="0.7452167"><ele>346.0</ele><time>2026-03-31T17:06:22.158Z</time></trkpt><trkpt lat="41.44839" lon="0.74543"><ele>344.0</ele><time>2026-03-31T17:06:23.157Z</time></trkpt><trkpt lat="41.4484067" lon="0.745635"><ele>342.0</ele><time>2026-03-31T17:06:24.158Z</time></trkpt><trkpt lat="41.4484517" lon="0.7458467"><ele>342.0</ele><time>2026-03-31T17:06:25.157Z</time></trkpt><trkpt lat="41.4485283" lon="0.7460433"><ele>342.0</ele><time>2026-03-31T17:06:26.157Z</time></trkpt><trkpt lat="41.44862" lon="0.7462233"><ele>342.0</ele><time>2026-03-31T17:06:27.158Z</time></trkpt><trkpt lat="41.4487467" lon="0.746375"><ele>340.6666666666667</ele><time>2026-03-31T17:06:28.157Z</time></trkpt><trkpt lat="41.44889" lon="0.74649"><ele>339.33333333333337</ele><time>2026-03-31T17:06:29.158Z</time></trkpt><trkpt lat="41.4490533" lon="0.7465633"><ele>338.0</ele><time>2026-03-31T17:06:30.157Z</time></trkpt><trkpt lat="41.4492217" lon="0.74661"><ele>338.0</ele><time>2026-03-31T17:06:31.158Z</time></trkpt><trkpt lat="41.4493933" lon="0.7466083"><ele>338.0</ele><time>2026-03-31T17:06:32.157Z</time></trkpt><trkpt lat="41.4495483" lon="0.7465533"><ele>338.0</ele><time>2026-03-31T17:06:33.158Z</time></trkpt><trkpt lat="41.4497033" lon="0.74646"><ele>337.33333333333337</ele><time>2026-03-31T17:06:34.157Z</time></trkpt><trkpt lat="41.449855" lon="0.7463283"><ele>336.6666666666667</ele><time>2026-03-31T17:06:35.157Z</time></trkpt><trkpt lat="41.4499833" lon="0.7461633"><ele>336.0</ele><time>2026-03-31T17:06:36.157Z</time></trkpt><trkpt lat="41.4500767" lon="0.7459517"><ele>336.0</ele><time>2026-03-31T17:06:37.158Z</time></trkpt><trkpt lat="41.4501367" lon="0.74572"><ele>336.0</ele><time>2026-03-31T17:06:38.157Z</time></trkpt><trkpt lat="41.450155" lon="0.7454783"><ele>336.0</ele><time>2026-03-31T17:06:39.158Z</time></trkpt><trkpt lat="41.4501417" lon="0.74522"><ele>336.0</ele><time>2026-03-31T17:06:40.157Z</time></trkpt><trkpt lat="41.4500983" lon="0.7449767"><ele>336.0</ele><time>2026-03-31T17:06:41.158Z</time></trkpt><trkpt lat="41.4500717" lon="0.74474"><ele>336.0</ele><time>2026-03-31T17:06:42.157Z</time></trkpt><trkpt lat="41.45008" lon="0.7445083"><ele>335.6666666666667</ele><time>2026-03-31T17:06:43.158Z</time></trkpt><trkpt lat="41.4501317" lon="0.7442683"><ele>335.33333333333337</ele><time>2026-03-31T17:06:44.157Z</time></trkpt><trkpt lat="41.45022" lon="0.744035"><ele>335.0</ele><time>2026-03-31T17:06:45.158Z</time></trkpt><trkpt lat="41.4503333" lon="0.7438267"><ele>335.0</ele><time>2026-03-31T17:06:46.157Z</time></trkpt><trkpt lat="41.450445" lon="0.7436383"><ele>335.0</ele><time>2026-03-31T17:06:47.157Z</time></trkpt><trkpt lat="41.4505467" lon="0.7434517"><ele>335.0</ele><time>2026-03-31T17:06:48.157Z</time></trkpt><trkpt lat="41.45064" lon="0.7433"><ele>331.33333333333337</ele><time>2026-03-31T17:06:49.158Z</time></trkpt><trkpt lat="41.450755" lon="0.74317"><ele>327.6666666666667</ele><time>2026-03-31T17:06:50.157Z</time></trkpt><trkpt lat="41.4508883" lon="0.7430833"><ele>324.0</ele><time>2026-03-31T17:06:51.158Z</time></trkpt><trkpt lat="41.4510533" lon="0.7430517"><ele>324.0</ele><time>2026-03-31T17:06:52.157Z</time></trkpt><trkpt lat="41.4512183" lon="0.7430667"><ele>324.0</ele><time>2026-03-31T17:06:53.158Z</time></trkpt><trkpt lat="41.4513683" lon="0.743135"><ele>324.0</ele><time>2026-03-31T17:06:54.157Z</time></trkpt><trkpt lat="41.4514983" lon="0.7432417"><ele>321.6666666666667</ele><time>2026-03-31T17:06:55.157Z</time></trkpt><trkpt lat="41.451615" lon="0.7433983"><ele>319.33333333333337</ele><time>2026-03-31T17:06:56.157Z</time></trkpt><trkpt lat="41.4516983" lon="0.743585"><ele>317.0</ele><time>2026-03-31T17:06:57.157Z</time></trkpt><trkpt lat="41.451725" lon="0.7437833"><ele>317.0</ele><time>2026-03-31T17:06:58.157Z</time></trkpt><trkpt lat="41.4517117" lon="0.7440017"><ele>317.0</ele><time>2026-03-31T17:06:59.158Z</time></trkpt><trkpt lat="41.4516667" lon="0.7442167"><ele>317.0</ele><time>2026-03-31T17:07:00.157Z</time></trkpt><trkpt lat="41.4515867" lon="0.7444367"><ele>314.0</ele><time>2026-03-31T17:07:01.158Z</time></trkpt><trkpt lat="41.4514933" lon="0.74463"><ele>311.0</ele><time>2026-03-31T17:07:02.157Z</time></trkpt><trkpt lat="41.451395" lon="0.7448133"><ele>308.0</ele><time>2026-03-31T17:07:03.157Z</time></trkpt><trkpt lat="41.4512983" lon="0.7449967"><ele>309.75</ele><time>2026-03-31T17:07:04.157Z</time></trkpt><trkpt lat="41.4512133" lon="0.7451683"><ele>311.5</ele><time>2026-03-31T17:07:05.157Z</time></trkpt><trkpt lat="41.4511383" lon="0.7453383"><ele>313.25</ele><time>2026-03-31T17:07:06.157Z</time></trkpt><trkpt lat="41.4510683" lon="0.74551"><ele>315.0</ele><time>2026-03-31T17:07:07.157Z</time></trkpt><trkpt lat="41.4510233" lon="0.7456917"><ele>315.0</ele><time>2026-03-31T17:07:08.158Z</time></trkpt><trkpt lat="41.451015" lon="0.74588"><ele>315.0</ele><time>2026-03-31T17:07:09.157Z</time></trkpt><trkpt lat="41.4510517" lon="0.7460733"><ele>315.0</ele><time>2026-03-31T17:07:10.157Z</time></trkpt><trkpt lat="41.45112" lon="0.7462583"><ele>315.0</ele><time>2026-03-31T17:07:11.158Z</time></trkpt><trkpt lat="41.4512233" lon="0.7464083"><ele>311.6666666666667</ele><time>2026-03-31T17:07:12.157Z</time></trkpt><trkpt lat="41.4513617" lon="0.7465033"><ele>308.33333333333337</ele><time>2026-03-31T17:07:13.158Z</time></trkpt><trkpt lat="41.4515167" lon="0.7465583"><ele>305.0</ele><time>2026-03-31T17:07:14.157Z</time></trkpt><trkpt lat="41.4516817" lon="0.74656"><ele>305.0</ele><time>2026-03-31T17:07:15.157Z</time></trkpt><trkpt lat="41.45184" lon="0.7465133"><ele>305.0</ele><time>2026-03-31T17:07:16.157Z</time></trkpt><trkpt lat="41.451995" lon="0.7464183"><ele>305.0</ele><time>2026-03-31T17:07:17.158Z</time></trkpt><trkpt lat="41.4521383" lon="0.7462717"><ele>309.0</ele><time>2026-03-31T17:07:18.157Z</time></trkpt><trkpt lat="41.452255" lon="0.7460867"><ele>313.0</ele><time>2026-03-31T17:07:19.158Z</time></trkpt><trkpt lat="41.45235" lon="0.74587"><ele>317.0</ele><time>2026-03-31T17:07:20.158Z</time></trkpt><trkpt lat="41.4524267" lon="0.7456367"><ele>317.0</ele><time>2026-03-31T17:07:21.158Z</time></trkpt><trkpt lat="41.4524933" lon="0.7453783"><ele>317.0</ele><time>2026-03-31T17:07:22.158Z</time></trkpt><trkpt lat="41.4525633" lon="0.7451067"><ele>317.0</ele><time>2026-03-31T17:07:23.158Z</time></trkpt><trkpt lat="41.452645" lon="0.7448333"><ele>315.0</ele><time>2026-03-31T17:07:24.157Z</time></trkpt><trkpt lat="41.452725" lon="0.7445617"><ele>313.0</ele><time>2026-03-31T17:07:25.158Z</time></trkpt><trkpt lat="41.4527967" lon="0.7443033"><ele>311.0</ele><time>2026-03-31T17:07:26.157Z</time></trkpt><trkpt lat="41.45286" lon="0.74405"><ele>310.33333333333337</ele><time>2026-03-31T17:07:27.158Z</time></trkpt><trkpt lat="41.4529133" lon="0.74382"><ele>309.6666666666667</ele><time>2026-03-31T17:07:28.157Z</time></trkpt><trkpt lat="41.4529683" lon="0.7435983"><ele>309.0</ele><time>2026-03-31T17:07:29.158Z</time></trkpt><trkpt lat="41.453025" lon="0.7433683"><ele>312.3333333333333</ele><time>2026-03-31T17:07:30.158Z</time></trkpt><trkpt lat="41.4530967" lon="0.743155"><ele>315.66666666666663</ele><time>2026-03-31T17:07:31.157Z</time></trkpt><trkpt lat="41.4531933" lon="0.7429883"><ele>319.0</ele><time>2026-03-31T17:07:32.157Z</time></trkpt><trkpt lat="41.45333" lon="0.74287"><ele>319.0</ele><time>2026-03-31T17:07:33.158Z</time></trkpt><trkpt lat="41.4534833" lon="0.7427933"><ele>319.0</ele><time>2026-03-31T17:07:34.157Z</time></trkpt><trkpt lat="41.4536433" lon="0.742735"><ele>319.0</ele><time>2026-03-31T17:07:35.157Z</time></trkpt><trkpt lat="41.4538017" lon="0.74267"><ele>320.3333333333333</ele><time>2026-03-31T17:07:36.158Z</time></trkpt><trkpt lat="41.4539317" lon="0.7425583"><ele>321.6666666666667</ele><time>2026-03-31T17:07:37.157Z</time></trkpt><trkpt lat="41.4540333" lon="0.7424"><ele>323.0</ele><time>2026-03-31T17:07:38.158Z</time></trkpt><trkpt lat="41.454115" lon="0.7421867"><ele>323.0</ele><time>2026-03-31T17:07:39.157Z</time></trkpt><trkpt lat="41.4541617" lon="0.7419783"><ele>323.0</ele><time>2026-03-31T17:07:40.157Z</time></trkpt><trkpt lat="41.4541867" lon="0.7417467"><ele>323.0</ele><time>2026-03-31T17:07:41.158Z</time></trkpt><trkpt lat="41.4542167" lon="0.741515"><ele>322.0</ele><time>2026-03-31T17:07:42.157Z</time></trkpt><trkpt lat="41.454255" lon="0.7412933"><ele>321.0</ele><time>2026-03-31T17:07:43.158Z</time></trkpt><trkpt lat="41.4542833" lon="0.74107"><ele>320.0</ele><time>2026-03-31T17:07:44.158Z</time></trkpt><trkpt lat="41.454335" lon="0.7408617"><ele>319.5</ele><time>2026-03-31T17:07:45.157Z</time></trkpt><trkpt lat="41.4544167" lon="0.7407033"><ele>319.0</ele><time>2026-03-31T17:07:46.158Z</time></trkpt><trkpt lat="41.4545383" lon="0.74059"><ele>318.5</ele><time>2026-03-31T17:07:47.157Z</time></trkpt><trkpt lat="41.45468" lon="0.74053"><ele>318.0</ele><time>2026-03-31T17:07:48.158Z</time></trkpt><trkpt lat="41.4548317" lon="0.7405417"><ele>320.6666666666667</ele><time>2026-03-31T17:07:49.158Z</time></trkpt><trkpt lat="41.45498" lon="0.7406267"><ele>323.33333333333337</ele><time>2026-03-31T17:07:50.158Z</time></trkpt><trkpt lat="41.4551083" lon="0.7407567"><ele>326.0</ele><time>2026-03-31T17:07:51.157Z</time></trkpt><trkpt lat="41.4552317" lon="0.7409233"><ele>328.0</ele><time>2026-03-31T17:07:52.157Z</time></trkpt><trkpt lat="41.4553633" lon="0.7411"><ele>330.0</ele><time>2026-03-31T17:07:53.158Z</time></trkpt><trkpt lat="41.4555067" lon="0.74128"><ele>332.0</ele><time>2026-03-31T17:07:54.157Z</time></trkpt><trkpt lat="41.4556517" lon="0.7414683"><ele>332.0</ele><time>2026-03-31T17:07:55.157Z</time></trkpt><trkpt lat="41.4558" lon="0.7416633"><ele>332.0</ele><time>2026-03-31T17:07:56.158Z</time></trkpt><trkpt lat="41.4559483" lon="0.7418617"><ele>332.0</ele><time>2026-03-31T17:07:57.157Z</time></trkpt><trkpt lat="41.4560983" lon="0.7420617"><ele>331.6666666666667</ele><time>2026-03-31T17:07:58.157Z</time></trkpt><trkpt lat="41.4562517" lon="0.7422717"><ele>331.3333333333333</ele><time>2026-03-31T17:07:59.157Z</time></trkpt><trkpt lat="41.4564" lon="0.7424833"><ele>331.0</ele><time>2026-03-31T17:08:00.158Z</time></trkpt><trkpt lat="41.456555" lon="0.7426967"><ele>332.66666666666663</ele><time>2026-03-31T17:08:01.157Z</time></trkpt><trkpt lat="41.456705" lon="0.7429167"><ele>334.3333333333333</ele><time>2026-03-31T17:08:02.158Z</time></trkpt><trkpt lat="41.4568533" lon="0.7431383"><ele>336.0</ele><time>2026-03-31T17:08:03.158Z</time></trkpt><trkpt lat="41.4570083" lon="0.7433633"><ele>339.0</ele><time>2026-03-31T17:08:04.157Z</time></trkpt><trkpt lat="41.4571617" lon="0.7435767"><ele>342.0</ele><time>2026-03-31T17:08:05.158Z</time></trkpt><trkpt lat="41.4573233" lon="0.7437917"><ele>342.0</ele><time>2026-03-31T17:08:06.157Z</time></trkpt><trkpt lat="41.4574867" lon="0.7440033"><ele>342.0</ele><time>2026-03-31T17:08:07.158Z</time></trkpt><trkpt lat="41.4576417" lon="0.7442183"><ele>345.0</ele><time>2026-03-31T17:08:08.157Z</time></trkpt><trkpt lat="41.4578017" lon="0.7444367"><ele>348.0</ele><time>2026-03-31T17:08:09.157Z</time></trkpt><trkpt lat="41.4579617" lon="0.7446483"><ele>348.0</ele><time>2026-03-31T17:08:10.158Z</time></trkpt><trkpt lat="41.4581283" lon="0.7448517"><ele>348.0</ele><time>2026-03-31T17:08:11.158Z</time></trkpt><trkpt lat="41.4582933" lon="0.7450533"><ele>348.6666666666667</ele><time>2026-03-31T17:08:12.157Z</time></trkpt><trkpt lat="41.4584667" lon="0.7452567"><ele>349.33333333333337</ele><time>2026-03-31T17:08:13.157Z</time></trkpt><trkpt lat="41.4586333" lon="0.7454433"><ele>350.0</ele><time>2026-03-31T17:08:14.157Z</time></trkpt><trkpt lat="41.4588083" lon="0.7456183"><ele>350.0</ele><time>2026-03-31T17:08:15.158Z</time></trkpt><trkpt lat="41.4589917" lon="0.745775"><ele>350.0</ele><time>2026-03-31T17:08:16.157Z</time></trkpt><trkpt lat="41.4591833" lon="0.7458867"><ele>350.0</ele><time>2026-03-31T17:08:17.158Z</time></trkpt><trkpt lat="41.4593867" lon="0.74596"><ele>350.0</ele><time>2026-03-31T17:08:18.158Z</time></trkpt><trkpt lat="41.4596" lon="0.746015"><ele>350.0</ele><time>2026-03-31T17:08:19.158Z</time></trkpt><trkpt lat="41.4598167" lon="0.7460383"><ele>350.0</ele><time>2026-03-31T17:08:20.158Z</time></trkpt><trkpt lat="41.4600317" lon="0.74602"><ele>351.33333333333337</ele><time>2026-03-31T17:08:21.157Z</time></trkpt><trkpt lat="41.4602417" lon="0.7459533"><ele>352.6666666666667</ele><time>2026-03-31T17:08:22.158Z</time></trkpt><trkpt lat="41.460445" lon="0.745865"><ele>354.0</ele><time>2026-03-31T17:08:23.157Z</time></trkpt><trkpt lat="41.4606417" lon="0.7457433"><ele>360.5</ele><time>2026-03-31T17:08:24.158Z</time></trkpt><trkpt lat="41.46083" lon="0.74558"><ele>367.0</ele><time>2026-03-31T17:08:25.157Z</time></trkpt><trkpt lat="41.461005" lon="0.7453883"><ele>365.0</ele><time>2026-03-31T17:08:26.157Z</time></trkpt><trkpt lat="41.4611717" lon="0.74518"><ele>363.0</ele><time>2026-03-31T17:08:27.158Z</time></trkpt><trkpt lat="41.461335" lon="0.7449667"><ele>371.0</ele><time>2026-03-31T17:08:28.158Z</time></trkpt><trkpt lat="41.4615017" lon="0.744765"><ele>379.0</ele><time>2026-03-31T17:08:29.157Z</time></trkpt><trkpt lat="41.4616833" lon="0.7445883"><ele>379.0</ele><time>2026-03-31T17:08:30.157Z</time></trkpt><trkpt lat="41.4618883" lon="0.7444533"><ele>379.0</ele><time>2026-03-31T17:08:31.158Z</time></trkpt><trkpt lat="41.462105" lon="0.7443433"><ele>377.0</ele><time>2026-03-31T17:08:32.158Z</time></trkpt><trkpt lat="41.4623183" lon="0.7442733"><ele>375.0</ele><time>2026-03-31T17:08:33.157Z</time></trkpt><trkpt lat="41.4625417" lon="0.7442517"><ele>373.0</ele><time>2026-03-31T17:08:34.157Z</time></trkpt><trkpt lat="41.4627617" lon="0.7442483"><ele>378.0</ele><time>2026-03-31T17:08:35.157Z</time></trkpt><trkpt lat="41.4629883" lon="0.7443033"><ele>383.0</ele><time>2026-03-31T17:08:36.158Z</time></trkpt><trkpt lat="41.463215" lon="0.7443917"><ele>384.0</ele><time>2026-03-31T17:08:37.158Z</time></trkpt><trkpt lat="41.4634317" lon="0.7445117"><ele>385.0</ele><time>2026-03-31T17:08:38.157Z</time></trkpt><trkpt lat="41.4636383" lon="0.7446283"><ele>388.5</ele><time>2026-03-31T17:08:39.157Z</time></trkpt><trkpt lat="41.463845" lon="0.7447483"><ele>392.0</ele><time>2026-03-31T17:08:40.157Z</time></trkpt><trkpt lat="41.4640583" lon="0.7448433"><ele>392.0</ele><time>2026-03-31T17:08:41.157Z</time></trkpt><trkpt lat="41.4642767" lon="0.7449083"><ele>392.0</ele><time>2026-03-31T17:08:42.158Z</time></trkpt><trkpt lat="41.464495" lon="0.7449517"><ele>392.0</ele><time>2026-03-31T17:08:43.157Z</time></trkpt><trkpt lat="41.4647033" lon="0.7449383"><ele>394.66666666666663</ele><time>2026-03-31T17:08:44.157Z</time></trkpt><trkpt lat="41.4649183" lon="0.7448933"><ele>397.33333333333337</ele><time>2026-03-31T17:08:45.158Z</time></trkpt><trkpt lat="41.4651317" lon="0.7448067"><ele>400.0</ele><time>2026-03-31T17:08:46.157Z</time></trkpt><trkpt lat="41.465345" lon="0.744695"><ele>400.5</ele><time>2026-03-31T17:08:47.158Z</time></trkpt><trkpt lat="41.4655417" lon="0.7445333"><ele>401.0</ele><time>2026-03-31T17:08:48.157Z</time></trkpt><trkpt lat="41.4657233" lon="0.74435"><ele>401.0</ele><time>2026-03-31T17:08:49.158Z</time></trkpt><trkpt lat="41.4658833" lon="0.7441267"><ele>401.0</ele><time>2026-03-31T17:08:50.158Z</time></trkpt><trkpt lat="41.466015" lon="0.743865"><ele>401.0</ele><time>2026-03-31T17:08:51.157Z</time></trkpt><trkpt lat="41.4661333" lon="0.7435783"><ele>401.0</ele><time>2026-03-31T17:08:52.157Z</time></trkpt><trkpt lat="41.466245" lon="0.743275"><ele>400.5</ele><time>2026-03-31T17:08:53.157Z</time></trkpt><trkpt lat="41.4663383" lon="0.7429667"><ele>400.0</ele><time>2026-03-31T17:08:54.157Z</time></trkpt><trkpt lat="41.4664367" lon="0.7426683"><ele>401.0</ele><time>2026-03-31T17:08:55.157Z</time></trkpt><trkpt lat="41.4665667" lon="0.7423967"><ele>402.0</ele><time>2026-03-31T17:08:56.157Z</time></trkpt><trkpt lat="41.4667233" lon="0.7421467"><ele>402.0</ele><time>2026-03-31T17:08:57.157Z</time></trkpt><trkpt lat="41.4669083" lon="0.7419383"><ele>402.0</ele><time>2026-03-31T17:08:58.157Z</time></trkpt><trkpt lat="41.467115" lon="0.7417583"><ele>398.0</ele><time>2026-03-31T17:08:59.157Z</time></trkpt><trkpt lat="41.467345" lon="0.7416133"><ele>394.0</ele><time>2026-03-31T17:09:00.157Z</time></trkpt><trkpt lat="41.4675933" lon="0.7415083"><ele>394.0</ele><time>2026-03-31T17:09:01.157Z</time></trkpt><trkpt lat="41.4678483" lon="0.7414717"><ele>394.0</ele><time>2026-03-31T17:09:02.157Z</time></trkpt><trkpt lat="41.4681" lon="0.7414833"><ele>391.0</ele><time>2026-03-31T17:09:03.157Z</time></trkpt><trkpt lat="41.4683583" lon="0.741545"><ele>388.0</ele><time>2026-03-31T17:09:04.157Z</time></trkpt><trkpt lat="41.4686033" lon="0.7416433"><ele>386.0</ele><time>2026-03-31T17:09:05.158Z</time></trkpt><trkpt lat="41.46884" lon="0.7417817"><ele>384.0</ele><time>2026-03-31T17:09:06.158Z</time></trkpt><trkpt lat="41.4690667" lon="0.741935"><ele>380.5</ele><time>2026-03-31T17:09:07.157Z</time></trkpt><trkpt lat="41.46928" lon="0.742085"><ele>377.0</ele><time>2026-03-31T17:09:08.158Z</time></trkpt><trkpt lat="41.469495" lon="0.742205"><ele>375.0</ele><time>2026-03-31T17:09:09.158Z</time></trkpt><trkpt lat="41.4697117" lon="0.74229"><ele>373.0</ele><time>2026-03-31T17:09:10.157Z</time></trkpt><trkpt lat="41.4699383" lon="0.742335"><ele>373.0</ele><time>2026-03-31T17:09:11.157Z</time></trkpt><trkpt lat="41.4701617" lon="0.7423333"><ele>373.0</ele><time>2026-03-31T17:09:12.157Z</time></trkpt><trkpt lat="41.4703967" lon="0.7422933"><ele>371.0</ele><time>2026-03-31T17:09:13.157Z</time></trkpt><trkpt lat="41.4706283" lon="0.74221"><ele>369.0</ele><time>2026-03-31T17:09:14.158Z</time></trkpt><trkpt lat="41.4708583" lon="0.742085"><ele>369.0</ele><time>2026-03-31T17:09:15.158Z</time></trkpt><trkpt lat="41.47109" lon="0.7419267"><ele>369.0</ele><time>2026-03-31T17:09:16.157Z</time></trkpt><trkpt lat="41.4713183" lon="0.7417717"><ele>366.5</ele><time>2026-03-31T17:09:17.157Z</time></trkpt><trkpt lat="41.4715417" lon="0.7416117"><ele>364.0</ele><time>2026-03-31T17:09:18.157Z</time></trkpt><trkpt lat="41.4717733" lon="0.74145"><ele>364.0</ele><time>2026-03-31T17:09:19.158Z</time></trkpt><trkpt lat="41.4720017" lon="0.7412917"><ele>364.0</ele><time>2026-03-31T17:09:20.158Z</time></trkpt><trkpt lat="41.4722317" lon="0.7411317"><ele>363.5</ele><time>2026-03-31T17:09:21.158Z</time></trkpt><trkpt lat="41.4724633" lon="0.7409783"><ele>363.0</ele><time>2026-03-31T17:09:22.157Z</time></trkpt><trkpt lat="41.4726883" lon="0.740815"><ele>363.0</ele><time>2026-03-31T17:09:23.157Z</time></trkpt><trkpt lat="41.472915" lon="0.7406617"><ele>363.0</ele><time>2026-03-31T17:09:24.158Z</time></trkpt><trkpt lat="41.473135" lon="0.7405033"><ele>361.5</ele><time>2026-03-31T17:09:25.157Z</time></trkpt><trkpt lat="41.4733533" lon="0.7403433"><ele>360.0</ele><time>2026-03-31T17:09:26.157Z</time></trkpt><trkpt lat="41.4735667" lon="0.7401717"><ele>356.5</ele><time>2026-03-31T17:09:27.157Z</time></trkpt><trkpt lat="41.4737783" lon="0.7399767"><ele>353.0</ele><time>2026-03-31T17:09:28.158Z</time></trkpt><trkpt lat="41.4739717" lon="0.7397567"><ele>353.0</ele><time>2026-03-31T17:09:29.158Z</time></trkpt><trkpt lat="41.4741467" lon="0.739515"><ele>353.0</ele><time>2026-03-31T17:09:30.157Z</time></trkpt><trkpt lat="41.4743167" lon="0.7392683"><ele>354.5</ele><time>2026-03-31T17:09:31.157Z</time></trkpt><trkpt lat="41.47449" lon="0.739025"><ele>356.0</ele><time>2026-03-31T17:09:32.157Z</time></trkpt><trkpt lat="41.474675" lon="0.738795"><ele>354.0</ele><time>2026-03-31T17:09:33.158Z</time></trkpt><trkpt lat="41.4748733" lon="0.7386083"><ele>352.0</ele><time>2026-03-31T17:09:34.157Z</time></trkpt><trkpt lat="41.47509" lon="0.7384467"><ele>352.0</ele><time>2026-03-31T17:09:35.158Z</time></trkpt><trkpt lat="41.4753033" lon="0.7383"><ele>352.0</ele><time>2026-03-31T17:09:36.157Z</time></trkpt><trkpt lat="41.475525" lon="0.7381617"><ele>347.5</ele><time>2026-03-31T17:09:37.158Z</time></trkpt><trkpt lat="41.4757483" lon="0.7380117"><ele>343.0</ele><time>2026-03-31T17:09:38.157Z</time></trkpt><trkpt lat="41.4759667" lon="0.737855"><ele>343.5</ele><time>2026-03-31T17:09:39.158Z</time></trkpt><trkpt lat="41.476185" lon="0.7376917"><ele>344.0</ele><time>2026-03-31T17:09:40.157Z</time></trkpt><trkpt lat="41.4763967" lon="0.73751"><ele>344.0</ele><time>2026-03-31T17:09:41.157Z</time></trkpt><trkpt lat="41.4766067" lon="0.7373133"><ele>344.0</ele><time>2026-03-31T17:09:42.157Z</time></trkpt><trkpt lat="41.4768067" lon="0.7371"><ele>340.0</ele><time>2026-03-31T17:09:43.157Z</time></trkpt><trkpt lat="41.4769917" lon="0.73687"><ele>336.0</ele><time>2026-03-31T17:09:44.157Z</time></trkpt><trkpt lat="41.4771767" lon="0.7366317"><ele>336.0</ele><time>2026-03-31T17:09:45.158Z</time></trkpt><trkpt lat="41.4773517" lon="0.7363717"><ele>336.0</ele><time>2026-03-31T17:09:46.158Z</time></trkpt><trkpt lat="41.477525" lon="0.7361133"><ele>338.5</ele><time>2026-03-31T17:09:47.158Z</time></trkpt><trkpt lat="41.4776833" lon="0.7358433"><ele>341.0</ele><time>2026-03-31T17:09:48.157Z</time></trkpt><trkpt lat="41.4778317" lon="0.7356"><ele>341.0</ele><time>2026-03-31T17:09:49.158Z</time></trkpt><trkpt lat="41.4779833" lon="0.7353733"><ele>341.0</ele><time>2026-03-31T17:09:50.157Z</time></trkpt><trkpt lat="41.4781467" lon="0.73518"><ele>341.0</ele><time>2026-03-31T17:09:51.157Z</time></trkpt><trkpt lat="41.478325" lon="0.7350167"><ele>341.0</ele><time>2026-03-31T17:09:52.158Z</time></trkpt><trkpt lat="41.47853" lon="0.7348783"><ele>341.0</ele><time>2026-03-31T17:09:53.157Z</time></trkpt><trkpt lat="41.4787367" lon="0.7347733"><ele>337.33333333333337</ele><time>2026-03-31T17:09:54.158Z</time></trkpt><trkpt lat="41.4789467" lon="0.7347133"><ele>333.6666666666667</ele><time>2026-03-31T17:09:55.157Z</time></trkpt><trkpt lat="41.47917" lon="0.734695"><ele>330.0</ele><time>2026-03-31T17:09:56.157Z</time></trkpt><trkpt lat="41.479395" lon="0.734725"><ele>330.5</ele><time>2026-03-31T17:09:57.158Z</time></trkpt><trkpt lat="41.4796317" lon="0.7347917"><ele>331.0</ele><time>2026-03-31T17:09:58.158Z</time></trkpt><trkpt lat="41.479855" lon="0.7348917"><ele>331.0</ele><time>2026-03-31T17:09:59.158Z</time></trkpt><trkpt lat="41.4800667" lon="0.7350267"><ele>331.0</ele><time>2026-03-31T17:10:00.157Z</time></trkpt><trkpt lat="41.4802667" lon="0.735205"><ele>335.0</ele><time>2026-03-31T17:10:01.157Z</time></trkpt><trkpt lat="41.4804467" lon="0.7354083"><ele>339.0</ele><time>2026-03-31T17:10:02.157Z</time></trkpt><trkpt lat="41.4806067" lon="0.7356467"><ele>339.0</ele><time>2026-03-31T17:10:03.157Z</time></trkpt><trkpt lat="41.4807283" lon="0.7359117"><ele>339.0</ele><time>2026-03-31T17:10:04.158Z</time></trkpt><trkpt lat="41.480845" lon="0.7361967"><ele>339.5</ele><time>2026-03-31T17:10:05.157Z</time></trkpt><trkpt lat="41.4809517" lon="0.7364933"><ele>340.0</ele><time>2026-03-31T17:10:06.157Z</time></trkpt><trkpt lat="41.4810517" lon="0.7367933"><ele>340.5</ele><time>2026-03-31T17:10:07.158Z</time></trkpt><trkpt lat="41.481155" lon="0.737095"><ele>341.0</ele><time>2026-03-31T17:10:08.158Z</time></trkpt><trkpt lat="41.4812567" lon="0.7373933"><ele>346.0</ele><time>2026-03-31T17:10:09.157Z</time></trkpt><trkpt lat="41.48136" lon="0.7376883"><ele>351.0</ele><time>2026-03-31T17:10:10.157Z</time></trkpt><trkpt lat="41.4814567" lon="0.73798"><ele>351.0</ele><time>2026-03-31T17:10:11.158Z</time></trkpt><trkpt lat="41.481555" lon="0.7382733"><ele>351.0</ele><time>2026-03-31T17:10:12.158Z</time></trkpt><trkpt lat="41.4816583" lon="0.73857"><ele>350.0</ele><time>2026-03-31T17:10:13.157Z</time></trkpt><trkpt lat="41.48176" lon="0.73887"><ele>349.0</ele><time>2026-03-31T17:10:14.158Z</time></trkpt><trkpt lat="41.4818667" lon="0.739175"><ele>351.0</ele><time>2026-03-31T17:10:15.157Z</time></trkpt><trkpt lat="41.4819667" lon="0.7394683"><ele>353.0</ele><time>2026-03-31T17:10:16.158Z</time></trkpt><trkpt lat="41.48207" lon="0.7397667"><ele>359.0</ele><time>2026-03-31T17:10:17.157Z</time></trkpt><trkpt lat="41.4821733" lon="0.740055"><ele>365.0</ele><time>2026-03-31T17:10:18.158Z</time></trkpt><trkpt lat="41.4822733" lon="0.7403433"><ele>365.0</ele><time>2026-03-31T17:10:19.158Z</time></trkpt><trkpt lat="41.4823733" lon="0.7406283"><ele>365.0</ele><time>2026-03-31T17:10:20.158Z</time></trkpt><trkpt lat="41.482475" lon="0.7409217"><ele>366.0</ele><time>2026-03-31T17:10:21.158Z</time></trkpt><trkpt lat="41.4825883" lon="0.7412133"><ele>367.0</ele><time>2026-03-31T17:10:22.157Z</time></trkpt><trkpt lat="41.482715" lon="0.7414783"><ele>367.0</ele><time>2026-03-31T17:10:23.157Z</time></trkpt><trkpt lat="41.4828533" lon="0.7417383"><ele>367.0</ele><time>2026-03-31T17:10:24.158Z</time></trkpt><trkpt lat="41.4830033" lon="0.7419767"><ele>373.0</ele><time>2026-03-31T17:10:25.157Z</time></trkpt><trkpt lat="41.4831667" lon="0.7421867"><ele>379.0</ele><time>2026-03-31T17:10:26.157Z</time></trkpt><trkpt lat="41.48335" lon="0.7423817"><ele>379.0</ele><time>2026-03-31T17:10:27.157Z</time></trkpt><trkpt lat="41.4835533" lon="0.7425367"><ele>379.0</ele><time>2026-03-31T17:10:28.157Z</time></trkpt><trkpt lat="41.4837767" lon="0.74266"><ele>381.5</ele><time>2026-03-31T17:10:29.157Z</time></trkpt><trkpt lat="41.4840083" lon="0.74276"><ele>384.0</ele><time>2026-03-31T17:10:30.158Z</time></trkpt><trkpt lat="41.4842467" lon="0.7428483"><ele>384.0</ele><time>2026-03-31T17:10:31.157Z</time></trkpt><trkpt lat="41.4844867" lon="0.7429267"><ele>384.0</ele><time>2026-03-31T17:10:32.158Z</time></trkpt><trkpt lat="41.4847283" lon="0.7430083"><ele>383.0</ele><time>2026-03-31T17:10:33.157Z</time></trkpt><trkpt lat="41.4849683" lon="0.743085"><ele>382.0</ele><time>2026-03-31T17:10:34.157Z</time></trkpt><trkpt lat="41.4852133" lon="0.7431467"><ele>381.0</ele><time>2026-03-31T17:10:35.157Z</time></trkpt><trkpt lat="41.4854583" lon="0.7432167"><ele>380.0</ele><time>2026-03-31T17:10:36.157Z</time></trkpt><trkpt lat="41.485705" lon="0.7432867"><ele>380.0</ele><time>2026-03-31T17:10:37.157Z</time></trkpt><trkpt lat="41.4859533" lon="0.743355"><ele>380.0</ele><time>2026-03-31T17:10:38.157Z</time></trkpt><trkpt lat="41.4861967" lon="0.743425"><ele>378.0</ele><time>2026-03-31T17:10:39.157Z</time></trkpt><trkpt lat="41.48643" lon="0.743515"><ele>376.0</ele><time>2026-03-31T17:10:40.157Z</time></trkpt><trkpt lat="41.4866483" lon="0.7436583"><ele>373.5</ele><time>2026-03-31T17:10:41.157Z</time></trkpt><trkpt lat="41.48686" lon="0.7438167"><ele>371.0</ele><time>2026-03-31T17:10:42.158Z</time></trkpt><trkpt lat="41.487045" lon="0.7440317"><ele>373.0</ele><time>2026-03-31T17:10:43.158Z</time></trkpt><trkpt lat="41.4872233" lon="0.7442633"><ele>375.0</ele><time>2026-03-31T17:10:44.158Z</time></trkpt><trkpt lat="41.487395" lon="0.7444983"><ele>371.0</ele><time>2026-03-31T17:10:45.157Z</time></trkpt><trkpt lat="41.4875583" lon="0.7447283"><ele>367.0</ele><time>2026-03-31T17:10:46.158Z</time></trkpt><trkpt lat="41.4877417" lon="0.7449233"><ele>369.5</ele><time>2026-03-31T17:10:47.158Z</time></trkpt><trkpt lat="41.4879417" lon="0.7450983"><ele>372.0</ele><time>2026-03-31T17:10:48.158Z</time></trkpt><trkpt lat="41.4881617" lon="0.745245"><ele>365.5</ele><time>2026-03-31T17:10:49.158Z</time></trkpt><trkpt lat="41.488385" lon="0.7453917"><ele>359.0</ele><time>2026-03-31T17:10:50.158Z</time></trkpt><trkpt lat="41.488615" lon="0.7455417"><ele>359.0</ele><time>2026-03-31T17:10:51.157Z</time></trkpt><trkpt lat="41.488835" lon="0.7457233"><ele>359.0</ele><time>2026-03-31T17:10:52.157Z</time></trkpt><trkpt lat="41.4890383" lon="0.7459433"><ele>355.5</ele><time>2026-03-31T17:10:53.158Z</time></trkpt><trkpt lat="41.489215" lon="0.7461933"><ele>352.0</ele><time>2026-03-31T17:10:54.157Z</time></trkpt><trkpt lat="41.4893733" lon="0.7464717"><ele>352.0</ele><time>2026-03-31T17:10:55.158Z</time></trkpt><trkpt lat="41.4895117" lon="0.7467633"><ele>352.0</ele><time>2026-03-31T17:10:56.158Z</time></trkpt><trkpt lat="41.4896517" lon="0.74706"><ele>350.0</ele><time>2026-03-31T17:10:57.157Z</time></trkpt><trkpt lat="41.4898017" lon="0.7473417"><ele>348.0</ele><time>2026-03-31T17:10:58.157Z</time></trkpt><trkpt lat="41.4899717" lon="0.74761"><ele>346.0</ele><time>2026-03-31T17:10:59.157Z</time></trkpt><trkpt lat="41.4901567" lon="0.74784"><ele>344.0</ele><time>2026-03-31T17:11:00.158Z</time></trkpt><trkpt lat="41.4903667" lon="0.748045"><ele>343.5</ele><time>2026-03-31T17:11:01.158Z</time></trkpt><trkpt lat="41.4905783" lon="0.7482617"><ele>343.0</ele><time>2026-03-31T17:11:02.157Z</time></trkpt><trkpt lat="41.4907883" lon="0.7484683"><ele>342.0</ele><time>2026-03-31T17:11:03.157Z</time></trkpt><trkpt lat="41.490995" lon="0.748675"><ele>341.0</ele><time>2026-03-31T17:11:04.158Z</time></trkpt><trkpt lat="41.491195" lon="0.7488783"><ele>341.5</ele><time>2026-03-31T17:11:05.157Z</time></trkpt><trkpt lat="41.4913933" lon="0.749075"><ele>342.0</ele><time>2026-03-31T17:11:06.158Z</time></trkpt><trkpt lat="41.4915883" lon="0.7492733"><ele>340.5</ele><time>2026-03-31T17:11:07.157Z</time></trkpt><trkpt lat="41.4917817" lon="0.74947"><ele>339.0</ele><time>2026-03-31T17:11:08.157Z</time></trkpt><trkpt lat="41.4919767" lon="0.7496683"><ele>338.5</ele><time>2026-03-31T17:11:09.157Z</time></trkpt><trkpt lat="41.49216" lon="0.7498767"><ele>338.0</ele><time>2026-03-31T17:11:10.157Z</time></trkpt><trkpt lat="41.4923283" lon="0.750115"><ele>335.5</ele><time>2026-03-31T17:11:11.158Z</time></trkpt><trkpt lat="41.4924883" lon="0.7503783"><ele>333.0</ele><time>2026-03-31T17:11:12.157Z</time></trkpt><trkpt lat="41.49262" lon="0.7506633"><ele>333.0</ele><time>2026-03-31T17:11:13.157Z</time></trkpt><trkpt lat="41.49273" lon="0.7509717"><ele>333.0</ele><time>2026-03-31T17:11:14.158Z</time></trkpt><trkpt lat="41.4928333" lon="0.7513"><ele>330.5</ele><time>2026-03-31T17:11:15.157Z</time></trkpt><trkpt lat="41.492935" lon="0.751635"><ele>328.0</ele><time>2026-03-31T17:11:16.158Z</time></trkpt><trkpt lat="41.4930367" lon="0.7519733"><ele>328.0</ele><time>2026-03-31T17:11:17.157Z</time></trkpt><trkpt lat="41.493145" lon="0.7522983"><ele>328.0</ele><time>2026-03-31T17:11:18.158Z</time></trkpt><trkpt lat="41.493255" lon="0.7526117"><ele>330.5</ele><time>2026-03-31T17:11:19.158Z</time></trkpt><trkpt lat="41.4933833" lon="0.75292"><ele>333.0</ele><time>2026-03-31T17:11:20.158Z</time></trkpt><trkpt lat="41.493535" lon="0.7532233"><ele>333.0</ele><time>2026-03-31T17:11:21.157Z</time></trkpt><trkpt lat="41.4937017" lon="0.7535267"><ele>333.0</ele><time>2026-03-31T17:11:22.157Z</time></trkpt><trkpt lat="41.4938717" lon="0.7538333"><ele>331.5</ele><time>2026-03-31T17:11:23.157Z</time></trkpt><trkpt lat="41.49404" lon="0.7541367"><ele>330.0</ele><time>2026-03-31T17:11:24.158Z</time></trkpt><trkpt lat="41.4942033" lon="0.75445"><ele>330.0</ele><time>2026-03-31T17:11:25.157Z</time></trkpt><trkpt lat="41.4943517" lon="0.754785"><ele>330.0</ele><time>2026-03-31T17:11:26.158Z</time></trkpt><trkpt lat="41.4944783" lon="0.755145"><ele>331.5</ele><time>2026-03-31T17:11:27.157Z</time></trkpt><trkpt lat="41.4945817" lon="0.75552"><ele>333.0</ele><time>2026-03-31T17:11:28.157Z</time></trkpt><trkpt lat="41.4946767" lon="0.7559033"><ele>334.5</ele><time>2026-03-31T17:11:29.158Z</time></trkpt><trkpt lat="41.4947683" lon="0.75629"><ele>336.0</ele><time>2026-03-31T17:11:30.157Z</time></trkpt><trkpt lat="41.4948567" lon="0.7566717"><ele>336.5</ele><time>2026-03-31T17:11:31.157Z</time></trkpt><trkpt lat="41.4949517" lon="0.75705"><ele>337.0</ele><time>2026-03-31T17:11:32.158Z</time></trkpt><trkpt lat="41.4950417" lon="0.757425"><ele>338.0</ele><time>2026-03-31T17:11:33.157Z</time></trkpt><trkpt lat="41.4951317" lon="0.757785"><ele>339.0</ele><time>2026-03-31T17:11:34.158Z</time></trkpt><trkpt lat="41.4952167" lon="0.7581383"><ele>339.0</ele><time>2026-03-31T17:11:35.157Z</time></trkpt><trkpt lat="41.4953" lon="0.7584917"><ele>339.0</ele><time>2026-03-31T17:11:36.158Z</time></trkpt><trkpt lat="41.4953767" lon="0.758835"><ele>340.5</ele><time>2026-03-31T17:11:37.158Z</time></trkpt><trkpt lat="41.495455" lon="0.7591733"><ele>342.0</ele><time>2026-03-31T17:11:38.157Z</time></trkpt><trkpt lat="41.4955317" lon="0.7594817"><ele>342.0</ele><time>2026-03-31T17:11:39.157Z</time></trkpt><trkpt lat="41.4956017" lon="0.7597867"><ele>342.0</ele><time>2026-03-31T17:11:40.157Z</time></trkpt><trkpt lat="41.495665" lon="0.7600883"><ele>342.0</ele><time>2026-03-31T17:11:41.157Z</time></trkpt><trkpt lat="41.495735" lon="0.7603717"><ele>342.0</ele><time>2026-03-31T17:11:42.157Z</time></trkpt><trkpt lat="41.4958" lon="0.760655"><ele>342.0</ele><time>2026-03-31T17:11:43.158Z</time></trkpt><trkpt lat="41.4958633" lon="0.7609167"><ele>342.6666666666667</ele><time>2026-03-31T17:11:44.158Z</time></trkpt><trkpt lat="41.4959267" lon="0.76117"><ele>343.33333333333337</ele><time>2026-03-31T17:11:45.157Z</time></trkpt><trkpt lat="41.4959883" lon="0.7614033"><ele>344.0</ele><time>2026-03-31T17:11:46.157Z</time></trkpt><trkpt lat="41.4960417" lon="0.7616317"><ele>344.0</ele><time>2026-03-31T17:11:47.157Z</time></trkpt><trkpt lat="41.4960917" lon="0.7618467"><ele>344.0</ele><time>2026-03-31T17:11:48.158Z</time></trkpt><trkpt lat="41.496135" lon="0.762035"><ele>344.0</ele><time>2026-03-31T17:11:49.157Z</time></trkpt><trkpt lat="41.496175" lon="0.7622217"><ele>343.75</ele><time>2026-03-31T17:11:50.157Z</time></trkpt><trkpt lat="41.4962183" lon="0.762405"><ele>343.5</ele><time>2026-03-31T17:11:51.157Z</time></trkpt><trkpt lat="41.4962633" lon="0.7625717"><ele>343.25</ele><time>2026-03-31T17:11:52.157Z</time></trkpt><trkpt lat="41.4962967" lon="0.76273"><ele>343.0</ele><time>2026-03-31T17:11:53.158Z</time></trkpt><trkpt lat="41.49634" lon="0.762895"><ele>345.0</ele><time>2026-03-31T17:11:54.157Z</time></trkpt><trkpt lat="41.4963833" lon="0.7630667"><ele>347.0</ele><time>2026-03-31T17:11:55.157Z</time></trkpt><trkpt lat="41.4964283" lon="0.7632367"><ele>349.0</ele><time>2026-03-31T17:11:56.157Z</time></trkpt><trkpt lat="41.4964917" lon="0.7634133"><ele>351.0</ele><time>2026-03-31T17:11:57.157Z</time></trkpt><trkpt lat="41.496545" lon="0.7635717"><ele>351.0</ele><time>2026-03-31T17:11:58.157Z</time></trkpt><trkpt lat="41.49661" lon="0.7637183"><ele>351.0</ele><time>2026-03-31T17:11:59.158Z</time></trkpt><trkpt lat="41.4966833" lon="0.763855"><ele>351.0</ele><time>2026-03-31T17:12:00.157Z</time></trkpt><trkpt lat="41.4967667" lon="0.7639917"><ele>351.0</ele><time>2026-03-31T17:12:01.158Z</time></trkpt><trkpt lat="41.4968467" lon="0.764145"><ele>351.0</ele><time>2026-03-31T17:12:02.158Z</time></trkpt><trkpt lat="41.4969183" lon="0.7642817"><ele>351.0</ele><time>2026-03-31T17:12:03.158Z</time></trkpt><trkpt lat="41.49699" lon="0.76441"><ele>351.0</ele><time>2026-03-31T17:12:04.158Z</time></trkpt><trkpt lat="41.4970617" lon="0.76454"><ele>351.0</ele><time>2026-03-31T17:12:05.158Z</time></trkpt><trkpt lat="41.4971367" lon="0.7646617"><ele>351.5</ele><time>2026-03-31T17:12:06.157Z</time></trkpt><trkpt lat="41.497205" lon="0.7647783"><ele>352.0</ele><time>2026-03-31T17:12:07.157Z</time></trkpt><trkpt lat="41.4972883" lon="0.7648933"><ele>352.5</ele><time>2026-03-31T17:12:08.157Z</time></trkpt><trkpt lat="41.4973833" lon="0.7650017"><ele>353.0</ele><time>2026-03-31T17:12:09.157Z</time></trkpt><trkpt lat="41.4974883" lon="0.765075"><ele>353.0</ele><time>2026-03-31T17:12:10.157Z</time></trkpt><trkpt lat="41.4976083" lon="0.765125"><ele>353.0</ele><time>2026-03-31T17:12:11.158Z</time></trkpt><trkpt lat="41.4977233" lon="0.765175"><ele>353.0</ele><time>2026-03-31T17:12:12.157Z</time></trkpt><trkpt lat="41.4978333" lon="0.7652217"><ele>353.0</ele><time>2026-03-31T17:12:13.158Z</time></trkpt><trkpt lat="41.4979383" lon="0.7652717"><ele>353.59999999999997</ele><time>2026-03-31T17:12:14.157Z</time></trkpt><trkpt lat="41.498035" lon="0.7653417"><ele>354.2</ele><time>2026-03-31T17:12:15.157Z</time></trkpt><trkpt lat="41.4980917" lon="0.765445"><ele>354.8</ele><time>2026-03-31T17:12:16.157Z</time></trkpt><trkpt lat="41.498145" lon="0.7655767"><ele>355.4</ele><time>2026-03-31T17:12:17.157Z</time></trkpt><trkpt lat="41.498195" lon="0.765725"><ele>356.0</ele><time>2026-03-31T17:12:18.157Z</time></trkpt><trkpt lat="41.4982533" lon="0.76587"><ele>356.0</ele><time>2026-03-31T17:12:19.158Z</time></trkpt><trkpt lat="41.4983083" lon="0.7660217"><ele>356.0</ele><time>2026-03-31T17:12:20.157Z</time></trkpt><trkpt lat="41.49837" lon="0.7661717"><ele>356.0</ele><time>2026-03-31T17:12:21.158Z</time></trkpt><trkpt lat="41.4984317" lon="0.7663333"><ele>356.0</ele><time>2026-03-31T17:12:22.157Z</time></trkpt><trkpt lat="41.4984917" lon="0.766495"><ele>356.25</ele><time>2026-03-31T17:12:23.158Z</time></trkpt><trkpt lat="41.4985517" lon="0.7666533"><ele>356.5</ele><time>2026-03-31T17:12:24.157Z</time></trkpt><trkpt lat="41.4986017" lon="0.766805"><ele>356.75</ele><time>2026-03-31T17:12:25.158Z</time></trkpt><trkpt lat="41.4986433" lon="0.7669617"><ele>357.0</ele><time>2026-03-31T17:12:26.157Z</time></trkpt><trkpt lat="41.4986817" lon="0.7671083"><ele>357.0</ele><time>2026-03-31T17:12:27.157Z</time></trkpt><trkpt lat="41.498715" lon="0.76726"><ele>357.0</ele><time>2026-03-31T17:12:28.157Z</time></trkpt><trkpt lat="41.498755" lon="0.7674217"><ele>357.0</ele><time>2026-03-31T17:12:29.157Z</time></trkpt><trkpt lat="41.4987867" lon="0.767585"><ele>357.0</ele><time>2026-03-31T17:12:30.157Z</time></trkpt><trkpt lat="41.4988" lon="0.76776"><ele>355.25</ele><time>2026-03-31T17:12:31.157Z</time></trkpt><trkpt lat="41.4988317" lon="0.76793"><ele>353.5</ele><time>2026-03-31T17:12:32.158Z</time></trkpt><trkpt lat="41.4988567" lon="0.7681167"><ele>351.75</ele><time>2026-03-31T17:12:33.158Z</time></trkpt><trkpt lat="41.4988767" lon="0.7683117"><ele>350.0</ele><time>2026-03-31T17:12:34.157Z</time></trkpt><trkpt lat="41.4988867" lon="0.768515"><ele>348.33333333333337</ele><time>2026-03-31T17:12:35.157Z</time></trkpt><trkpt lat="41.498895" lon="0.76873"><ele>346.6666666666667</ele><time>2026-03-31T17:12:36.157Z</time></trkpt><trkpt lat="41.4989233" lon="0.7689383"><ele>345.0</ele><time>2026-03-31T17:12:37.158Z</time></trkpt><trkpt lat="41.4989533" lon="0.7691533"><ele>346.0</ele><time>2026-03-31T17:12:38.158Z</time></trkpt><trkpt lat="41.4989983" lon="0.7693683"><ele>347.0</ele><time>2026-03-31T17:12:39.158Z</time></trkpt><trkpt lat="41.4990583" lon="0.7695883"><ele>348.0</ele><time>2026-03-31T17:12:40.158Z</time></trkpt><trkpt lat="41.4991183" lon="0.7698117"><ele>348.0</ele><time>2026-03-31T17:12:41.157Z</time></trkpt><trkpt lat="41.4992233" lon="0.7700317"><ele>348.0</ele><time>2026-03-31T17:12:42.158Z</time></trkpt><trkpt lat="41.4993317" lon="0.770245"><ele>348.0</ele><time>2026-03-31T17:12:43.158Z</time></trkpt><trkpt lat="41.4994467" lon="0.7704583"><ele>349.3333333333333</ele><time>2026-03-31T17:12:44.157Z</time></trkpt><trkpt lat="41.499545" lon="0.7706833"><ele>350.66666666666663</ele><time>2026-03-31T17:12:45.157Z</time></trkpt><trkpt lat="41.4996133" lon="0.77093"><ele>352.0</ele><time>2026-03-31T17:12:46.158Z</time></trkpt><trkpt lat="41.4996583" lon="0.77119"><ele>346.3333333333333</ele><time>2026-03-31T17:12:47.157Z</time></trkpt><trkpt lat="41.499675" lon="0.7714683"><ele>340.6666666666667</ele><time>2026-03-31T17:12:48.157Z</time></trkpt><trkpt lat="41.49967" lon="0.77175"><ele>335.0</ele><time>2026-03-31T17:12:49.157Z</time></trkpt><trkpt lat="41.4996633" lon="0.772025"><ele>332.0</ele><time>2026-03-31T17:12:50.158Z</time></trkpt><trkpt lat="41.4996667" lon="0.7723017"><ele>329.0</ele><time>2026-03-31T17:12:51.157Z</time></trkpt><trkpt lat="41.4996867" lon="0.7725683"><ele>326.0</ele><time>2026-03-31T17:12:52.157Z</time></trkpt><trkpt lat="41.49974" lon="0.772835"><ele>324.6666666666667</ele><time>2026-03-31T17:12:53.157Z</time></trkpt><trkpt lat="41.4998183" lon="0.7730883"><ele>323.3333333333333</ele><time>2026-03-31T17:12:54.157Z</time></trkpt><trkpt lat="41.4999417" lon="0.77333"><ele>322.0</ele><time>2026-03-31T17:12:55.158Z</time></trkpt><trkpt lat="41.5000933" lon="0.773535"><ele>322.0</ele><time>2026-03-31T17:12:56.158Z</time></trkpt><trkpt lat="41.50027" lon="0.7737283"><ele>322.0</ele><time>2026-03-31T17:12:57.158Z</time></trkpt><trkpt lat="41.5004467" lon="0.7739133"><ele>320.0</ele><time>2026-03-31T17:12:58.158Z</time></trkpt><trkpt lat="41.5006317" lon="0.7740967"><ele>318.0</ele><time>2026-03-31T17:12:59.157Z</time></trkpt><trkpt lat="41.5008083" lon="0.7742783"><ele>317.0</ele><time>2026-03-31T17:13:00.157Z</time></trkpt><trkpt lat="41.500985" lon="0.7744667"><ele>316.0</ele><time>2026-03-31T17:13:01.157Z</time></trkpt><trkpt lat="41.5011567" lon="0.7746517"><ele>315.0</ele><time>2026-03-31T17:13:02.158Z</time></trkpt><trkpt lat="41.50133" lon="0.7748433"><ele>315.0</ele><time>2026-03-31T17:13:03.157Z</time></trkpt><trkpt lat="41.501505" lon="0.7750317"><ele>315.0</ele><time>2026-03-31T17:13:04.157Z</time></trkpt><trkpt lat="41.5016867" lon="0.7752217"><ele>320.0</ele><time>2026-03-31T17:13:05.158Z</time></trkpt><trkpt lat="41.50187" lon="0.7754167"><ele>325.0</ele><time>2026-03-31T17:13:06.158Z</time></trkpt><trkpt lat="41.5020583" lon="0.7756067"><ele>317.5</ele><time>2026-03-31T17:13:07.157Z</time></trkpt><trkpt lat="41.50225" lon="0.7757933"><ele>310.0</ele><time>2026-03-31T17:13:08.158Z</time></trkpt><trkpt lat="41.5024317" lon="0.7759867"><ele>314.5</ele><time>2026-03-31T17:13:09.158Z</time></trkpt><trkpt lat="41.5026" lon="0.7761933"><ele>319.0</ele><time>2026-03-31T17:13:10.157Z</time></trkpt><trkpt lat="41.5027533" lon="0.7764133"><ele>319.0</ele><time>2026-03-31T17:13:11.157Z</time></trkpt><trkpt lat="41.502895" lon="0.77667"><ele>319.0</ele><time>2026-03-31T17:13:12.158Z</time></trkpt><trkpt lat="41.5030033" lon="0.7769433"><ele>311.0</ele><time>2026-03-31T17:13:13.158Z</time></trkpt><trkpt lat="41.50308" lon="0.77723"><ele>303.0</ele><time>2026-03-31T17:13:14.157Z</time></trkpt><trkpt lat="41.50312" lon="0.7775367"><ele>303.5</ele><time>2026-03-31T17:13:15.158Z</time></trkpt><trkpt lat="41.50314" lon="0.7778583"><ele>304.0</ele><time>2026-03-31T17:13:16.158Z</time></trkpt><trkpt lat="41.5031183" lon="0.7781867"><ele>304.0</ele><time>2026-03-31T17:13:17.157Z</time></trkpt><trkpt lat="41.5030633" lon="0.7785133"><ele>304.0</ele><time>2026-03-31T17:13:18.158Z</time></trkpt><trkpt lat="41.50299" lon="0.7788367"><ele>308.0</ele><time>2026-03-31T17:13:19.157Z</time></trkpt><trkpt lat="41.5029083" lon="0.7791683"><ele>312.0</ele><time>2026-03-31T17:13:20.158Z</time></trkpt><trkpt lat="41.5028383" lon="0.7795"><ele>312.0</ele><time>2026-03-31T17:13:21.158Z</time></trkpt><trkpt lat="41.5027617" lon="0.7798333"><ele>312.0</ele><time>2026-03-31T17:13:22.157Z</time></trkpt><trkpt lat="41.5026883" lon="0.78017"><ele>311.0</ele><time>2026-03-31T17:13:23.158Z</time></trkpt><trkpt lat="41.5026133" lon="0.7805117"><ele>310.0</ele><time>2026-03-31T17:13:24.158Z</time></trkpt><trkpt lat="41.5025433" lon="0.78085"><ele>309.0</ele><time>2026-03-31T17:13:25.158Z</time></trkpt><trkpt lat="41.50247" lon="0.7811917"><ele>308.0</ele><time>2026-03-31T17:13:26.158Z</time></trkpt><trkpt lat="41.5023933" lon="0.7815417"><ele>306.0</ele><time>2026-03-31T17:13:27.157Z</time></trkpt><trkpt lat="41.502315" lon="0.7818883"><ele>304.0</ele><time>2026-03-31T17:13:28.157Z</time></trkpt><trkpt lat="41.502235" lon="0.7822367"><ele>304.0</ele><time>2026-03-31T17:13:29.158Z</time></trkpt><trkpt lat="41.502155" lon="0.7825867"><ele>304.0</ele><time>2026-03-31T17:13:30.157Z</time></trkpt><trkpt lat="41.502075" lon="0.7829467"><ele>305.5</ele><time>2026-03-31T17:13:31.158Z</time></trkpt><trkpt lat="41.5019917" lon="0.7833083"><ele>307.0</ele><time>2026-03-31T17:13:32.158Z</time></trkpt><trkpt lat="41.5019117" lon="0.78367"><ele>307.0</ele><time>2026-03-31T17:13:33.158Z</time></trkpt><trkpt lat="41.5018383" lon="0.78403"><ele>307.0</ele><time>2026-03-31T17:13:34.158Z</time></trkpt><trkpt lat="41.5017617" lon="0.7843867"><ele>307.5</ele><time>2026-03-31T17:13:35.157Z</time></trkpt><trkpt lat="41.5016833" lon="0.7847417"><ele>308.0</ele><time>2026-03-31T17:13:36.157Z</time></trkpt><trkpt lat="41.5015983" lon="0.7850967"><ele>307.0</ele><time>2026-03-31T17:13:37.157Z</time></trkpt><trkpt lat="41.5015233" lon="0.7854567"><ele>306.0</ele><time>2026-03-31T17:13:38.158Z</time></trkpt><trkpt lat="41.5014467" lon="0.78581"><ele>306.5</ele><time>2026-03-31T17:13:39.158Z</time></trkpt><trkpt lat="41.501365" lon="0.78616"><ele>307.0</ele><time>2026-03-31T17:13:40.158Z</time></trkpt><trkpt lat="41.501285" lon="0.78651"><ele>308.0</ele><time>2026-03-31T17:13:41.157Z</time></trkpt><trkpt lat="41.5012083" lon="0.786865"><ele>309.0</ele><time>2026-03-31T17:13:42.157Z</time></trkpt><trkpt lat="41.50113" lon="0.7872167"><ele>309.0</ele><time>2026-03-31T17:13:43.158Z</time></trkpt><trkpt lat="41.501055" lon="0.7875733"><ele>309.0</ele><time>2026-03-31T17:13:44.158Z</time></trkpt><trkpt lat="41.5009783" lon="0.7879183"><ele>309.0</ele><time>2026-03-31T17:13:45.157Z</time></trkpt><trkpt lat="41.5009" lon="0.7882717"><ele>309.0</ele><time>2026-03-31T17:13:46.157Z</time></trkpt><trkpt lat="41.500815" lon="0.7886183"><ele>308.5</ele><time>2026-03-31T17:13:47.157Z</time></trkpt><trkpt lat="41.5007383" lon="0.7889667"><ele>308.0</ele><time>2026-03-31T17:13:48.157Z</time></trkpt><trkpt lat="41.5006617" lon="0.7893217"><ele>308.5</ele><time>2026-03-31T17:13:49.157Z</time></trkpt><trkpt lat="41.5005833" lon="0.789665"><ele>309.0</ele><time>2026-03-31T17:13:50.157Z</time></trkpt><trkpt lat="41.5005033" lon="0.79002"><ele>308.0</ele><time>2026-03-31T17:13:51.158Z</time></trkpt><trkpt lat="41.5004233" lon="0.7903683"><ele>307.0</ele><time>2026-03-31T17:13:52.157Z</time></trkpt><trkpt lat="41.5003433" lon="0.7907217"><ele>309.5</ele><time>2026-03-31T17:13:53.158Z</time></trkpt><trkpt lat="41.5002667" lon="0.7910767"><ele>312.0</ele><time>2026-03-31T17:13:54.157Z</time></trkpt><trkpt lat="41.5001883" lon="0.791425"><ele>312.0</ele><time>2026-03-31T17:13:55.157Z</time></trkpt><trkpt lat="41.5001117" lon="0.7917817"><ele>312.0</ele><time>2026-03-31T17:13:56.157Z</time></trkpt><trkpt lat="41.5000333" lon="0.792135"><ele>311.5</ele><time>2026-03-31T17:13:57.157Z</time></trkpt><trkpt lat="41.4999533" lon="0.792485"><ele>311.0</ele><time>2026-03-31T17:13:58.158Z</time></trkpt><trkpt lat="41.499875" lon="0.79285"><ele>312.0</ele><time>2026-03-31T17:13:59.157Z</time></trkpt><trkpt lat="41.4997967" lon="0.793205"><ele>313.0</ele><time>2026-03-31T17:14:00.158Z</time></trkpt><trkpt lat="41.49972" lon="0.793565"><ele>313.5</ele><time>2026-03-31T17:14:01.158Z</time></trkpt><trkpt lat="41.4996517" lon="0.7939283"><ele>314.0</ele><time>2026-03-31T17:14:02.157Z</time></trkpt><trkpt lat="41.4995833" lon="0.794285"><ele>315.5</ele><time>2026-03-31T17:14:03.157Z</time></trkpt><trkpt lat="41.4995267" lon="0.7946467"><ele>317.0</ele><time>2026-03-31T17:14:04.157Z</time></trkpt><trkpt lat="41.4994683" lon="0.7950117"><ele>317.5</ele><time>2026-03-31T17:14:05.157Z</time></trkpt><trkpt lat="41.4994083" lon="0.795375"><ele>318.0</ele><time>2026-03-31T17:14:06.158Z</time></trkpt><trkpt lat="41.4993567" lon="0.7957333"><ele>317.0</ele><time>2026-03-31T17:14:07.158Z</time></trkpt><trkpt lat="41.499305" lon="0.796105"><ele>316.0</ele><time>2026-03-31T17:14:08.157Z</time></trkpt><trkpt lat="41.49925" lon="0.79648"><ele>316.0</ele><time>2026-03-31T17:14:09.158Z</time></trkpt><trkpt lat="41.4991983" lon="0.7968483"><ele>316.0</ele><time>2026-03-31T17:14:10.157Z</time></trkpt><trkpt lat="41.4991517" lon="0.79721"><ele>316.0</ele><time>2026-03-31T17:14:11.157Z</time></trkpt><trkpt lat="41.4991017" lon="0.7975717"><ele>316.0</ele><time>2026-03-31T17:14:12.157Z</time></trkpt><trkpt lat="41.4990533" lon="0.797935"><ele>318.5</ele><time>2026-03-31T17:14:13.157Z</time></trkpt><trkpt lat="41.4990067" lon="0.7982983"><ele>321.0</ele><time>2026-03-31T17:14:14.158Z</time></trkpt><trkpt lat="41.4989633" lon="0.798655"><ele>323.0</ele><time>2026-03-31T17:14:15.158Z</time></trkpt><trkpt lat="41.4989117" lon="0.7990067"><ele>325.0</ele><time>2026-03-31T17:14:16.158Z</time></trkpt><trkpt lat="41.4988633" lon="0.799355"><ele>325.5</ele><time>2026-03-31T17:14:17.158Z</time></trkpt><trkpt lat="41.4988117" lon="0.799705"><ele>326.0</ele><time>2026-03-31T17:14:18.158Z</time></trkpt><trkpt lat="41.4987683" lon="0.8000617"><ele>330.0</ele><time>2026-03-31T17:14:19.157Z</time></trkpt><trkpt lat="41.4987267" lon="0.8004117"><ele>334.0</ele><time>2026-03-31T17:14:20.158Z</time></trkpt><trkpt lat="41.49868" lon="0.800755"><ele>334.5</ele><time>2026-03-31T17:14:21.157Z</time></trkpt><trkpt lat="41.4986283" lon="0.8011033"><ele>335.0</ele><time>2026-03-31T17:14:22.157Z</time></trkpt><trkpt lat="41.4985767" lon="0.8014567"><ele>335.0</ele><time>2026-03-31T17:14:23.158Z</time></trkpt><trkpt lat="41.4985267" lon="0.8018167"><ele>335.0</ele><time>2026-03-31T17:14:24.158Z</time></trkpt><trkpt lat="41.4984783" lon="0.802185"><ele>335.0</ele><time>2026-03-31T17:14:25.157Z</time></trkpt><trkpt lat="41.49843" lon="0.80255"><ele>335.0</ele><time>2026-03-31T17:14:26.158Z</time></trkpt><trkpt lat="41.4983767" lon="0.8029117"><ele>335.0</ele><time>2026-03-31T17:14:27.157Z</time></trkpt><trkpt lat="41.4983217" lon="0.80327"><ele>335.0</ele><time>2026-03-31T17:14:28.157Z</time></trkpt><trkpt lat="41.4982733" lon="0.8036283"><ele>335.5</ele><time>2026-03-31T17:14:29.157Z</time></trkpt><trkpt lat="41.4982267" lon="0.80399"><ele>336.0</ele><time>2026-03-31T17:14:30.157Z</time></trkpt><trkpt lat="41.498175" lon="0.8043517"><ele>336.5</ele><time>2026-03-31T17:14:31.158Z</time></trkpt><trkpt lat="41.4981233" lon="0.804715"><ele>337.0</ele><time>2026-03-31T17:14:32.158Z</time></trkpt><trkpt lat="41.498075" lon="0.805075"><ele>337.5</ele><time>2026-03-31T17:14:33.158Z</time></trkpt><trkpt lat="41.498025" lon="0.8054283"><ele>338.0</ele><time>2026-03-31T17:14:34.158Z</time></trkpt><trkpt lat="41.4979783" lon="0.805775"><ele>339.0</ele><time>2026-03-31T17:14:35.157Z</time></trkpt><trkpt lat="41.4979333" lon="0.80612"><ele>340.0</ele><time>2026-03-31T17:14:36.158Z</time></trkpt><trkpt lat="41.4978967" lon="0.80645"><ele>341.0</ele><time>2026-03-31T17:14:37.157Z</time></trkpt><trkpt lat="41.4978633" lon="0.80677"><ele>342.0</ele><time>2026-03-31T17:14:38.157Z</time></trkpt><trkpt lat="41.497845" lon="0.8071083"><ele>343.0</ele><time>2026-03-31T17:14:39.157Z</time></trkpt><trkpt lat="41.4978533" lon="0.8074533"><ele>344.0</ele><time>2026-03-31T17:14:40.157Z</time></trkpt><trkpt lat="41.497885" lon="0.8078017"><ele>341.5</ele><time>2026-03-31T17:14:41.157Z</time></trkpt><trkpt lat="41.49794" lon="0.808145"><ele>339.0</ele><time>2026-03-31T17:14:42.157Z</time></trkpt><trkpt lat="41.4980117" lon="0.808485"><ele>341.0</ele><time>2026-03-31T17:14:43.157Z</time></trkpt><trkpt lat="41.4980967" lon="0.8088283"><ele>343.0</ele><time>2026-03-31T17:14:44.157Z</time></trkpt><trkpt lat="41.49819" lon="0.80917"><ele>344.0</ele><time>2026-03-31T17:14:45.158Z</time></trkpt><trkpt lat="41.4982817" lon="0.8095083"><ele>345.0</ele><time>2026-03-31T17:14:46.158Z</time></trkpt><trkpt lat="41.4983733" lon="0.8098567"><ele>345.0</ele><time>2026-03-31T17:14:47.157Z</time></trkpt><trkpt lat="41.4984667" lon="0.8102067"><ele>345.0</ele><time>2026-03-31T17:14:48.157Z</time></trkpt><trkpt lat="41.4985567" lon="0.810545"><ele>345.0</ele><time>2026-03-31T17:14:49.157Z</time></trkpt><trkpt lat="41.4986483" lon="0.8108833"><ele>345.0</ele><time>2026-03-31T17:14:50.157Z</time></trkpt><trkpt lat="41.4987417" lon="0.8112167"><ele>345.0</ele><time>2026-03-31T17:14:51.157Z</time></trkpt><trkpt lat="41.4988317" lon="0.8115483"><ele>345.0</ele><time>2026-03-31T17:14:52.158Z</time></trkpt><trkpt lat="41.4989233" lon="0.811885"><ele>345.0</ele><time>2026-03-31T17:14:53.157Z</time></trkpt><trkpt lat="41.49901" lon="0.812215"><ele>345.0</ele><time>2026-03-31T17:14:54.157Z</time></trkpt><trkpt lat="41.4990967" lon="0.81255"><ele>346.5</ele><time>2026-03-31T17:14:55.158Z</time></trkpt><trkpt lat="41.4991833" lon="0.8128817"><ele>348.0</ele><time>2026-03-31T17:14:56.157Z</time></trkpt><trkpt lat="41.4992717" lon="0.8132133"><ele>348.5</ele><time>2026-03-31T17:14:57.157Z</time></trkpt><trkpt lat="41.4993583" lon="0.8135467"><ele>349.0</ele><time>2026-03-31T17:14:58.157Z</time></trkpt><trkpt lat="41.4994417" lon="0.8138633"><ele>349.0</ele><time>2026-03-31T17:14:59.158Z</time></trkpt><trkpt lat="41.4995117" lon="0.814165"><ele>349.0</ele><time>2026-03-31T17:15:00.157Z</time></trkpt><trkpt lat="41.4995733" lon="0.8144617"><ele>349.0</ele><time>2026-03-31T17:15:01.157Z</time></trkpt><trkpt lat="41.4996183" lon="0.814775"><ele>349.0</ele><time>2026-03-31T17:15:02.157Z</time></trkpt><trkpt lat="41.49964" lon="0.81509"><ele>349.5</ele><time>2026-03-31T17:15:03.157Z</time></trkpt><trkpt lat="41.49964" lon="0.815415"><ele>350.0</ele><time>2026-03-31T17:15:04.157Z</time></trkpt><trkpt lat="41.499625" lon="0.8157417"><ele>351.0</ele><time>2026-03-31T17:15:05.157Z</time></trkpt><trkpt lat="41.4995917" lon="0.81607"><ele>352.0</ele><time>2026-03-31T17:15:06.158Z</time></trkpt><trkpt lat="41.4995433" lon="0.8164"><ele>352.0</ele><time>2026-03-31T17:15:07.157Z</time></trkpt><trkpt lat="41.499465" lon="0.81673"><ele>352.0</ele><time>2026-03-31T17:15:08.157Z</time></trkpt><trkpt lat="41.4993617" lon="0.8170433"><ele>349.0</ele><time>2026-03-31T17:15:09.157Z</time></trkpt><trkpt lat="41.4992467" lon="0.8173583"><ele>346.0</ele><time>2026-03-31T17:15:10.158Z</time></trkpt><trkpt lat="41.49914" lon="0.8176717"><ele>341.5</ele><time>2026-03-31T17:15:11.158Z</time></trkpt><trkpt lat="41.4990367" lon="0.8180067"><ele>337.0</ele><time>2026-03-31T17:15:12.157Z</time></trkpt><trkpt lat="41.4989467" lon="0.8183483"><ele>334.5</ele><time>2026-03-31T17:15:13.158Z</time></trkpt><trkpt lat="41.4988667" lon="0.8187033"><ele>332.0</ele><time>2026-03-31T17:15:14.157Z</time></trkpt><trkpt lat="41.498815" lon="0.819075"><ele>330.0</ele><time>2026-03-31T17:15:15.158Z</time></trkpt><trkpt lat="41.4987917" lon="0.8194417"><ele>328.0</ele><time>2026-03-31T17:15:16.157Z</time></trkpt><trkpt lat="41.4987867" lon="0.819805"><ele>326.5</ele><time>2026-03-31T17:15:17.157Z</time></trkpt><trkpt lat="41.4988033" lon="0.8201767"><ele>325.0</ele><time>2026-03-31T17:15:18.158Z</time></trkpt><trkpt lat="41.4988433" lon="0.820555"><ele>325.0</ele><time>2026-03-31T17:15:19.157Z</time></trkpt><trkpt lat="41.4989017" lon="0.82092"><ele>325.0</ele><time>2026-03-31T17:15:20.158Z</time></trkpt><trkpt lat="41.4989883" lon="0.8212617"><ele>324.5</ele><time>2026-03-31T17:15:21.157Z</time></trkpt><trkpt lat="41.4991017" lon="0.8216033"><ele>324.0</ele><time>2026-03-31T17:15:22.157Z</time></trkpt><trkpt lat="41.4992367" lon="0.8219333"><ele>325.5</ele><time>2026-03-31T17:15:23.157Z</time></trkpt><trkpt lat="41.4993917" lon="0.8222467"><ele>327.0</ele><time>2026-03-31T17:15:24.157Z</time></trkpt><trkpt lat="41.49955" lon="0.8225383"><ele>328.5</ele><time>2026-03-31T17:15:25.157Z</time></trkpt><trkpt lat="41.4997133" lon="0.8228183"><ele>330.0</ele><time>2026-03-31T17:15:26.158Z</time></trkpt><trkpt lat="41.4998733" lon="0.823105"><ele>330.0</ele><time>2026-03-31T17:15:27.157Z</time></trkpt><trkpt lat="41.50003" lon="0.82339"><ele>330.0</ele><time>2026-03-31T17:15:28.158Z</time></trkpt><trkpt lat="41.5001767" lon="0.8236733"><ele>328.5</ele><time>2026-03-31T17:15:29.157Z</time></trkpt><trkpt lat="41.5003167" lon="0.8239483"><ele>327.0</ele><time>2026-03-31T17:15:30.158Z</time></trkpt><trkpt lat="41.5004467" lon="0.8242233"><ele>330.0</ele><time>2026-03-31T17:15:31.157Z</time></trkpt><trkpt lat="41.50057" lon="0.8244883"><ele>333.0</ele><time>2026-03-31T17:15:32.157Z</time></trkpt><trkpt lat="41.5006883" lon="0.8247567"><ele>333.0</ele><time>2026-03-31T17:15:33.157Z</time></trkpt><trkpt lat="41.5008083" lon="0.8250417"><ele>333.0</ele><time>2026-03-31T17:15:34.158Z</time></trkpt><trkpt lat="41.5009133" lon="0.8253217"><ele>335.5</ele><time>2026-03-31T17:15:35.158Z</time></trkpt><trkpt lat="41.50102" lon="0.8256"><ele>338.0</ele><time>2026-03-31T17:15:36.158Z</time></trkpt><trkpt lat="41.50113" lon="0.82587"><ele>339.5</ele><time>2026-03-31T17:15:37.157Z</time></trkpt><trkpt lat="41.5012367" lon="0.826145"><ele>341.0</ele><time>2026-03-31T17:15:38.157Z</time></trkpt><trkpt lat="41.50134" lon="0.826415"><ele>337.0</ele><time>2026-03-31T17:15:39.158Z</time></trkpt><trkpt lat="41.5014417" lon="0.8266917"><ele>333.0</ele><time>2026-03-31T17:15:40.158Z</time></trkpt><trkpt lat="41.5015433" lon="0.8269683"><ele>333.0</ele><time>2026-03-31T17:15:41.157Z</time></trkpt><trkpt lat="41.501655" lon="0.8272467"><ele>333.0</ele><time>2026-03-31T17:15:42.158Z</time></trkpt><trkpt lat="41.50177" lon="0.8275183"><ele>333.0</ele><time>2026-03-31T17:15:43.157Z</time></trkpt><trkpt lat="41.5018983" lon="0.8277833"><ele>333.0</ele><time>2026-03-31T17:15:44.158Z</time></trkpt><trkpt lat="41.5020267" lon="0.8280433"><ele>331.5</ele><time>2026-03-31T17:15:45.157Z</time></trkpt><trkpt lat="41.50216" lon="0.8283"><ele>330.0</ele><time>2026-03-31T17:15:46.158Z</time></trkpt><trkpt lat="41.5022967" lon="0.8285567"><ele>329.0</ele><time>2026-03-31T17:15:47.158Z</time></trkpt><trkpt lat="41.5024383" lon="0.82882"><ele>328.0</ele><time>2026-03-31T17:15:48.157Z</time></trkpt><trkpt lat="41.5025817" lon="0.829095"><ele>326.5</ele><time>2026-03-31T17:15:49.158Z</time></trkpt><trkpt lat="41.5027333" lon="0.8293667"><ele>325.0</ele><time>2026-03-31T17:15:50.158Z</time></trkpt><trkpt lat="41.5028817" lon="0.829645"><ele>324.5</ele><time>2026-03-31T17:15:51.157Z</time></trkpt><trkpt lat="41.5030333" lon="0.8299483"><ele>324.0</ele><time>2026-03-31T17:15:52.158Z</time></trkpt><trkpt lat="41.503185" lon="0.8302433"><ele>323.0</ele><time>2026-03-31T17:15:53.157Z</time></trkpt><trkpt lat="41.5033417" lon="0.8305367"><ele>322.0</ele><time>2026-03-31T17:15:54.157Z</time></trkpt><trkpt lat="41.5034967" lon="0.8308267"><ele>322.5</ele><time>2026-03-31T17:15:55.157Z</time></trkpt><trkpt lat="41.503655" lon="0.8311283"><ele>323.0</ele><time>2026-03-31T17:15:56.158Z</time></trkpt><trkpt lat="41.5038033" lon="0.8314267"><ele>321.0</ele><time>2026-03-31T17:15:57.157Z</time></trkpt><trkpt lat="41.503965" lon="0.8317217"><ele>319.0</ele><time>2026-03-31T17:15:58.157Z</time></trkpt><trkpt lat="41.5041167" lon="0.832015"><ele>318.5</ele><time>2026-03-31T17:15:59.157Z</time></trkpt><trkpt lat="41.5042733" lon="0.8323217"><ele>318.0</ele><time>2026-03-31T17:16:00.158Z</time></trkpt><trkpt lat="41.50443" lon="0.8326267"><ele>317.0</ele><time>2026-03-31T17:16:01.158Z</time></trkpt><trkpt lat="41.5045883" lon="0.8329283"><ele>316.0</ele><time>2026-03-31T17:16:02.157Z</time></trkpt><trkpt lat="41.5047467" lon="0.8332317"><ele>315.5</ele><time>2026-03-31T17:16:03.157Z</time></trkpt><trkpt lat="41.5049017" lon="0.8335283"><ele>315.0</ele><time>2026-03-31T17:16:04.157Z</time></trkpt><trkpt lat="41.5050583" lon="0.8338283"><ele>315.0</ele><time>2026-03-31T17:16:05.157Z</time></trkpt><trkpt lat="41.5052183" lon="0.8341333"><ele>315.0</ele><time>2026-03-31T17:16:06.157Z</time></trkpt><trkpt lat="41.50537" lon="0.8344383"><ele>313.5</ele><time>2026-03-31T17:16:07.157Z</time></trkpt><trkpt lat="41.5055333" lon="0.83474"><ele>312.0</ele><time>2026-03-31T17:16:08.157Z</time></trkpt><trkpt lat="41.5056933" lon="0.8350367"><ele>312.5</ele><time>2026-03-31T17:16:09.157Z</time></trkpt><trkpt lat="41.5058533" lon="0.8353333"><ele>313.0</ele><time>2026-03-31T17:16:10.158Z</time></trkpt><trkpt lat="41.5060083" lon="0.835635"><ele>313.0</ele><time>2026-03-31T17:16:11.157Z</time></trkpt><trkpt lat="41.506165" lon="0.83594"><ele>313.0</ele><time>2026-03-31T17:16:12.158Z</time></trkpt><trkpt lat="41.5063217" lon="0.8362483"><ele>312.5</ele><time>2026-03-31T17:16:13.157Z</time></trkpt><trkpt lat="41.506475" lon="0.8365483"><ele>312.0</ele><time>2026-03-31T17:16:14.157Z</time></trkpt><trkpt lat="41.5066317" lon="0.83685"><ele>310.5</ele><time>2026-03-31T17:16:15.157Z</time></trkpt><trkpt lat="41.5067933" lon="0.837155"><ele>309.0</ele><time>2026-03-31T17:16:16.158Z</time></trkpt><trkpt lat="41.5069567" lon="0.8374617"><ele>308.0</ele><time>2026-03-31T17:16:17.158Z</time></trkpt><trkpt lat="41.5071133" lon="0.8377683"><ele>307.0</ele><time>2026-03-31T17:16:18.157Z</time></trkpt><trkpt lat="41.5072733" lon="0.8380733"><ele>307.0</ele><time>2026-03-31T17:16:19.157Z</time></trkpt><trkpt lat="41.5074383" lon="0.8383783"><ele>307.0</ele><time>2026-03-31T17:16:20.157Z</time></trkpt><trkpt lat="41.5076033" lon="0.8386917"><ele>307.5</ele><time>2026-03-31T17:16:21.157Z</time></trkpt><trkpt lat="41.507765" lon="0.839"><ele>308.0</ele><time>2026-03-31T17:16:22.157Z</time></trkpt><trkpt lat="41.507915" lon="0.8393033"><ele>306.0</ele><time>2026-03-31T17:16:23.157Z</time></trkpt><trkpt lat="41.50807" lon="0.8396033"><ele>304.0</ele><time>2026-03-31T17:16:24.157Z</time></trkpt><trkpt lat="41.5082217" lon="0.8398983"><ele>303.5</ele><time>2026-03-31T17:16:25.157Z</time></trkpt><trkpt lat="41.5083733" lon="0.8401817"><ele>303.0</ele><time>2026-03-31T17:16:26.157Z</time></trkpt><trkpt lat="41.5085333" lon="0.8404633"><ele>303.0</ele><time>2026-03-31T17:16:27.158Z</time></trkpt><trkpt lat="41.5086617" lon="0.8407317"><ele>303.0</ele><time>2026-03-31T17:16:28.157Z</time></trkpt><trkpt lat="41.5088" lon="0.8409933"><ele>302.5</ele><time>2026-03-31T17:16:29.157Z</time></trkpt><trkpt lat="41.5089433" lon="0.8412583"><ele>302.0</ele><time>2026-03-31T17:16:30.158Z</time></trkpt><trkpt lat="41.5090817" lon="0.8415117"><ele>302.0</ele><time>2026-03-31T17:16:31.157Z</time></trkpt><trkpt lat="41.5092117" lon="0.8417617"><ele>302.0</ele><time>2026-03-31T17:16:32.157Z</time></trkpt><trkpt lat="41.5093367" lon="0.8419933"><ele>302.0</ele><time>2026-03-31T17:16:33.158Z</time></trkpt><trkpt lat="41.509455" lon="0.8422233"><ele>301.5</ele><time>2026-03-31T17:16:34.157Z</time></trkpt><trkpt lat="41.509585" lon="0.8424717"><ele>301.0</ele><time>2026-03-31T17:16:35.158Z</time></trkpt><trkpt lat="41.509705" lon="0.842725"><ele>300.5</ele><time>2026-03-31T17:16:36.157Z</time></trkpt><trkpt lat="41.509825" lon="0.8429883"><ele>300.0</ele><time>2026-03-31T17:16:37.157Z</time></trkpt><trkpt lat="41.50994" lon="0.843255"><ele>301.0</ele><time>2026-03-31T17:16:38.157Z</time></trkpt><trkpt lat="41.5100483" lon="0.8435267"><ele>302.0</ele><time>2026-03-31T17:16:39.158Z</time></trkpt><trkpt lat="41.5101467" lon="0.843795"><ele>302.0</ele><time>2026-03-31T17:16:40.157Z</time></trkpt><trkpt lat="41.5102367" lon="0.8440767"><ele>302.0</ele><time>2026-03-31T17:16:41.157Z</time></trkpt><trkpt lat="41.5103217" lon="0.8443617"><ele>301.0</ele><time>2026-03-31T17:16:42.158Z</time></trkpt><trkpt lat="41.5104117" lon="0.8446367"><ele>300.0</ele><time>2026-03-31T17:16:43.157Z</time></trkpt><trkpt lat="41.5105083" lon="0.8449017"><ele>299.0</ele><time>2026-03-31T17:16:44.157Z</time></trkpt><trkpt lat="41.5106233" lon="0.8451617"><ele>298.33333333333337</ele><time>2026-03-31T17:16:45.158Z</time></trkpt><trkpt lat="41.5107567" lon="0.845395"><ele>297.6666666666667</ele><time>2026-03-31T17:16:46.157Z</time></trkpt><trkpt lat="41.5108967" lon="0.8456183"><ele>297.0</ele><time>2026-03-31T17:16:47.157Z</time></trkpt><trkpt lat="41.5110483" lon="0.8458233"><ele>296.5</ele><time>2026-03-31T17:16:48.157Z</time></trkpt><trkpt lat="41.5112167" lon="0.8460283"><ele>296.0</ele><time>2026-03-31T17:16:49.157Z</time></trkpt><trkpt lat="41.5113967" lon="0.8462167"><ele>296.0</ele><time>2026-03-31T17:16:50.158Z</time></trkpt><trkpt lat="41.5115867" lon="0.84638"><ele>296.0</ele><time>2026-03-31T17:16:51.157Z</time></trkpt><trkpt lat="41.51178" lon="0.8465283"><ele>296.0</ele><time>2026-03-31T17:16:52.157Z</time></trkpt><trkpt lat="41.51197" lon="0.8466767"><ele>296.5</ele><time>2026-03-31T17:16:53.157Z</time></trkpt><trkpt lat="41.512155" lon="0.8468517"><ele>297.0</ele><time>2026-03-31T17:16:54.158Z</time></trkpt><trkpt lat="41.5123333" lon="0.8470483"><ele>297.0</ele><time>2026-03-31T17:16:55.157Z</time></trkpt><trkpt lat="41.5125083" lon="0.8472517"><ele>297.0</ele><time>2026-03-31T17:16:56.158Z</time></trkpt><trkpt lat="41.51268" lon="0.8474583"><ele>296.5</ele><time>2026-03-31T17:16:57.158Z</time></trkpt><trkpt lat="41.5128467" lon="0.8476783"><ele>296.0</ele><time>2026-03-31T17:16:58.157Z</time></trkpt><trkpt lat="41.51301" lon="0.8479"><ele>296.0</ele><time>2026-03-31T17:16:59.158Z</time></trkpt><trkpt lat="41.5131733" lon="0.8481233"><ele>296.0</ele><time>2026-03-31T17:17:00.158Z</time></trkpt><trkpt lat="41.5133417" lon="0.8483483"><ele>296.0</ele><time>2026-03-31T17:17:01.158Z</time></trkpt><trkpt lat="41.5135067" lon="0.84858"><ele>296.0</ele><time>2026-03-31T17:17:02.157Z</time></trkpt><trkpt lat="41.513675" lon="0.8488133"><ele>294.0</ele><time>2026-03-31T17:17:03.158Z</time></trkpt><trkpt lat="41.5138467" lon="0.8490433"><ele>292.0</ele><time>2026-03-31T17:17:04.158Z</time></trkpt><trkpt lat="41.51401" lon="0.849275"><ele>292.0</ele><time>2026-03-31T17:17:05.158Z</time></trkpt><trkpt lat="41.5141783" lon="0.8495067"><ele>292.0</ele><time>2026-03-31T17:17:06.158Z</time></trkpt><trkpt lat="41.5143483" lon="0.8497333"><ele>292.0</ele><time>2026-03-31T17:17:07.157Z</time></trkpt><trkpt lat="41.5145133" lon="0.8499633"><ele>292.0</ele><time>2026-03-31T17:17:08.157Z</time></trkpt><trkpt lat="41.51468" lon="0.8501917"><ele>290.5</ele><time>2026-03-31T17:17:09.158Z</time></trkpt><trkpt lat="41.5148467" lon="0.8504283"><ele>289.0</ele><time>2026-03-31T17:17:10.157Z</time></trkpt><trkpt lat="41.5150183" lon="0.85066"><ele>289.0</ele><time>2026-03-31T17:17:11.158Z</time></trkpt><trkpt lat="41.5151817" lon="0.8508833"><ele>289.0</ele><time>2026-03-31T17:17:12.157Z</time></trkpt><trkpt lat="41.5153517" lon="0.8511117"><ele>288.0</ele><time>2026-03-31T17:17:13.158Z</time></trkpt><trkpt lat="41.5155233" lon="0.8513367"><ele>287.0</ele><time>2026-03-31T17:17:14.158Z</time></trkpt><trkpt lat="41.5156883" lon="0.8515533"><ele>287.0</ele><time>2026-03-31T17:17:15.158Z</time></trkpt><trkpt lat="41.5158483" lon="0.8517717"><ele>287.0</ele><time>2026-03-31T17:17:16.158Z</time></trkpt><trkpt lat="41.5160083" lon="0.851985"><ele>287.0</ele><time>2026-03-31T17:17:17.157Z</time></trkpt><trkpt lat="41.5161767" lon="0.8522033"><ele>287.0</ele><time>2026-03-31T17:17:18.158Z</time></trkpt><trkpt lat="41.516335" lon="0.8524267"><ele>284.0</ele><time>2026-03-31T17:17:19.158Z</time></trkpt><trkpt lat="41.5164917" lon="0.852665"><ele>281.0</ele><time>2026-03-31T17:17:20.157Z</time></trkpt><trkpt lat="41.516645" lon="0.8529033"><ele>281.0</ele><time>2026-03-31T17:17:21.157Z</time></trkpt><trkpt lat="41.5167867" lon="0.8531483"><ele>281.0</ele><time>2026-03-31T17:17:22.157Z</time></trkpt><trkpt lat="41.51692" lon="0.85341"><ele>280.5</ele><time>2026-03-31T17:17:23.158Z</time></trkpt><trkpt lat="41.5170517" lon="0.853675"><ele>280.0</ele><time>2026-03-31T17:17:24.157Z</time></trkpt><trkpt lat="41.51718" lon="0.8539483"><ele>279.5</ele><time>2026-03-31T17:17:25.158Z</time></trkpt><trkpt lat="41.5173083" lon="0.8542217"><ele>279.0</ele><time>2026-03-31T17:17:26.158Z</time></trkpt><trkpt lat="41.5174417" lon="0.8544867"><ele>278.6666666666667</ele><time>2026-03-31T17:17:27.157Z</time></trkpt><trkpt lat="41.5175633" lon="0.854735"><ele>278.33333333333337</ele><time>2026-03-31T17:17:28.157Z</time></trkpt><trkpt lat="41.5176767" lon="0.8549733"><ele>278.0</ele><time>2026-03-31T17:17:29.157Z</time></trkpt><trkpt lat="41.5177867" lon="0.8551983"><ele>278.0</ele><time>2026-03-31T17:17:30.157Z</time></trkpt><trkpt lat="41.5178967" lon="0.8554217"><ele>278.0</ele><time>2026-03-31T17:17:31.158Z</time></trkpt><trkpt lat="41.5180033" lon="0.855635"><ele>278.0</ele><time>2026-03-31T17:17:32.157Z</time></trkpt><trkpt lat="41.5180983" lon="0.8558433"><ele>279.0</ele><time>2026-03-31T17:17:33.158Z</time></trkpt><trkpt lat="41.5181967" lon="0.85604"><ele>280.0</ele><time>2026-03-31T17:17:34.157Z</time></trkpt><trkpt lat="41.518285" lon="0.856215"><ele>281.0</ele><time>2026-03-31T17:17:35.157Z</time></trkpt><trkpt lat="41.5183617" lon="0.85638"><ele>281.0</ele><time>2026-03-31T17:17:36.158Z</time></trkpt><trkpt lat="41.5184217" lon="0.8565217"><ele>281.0</ele><time>2026-03-31T17:17:37.157Z</time></trkpt><trkpt lat="41.5184633" lon="0.8566783"><ele>281.0</ele><time>2026-03-31T17:17:38.158Z</time></trkpt><trkpt lat="41.51847" lon="0.856825"><ele>281.0</ele><time>2026-03-31T17:17:39.158Z</time></trkpt><trkpt lat="41.5184833" lon="0.8569667"><ele>281.5</ele><time>2026-03-31T17:17:40.158Z</time></trkpt><trkpt lat="41.5185317" lon="0.8570967"><ele>282.0</ele><time>2026-03-31T17:17:41.157Z</time></trkpt><trkpt lat="41.5186017" lon="0.8572117"><ele>282.5</ele><time>2026-03-31T17:17:42.158Z</time></trkpt><trkpt lat="41.5186783" lon="0.8573267"><ele>283.0</ele><time>2026-03-31T17:17:43.157Z</time></trkpt><trkpt lat="41.5187317" lon="0.8574783"><ele>281.75</ele><time>2026-03-31T17:17:44.157Z</time></trkpt><trkpt lat="41.5187517" lon="0.85765"><ele>280.5</ele><time>2026-03-31T17:17:45.157Z</time></trkpt><trkpt lat="41.5187867" lon="0.85782"><ele>279.25</ele><time>2026-03-31T17:17:46.156Z</time></trkpt><trkpt lat="41.518825" lon="0.8580067"><ele>278.0</ele><time>2026-03-31T17:17:47.156Z</time></trkpt><trkpt lat="41.5188567" lon="0.8581767"><ele>278.0</ele><time>2026-03-31T17:17:48.157Z</time></trkpt><trkpt lat="41.51888" lon="0.8583233"><ele>278.0</ele><time>2026-03-31T17:17:49.156Z</time></trkpt><trkpt lat="41.5189033" lon="0.8584783"><ele>278.0</ele><time>2026-03-31T17:17:50.156Z</time></trkpt><trkpt lat="41.5189283" lon="0.8586067"><ele>278.0</ele><time>2026-03-31T17:17:51.156Z</time></trkpt><trkpt lat="41.5189533" lon="0.85874"><ele>278.0</ele><time>2026-03-31T17:17:52.157Z</time></trkpt><trkpt lat="41.5189783" lon="0.85885"><ele>278.33333333333337</ele><time>2026-03-31T17:17:53.156Z</time></trkpt><trkpt lat="41.5189917" lon="0.858955"><ele>278.6666666666667</ele><time>2026-03-31T17:17:54.156Z</time></trkpt><trkpt lat="41.5189883" lon="0.8590533"><ele>279.0</ele><time>2026-03-31T17:17:55.156Z</time></trkpt><trkpt lat="41.518955" lon="0.85915"><ele>279.3333333333333</ele><time>2026-03-31T17:17:56.156Z</time></trkpt><trkpt lat="41.51891" lon="0.8592467"><ele>279.66666666666663</ele><time>2026-03-31T17:17:57.156Z</time></trkpt><trkpt lat="41.5188733" lon="0.8593467"><ele>280.0</ele><time>2026-03-31T17:17:58.156Z</time></trkpt><trkpt lat="41.5188667" lon="0.85947"><ele>280.0</ele><time>2026-03-31T17:17:59.156Z</time></trkpt><trkpt lat="41.5189" lon="0.8595767"><ele>280.0</ele><time>2026-03-31T17:18:00.157Z</time></trkpt><trkpt lat="41.518975" lon="0.859655"><ele>280.0</ele><time>2026-03-31T17:18:01.157Z</time></trkpt><trkpt lat="41.519075" lon="0.8597217"><ele>280.0</ele><time>2026-03-31T17:18:02.156Z</time></trkpt><trkpt lat="41.5191583" lon="0.8598033"><ele>280.0</ele><time>2026-03-31T17:18:03.156Z</time></trkpt><trkpt lat="41.5192083" lon="0.85989"><ele>280.0</ele><time>2026-03-31T17:18:04.157Z</time></trkpt><trkpt lat="41.51925" lon="0.8599883"><ele>280.0</ele><time>2026-03-31T17:18:05.156Z</time></trkpt><trkpt lat="41.5192967" lon="0.860085"><ele>280.0</ele><time>2026-03-31T17:18:06.156Z</time></trkpt><trkpt lat="41.51935" lon="0.86019"><ele>280.0</ele><time>2026-03-31T17:18:07.157Z</time></trkpt><trkpt lat="41.5193967" lon="0.86028"><ele>280.0</ele><time>2026-03-31T17:18:08.156Z</time></trkpt><trkpt lat="41.5194433" lon="0.8603667"><ele>280.0</ele><time>2026-03-31T17:18:09.157Z</time></trkpt><trkpt lat="41.5194883" lon="0.86045"><ele>280.0</ele><time>2026-03-31T17:18:10.157Z</time></trkpt><trkpt lat="41.51953" lon="0.86053"><ele>280.0</ele><time>2026-03-31T17:18:11.156Z</time></trkpt><trkpt lat="41.519575" lon="0.8606133"><ele>280.0</ele><time>2026-03-31T17:18:12.156Z</time></trkpt><trkpt lat="41.5196317" lon="0.86072"><ele>280.0</ele><time>2026-03-31T17:18:13.157Z</time></trkpt><trkpt lat="41.5197" lon="0.8608517"><ele>280.0</ele><time>2026-03-31T17:18:14.156Z</time></trkpt><trkpt lat="41.5197683" lon="0.860995"><ele>280.75</ele><time>2026-03-31T17:18:15.157Z</time></trkpt><trkpt lat="41.519845" lon="0.861135"><ele>281.5</ele><time>2026-03-31T17:18:16.156Z</time></trkpt><trkpt lat="41.51992" lon="0.861275"><ele>282.25</ele><time>2026-03-31T17:18:17.157Z</time></trkpt><trkpt lat="41.52" lon="0.86142"><ele>283.0</ele><time>2026-03-31T17:18:18.157Z</time></trkpt><trkpt lat="41.5200867" lon="0.8615767"><ele>283.0</ele><time>2026-03-31T17:18:19.156Z</time></trkpt><trkpt lat="41.5201767" lon="0.8617467"><ele>283.0</ele><time>2026-03-31T17:18:20.156Z</time></trkpt><trkpt lat="41.5202667" lon="0.8619117"><ele>283.0</ele><time>2026-03-31T17:18:21.156Z</time></trkpt><trkpt lat="41.5203533" lon="0.8620833"><ele>283.66666666666663</ele><time>2026-03-31T17:18:22.156Z</time></trkpt><trkpt lat="41.5204467" lon="0.8622483"><ele>284.3333333333333</ele><time>2026-03-31T17:18:23.157Z</time></trkpt><trkpt lat="41.52053" lon="0.8624183"><ele>285.0</ele><time>2026-03-31T17:18:24.156Z</time></trkpt><trkpt lat="41.5206117" lon="0.8625833"><ele>286.0</ele><time>2026-03-31T17:18:25.156Z</time></trkpt><trkpt lat="41.5206967" lon="0.862745"><ele>287.0</ele><time>2026-03-31T17:18:26.157Z</time></trkpt><trkpt lat="41.5207717" lon="0.8628967"><ele>288.0</ele><time>2026-03-31T17:18:27.156Z</time></trkpt><trkpt lat="41.5208517" lon="0.8630317"><ele>289.0</ele><time>2026-03-31T17:18:28.156Z</time></trkpt><trkpt lat="41.52092" lon="0.8631717"><ele>289.0</ele><time>2026-03-31T17:18:29.156Z</time></trkpt><trkpt lat="41.52099" lon="0.8633167"><ele>289.0</ele><time>2026-03-31T17:18:30.157Z</time></trkpt><trkpt lat="41.52107" lon="0.863455"><ele>289.0</ele><time>2026-03-31T17:18:31.157Z</time></trkpt><trkpt lat="41.5211417" lon="0.863585"><ele>289.0</ele><time>2026-03-31T17:18:32.156Z</time></trkpt><trkpt lat="41.5212117" lon="0.8637133"><ele>288.59999999999997</ele><time>2026-03-31T17:18:33.157Z</time></trkpt><trkpt lat="41.521285" lon="0.8638267"><ele>288.2</ele><time>2026-03-31T17:18:34.157Z</time></trkpt><trkpt lat="41.5213417" lon="0.8639317"><ele>287.79999999999995</ele><time>2026-03-31T17:18:35.157Z</time></trkpt><trkpt lat="41.521405" lon="0.8640417"><ele>287.4</ele><time>2026-03-31T17:18:36.156Z</time></trkpt><trkpt lat="41.521475" lon="0.8641567"><ele>287.0</ele><time>2026-03-31T17:18:37.157Z</time></trkpt><trkpt lat="41.521545" lon="0.8642733"><ele>287.5</ele><time>2026-03-31T17:18:38.156Z</time></trkpt><trkpt lat="41.521615" lon="0.864385"><ele>288.0</ele><time>2026-03-31T17:18:39.157Z</time></trkpt><trkpt lat="41.521665" lon="0.86451"><ele>288.5</ele><time>2026-03-31T17:18:40.157Z</time></trkpt><trkpt lat="41.5217117" lon="0.8646"><ele>289.0</ele><time>2026-03-31T17:18:41.156Z</time></trkpt><trkpt lat="41.521745" lon="0.8646817"><ele>289.5</ele><time>2026-03-31T17:18:42.157Z</time></trkpt><trkpt lat="41.5217833" lon="0.8647583"><ele>290.0</ele><time>2026-03-31T17:18:44.157Z</time></trkpt><trkpt lat="41.52179" lon="0.8648817"><ele>290.0</ele><time>2026-03-31T17:18:52.157Z</time></trkpt><trkpt lat="41.5217567" lon="0.8649617"><ele>290.0</ele><time>2026-03-31T17:18:53.157Z</time></trkpt><trkpt lat="41.5216983" lon="0.8650467"><ele>290.0</ele><time>2026-03-31T17:18:54.157Z</time></trkpt><trkpt lat="41.5216433" lon="0.8651533"><ele>290.0</ele><time>2026-03-31T17:18:55.156Z</time></trkpt><trkpt lat="41.5215917" lon="0.8652733"><ele>290.0</ele><time>2026-03-31T17:18:56.157Z</time></trkpt><trkpt lat="41.52154" lon="0.8653933"><ele>290.8</ele><time>2026-03-31T17:18:57.156Z</time></trkpt><trkpt lat="41.5214917" lon="0.86551"><ele>291.6</ele><time>2026-03-31T17:18:58.157Z</time></trkpt><trkpt lat="41.5214367" lon="0.8656233"><ele>292.4</ele><time>2026-03-31T17:18:59.156Z</time></trkpt><trkpt lat="41.5213817" lon="0.8657367"><ele>293.2</ele><time>2026-03-31T17:19:00.156Z</time></trkpt><trkpt lat="41.5213367" lon="0.8658367"><ele>294.0</ele><time>2026-03-31T17:19:01.156Z</time></trkpt><trkpt lat="41.5212917" lon="0.8659233"><ele>294.6666666666667</ele><time>2026-03-31T17:19:02.156Z</time></trkpt><trkpt lat="41.5212517" lon="0.8660067"><ele>295.3333333333333</ele><time>2026-03-31T17:19:03.156Z</time></trkpt><trkpt lat="41.5212183" lon="0.8660817"><ele>296.0</ele><time>2026-03-31T17:19:04.156Z</time></trkpt><trkpt lat="41.5211467" lon="0.86618"><ele>296.66666666666663</ele><time>2026-03-31T17:19:06.156Z</time></trkpt><trkpt lat="41.5211" lon="0.8662517"><ele>297.3333333333333</ele><time>2026-03-31T17:19:08.157Z</time></trkpt><trkpt lat="41.521045" lon="0.86635"><ele>298.0</ele><time>2026-03-31T17:19:10.156Z</time></trkpt><trkpt lat="41.5209683" lon="0.866455"><ele>298.2</ele><time>2026-03-31T17:19:12.156Z</time></trkpt><trkpt lat="41.5209133" lon="0.8665167"><ele>298.4</ele><time>2026-03-31T17:19:13.156Z</time></trkpt><trkpt lat="41.5208633" lon="0.8665833"><ele>298.59999999999997</ele><time>2026-03-31T17:19:14.157Z</time></trkpt><trkpt lat="41.520815" lon="0.8666467"><ele>298.8</ele><time>2026-03-31T17:19:15.157Z</time></trkpt><trkpt lat="41.5207233" lon="0.8667567"><ele>299.0</ele><time>2026-03-31T17:19:17.156Z</time></trkpt><trkpt lat="41.520635" lon="0.8668733"><ele>298.6666666666667</ele><time>2026-03-31T17:19:19.156Z</time></trkpt><trkpt lat="41.5205433" lon="0.866985"><ele>298.33333333333337</ele><time>2026-03-31T17:19:21.156Z</time></trkpt><trkpt lat="41.5204933" lon="0.8670417"><ele>298.0</ele><time>2026-03-31T17:19:22.157Z</time></trkpt><trkpt lat="41.5204433" lon="0.8670967"><ele>297.6666666666667</ele><time>2026-03-31T17:19:23.157Z</time></trkpt><trkpt lat="41.520395" lon="0.8671567"><ele>297.3333333333333</ele><time>2026-03-31T17:19:24.157Z</time></trkpt><trkpt lat="41.520345" lon="0.8672167"><ele>297.0</ele><time>2026-03-31T17:19:25.157Z</time></trkpt><trkpt lat="41.5202967" lon="0.8672767"><ele>297.0</ele><time>2026-03-31T17:19:26.156Z</time></trkpt><trkpt lat="41.5202333" lon="0.8673667"><ele>297.0</ele><time>2026-03-31T17:19:28.156Z</time></trkpt><trkpt lat="41.5201867" lon="0.8674483"><ele>297.0</ele><time>2026-03-31T17:19:30.156Z</time></trkpt><trkpt lat="41.520135" lon="0.8675233"><ele>297.0</ele><time>2026-03-31T17:19:32.156Z</time></trkpt><trkpt lat="41.5200933" lon="0.8675883"><ele>297.0</ele><time>2026-03-31T17:19:34.156Z</time></trkpt><trkpt lat="41.5200367" lon="0.8676817"><ele>297.0</ele><time>2026-03-31T17:19:37.157Z</time></trkpt><trkpt lat="41.52003" lon="0.867795"><ele>297.0</ele><time>2026-03-31T17:19:40.156Z</time></trkpt><trkpt lat="41.52009" lon="0.867875"><ele>297.0</ele><time>2026-03-31T17:19:42.156Z</time></trkpt><trkpt lat="41.52015" lon="0.8679033"><ele>297.0</ele><time>2026-03-31T17:19:43.156Z</time></trkpt><trkpt lat="41.5202383" lon="0.867935"><ele>297.0</ele><time>2026-03-31T17:19:44.156Z</time></trkpt><trkpt lat="41.5203317" lon="0.86796"><ele>297.0</ele><time>2026-03-31T17:19:45.156Z</time></trkpt><trkpt lat="41.52042" lon="0.867965"><ele>297.0</ele><time>2026-03-31T17:19:46.156Z</time></trkpt><trkpt lat="41.5205067" lon="0.8679717"><ele>298.1666666666667</ele><time>2026-03-31T17:19:47.156Z</time></trkpt><trkpt lat="41.5205833" lon="0.86797"><ele>299.3333333333333</ele><time>2026-03-31T17:19:48.156Z</time></trkpt><trkpt lat="41.52065" lon="0.8679683"><ele>300.5</ele><time>2026-03-31T17:19:49.156Z</time></trkpt><trkpt lat="41.52076" lon="0.86795"><ele>301.66666666666663</ele><time>2026-03-31T17:19:51.157Z</time></trkpt><trkpt lat="41.5208217" lon="0.8678967"><ele>302.8333333333333</ele><time>2026-03-31T17:19:53.156Z</time></trkpt><trkpt lat="41.52088" lon="0.8678117"><ele>304.0</ele><time>2026-03-31T17:19:56.157Z</time></trkpt><trkpt lat="41.52096" lon="0.86777"><ele>304.0</ele><time>2026-03-31T17:19:59.156Z</time></trkpt></trkseg></trk></gpx>